<?xml version="1.0" encoding="UTF-8" standalone="no" ?>
<gpx xmlns="http://www.topografix.com/GPX/1/1" xmlns:xsi="http://www.w3.org/2001/XMLSchema-instance" xsi:schemaLocation="http://www.topografix.com/GPX/1/1 http://www.topografix.com/GPX/1/1/gpx.xsd" version="1.1" creator="VisuGPX - https://www.visugpx.com">
  <metadata>
    <name>chateaugiron 24 km accessible</name>
    <desc><![CDATA[Parcours variés accessible au plus grand nombre, vers le bas de Nouvoitou vous passerez a coté d un champ de bosses sympa pour s'échauffer ou s'entrainer. Vers le km 7.5 vers "le bas Poirier" il y a un single secret dans le petit bois sans accès visible d'entrée et de sortie, longer le champ.
En hiver le parcours peu être très boueux, et certain chemin ressembler a des ruisseaux quand il pleut, mais c'est plus amusant...
J ai un niveau moyen parcourt fait en 1h50 état boueux et pluie.]]></desc>
  </metadata>
  <trk>
    <name><![CDATA[Châteaugiron 24 km accessible bien]]></name>
    <desc><![CDATA[(niveau moyen 1h50 tres boueux). Parcours sympa varié accessible au plus grand nombre pas technique sauf un passage délicat , champs de bosses pour s 'echauffer ou se faire une expérience dans le bas de nouvoitou, single secret dans petit bois vers "le bas poirier " pas d'accés visible en entrée ou sortie , passer le long du champ. Très amusant en version boueux a voir sec, certainement plus rapide.]]></desc>
    <extensions>
      <line xmlns="http://www.topografix.com/GPX/gpx_style/0/2">
        <color>0000FF</color>
        <width>4</width>
      </line>
    </extensions>
    <trkseg>
      <trkpt lat="48.04254" lon="-1.51588">
        <ele>62.53953</ele>
        <time>2021-12-26T08:24:48.000Z</time>
      </trkpt>
      <trkpt lat="48.04252" lon="-1.51586">
        <ele>62.55931</ele>
        <time>2021-12-26T08:25:48.000Z</time>
      </trkpt>
      <trkpt lat="48.04252" lon="-1.51583">
        <ele>62.57192</ele>
        <time>2021-12-26T08:26:17.000Z</time>
      </trkpt>
      <trkpt lat="48.04252" lon="-1.5158">
        <ele>62.58712</ele>
        <time>2021-12-26T08:26:20.000Z</time>
      </trkpt>
      <trkpt lat="48.04253" lon="-1.51577">
        <ele>62.59568</ele>
        <time>2021-12-26T08:26:22.000Z</time>
      </trkpt>
      <trkpt lat="48.04257" lon="-1.5158">
        <ele>62.56181</ele>
        <time>2021-12-26T08:26:23.000Z</time>
      </trkpt>
      <trkpt lat="48.0426" lon="-1.51583">
        <ele>62.5066</ele>
        <time>2021-12-26T08:26:24.000Z</time>
      </trkpt>
      <trkpt lat="48.04263" lon="-1.51586">
        <ele>62.42841</ele>
        <time>2021-12-26T08:26:25.000Z</time>
      </trkpt>
      <trkpt lat="48.04266" lon="-1.51589">
        <ele>62.34021</ele>
        <time>2021-12-26T08:26:26.000Z</time>
      </trkpt>
      <trkpt lat="48.0427" lon="-1.51591">
        <ele>62.23316</ele>
        <time>2021-12-26T08:26:27.000Z</time>
      </trkpt>
      <trkpt lat="48.04273" lon="-1.51594">
        <ele>62.12673</ele>
        <time>2021-12-26T08:26:28.000Z</time>
      </trkpt>
      <trkpt lat="48.04277" lon="-1.51596">
        <ele>62.03682</ele>
        <time>2021-12-26T08:26:29.000Z</time>
      </trkpt>
      <trkpt lat="48.0428" lon="-1.51598">
        <ele>61.95889</ele>
        <time>2021-12-26T08:26:30.000Z</time>
      </trkpt>
      <trkpt lat="48.04284" lon="-1.51598">
        <ele>61.90698</ele>
        <time>2021-12-26T08:26:31.000Z</time>
      </trkpt>
      <trkpt lat="48.04287" lon="-1.51598">
        <ele>61.87342</ele>
        <time>2021-12-26T08:26:32.000Z</time>
      </trkpt>
      <trkpt lat="48.04291" lon="-1.51594">
        <ele>61.8757</ele>
        <time>2021-12-26T08:26:33.000Z</time>
      </trkpt>
      <trkpt lat="48.04294" lon="-1.51593">
        <ele>61.85329</ele>
        <time>2021-12-26T08:26:34.000Z</time>
      </trkpt>
      <trkpt lat="48.04298" lon="-1.51592">
        <ele>61.82161</ele>
        <time>2021-12-26T08:26:35.000Z</time>
      </trkpt>
      <trkpt lat="48.04302" lon="-1.51593">
        <ele>61.74413</ele>
        <time>2021-12-26T08:26:36.000Z</time>
      </trkpt>
      <trkpt lat="48.04305" lon="-1.51592">
        <ele>61.69761</ele>
        <time>2021-12-26T08:26:37.000Z</time>
      </trkpt>
      <trkpt lat="48.04308" lon="-1.51589">
        <ele>61.65686</ele>
        <time>2021-12-26T08:26:37.999Z</time>
      </trkpt>
      <trkpt lat="48.04311" lon="-1.51587">
        <ele>61.61636</ele>
        <time>2021-12-26T08:26:38.999Z</time>
      </trkpt>
      <trkpt lat="48.04314" lon="-1.51584">
        <ele>61.55498</ele>
        <time>2021-12-26T08:26:39.999Z</time>
      </trkpt>
      <trkpt lat="48.04317" lon="-1.5158">
        <ele>61.47641</ele>
        <time>2021-12-26T08:26:40.999Z</time>
      </trkpt>
      <trkpt lat="48.0432" lon="-1.51577">
        <ele>61.37776</ele>
        <time>2021-12-26T08:26:41.999Z</time>
      </trkpt>
      <trkpt lat="48.04323" lon="-1.51573">
        <ele>61.26168</ele>
        <time>2021-12-26T08:26:42.999Z</time>
      </trkpt>
      <trkpt lat="48.04326" lon="-1.51569">
        <ele>61.12228</ele>
        <time>2021-12-26T08:26:43.999Z</time>
      </trkpt>
      <trkpt lat="48.04329" lon="-1.51565">
        <ele>60.94689</ele>
        <time>2021-12-26T08:26:44.999Z</time>
      </trkpt>
      <trkpt lat="48.04333" lon="-1.51561">
        <ele>60.76141</ele>
        <time>2021-12-26T08:26:45.999Z</time>
      </trkpt>
      <trkpt lat="48.04336" lon="-1.51557">
        <ele>60.60349</ele>
        <time>2021-12-26T08:26:46.999Z</time>
      </trkpt>
      <trkpt lat="48.04339" lon="-1.51554">
        <ele>60.50967</ele>
        <time>2021-12-26T08:26:47.999Z</time>
      </trkpt>
      <trkpt lat="48.04342" lon="-1.5155">
        <ele>60.46411</ele>
        <time>2021-12-26T08:26:48.999Z</time>
      </trkpt>
      <trkpt lat="48.04345" lon="-1.51545">
        <ele>60.47746</ele>
        <time>2021-12-26T08:26:49.999Z</time>
      </trkpt>
      <trkpt lat="48.04348" lon="-1.51541">
        <ele>60.50979</ele>
        <time>2021-12-26T08:26:50.999Z</time>
      </trkpt>
      <trkpt lat="48.04351" lon="-1.51537">
        <ele>60.53366</ele>
        <time>2021-12-26T08:26:51.999Z</time>
      </trkpt>
      <trkpt lat="48.04353" lon="-1.51533">
        <ele>60.54586</ele>
        <time>2021-12-26T08:26:52.999Z</time>
      </trkpt>
      <trkpt lat="48.04356" lon="-1.5153">
        <ele>60.50841</ele>
        <time>2021-12-26T08:26:53.999Z</time>
      </trkpt>
      <trkpt lat="48.04359" lon="-1.51527">
        <ele>60.30424</ele>
        <time>2021-12-26T08:26:54.999Z</time>
      </trkpt>
      <trkpt lat="48.04362" lon="-1.51525">
        <ele>60.07293</ele>
        <time>2021-12-26T08:26:55.999Z</time>
      </trkpt>
      <trkpt lat="48.04365" lon="-1.51522">
        <ele>59.93007</ele>
        <time>2021-12-26T08:26:56.999Z</time>
      </trkpt>
      <trkpt lat="48.04367" lon="-1.51518">
        <ele>59.83861</ele>
        <time>2021-12-26T08:26:57.999Z</time>
      </trkpt>
      <trkpt lat="48.04369" lon="-1.51514">
        <ele>59.76402</ele>
        <time>2021-12-26T08:26:58.999Z</time>
      </trkpt>
      <trkpt lat="48.04371" lon="-1.51512">
        <ele>59.62127</ele>
        <time>2021-12-26T08:26:59.999Z</time>
      </trkpt>
      <trkpt lat="48.04375" lon="-1.51511">
        <ele>59.46594</ele>
        <time>2021-12-26T08:27:00.999Z</time>
      </trkpt>
      <trkpt lat="48.04379" lon="-1.5151">
        <ele>59.36103</ele>
        <time>2021-12-26T08:27:01.999Z</time>
      </trkpt>
      <trkpt lat="48.04382" lon="-1.51506">
        <ele>59.39425</ele>
        <time>2021-12-26T08:27:02.999Z</time>
      </trkpt>
      <trkpt lat="48.04385" lon="-1.51501">
        <ele>59.51086</ele>
        <time>2021-12-26T08:27:03.999Z</time>
      </trkpt>
      <trkpt lat="48.04387" lon="-1.51496">
        <ele>59.61124</ele>
        <time>2021-12-26T08:27:04.999Z</time>
      </trkpt>
      <trkpt lat="48.04389" lon="-1.5149">
        <ele>59.68542</ele>
        <time>2021-12-26T08:27:05.999Z</time>
      </trkpt>
      <trkpt lat="48.04391" lon="-1.51485">
        <ele>59.72729</ele>
        <time>2021-12-26T08:27:06.999Z</time>
      </trkpt>
      <trkpt lat="48.04394" lon="-1.51481">
        <ele>59.74524</ele>
        <time>2021-12-26T08:27:07.999Z</time>
      </trkpt>
      <trkpt lat="48.04396" lon="-1.51475">
        <ele>59.78463</ele>
        <time>2021-12-26T08:27:08.999Z</time>
      </trkpt>
      <trkpt lat="48.04397" lon="-1.5147">
        <ele>59.82605</ele>
        <time>2021-12-26T08:27:09.999Z</time>
      </trkpt>
      <trkpt lat="48.04398" lon="-1.51464">
        <ele>59.87524</ele>
        <time>2021-12-26T08:27:10.999Z</time>
      </trkpt>
      <trkpt lat="48.04399" lon="-1.51458">
        <ele>59.948</ele>
        <time>2021-12-26T08:27:11.999Z</time>
      </trkpt>
      <trkpt lat="48.04401" lon="-1.51452">
        <ele>60.04686</ele>
        <time>2021-12-26T08:27:12.999Z</time>
      </trkpt>
      <trkpt lat="48.04404" lon="-1.51448">
        <ele>60.17129</ele>
        <time>2021-12-26T08:27:13.999Z</time>
      </trkpt>
      <trkpt lat="48.04407" lon="-1.51445">
        <ele>60.29507</ele>
        <time>2021-12-26T08:27:14.999Z</time>
      </trkpt>
      <trkpt lat="48.0441" lon="-1.51442">
        <ele>60.37853</ele>
        <time>2021-12-26T08:27:15.999Z</time>
      </trkpt>
      <trkpt lat="48.04414" lon="-1.5144">
        <ele>60.40938</ele>
        <time>2021-12-26T08:27:16.999Z</time>
      </trkpt>
      <trkpt lat="48.04417" lon="-1.51437">
        <ele>60.41722</ele>
        <time>2021-12-26T08:27:17.999Z</time>
      </trkpt>
      <trkpt lat="48.04421" lon="-1.51434">
        <ele>60.4069</ele>
        <time>2021-12-26T08:27:18.999Z</time>
      </trkpt>
      <trkpt lat="48.04424" lon="-1.5143">
        <ele>60.38433</ele>
        <time>2021-12-26T08:27:19.999Z</time>
      </trkpt>
      <trkpt lat="48.04427" lon="-1.51426">
        <ele>60.34383</ele>
        <time>2021-12-26T08:27:20.999Z</time>
      </trkpt>
      <trkpt lat="48.0443" lon="-1.51422">
        <ele>60.303</ele>
        <time>2021-12-26T08:27:21.999Z</time>
      </trkpt>
      <trkpt lat="48.04433" lon="-1.51418">
        <ele>60.25844</ele>
        <time>2021-12-26T08:27:22.999Z</time>
      </trkpt>
      <trkpt lat="48.04437" lon="-1.51416">
        <ele>60.21268</ele>
        <time>2021-12-26T08:27:23.999Z</time>
      </trkpt>
      <trkpt lat="48.0444" lon="-1.51419">
        <ele>60.11991</ele>
        <time>2021-12-26T08:27:24.999Z</time>
      </trkpt>
      <trkpt lat="48.04444" lon="-1.51422">
        <ele>60.07305</ele>
        <time>2021-12-26T08:27:25.999Z</time>
      </trkpt>
      <trkpt lat="48.04448" lon="-1.51425">
        <ele>60.10545</ele>
        <time>2021-12-26T08:27:26.999Z</time>
      </trkpt>
      <trkpt lat="48.04453" lon="-1.51427">
        <ele>60.2062</ele>
        <time>2021-12-26T08:27:27.999Z</time>
      </trkpt>
      <trkpt lat="48.04457" lon="-1.5143">
        <ele>60.33569</ele>
        <time>2021-12-26T08:27:28.999Z</time>
      </trkpt>
      <trkpt lat="48.04462" lon="-1.51431">
        <ele>60.44848</ele>
        <time>2021-12-26T08:27:29.999Z</time>
      </trkpt>
      <trkpt lat="48.04466" lon="-1.51432">
        <ele>60.4939</ele>
        <time>2021-12-26T08:27:30.999Z</time>
      </trkpt>
      <trkpt lat="48.04471" lon="-1.51433">
        <ele>60.43619</ele>
        <time>2021-12-26T08:27:31.999Z</time>
      </trkpt>
      <trkpt lat="48.04475" lon="-1.51434">
        <ele>60.30585</ele>
        <time>2021-12-26T08:27:32.999Z</time>
      </trkpt>
      <trkpt lat="48.0448" lon="-1.51436">
        <ele>60.1495</ele>
        <time>2021-12-26T08:27:33.999Z</time>
      </trkpt>
      <trkpt lat="48.04484" lon="-1.5144">
        <ele>60.02149</ele>
        <time>2021-12-26T08:27:34.999Z</time>
      </trkpt>
      <trkpt lat="48.04487" lon="-1.51445">
        <ele>59.94347</ele>
        <time>2021-12-26T08:27:35.999Z</time>
      </trkpt>
      <trkpt lat="48.04489" lon="-1.51451">
        <ele>59.87821</ele>
        <time>2021-12-26T08:27:36.999Z</time>
      </trkpt>
      <trkpt lat="48.04492" lon="-1.51457">
        <ele>59.8042</ele>
        <time>2021-12-26T08:27:37.999Z</time>
      </trkpt>
      <trkpt lat="48.04495" lon="-1.51462">
        <ele>59.71443</ele>
        <time>2021-12-26T08:27:38.999Z</time>
      </trkpt>
      <trkpt lat="48.04499" lon="-1.51466">
        <ele>59.65651</ele>
        <time>2021-12-26T08:27:39.999Z</time>
      </trkpt>
      <trkpt lat="48.04503" lon="-1.5147">
        <ele>59.65105</ele>
        <time>2021-12-26T08:27:40.999Z</time>
      </trkpt>
      <trkpt lat="48.04508" lon="-1.51473">
        <ele>59.62536</ele>
        <time>2021-12-26T08:27:41.999Z</time>
      </trkpt>
      <trkpt lat="48.04512" lon="-1.51476">
        <ele>59.5674</ele>
        <time>2021-12-26T08:27:42.999Z</time>
      </trkpt>
      <trkpt lat="48.04517" lon="-1.51479">
        <ele>59.52875</ele>
        <time>2021-12-26T08:27:43.999Z</time>
      </trkpt>
      <trkpt lat="48.04522" lon="-1.51479">
        <ele>59.57805</ele>
        <time>2021-12-26T08:27:44.999Z</time>
      </trkpt>
      <trkpt lat="48.04527" lon="-1.51478">
        <ele>59.63342</ele>
        <time>2021-12-26T08:27:45.999Z</time>
      </trkpt>
      <trkpt lat="48.04532" lon="-1.51477">
        <ele>59.6683</ele>
        <time>2021-12-26T08:27:46.999Z</time>
      </trkpt>
      <trkpt lat="48.04537" lon="-1.51476">
        <ele>59.68425</ele>
        <time>2021-12-26T08:27:47.999Z</time>
      </trkpt>
      <trkpt lat="48.04542" lon="-1.51477">
        <ele>59.67894</ele>
        <time>2021-12-26T08:27:48.999Z</time>
      </trkpt>
      <trkpt lat="48.04546" lon="-1.51476">
        <ele>59.67707</ele>
        <time>2021-12-26T08:27:49.999Z</time>
      </trkpt>
      <trkpt lat="48.0455" lon="-1.51476">
        <ele>59.66956</ele>
        <time>2021-12-26T08:27:50.999Z</time>
      </trkpt>
      <trkpt lat="48.04555" lon="-1.51475">
        <ele>59.65702</ele>
        <time>2021-12-26T08:27:51.999Z</time>
      </trkpt>
      <trkpt lat="48.04559" lon="-1.51476">
        <ele>59.63324</ele>
        <time>2021-12-26T08:27:52.999Z</time>
      </trkpt>
      <trkpt lat="48.04564" lon="-1.51477">
        <ele>59.59854</ele>
        <time>2021-12-26T08:27:53.999Z</time>
      </trkpt>
      <trkpt lat="48.04569" lon="-1.51477">
        <ele>59.56835</ele>
        <time>2021-12-26T08:27:54.999Z</time>
      </trkpt>
      <trkpt lat="48.04574" lon="-1.51478">
        <ele>59.54332</ele>
        <time>2021-12-26T08:27:55.999Z</time>
      </trkpt>
      <trkpt lat="48.04579" lon="-1.51479">
        <ele>59.53405</ele>
        <time>2021-12-26T08:27:56.999Z</time>
      </trkpt>
      <trkpt lat="48.04583" lon="-1.5148">
        <ele>59.54565</ele>
        <time>2021-12-26T08:27:57.999Z</time>
      </trkpt>
      <trkpt lat="48.04588" lon="-1.5148">
        <ele>59.57251</ele>
        <time>2021-12-26T08:27:58.999Z</time>
      </trkpt>
      <trkpt lat="48.04593" lon="-1.5148">
        <ele>59.6001</ele>
        <time>2021-12-26T08:27:59.999Z</time>
      </trkpt>
      <trkpt lat="48.04598" lon="-1.51481">
        <ele>59.61788</ele>
        <time>2021-12-26T08:28:00.999Z</time>
      </trkpt>
      <trkpt lat="48.04602" lon="-1.51483">
        <ele>59.62215</ele>
        <time>2021-12-26T08:28:01.999Z</time>
      </trkpt>
      <trkpt lat="48.04606" lon="-1.51486">
        <ele>59.62217</ele>
        <time>2021-12-26T08:28:02.999Z</time>
      </trkpt>
      <trkpt lat="48.04611" lon="-1.51487">
        <ele>59.62508</ele>
        <time>2021-12-26T08:28:03.999Z</time>
      </trkpt>
      <trkpt lat="48.04616" lon="-1.51488">
        <ele>59.62941</ele>
        <time>2021-12-26T08:28:04.999Z</time>
      </trkpt>
      <trkpt lat="48.0462" lon="-1.51488">
        <ele>59.63269</ele>
        <time>2021-12-26T08:28:05.999Z</time>
      </trkpt>
      <trkpt lat="48.04625" lon="-1.51488">
        <ele>59.63437</ele>
        <time>2021-12-26T08:28:06.999Z</time>
      </trkpt>
      <trkpt lat="48.0463" lon="-1.51488">
        <ele>59.63402</ele>
        <time>2021-12-26T08:28:07.999Z</time>
      </trkpt>
      <trkpt lat="48.04634" lon="-1.51488">
        <ele>59.63724</ele>
        <time>2021-12-26T08:28:08.999Z</time>
      </trkpt>
      <trkpt lat="48.04639" lon="-1.51487">
        <ele>59.64579</ele>
        <time>2021-12-26T08:28:09.999Z</time>
      </trkpt>
      <trkpt lat="48.04644" lon="-1.51487">
        <ele>59.65798</ele>
        <time>2021-12-26T08:28:10.999Z</time>
      </trkpt>
      <trkpt lat="48.04648" lon="-1.51487">
        <ele>59.67639</ele>
        <time>2021-12-26T08:28:11.999Z</time>
      </trkpt>
      <trkpt lat="48.04653" lon="-1.51486">
        <ele>59.69871</ele>
        <time>2021-12-26T08:28:12.999Z</time>
      </trkpt>
      <trkpt lat="48.04658" lon="-1.51485">
        <ele>59.72238</ele>
        <time>2021-12-26T08:28:13.999Z</time>
      </trkpt>
      <trkpt lat="48.04662" lon="-1.51484">
        <ele>59.74499</ele>
        <time>2021-12-26T08:28:14.999Z</time>
      </trkpt>
      <trkpt lat="48.04667" lon="-1.51484">
        <ele>59.77292</ele>
        <time>2021-12-26T08:28:15.999Z</time>
      </trkpt>
      <trkpt lat="48.04671" lon="-1.51483">
        <ele>59.81038</ele>
        <time>2021-12-26T08:28:16.999Z</time>
      </trkpt>
      <trkpt lat="48.04676" lon="-1.51481">
        <ele>59.85333</ele>
        <time>2021-12-26T08:28:17.999Z</time>
      </trkpt>
      <trkpt lat="48.0468" lon="-1.5148">
        <ele>59.89966</ele>
        <time>2021-12-26T08:28:18.999Z</time>
      </trkpt>
      <trkpt lat="48.04685" lon="-1.51479">
        <ele>59.96207</ele>
        <time>2021-12-26T08:28:19.999Z</time>
      </trkpt>
      <trkpt lat="48.04689" lon="-1.51477">
        <ele>60.04348</ele>
        <time>2021-12-26T08:28:20.999Z</time>
      </trkpt>
      <trkpt lat="48.04693" lon="-1.51475">
        <ele>60.16039</ele>
        <time>2021-12-26T08:28:21.999Z</time>
      </trkpt>
      <trkpt lat="48.04697" lon="-1.51472">
        <ele>60.32044</ele>
        <time>2021-12-26T08:28:22.999Z</time>
      </trkpt>
      <trkpt lat="48.04701" lon="-1.51469">
        <ele>60.47761</ele>
        <time>2021-12-26T08:28:23.999Z</time>
      </trkpt>
      <trkpt lat="48.04705" lon="-1.51465">
        <ele>60.6092</ele>
        <time>2021-12-26T08:28:24.999Z</time>
      </trkpt>
      <trkpt lat="48.04709" lon="-1.51462">
        <ele>60.69815</ele>
        <time>2021-12-26T08:28:25.999Z</time>
      </trkpt>
      <trkpt lat="48.04714" lon="-1.5146">
        <ele>60.72773</ele>
        <time>2021-12-26T08:28:26.999Z</time>
      </trkpt>
      <trkpt lat="48.04718" lon="-1.51457">
        <ele>60.7138</ele>
        <time>2021-12-26T08:28:27.999Z</time>
      </trkpt>
      <trkpt lat="48.04722" lon="-1.51455">
        <ele>60.69665</ele>
        <time>2021-12-26T08:28:28.999Z</time>
      </trkpt>
      <trkpt lat="48.04726" lon="-1.51453">
        <ele>60.68445</ele>
        <time>2021-12-26T08:28:29.999Z</time>
      </trkpt>
      <trkpt lat="48.0473" lon="-1.51453">
        <ele>60.65299</ele>
        <time>2021-12-26T08:28:30.999Z</time>
      </trkpt>
      <trkpt lat="48.04735" lon="-1.51453">
        <ele>60.60958</ele>
        <time>2021-12-26T08:28:31.999Z</time>
      </trkpt>
      <trkpt lat="48.04739" lon="-1.51451">
        <ele>60.60519</ele>
        <time>2021-12-26T08:28:32.999Z</time>
      </trkpt>
      <trkpt lat="48.04741" lon="-1.51447">
        <ele>60.65427</ele>
        <time>2021-12-26T08:28:33.999Z</time>
      </trkpt>
      <trkpt lat="48.04743" lon="-1.51443">
        <ele>60.70784</ele>
        <time>2021-12-26T08:28:34.999Z</time>
      </trkpt>
      <trkpt lat="48.04744" lon="-1.51438">
        <ele>60.74011</ele>
        <time>2021-12-26T08:28:35.999Z</time>
      </trkpt>
      <trkpt lat="48.04744" lon="-1.51433">
        <ele>60.75058</ele>
        <time>2021-12-26T08:28:36.999Z</time>
      </trkpt>
      <trkpt lat="48.04747" lon="-1.51429">
        <ele>60.72031</ele>
        <time>2021-12-26T08:28:37.999Z</time>
      </trkpt>
      <trkpt lat="48.0475" lon="-1.51425">
        <ele>60.67496</ele>
        <time>2021-12-26T08:28:38.999Z</time>
      </trkpt>
      <trkpt lat="48.04753" lon="-1.51422">
        <ele>60.627</ele>
        <time>2021-12-26T08:28:39.999Z</time>
      </trkpt>
      <trkpt lat="48.04757" lon="-1.5142">
        <ele>60.57224</ele>
        <time>2021-12-26T08:28:40.999Z</time>
      </trkpt>
      <trkpt lat="48.04761" lon="-1.51417">
        <ele>60.5006</ele>
        <time>2021-12-26T08:28:41.999Z</time>
      </trkpt>
      <trkpt lat="48.04764" lon="-1.51415">
        <ele>60.34916</ele>
        <time>2021-12-26T08:28:42.999Z</time>
      </trkpt>
      <trkpt lat="48.04769" lon="-1.51413">
        <ele>60.11752</ele>
        <time>2021-12-26T08:28:43.999Z</time>
      </trkpt>
      <trkpt lat="48.04773" lon="-1.51411">
        <ele>59.92861</ele>
        <time>2021-12-26T08:28:44.999Z</time>
      </trkpt>
      <trkpt lat="48.04777" lon="-1.5141">
        <ele>59.92941</ele>
        <time>2021-12-26T08:28:45.999Z</time>
      </trkpt>
      <trkpt lat="48.04781" lon="-1.51407">
        <ele>60.29906</ele>
        <time>2021-12-26T08:28:46.999Z</time>
      </trkpt>
      <trkpt lat="48.04785" lon="-1.51405">
        <ele>60.84675</ele>
        <time>2021-12-26T08:28:47.999Z</time>
      </trkpt>
      <trkpt lat="48.04789" lon="-1.51406">
        <ele>61.39579</ele>
        <time>2021-12-26T08:28:48.999Z</time>
      </trkpt>
      <trkpt lat="48.04792" lon="-1.51411">
        <ele>61.68811</ele>
        <time>2021-12-26T08:28:49.999Z</time>
      </trkpt>
      <trkpt lat="48.04794" lon="-1.51417">
        <ele>61.88288</ele>
        <time>2021-12-26T08:28:50.999Z</time>
      </trkpt>
      <trkpt lat="48.04797" lon="-1.51424">
        <ele>61.8215</ele>
        <time>2021-12-26T08:28:51.999Z</time>
      </trkpt>
      <trkpt lat="48.048" lon="-1.5143">
        <ele>61.38849</ele>
        <time>2021-12-26T08:28:52.999Z</time>
      </trkpt>
      <trkpt lat="48.04804" lon="-1.51435">
        <ele>60.90444</ele>
        <time>2021-12-26T08:28:53.999Z</time>
      </trkpt>
      <trkpt lat="48.04809" lon="-1.51436">
        <ele>60.79397</ele>
        <time>2021-12-26T08:28:54.999Z</time>
      </trkpt>
      <trkpt lat="48.04813" lon="-1.51437">
        <ele>60.61252</ele>
        <time>2021-12-26T08:28:55.999Z</time>
      </trkpt>
      <trkpt lat="48.04818" lon="-1.51436">
        <ele>60.83719</ele>
        <time>2021-12-26T08:28:56.999Z</time>
      </trkpt>
      <trkpt lat="48.04822" lon="-1.51435">
        <ele>60.99349</ele>
        <time>2021-12-26T08:28:57.999Z</time>
      </trkpt>
      <trkpt lat="48.04827" lon="-1.51433">
        <ele>61.24337</ele>
        <time>2021-12-26T08:28:58.999Z</time>
      </trkpt>
      <trkpt lat="48.04831" lon="-1.51432">
        <ele>61.37886</ele>
        <time>2021-12-26T08:28:59.999Z</time>
      </trkpt>
      <trkpt lat="48.04836" lon="-1.5143">
        <ele>61.4265</ele>
        <time>2021-12-26T08:29:00.999Z</time>
      </trkpt>
      <trkpt lat="48.0484" lon="-1.51428">
        <ele>61.35045</ele>
        <time>2021-12-26T08:29:01.999Z</time>
      </trkpt>
      <trkpt lat="48.04844" lon="-1.51426">
        <ele>61.24339</ele>
        <time>2021-12-26T08:29:02.999Z</time>
      </trkpt>
      <trkpt lat="48.04849" lon="-1.51424">
        <ele>61.11344</ele>
        <time>2021-12-26T08:29:03.999Z</time>
      </trkpt>
      <trkpt lat="48.04854" lon="-1.51422">
        <ele>60.79637</ele>
        <time>2021-12-26T08:29:04.999Z</time>
      </trkpt>
      <trkpt lat="48.04858" lon="-1.5142">
        <ele>60.34253</ele>
        <time>2021-12-26T08:29:05.999Z</time>
      </trkpt>
      <trkpt lat="48.04863" lon="-1.51418">
        <ele>59.88369</ele>
        <time>2021-12-26T08:29:06.999Z</time>
      </trkpt>
      <trkpt lat="48.04868" lon="-1.51416">
        <ele>59.50157</ele>
        <time>2021-12-26T08:29:07.999Z</time>
      </trkpt>
      <trkpt lat="48.04872" lon="-1.51413">
        <ele>59.28209</ele>
        <time>2021-12-26T08:29:08.999Z</time>
      </trkpt>
      <trkpt lat="48.04876" lon="-1.51411">
        <ele>59.22398</ele>
        <time>2021-12-26T08:29:09.999Z</time>
      </trkpt>
      <trkpt lat="48.0488" lon="-1.51408">
        <ele>59.34809</ele>
        <time>2021-12-26T08:29:10.999Z</time>
      </trkpt>
      <trkpt lat="48.04884" lon="-1.51405">
        <ele>59.56687</ele>
        <time>2021-12-26T08:29:11.999Z</time>
      </trkpt>
      <trkpt lat="48.04888" lon="-1.51402">
        <ele>59.84177</ele>
        <time>2021-12-26T08:29:12.999Z</time>
      </trkpt>
      <trkpt lat="48.04892" lon="-1.51399">
        <ele>60.13761</ele>
        <time>2021-12-26T08:29:13.999Z</time>
      </trkpt>
      <trkpt lat="48.04896" lon="-1.51397">
        <ele>60.22649</ele>
        <time>2021-12-26T08:29:14.999Z</time>
      </trkpt>
      <trkpt lat="48.04901" lon="-1.51395">
        <ele>60.14283</ele>
        <time>2021-12-26T08:29:15.999Z</time>
      </trkpt>
      <trkpt lat="48.04905" lon="-1.51393">
        <ele>59.82407</ele>
        <time>2021-12-26T08:29:16.999Z</time>
      </trkpt>
      <trkpt lat="48.04911" lon="-1.5139">
        <ele>59.24178</ele>
        <time>2021-12-26T08:29:17.999Z</time>
      </trkpt>
      <trkpt lat="48.04916" lon="-1.51387">
        <ele>58.58166</ele>
        <time>2021-12-26T08:29:18.999Z</time>
      </trkpt>
      <trkpt lat="48.04922" lon="-1.51384">
        <ele>57.99311</ele>
        <time>2021-12-26T08:29:19.999Z</time>
      </trkpt>
      <trkpt lat="48.04927" lon="-1.51381">
        <ele>57.53375</ele>
        <time>2021-12-26T08:29:20.999Z</time>
      </trkpt>
      <trkpt lat="48.04933" lon="-1.51378">
        <ele>57.34279</ele>
        <time>2021-12-26T08:29:21.999Z</time>
      </trkpt>
      <trkpt lat="48.04939" lon="-1.51375">
        <ele>57.40068</ele>
        <time>2021-12-26T08:29:22.999Z</time>
      </trkpt>
      <trkpt lat="48.04945" lon="-1.51372">
        <ele>57.55363</ele>
        <time>2021-12-26T08:29:23.999Z</time>
      </trkpt>
      <trkpt lat="48.04951" lon="-1.51369">
        <ele>57.61949</ele>
        <time>2021-12-26T08:29:24.999Z</time>
      </trkpt>
      <trkpt lat="48.04958" lon="-1.51366">
        <ele>57.48485</ele>
        <time>2021-12-26T08:29:25.999Z</time>
      </trkpt>
      <trkpt lat="48.04964" lon="-1.51363">
        <ele>57.16195</ele>
        <time>2021-12-26T08:29:26.999Z</time>
      </trkpt>
      <trkpt lat="48.0497" lon="-1.5136">
        <ele>56.62223</ele>
        <time>2021-12-26T08:29:27.999Z</time>
      </trkpt>
      <trkpt lat="48.04976" lon="-1.51357">
        <ele>55.9846</ele>
        <time>2021-12-26T08:29:28.999Z</time>
      </trkpt>
      <trkpt lat="48.04982" lon="-1.51353">
        <ele>55.46224</ele>
        <time>2021-12-26T08:29:29.999Z</time>
      </trkpt>
      <trkpt lat="48.04988" lon="-1.5135">
        <ele>55.20488</ele>
        <time>2021-12-26T08:29:30.999Z</time>
      </trkpt>
      <trkpt lat="48.04994" lon="-1.51346">
        <ele>55.23343</ele>
        <time>2021-12-26T08:29:31.999Z</time>
      </trkpt>
      <trkpt lat="48.05001" lon="-1.51342">
        <ele>55.46828</ele>
        <time>2021-12-26T08:29:32.999Z</time>
      </trkpt>
      <trkpt lat="48.05008" lon="-1.51339">
        <ele>55.75516</ele>
        <time>2021-12-26T08:29:33.999Z</time>
      </trkpt>
      <trkpt lat="48.05015" lon="-1.51335">
        <ele>55.68807</ele>
        <time>2021-12-26T08:29:34.999Z</time>
      </trkpt>
      <trkpt lat="48.05022" lon="-1.51331">
        <ele>55.08025</ele>
        <time>2021-12-26T08:29:35.999Z</time>
      </trkpt>
      <trkpt lat="48.05029" lon="-1.51327">
        <ele>54.24578</ele>
        <time>2021-12-26T08:29:36.999Z</time>
      </trkpt>
      <trkpt lat="48.05036" lon="-1.51324">
        <ele>53.63938</ele>
        <time>2021-12-26T08:29:37.999Z</time>
      </trkpt>
      <trkpt lat="48.05044" lon="-1.5132">
        <ele>53.36962</ele>
        <time>2021-12-26T08:29:38.999Z</time>
      </trkpt>
      <trkpt lat="48.05052" lon="-1.51315">
        <ele>53.55245</ele>
        <time>2021-12-26T08:29:39.999Z</time>
      </trkpt>
      <trkpt lat="48.0506" lon="-1.51311">
        <ele>53.88396</ele>
        <time>2021-12-26T08:29:40.999Z</time>
      </trkpt>
      <trkpt lat="48.05068" lon="-1.51307">
        <ele>53.96134</ele>
        <time>2021-12-26T08:29:41.999Z</time>
      </trkpt>
      <trkpt lat="48.05077" lon="-1.51302">
        <ele>53.555</ele>
        <time>2021-12-26T08:29:42.999Z</time>
      </trkpt>
      <trkpt lat="48.05086" lon="-1.51298">
        <ele>52.75762</ele>
        <time>2021-12-26T08:29:43.999Z</time>
      </trkpt>
      <trkpt lat="48.05094" lon="-1.51293">
        <ele>51.96115</ele>
        <time>2021-12-26T08:29:44.999Z</time>
      </trkpt>
      <trkpt lat="48.05103" lon="-1.51289">
        <ele>51.88894</ele>
        <time>2021-12-26T08:29:45.999Z</time>
      </trkpt>
      <trkpt lat="48.05112" lon="-1.51284">
        <ele>52.36091</ele>
        <time>2021-12-26T08:29:46.999Z</time>
      </trkpt>
      <trkpt lat="48.05121" lon="-1.5128">
        <ele>52.75692</ele>
        <time>2021-12-26T08:29:47.999Z</time>
      </trkpt>
      <trkpt lat="48.0513" lon="-1.51275">
        <ele>52.37262</ele>
        <time>2021-12-26T08:29:48.999Z</time>
      </trkpt>
      <trkpt lat="48.05139" lon="-1.51271">
        <ele>51.1444</ele>
        <time>2021-12-26T08:29:49.999Z</time>
      </trkpt>
      <trkpt lat="48.05148" lon="-1.51266">
        <ele>50.24894</ele>
        <time>2021-12-26T08:29:50.999Z</time>
      </trkpt>
      <trkpt lat="48.05157" lon="-1.51261">
        <ele>50.08525</ele>
        <time>2021-12-26T08:29:51.999Z</time>
      </trkpt>
      <trkpt lat="48.05166" lon="-1.51257">
        <ele>50.30058</ele>
        <time>2021-12-26T08:29:52.999Z</time>
      </trkpt>
      <trkpt lat="48.05176" lon="-1.51252">
        <ele>50.36049</ele>
        <time>2021-12-26T08:29:53.999Z</time>
      </trkpt>
      <trkpt lat="48.05185" lon="-1.51248">
        <ele>49.67109</ele>
        <time>2021-12-26T08:29:54.999Z</time>
      </trkpt>
      <trkpt lat="48.05195" lon="-1.51244">
        <ele>48.55019</ele>
        <time>2021-12-26T08:29:55.999Z</time>
      </trkpt>
      <trkpt lat="48.05205" lon="-1.51241">
        <ele>47.37531</ele>
        <time>2021-12-26T08:29:56.999Z</time>
      </trkpt>
      <trkpt lat="48.05216" lon="-1.51238">
        <ele>46.58134</ele>
        <time>2021-12-26T08:29:57.999Z</time>
      </trkpt>
      <trkpt lat="48.05226" lon="-1.51233">
        <ele>46.39546</ele>
        <time>2021-12-26T08:29:58.999Z</time>
      </trkpt>
      <trkpt lat="48.05235" lon="-1.51229">
        <ele>46.18831</ele>
        <time>2021-12-26T08:29:59.999Z</time>
      </trkpt>
      <trkpt lat="48.05244" lon="-1.51225">
        <ele>45.73291</ele>
        <time>2021-12-26T08:30:00.999Z</time>
      </trkpt>
      <trkpt lat="48.05253" lon="-1.5122">
        <ele>45.03385</ele>
        <time>2021-12-26T08:30:01.999Z</time>
      </trkpt>
      <trkpt lat="48.05262" lon="-1.51216">
        <ele>44.40178</ele>
        <time>2021-12-26T08:30:02.999Z</time>
      </trkpt>
      <trkpt lat="48.0527" lon="-1.51212">
        <ele>44.16044</ele>
        <time>2021-12-26T08:30:03.999Z</time>
      </trkpt>
      <trkpt lat="48.05277" lon="-1.51207">
        <ele>44.18761</ele>
        <time>2021-12-26T08:30:04.999Z</time>
      </trkpt>
      <trkpt lat="48.05284" lon="-1.51203">
        <ele>44.33159</ele>
        <time>2021-12-26T08:30:05.999Z</time>
      </trkpt>
      <trkpt lat="48.0529" lon="-1.51198">
        <ele>44.31824</ele>
        <time>2021-12-26T08:30:06.999Z</time>
      </trkpt>
      <trkpt lat="48.05295" lon="-1.51191">
        <ele>43.91614</ele>
        <time>2021-12-26T08:30:07.999Z</time>
      </trkpt>
      <trkpt lat="48.05299" lon="-1.51185">
        <ele>43.31935</ele>
        <time>2021-12-26T08:30:08.999Z</time>
      </trkpt>
      <trkpt lat="48.05303" lon="-1.51182">
        <ele>42.63994</ele>
        <time>2021-12-26T08:30:09.999Z</time>
      </trkpt>
      <trkpt lat="48.05308" lon="-1.51181">
        <ele>42.09267</ele>
        <time>2021-12-26T08:30:10.999Z</time>
      </trkpt>
      <trkpt lat="48.05312" lon="-1.51181">
        <ele>41.86614</ele>
        <time>2021-12-26T08:30:11.999Z</time>
      </trkpt>
      <trkpt lat="48.05317" lon="-1.5118">
        <ele>41.94879</ele>
        <time>2021-12-26T08:30:12.999Z</time>
      </trkpt>
      <trkpt lat="48.05321" lon="-1.51181">
        <ele>42.22914</ele>
        <time>2021-12-26T08:30:13.999Z</time>
      </trkpt>
      <trkpt lat="48.05326" lon="-1.5118">
        <ele>42.58641</ele>
        <time>2021-12-26T08:30:14.999Z</time>
      </trkpt>
      <trkpt lat="48.05329" lon="-1.51179">
        <ele>42.86324</ele>
        <time>2021-12-26T08:30:15.999Z</time>
      </trkpt>
      <trkpt lat="48.05333" lon="-1.51176">
        <ele>43.03284</ele>
        <time>2021-12-26T08:30:16.999Z</time>
      </trkpt>
      <trkpt lat="48.05336" lon="-1.51176">
        <ele>43.11022</ele>
        <time>2021-12-26T08:30:17.999Z</time>
      </trkpt>
      <trkpt lat="48.0534" lon="-1.51176">
        <ele>43.14872</ele>
        <time>2021-12-26T08:30:18.999Z</time>
      </trkpt>
      <trkpt lat="48.0534" lon="-1.51176">
        <ele>43.14872</ele>
        <time>2021-12-26T08:30:18.999Z</time>
      </trkpt>
      <trkpt lat="48.0534" lon="-1.51182">
        <ele>43.07164</ele>
        <time>2021-12-26T08:30:19.999Z</time>
      </trkpt>
      <trkpt lat="48.05341" lon="-1.51188">
        <ele>42.96539</ele>
        <time>2021-12-26T08:30:20.999Z</time>
      </trkpt>
      <trkpt lat="48.05343" lon="-1.51194">
        <ele>42.81891</ele>
        <time>2021-12-26T08:30:21.999Z</time>
      </trkpt>
      <trkpt lat="48.05347" lon="-1.51198">
        <ele>42.6951</ele>
        <time>2021-12-26T08:30:22.999Z</time>
      </trkpt>
      <trkpt lat="48.05351" lon="-1.51201">
        <ele>42.62976</ele>
        <time>2021-12-26T08:30:23.999Z</time>
      </trkpt>
      <trkpt lat="48.05356" lon="-1.51203">
        <ele>42.62017</ele>
        <time>2021-12-26T08:30:24.999Z</time>
      </trkpt>
      <trkpt lat="48.05361" lon="-1.51205">
        <ele>42.63948</ele>
        <time>2021-12-26T08:30:25.999Z</time>
      </trkpt>
      <trkpt lat="48.05366" lon="-1.51207">
        <ele>42.69442</ele>
        <time>2021-12-26T08:30:26.999Z</time>
      </trkpt>
      <trkpt lat="48.05372" lon="-1.51209">
        <ele>42.77593</ele>
        <time>2021-12-26T08:30:27.999Z</time>
      </trkpt>
      <trkpt lat="48.05377" lon="-1.51212">
        <ele>42.80083</ele>
        <time>2021-12-26T08:30:28.999Z</time>
      </trkpt>
      <trkpt lat="48.05381" lon="-1.51217">
        <ele>42.76089</ele>
        <time>2021-12-26T08:30:29.999Z</time>
      </trkpt>
      <trkpt lat="48.05385" lon="-1.51223">
        <ele>42.71591</ele>
        <time>2021-12-26T08:30:30.999Z</time>
      </trkpt>
      <trkpt lat="48.05388" lon="-1.5123">
        <ele>42.67902</ele>
        <time>2021-12-26T08:30:31.999Z</time>
      </trkpt>
      <trkpt lat="48.05391" lon="-1.51236">
        <ele>42.70094</ele>
        <time>2021-12-26T08:30:32.999Z</time>
      </trkpt>
      <trkpt lat="48.05394" lon="-1.51243">
        <ele>42.73003</ele>
        <time>2021-12-26T08:30:33.999Z</time>
      </trkpt>
      <trkpt lat="48.05398" lon="-1.51249">
        <ele>42.76706</ele>
        <time>2021-12-26T08:30:34.999Z</time>
      </trkpt>
      <trkpt lat="48.054" lon="-1.51256">
        <ele>42.75619</ele>
        <time>2021-12-26T08:30:35.999Z</time>
      </trkpt>
      <trkpt lat="48.05403" lon="-1.51262">
        <ele>42.72652</ele>
        <time>2021-12-26T08:30:36.999Z</time>
      </trkpt>
      <trkpt lat="48.05405" lon="-1.51269">
        <ele>42.6912</ele>
        <time>2021-12-26T08:30:37.999Z</time>
      </trkpt>
      <trkpt lat="48.05408" lon="-1.51275">
        <ele>42.65275</ele>
        <time>2021-12-26T08:30:38.999Z</time>
      </trkpt>
      <trkpt lat="48.0541" lon="-1.51281">
        <ele>42.65244</ele>
        <time>2021-12-26T08:30:39.999Z</time>
      </trkpt>
      <trkpt lat="48.05412" lon="-1.51288">
        <ele>42.69752</ele>
        <time>2021-12-26T08:30:40.999Z</time>
      </trkpt>
      <trkpt lat="48.05415" lon="-1.51295">
        <ele>42.8016</ele>
        <time>2021-12-26T08:30:41.999Z</time>
      </trkpt>
      <trkpt lat="48.05416" lon="-1.51302">
        <ele>42.95232</ele>
        <time>2021-12-26T08:30:42.999Z</time>
      </trkpt>
      <trkpt lat="48.05418" lon="-1.51308">
        <ele>43.17786</ele>
        <time>2021-12-26T08:30:43.999Z</time>
      </trkpt>
      <trkpt lat="48.0542" lon="-1.51315">
        <ele>43.39161</ele>
        <time>2021-12-26T08:30:44.999Z</time>
      </trkpt>
      <trkpt lat="48.05422" lon="-1.51321">
        <ele>43.56905</ele>
        <time>2021-12-26T08:30:45.999Z</time>
      </trkpt>
      <trkpt lat="48.05424" lon="-1.51328">
        <ele>43.75498</ele>
        <time>2021-12-26T08:30:46.999Z</time>
      </trkpt>
      <trkpt lat="48.05426" lon="-1.51334">
        <ele>43.92233</ele>
        <time>2021-12-26T08:30:47.999Z</time>
      </trkpt>
      <trkpt lat="48.05428" lon="-1.5134">
        <ele>44.06948</ele>
        <time>2021-12-26T08:30:48.999Z</time>
      </trkpt>
      <trkpt lat="48.0543" lon="-1.51346">
        <ele>44.21359</ele>
        <time>2021-12-26T08:30:49.999Z</time>
      </trkpt>
      <trkpt lat="48.05431" lon="-1.51352">
        <ele>44.37519</ele>
        <time>2021-12-26T08:30:50.999Z</time>
      </trkpt>
      <trkpt lat="48.05433" lon="-1.51357">
        <ele>44.62391</ele>
        <time>2021-12-26T08:30:51.999Z</time>
      </trkpt>
      <trkpt lat="48.05435" lon="-1.51363">
        <ele>44.90726</ele>
        <time>2021-12-26T08:30:52.999Z</time>
      </trkpt>
      <trkpt lat="48.05436" lon="-1.51369">
        <ele>45.16337</ele>
        <time>2021-12-26T08:30:53.999Z</time>
      </trkpt>
      <trkpt lat="48.05437" lon="-1.51375">
        <ele>45.54538</ele>
        <time>2021-12-26T08:30:54.999Z</time>
      </trkpt>
      <trkpt lat="48.05438" lon="-1.51381">
        <ele>45.96592</ele>
        <time>2021-12-26T08:30:55.999Z</time>
      </trkpt>
      <trkpt lat="48.05439" lon="-1.51386">
        <ele>46.39662</ele>
        <time>2021-12-26T08:30:56.999Z</time>
      </trkpt>
      <trkpt lat="48.05441" lon="-1.51392">
        <ele>46.77806</ele>
        <time>2021-12-26T08:30:57.999Z</time>
      </trkpt>
      <trkpt lat="48.05442" lon="-1.51398">
        <ele>47.0737</ele>
        <time>2021-12-26T08:30:58.999Z</time>
      </trkpt>
      <trkpt lat="48.05443" lon="-1.51404">
        <ele>47.26017</ele>
        <time>2021-12-26T08:30:59.999Z</time>
      </trkpt>
      <trkpt lat="48.05444" lon="-1.51409">
        <ele>47.35773</ele>
        <time>2021-12-26T08:31:00.999Z</time>
      </trkpt>
      <trkpt lat="48.05445" lon="-1.51415">
        <ele>47.40705</ele>
        <time>2021-12-26T08:31:01.999Z</time>
      </trkpt>
      <trkpt lat="48.05447" lon="-1.51421">
        <ele>47.42158</ele>
        <time>2021-12-26T08:31:02.999Z</time>
      </trkpt>
      <trkpt lat="48.05448" lon="-1.51427">
        <ele>47.41988</ele>
        <time>2021-12-26T08:31:03.999Z</time>
      </trkpt>
      <trkpt lat="48.05449" lon="-1.51433">
        <ele>47.41855</ele>
        <time>2021-12-26T08:31:04.999Z</time>
      </trkpt>
      <trkpt lat="48.05451" lon="-1.51439">
        <ele>47.4334</ele>
        <time>2021-12-26T08:31:05.999Z</time>
      </trkpt>
      <trkpt lat="48.05452" lon="-1.51445">
        <ele>47.471</ele>
        <time>2021-12-26T08:31:06.999Z</time>
      </trkpt>
      <trkpt lat="48.05454" lon="-1.51451">
        <ele>47.53399</ele>
        <time>2021-12-26T08:31:07.999Z</time>
      </trkpt>
      <trkpt lat="48.05455" lon="-1.51458">
        <ele>47.60797</ele>
        <time>2021-12-26T08:31:08.999Z</time>
      </trkpt>
      <trkpt lat="48.05456" lon="-1.51464">
        <ele>47.69633</ele>
        <time>2021-12-26T08:31:09.999Z</time>
      </trkpt>
      <trkpt lat="48.05458" lon="-1.51471">
        <ele>47.75807</ele>
        <time>2021-12-26T08:31:10.999Z</time>
      </trkpt>
      <trkpt lat="48.05459" lon="-1.51477">
        <ele>47.81068</ele>
        <time>2021-12-26T08:31:11.999Z</time>
      </trkpt>
      <trkpt lat="48.05461" lon="-1.51484">
        <ele>47.82753</ele>
        <time>2021-12-26T08:31:12.999Z</time>
      </trkpt>
      <trkpt lat="48.05462" lon="-1.5149">
        <ele>47.82633</ele>
        <time>2021-12-26T08:31:13.999Z</time>
      </trkpt>
      <trkpt lat="48.05463" lon="-1.51496">
        <ele>47.81153</ele>
        <time>2021-12-26T08:31:14.999Z</time>
      </trkpt>
      <trkpt lat="48.05464" lon="-1.51502">
        <ele>47.78572</ele>
        <time>2021-12-26T08:31:15.999Z</time>
      </trkpt>
      <trkpt lat="48.05465" lon="-1.51507">
        <ele>47.76046</ele>
        <time>2021-12-26T08:31:16.999Z</time>
      </trkpt>
      <trkpt lat="48.05465" lon="-1.51507">
        <ele>47.76046</ele>
        <time>2021-12-26T08:31:16.999Z</time>
      </trkpt>
      <trkpt lat="48.05466" lon="-1.51513">
        <ele>47.71955</ele>
        <time>2021-12-26T08:31:17.999Z</time>
      </trkpt>
      <trkpt lat="48.05464" lon="-1.51518">
        <ele>47.63967</ele>
        <time>2021-12-26T08:31:18.999Z</time>
      </trkpt>
      <trkpt lat="48.0546" lon="-1.5152">
        <ele>47.58166</ele>
        <time>2021-12-26T08:31:19.999Z</time>
      </trkpt>
      <trkpt lat="48.05455" lon="-1.51522">
        <ele>47.50653</ele>
        <time>2021-12-26T08:31:20.999Z</time>
      </trkpt>
      <trkpt lat="48.0545" lon="-1.51523">
        <ele>47.406</ele>
        <time>2021-12-26T08:31:21.999Z</time>
      </trkpt>
      <trkpt lat="48.05445" lon="-1.51523">
        <ele>47.32815</ele>
        <time>2021-12-26T08:31:22.999Z</time>
      </trkpt>
      <trkpt lat="48.05439" lon="-1.51522">
        <ele>47.20033</ele>
        <time>2021-12-26T08:31:23.999Z</time>
      </trkpt>
      <trkpt lat="48.05433" lon="-1.51522">
        <ele>46.92367</ele>
        <time>2021-12-26T08:31:24.999Z</time>
      </trkpt>
      <trkpt lat="48.05427" lon="-1.51522">
        <ele>46.40312</ele>
        <time>2021-12-26T08:31:25.999Z</time>
      </trkpt>
      <trkpt lat="48.05422" lon="-1.51522">
        <ele>45.7577</ele>
        <time>2021-12-26T08:31:26.999Z</time>
      </trkpt>
      <trkpt lat="48.05417" lon="-1.51522">
        <ele>45.07993</ele>
        <time>2021-12-26T08:31:27.999Z</time>
      </trkpt>
      <trkpt lat="48.05411" lon="-1.51519">
        <ele>44.39816</ele>
        <time>2021-12-26T08:31:28.999Z</time>
      </trkpt>
      <trkpt lat="48.05407" lon="-1.51514">
        <ele>43.75917</ele>
        <time>2021-12-26T08:31:29.999Z</time>
      </trkpt>
      <trkpt lat="48.05403" lon="-1.51507">
        <ele>43.13611</ele>
        <time>2021-12-26T08:31:30.999Z</time>
      </trkpt>
      <trkpt lat="48.05399" lon="-1.51499">
        <ele>42.41079</ele>
        <time>2021-12-26T08:31:31.999Z</time>
      </trkpt>
      <trkpt lat="48.05395" lon="-1.51492">
        <ele>41.60326</ele>
        <time>2021-12-26T08:31:32.999Z</time>
      </trkpt>
      <trkpt lat="48.05389" lon="-1.51488">
        <ele>40.65453</ele>
        <time>2021-12-26T08:31:33.999Z</time>
      </trkpt>
      <trkpt lat="48.05383" lon="-1.51484">
        <ele>40.04218</ele>
        <time>2021-12-26T08:31:34.999Z</time>
      </trkpt>
      <trkpt lat="48.05377" lon="-1.51482">
        <ele>39.80615</ele>
        <time>2021-12-26T08:31:35.999Z</time>
      </trkpt>
      <trkpt lat="48.05371" lon="-1.51479">
        <ele>39.7284</ele>
        <time>2021-12-26T08:31:36.999Z</time>
      </trkpt>
      <trkpt lat="48.05366" lon="-1.51476">
        <ele>39.63966</ele>
        <time>2021-12-26T08:31:37.999Z</time>
      </trkpt>
      <trkpt lat="48.0536" lon="-1.51473">
        <ele>39.55289</ele>
        <time>2021-12-26T08:31:38.999Z</time>
      </trkpt>
      <trkpt lat="48.05355" lon="-1.5147">
        <ele>39.53429</ele>
        <time>2021-12-26T08:31:39.999Z</time>
      </trkpt>
      <trkpt lat="48.05351" lon="-1.51467">
        <ele>39.55934</ele>
        <time>2021-12-26T08:31:40.999Z</time>
      </trkpt>
      <trkpt lat="48.05347" lon="-1.51466">
        <ele>39.59336</ele>
        <time>2021-12-26T08:31:41.999Z</time>
      </trkpt>
      <trkpt lat="48.05344" lon="-1.51466">
        <ele>39.62007</ele>
        <time>2021-12-26T08:31:42.999Z</time>
      </trkpt>
      <trkpt lat="48.05342" lon="-1.51467">
        <ele>39.64673</ele>
        <time>2021-12-26T08:31:43.999Z</time>
      </trkpt>
      <trkpt lat="48.05341" lon="-1.51469">
        <ele>39.68569</ele>
        <time>2021-12-26T08:31:45.999Z</time>
      </trkpt>
      <trkpt lat="48.05341" lon="-1.51474">
        <ele>39.72348</ele>
        <time>2021-12-26T08:31:47.999Z</time>
      </trkpt>
      <trkpt lat="48.05341" lon="-1.51474">
        <ele>39.72348</ele>
      </trkpt>
      <trkpt lat="48.0534" lon="-1.51477">
        <ele>39.74931</ele>
      </trkpt>
      <trkpt lat="48.05341" lon="-1.51482">
        <ele>39.7809</ele>
      </trkpt>
      <trkpt lat="48.05341" lon="-1.51487">
        <ele>39.80845</ele>
      </trkpt>
      <trkpt lat="48.0534" lon="-1.51492">
        <ele>39.83447</ele>
      </trkpt>
      <trkpt lat="48.0534" lon="-1.51496">
        <ele>39.83698</ele>
      </trkpt>
      <trkpt lat="48.0534" lon="-1.51501">
        <ele>39.81593</ele>
      </trkpt>
      <trkpt lat="48.0534" lon="-1.51506">
        <ele>39.78787</ele>
      </trkpt>
      <trkpt lat="48.05341" lon="-1.5151">
        <ele>39.73936</ele>
      </trkpt>
      <trkpt lat="48.05342" lon="-1.51514">
        <ele>39.69714</ele>
      </trkpt>
      <trkpt lat="48.05343" lon="-1.51518">
        <ele>39.65876</ele>
      </trkpt>
      <trkpt lat="48.05344" lon="-1.51521">
        <ele>39.61925</ele>
      </trkpt>
      <trkpt lat="48.05343" lon="-1.51522">
        <ele>39.62325</ele>
      </trkpt>
      <trkpt lat="48.05339" lon="-1.5152">
        <ele>39.70232</ele>
      </trkpt>
      <trkpt lat="48.05335" lon="-1.5152">
        <ele>39.79355</ele>
      </trkpt>
      <trkpt lat="48.05332" lon="-1.51522">
        <ele>39.8442</ele>
      </trkpt>
      <trkpt lat="48.05329" lon="-1.51522">
        <ele>39.94437</ele>
      </trkpt>
      <trkpt lat="48.05324" lon="-1.51523">
        <ele>40.04012</ele>
      </trkpt>
      <trkpt lat="48.0532" lon="-1.51524">
        <ele>40.11102</ele>
      </trkpt>
      <trkpt lat="48.05316" lon="-1.51525">
        <ele>40.12544</ele>
      </trkpt>
      <trkpt lat="48.05311" lon="-1.51526">
        <ele>40.10886</ele>
      </trkpt>
      <trkpt lat="48.05307" lon="-1.51526">
        <ele>40.07883</ele>
      </trkpt>
      <trkpt lat="48.05303" lon="-1.51527">
        <ele>40.03265</ele>
      </trkpt>
      <trkpt lat="48.05299" lon="-1.51528">
        <ele>39.99126</ele>
      </trkpt>
      <trkpt lat="48.05296" lon="-1.51528">
        <ele>39.96301</ele>
      </trkpt>
      <trkpt lat="48.05293" lon="-1.51528">
        <ele>39.93661</ele>
      </trkpt>
      <trkpt lat="48.05289" lon="-1.51529">
        <ele>39.89963</ele>
      </trkpt>
      <trkpt lat="48.05287" lon="-1.5153">
        <ele>39.86398</ele>
      </trkpt>
      <trkpt lat="48.05286" lon="-1.51534">
        <ele>39.8004</ele>
      </trkpt>
      <trkpt lat="48.05286" lon="-1.51539">
        <ele>39.72191</ele>
      </trkpt>
      <trkpt lat="48.05287" lon="-1.51545">
        <ele>39.63078</ele>
      </trkpt>
      <trkpt lat="48.05287" lon="-1.51552">
        <ele>39.5405</ele>
      </trkpt>
      <trkpt lat="48.05286" lon="-1.51559">
        <ele>39.48865</ele>
      </trkpt>
      <trkpt lat="48.05285" lon="-1.51566">
        <ele>39.48422</ele>
      </trkpt>
      <trkpt lat="48.05283" lon="-1.51572">
        <ele>39.52706</ele>
      </trkpt>
      <trkpt lat="48.05281" lon="-1.51578">
        <ele>39.61226</ele>
      </trkpt>
      <trkpt lat="48.05279" lon="-1.51584">
        <ele>39.72235</ele>
      </trkpt>
      <trkpt lat="48.05277" lon="-1.5159">
        <ele>39.83805</ele>
      </trkpt>
      <trkpt lat="48.05276" lon="-1.51596">
        <ele>39.93774</ele>
      </trkpt>
      <trkpt lat="48.05274" lon="-1.51602">
        <ele>40.02911</ele>
      </trkpt>
      <trkpt lat="48.05272" lon="-1.51608">
        <ele>40.10383</ele>
      </trkpt>
      <trkpt lat="48.05271" lon="-1.51614">
        <ele>40.15749</ele>
      </trkpt>
      <trkpt lat="48.05269" lon="-1.5162">
        <ele>40.21998</ele>
      </trkpt>
      <trkpt lat="48.05268" lon="-1.51626">
        <ele>40.26241</ele>
      </trkpt>
      <trkpt lat="48.05268" lon="-1.51632">
        <ele>40.30169</ele>
      </trkpt>
      <trkpt lat="48.05267" lon="-1.51638">
        <ele>40.34298</ele>
      </trkpt>
      <trkpt lat="48.05267" lon="-1.51644">
        <ele>40.3486</ele>
      </trkpt>
      <trkpt lat="48.05268" lon="-1.51647">
        <ele>40.34416</ele>
      </trkpt>
      <trkpt lat="48.0527" lon="-1.51649">
        <ele>40.28668</ele>
      </trkpt>
      <trkpt lat="48.05273" lon="-1.51649">
        <ele>40.23682</ele>
      </trkpt>
      <trkpt lat="48.05273" lon="-1.51649">
        <ele>40.23682</ele>
        <time>2021-12-26T08:32:47.999Z</time>
      </trkpt>
      <trkpt lat="48.05276" lon="-1.51649">
        <ele>40.18699</ele>
        <time>2021-12-26T08:32:48.999Z</time>
      </trkpt>
      <trkpt lat="48.05279" lon="-1.51649">
        <ele>40.1395</ele>
        <time>2021-12-26T08:32:49.999Z</time>
      </trkpt>
      <trkpt lat="48.05282" lon="-1.51649">
        <ele>40.09815</ele>
        <time>2021-12-26T08:32:50.999Z</time>
      </trkpt>
      <trkpt lat="48.05286" lon="-1.5165">
        <ele>40.05929</ele>
        <time>2021-12-26T08:32:51.999Z</time>
      </trkpt>
      <trkpt lat="48.0529" lon="-1.51651">
        <ele>40.0272</ele>
        <time>2021-12-26T08:32:52.999Z</time>
      </trkpt>
      <trkpt lat="48.05296" lon="-1.51653">
        <ele>40.02308</ele>
        <time>2021-12-26T08:32:53.999Z</time>
      </trkpt>
      <trkpt lat="48.053" lon="-1.51653">
        <ele>40.0489</ele>
        <time>2021-12-26T08:32:54.999Z</time>
      </trkpt>
      <trkpt lat="48.05305" lon="-1.51654">
        <ele>40.08629</ele>
        <time>2021-12-26T08:32:55.999Z</time>
      </trkpt>
      <trkpt lat="48.05309" lon="-1.51655">
        <ele>40.11837</ele>
        <time>2021-12-26T08:32:56.999Z</time>
      </trkpt>
      <trkpt lat="48.05314" lon="-1.51656">
        <ele>40.11656</ele>
        <time>2021-12-26T08:32:57.999Z</time>
      </trkpt>
      <trkpt lat="48.05316" lon="-1.51657">
        <ele>40.0936</ele>
        <time>2021-12-26T08:32:58.999Z</time>
      </trkpt>
      <trkpt lat="48.05319" lon="-1.51657">
        <ele>40.05026</ele>
        <time>2021-12-26T08:32:59.999Z</time>
      </trkpt>
      <trkpt lat="48.05324" lon="-1.51658">
        <ele>39.96943</ele>
        <time>2021-12-26T08:33:00.999Z</time>
      </trkpt>
      <trkpt lat="48.05328" lon="-1.51658">
        <ele>39.87815</ele>
        <time>2021-12-26T08:33:01.999Z</time>
      </trkpt>
      <trkpt lat="48.05332" lon="-1.51657">
        <ele>39.80098</ele>
        <time>2021-12-26T08:33:02.999Z</time>
      </trkpt>
      <trkpt lat="48.05337" lon="-1.51656">
        <ele>39.73631</ele>
        <time>2021-12-26T08:33:03.999Z</time>
      </trkpt>
      <trkpt lat="48.05341" lon="-1.51656">
        <ele>39.68144</ele>
        <time>2021-12-26T08:33:04.999Z</time>
      </trkpt>
      <trkpt lat="48.05345" lon="-1.51656">
        <ele>39.62886</ele>
        <time>2021-12-26T08:33:05.999Z</time>
      </trkpt>
      <trkpt lat="48.0535" lon="-1.51655">
        <ele>39.5851</ele>
        <time>2021-12-26T08:33:06.999Z</time>
      </trkpt>
      <trkpt lat="48.05354" lon="-1.51655">
        <ele>39.56168</ele>
        <time>2021-12-26T08:33:07.999Z</time>
      </trkpt>
      <trkpt lat="48.05357" lon="-1.51656">
        <ele>39.56092</ele>
        <time>2021-12-26T08:33:08.999Z</time>
      </trkpt>
      <trkpt lat="48.05362" lon="-1.51656">
        <ele>39.59992</ele>
        <time>2021-12-26T08:33:09.999Z</time>
      </trkpt>
      <trkpt lat="48.05365" lon="-1.51657">
        <ele>39.67536</ele>
        <time>2021-12-26T08:33:10.999Z</time>
      </trkpt>
      <trkpt lat="48.05369" lon="-1.51657">
        <ele>39.78291</ele>
        <time>2021-12-26T08:33:11.999Z</time>
      </trkpt>
      <trkpt lat="48.05372" lon="-1.51661">
        <ele>39.87015</ele>
        <time>2021-12-26T08:33:12.999Z</time>
      </trkpt>
      <trkpt lat="48.05372" lon="-1.51666">
        <ele>39.92092</ele>
        <time>2021-12-26T08:33:13.999Z</time>
      </trkpt>
      <trkpt lat="48.05373" lon="-1.51672">
        <ele>39.95527</ele>
        <time>2021-12-26T08:33:14.999Z</time>
      </trkpt>
      <trkpt lat="48.05374" lon="-1.51678">
        <ele>40.0096</ele>
        <time>2021-12-26T08:33:15.999Z</time>
      </trkpt>
      <trkpt lat="48.05375" lon="-1.51683">
        <ele>40.06888</ele>
        <time>2021-12-26T08:33:16.999Z</time>
      </trkpt>
      <trkpt lat="48.05376" lon="-1.51689">
        <ele>40.13934</ele>
        <time>2021-12-26T08:33:17.999Z</time>
      </trkpt>
      <trkpt lat="48.05377" lon="-1.51695">
        <ele>40.22407</ele>
        <time>2021-12-26T08:33:18.999Z</time>
      </trkpt>
      <trkpt lat="48.05378" lon="-1.51701">
        <ele>40.34165</ele>
        <time>2021-12-26T08:33:19.999Z</time>
      </trkpt>
      <trkpt lat="48.05379" lon="-1.51708">
        <ele>40.43917</ele>
        <time>2021-12-26T08:33:20.999Z</time>
      </trkpt>
      <trkpt lat="48.05381" lon="-1.51714">
        <ele>40.51549</ele>
        <time>2021-12-26T08:33:21.999Z</time>
      </trkpt>
      <trkpt lat="48.05382" lon="-1.51719">
        <ele>40.59635</ele>
        <time>2021-12-26T08:33:22.999Z</time>
      </trkpt>
      <trkpt lat="48.05383" lon="-1.51725">
        <ele>40.70661</ele>
        <time>2021-12-26T08:33:23.999Z</time>
      </trkpt>
      <trkpt lat="48.05384" lon="-1.5173">
        <ele>40.84177</ele>
        <time>2021-12-26T08:33:24.999Z</time>
      </trkpt>
      <trkpt lat="48.05384" lon="-1.51734">
        <ele>40.98721</ele>
        <time>2021-12-26T08:33:25.999Z</time>
      </trkpt>
      <trkpt lat="48.05384" lon="-1.51738">
        <ele>41.13653</ele>
        <time>2021-12-26T08:33:26.999Z</time>
      </trkpt>
      <trkpt lat="48.05381" lon="-1.51737">
        <ele>41.04324</ele>
        <time>2021-12-26T08:33:28.999Z</time>
      </trkpt>
      <trkpt lat="48.05381" lon="-1.51734">
        <ele>40.91597</ele>
        <time>2021-12-26T08:33:29.999Z</time>
      </trkpt>
      <trkpt lat="48.0538" lon="-1.5173">
        <ele>40.7551</ele>
        <time>2021-12-26T08:33:30.999Z</time>
      </trkpt>
      <trkpt lat="48.0538" lon="-1.5173">
        <ele>40.7551</ele>
        <time>2021-12-26T08:33:30.999Z</time>
      </trkpt>
      <trkpt lat="48.05379" lon="-1.51725">
        <ele>40.5649</ele>
        <time>2021-12-26T08:33:31.999Z</time>
      </trkpt>
      <trkpt lat="48.05377" lon="-1.51719">
        <ele>40.39242</ele>
        <time>2021-12-26T08:33:32.999Z</time>
      </trkpt>
      <trkpt lat="48.05375" lon="-1.51711">
        <ele>40.21959</ele>
        <time>2021-12-26T08:33:33.999Z</time>
      </trkpt>
      <trkpt lat="48.05374" lon="-1.51704">
        <ele>40.08555</ele>
        <time>2021-12-26T08:33:34.999Z</time>
      </trkpt>
      <trkpt lat="48.05373" lon="-1.51698">
        <ele>39.94477</ele>
        <time>2021-12-26T08:33:35.999Z</time>
      </trkpt>
      <trkpt lat="48.05372" lon="-1.51693">
        <ele>39.83691</ele>
        <time>2021-12-26T08:33:36.999Z</time>
      </trkpt>
      <trkpt lat="48.0537" lon="-1.51693">
        <ele>39.67496</ele>
        <time>2021-12-26T08:33:37.999Z</time>
      </trkpt>
      <trkpt lat="48.05367" lon="-1.51695">
        <ele>39.42492</ele>
        <time>2021-12-26T08:33:38.999Z</time>
      </trkpt>
      <trkpt lat="48.05363" lon="-1.51697">
        <ele>39.08587</ele>
        <time>2021-12-26T08:33:39.999Z</time>
      </trkpt>
      <trkpt lat="48.05357" lon="-1.51698">
        <ele>38.79625</ele>
        <time>2021-12-26T08:33:40.999Z</time>
      </trkpt>
      <trkpt lat="48.05352" lon="-1.51698">
        <ele>38.67995</ele>
        <time>2021-12-26T08:33:41.999Z</time>
      </trkpt>
      <trkpt lat="48.05347" lon="-1.51698">
        <ele>38.68435</ele>
        <time>2021-12-26T08:33:42.999Z</time>
      </trkpt>
      <trkpt lat="48.05343" lon="-1.51697">
        <ele>38.7208</ele>
        <time>2021-12-26T08:33:43.999Z</time>
      </trkpt>
      <trkpt lat="48.05339" lon="-1.51697">
        <ele>38.75879</ele>
        <time>2021-12-26T08:33:44.999Z</time>
      </trkpt>
      <trkpt lat="48.05334" lon="-1.51697">
        <ele>38.77582</ele>
        <time>2021-12-26T08:33:45.999Z</time>
      </trkpt>
      <trkpt lat="48.0533" lon="-1.51697">
        <ele>38.76883</ele>
        <time>2021-12-26T08:33:46.999Z</time>
      </trkpt>
      <trkpt lat="48.05325" lon="-1.51697">
        <ele>38.76131</ele>
        <time>2021-12-26T08:33:47.999Z</time>
      </trkpt>
      <trkpt lat="48.05322" lon="-1.51697">
        <ele>38.7569</ele>
        <time>2021-12-26T08:33:48.999Z</time>
      </trkpt>
      <trkpt lat="48.05318" lon="-1.51697">
        <ele>38.74977</ele>
        <time>2021-12-26T08:33:49.999Z</time>
      </trkpt>
      <trkpt lat="48.05314" lon="-1.51697">
        <ele>38.75367</ele>
        <time>2021-12-26T08:33:50.999Z</time>
      </trkpt>
      <trkpt lat="48.05311" lon="-1.51696">
        <ele>38.74803</ele>
        <time>2021-12-26T08:33:51.999Z</time>
      </trkpt>
      <trkpt lat="48.05308" lon="-1.51697">
        <ele>38.72537</ele>
        <time>2021-12-26T08:33:52.999Z</time>
      </trkpt>
      <trkpt lat="48.05305" lon="-1.51696">
        <ele>38.71028</ele>
        <time>2021-12-26T08:33:53.999Z</time>
      </trkpt>
      <trkpt lat="48.05302" lon="-1.51696">
        <ele>38.68147</ele>
        <time>2021-12-26T08:33:54.999Z</time>
      </trkpt>
      <trkpt lat="48.05299" lon="-1.51696">
        <ele>38.6675</ele>
        <time>2021-12-26T08:33:55.999Z</time>
      </trkpt>
      <trkpt lat="48.05296" lon="-1.51696">
        <ele>38.66241</ele>
        <time>2021-12-26T08:33:56.999Z</time>
      </trkpt>
      <trkpt lat="48.05294" lon="-1.51696">
        <ele>38.6755</ele>
        <time>2021-12-26T08:33:57.999Z</time>
      </trkpt>
      <trkpt lat="48.05291" lon="-1.51696">
        <ele>38.71845</ele>
        <time>2021-12-26T08:33:58.999Z</time>
      </trkpt>
      <trkpt lat="48.05287" lon="-1.51695">
        <ele>38.83263</ele>
        <time>2021-12-26T08:33:59.999Z</time>
      </trkpt>
      <trkpt lat="48.05285" lon="-1.51693">
        <ele>38.93803</ele>
        <time>2021-12-26T08:34:00.999Z</time>
      </trkpt>
      <trkpt lat="48.05284" lon="-1.5169">
        <ele>39.00501</ele>
        <time>2021-12-26T08:34:01.999Z</time>
      </trkpt>
      <trkpt lat="48.05287" lon="-1.51688">
        <ele>38.96244</ele>
        <time>2021-12-26T08:34:03.999Z</time>
      </trkpt>
      <trkpt lat="48.05287" lon="-1.51688">
        <ele>38.96244</ele>
      </trkpt>
      <trkpt lat="48.05289" lon="-1.51688">
        <ele>38.90235</ele>
      </trkpt>
      <trkpt lat="48.05292" lon="-1.51689">
        <ele>38.84029</ele>
      </trkpt>
      <trkpt lat="48.05295" lon="-1.51689">
        <ele>38.80905</ele>
      </trkpt>
      <trkpt lat="48.05298" lon="-1.51689">
        <ele>38.80279</ele>
      </trkpt>
      <trkpt lat="48.05301" lon="-1.51689">
        <ele>38.81718</ele>
      </trkpt>
      <trkpt lat="48.05304" lon="-1.5169">
        <ele>38.83821</ele>
      </trkpt>
      <trkpt lat="48.05307" lon="-1.5169">
        <ele>38.85647</ele>
      </trkpt>
      <trkpt lat="48.0531" lon="-1.5169">
        <ele>38.86768</ele>
      </trkpt>
      <trkpt lat="48.05312" lon="-1.51691">
        <ele>38.87606</ele>
      </trkpt>
      <trkpt lat="48.05314" lon="-1.51691">
        <ele>38.86273</ele>
      </trkpt>
      <trkpt lat="48.05317" lon="-1.51691">
        <ele>38.86127</ele>
      </trkpt>
      <trkpt lat="48.05319" lon="-1.51692">
        <ele>38.85942</ele>
      </trkpt>
      <trkpt lat="48.05322" lon="-1.51691">
        <ele>38.87709</ele>
      </trkpt>
      <trkpt lat="48.05324" lon="-1.51687">
        <ele>38.99912</ele>
      </trkpt>
      <trkpt lat="48.05323" lon="-1.51682">
        <ele>39.20037</ele>
      </trkpt>
      <trkpt lat="48.0532" lon="-1.51681">
        <ele>39.29188</ele>
      </trkpt>
      <trkpt lat="48.05316" lon="-1.51679">
        <ele>39.38613</ele>
      </trkpt>
      <trkpt lat="48.05312" lon="-1.5168">
        <ele>39.33258</ele>
      </trkpt>
      <trkpt lat="48.05308" lon="-1.51679">
        <ele>39.32414</ele>
      </trkpt>
      <trkpt lat="48.05305" lon="-1.5168">
        <ele>39.27063</ele>
      </trkpt>
      <trkpt lat="48.053" lon="-1.5168">
        <ele>39.20895</ele>
      </trkpt>
      <trkpt lat="48.05296" lon="-1.51679">
        <ele>39.19886</ele>
      </trkpt>
      <trkpt lat="48.05291" lon="-1.51679">
        <ele>39.21932</ele>
      </trkpt>
      <trkpt lat="48.05288" lon="-1.5168">
        <ele>39.25198</ele>
      </trkpt>
      <trkpt lat="48.05284" lon="-1.5168">
        <ele>39.3334</ele>
      </trkpt>
      <trkpt lat="48.05281" lon="-1.51679">
        <ele>39.46239</ele>
      </trkpt>
      <trkpt lat="48.05281" lon="-1.51676">
        <ele>39.58794</ele>
      </trkpt>
      <trkpt lat="48.05283" lon="-1.51673">
        <ele>39.63941</ele>
      </trkpt>
      <trkpt lat="48.05286" lon="-1.51673">
        <ele>39.55397</ele>
      </trkpt>
      <trkpt lat="48.05289" lon="-1.51674">
        <ele>39.49928</ele>
      </trkpt>
      <trkpt lat="48.05293" lon="-1.51674">
        <ele>39.46968</ele>
      </trkpt>
      <trkpt lat="48.05296" lon="-1.51674">
        <ele>39.46022</ele>
      </trkpt>
      <trkpt lat="48.053" lon="-1.51675">
        <ele>39.46576</ele>
      </trkpt>
      <trkpt lat="48.05304" lon="-1.51675">
        <ele>39.49032</ele>
      </trkpt>
      <trkpt lat="48.05307" lon="-1.51676">
        <ele>39.51141</ele>
      </trkpt>
      <trkpt lat="48.05312" lon="-1.51676">
        <ele>39.54042</ele>
      </trkpt>
      <trkpt lat="48.05316" lon="-1.51676">
        <ele>39.53414</ele>
      </trkpt>
      <trkpt lat="48.05321" lon="-1.51676">
        <ele>39.51782</ele>
      </trkpt>
      <trkpt lat="48.05325" lon="-1.51675">
        <ele>39.48573</ele>
      </trkpt>
      <trkpt lat="48.05328" lon="-1.51675">
        <ele>39.45735</ele>
      </trkpt>
      <trkpt lat="48.05332" lon="-1.51675">
        <ele>39.41574</ele>
      </trkpt>
      <trkpt lat="48.05337" lon="-1.51675">
        <ele>39.37028</ele>
      </trkpt>
      <trkpt lat="48.0534" lon="-1.51675">
        <ele>39.32601</ele>
      </trkpt>
      <trkpt lat="48.05344" lon="-1.51676">
        <ele>39.26581</ele>
      </trkpt>
      <trkpt lat="48.05347" lon="-1.51676">
        <ele>39.20187</ele>
      </trkpt>
      <trkpt lat="48.05351" lon="-1.51677">
        <ele>39.16269</ele>
      </trkpt>
      <trkpt lat="48.05355" lon="-1.51677">
        <ele>39.17827</ele>
      </trkpt>
      <trkpt lat="48.0536" lon="-1.51675">
        <ele>39.3069</ele>
      </trkpt>
      <trkpt lat="48.05363" lon="-1.51672">
        <ele>39.49233</ele>
      </trkpt>
      <trkpt lat="48.05366" lon="-1.51667">
        <ele>39.66925</ele>
      </trkpt>
      <trkpt lat="48.05369" lon="-1.51664">
        <ele>39.77338</ele>
      </trkpt>
      <trkpt lat="48.05371" lon="-1.51661">
        <ele>39.8444</ele>
      </trkpt>
      <trkpt lat="48.05374" lon="-1.51659">
        <ele>39.92232</ele>
      </trkpt>
      <trkpt lat="48.05376" lon="-1.51657">
        <ele>39.97145</ele>
      </trkpt>
      <trkpt lat="48.0538" lon="-1.51657">
        <ele>40.0485</ele>
      </trkpt>
      <trkpt lat="48.05383" lon="-1.51657">
        <ele>40.09893</ele>
      </trkpt>
      <trkpt lat="48.05387" lon="-1.51657">
        <ele>40.11704</ele>
      </trkpt>
      <trkpt lat="48.05389" lon="-1.51658">
        <ele>40.12843</ele>
      </trkpt>
      <trkpt lat="48.05392" lon="-1.51658">
        <ele>40.13462</ele>
      </trkpt>
      <trkpt lat="48.05395" lon="-1.51659">
        <ele>40.14929</ele>
      </trkpt>
      <trkpt lat="48.05398" lon="-1.51659">
        <ele>40.17714</ele>
      </trkpt>
      <trkpt lat="48.05401" lon="-1.51659">
        <ele>40.22164</ele>
      </trkpt>
      <trkpt lat="48.05403" lon="-1.5166">
        <ele>40.30177</ele>
      </trkpt>
      <trkpt lat="48.05406" lon="-1.51662">
        <ele>40.41137</ele>
      </trkpt>
      <trkpt lat="48.05409" lon="-1.51663">
        <ele>40.53122</ele>
      </trkpt>
      <trkpt lat="48.05412" lon="-1.51667">
        <ele>40.64966</ele>
      </trkpt>
      <trkpt lat="48.05415" lon="-1.51669">
        <ele>40.75061</ele>
      </trkpt>
      <trkpt lat="48.05417" lon="-1.51672">
        <ele>40.83356</ele>
      </trkpt>
      <trkpt lat="48.05419" lon="-1.51674">
        <ele>40.88997</ele>
      </trkpt>
      <trkpt lat="48.0542" lon="-1.51677">
        <ele>40.92849</ele>
      </trkpt>
      <trkpt lat="48.05421" lon="-1.5168">
        <ele>40.96636</ele>
      </trkpt>
      <trkpt lat="48.05424" lon="-1.51683">
        <ele>41.04706</ele>
      </trkpt>
      <trkpt lat="48.05427" lon="-1.51687">
        <ele>41.19188</ele>
      </trkpt>
      <trkpt lat="48.0543" lon="-1.5169">
        <ele>41.32258</ele>
      </trkpt>
      <trkpt lat="48.05432" lon="-1.51692">
        <ele>41.42762</ele>
      </trkpt>
      <trkpt lat="48.05435" lon="-1.51695">
        <ele>41.56921</ele>
      </trkpt>
      <trkpt lat="48.05438" lon="-1.51697">
        <ele>41.70307</ele>
      </trkpt>
      <trkpt lat="48.05441" lon="-1.51698">
        <ele>41.85138</ele>
      </trkpt>
      <trkpt lat="48.05444" lon="-1.51699">
        <ele>41.975</ele>
      </trkpt>
      <trkpt lat="48.05449" lon="-1.51703">
        <ele>42.10944</ele>
      </trkpt>
      <trkpt lat="48.05452" lon="-1.51705">
        <ele>42.207</ele>
      </trkpt>
      <trkpt lat="48.05454" lon="-1.51711">
        <ele>42.18914</ele>
      </trkpt>
      <trkpt lat="48.05454" lon="-1.51716">
        <ele>42.15735</ele>
      </trkpt>
      <trkpt lat="48.05456" lon="-1.51722">
        <ele>42.21243</ele>
      </trkpt>
      <trkpt lat="48.05458" lon="-1.51724">
        <ele>42.31892</ele>
      </trkpt>
      <trkpt lat="48.0546" lon="-1.51719">
        <ele>42.43378</ele>
      </trkpt>
      <trkpt lat="48.05463" lon="-1.51716">
        <ele>42.57573</ele>
      </trkpt>
      <trkpt lat="48.05467" lon="-1.51719">
        <ele>42.77157</ele>
      </trkpt>
      <trkpt lat="48.0547" lon="-1.51722">
        <ele>42.99026</ele>
      </trkpt>
      <trkpt lat="48.05473" lon="-1.51724">
        <ele>43.19945</ele>
      </trkpt>
      <trkpt lat="48.05475" lon="-1.51723">
        <ele>43.3931</ele>
      </trkpt>
      <trkpt lat="48.05477" lon="-1.51721">
        <ele>43.56092</ele>
      </trkpt>
      <trkpt lat="48.05479" lon="-1.51721">
        <ele>43.71401</ele>
      </trkpt>
      <trkpt lat="48.05484" lon="-1.51722">
        <ele>44.07108</ele>
      </trkpt>
      <trkpt lat="48.05486" lon="-1.51724">
        <ele>44.19842</ele>
      </trkpt>
      <trkpt lat="48.05488" lon="-1.51725">
        <ele>44.28859</ele>
      </trkpt>
      <trkpt lat="48.05491" lon="-1.51724">
        <ele>44.28283</ele>
      </trkpt>
      <trkpt lat="48.05497" lon="-1.51725">
        <ele>43.84475</ele>
      </trkpt>
      <trkpt lat="48.05497" lon="-1.51728">
        <ele>43.76672</ele>
      </trkpt>
      <trkpt lat="48.055" lon="-1.51731">
        <ele>43.36822</ele>
      </trkpt>
      <trkpt lat="48.05502" lon="-1.51734">
        <ele>42.88797</ele>
      </trkpt>
      <trkpt lat="48.05505" lon="-1.51738">
        <ele>42.40282</ele>
      </trkpt>
      <trkpt lat="48.05507" lon="-1.51742">
        <ele>42.05144</ele>
      </trkpt>
      <trkpt lat="48.05509" lon="-1.51746">
        <ele>41.77495</ele>
      </trkpt>
      <trkpt lat="48.05511" lon="-1.5175">
        <ele>41.61108</ele>
      </trkpt>
      <trkpt lat="48.05513" lon="-1.51753">
        <ele>41.65977</ele>
      </trkpt>
      <trkpt lat="48.05516" lon="-1.51757">
        <ele>41.86196</ele>
      </trkpt>
      <trkpt lat="48.05519" lon="-1.5176">
        <ele>42.00434</ele>
      </trkpt>
      <trkpt lat="48.05522" lon="-1.51762">
        <ele>42.19196</ele>
      </trkpt>
      <trkpt lat="48.05525" lon="-1.51763">
        <ele>42.27826</ele>
      </trkpt>
      <trkpt lat="48.05529" lon="-1.51762">
        <ele>42.15929</ele>
      </trkpt>
      <trkpt lat="48.05533" lon="-1.51762">
        <ele>42.14495</ele>
      </trkpt>
      <trkpt lat="48.05536" lon="-1.51763">
        <ele>42.19228</ele>
      </trkpt>
      <trkpt lat="48.05542" lon="-1.51764">
        <ele>42.29657</ele>
      </trkpt>
      <trkpt lat="48.05546" lon="-1.51764">
        <ele>42.32836</ele>
      </trkpt>
      <trkpt lat="48.0555" lon="-1.51764">
        <ele>42.37306</ele>
      </trkpt>
      <trkpt lat="48.05554" lon="-1.51764">
        <ele>42.39839</ele>
      </trkpt>
      <trkpt lat="48.05558" lon="-1.51763">
        <ele>42.42009</ele>
      </trkpt>
      <trkpt lat="48.05563" lon="-1.51762">
        <ele>42.37828</ele>
      </trkpt>
      <trkpt lat="48.05566" lon="-1.5176">
        <ele>42.27086</ele>
      </trkpt>
      <trkpt lat="48.05569" lon="-1.51758">
        <ele>42.13765</ele>
      </trkpt>
      <trkpt lat="48.05572" lon="-1.51756">
        <ele>42.0064</ele>
      </trkpt>
      <trkpt lat="48.05576" lon="-1.51754">
        <ele>41.91752</ele>
      </trkpt>
      <trkpt lat="48.0558" lon="-1.51754">
        <ele>41.89053</ele>
      </trkpt>
      <trkpt lat="48.05583" lon="-1.51755">
        <ele>41.9274</ele>
      </trkpt>
      <trkpt lat="48.05587" lon="-1.51756">
        <ele>41.99336</ele>
      </trkpt>
      <trkpt lat="48.0559" lon="-1.51756">
        <ele>42.046</ele>
      </trkpt>
      <trkpt lat="48.05594" lon="-1.51758">
        <ele>42.13689</ele>
      </trkpt>
      <trkpt lat="48.05598" lon="-1.51758">
        <ele>42.16235</ele>
      </trkpt>
      <trkpt lat="48.05602" lon="-1.51756">
        <ele>41.92366</ele>
      </trkpt>
      <trkpt lat="48.05606" lon="-1.51753">
        <ele>41.72146</ele>
      </trkpt>
      <trkpt lat="48.05611" lon="-1.51751">
        <ele>41.59116</ele>
      </trkpt>
      <trkpt lat="48.05615" lon="-1.51747">
        <ele>41.60565</ele>
      </trkpt>
      <trkpt lat="48.05619" lon="-1.51743">
        <ele>41.83746</ele>
      </trkpt>
      <trkpt lat="48.05621" lon="-1.51739">
        <ele>42.28819</ele>
      </trkpt>
      <trkpt lat="48.05625" lon="-1.51736">
        <ele>42.8538</ele>
      </trkpt>
      <trkpt lat="48.05628" lon="-1.51736">
        <ele>43.13096</ele>
      </trkpt>
      <trkpt lat="48.05632" lon="-1.51737">
        <ele>43.4781</ele>
      </trkpt>
      <trkpt lat="48.05637" lon="-1.5174">
        <ele>43.60939</ele>
      </trkpt>
      <trkpt lat="48.05642" lon="-1.51743">
        <ele>43.7545</ele>
      </trkpt>
      <trkpt lat="48.05646" lon="-1.51746">
        <ele>43.77402</ele>
      </trkpt>
      <trkpt lat="48.0565" lon="-1.51749">
        <ele>43.71905</ele>
      </trkpt>
      <trkpt lat="48.05653" lon="-1.51753">
        <ele>43.7058</ele>
      </trkpt>
      <trkpt lat="48.05656" lon="-1.51757">
        <ele>43.77184</ele>
      </trkpt>
      <trkpt lat="48.05659" lon="-1.51762">
        <ele>43.84037</ele>
      </trkpt>
      <trkpt lat="48.05662" lon="-1.51766">
        <ele>43.93792</ele>
      </trkpt>
      <trkpt lat="48.05665" lon="-1.5177">
        <ele>44.02905</ele>
      </trkpt>
      <trkpt lat="48.05668" lon="-1.51774">
        <ele>44.00646</ele>
      </trkpt>
      <trkpt lat="48.0567" lon="-1.51778">
        <ele>43.91715</ele>
      </trkpt>
      <trkpt lat="48.05674" lon="-1.51782">
        <ele>43.84367</ele>
      </trkpt>
      <trkpt lat="48.05677" lon="-1.51786">
        <ele>43.82113</ele>
      </trkpt>
      <trkpt lat="48.0568" lon="-1.5179">
        <ele>43.79112</ele>
      </trkpt>
      <trkpt lat="48.05683" lon="-1.51795">
        <ele>43.77963</ele>
      </trkpt>
      <trkpt lat="48.05685" lon="-1.51799">
        <ele>43.87624</ele>
      </trkpt>
      <trkpt lat="48.05689" lon="-1.51805">
        <ele>43.93129</ele>
      </trkpt>
      <trkpt lat="48.05691" lon="-1.51809">
        <ele>44.0109</ele>
      </trkpt>
      <trkpt lat="48.05692" lon="-1.51815">
        <ele>43.91815</ele>
      </trkpt>
      <trkpt lat="48.05693" lon="-1.51822">
        <ele>43.64147</ele>
      </trkpt>
      <trkpt lat="48.05694" lon="-1.51829">
        <ele>43.4036</ele>
      </trkpt>
      <trkpt lat="48.05695" lon="-1.51836">
        <ele>43.18426</ele>
      </trkpt>
      <trkpt lat="48.05696" lon="-1.51844">
        <ele>42.96217</ele>
      </trkpt>
      <trkpt lat="48.05697" lon="-1.51851">
        <ele>42.79903</ele>
      </trkpt>
      <trkpt lat="48.05698" lon="-1.51859">
        <ele>42.62841</ele>
      </trkpt>
      <trkpt lat="48.05699" lon="-1.51866">
        <ele>42.57797</ele>
      </trkpt>
      <trkpt lat="48.057" lon="-1.51873">
        <ele>42.55494</ele>
      </trkpt>
      <trkpt lat="48.05702" lon="-1.51879">
        <ele>42.60569</ele>
      </trkpt>
      <trkpt lat="48.05704" lon="-1.51885">
        <ele>42.69945</ele>
      </trkpt>
      <trkpt lat="48.05707" lon="-1.5189">
        <ele>42.86424</ele>
      </trkpt>
      <trkpt lat="48.05709" lon="-1.51893">
        <ele>43.03158</ele>
      </trkpt>
      <trkpt lat="48.05712" lon="-1.51896">
        <ele>43.22312</ele>
      </trkpt>
      <trkpt lat="48.05715" lon="-1.519">
        <ele>43.52897</ele>
      </trkpt>
      <trkpt lat="48.05719" lon="-1.51904">
        <ele>43.86192</ele>
      </trkpt>
      <trkpt lat="48.05723" lon="-1.51909">
        <ele>44.14188</ele>
      </trkpt>
      <trkpt lat="48.05724" lon="-1.51916">
        <ele>44.04113</ele>
      </trkpt>
      <trkpt lat="48.05726" lon="-1.51923">
        <ele>43.94753</ele>
      </trkpt>
      <trkpt lat="48.05727" lon="-1.5193">
        <ele>43.8808</ele>
      </trkpt>
      <trkpt lat="48.0573" lon="-1.51936">
        <ele>43.93535</ele>
      </trkpt>
      <trkpt lat="48.05734" lon="-1.51942">
        <ele>44.02438</ele>
      </trkpt>
      <trkpt lat="48.05738" lon="-1.51945">
        <ele>44.3764</ele>
      </trkpt>
      <trkpt lat="48.05741" lon="-1.51948">
        <ele>44.71223</ele>
      </trkpt>
      <trkpt lat="48.05745" lon="-1.51948">
        <ele>45.47675</ele>
      </trkpt>
      <trkpt lat="48.05748" lon="-1.51947">
        <ele>46.23402</ele>
      </trkpt>
      <trkpt lat="48.05751" lon="-1.51948">
        <ele>46.8074</ele>
      </trkpt>
      <trkpt lat="48.05755" lon="-1.51951">
        <ele>46.93048</ele>
      </trkpt>
      <trkpt lat="48.05758" lon="-1.51956">
        <ele>46.73905</ele>
      </trkpt>
      <trkpt lat="48.0576" lon="-1.51961">
        <ele>46.33796</ele>
      </trkpt>
      <trkpt lat="48.05761" lon="-1.51964">
        <ele>46.07839</ele>
      </trkpt>
      <trkpt lat="48.05763" lon="-1.51967">
        <ele>45.95168</ele>
      </trkpt>
      <trkpt lat="48.05766" lon="-1.5197">
        <ele>46.05783</ele>
      </trkpt>
      <trkpt lat="48.0577" lon="-1.51974">
        <ele>46.11273</ele>
      </trkpt>
      <trkpt lat="48.05773" lon="-1.51976">
        <ele>46.14377</ele>
      </trkpt>
      <trkpt lat="48.05777" lon="-1.51978">
        <ele>46.41755</ele>
      </trkpt>
      <trkpt lat="48.05781" lon="-1.51978">
        <ele>46.77884</ele>
      </trkpt>
      <trkpt lat="48.05784" lon="-1.51978">
        <ele>47.13683</ele>
      </trkpt>
      <trkpt lat="48.05787" lon="-1.51979">
        <ele>47.41423</ele>
      </trkpt>
      <trkpt lat="48.05791" lon="-1.51979">
        <ele>47.83655</ele>
      </trkpt>
      <trkpt lat="48.05795" lon="-1.5198">
        <ele>48.13196</ele>
      </trkpt>
      <trkpt lat="48.058" lon="-1.51981">
        <ele>48.30738</ele>
      </trkpt>
      <trkpt lat="48.05804" lon="-1.51982">
        <ele>48.26238</ele>
      </trkpt>
      <trkpt lat="48.05808" lon="-1.51983">
        <ele>48.23598</ele>
      </trkpt>
      <trkpt lat="48.05813" lon="-1.51984">
        <ele>48.13481</ele>
      </trkpt>
      <trkpt lat="48.05818" lon="-1.51985">
        <ele>48.02568</ele>
      </trkpt>
      <trkpt lat="48.05821" lon="-1.51986">
        <ele>47.92929</ele>
      </trkpt>
      <trkpt lat="48.05825" lon="-1.51986">
        <ele>48.11011</ele>
      </trkpt>
      <trkpt lat="48.05831" lon="-1.51986">
        <ele>48.22675</ele>
      </trkpt>
      <trkpt lat="48.05835" lon="-1.51985">
        <ele>48.60158</ele>
      </trkpt>
      <trkpt lat="48.05838" lon="-1.51984">
        <ele>48.83254</ele>
      </trkpt>
      <trkpt lat="48.05841" lon="-1.51984">
        <ele>49.14597</ele>
      </trkpt>
      <trkpt lat="48.05847" lon="-1.51984">
        <ele>49.56398</ele>
      </trkpt>
      <trkpt lat="48.05852" lon="-1.51985">
        <ele>49.92729</ele>
      </trkpt>
      <trkpt lat="48.05856" lon="-1.51986">
        <ele>50.36175</ele>
      </trkpt>
      <trkpt lat="48.0586" lon="-1.51987">
        <ele>50.58408</ele>
      </trkpt>
      <trkpt lat="48.05864" lon="-1.51988">
        <ele>50.60984</ele>
      </trkpt>
      <trkpt lat="48.05868" lon="-1.51989">
        <ele>50.51678</ele>
      </trkpt>
      <trkpt lat="48.05872" lon="-1.5199">
        <ele>50.35196</ele>
      </trkpt>
      <trkpt lat="48.05876" lon="-1.51991">
        <ele>49.81918</ele>
      </trkpt>
      <trkpt lat="48.0588" lon="-1.51993">
        <ele>49.4778</ele>
      </trkpt>
      <trkpt lat="48.05883" lon="-1.51994">
        <ele>49.16949</ele>
      </trkpt>
      <trkpt lat="48.05886" lon="-1.51996">
        <ele>48.92595</ele>
      </trkpt>
      <trkpt lat="48.05888" lon="-1.51997">
        <ele>48.61174</ele>
      </trkpt>
      <trkpt lat="48.05891" lon="-1.51999">
        <ele>48.39273</ele>
      </trkpt>
      <trkpt lat="48.05893" lon="-1.52005">
        <ele>47.27606</ele>
      </trkpt>
      <trkpt lat="48.05895" lon="-1.5201">
        <ele>46.4541</ele>
      </trkpt>
      <trkpt lat="48.05897" lon="-1.52017">
        <ele>45.78475</ele>
      </trkpt>
      <trkpt lat="48.05901" lon="-1.52023">
        <ele>45.68676</ele>
      </trkpt>
      <trkpt lat="48.05905" lon="-1.52028">
        <ele>45.79608</ele>
      </trkpt>
      <trkpt lat="48.05909" lon="-1.52033">
        <ele>46.03982</ele>
      </trkpt>
      <trkpt lat="48.05912" lon="-1.52035">
        <ele>46.29661</ele>
      </trkpt>
      <trkpt lat="48.05915" lon="-1.52035">
        <ele>46.5193</ele>
      </trkpt>
      <trkpt lat="48.05918" lon="-1.52034">
        <ele>46.77757</ele>
      </trkpt>
      <trkpt lat="48.05918" lon="-1.52034">
        <ele>46.77757</ele>
        <time>2021-12-26T08:38:07.000Z</time>
      </trkpt>
      <trkpt lat="48.05922" lon="-1.52032">
        <ele>47.11564</ele>
        <time>2021-12-26T08:38:08.000Z</time>
      </trkpt>
      <trkpt lat="48.05925" lon="-1.5203">
        <ele>47.48113</ele>
        <time>2021-12-26T08:38:09.000Z</time>
      </trkpt>
      <trkpt lat="48.05929" lon="-1.52029">
        <ele>47.88529</ele>
        <time>2021-12-26T08:38:10.000Z</time>
      </trkpt>
      <trkpt lat="48.05933" lon="-1.52027">
        <ele>48.2349</ele>
        <time>2021-12-26T08:38:11.000Z</time>
      </trkpt>
      <trkpt lat="48.05937" lon="-1.52028">
        <ele>48.62379</ele>
        <time>2021-12-26T08:38:12.000Z</time>
      </trkpt>
      <trkpt lat="48.05941" lon="-1.52028">
        <ele>48.97918</ele>
        <time>2021-12-26T08:38:13.000Z</time>
      </trkpt>
      <trkpt lat="48.05945" lon="-1.52029">
        <ele>49.343</ele>
        <time>2021-12-26T08:38:14.000Z</time>
      </trkpt>
      <trkpt lat="48.05951" lon="-1.52028">
        <ele>49.64685</ele>
        <time>2021-12-26T08:38:15.000Z</time>
      </trkpt>
      <trkpt lat="48.05956" lon="-1.52029">
        <ele>49.72606</ele>
        <time>2021-12-26T08:38:16.000Z</time>
      </trkpt>
      <trkpt lat="48.0596" lon="-1.52028">
        <ele>49.65353</ele>
        <time>2021-12-26T08:38:17.000Z</time>
      </trkpt>
      <trkpt lat="48.05966" lon="-1.52026">
        <ele>49.43237</ele>
        <time>2021-12-26T08:38:18.000Z</time>
      </trkpt>
      <trkpt lat="48.05971" lon="-1.52024">
        <ele>49.24255</ele>
        <time>2021-12-26T08:38:19.000Z</time>
      </trkpt>
      <trkpt lat="48.05975" lon="-1.5202">
        <ele>49.22871</ele>
        <time>2021-12-26T08:38:20.000Z</time>
      </trkpt>
      <trkpt lat="48.05978" lon="-1.52018">
        <ele>49.31576</ele>
        <time>2021-12-26T08:38:21.000Z</time>
      </trkpt>
      <trkpt lat="48.05981" lon="-1.52016">
        <ele>49.36946</ele>
        <time>2021-12-26T08:38:22.000Z</time>
      </trkpt>
      <trkpt lat="48.05984" lon="-1.52015">
        <ele>49.36374</ele>
        <time>2021-12-26T08:38:23.000Z</time>
      </trkpt>
      <trkpt lat="48.05988" lon="-1.52013">
        <ele>49.35886</ele>
        <time>2021-12-26T08:38:24.000Z</time>
      </trkpt>
      <trkpt lat="48.05991" lon="-1.52013">
        <ele>49.22832</ele>
        <time>2021-12-26T08:38:25.000Z</time>
      </trkpt>
      <trkpt lat="48.05994" lon="-1.52011">
        <ele>49.30974</ele>
        <time>2021-12-26T08:38:26.000Z</time>
      </trkpt>
      <trkpt lat="48.05998" lon="-1.5201">
        <ele>49.43988</ele>
        <time>2021-12-26T08:38:27.000Z</time>
      </trkpt>
      <trkpt lat="48.06001" lon="-1.5201">
        <ele>49.34965</ele>
        <time>2021-12-26T08:38:28.000Z</time>
      </trkpt>
      <trkpt lat="48.06005" lon="-1.52009">
        <ele>49.309</ele>
        <time>2021-12-26T08:38:29.000Z</time>
      </trkpt>
      <trkpt lat="48.06008" lon="-1.52009">
        <ele>49.27606</ele>
        <time>2021-12-26T08:38:30.000Z</time>
      </trkpt>
      <trkpt lat="48.06011" lon="-1.52008">
        <ele>49.45142</ele>
        <time>2021-12-26T08:38:31.000Z</time>
      </trkpt>
      <trkpt lat="48.06015" lon="-1.52006">
        <ele>49.81337</ele>
        <time>2021-12-26T08:38:32.000Z</time>
      </trkpt>
      <trkpt lat="48.06019" lon="-1.52004">
        <ele>50.01302</ele>
        <time>2021-12-26T08:38:33.000Z</time>
      </trkpt>
      <trkpt lat="48.06023" lon="-1.52002">
        <ele>50.0002</ele>
        <time>2021-12-26T08:38:34.000Z</time>
      </trkpt>
      <trkpt lat="48.06028" lon="-1.52002">
        <ele>49.62817</ele>
        <time>2021-12-26T08:38:35.000Z</time>
      </trkpt>
      <trkpt lat="48.06032" lon="-1.52002">
        <ele>49.30965</ele>
        <time>2021-12-26T08:38:36.000Z</time>
      </trkpt>
      <trkpt lat="48.06036" lon="-1.52002">
        <ele>48.83364</ele>
        <time>2021-12-26T08:38:37.000Z</time>
      </trkpt>
      <trkpt lat="48.06041" lon="-1.52002">
        <ele>48.49148</ele>
        <time>2021-12-26T08:38:38.000Z</time>
      </trkpt>
      <trkpt lat="48.06046" lon="-1.52001">
        <ele>48.38592</ele>
        <time>2021-12-26T08:38:39.000Z</time>
      </trkpt>
      <trkpt lat="48.06051" lon="-1.51999">
        <ele>48.56857</ele>
        <time>2021-12-26T08:38:40.000Z</time>
      </trkpt>
      <trkpt lat="48.06055" lon="-1.51996">
        <ele>49.08584</ele>
        <time>2021-12-26T08:38:41.000Z</time>
      </trkpt>
      <trkpt lat="48.06056" lon="-1.51991">
        <ele>49.79733</ele>
        <time>2021-12-26T08:38:42.000Z</time>
      </trkpt>
      <trkpt lat="48.06057" lon="-1.51987">
        <ele>50.60189</ele>
        <time>2021-12-26T08:38:43.000Z</time>
      </trkpt>
      <trkpt lat="48.06056" lon="-1.51982">
        <ele>51.74342</ele>
        <time>2021-12-26T08:38:44.000Z</time>
      </trkpt>
      <trkpt lat="48.06056" lon="-1.51979">
        <ele>52.48392</ele>
        <time>2021-12-26T08:38:45.000Z</time>
      </trkpt>
      <trkpt lat="48.06058" lon="-1.51976">
        <ele>53.33649</ele>
        <time>2021-12-26T08:38:47.000Z</time>
      </trkpt>
      <trkpt lat="48.0606" lon="-1.51977">
        <ele>53.18478</ele>
        <time>2021-12-26T08:38:48.000Z</time>
      </trkpt>
      <trkpt lat="48.06063" lon="-1.51978">
        <ele>52.88772</ele>
        <time>2021-12-26T08:38:49.000Z</time>
      </trkpt>
      <trkpt lat="48.06064" lon="-1.51979">
        <ele>52.511</ele>
        <time>2021-12-26T08:38:50.000Z</time>
      </trkpt>
      <trkpt lat="48.06067" lon="-1.5198">
        <ele>52.3107</ele>
        <time>2021-12-26T08:38:51.000Z</time>
      </trkpt>
      <trkpt lat="48.06069" lon="-1.51981">
        <ele>52.02906</ele>
        <time>2021-12-26T08:38:52.000Z</time>
      </trkpt>
      <trkpt lat="48.06072" lon="-1.51983">
        <ele>51.52241</ele>
        <time>2021-12-26T08:38:53.000Z</time>
      </trkpt>
      <trkpt lat="48.06076" lon="-1.51986">
        <ele>50.77116</ele>
        <time>2021-12-26T08:38:54.000Z</time>
      </trkpt>
      <trkpt lat="48.0608" lon="-1.51988">
        <ele>50.12662</ele>
        <time>2021-12-26T08:38:55.000Z</time>
      </trkpt>
      <trkpt lat="48.06084" lon="-1.5199">
        <ele>49.7809</ele>
        <time>2021-12-26T08:38:56.000Z</time>
      </trkpt>
      <trkpt lat="48.06089" lon="-1.51992">
        <ele>49.56877</ele>
        <time>2021-12-26T08:38:57.000Z</time>
      </trkpt>
      <trkpt lat="48.06094" lon="-1.51995">
        <ele>49.73869</ele>
        <time>2021-12-26T08:38:58.000Z</time>
      </trkpt>
      <trkpt lat="48.06098" lon="-1.51999">
        <ele>50.14343</ele>
        <time>2021-12-26T08:38:59.000Z</time>
      </trkpt>
      <trkpt lat="48.06102" lon="-1.52004">
        <ele>50.39921</ele>
        <time>2021-12-26T08:39:00.000Z</time>
      </trkpt>
      <trkpt lat="48.06106" lon="-1.52008">
        <ele>50.36544</ele>
        <time>2021-12-26T08:39:01.000Z</time>
      </trkpt>
      <trkpt lat="48.06108" lon="-1.52013">
        <ele>50.01003</ele>
        <time>2021-12-26T08:39:02.000Z</time>
      </trkpt>
      <trkpt lat="48.0611" lon="-1.52018">
        <ele>49.53363</ele>
        <time>2021-12-26T08:39:03.000Z</time>
      </trkpt>
      <trkpt lat="48.06113" lon="-1.52022">
        <ele>49.153</ele>
        <time>2021-12-26T08:39:04.000Z</time>
      </trkpt>
      <trkpt lat="48.06116" lon="-1.52029">
        <ele>48.61001</ele>
        <time>2021-12-26T08:39:05.000Z</time>
      </trkpt>
      <trkpt lat="48.06119" lon="-1.52035">
        <ele>48.54371</ele>
        <time>2021-12-26T08:39:06.000Z</time>
      </trkpt>
      <trkpt lat="48.06123" lon="-1.52042">
        <ele>48.65426</ele>
        <time>2021-12-26T08:39:07.000Z</time>
      </trkpt>
      <trkpt lat="48.06127" lon="-1.52045">
        <ele>48.90122</ele>
        <time>2021-12-26T08:39:08.000Z</time>
      </trkpt>
      <trkpt lat="48.06131" lon="-1.52049">
        <ele>49.09748</ele>
        <time>2021-12-26T08:39:09.000Z</time>
      </trkpt>
      <trkpt lat="48.06135" lon="-1.52052">
        <ele>49.22253</ele>
        <time>2021-12-26T08:39:10.000Z</time>
      </trkpt>
      <trkpt lat="48.0614" lon="-1.52054">
        <ele>49.31689</ele>
        <time>2021-12-26T08:39:11.000Z</time>
      </trkpt>
      <trkpt lat="48.06144" lon="-1.52055">
        <ele>49.39433</ele>
        <time>2021-12-26T08:39:12.000Z</time>
      </trkpt>
      <trkpt lat="48.06148" lon="-1.52056">
        <ele>49.49616</ele>
        <time>2021-12-26T08:39:13.000Z</time>
      </trkpt>
      <trkpt lat="48.06152" lon="-1.52056">
        <ele>49.57287</ele>
        <time>2021-12-26T08:39:14.000Z</time>
      </trkpt>
      <trkpt lat="48.06156" lon="-1.52058">
        <ele>49.54165</ele>
        <time>2021-12-26T08:39:15.000Z</time>
      </trkpt>
      <trkpt lat="48.0616" lon="-1.5206">
        <ele>49.4514</ele>
        <time>2021-12-26T08:39:16.000Z</time>
      </trkpt>
      <trkpt lat="48.06163" lon="-1.52063">
        <ele>49.31104</ele>
        <time>2021-12-26T08:39:17.000Z</time>
      </trkpt>
      <trkpt lat="48.06166" lon="-1.52067">
        <ele>49.26561</ele>
        <time>2021-12-26T08:39:18.000Z</time>
      </trkpt>
      <trkpt lat="48.06169" lon="-1.52071">
        <ele>49.32707</ele>
        <time>2021-12-26T08:39:19.000Z</time>
      </trkpt>
      <trkpt lat="48.06172" lon="-1.52075">
        <ele>49.51179</ele>
        <time>2021-12-26T08:39:20.000Z</time>
      </trkpt>
      <trkpt lat="48.06176" lon="-1.52077">
        <ele>49.65018</ele>
        <time>2021-12-26T08:39:21.000Z</time>
      </trkpt>
      <trkpt lat="48.0618" lon="-1.52077">
        <ele>49.69131</ele>
        <time>2021-12-26T08:39:22.000Z</time>
      </trkpt>
      <trkpt lat="48.06184" lon="-1.52077">
        <ele>49.66697</ele>
        <time>2021-12-26T08:39:23.000Z</time>
      </trkpt>
      <trkpt lat="48.06187" lon="-1.52077">
        <ele>49.6449</ele>
        <time>2021-12-26T08:39:24.000Z</time>
      </trkpt>
      <trkpt lat="48.06191" lon="-1.52077">
        <ele>49.58937</ele>
        <time>2021-12-26T08:39:25.000Z</time>
      </trkpt>
      <trkpt lat="48.06194" lon="-1.52077">
        <ele>49.567</ele>
        <time>2021-12-26T08:39:26.000Z</time>
      </trkpt>
      <trkpt lat="48.06197" lon="-1.52077">
        <ele>49.57996</ele>
        <time>2021-12-26T08:39:27.000Z</time>
      </trkpt>
      <trkpt lat="48.06201" lon="-1.52078">
        <ele>49.7031</ele>
        <time>2021-12-26T08:39:28.000Z</time>
      </trkpt>
      <trkpt lat="48.06204" lon="-1.52079">
        <ele>49.78106</ele>
        <time>2021-12-26T08:39:29.000Z</time>
      </trkpt>
      <trkpt lat="48.06207" lon="-1.52077">
        <ele>49.6542</ele>
        <time>2021-12-26T08:39:30.000Z</time>
      </trkpt>
      <trkpt lat="48.0621" lon="-1.52075">
        <ele>49.56134</ele>
        <time>2021-12-26T08:39:31.000Z</time>
      </trkpt>
      <trkpt lat="48.06213" lon="-1.52071">
        <ele>49.51294</ele>
        <time>2021-12-26T08:39:32.000Z</time>
      </trkpt>
      <trkpt lat="48.06216" lon="-1.52069">
        <ele>49.54096</ele>
        <time>2021-12-26T08:39:33.000Z</time>
      </trkpt>
      <trkpt lat="48.06219" lon="-1.52067">
        <ele>49.61962</ele>
        <time>2021-12-26T08:39:34.000Z</time>
      </trkpt>
      <trkpt lat="48.06223" lon="-1.52065">
        <ele>49.85153</ele>
        <time>2021-12-26T08:39:35.000Z</time>
      </trkpt>
      <trkpt lat="48.06226" lon="-1.52063">
        <ele>50.20086</ele>
        <time>2021-12-26T08:39:36.000Z</time>
      </trkpt>
      <trkpt lat="48.06228" lon="-1.52059">
        <ele>50.40667</ele>
        <time>2021-12-26T08:39:37.000Z</time>
      </trkpt>
      <trkpt lat="48.06229" lon="-1.52056">
        <ele>50.60339</ele>
        <time>2021-12-26T08:39:38.000Z</time>
      </trkpt>
      <trkpt lat="48.06229" lon="-1.52052">
        <ele>50.68173</ele>
        <time>2021-12-26T08:39:39.000Z</time>
      </trkpt>
      <trkpt lat="48.06227" lon="-1.52049">
        <ele>50.57725</ele>
        <time>2021-12-26T08:39:40.000Z</time>
      </trkpt>
      <trkpt lat="48.06224" lon="-1.52047">
        <ele>50.4689</ele>
        <time>2021-12-26T08:39:41.000Z</time>
      </trkpt>
      <trkpt lat="48.06222" lon="-1.52046">
        <ele>50.46451</ele>
        <time>2021-12-26T08:39:42.000Z</time>
      </trkpt>
      <trkpt lat="48.06219" lon="-1.52045">
        <ele>50.51445</ele>
        <time>2021-12-26T08:39:43.000Z</time>
      </trkpt>
      <trkpt lat="48.06217" lon="-1.52043">
        <ele>50.68236</ele>
        <time>2021-12-26T08:39:44.000Z</time>
      </trkpt>
      <trkpt lat="48.06219" lon="-1.52041">
        <ele>50.86565</ele>
        <time>2021-12-26T08:39:47.000Z</time>
      </trkpt>
      <trkpt lat="48.06223" lon="-1.52041">
        <ele>50.92012</ele>
        <time>2021-12-26T08:39:48.000Z</time>
      </trkpt>
      <trkpt lat="48.06226" lon="-1.52041">
        <ele>51.12447</ele>
        <time>2021-12-26T08:39:49.000Z</time>
      </trkpt>
      <trkpt lat="48.0623" lon="-1.5204">
        <ele>51.41391</ele>
        <time>2021-12-26T08:39:50.000Z</time>
      </trkpt>
      <trkpt lat="48.06233" lon="-1.5204">
        <ele>51.75482</ele>
        <time>2021-12-26T08:39:51.000Z</time>
      </trkpt>
      <trkpt lat="48.06236" lon="-1.5204">
        <ele>52.01009</ele>
        <time>2021-12-26T08:39:52.000Z</time>
      </trkpt>
      <trkpt lat="48.06239" lon="-1.5204">
        <ele>52.25923</ele>
        <time>2021-12-26T08:39:53.000Z</time>
      </trkpt>
      <trkpt lat="48.06241" lon="-1.5204">
        <ele>52.40275</ele>
        <time>2021-12-26T08:39:54.000Z</time>
      </trkpt>
      <trkpt lat="48.06243" lon="-1.5204">
        <ele>52.43312</ele>
        <time>2021-12-26T08:39:55.000Z</time>
      </trkpt>
      <trkpt lat="48.06246" lon="-1.52038">
        <ele>52.39771</ele>
        <time>2021-12-26T08:39:56.000Z</time>
      </trkpt>
      <trkpt lat="48.06248" lon="-1.52037">
        <ele>52.21933</ele>
        <time>2021-12-26T08:39:57.000Z</time>
      </trkpt>
      <trkpt lat="48.0625" lon="-1.52035">
        <ele>52.01736</ele>
        <time>2021-12-26T08:39:58.000Z</time>
      </trkpt>
      <trkpt lat="48.06253" lon="-1.52031">
        <ele>51.76989</ele>
        <time>2021-12-26T08:40:00.000Z</time>
      </trkpt>
      <trkpt lat="48.06256" lon="-1.52029">
        <ele>51.45199</ele>
        <time>2021-12-26T08:40:01.000Z</time>
      </trkpt>
      <trkpt lat="48.06259" lon="-1.52024">
        <ele>51.42002</ele>
        <time>2021-12-26T08:40:02.000Z</time>
      </trkpt>
      <trkpt lat="48.06262" lon="-1.52019">
        <ele>51.67655</ele>
        <time>2021-12-26T08:40:03.000Z</time>
      </trkpt>
      <trkpt lat="48.06266" lon="-1.52014">
        <ele>51.92632</ele>
        <time>2021-12-26T08:40:04.000Z</time>
      </trkpt>
      <trkpt lat="48.0627" lon="-1.5201">
        <ele>52.00536</ele>
        <time>2021-12-26T08:40:05.000Z</time>
      </trkpt>
      <trkpt lat="48.06274" lon="-1.52006">
        <ele>51.74688</ele>
        <time>2021-12-26T08:40:06.000Z</time>
      </trkpt>
      <trkpt lat="48.06278" lon="-1.52003">
        <ele>51.29798</ele>
        <time>2021-12-26T08:40:07.000Z</time>
      </trkpt>
      <trkpt lat="48.06282" lon="-1.52">
        <ele>50.78291</ele>
        <time>2021-12-26T08:40:08.000Z</time>
      </trkpt>
      <trkpt lat="48.06286" lon="-1.51997">
        <ele>50.24623</ele>
        <time>2021-12-26T08:40:09.000Z</time>
      </trkpt>
      <trkpt lat="48.0629" lon="-1.51994">
        <ele>49.75365</ele>
        <time>2021-12-26T08:40:10.000Z</time>
      </trkpt>
      <trkpt lat="48.06295" lon="-1.51992">
        <ele>49.53739</ele>
        <time>2021-12-26T08:40:11.000Z</time>
      </trkpt>
      <trkpt lat="48.06301" lon="-1.5199">
        <ele>49.50085</ele>
        <time>2021-12-26T08:40:12.000Z</time>
      </trkpt>
      <trkpt lat="48.06306" lon="-1.51989">
        <ele>49.59886</ele>
        <time>2021-12-26T08:40:13.000Z</time>
      </trkpt>
      <trkpt lat="48.06312" lon="-1.51988">
        <ele>49.75916</ele>
        <time>2021-12-26T08:40:14.000Z</time>
      </trkpt>
      <trkpt lat="48.06316" lon="-1.51987">
        <ele>50.11642</ele>
        <time>2021-12-26T08:40:15.000Z</time>
      </trkpt>
      <trkpt lat="48.06321" lon="-1.51987">
        <ele>50.49514</ele>
        <time>2021-12-26T08:40:16.000Z</time>
      </trkpt>
      <trkpt lat="48.06326" lon="-1.51988">
        <ele>50.82447</ele>
        <time>2021-12-26T08:40:17.000Z</time>
      </trkpt>
      <trkpt lat="48.06331" lon="-1.51988">
        <ele>51.17789</ele>
        <time>2021-12-26T08:40:18.000Z</time>
      </trkpt>
      <trkpt lat="48.06335" lon="-1.5199">
        <ele>51.37981</ele>
        <time>2021-12-26T08:40:19.000Z</time>
      </trkpt>
      <trkpt lat="48.0634" lon="-1.5199">
        <ele>51.52434</ele>
        <time>2021-12-26T08:40:20.000Z</time>
      </trkpt>
      <trkpt lat="48.06345" lon="-1.51991">
        <ele>51.54782</ele>
        <time>2021-12-26T08:40:21.000Z</time>
      </trkpt>
      <trkpt lat="48.0635" lon="-1.51991">
        <ele>51.50241</ele>
        <time>2021-12-26T08:40:22.000Z</time>
      </trkpt>
      <trkpt lat="48.06354" lon="-1.51991">
        <ele>51.51791</ele>
        <time>2021-12-26T08:40:23.000Z</time>
      </trkpt>
      <trkpt lat="48.06359" lon="-1.51991">
        <ele>51.57261</ele>
        <time>2021-12-26T08:40:24.000Z</time>
      </trkpt>
      <trkpt lat="48.06364" lon="-1.51992">
        <ele>51.74193</ele>
        <time>2021-12-26T08:40:25.000Z</time>
      </trkpt>
      <trkpt lat="48.06368" lon="-1.51993">
        <ele>51.90461</ele>
        <time>2021-12-26T08:40:26.000Z</time>
      </trkpt>
      <trkpt lat="48.06373" lon="-1.51994">
        <ele>52.08151</ele>
        <time>2021-12-26T08:40:27.000Z</time>
      </trkpt>
      <trkpt lat="48.06378" lon="-1.51996">
        <ele>52.11909</ele>
        <time>2021-12-26T08:40:28.000Z</time>
      </trkpt>
      <trkpt lat="48.06382" lon="-1.51999">
        <ele>52.11311</ele>
        <time>2021-12-26T08:40:29.000Z</time>
      </trkpt>
      <trkpt lat="48.06386" lon="-1.52001">
        <ele>52.08266</ele>
        <time>2021-12-26T08:40:30.000Z</time>
      </trkpt>
      <trkpt lat="48.06391" lon="-1.52004">
        <ele>52.04242</ele>
        <time>2021-12-26T08:40:31.000Z</time>
      </trkpt>
      <trkpt lat="48.06395" lon="-1.52007">
        <ele>52.07068</ele>
        <time>2021-12-26T08:40:32.000Z</time>
      </trkpt>
      <trkpt lat="48.064" lon="-1.52009">
        <ele>52.03669</ele>
        <time>2021-12-26T08:40:33.000Z</time>
      </trkpt>
      <trkpt lat="48.06405" lon="-1.52012">
        <ele>52.05948</ele>
        <time>2021-12-26T08:40:34.000Z</time>
      </trkpt>
      <trkpt lat="48.0641" lon="-1.52014">
        <ele>52.13135</ele>
        <time>2021-12-26T08:40:35.000Z</time>
      </trkpt>
      <trkpt lat="48.06415" lon="-1.52016">
        <ele>52.2551</ele>
        <time>2021-12-26T08:40:36.000Z</time>
      </trkpt>
      <trkpt lat="48.06419" lon="-1.52019">
        <ele>52.30357</ele>
        <time>2021-12-26T08:40:37.000Z</time>
      </trkpt>
      <trkpt lat="48.06424" lon="-1.52022">
        <ele>52.36485</ele>
        <time>2021-12-26T08:40:38.000Z</time>
      </trkpt>
      <trkpt lat="48.06429" lon="-1.52024">
        <ele>52.50929</ele>
        <time>2021-12-26T08:40:39.000Z</time>
      </trkpt>
      <trkpt lat="48.06429" lon="-1.52024">
        <ele>52.50929</ele>
        <time>2021-12-26T08:40:39.000Z</time>
      </trkpt>
      <trkpt lat="48.06432" lon="-1.52026">
        <ele>52.74397</ele>
        <time>2021-12-26T08:40:40.000Z</time>
      </trkpt>
      <trkpt lat="48.06435" lon="-1.52028">
        <ele>52.8541</ele>
        <time>2021-12-26T08:40:41.000Z</time>
      </trkpt>
      <trkpt lat="48.06438" lon="-1.5203">
        <ele>52.94052</ele>
        <time>2021-12-26T08:40:42.000Z</time>
      </trkpt>
      <trkpt lat="48.06441" lon="-1.52032">
        <ele>53.1074</ele>
        <time>2021-12-26T08:40:43.000Z</time>
      </trkpt>
      <trkpt lat="48.06444" lon="-1.52035">
        <ele>53.05027</ele>
        <time>2021-12-26T08:40:44.000Z</time>
      </trkpt>
      <trkpt lat="48.06447" lon="-1.52039">
        <ele>52.81202</ele>
        <time>2021-12-26T08:40:45.000Z</time>
      </trkpt>
      <trkpt lat="48.06449" lon="-1.52045">
        <ele>52.36711</ele>
        <time>2021-12-26T08:40:46.000Z</time>
      </trkpt>
      <trkpt lat="48.0645" lon="-1.52052">
        <ele>51.76308</ele>
        <time>2021-12-26T08:40:47.000Z</time>
      </trkpt>
      <trkpt lat="48.06449" lon="-1.52059">
        <ele>51.1793</ele>
        <time>2021-12-26T08:40:48.000Z</time>
      </trkpt>
      <trkpt lat="48.06447" lon="-1.52064">
        <ele>50.70165</ele>
        <time>2021-12-26T08:40:49.000Z</time>
      </trkpt>
      <trkpt lat="48.06444" lon="-1.52069">
        <ele>50.45479</ele>
        <time>2021-12-26T08:40:50.000Z</time>
      </trkpt>
      <trkpt lat="48.06442" lon="-1.52073">
        <ele>50.40004</ele>
        <time>2021-12-26T08:40:51.000Z</time>
      </trkpt>
      <trkpt lat="48.06443" lon="-1.52077">
        <ele>50.47263</ele>
        <time>2021-12-26T08:40:52.000Z</time>
      </trkpt>
      <trkpt lat="48.06445" lon="-1.52083">
        <ele>50.56543</ele>
        <time>2021-12-26T08:40:53.000Z</time>
      </trkpt>
      <trkpt lat="48.06447" lon="-1.5209">
        <ele>50.66316</ele>
        <time>2021-12-26T08:40:54.000Z</time>
      </trkpt>
      <trkpt lat="48.06449" lon="-1.52096">
        <ele>50.75907</ele>
        <time>2021-12-26T08:40:55.000Z</time>
      </trkpt>
      <trkpt lat="48.0645" lon="-1.52101">
        <ele>50.89704</ele>
        <time>2021-12-26T08:40:56.000Z</time>
      </trkpt>
      <trkpt lat="48.0645" lon="-1.52108">
        <ele>51.11243</ele>
        <time>2021-12-26T08:40:57.000Z</time>
      </trkpt>
      <trkpt lat="48.0645" lon="-1.52116">
        <ele>51.4055</ele>
        <time>2021-12-26T08:40:58.000Z</time>
      </trkpt>
      <trkpt lat="48.06452" lon="-1.52123">
        <ele>51.61882</ele>
        <time>2021-12-26T08:40:59.000Z</time>
      </trkpt>
      <trkpt lat="48.06452" lon="-1.52129">
        <ele>51.74475</ele>
        <time>2021-12-26T08:41:00.000Z</time>
      </trkpt>
      <trkpt lat="48.06453" lon="-1.52133">
        <ele>51.80947</ele>
        <time>2021-12-26T08:41:01.000Z</time>
      </trkpt>
      <trkpt lat="48.06453" lon="-1.5214">
        <ele>51.90347</ele>
        <time>2021-12-26T08:41:02.000Z</time>
      </trkpt>
      <trkpt lat="48.06453" lon="-1.52146">
        <ele>51.9613</ele>
        <time>2021-12-26T08:41:03.000Z</time>
      </trkpt>
      <trkpt lat="48.06454" lon="-1.52153">
        <ele>52.00212</ele>
        <time>2021-12-26T08:41:04.000Z</time>
      </trkpt>
      <trkpt lat="48.06454" lon="-1.52159">
        <ele>52.04871</ele>
        <time>2021-12-26T08:41:05.000Z</time>
      </trkpt>
      <trkpt lat="48.06454" lon="-1.52165">
        <ele>52.07291</ele>
        <time>2021-12-26T08:41:06.000Z</time>
      </trkpt>
      <trkpt lat="48.06453" lon="-1.52173">
        <ele>52.10497</ele>
        <time>2021-12-26T08:41:07.000Z</time>
      </trkpt>
      <trkpt lat="48.06453" lon="-1.5218">
        <ele>52.13646</ele>
        <time>2021-12-26T08:41:08.000Z</time>
      </trkpt>
      <trkpt lat="48.06453" lon="-1.52187">
        <ele>52.13579</ele>
        <time>2021-12-26T08:41:09.000Z</time>
      </trkpt>
      <trkpt lat="48.06453" lon="-1.52195">
        <ele>52.10775</ele>
        <time>2021-12-26T08:41:10.000Z</time>
      </trkpt>
      <trkpt lat="48.06453" lon="-1.52202">
        <ele>51.97538</ele>
        <time>2021-12-26T08:41:11.000Z</time>
      </trkpt>
      <trkpt lat="48.06453" lon="-1.5221">
        <ele>51.78577</ele>
        <time>2021-12-26T08:41:12.000Z</time>
      </trkpt>
      <trkpt lat="48.06453" lon="-1.52217">
        <ele>51.60287</ele>
        <time>2021-12-26T08:41:13.000Z</time>
      </trkpt>
      <trkpt lat="48.06454" lon="-1.52225">
        <ele>51.47699</ele>
        <time>2021-12-26T08:41:14.000Z</time>
      </trkpt>
      <trkpt lat="48.06455" lon="-1.52231">
        <ele>51.39463</ele>
        <time>2021-12-26T08:41:15.000Z</time>
      </trkpt>
      <trkpt lat="48.06456" lon="-1.52235">
        <ele>51.33873</ele>
        <time>2021-12-26T08:41:16.000Z</time>
      </trkpt>
      <trkpt lat="48.0646" lon="-1.52238">
        <ele>51.09769</ele>
        <time>2021-12-26T08:41:17.000Z</time>
      </trkpt>
      <trkpt lat="48.06463" lon="-1.5224">
        <ele>50.98272</ele>
        <time>2021-12-26T08:41:18.000Z</time>
      </trkpt>
      <trkpt lat="48.06466" lon="-1.52244">
        <ele>50.92004</ele>
        <time>2021-12-26T08:41:19.000Z</time>
      </trkpt>
      <trkpt lat="48.06468" lon="-1.52249">
        <ele>50.81987</ele>
        <time>2021-12-26T08:41:20.000Z</time>
      </trkpt>
      <trkpt lat="48.06469" lon="-1.52255">
        <ele>50.67607</ele>
        <time>2021-12-26T08:41:21.000Z</time>
      </trkpt>
      <trkpt lat="48.0647" lon="-1.52262">
        <ele>50.62124</ele>
        <time>2021-12-26T08:41:22.000Z</time>
      </trkpt>
      <trkpt lat="48.0647" lon="-1.5227">
        <ele>50.62613</ele>
        <time>2021-12-26T08:41:23.000Z</time>
      </trkpt>
      <trkpt lat="48.06471" lon="-1.52278">
        <ele>50.68986</ele>
        <time>2021-12-26T08:41:24.000Z</time>
      </trkpt>
      <trkpt lat="48.06471" lon="-1.52284">
        <ele>50.75574</ele>
        <time>2021-12-26T08:41:25.000Z</time>
      </trkpt>
      <trkpt lat="48.06472" lon="-1.52291">
        <ele>50.84322</ele>
        <time>2021-12-26T08:41:26.000Z</time>
      </trkpt>
      <trkpt lat="48.06472" lon="-1.52297">
        <ele>50.95273</ele>
        <time>2021-12-26T08:41:27.000Z</time>
      </trkpt>
      <trkpt lat="48.06473" lon="-1.52304">
        <ele>51.03909</ele>
        <time>2021-12-26T08:41:28.000Z</time>
      </trkpt>
      <trkpt lat="48.06475" lon="-1.52309">
        <ele>50.9675</ele>
        <time>2021-12-26T08:41:29.000Z</time>
      </trkpt>
      <trkpt lat="48.06478" lon="-1.52313">
        <ele>50.77722</ele>
        <time>2021-12-26T08:41:30.000Z</time>
      </trkpt>
      <trkpt lat="48.0648" lon="-1.52317">
        <ele>50.64959</ele>
        <time>2021-12-26T08:41:31.000Z</time>
      </trkpt>
      <trkpt lat="48.06483" lon="-1.52321">
        <ele>50.65667</ele>
        <time>2021-12-26T08:41:32.000Z</time>
      </trkpt>
      <trkpt lat="48.06486" lon="-1.52327">
        <ele>50.8118</ele>
        <time>2021-12-26T08:41:33.000Z</time>
      </trkpt>
      <trkpt lat="48.06488" lon="-1.52335">
        <ele>51.03333</ele>
        <time>2021-12-26T08:41:34.000Z</time>
      </trkpt>
      <trkpt lat="48.06489" lon="-1.52343">
        <ele>51.21366</ele>
        <time>2021-12-26T08:41:35.000Z</time>
      </trkpt>
      <trkpt lat="48.06491" lon="-1.5235">
        <ele>51.35307</ele>
        <time>2021-12-26T08:41:36.000Z</time>
      </trkpt>
      <trkpt lat="48.06492" lon="-1.52357">
        <ele>51.41433</ele>
        <time>2021-12-26T08:41:37.000Z</time>
      </trkpt>
      <trkpt lat="48.06493" lon="-1.52365">
        <ele>51.43204</ele>
        <time>2021-12-26T08:41:38.000Z</time>
      </trkpt>
      <trkpt lat="48.06494" lon="-1.52372">
        <ele>51.43404</ele>
        <time>2021-12-26T08:41:39.000Z</time>
      </trkpt>
      <trkpt lat="48.06495" lon="-1.5238">
        <ele>51.38878</ele>
        <time>2021-12-26T08:41:40.000Z</time>
      </trkpt>
      <trkpt lat="48.06496" lon="-1.52386">
        <ele>51.29491</ele>
        <time>2021-12-26T08:41:41.000Z</time>
      </trkpt>
      <trkpt lat="48.06498" lon="-1.52393">
        <ele>51.14344</ele>
        <time>2021-12-26T08:41:42.000Z</time>
      </trkpt>
      <trkpt lat="48.065" lon="-1.52399">
        <ele>50.97491</ele>
        <time>2021-12-26T08:41:43.000Z</time>
      </trkpt>
      <trkpt lat="48.06502" lon="-1.52405">
        <ele>50.94971</ele>
        <time>2021-12-26T08:41:44.000Z</time>
      </trkpt>
      <trkpt lat="48.06504" lon="-1.52411">
        <ele>51.03974</ele>
        <time>2021-12-26T08:41:45.000Z</time>
      </trkpt>
      <trkpt lat="48.06505" lon="-1.52417">
        <ele>51.18401</ele>
        <time>2021-12-26T08:41:46.000Z</time>
      </trkpt>
      <trkpt lat="48.06507" lon="-1.52423">
        <ele>51.33714</ele>
        <time>2021-12-26T08:41:47.000Z</time>
      </trkpt>
      <trkpt lat="48.06508" lon="-1.52429">
        <ele>51.46589</ele>
        <time>2021-12-26T08:41:48.000Z</time>
      </trkpt>
      <trkpt lat="48.06508" lon="-1.52436">
        <ele>51.61827</ele>
        <time>2021-12-26T08:41:49.000Z</time>
      </trkpt>
      <trkpt lat="48.06507" lon="-1.52442">
        <ele>51.81857</ele>
        <time>2021-12-26T08:41:50.000Z</time>
      </trkpt>
      <trkpt lat="48.06509" lon="-1.52447">
        <ele>51.86554</ele>
        <time>2021-12-26T08:41:51.000Z</time>
      </trkpt>
      <trkpt lat="48.06512" lon="-1.52452">
        <ele>51.85047</ele>
        <time>2021-12-26T08:41:52.000Z</time>
      </trkpt>
      <trkpt lat="48.06514" lon="-1.52456">
        <ele>51.81628</ele>
        <time>2021-12-26T08:41:53.000Z</time>
      </trkpt>
      <trkpt lat="48.06517" lon="-1.52461">
        <ele>51.7895</ele>
        <time>2021-12-26T08:41:54.000Z</time>
      </trkpt>
      <trkpt lat="48.06519" lon="-1.52465">
        <ele>51.77232</ele>
        <time>2021-12-26T08:41:55.000Z</time>
      </trkpt>
      <trkpt lat="48.06523" lon="-1.5247">
        <ele>51.80776</ele>
        <time>2021-12-26T08:41:56.000Z</time>
      </trkpt>
      <trkpt lat="48.06526" lon="-1.52474">
        <ele>51.92665</ele>
        <time>2021-12-26T08:41:57.000Z</time>
      </trkpt>
      <trkpt lat="48.06529" lon="-1.52478">
        <ele>52.09117</ele>
        <time>2021-12-26T08:41:58.000Z</time>
      </trkpt>
      <trkpt lat="48.06531" lon="-1.52485">
        <ele>52.25663</ele>
        <time>2021-12-26T08:41:59.000Z</time>
      </trkpt>
      <trkpt lat="48.06532" lon="-1.52491">
        <ele>52.3701</ele>
        <time>2021-12-26T08:42:00.000Z</time>
      </trkpt>
      <trkpt lat="48.06533" lon="-1.52498">
        <ele>52.43924</ele>
        <time>2021-12-26T08:42:01.000Z</time>
      </trkpt>
      <trkpt lat="48.06534" lon="-1.52505">
        <ele>52.48723</ele>
        <time>2021-12-26T08:42:02.000Z</time>
      </trkpt>
      <trkpt lat="48.06534" lon="-1.52511">
        <ele>52.56035</ele>
        <time>2021-12-26T08:42:03.000Z</time>
      </trkpt>
      <trkpt lat="48.06535" lon="-1.52517">
        <ele>52.70914</ele>
        <time>2021-12-26T08:42:04.000Z</time>
      </trkpt>
      <trkpt lat="48.06535" lon="-1.52522">
        <ele>52.89298</ele>
        <time>2021-12-26T08:42:05.000Z</time>
      </trkpt>
      <trkpt lat="48.06536" lon="-1.5253">
        <ele>53.08548</ele>
        <time>2021-12-26T08:42:06.000Z</time>
      </trkpt>
      <trkpt lat="48.06538" lon="-1.52536">
        <ele>53.19107</ele>
        <time>2021-12-26T08:42:07.000Z</time>
      </trkpt>
      <trkpt lat="48.06539" lon="-1.52543">
        <ele>53.19233</ele>
        <time>2021-12-26T08:42:08.000Z</time>
      </trkpt>
      <trkpt lat="48.06541" lon="-1.5255">
        <ele>53.09404</ele>
        <time>2021-12-26T08:42:09.000Z</time>
      </trkpt>
      <trkpt lat="48.06542" lon="-1.52557">
        <ele>52.9148</ele>
        <time>2021-12-26T08:42:10.000Z</time>
      </trkpt>
      <trkpt lat="48.06543" lon="-1.52563">
        <ele>52.74491</ele>
        <time>2021-12-26T08:42:11.000Z</time>
      </trkpt>
      <trkpt lat="48.06544" lon="-1.5257">
        <ele>52.54422</ele>
        <time>2021-12-26T08:42:12.000Z</time>
      </trkpt>
      <trkpt lat="48.06544" lon="-1.52578">
        <ele>52.3285</ele>
        <time>2021-12-26T08:42:13.000Z</time>
      </trkpt>
      <trkpt lat="48.06546" lon="-1.52587">
        <ele>52.01169</ele>
        <time>2021-12-26T08:42:14.000Z</time>
      </trkpt>
      <trkpt lat="48.06548" lon="-1.52597">
        <ele>51.78962</ele>
        <time>2021-12-26T08:42:15.000Z</time>
      </trkpt>
      <trkpt lat="48.0655" lon="-1.52606">
        <ele>51.7466</ele>
        <time>2021-12-26T08:42:16.000Z</time>
      </trkpt>
      <trkpt lat="48.06551" lon="-1.52615">
        <ele>51.82638</ele>
        <time>2021-12-26T08:42:17.000Z</time>
      </trkpt>
      <trkpt lat="48.06551" lon="-1.52623">
        <ele>51.92225</ele>
        <time>2021-12-26T08:42:18.000Z</time>
      </trkpt>
      <trkpt lat="48.06551" lon="-1.52631">
        <ele>52.04034</ele>
        <time>2021-12-26T08:42:19.000Z</time>
      </trkpt>
      <trkpt lat="48.0655" lon="-1.52639">
        <ele>52.17711</ele>
        <time>2021-12-26T08:42:20.000Z</time>
      </trkpt>
      <trkpt lat="48.06552" lon="-1.52646">
        <ele>52.2798</ele>
        <time>2021-12-26T08:42:21.000Z</time>
      </trkpt>
      <trkpt lat="48.06554" lon="-1.52652">
        <ele>52.34649</ele>
        <time>2021-12-26T08:42:22.000Z</time>
      </trkpt>
      <trkpt lat="48.06557" lon="-1.52659">
        <ele>52.37465</ele>
        <time>2021-12-26T08:42:23.000Z</time>
      </trkpt>
      <trkpt lat="48.06559" lon="-1.52665">
        <ele>52.40184</ele>
        <time>2021-12-26T08:42:24.000Z</time>
      </trkpt>
      <trkpt lat="48.06561" lon="-1.5267">
        <ele>52.36373</ele>
        <time>2021-12-26T08:42:25.000Z</time>
      </trkpt>
      <trkpt lat="48.06564" lon="-1.52675">
        <ele>52.31131</ele>
        <time>2021-12-26T08:42:26.000Z</time>
      </trkpt>
      <trkpt lat="48.06567" lon="-1.5268">
        <ele>52.27198</ele>
        <time>2021-12-26T08:42:27.000Z</time>
      </trkpt>
      <trkpt lat="48.06569" lon="-1.52687">
        <ele>52.28437</ele>
        <time>2021-12-26T08:42:28.000Z</time>
      </trkpt>
      <trkpt lat="48.0657" lon="-1.52693">
        <ele>52.33162</ele>
        <time>2021-12-26T08:42:29.000Z</time>
      </trkpt>
      <trkpt lat="48.06572" lon="-1.52699">
        <ele>52.37549</ele>
        <time>2021-12-26T08:42:30.000Z</time>
      </trkpt>
      <trkpt lat="48.06573" lon="-1.52705">
        <ele>52.40421</ele>
        <time>2021-12-26T08:42:31.000Z</time>
      </trkpt>
      <trkpt lat="48.06574" lon="-1.52712">
        <ele>52.42963</ele>
        <time>2021-12-26T08:42:32.000Z</time>
      </trkpt>
      <trkpt lat="48.06575" lon="-1.52718">
        <ele>52.45217</ele>
        <time>2021-12-26T08:42:33.000Z</time>
      </trkpt>
      <trkpt lat="48.06576" lon="-1.52724">
        <ele>52.48102</ele>
        <time>2021-12-26T08:42:34.000Z</time>
      </trkpt>
      <trkpt lat="48.06577" lon="-1.52731">
        <ele>52.50881</ele>
        <time>2021-12-26T08:42:35.000Z</time>
      </trkpt>
      <trkpt lat="48.06577" lon="-1.52737">
        <ele>52.5779</ele>
        <time>2021-12-26T08:42:36.000Z</time>
      </trkpt>
      <trkpt lat="48.06578" lon="-1.52744">
        <ele>52.64633</ele>
        <time>2021-12-26T08:42:37.000Z</time>
      </trkpt>
      <trkpt lat="48.06578" lon="-1.5275">
        <ele>52.72337</ele>
        <time>2021-12-26T08:42:38.000Z</time>
      </trkpt>
      <trkpt lat="48.06579" lon="-1.52757">
        <ele>52.80263</ele>
        <time>2021-12-26T08:42:39.000Z</time>
      </trkpt>
      <trkpt lat="48.06579" lon="-1.52763">
        <ele>52.88866</ele>
        <time>2021-12-26T08:42:40.000Z</time>
      </trkpt>
      <trkpt lat="48.0658" lon="-1.52769">
        <ele>52.98017</ele>
        <time>2021-12-26T08:42:41.000Z</time>
      </trkpt>
      <trkpt lat="48.06581" lon="-1.52776">
        <ele>53.08281</ele>
        <time>2021-12-26T08:42:42.000Z</time>
      </trkpt>
      <trkpt lat="48.06582" lon="-1.52782">
        <ele>53.18718</ele>
        <time>2021-12-26T08:42:43.000Z</time>
      </trkpt>
      <trkpt lat="48.06583" lon="-1.52788">
        <ele>53.29508</ele>
        <time>2021-12-26T08:42:44.000Z</time>
      </trkpt>
      <trkpt lat="48.06585" lon="-1.52793">
        <ele>53.39627</ele>
        <time>2021-12-26T08:42:45.000Z</time>
      </trkpt>
      <trkpt lat="48.06587" lon="-1.52799">
        <ele>53.49219</ele>
        <time>2021-12-26T08:42:46.000Z</time>
      </trkpt>
      <trkpt lat="48.06589" lon="-1.52804">
        <ele>53.58143</ele>
        <time>2021-12-26T08:42:47.000Z</time>
      </trkpt>
      <trkpt lat="48.06591" lon="-1.5281">
        <ele>53.67146</ele>
        <time>2021-12-26T08:42:48.000Z</time>
      </trkpt>
      <trkpt lat="48.06593" lon="-1.52815">
        <ele>53.75429</ele>
        <time>2021-12-26T08:42:49.000Z</time>
      </trkpt>
      <trkpt lat="48.06596" lon="-1.5282">
        <ele>53.83524</ele>
        <time>2021-12-26T08:42:50.000Z</time>
      </trkpt>
      <trkpt lat="48.06599" lon="-1.52825">
        <ele>53.92048</ele>
        <time>2021-12-26T08:42:51.000Z</time>
      </trkpt>
      <trkpt lat="48.06601" lon="-1.5283">
        <ele>53.99426</ele>
        <time>2021-12-26T08:42:52.000Z</time>
      </trkpt>
      <trkpt lat="48.06604" lon="-1.52835">
        <ele>54.06624</ele>
        <time>2021-12-26T08:42:53.000Z</time>
      </trkpt>
      <trkpt lat="48.06606" lon="-1.5284">
        <ele>54.14702</ele>
        <time>2021-12-26T08:42:54.000Z</time>
      </trkpt>
      <trkpt lat="48.06608" lon="-1.52846">
        <ele>54.21026</ele>
        <time>2021-12-26T08:42:55.000Z</time>
      </trkpt>
      <trkpt lat="48.06608" lon="-1.52851">
        <ele>54.28718</ele>
        <time>2021-12-26T08:42:56.000Z</time>
      </trkpt>
      <trkpt lat="48.06606" lon="-1.52855">
        <ele>54.36976</ele>
        <time>2021-12-26T08:42:57.000Z</time>
      </trkpt>
      <trkpt lat="48.06603" lon="-1.52856">
        <ele>54.46682</ele>
        <time>2021-12-26T08:42:58.000Z</time>
      </trkpt>
      <trkpt lat="48.06603" lon="-1.52856">
        <ele>54.46682</ele>
        <time>2021-12-26T08:42:58.000Z</time>
      </trkpt>
      <trkpt lat="48.06599" lon="-1.52856">
        <ele>54.57563</ele>
        <time>2021-12-26T08:42:59.000Z</time>
      </trkpt>
      <trkpt lat="48.06595" lon="-1.52855">
        <ele>54.69071</ele>
        <time>2021-12-26T08:43:00.000Z</time>
      </trkpt>
      <trkpt lat="48.06591" lon="-1.52854">
        <ele>54.80655</ele>
        <time>2021-12-26T08:43:01.000Z</time>
      </trkpt>
      <trkpt lat="48.06587" lon="-1.52853">
        <ele>54.92056</ele>
        <time>2021-12-26T08:43:02.000Z</time>
      </trkpt>
      <trkpt lat="48.06583" lon="-1.52852">
        <ele>55.03488</ele>
        <time>2021-12-26T08:43:03.000Z</time>
      </trkpt>
      <trkpt lat="48.06579" lon="-1.52851">
        <ele>55.15194</ele>
        <time>2021-12-26T08:43:04.000Z</time>
      </trkpt>
      <trkpt lat="48.06575" lon="-1.52849">
        <ele>55.2689</ele>
        <time>2021-12-26T08:43:05.000Z</time>
      </trkpt>
      <trkpt lat="48.06572" lon="-1.52848">
        <ele>55.3857</ele>
        <time>2021-12-26T08:43:06.000Z</time>
      </trkpt>
      <trkpt lat="48.06568" lon="-1.52846">
        <ele>55.49175</ele>
        <time>2021-12-26T08:43:07.000Z</time>
      </trkpt>
      <trkpt lat="48.06564" lon="-1.52843">
        <ele>55.59366</ele>
        <time>2021-12-26T08:43:08.000Z</time>
      </trkpt>
      <trkpt lat="48.06559" lon="-1.52841">
        <ele>55.70731</ele>
        <time>2021-12-26T08:43:09.000Z</time>
      </trkpt>
      <trkpt lat="48.06555" lon="-1.52839">
        <ele>55.83316</ele>
        <time>2021-12-26T08:43:10.000Z</time>
      </trkpt>
      <trkpt lat="48.06552" lon="-1.52836">
        <ele>55.96481</ele>
        <time>2021-12-26T08:43:11.000Z</time>
      </trkpt>
      <trkpt lat="48.06548" lon="-1.52834">
        <ele>56.09216</ele>
        <time>2021-12-26T08:43:12.000Z</time>
      </trkpt>
      <trkpt lat="48.06544" lon="-1.52831">
        <ele>56.24405</ele>
        <time>2021-12-26T08:43:13.000Z</time>
      </trkpt>
      <trkpt lat="48.06541" lon="-1.52829">
        <ele>56.41451</ele>
        <time>2021-12-26T08:43:14.000Z</time>
      </trkpt>
      <trkpt lat="48.06537" lon="-1.52826">
        <ele>56.60275</ele>
        <time>2021-12-26T08:43:15.000Z</time>
      </trkpt>
      <trkpt lat="48.06534" lon="-1.52823">
        <ele>56.8135</ele>
        <time>2021-12-26T08:43:16.000Z</time>
      </trkpt>
      <trkpt lat="48.06531" lon="-1.5282">
        <ele>57.02757</ele>
        <time>2021-12-26T08:43:17.000Z</time>
      </trkpt>
      <trkpt lat="48.06528" lon="-1.52817">
        <ele>57.25216</ele>
        <time>2021-12-26T08:43:18.000Z</time>
      </trkpt>
      <trkpt lat="48.06525" lon="-1.52815">
        <ele>57.46953</ele>
        <time>2021-12-26T08:43:19.000Z</time>
      </trkpt>
      <trkpt lat="48.06523" lon="-1.52811">
        <ele>57.55962</ele>
        <time>2021-12-26T08:43:20.000Z</time>
      </trkpt>
      <trkpt lat="48.06523" lon="-1.52806">
        <ele>57.47484</ele>
        <time>2021-12-26T08:43:21.000Z</time>
      </trkpt>
      <trkpt lat="48.06521" lon="-1.52803">
        <ele>57.57681</ele>
        <time>2021-12-26T08:43:22.000Z</time>
      </trkpt>
      <trkpt lat="48.06519" lon="-1.52799">
        <ele>57.68687</ele>
        <time>2021-12-26T08:43:23.000Z</time>
      </trkpt>
      <trkpt lat="48.06517" lon="-1.52796">
        <ele>57.79681</ele>
        <time>2021-12-26T08:43:24.000Z</time>
      </trkpt>
      <trkpt lat="48.06517" lon="-1.52796">
        <ele>57.79681</ele>
        <time>2021-12-26T08:43:24.000Z</time>
      </trkpt>
      <trkpt lat="48.06515" lon="-1.52795">
        <ele>57.91001</ele>
        <time>2021-12-26T08:43:25.000Z</time>
      </trkpt>
      <trkpt lat="48.06513" lon="-1.52792">
        <ele>58.01347</ele>
        <time>2021-12-26T08:43:26.000Z</time>
      </trkpt>
      <trkpt lat="48.06512" lon="-1.5279">
        <ele>58.08206</ele>
        <time>2021-12-26T08:43:27.000Z</time>
      </trkpt>
      <trkpt lat="48.06511" lon="-1.52786">
        <ele>58.08628</ele>
        <time>2021-12-26T08:43:28.000Z</time>
      </trkpt>
      <trkpt lat="48.06509" lon="-1.52783">
        <ele>58.1643</ele>
        <time>2021-12-26T08:43:29.000Z</time>
      </trkpt>
      <trkpt lat="48.06508" lon="-1.52778">
        <ele>58.15339</ele>
        <time>2021-12-26T08:43:30.000Z</time>
      </trkpt>
      <trkpt lat="48.06507" lon="-1.52772">
        <ele>58.08781</ele>
        <time>2021-12-26T08:43:31.000Z</time>
      </trkpt>
      <trkpt lat="48.06506" lon="-1.52767">
        <ele>57.98182</ele>
        <time>2021-12-26T08:43:32.000Z</time>
      </trkpt>
      <trkpt lat="48.06506" lon="-1.52762">
        <ele>57.83939</ele>
        <time>2021-12-26T08:43:33.000Z</time>
      </trkpt>
      <trkpt lat="48.06505" lon="-1.52757">
        <ele>57.84809</ele>
        <time>2021-12-26T08:43:34.000Z</time>
      </trkpt>
      <trkpt lat="48.06502" lon="-1.52756">
        <ele>58.05371</ele>
        <time>2021-12-26T08:43:35.000Z</time>
      </trkpt>
      <trkpt lat="48.065" lon="-1.52758">
        <ele>58.26388</ele>
        <time>2021-12-26T08:43:36.000Z</time>
      </trkpt>
      <trkpt lat="48.06499" lon="-1.52761">
        <ele>58.51039</ele>
        <time>2021-12-26T08:43:37.000Z</time>
      </trkpt>
      <trkpt lat="48.06497" lon="-1.52765">
        <ele>58.77938</ele>
        <time>2021-12-26T08:43:38.000Z</time>
      </trkpt>
      <trkpt lat="48.06495" lon="-1.52769">
        <ele>59.08258</ele>
        <time>2021-12-26T08:43:39.000Z</time>
      </trkpt>
      <trkpt lat="48.06493" lon="-1.52771">
        <ele>59.34604</ele>
        <time>2021-12-26T08:43:40.000Z</time>
      </trkpt>
      <trkpt lat="48.0649" lon="-1.52774">
        <ele>59.60458</ele>
        <time>2021-12-26T08:43:41.000Z</time>
      </trkpt>
      <trkpt lat="48.06488" lon="-1.52776">
        <ele>59.86534</ele>
        <time>2021-12-26T08:43:42.000Z</time>
      </trkpt>
      <trkpt lat="48.06486" lon="-1.52779">
        <ele>60.09383</ele>
        <time>2021-12-26T08:43:43.000Z</time>
      </trkpt>
      <trkpt lat="48.06485" lon="-1.52782">
        <ele>60.29228</ele>
        <time>2021-12-26T08:43:44.000Z</time>
      </trkpt>
      <trkpt lat="48.06482" lon="-1.52784">
        <ele>60.5979</ele>
        <time>2021-12-26T08:43:45.000Z</time>
      </trkpt>
      <trkpt lat="48.06479" lon="-1.52784">
        <ele>60.84172</ele>
        <time>2021-12-26T08:43:46.000Z</time>
      </trkpt>
      <trkpt lat="48.06477" lon="-1.52783">
        <ele>61.02451</ele>
        <time>2021-12-26T08:43:47.000Z</time>
      </trkpt>
      <trkpt lat="48.06475" lon="-1.52779">
        <ele>61.16744</ele>
        <time>2021-12-26T08:43:49.000Z</time>
      </trkpt>
      <trkpt lat="48.06472" lon="-1.52775">
        <ele>61.25823</ele>
        <time>2021-12-26T08:43:50.000Z</time>
      </trkpt>
      <trkpt lat="48.0647" lon="-1.52772">
        <ele>61.38086</ele>
        <time>2021-12-26T08:43:51.000Z</time>
      </trkpt>
      <trkpt lat="48.06468" lon="-1.52769">
        <ele>61.47358</ele>
        <time>2021-12-26T08:43:52.000Z</time>
      </trkpt>
      <trkpt lat="48.06465" lon="-1.52765">
        <ele>61.58747</ele>
        <time>2021-12-26T08:43:53.000Z</time>
      </trkpt>
      <trkpt lat="48.06463" lon="-1.52759">
        <ele>61.68501</ele>
        <time>2021-12-26T08:43:54.000Z</time>
      </trkpt>
      <trkpt lat="48.06461" lon="-1.52756">
        <ele>61.7938</ele>
        <time>2021-12-26T08:43:55.000Z</time>
      </trkpt>
      <trkpt lat="48.06458" lon="-1.52752">
        <ele>61.93229</ele>
        <time>2021-12-26T08:43:56.000Z</time>
      </trkpt>
      <trkpt lat="48.06456" lon="-1.52751">
        <ele>62.10024</ele>
        <time>2021-12-26T08:43:57.000Z</time>
      </trkpt>
      <trkpt lat="48.06454" lon="-1.5275">
        <ele>62.29733</ele>
        <time>2021-12-26T08:43:58.000Z</time>
      </trkpt>
      <trkpt lat="48.06452" lon="-1.52752">
        <ele>62.48564</ele>
        <time>2021-12-26T08:43:59.000Z</time>
      </trkpt>
      <trkpt lat="48.06451" lon="-1.52755">
        <ele>62.6694</ele>
        <time>2021-12-26T08:44:00.000Z</time>
      </trkpt>
      <trkpt lat="48.06451" lon="-1.52759">
        <ele>62.75276</ele>
        <time>2021-12-26T08:44:01.000Z</time>
      </trkpt>
      <trkpt lat="48.0645" lon="-1.52763">
        <ele>62.91727</ele>
        <time>2021-12-26T08:44:02.000Z</time>
      </trkpt>
      <trkpt lat="48.0645" lon="-1.52767">
        <ele>63.1068</ele>
        <time>2021-12-26T08:44:03.000Z</time>
      </trkpt>
      <trkpt lat="48.06449" lon="-1.52769">
        <ele>63.31477</ele>
        <time>2021-12-26T08:44:04.000Z</time>
      </trkpt>
      <trkpt lat="48.06446" lon="-1.5277">
        <ele>63.5294</ele>
        <time>2021-12-26T08:44:05.000Z</time>
      </trkpt>
      <trkpt lat="48.06444" lon="-1.52769">
        <ele>63.77766</ele>
        <time>2021-12-26T08:44:07.000Z</time>
      </trkpt>
      <trkpt lat="48.06442" lon="-1.52768">
        <ele>63.9184</ele>
        <time>2021-12-26T08:44:08.000Z</time>
      </trkpt>
      <trkpt lat="48.0644" lon="-1.52767">
        <ele>64.05562</ele>
        <time>2021-12-26T08:44:09.000Z</time>
      </trkpt>
      <trkpt lat="48.06438" lon="-1.52766">
        <ele>64.25545</ele>
        <time>2021-12-26T08:44:10.000Z</time>
      </trkpt>
      <trkpt lat="48.06435" lon="-1.52766">
        <ele>64.51034</ele>
        <time>2021-12-26T08:44:11.000Z</time>
      </trkpt>
      <trkpt lat="48.06433" lon="-1.52765">
        <ele>64.73784</ele>
        <time>2021-12-26T08:44:12.000Z</time>
      </trkpt>
      <trkpt lat="48.06431" lon="-1.52764">
        <ele>64.97382</ele>
        <time>2021-12-26T08:44:13.000Z</time>
      </trkpt>
      <trkpt lat="48.06428" lon="-1.52764">
        <ele>65.21638</ele>
        <time>2021-12-26T08:44:14.000Z</time>
      </trkpt>
      <trkpt lat="48.06426" lon="-1.52763">
        <ele>65.44854</ele>
        <time>2021-12-26T08:44:15.000Z</time>
      </trkpt>
      <trkpt lat="48.06423" lon="-1.52763">
        <ele>65.66007</ele>
        <time>2021-12-26T08:44:16.000Z</time>
      </trkpt>
      <trkpt lat="48.06421" lon="-1.52762">
        <ele>65.82925</ele>
        <time>2021-12-26T08:44:17.000Z</time>
      </trkpt>
      <trkpt lat="48.06418" lon="-1.52761">
        <ele>66.02875</ele>
        <time>2021-12-26T08:44:18.000Z</time>
      </trkpt>
      <trkpt lat="48.06415" lon="-1.5276">
        <ele>66.23801</ele>
        <time>2021-12-26T08:44:19.000Z</time>
      </trkpt>
      <trkpt lat="48.06413" lon="-1.52759">
        <ele>66.44022</ele>
        <time>2021-12-26T08:44:20.000Z</time>
      </trkpt>
      <trkpt lat="48.0641" lon="-1.52757">
        <ele>66.60346</ele>
        <time>2021-12-26T08:44:21.000Z</time>
      </trkpt>
      <trkpt lat="48.06407" lon="-1.52757">
        <ele>66.8123</ele>
        <time>2021-12-26T08:44:22.000Z</time>
      </trkpt>
      <trkpt lat="48.06405" lon="-1.52756">
        <ele>66.97871</ele>
        <time>2021-12-26T08:44:23.000Z</time>
      </trkpt>
      <trkpt lat="48.06402" lon="-1.52756">
        <ele>67.18414</ele>
        <time>2021-12-26T08:44:24.000Z</time>
      </trkpt>
      <trkpt lat="48.064" lon="-1.52756">
        <ele>67.38422</ele>
        <time>2021-12-26T08:44:25.000Z</time>
      </trkpt>
      <trkpt lat="48.06397" lon="-1.52758">
        <ele>67.59746</ele>
        <time>2021-12-26T08:44:26.000Z</time>
      </trkpt>
      <trkpt lat="48.06394" lon="-1.5276">
        <ele>67.82354</ele>
        <time>2021-12-26T08:44:27.000Z</time>
      </trkpt>
      <trkpt lat="48.06392" lon="-1.52763">
        <ele>68.03268</ele>
        <time>2021-12-26T08:44:28.000Z</time>
      </trkpt>
      <trkpt lat="48.0639" lon="-1.52765">
        <ele>68.25834</ele>
        <time>2021-12-26T08:44:29.000Z</time>
      </trkpt>
      <trkpt lat="48.06388" lon="-1.52767">
        <ele>68.47909</ele>
        <time>2021-12-26T08:44:30.000Z</time>
      </trkpt>
      <trkpt lat="48.06385" lon="-1.52768">
        <ele>68.69366</ele>
        <time>2021-12-26T08:44:31.000Z</time>
      </trkpt>
      <trkpt lat="48.06383" lon="-1.5277">
        <ele>68.92289</ele>
        <time>2021-12-26T08:44:32.000Z</time>
      </trkpt>
      <trkpt lat="48.0638" lon="-1.52772">
        <ele>69.14765</ele>
        <time>2021-12-26T08:44:33.000Z</time>
      </trkpt>
      <trkpt lat="48.06378" lon="-1.52771">
        <ele>69.30615</ele>
        <time>2021-12-26T08:44:34.000Z</time>
      </trkpt>
      <trkpt lat="48.06375" lon="-1.52769">
        <ele>69.37047</ele>
        <time>2021-12-26T08:44:35.000Z</time>
      </trkpt>
      <trkpt lat="48.06374" lon="-1.52765">
        <ele>69.35081</ele>
        <time>2021-12-26T08:44:36.000Z</time>
      </trkpt>
      <trkpt lat="48.06372" lon="-1.52762">
        <ele>69.33741</ele>
        <time>2021-12-26T08:44:37.000Z</time>
      </trkpt>
      <trkpt lat="48.0637" lon="-1.52758">
        <ele>69.34618</ele>
        <time>2021-12-26T08:44:38.000Z</time>
      </trkpt>
      <trkpt lat="48.06368" lon="-1.52754">
        <ele>69.38115</ele>
        <time>2021-12-26T08:44:39.000Z</time>
      </trkpt>
      <trkpt lat="48.06366" lon="-1.52751">
        <ele>69.4596</ele>
        <time>2021-12-26T08:44:40.000Z</time>
      </trkpt>
      <trkpt lat="48.06364" lon="-1.52747">
        <ele>69.53811</ele>
        <time>2021-12-26T08:44:41.000Z</time>
      </trkpt>
      <trkpt lat="48.06361" lon="-1.52745">
        <ele>69.68665</ele>
        <time>2021-12-26T08:44:42.000Z</time>
      </trkpt>
      <trkpt lat="48.06359" lon="-1.52745">
        <ele>69.87119</ele>
        <time>2021-12-26T08:44:43.000Z</time>
      </trkpt>
      <trkpt lat="48.06356" lon="-1.52746">
        <ele>70.06444</ele>
        <time>2021-12-26T08:44:44.000Z</time>
      </trkpt>
      <trkpt lat="48.06354" lon="-1.52748">
        <ele>70.26128</ele>
        <time>2021-12-26T08:44:45.000Z</time>
      </trkpt>
      <trkpt lat="48.06351" lon="-1.5275">
        <ele>70.49274</ele>
        <time>2021-12-26T08:44:46.000Z</time>
      </trkpt>
      <trkpt lat="48.06349" lon="-1.52752">
        <ele>70.73373</ele>
        <time>2021-12-26T08:44:47.000Z</time>
      </trkpt>
      <trkpt lat="48.06346" lon="-1.52754">
        <ele>70.97246</ele>
        <time>2021-12-26T08:44:48.000Z</time>
      </trkpt>
      <trkpt lat="48.06344" lon="-1.52756">
        <ele>71.20324</ele>
        <time>2021-12-26T08:44:49.000Z</time>
      </trkpt>
      <trkpt lat="48.06341" lon="-1.52758">
        <ele>71.43883</ele>
        <time>2021-12-26T08:44:50.000Z</time>
      </trkpt>
      <trkpt lat="48.06339" lon="-1.5276">
        <ele>71.66425</ele>
        <time>2021-12-26T08:44:51.000Z</time>
      </trkpt>
      <trkpt lat="48.06337" lon="-1.52762">
        <ele>71.8721</ele>
        <time>2021-12-26T08:44:52.000Z</time>
      </trkpt>
      <trkpt lat="48.06334" lon="-1.52763">
        <ele>72.05377</ele>
        <time>2021-12-26T08:44:53.000Z</time>
      </trkpt>
      <trkpt lat="48.06332" lon="-1.52765">
        <ele>72.2219</ele>
        <time>2021-12-26T08:44:54.000Z</time>
      </trkpt>
      <trkpt lat="48.0633" lon="-1.52767">
        <ele>72.38812</ele>
        <time>2021-12-26T08:44:55.000Z</time>
      </trkpt>
      <trkpt lat="48.06327" lon="-1.52768">
        <ele>72.53864</ele>
        <time>2021-12-26T08:44:56.000Z</time>
      </trkpt>
      <trkpt lat="48.06325" lon="-1.5277">
        <ele>72.67715</ele>
        <time>2021-12-26T08:44:57.000Z</time>
      </trkpt>
      <trkpt lat="48.06323" lon="-1.52772">
        <ele>72.79873</ele>
        <time>2021-12-26T08:44:58.000Z</time>
      </trkpt>
      <trkpt lat="48.0632" lon="-1.52773">
        <ele>72.91359</ele>
        <time>2021-12-26T08:44:59.000Z</time>
      </trkpt>
      <trkpt lat="48.06318" lon="-1.52774">
        <ele>73.0305</ele>
        <time>2021-12-26T08:45:00.000Z</time>
      </trkpt>
      <trkpt lat="48.06315" lon="-1.52775">
        <ele>73.14024</ele>
        <time>2021-12-26T08:45:01.000Z</time>
      </trkpt>
      <trkpt lat="48.06313" lon="-1.52777">
        <ele>73.25928</ele>
        <time>2021-12-26T08:45:02.000Z</time>
      </trkpt>
      <trkpt lat="48.0631" lon="-1.52778">
        <ele>73.38261</ele>
        <time>2021-12-26T08:45:03.000Z</time>
      </trkpt>
      <trkpt lat="48.06308" lon="-1.52779">
        <ele>73.51118</ele>
        <time>2021-12-26T08:45:04.000Z</time>
      </trkpt>
      <trkpt lat="48.06305" lon="-1.52781">
        <ele>73.66021</ele>
        <time>2021-12-26T08:45:05.000Z</time>
      </trkpt>
      <trkpt lat="48.06302" lon="-1.52782">
        <ele>73.84428</ele>
        <time>2021-12-26T08:45:06.000Z</time>
      </trkpt>
      <trkpt lat="48.063" lon="-1.52783">
        <ele>73.99068</ele>
        <time>2021-12-26T08:45:07.000Z</time>
      </trkpt>
      <trkpt lat="48.06297" lon="-1.52784">
        <ele>74.14856</ele>
        <time>2021-12-26T08:45:08.000Z</time>
      </trkpt>
      <trkpt lat="48.06295" lon="-1.52785">
        <ele>74.30664</ele>
        <time>2021-12-26T08:45:09.000Z</time>
      </trkpt>
      <trkpt lat="48.06292" lon="-1.52787">
        <ele>74.46722</ele>
        <time>2021-12-26T08:45:10.000Z</time>
      </trkpt>
      <trkpt lat="48.06289" lon="-1.52788">
        <ele>74.62171</ele>
        <time>2021-12-26T08:45:11.000Z</time>
      </trkpt>
      <trkpt lat="48.06287" lon="-1.52789">
        <ele>74.74955</ele>
        <time>2021-12-26T08:45:12.000Z</time>
      </trkpt>
      <trkpt lat="48.06284" lon="-1.52789">
        <ele>74.84979</ele>
        <time>2021-12-26T08:45:13.000Z</time>
      </trkpt>
      <trkpt lat="48.06281" lon="-1.52789">
        <ele>74.9202</ele>
        <time>2021-12-26T08:45:14.000Z</time>
      </trkpt>
      <trkpt lat="48.06278" lon="-1.5279">
        <ele>74.98781</ele>
        <time>2021-12-26T08:45:15.000Z</time>
      </trkpt>
      <trkpt lat="48.06275" lon="-1.5279">
        <ele>75.04586</ele>
        <time>2021-12-26T08:45:16.000Z</time>
      </trkpt>
      <trkpt lat="48.06272" lon="-1.52791">
        <ele>75.08977</ele>
        <time>2021-12-26T08:45:17.000Z</time>
      </trkpt>
      <trkpt lat="48.06269" lon="-1.52791">
        <ele>75.12937</ele>
        <time>2021-12-26T08:45:18.000Z</time>
      </trkpt>
      <trkpt lat="48.06266" lon="-1.52791">
        <ele>75.16163</ele>
        <time>2021-12-26T08:45:19.000Z</time>
      </trkpt>
      <trkpt lat="48.06263" lon="-1.52791">
        <ele>75.20411</ele>
        <time>2021-12-26T08:45:20.000Z</time>
      </trkpt>
      <trkpt lat="48.06259" lon="-1.52792">
        <ele>75.26152</ele>
        <time>2021-12-26T08:45:21.000Z</time>
      </trkpt>
      <trkpt lat="48.06256" lon="-1.52793">
        <ele>75.3333</ele>
        <time>2021-12-26T08:45:22.000Z</time>
      </trkpt>
      <trkpt lat="48.06252" lon="-1.52794">
        <ele>75.3892</ele>
        <time>2021-12-26T08:45:23.000Z</time>
      </trkpt>
      <trkpt lat="48.06249" lon="-1.52795">
        <ele>75.44154</ele>
        <time>2021-12-26T08:45:24.000Z</time>
      </trkpt>
      <trkpt lat="48.06246" lon="-1.52795">
        <ele>75.4883</ele>
        <time>2021-12-26T08:45:25.000Z</time>
      </trkpt>
      <trkpt lat="48.06243" lon="-1.52797">
        <ele>75.55373</ele>
        <time>2021-12-26T08:45:26.000Z</time>
      </trkpt>
      <trkpt lat="48.06239" lon="-1.52799">
        <ele>75.61352</ele>
        <time>2021-12-26T08:45:27.000Z</time>
      </trkpt>
      <trkpt lat="48.06236" lon="-1.52801">
        <ele>75.67757</ele>
        <time>2021-12-26T08:45:28.000Z</time>
      </trkpt>
      <trkpt lat="48.06232" lon="-1.52803">
        <ele>75.74694</ele>
        <time>2021-12-26T08:45:29.000Z</time>
      </trkpt>
      <trkpt lat="48.06231" lon="-1.52808">
        <ele>75.84977</ele>
        <time>2021-12-26T08:45:30.000Z</time>
      </trkpt>
      <trkpt lat="48.0623" lon="-1.52813">
        <ele>75.97998</ele>
        <time>2021-12-26T08:45:31.000Z</time>
      </trkpt>
      <trkpt lat="48.06229" lon="-1.52818">
        <ele>76.13551</ele>
        <time>2021-12-26T08:45:32.000Z</time>
      </trkpt>
      <trkpt lat="48.06228" lon="-1.52823">
        <ele>76.31137</ele>
        <time>2021-12-26T08:45:33.000Z</time>
      </trkpt>
      <trkpt lat="48.06228" lon="-1.52828">
        <ele>76.51148</ele>
        <time>2021-12-26T08:45:34.000Z</time>
      </trkpt>
      <trkpt lat="48.06227" lon="-1.52833">
        <ele>76.71596</ele>
        <time>2021-12-26T08:45:35.000Z</time>
      </trkpt>
      <trkpt lat="48.06225" lon="-1.52837">
        <ele>76.88346</ele>
        <time>2021-12-26T08:45:36.000Z</time>
      </trkpt>
      <trkpt lat="48.06222" lon="-1.5284">
        <ele>76.97762</ele>
        <time>2021-12-26T08:45:37.000Z</time>
      </trkpt>
      <trkpt lat="48.06219" lon="-1.52842">
        <ele>77.00193</ele>
        <time>2021-12-26T08:45:38.000Z</time>
      </trkpt>
      <trkpt lat="48.06216" lon="-1.52843">
        <ele>77.01732</ele>
        <time>2021-12-26T08:45:39.000Z</time>
      </trkpt>
      <trkpt lat="48.06213" lon="-1.52844">
        <ele>77.01488</ele>
        <time>2021-12-26T08:45:40.000Z</time>
      </trkpt>
      <trkpt lat="48.06209" lon="-1.52844">
        <ele>76.98414</ele>
        <time>2021-12-26T08:45:41.000Z</time>
      </trkpt>
      <trkpt lat="48.06205" lon="-1.52844">
        <ele>76.95839</ele>
        <time>2021-12-26T08:45:42.000Z</time>
      </trkpt>
      <trkpt lat="48.06201" lon="-1.52845">
        <ele>76.93334</ele>
        <time>2021-12-26T08:45:43.000Z</time>
      </trkpt>
      <trkpt lat="48.06198" lon="-1.52845">
        <ele>76.89125</ele>
        <time>2021-12-26T08:45:44.000Z</time>
      </trkpt>
      <trkpt lat="48.06195" lon="-1.52845">
        <ele>76.85534</ele>
        <time>2021-12-26T08:45:45.000Z</time>
      </trkpt>
      <trkpt lat="48.06192" lon="-1.52847">
        <ele>76.85831</ele>
        <time>2021-12-26T08:45:46.000Z</time>
      </trkpt>
      <trkpt lat="48.0619" lon="-1.52848">
        <ele>76.84888</ele>
        <time>2021-12-26T08:45:47.000Z</time>
      </trkpt>
      <trkpt lat="48.06187" lon="-1.52847">
        <ele>76.75711</ele>
        <time>2021-12-26T08:45:48.000Z</time>
      </trkpt>
      <trkpt lat="48.06183" lon="-1.52847">
        <ele>76.6596</ele>
        <time>2021-12-26T08:45:49.000Z</time>
      </trkpt>
      <trkpt lat="48.06179" lon="-1.52848">
        <ele>76.56787</ele>
        <time>2021-12-26T08:45:50.000Z</time>
      </trkpt>
      <trkpt lat="48.06176" lon="-1.52847">
        <ele>76.47152</ele>
        <time>2021-12-26T08:45:51.000Z</time>
      </trkpt>
      <trkpt lat="48.06173" lon="-1.52847">
        <ele>76.38244</ele>
        <time>2021-12-26T08:45:52.000Z</time>
      </trkpt>
      <trkpt lat="48.0617" lon="-1.52847">
        <ele>76.32333</ele>
        <time>2021-12-26T08:45:53.000Z</time>
      </trkpt>
      <trkpt lat="48.06166" lon="-1.52847">
        <ele>76.25692</ele>
        <time>2021-12-26T08:45:54.000Z</time>
      </trkpt>
      <trkpt lat="48.06162" lon="-1.52847">
        <ele>76.18361</ele>
        <time>2021-12-26T08:45:55.000Z</time>
      </trkpt>
      <trkpt lat="48.06158" lon="-1.52847">
        <ele>76.12274</ele>
        <time>2021-12-26T08:45:56.000Z</time>
      </trkpt>
      <trkpt lat="48.06153" lon="-1.52847">
        <ele>76.05959</ele>
        <time>2021-12-26T08:45:57.000Z</time>
      </trkpt>
      <trkpt lat="48.06148" lon="-1.52848">
        <ele>75.99543</ele>
        <time>2021-12-26T08:45:58.000Z</time>
      </trkpt>
      <trkpt lat="48.06144" lon="-1.52848">
        <ele>75.93368</ele>
        <time>2021-12-26T08:45:59.000Z</time>
      </trkpt>
      <trkpt lat="48.06139" lon="-1.5285">
        <ele>75.8773</ele>
        <time>2021-12-26T08:46:00.000Z</time>
      </trkpt>
      <trkpt lat="48.06134" lon="-1.52851">
        <ele>75.81557</ele>
        <time>2021-12-26T08:46:01.000Z</time>
      </trkpt>
      <trkpt lat="48.06129" lon="-1.52852">
        <ele>75.75033</ele>
        <time>2021-12-26T08:46:02.000Z</time>
      </trkpt>
      <trkpt lat="48.06124" lon="-1.52852">
        <ele>75.67295</ele>
        <time>2021-12-26T08:46:03.000Z</time>
      </trkpt>
      <trkpt lat="48.06119" lon="-1.52852">
        <ele>75.5903</ele>
        <time>2021-12-26T08:46:04.000Z</time>
      </trkpt>
      <trkpt lat="48.06115" lon="-1.52852">
        <ele>75.52074</ele>
        <time>2021-12-26T08:46:05.000Z</time>
      </trkpt>
      <trkpt lat="48.0611" lon="-1.52851">
        <ele>75.44974</ele>
        <time>2021-12-26T08:46:06.000Z</time>
      </trkpt>
      <trkpt lat="48.0611" lon="-1.52851">
        <ele>75.44974</ele>
        <time>2021-12-26T08:46:06.000Z</time>
      </trkpt>
      <trkpt lat="48.06107" lon="-1.52851">
        <ele>75.40091</ele>
        <time>2021-12-26T08:46:07.000Z</time>
      </trkpt>
      <trkpt lat="48.06106" lon="-1.52853">
        <ele>75.42379</ele>
        <time>2021-12-26T08:46:08.000Z</time>
      </trkpt>
      <trkpt lat="48.06105" lon="-1.52859">
        <ele>75.5764</ele>
        <time>2021-12-26T08:46:09.000Z</time>
      </trkpt>
      <trkpt lat="48.06104" lon="-1.52864">
        <ele>75.67639</ele>
        <time>2021-12-26T08:46:10.000Z</time>
      </trkpt>
      <trkpt lat="48.06102" lon="-1.5287">
        <ele>75.73821</ele>
        <time>2021-12-26T08:46:11.000Z</time>
      </trkpt>
      <trkpt lat="48.06101" lon="-1.52876">
        <ele>75.77322</ele>
        <time>2021-12-26T08:46:12.000Z</time>
      </trkpt>
      <trkpt lat="48.061" lon="-1.52882">
        <ele>75.75515</ele>
        <time>2021-12-26T08:46:13.000Z</time>
      </trkpt>
      <trkpt lat="48.06099" lon="-1.52889">
        <ele>75.75562</ele>
        <time>2021-12-26T08:46:14.000Z</time>
      </trkpt>
      <trkpt lat="48.06099" lon="-1.52896">
        <ele>75.75484</ele>
        <time>2021-12-26T08:46:15.000Z</time>
      </trkpt>
      <trkpt lat="48.06099" lon="-1.52902">
        <ele>75.74669</ele>
        <time>2021-12-26T08:46:16.000Z</time>
      </trkpt>
      <trkpt lat="48.06099" lon="-1.52909">
        <ele>75.73846</ele>
        <time>2021-12-26T08:46:17.000Z</time>
      </trkpt>
      <trkpt lat="48.06098" lon="-1.52916">
        <ele>75.70974</ele>
        <time>2021-12-26T08:46:18.000Z</time>
      </trkpt>
      <trkpt lat="48.06098" lon="-1.52923">
        <ele>75.67972</ele>
        <time>2021-12-26T08:46:19.000Z</time>
      </trkpt>
      <trkpt lat="48.06099" lon="-1.52929">
        <ele>75.64895</ele>
        <time>2021-12-26T08:46:20.000Z</time>
      </trkpt>
      <trkpt lat="48.06099" lon="-1.52936">
        <ele>75.62448</ele>
        <time>2021-12-26T08:46:21.000Z</time>
      </trkpt>
      <trkpt lat="48.06099" lon="-1.52942">
        <ele>75.58044</ele>
        <time>2021-12-26T08:46:22.000Z</time>
      </trkpt>
      <trkpt lat="48.06099" lon="-1.52949">
        <ele>75.5375</ele>
        <time>2021-12-26T08:46:23.000Z</time>
      </trkpt>
      <trkpt lat="48.06099" lon="-1.52955">
        <ele>75.49049</ele>
        <time>2021-12-26T08:46:24.000Z</time>
      </trkpt>
      <trkpt lat="48.06099" lon="-1.52962">
        <ele>75.44278</ele>
        <time>2021-12-26T08:46:25.000Z</time>
      </trkpt>
      <trkpt lat="48.06099" lon="-1.52969">
        <ele>75.40057</ele>
        <time>2021-12-26T08:46:26.000Z</time>
      </trkpt>
      <trkpt lat="48.06099" lon="-1.52976">
        <ele>75.37045</ele>
        <time>2021-12-26T08:46:27.000Z</time>
      </trkpt>
      <trkpt lat="48.06099" lon="-1.52982">
        <ele>75.32636</ele>
        <time>2021-12-26T08:46:28.000Z</time>
      </trkpt>
      <trkpt lat="48.06099" lon="-1.52989">
        <ele>75.28637</ele>
        <time>2021-12-26T08:46:29.000Z</time>
      </trkpt>
      <trkpt lat="48.06099" lon="-1.52996">
        <ele>75.23809</ele>
        <time>2021-12-26T08:46:30.000Z</time>
      </trkpt>
      <trkpt lat="48.06099" lon="-1.53003">
        <ele>75.19049</ele>
        <time>2021-12-26T08:46:31.000Z</time>
      </trkpt>
      <trkpt lat="48.06099" lon="-1.53009">
        <ele>75.13626</ele>
        <time>2021-12-26T08:46:32.000Z</time>
      </trkpt>
      <trkpt lat="48.061" lon="-1.53016">
        <ele>75.07564</ele>
        <time>2021-12-26T08:46:33.000Z</time>
      </trkpt>
      <trkpt lat="48.061" lon="-1.53022">
        <ele>75.01747</ele>
        <time>2021-12-26T08:46:33.999Z</time>
      </trkpt>
      <trkpt lat="48.061" lon="-1.53028">
        <ele>74.95356</ele>
        <time>2021-12-26T08:46:34.999Z</time>
      </trkpt>
      <trkpt lat="48.061" lon="-1.53035">
        <ele>74.89008</ele>
        <time>2021-12-26T08:46:35.999Z</time>
      </trkpt>
      <trkpt lat="48.061" lon="-1.53042">
        <ele>74.83496</ele>
        <time>2021-12-26T08:46:36.999Z</time>
      </trkpt>
      <trkpt lat="48.061" lon="-1.53048">
        <ele>74.8074</ele>
        <time>2021-12-26T08:46:37.999Z</time>
      </trkpt>
      <trkpt lat="48.061" lon="-1.53055">
        <ele>74.78281</ele>
        <time>2021-12-26T08:46:38.999Z</time>
      </trkpt>
      <trkpt lat="48.061" lon="-1.53061">
        <ele>74.75875</ele>
        <time>2021-12-26T08:46:39.999Z</time>
      </trkpt>
      <trkpt lat="48.061" lon="-1.53068">
        <ele>74.71685</ele>
        <time>2021-12-26T08:46:40.999Z</time>
      </trkpt>
      <trkpt lat="48.061" lon="-1.53075">
        <ele>74.63731</ele>
        <time>2021-12-26T08:46:41.999Z</time>
      </trkpt>
      <trkpt lat="48.061" lon="-1.53082">
        <ele>74.53453</ele>
        <time>2021-12-26T08:46:42.999Z</time>
      </trkpt>
      <trkpt lat="48.061" lon="-1.53089">
        <ele>74.40182</ele>
        <time>2021-12-26T08:46:43.999Z</time>
      </trkpt>
      <trkpt lat="48.061" lon="-1.53097">
        <ele>74.2611</ele>
        <time>2021-12-26T08:46:44.999Z</time>
      </trkpt>
      <trkpt lat="48.06101" lon="-1.53104">
        <ele>74.14771</ele>
        <time>2021-12-26T08:46:45.999Z</time>
      </trkpt>
      <trkpt lat="48.06101" lon="-1.53111">
        <ele>74.04605</ele>
        <time>2021-12-26T08:46:46.999Z</time>
      </trkpt>
      <trkpt lat="48.061" lon="-1.53119">
        <ele>73.94521</ele>
        <time>2021-12-26T08:46:47.999Z</time>
      </trkpt>
      <trkpt lat="48.06101" lon="-1.53126">
        <ele>73.86808</ele>
        <time>2021-12-26T08:46:48.999Z</time>
      </trkpt>
      <trkpt lat="48.06101" lon="-1.53134">
        <ele>73.7965</ele>
        <time>2021-12-26T08:46:49.999Z</time>
      </trkpt>
      <trkpt lat="48.06101" lon="-1.53141">
        <ele>73.73643</ele>
        <time>2021-12-26T08:46:50.999Z</time>
      </trkpt>
      <trkpt lat="48.06101" lon="-1.53148">
        <ele>73.69659</ele>
        <time>2021-12-26T08:46:51.999Z</time>
      </trkpt>
      <trkpt lat="48.06101" lon="-1.53156">
        <ele>73.66712</ele>
        <time>2021-12-26T08:46:52.999Z</time>
      </trkpt>
      <trkpt lat="48.06101" lon="-1.53163">
        <ele>73.63918</ele>
        <time>2021-12-26T08:46:53.999Z</time>
      </trkpt>
      <trkpt lat="48.06101" lon="-1.5317">
        <ele>73.61686</ele>
        <time>2021-12-26T08:46:54.999Z</time>
      </trkpt>
      <trkpt lat="48.06101" lon="-1.53177">
        <ele>73.60098</ele>
        <time>2021-12-26T08:46:55.999Z</time>
      </trkpt>
      <trkpt lat="48.06101" lon="-1.53184">
        <ele>73.59168</ele>
        <time>2021-12-26T08:46:56.999Z</time>
      </trkpt>
      <trkpt lat="48.06101" lon="-1.53191">
        <ele>73.60108</ele>
        <time>2021-12-26T08:46:57.999Z</time>
      </trkpt>
      <trkpt lat="48.06101" lon="-1.53197">
        <ele>73.5965</ele>
        <time>2021-12-26T08:46:58.999Z</time>
      </trkpt>
      <trkpt lat="48.06101" lon="-1.53203">
        <ele>73.59759</ele>
        <time>2021-12-26T08:46:59.999Z</time>
      </trkpt>
      <trkpt lat="48.06101" lon="-1.5321">
        <ele>73.58325</ele>
        <time>2021-12-26T08:47:00.999Z</time>
      </trkpt>
      <trkpt lat="48.06101" lon="-1.53217">
        <ele>73.56898</ele>
        <time>2021-12-26T08:47:01.999Z</time>
      </trkpt>
      <trkpt lat="48.06102" lon="-1.53224">
        <ele>73.55938</ele>
        <time>2021-12-26T08:47:02.999Z</time>
      </trkpt>
      <trkpt lat="48.06102" lon="-1.53231">
        <ele>73.54403</ele>
        <time>2021-12-26T08:47:03.999Z</time>
      </trkpt>
      <trkpt lat="48.06102" lon="-1.53238">
        <ele>73.51624</ele>
        <time>2021-12-26T08:47:04.999Z</time>
      </trkpt>
      <trkpt lat="48.06102" lon="-1.53244">
        <ele>73.48153</ele>
        <time>2021-12-26T08:47:05.999Z</time>
      </trkpt>
      <trkpt lat="48.06102" lon="-1.53251">
        <ele>73.45552</ele>
        <time>2021-12-26T08:47:06.999Z</time>
      </trkpt>
      <trkpt lat="48.06102" lon="-1.53258">
        <ele>73.4479</ele>
        <time>2021-12-26T08:47:07.999Z</time>
      </trkpt>
      <trkpt lat="48.06102" lon="-1.53265">
        <ele>73.42876</ele>
        <time>2021-12-26T08:47:08.999Z</time>
      </trkpt>
      <trkpt lat="48.06102" lon="-1.53271">
        <ele>73.40822</ele>
        <time>2021-12-26T08:47:09.999Z</time>
      </trkpt>
      <trkpt lat="48.06102" lon="-1.53277">
        <ele>73.37446</ele>
        <time>2021-12-26T08:47:10.999Z</time>
      </trkpt>
      <trkpt lat="48.06102" lon="-1.53284">
        <ele>73.33033</ele>
        <time>2021-12-26T08:47:11.999Z</time>
      </trkpt>
      <trkpt lat="48.06102" lon="-1.5329">
        <ele>73.27763</ele>
        <time>2021-12-26T08:47:12.999Z</time>
      </trkpt>
      <trkpt lat="48.06102" lon="-1.53296">
        <ele>73.23384</ele>
        <time>2021-12-26T08:47:13.999Z</time>
      </trkpt>
      <trkpt lat="48.06103" lon="-1.53303">
        <ele>73.19564</ele>
        <time>2021-12-26T08:47:14.999Z</time>
      </trkpt>
      <trkpt lat="48.06103" lon="-1.53309">
        <ele>73.16279</ele>
        <time>2021-12-26T08:47:15.999Z</time>
      </trkpt>
      <trkpt lat="48.06103" lon="-1.53316">
        <ele>73.13293</ele>
        <time>2021-12-26T08:47:16.999Z</time>
      </trkpt>
      <trkpt lat="48.06102" lon="-1.53322">
        <ele>73.09827</ele>
        <time>2021-12-26T08:47:17.999Z</time>
      </trkpt>
      <trkpt lat="48.06102" lon="-1.53328">
        <ele>73.07076</ele>
        <time>2021-12-26T08:47:18.999Z</time>
      </trkpt>
      <trkpt lat="48.06102" lon="-1.53335">
        <ele>73.03812</ele>
        <time>2021-12-26T08:47:19.999Z</time>
      </trkpt>
      <trkpt lat="48.06102" lon="-1.53342">
        <ele>73.00598</ele>
        <time>2021-12-26T08:47:20.999Z</time>
      </trkpt>
      <trkpt lat="48.06101" lon="-1.53349">
        <ele>72.97185</ele>
        <time>2021-12-26T08:47:21.999Z</time>
      </trkpt>
      <trkpt lat="48.06101" lon="-1.53355">
        <ele>72.93547</ele>
        <time>2021-12-26T08:47:22.999Z</time>
      </trkpt>
      <trkpt lat="48.06101" lon="-1.53362">
        <ele>72.90024</ele>
        <time>2021-12-26T08:47:23.999Z</time>
      </trkpt>
      <trkpt lat="48.06101" lon="-1.53369">
        <ele>72.86284</ele>
        <time>2021-12-26T08:47:24.999Z</time>
      </trkpt>
      <trkpt lat="48.061" lon="-1.53376">
        <ele>72.81199</ele>
        <time>2021-12-26T08:47:25.999Z</time>
      </trkpt>
      <trkpt lat="48.06099" lon="-1.53383">
        <ele>72.76249</ele>
        <time>2021-12-26T08:47:26.999Z</time>
      </trkpt>
      <trkpt lat="48.06099" lon="-1.5339">
        <ele>72.71476</ele>
        <time>2021-12-26T08:47:27.999Z</time>
      </trkpt>
      <trkpt lat="48.06098" lon="-1.53396">
        <ele>72.65868</ele>
        <time>2021-12-26T08:47:28.999Z</time>
      </trkpt>
      <trkpt lat="48.06098" lon="-1.53403">
        <ele>72.58971</ele>
        <time>2021-12-26T08:47:29.999Z</time>
      </trkpt>
      <trkpt lat="48.06098" lon="-1.5341">
        <ele>72.49748</ele>
        <time>2021-12-26T08:47:30.999Z</time>
      </trkpt>
      <trkpt lat="48.06098" lon="-1.53417">
        <ele>72.37004</ele>
        <time>2021-12-26T08:47:31.999Z</time>
      </trkpt>
      <trkpt lat="48.06097" lon="-1.53424">
        <ele>72.21314</ele>
        <time>2021-12-26T08:47:32.999Z</time>
      </trkpt>
      <trkpt lat="48.06098" lon="-1.53432">
        <ele>72.06805</ele>
        <time>2021-12-26T08:47:33.999Z</time>
      </trkpt>
      <trkpt lat="48.06098" lon="-1.53438">
        <ele>71.95794</ele>
        <time>2021-12-26T08:47:34.999Z</time>
      </trkpt>
      <trkpt lat="48.06098" lon="-1.53445">
        <ele>71.88786</ele>
        <time>2021-12-26T08:47:35.999Z</time>
      </trkpt>
      <trkpt lat="48.06098" lon="-1.53452">
        <ele>71.84935</ele>
        <time>2021-12-26T08:47:36.999Z</time>
      </trkpt>
      <trkpt lat="48.06098" lon="-1.53459">
        <ele>71.83746</ele>
        <time>2021-12-26T08:47:37.999Z</time>
      </trkpt>
      <trkpt lat="48.06099" lon="-1.53465">
        <ele>71.82478</ele>
        <time>2021-12-26T08:47:38.999Z</time>
      </trkpt>
      <trkpt lat="48.06099" lon="-1.53472">
        <ele>71.8036</ele>
        <time>2021-12-26T08:47:39.999Z</time>
      </trkpt>
      <trkpt lat="48.06099" lon="-1.53479">
        <ele>71.76528</ele>
        <time>2021-12-26T08:47:40.999Z</time>
      </trkpt>
      <trkpt lat="48.061" lon="-1.53485">
        <ele>71.71434</ele>
        <time>2021-12-26T08:47:41.999Z</time>
      </trkpt>
      <trkpt lat="48.061" lon="-1.53492">
        <ele>71.65862</ele>
        <time>2021-12-26T08:47:42.999Z</time>
      </trkpt>
      <trkpt lat="48.06101" lon="-1.53498">
        <ele>71.60024</ele>
        <time>2021-12-26T08:47:43.999Z</time>
      </trkpt>
      <trkpt lat="48.06101" lon="-1.53504">
        <ele>71.54284</ele>
        <time>2021-12-26T08:47:44.999Z</time>
      </trkpt>
      <trkpt lat="48.06102" lon="-1.53511">
        <ele>71.49474</ele>
        <time>2021-12-26T08:47:45.999Z</time>
      </trkpt>
      <trkpt lat="48.06102" lon="-1.53517">
        <ele>71.44882</ele>
        <time>2021-12-26T08:47:46.999Z</time>
      </trkpt>
      <trkpt lat="48.06103" lon="-1.53524">
        <ele>71.40456</ele>
        <time>2021-12-26T08:47:47.999Z</time>
      </trkpt>
      <trkpt lat="48.06104" lon="-1.5353">
        <ele>71.36692</ele>
        <time>2021-12-26T08:47:48.999Z</time>
      </trkpt>
      <trkpt lat="48.06104" lon="-1.53537">
        <ele>71.33418</ele>
        <time>2021-12-26T08:47:49.999Z</time>
      </trkpt>
      <trkpt lat="48.06104" lon="-1.53543">
        <ele>71.30591</ele>
        <time>2021-12-26T08:47:50.999Z</time>
      </trkpt>
      <trkpt lat="48.06104" lon="-1.53549">
        <ele>71.2865</ele>
        <time>2021-12-26T08:47:51.999Z</time>
      </trkpt>
      <trkpt lat="48.06104" lon="-1.53556">
        <ele>71.27307</ele>
        <time>2021-12-26T08:47:52.999Z</time>
      </trkpt>
      <trkpt lat="48.06104" lon="-1.53562">
        <ele>71.26495</ele>
        <time>2021-12-26T08:47:53.999Z</time>
      </trkpt>
      <trkpt lat="48.06104" lon="-1.53562">
        <ele>71.26495</ele>
        <time>2021-12-26T08:47:53.999Z</time>
      </trkpt>
      <trkpt lat="48.06103" lon="-1.53568">
        <ele>71.26593</ele>
        <time>2021-12-26T08:47:54.999Z</time>
      </trkpt>
      <trkpt lat="48.06101" lon="-1.53574">
        <ele>71.29429</ele>
        <time>2021-12-26T08:47:55.999Z</time>
      </trkpt>
      <trkpt lat="48.061" lon="-1.53579">
        <ele>71.32554</ele>
        <time>2021-12-26T08:47:56.999Z</time>
      </trkpt>
      <trkpt lat="48.06096" lon="-1.53582">
        <ele>71.39907</ele>
        <time>2021-12-26T08:47:57.999Z</time>
      </trkpt>
      <trkpt lat="48.06092" lon="-1.53584">
        <ele>71.45637</ele>
        <time>2021-12-26T08:47:58.999Z</time>
      </trkpt>
      <trkpt lat="48.06089" lon="-1.53583">
        <ele>71.52851</ele>
        <time>2021-12-26T08:47:59.999Z</time>
      </trkpt>
      <trkpt lat="48.06085" lon="-1.53581">
        <ele>71.60369</ele>
        <time>2021-12-26T08:48:00.999Z</time>
      </trkpt>
      <trkpt lat="48.0608" lon="-1.53579">
        <ele>71.68215</ele>
        <time>2021-12-26T08:48:01.999Z</time>
      </trkpt>
      <trkpt lat="48.06076" lon="-1.53579">
        <ele>71.74025</ele>
        <time>2021-12-26T08:48:02.999Z</time>
      </trkpt>
      <trkpt lat="48.06071" lon="-1.53577">
        <ele>71.78146</ele>
        <time>2021-12-26T08:48:03.999Z</time>
      </trkpt>
      <trkpt lat="48.06067" lon="-1.53576">
        <ele>71.79701</ele>
        <time>2021-12-26T08:48:04.999Z</time>
      </trkpt>
      <trkpt lat="48.06063" lon="-1.53575">
        <ele>71.78607</ele>
        <time>2021-12-26T08:48:05.999Z</time>
      </trkpt>
      <trkpt lat="48.06058" lon="-1.53573">
        <ele>71.75566</ele>
        <time>2021-12-26T08:48:06.999Z</time>
      </trkpt>
      <trkpt lat="48.06054" lon="-1.53572">
        <ele>71.71499</ele>
        <time>2021-12-26T08:48:07.999Z</time>
      </trkpt>
      <trkpt lat="48.06049" lon="-1.53571">
        <ele>71.67936</ele>
        <time>2021-12-26T08:48:08.999Z</time>
      </trkpt>
      <trkpt lat="48.06044" lon="-1.5357">
        <ele>71.64122</ele>
        <time>2021-12-26T08:48:09.999Z</time>
      </trkpt>
      <trkpt lat="48.0604" lon="-1.5357">
        <ele>71.60155</ele>
        <time>2021-12-26T08:48:10.999Z</time>
      </trkpt>
      <trkpt lat="48.06035" lon="-1.53569">
        <ele>71.55736</ele>
        <time>2021-12-26T08:48:11.999Z</time>
      </trkpt>
      <trkpt lat="48.06031" lon="-1.53569">
        <ele>71.51158</ele>
        <time>2021-12-26T08:48:12.999Z</time>
      </trkpt>
      <trkpt lat="48.06026" lon="-1.53569">
        <ele>71.45562</ele>
        <time>2021-12-26T08:48:13.999Z</time>
      </trkpt>
      <trkpt lat="48.06022" lon="-1.53568">
        <ele>71.3682</ele>
        <time>2021-12-26T08:48:14.999Z</time>
      </trkpt>
      <trkpt lat="48.06017" lon="-1.53568">
        <ele>71.28276</ele>
        <time>2021-12-26T08:48:15.999Z</time>
      </trkpt>
      <trkpt lat="48.06013" lon="-1.53568">
        <ele>71.20084</ele>
        <time>2021-12-26T08:48:16.999Z</time>
      </trkpt>
      <trkpt lat="48.06009" lon="-1.53568">
        <ele>71.12328</ele>
        <time>2021-12-26T08:48:17.999Z</time>
      </trkpt>
      <trkpt lat="48.06004" lon="-1.53567">
        <ele>71.05465</ele>
        <time>2021-12-26T08:48:18.999Z</time>
      </trkpt>
      <trkpt lat="48.05999" lon="-1.53567">
        <ele>71.00014</ele>
        <time>2021-12-26T08:48:19.999Z</time>
      </trkpt>
      <trkpt lat="48.05995" lon="-1.53568">
        <ele>70.96516</ele>
        <time>2021-12-26T08:48:20.999Z</time>
      </trkpt>
      <trkpt lat="48.05991" lon="-1.53569">
        <ele>70.9247</ele>
        <time>2021-12-26T08:48:21.999Z</time>
      </trkpt>
      <trkpt lat="48.05986" lon="-1.5357">
        <ele>70.88477</ele>
        <time>2021-12-26T08:48:22.999Z</time>
      </trkpt>
      <trkpt lat="48.05982" lon="-1.53571">
        <ele>70.83444</ele>
        <time>2021-12-26T08:48:23.999Z</time>
      </trkpt>
      <trkpt lat="48.05977" lon="-1.53571">
        <ele>70.76439</ele>
        <time>2021-12-26T08:48:24.999Z</time>
      </trkpt>
      <trkpt lat="48.05972" lon="-1.53571">
        <ele>70.68211</ele>
        <time>2021-12-26T08:48:25.999Z</time>
      </trkpt>
      <trkpt lat="48.05967" lon="-1.53572">
        <ele>70.59926</ele>
        <time>2021-12-26T08:48:26.999Z</time>
      </trkpt>
      <trkpt lat="48.05963" lon="-1.53572">
        <ele>70.53064</ele>
        <time>2021-12-26T08:48:27.999Z</time>
      </trkpt>
      <trkpt lat="48.05958" lon="-1.53572">
        <ele>70.48154</ele>
        <time>2021-12-26T08:48:28.999Z</time>
      </trkpt>
      <trkpt lat="48.05953" lon="-1.53573">
        <ele>70.44704</ele>
        <time>2021-12-26T08:48:29.999Z</time>
      </trkpt>
      <trkpt lat="48.05949" lon="-1.53574">
        <ele>70.41833</ele>
        <time>2021-12-26T08:48:30.999Z</time>
      </trkpt>
      <trkpt lat="48.05944" lon="-1.53575">
        <ele>70.39229</ele>
        <time>2021-12-26T08:48:31.999Z</time>
      </trkpt>
      <trkpt lat="48.05939" lon="-1.53576">
        <ele>70.35885</ele>
        <time>2021-12-26T08:48:32.999Z</time>
      </trkpt>
      <trkpt lat="48.05934" lon="-1.53577">
        <ele>70.31444</ele>
        <time>2021-12-26T08:48:33.999Z</time>
      </trkpt>
      <trkpt lat="48.05929" lon="-1.53577">
        <ele>70.26396</ele>
        <time>2021-12-26T08:48:34.999Z</time>
      </trkpt>
      <trkpt lat="48.05924" lon="-1.53577">
        <ele>70.2087</ele>
        <time>2021-12-26T08:48:35.999Z</time>
      </trkpt>
      <trkpt lat="48.05919" lon="-1.53578">
        <ele>70.15868</ele>
        <time>2021-12-26T08:48:36.999Z</time>
      </trkpt>
      <trkpt lat="48.05914" lon="-1.53579">
        <ele>70.11406</ele>
        <time>2021-12-26T08:48:37.999Z</time>
      </trkpt>
      <trkpt lat="48.05909" lon="-1.53579">
        <ele>70.07534</ele>
        <time>2021-12-26T08:48:38.999Z</time>
      </trkpt>
      <trkpt lat="48.05903" lon="-1.53579">
        <ele>70.04093</ele>
        <time>2021-12-26T08:48:39.999Z</time>
      </trkpt>
      <trkpt lat="48.05898" lon="-1.53579">
        <ele>70.00828</ele>
        <time>2021-12-26T08:48:40.999Z</time>
      </trkpt>
      <trkpt lat="48.05893" lon="-1.53579">
        <ele>69.97204</ele>
        <time>2021-12-26T08:48:41.999Z</time>
      </trkpt>
      <trkpt lat="48.05888" lon="-1.5358">
        <ele>69.93293</ele>
        <time>2021-12-26T08:48:42.999Z</time>
      </trkpt>
      <trkpt lat="48.05882" lon="-1.5358">
        <ele>69.89206</ele>
        <time>2021-12-26T08:48:43.999Z</time>
      </trkpt>
      <trkpt lat="48.05877" lon="-1.53581">
        <ele>69.8475</ele>
        <time>2021-12-26T08:48:44.999Z</time>
      </trkpt>
      <trkpt lat="48.05872" lon="-1.53581">
        <ele>69.79825</ele>
        <time>2021-12-26T08:48:45.999Z</time>
      </trkpt>
      <trkpt lat="48.05867" lon="-1.53581">
        <ele>69.74361</ele>
        <time>2021-12-26T08:48:46.999Z</time>
      </trkpt>
      <trkpt lat="48.05861" lon="-1.53582">
        <ele>69.68615</ele>
        <time>2021-12-26T08:48:47.999Z</time>
      </trkpt>
      <trkpt lat="48.05856" lon="-1.53582">
        <ele>69.62862</ele>
        <time>2021-12-26T08:48:48.999Z</time>
      </trkpt>
      <trkpt lat="48.05851" lon="-1.53582">
        <ele>69.57783</ele>
        <time>2021-12-26T08:48:49.999Z</time>
      </trkpt>
      <trkpt lat="48.05845" lon="-1.53582">
        <ele>69.53713</ele>
        <time>2021-12-26T08:48:50.999Z</time>
      </trkpt>
      <trkpt lat="48.0584" lon="-1.53582">
        <ele>69.50028</ele>
        <time>2021-12-26T08:48:51.999Z</time>
      </trkpt>
      <trkpt lat="48.05834" lon="-1.53582">
        <ele>69.46972</ele>
        <time>2021-12-26T08:48:52.999Z</time>
      </trkpt>
      <trkpt lat="48.05828" lon="-1.53582">
        <ele>69.45089</ele>
        <time>2021-12-26T08:48:53.999Z</time>
      </trkpt>
      <trkpt lat="48.05823" lon="-1.53581">
        <ele>69.4139</ele>
        <time>2021-12-26T08:48:54.999Z</time>
      </trkpt>
      <trkpt lat="48.05817" lon="-1.5358">
        <ele>69.38693</ele>
        <time>2021-12-26T08:48:55.999Z</time>
      </trkpt>
      <trkpt lat="48.05812" lon="-1.5358">
        <ele>69.39056</ele>
        <time>2021-12-26T08:48:56.999Z</time>
      </trkpt>
      <trkpt lat="48.05807" lon="-1.53582">
        <ele>69.42928</ele>
        <time>2021-12-26T08:48:57.999Z</time>
      </trkpt>
      <trkpt lat="48.05802" lon="-1.53583">
        <ele>69.51072</ele>
        <time>2021-12-26T08:48:58.999Z</time>
      </trkpt>
      <trkpt lat="48.05797" lon="-1.53585">
        <ele>69.64609</ele>
        <time>2021-12-26T08:48:59.999Z</time>
      </trkpt>
      <trkpt lat="48.05792" lon="-1.53587">
        <ele>69.80454</ele>
        <time>2021-12-26T08:49:00.999Z</time>
      </trkpt>
      <trkpt lat="48.05788" lon="-1.53589">
        <ele>69.97409</ele>
        <time>2021-12-26T08:49:01.999Z</time>
      </trkpt>
      <trkpt lat="48.05784" lon="-1.53591">
        <ele>70.13617</ele>
        <time>2021-12-26T08:49:02.999Z</time>
      </trkpt>
      <trkpt lat="48.0578" lon="-1.53593">
        <ele>70.29483</ele>
        <time>2021-12-26T08:49:03.999Z</time>
      </trkpt>
      <trkpt lat="48.05776" lon="-1.53596">
        <ele>70.44061</ele>
        <time>2021-12-26T08:49:04.999Z</time>
      </trkpt>
      <trkpt lat="48.05774" lon="-1.53602">
        <ele>70.58578</ele>
        <time>2021-12-26T08:49:05.999Z</time>
      </trkpt>
      <trkpt lat="48.05774" lon="-1.53602">
        <ele>70.58578</ele>
        <time>2021-12-26T08:49:05.999Z</time>
      </trkpt>
      <trkpt lat="48.05773" lon="-1.53608">
        <ele>70.6881</ele>
        <time>2021-12-26T08:49:06.999Z</time>
      </trkpt>
      <trkpt lat="48.05774" lon="-1.53615">
        <ele>70.76341</ele>
        <time>2021-12-26T08:49:07.999Z</time>
      </trkpt>
      <trkpt lat="48.05774" lon="-1.53621">
        <ele>70.83368</ele>
        <time>2021-12-26T08:49:08.999Z</time>
      </trkpt>
      <trkpt lat="48.05775" lon="-1.53628">
        <ele>70.90207</ele>
        <time>2021-12-26T08:49:09.999Z</time>
      </trkpt>
      <trkpt lat="48.05776" lon="-1.53635">
        <ele>70.97974</ele>
        <time>2021-12-26T08:49:10.999Z</time>
      </trkpt>
      <trkpt lat="48.05777" lon="-1.53643">
        <ele>71.05591</ele>
        <time>2021-12-26T08:49:11.999Z</time>
      </trkpt>
      <trkpt lat="48.05778" lon="-1.5365">
        <ele>71.11564</ele>
        <time>2021-12-26T08:49:12.999Z</time>
      </trkpt>
      <trkpt lat="48.05778" lon="-1.53657">
        <ele>71.16445</ele>
        <time>2021-12-26T08:49:13.999Z</time>
      </trkpt>
      <trkpt lat="48.05779" lon="-1.53664">
        <ele>71.20723</ele>
        <time>2021-12-26T08:49:14.999Z</time>
      </trkpt>
      <trkpt lat="48.0578" lon="-1.53671">
        <ele>71.25589</ele>
        <time>2021-12-26T08:49:15.999Z</time>
      </trkpt>
      <trkpt lat="48.0578" lon="-1.53679">
        <ele>71.31279</ele>
        <time>2021-12-26T08:49:16.999Z</time>
      </trkpt>
      <trkpt lat="48.05781" lon="-1.53686">
        <ele>71.3853</ele>
        <time>2021-12-26T08:49:17.999Z</time>
      </trkpt>
      <trkpt lat="48.05782" lon="-1.53693">
        <ele>71.46568</ele>
        <time>2021-12-26T08:49:18.999Z</time>
      </trkpt>
      <trkpt lat="48.05783" lon="-1.537">
        <ele>71.54698</ele>
        <time>2021-12-26T08:49:19.999Z</time>
      </trkpt>
      <trkpt lat="48.05784" lon="-1.53708">
        <ele>71.62656</ele>
        <time>2021-12-26T08:49:20.999Z</time>
      </trkpt>
      <trkpt lat="48.05785" lon="-1.53715">
        <ele>71.70673</ele>
        <time>2021-12-26T08:49:21.999Z</time>
      </trkpt>
      <trkpt lat="48.05785" lon="-1.53722">
        <ele>71.77923</ele>
        <time>2021-12-26T08:49:22.999Z</time>
      </trkpt>
      <trkpt lat="48.05786" lon="-1.5373">
        <ele>71.85038</ele>
        <time>2021-12-26T08:49:23.999Z</time>
      </trkpt>
      <trkpt lat="48.05787" lon="-1.53737">
        <ele>71.91526</ele>
        <time>2021-12-26T08:49:24.999Z</time>
      </trkpt>
      <trkpt lat="48.05788" lon="-1.53745">
        <ele>71.97768</ele>
        <time>2021-12-26T08:49:25.999Z</time>
      </trkpt>
      <trkpt lat="48.05789" lon="-1.53752">
        <ele>72.03473</ele>
        <time>2021-12-26T08:49:26.999Z</time>
      </trkpt>
      <trkpt lat="48.05791" lon="-1.5376">
        <ele>72.08113</ele>
        <time>2021-12-26T08:49:27.999Z</time>
      </trkpt>
      <trkpt lat="48.05792" lon="-1.53767">
        <ele>72.11493</ele>
        <time>2021-12-26T08:49:28.999Z</time>
      </trkpt>
      <trkpt lat="48.05793" lon="-1.53775">
        <ele>72.14331</ele>
        <time>2021-12-26T08:49:29.999Z</time>
      </trkpt>
      <trkpt lat="48.05795" lon="-1.53782">
        <ele>72.18037</ele>
        <time>2021-12-26T08:49:30.999Z</time>
      </trkpt>
      <trkpt lat="48.05797" lon="-1.5379">
        <ele>72.24265</ele>
        <time>2021-12-26T08:49:31.999Z</time>
      </trkpt>
      <trkpt lat="48.05799" lon="-1.53797">
        <ele>72.33623</ele>
        <time>2021-12-26T08:49:32.999Z</time>
      </trkpt>
      <trkpt lat="48.05801" lon="-1.53804">
        <ele>72.43877</ele>
        <time>2021-12-26T08:49:33.999Z</time>
      </trkpt>
      <trkpt lat="48.05803" lon="-1.53812">
        <ele>72.52212</ele>
        <time>2021-12-26T08:49:34.999Z</time>
      </trkpt>
      <trkpt lat="48.05805" lon="-1.53819">
        <ele>72.56646</ele>
        <time>2021-12-26T08:49:35.999Z</time>
      </trkpt>
      <trkpt lat="48.05807" lon="-1.53826">
        <ele>72.56397</ele>
        <time>2021-12-26T08:49:36.999Z</time>
      </trkpt>
      <trkpt lat="48.0581" lon="-1.53833">
        <ele>72.51015</ele>
        <time>2021-12-26T08:49:37.999Z</time>
      </trkpt>
      <trkpt lat="48.05812" lon="-1.5384">
        <ele>72.41039</ele>
        <time>2021-12-26T08:49:38.999Z</time>
      </trkpt>
      <trkpt lat="48.05815" lon="-1.53846">
        <ele>72.29261</ele>
        <time>2021-12-26T08:49:39.999Z</time>
      </trkpt>
      <trkpt lat="48.05818" lon="-1.53853">
        <ele>72.19071</ele>
        <time>2021-12-26T08:49:40.999Z</time>
      </trkpt>
      <trkpt lat="48.05821" lon="-1.53859">
        <ele>72.11848</ele>
        <time>2021-12-26T08:49:41.999Z</time>
      </trkpt>
      <trkpt lat="48.05824" lon="-1.53866">
        <ele>72.07269</ele>
        <time>2021-12-26T08:49:42.999Z</time>
      </trkpt>
      <trkpt lat="48.05827" lon="-1.53872">
        <ele>72.02427</ele>
        <time>2021-12-26T08:49:43.999Z</time>
      </trkpt>
      <trkpt lat="48.0583" lon="-1.53879">
        <ele>71.95577</ele>
        <time>2021-12-26T08:49:44.999Z</time>
      </trkpt>
      <trkpt lat="48.05834" lon="-1.53885">
        <ele>71.86619</ele>
        <time>2021-12-26T08:49:45.999Z</time>
      </trkpt>
      <trkpt lat="48.05838" lon="-1.53891">
        <ele>71.77536</ele>
        <time>2021-12-26T08:49:46.999Z</time>
      </trkpt>
      <trkpt lat="48.05841" lon="-1.53898">
        <ele>71.6937</ele>
        <time>2021-12-26T08:49:47.999Z</time>
      </trkpt>
      <trkpt lat="48.05845" lon="-1.53904">
        <ele>71.64018</ele>
        <time>2021-12-26T08:49:48.999Z</time>
      </trkpt>
      <trkpt lat="48.05848" lon="-1.53911">
        <ele>71.5921</ele>
        <time>2021-12-26T08:49:49.999Z</time>
      </trkpt>
      <trkpt lat="48.05852" lon="-1.53917">
        <ele>71.55043</ele>
        <time>2021-12-26T08:49:50.999Z</time>
      </trkpt>
      <trkpt lat="48.05856" lon="-1.53924">
        <ele>71.48752</ele>
        <time>2021-12-26T08:49:51.999Z</time>
      </trkpt>
      <trkpt lat="48.0586" lon="-1.53931">
        <ele>71.38041</ele>
        <time>2021-12-26T08:49:52.999Z</time>
      </trkpt>
      <trkpt lat="48.05864" lon="-1.53938">
        <ele>71.26759</ele>
        <time>2021-12-26T08:49:53.999Z</time>
      </trkpt>
      <trkpt lat="48.05868" lon="-1.53945">
        <ele>71.15619</ele>
        <time>2021-12-26T08:49:54.999Z</time>
      </trkpt>
      <trkpt lat="48.05872" lon="-1.53952">
        <ele>71.06609</ele>
        <time>2021-12-26T08:49:55.999Z</time>
      </trkpt>
      <trkpt lat="48.05876" lon="-1.53959">
        <ele>70.9883</ele>
        <time>2021-12-26T08:49:56.999Z</time>
      </trkpt>
      <trkpt lat="48.0588" lon="-1.53966">
        <ele>70.90718</ele>
        <time>2021-12-26T08:49:57.999Z</time>
      </trkpt>
      <trkpt lat="48.05884" lon="-1.53973">
        <ele>70.79617</ele>
        <time>2021-12-26T08:49:58.999Z</time>
      </trkpt>
      <trkpt lat="48.05888" lon="-1.53979">
        <ele>70.65155</ele>
        <time>2021-12-26T08:49:59.999Z</time>
      </trkpt>
      <trkpt lat="48.05892" lon="-1.53987">
        <ele>70.48559</ele>
        <time>2021-12-26T08:50:00.999Z</time>
      </trkpt>
      <trkpt lat="48.05896" lon="-1.53994">
        <ele>70.34528</ele>
        <time>2021-12-26T08:50:01.999Z</time>
      </trkpt>
      <trkpt lat="48.05901" lon="-1.54001">
        <ele>70.26159</ele>
        <time>2021-12-26T08:50:02.999Z</time>
      </trkpt>
      <trkpt lat="48.05905" lon="-1.54008">
        <ele>70.21104</ele>
        <time>2021-12-26T08:50:03.999Z</time>
      </trkpt>
      <trkpt lat="48.05909" lon="-1.54015">
        <ele>70.11232</ele>
        <time>2021-12-26T08:50:04.999Z</time>
      </trkpt>
      <trkpt lat="48.05914" lon="-1.54022">
        <ele>69.94206</ele>
        <time>2021-12-26T08:50:05.999Z</time>
      </trkpt>
      <trkpt lat="48.05918" lon="-1.54029">
        <ele>69.76793</ele>
        <time>2021-12-26T08:50:06.999Z</time>
      </trkpt>
      <trkpt lat="48.05922" lon="-1.54036">
        <ele>69.73576</ele>
        <time>2021-12-26T08:50:07.999Z</time>
      </trkpt>
      <trkpt lat="48.05927" lon="-1.54044">
        <ele>69.85229</ele>
        <time>2021-12-26T08:50:08.999Z</time>
      </trkpt>
      <trkpt lat="48.05931" lon="-1.54051">
        <ele>69.82759</ele>
        <time>2021-12-26T08:50:09.999Z</time>
      </trkpt>
      <trkpt lat="48.05935" lon="-1.54059">
        <ele>69.50444</ele>
        <time>2021-12-26T08:50:10.999Z</time>
      </trkpt>
      <trkpt lat="48.05939" lon="-1.54066">
        <ele>68.94361</ele>
        <time>2021-12-26T08:50:11.999Z</time>
      </trkpt>
      <trkpt lat="48.05943" lon="-1.54073">
        <ele>68.33633</ele>
        <time>2021-12-26T08:50:12.999Z</time>
      </trkpt>
      <trkpt lat="48.05947" lon="-1.54081">
        <ele>67.82729</ele>
        <time>2021-12-26T08:50:13.999Z</time>
      </trkpt>
      <trkpt lat="48.0595" lon="-1.54088">
        <ele>67.58043</ele>
        <time>2021-12-26T08:50:14.999Z</time>
      </trkpt>
      <trkpt lat="48.05953" lon="-1.54096">
        <ele>67.60359</ele>
        <time>2021-12-26T08:50:15.999Z</time>
      </trkpt>
      <trkpt lat="48.05956" lon="-1.54105">
        <ele>67.82793</ele>
        <time>2021-12-26T08:50:16.999Z</time>
      </trkpt>
      <trkpt lat="48.05959" lon="-1.54113">
        <ele>68.1703</ele>
        <time>2021-12-26T08:50:17.999Z</time>
      </trkpt>
      <trkpt lat="48.05961" lon="-1.54121">
        <ele>68.53354</ele>
        <time>2021-12-26T08:50:18.999Z</time>
      </trkpt>
      <trkpt lat="48.05963" lon="-1.5413">
        <ele>68.82645</ele>
        <time>2021-12-26T08:50:19.999Z</time>
      </trkpt>
      <trkpt lat="48.05965" lon="-1.54138">
        <ele>68.99684</ele>
        <time>2021-12-26T08:50:20.999Z</time>
      </trkpt>
      <trkpt lat="48.05966" lon="-1.54147">
        <ele>69.06517</ele>
        <time>2021-12-26T08:50:21.999Z</time>
      </trkpt>
      <trkpt lat="48.05967" lon="-1.54156">
        <ele>69.09191</ele>
        <time>2021-12-26T08:50:22.999Z</time>
      </trkpt>
      <trkpt lat="48.05968" lon="-1.54164">
        <ele>69.13368</ele>
        <time>2021-12-26T08:50:23.999Z</time>
      </trkpt>
      <trkpt lat="48.05969" lon="-1.54173">
        <ele>69.20357</ele>
        <time>2021-12-26T08:50:24.999Z</time>
      </trkpt>
      <trkpt lat="48.0597" lon="-1.54182">
        <ele>69.27833</ele>
        <time>2021-12-26T08:50:25.999Z</time>
      </trkpt>
      <trkpt lat="48.05971" lon="-1.5419">
        <ele>69.32855</ele>
        <time>2021-12-26T08:50:26.999Z</time>
      </trkpt>
      <trkpt lat="48.05972" lon="-1.54199">
        <ele>69.39088</ele>
        <time>2021-12-26T08:50:27.999Z</time>
      </trkpt>
      <trkpt lat="48.05972" lon="-1.54207">
        <ele>69.46037</ele>
        <time>2021-12-26T08:50:28.999Z</time>
      </trkpt>
      <trkpt lat="48.05973" lon="-1.54216">
        <ele>69.52724</ele>
        <time>2021-12-26T08:50:29.999Z</time>
      </trkpt>
      <trkpt lat="48.05973" lon="-1.54224">
        <ele>69.59312</ele>
        <time>2021-12-26T08:50:30.999Z</time>
      </trkpt>
      <trkpt lat="48.05974" lon="-1.54233">
        <ele>69.65822</ele>
        <time>2021-12-26T08:50:31.999Z</time>
      </trkpt>
      <trkpt lat="48.05974" lon="-1.54241">
        <ele>69.73024</ele>
        <time>2021-12-26T08:50:32.999Z</time>
      </trkpt>
      <trkpt lat="48.05974" lon="-1.54249">
        <ele>69.81229</ele>
        <time>2021-12-26T08:50:33.999Z</time>
      </trkpt>
      <trkpt lat="48.05974" lon="-1.54258">
        <ele>69.89242</ele>
        <time>2021-12-26T08:50:34.999Z</time>
      </trkpt>
      <trkpt lat="48.05974" lon="-1.54266">
        <ele>69.98879</ele>
        <time>2021-12-26T08:50:35.999Z</time>
      </trkpt>
      <trkpt lat="48.05974" lon="-1.54274">
        <ele>70.08103</ele>
        <time>2021-12-26T08:50:36.999Z</time>
      </trkpt>
      <trkpt lat="48.05973" lon="-1.54283">
        <ele>70.1631</ele>
        <time>2021-12-26T08:50:37.999Z</time>
      </trkpt>
      <trkpt lat="48.05973" lon="-1.54291">
        <ele>70.24202</ele>
        <time>2021-12-26T08:50:38.999Z</time>
      </trkpt>
      <trkpt lat="48.05973" lon="-1.54299">
        <ele>70.34886</ele>
        <time>2021-12-26T08:50:39.999Z</time>
      </trkpt>
      <trkpt lat="48.05972" lon="-1.54306">
        <ele>70.49311</ele>
        <time>2021-12-26T08:50:40.999Z</time>
      </trkpt>
      <trkpt lat="48.05972" lon="-1.54314">
        <ele>70.70268</ele>
        <time>2021-12-26T08:50:41.999Z</time>
      </trkpt>
      <trkpt lat="48.05972" lon="-1.54322">
        <ele>70.94315</ele>
        <time>2021-12-26T08:50:42.999Z</time>
      </trkpt>
      <trkpt lat="48.05971" lon="-1.5433">
        <ele>71.17005</ele>
        <time>2021-12-26T08:50:43.999Z</time>
      </trkpt>
      <trkpt lat="48.05971" lon="-1.54338">
        <ele>71.34666</ele>
        <time>2021-12-26T08:50:44.999Z</time>
      </trkpt>
      <trkpt lat="48.05971" lon="-1.54346">
        <ele>71.45553</ele>
        <time>2021-12-26T08:50:45.999Z</time>
      </trkpt>
      <trkpt lat="48.05971" lon="-1.54354">
        <ele>71.51218</ele>
        <time>2021-12-26T08:50:46.999Z</time>
      </trkpt>
      <trkpt lat="48.0597" lon="-1.54361">
        <ele>71.55363</ele>
        <time>2021-12-26T08:50:47.999Z</time>
      </trkpt>
      <trkpt lat="48.0597" lon="-1.54369">
        <ele>71.60653</ele>
        <time>2021-12-26T08:50:48.999Z</time>
      </trkpt>
      <trkpt lat="48.0597" lon="-1.54377">
        <ele>71.69778</ele>
        <time>2021-12-26T08:50:49.999Z</time>
      </trkpt>
      <trkpt lat="48.0597" lon="-1.54384">
        <ele>71.81438</ele>
        <time>2021-12-26T08:50:50.999Z</time>
      </trkpt>
      <trkpt lat="48.05969" lon="-1.54392">
        <ele>71.93721</ele>
        <time>2021-12-26T08:50:51.999Z</time>
      </trkpt>
      <trkpt lat="48.05969" lon="-1.544">
        <ele>72.04884</ele>
        <time>2021-12-26T08:50:52.999Z</time>
      </trkpt>
      <trkpt lat="48.05969" lon="-1.54407">
        <ele>72.13673</ele>
        <time>2021-12-26T08:50:53.999Z</time>
      </trkpt>
      <trkpt lat="48.05968" lon="-1.54414">
        <ele>72.18966</ele>
        <time>2021-12-26T08:50:54.999Z</time>
      </trkpt>
      <trkpt lat="48.05968" lon="-1.54422">
        <ele>72.22213</ele>
        <time>2021-12-26T08:50:55.999Z</time>
      </trkpt>
      <trkpt lat="48.05968" lon="-1.54429">
        <ele>72.25851</ele>
        <time>2021-12-26T08:50:56.999Z</time>
      </trkpt>
      <trkpt lat="48.05967" lon="-1.54436">
        <ele>72.31035</ele>
        <time>2021-12-26T08:50:57.999Z</time>
      </trkpt>
      <trkpt lat="48.05967" lon="-1.54444">
        <ele>72.39985</ele>
        <time>2021-12-26T08:50:58.999Z</time>
      </trkpt>
      <trkpt lat="48.05967" lon="-1.54451">
        <ele>72.5157</ele>
        <time>2021-12-26T08:50:59.999Z</time>
      </trkpt>
      <trkpt lat="48.05966" lon="-1.54458">
        <ele>72.64218</ele>
        <time>2021-12-26T08:51:00.999Z</time>
      </trkpt>
      <trkpt lat="48.05966" lon="-1.54465">
        <ele>72.76787</ele>
        <time>2021-12-26T08:51:01.999Z</time>
      </trkpt>
      <trkpt lat="48.05966" lon="-1.54473">
        <ele>72.88952</ele>
        <time>2021-12-26T08:51:02.999Z</time>
      </trkpt>
      <trkpt lat="48.05966" lon="-1.5448">
        <ele>72.99791</ele>
        <time>2021-12-26T08:51:03.999Z</time>
      </trkpt>
      <trkpt lat="48.05965" lon="-1.54486">
        <ele>73.10364</ele>
        <time>2021-12-26T08:51:04.999Z</time>
      </trkpt>
      <trkpt lat="48.05965" lon="-1.54493">
        <ele>73.20832</ele>
        <time>2021-12-26T08:51:05.999Z</time>
      </trkpt>
      <trkpt lat="48.05965" lon="-1.545">
        <ele>73.31743</ele>
        <time>2021-12-26T08:51:06.999Z</time>
      </trkpt>
      <trkpt lat="48.05965" lon="-1.54506">
        <ele>73.44095</ele>
        <time>2021-12-26T08:51:07.999Z</time>
      </trkpt>
      <trkpt lat="48.05964" lon="-1.54512">
        <ele>73.57719</ele>
        <time>2021-12-26T08:51:08.999Z</time>
      </trkpt>
      <trkpt lat="48.05964" lon="-1.54518">
        <ele>73.72446</ele>
        <time>2021-12-26T08:51:09.999Z</time>
      </trkpt>
      <trkpt lat="48.05965" lon="-1.54524">
        <ele>73.87142</ele>
        <time>2021-12-26T08:51:10.999Z</time>
      </trkpt>
      <trkpt lat="48.05964" lon="-1.5453">
        <ele>74.0223</ele>
        <time>2021-12-26T08:51:11.999Z</time>
      </trkpt>
      <trkpt lat="48.05963" lon="-1.54535">
        <ele>74.16145</ele>
        <time>2021-12-26T08:51:12.999Z</time>
      </trkpt>
      <trkpt lat="48.0596" lon="-1.54537">
        <ele>74.26949</ele>
        <time>2021-12-26T08:51:13.999Z</time>
      </trkpt>
      <trkpt lat="48.05957" lon="-1.54537">
        <ele>74.31977</ele>
        <time>2021-12-26T08:51:14.999Z</time>
      </trkpt>
      <trkpt lat="48.05953" lon="-1.54536">
        <ele>74.35876</ele>
        <time>2021-12-26T08:51:15.999Z</time>
      </trkpt>
      <trkpt lat="48.05952" lon="-1.54532">
        <ele>74.27269</ele>
        <time>2021-12-26T08:51:16.999Z</time>
      </trkpt>
      <trkpt lat="48.05952" lon="-1.54527">
        <ele>74.16401</ele>
        <time>2021-12-26T08:51:17.999Z</time>
      </trkpt>
      <trkpt lat="48.05952" lon="-1.54527">
        <ele>74.16401</ele>
      </trkpt>
      <trkpt lat="48.05951" lon="-1.54521">
        <ele>74.03999</ele>
      </trkpt>
      <trkpt lat="48.05949" lon="-1.54515">
        <ele>73.92515</ele>
      </trkpt>
      <trkpt lat="48.05948" lon="-1.54509">
        <ele>73.79899</ele>
      </trkpt>
      <trkpt lat="48.05948" lon="-1.54503">
        <ele>73.68327</ele>
      </trkpt>
      <trkpt lat="48.05947" lon="-1.54497">
        <ele>73.58721</ele>
      </trkpt>
      <trkpt lat="48.05946" lon="-1.54491">
        <ele>73.49457</ele>
      </trkpt>
      <trkpt lat="48.05944" lon="-1.54487">
        <ele>73.41949</ele>
      </trkpt>
      <trkpt lat="48.05941" lon="-1.54484">
        <ele>73.36461</ele>
      </trkpt>
      <trkpt lat="48.05939" lon="-1.54482">
        <ele>73.32132</ele>
      </trkpt>
      <trkpt lat="48.05935" lon="-1.54485">
        <ele>73.35415</ele>
      </trkpt>
      <trkpt lat="48.05932" lon="-1.54487">
        <ele>73.39298</ele>
      </trkpt>
      <trkpt lat="48.05929" lon="-1.54488">
        <ele>73.4154</ele>
      </trkpt>
      <trkpt lat="48.05925" lon="-1.54489">
        <ele>73.45206</ele>
      </trkpt>
      <trkpt lat="48.05922" lon="-1.54491">
        <ele>73.50137</ele>
      </trkpt>
      <trkpt lat="48.05918" lon="-1.54492">
        <ele>73.54562</ele>
      </trkpt>
      <trkpt lat="48.05914" lon="-1.54493">
        <ele>73.56893</ele>
      </trkpt>
      <trkpt lat="48.0591" lon="-1.54492">
        <ele>73.5772</ele>
      </trkpt>
      <trkpt lat="48.05905" lon="-1.54491">
        <ele>73.55856</ele>
      </trkpt>
      <trkpt lat="48.05901" lon="-1.54488">
        <ele>73.55175</ele>
      </trkpt>
      <trkpt lat="48.05897" lon="-1.54487">
        <ele>73.58151</ele>
      </trkpt>
      <trkpt lat="48.05892" lon="-1.54485">
        <ele>73.61879</ele>
      </trkpt>
      <trkpt lat="48.05887" lon="-1.54483">
        <ele>73.65638</ele>
      </trkpt>
      <trkpt lat="48.05883" lon="-1.54481">
        <ele>73.66695</ele>
      </trkpt>
      <trkpt lat="48.05878" lon="-1.54479">
        <ele>73.64869</ele>
      </trkpt>
      <trkpt lat="48.05873" lon="-1.54477">
        <ele>73.6078</ele>
      </trkpt>
      <trkpt lat="48.05868" lon="-1.54475">
        <ele>73.54292</ele>
      </trkpt>
      <trkpt lat="48.05863" lon="-1.54473">
        <ele>73.44061</ele>
      </trkpt>
      <trkpt lat="48.05858" lon="-1.54471">
        <ele>73.29814</ele>
      </trkpt>
      <trkpt lat="48.05852" lon="-1.54469">
        <ele>73.10182</ele>
      </trkpt>
      <trkpt lat="48.05847" lon="-1.54467">
        <ele>72.86682</ele>
      </trkpt>
      <trkpt lat="48.05841" lon="-1.54465">
        <ele>72.607</ele>
      </trkpt>
      <trkpt lat="48.05835" lon="-1.54463">
        <ele>72.35314</ele>
      </trkpt>
      <trkpt lat="48.05829" lon="-1.54462">
        <ele>72.07327</ele>
      </trkpt>
      <trkpt lat="48.05823" lon="-1.5446">
        <ele>71.77194</ele>
      </trkpt>
      <trkpt lat="48.05817" lon="-1.54458">
        <ele>71.49236</ele>
      </trkpt>
      <trkpt lat="48.05811" lon="-1.54457">
        <ele>71.25141</ele>
      </trkpt>
      <trkpt lat="48.05804" lon="-1.54455">
        <ele>71.04895</ele>
      </trkpt>
      <trkpt lat="48.05798" lon="-1.54453">
        <ele>70.87043</ele>
      </trkpt>
      <trkpt lat="48.05792" lon="-1.54452">
        <ele>70.67934</ele>
      </trkpt>
      <trkpt lat="48.05785" lon="-1.5445">
        <ele>70.46567</ele>
      </trkpt>
      <trkpt lat="48.05779" lon="-1.54447">
        <ele>70.2459</ele>
      </trkpt>
      <trkpt lat="48.05772" lon="-1.54444">
        <ele>70.05433</ele>
      </trkpt>
      <trkpt lat="48.05766" lon="-1.54441">
        <ele>69.90609</ele>
      </trkpt>
      <trkpt lat="48.0576" lon="-1.54437">
        <ele>69.7883</ele>
      </trkpt>
      <trkpt lat="48.05755" lon="-1.54433">
        <ele>69.68093</ele>
      </trkpt>
      <trkpt lat="48.05749" lon="-1.54429">
        <ele>69.56346</ele>
      </trkpt>
      <trkpt lat="48.05743" lon="-1.54425">
        <ele>69.42206</ele>
      </trkpt>
      <trkpt lat="48.05738" lon="-1.54422">
        <ele>69.26158</ele>
      </trkpt>
      <trkpt lat="48.05731" lon="-1.54419">
        <ele>69.09718</ele>
      </trkpt>
      <trkpt lat="48.05725" lon="-1.54417">
        <ele>68.97515</ele>
      </trkpt>
      <trkpt lat="48.05719" lon="-1.54416">
        <ele>68.92533</ele>
      </trkpt>
      <trkpt lat="48.05713" lon="-1.54418">
        <ele>68.93058</ele>
      </trkpt>
      <trkpt lat="48.05707" lon="-1.5442">
        <ele>68.94813</ele>
      </trkpt>
      <trkpt lat="48.05702" lon="-1.54422">
        <ele>68.95645</ele>
      </trkpt>
      <trkpt lat="48.05696" lon="-1.54425">
        <ele>68.95443</ele>
      </trkpt>
      <trkpt lat="48.0569" lon="-1.54427">
        <ele>68.93734</ele>
      </trkpt>
      <trkpt lat="48.05685" lon="-1.54428">
        <ele>68.90508</ele>
      </trkpt>
      <trkpt lat="48.05679" lon="-1.54429">
        <ele>68.87108</ele>
      </trkpt>
      <trkpt lat="48.05674" lon="-1.54431">
        <ele>68.85266</ele>
      </trkpt>
      <trkpt lat="48.05669" lon="-1.54432">
        <ele>68.83402</ele>
      </trkpt>
      <trkpt lat="48.05663" lon="-1.54433">
        <ele>68.78805</ele>
      </trkpt>
      <trkpt lat="48.05658" lon="-1.54433">
        <ele>68.69932</ele>
      </trkpt>
      <trkpt lat="48.05652" lon="-1.54434">
        <ele>68.54629</ele>
      </trkpt>
      <trkpt lat="48.05647" lon="-1.54435">
        <ele>68.36754</ele>
      </trkpt>
      <trkpt lat="48.05641" lon="-1.54436">
        <ele>68.17241</ele>
      </trkpt>
      <trkpt lat="48.05636" lon="-1.54437">
        <ele>67.97294</ele>
      </trkpt>
      <trkpt lat="48.05632" lon="-1.54438">
        <ele>67.78698</ele>
      </trkpt>
      <trkpt lat="48.05629" lon="-1.54439">
        <ele>67.66565</ele>
      </trkpt>
      <trkpt lat="48.05629" lon="-1.54439">
        <ele>67.66565</ele>
      </trkpt>
      <trkpt lat="48.0563" lon="-1.54442">
        <ele>67.71147</ele>
      </trkpt>
      <trkpt lat="48.05632" lon="-1.54444">
        <ele>67.7982</ele>
      </trkpt>
      <trkpt lat="48.05635" lon="-1.54447">
        <ele>67.9042</ele>
      </trkpt>
      <trkpt lat="48.05637" lon="-1.54449">
        <ele>67.97352</ele>
      </trkpt>
      <trkpt lat="48.05639" lon="-1.54451">
        <ele>68.04812</ele>
      </trkpt>
      <trkpt lat="48.05639" lon="-1.54454">
        <ele>68.06398</ele>
      </trkpt>
      <trkpt lat="48.0564" lon="-1.54459">
        <ele>68.05953</ele>
      </trkpt>
      <trkpt lat="48.05639" lon="-1.54463">
        <ele>68.03293</ele>
      </trkpt>
      <trkpt lat="48.05639" lon="-1.54467">
        <ele>67.99562</ele>
      </trkpt>
      <trkpt lat="48.05639" lon="-1.54472">
        <ele>67.93313</ele>
      </trkpt>
      <trkpt lat="48.05638" lon="-1.54476">
        <ele>67.85123</ele>
      </trkpt>
      <trkpt lat="48.05637" lon="-1.5448">
        <ele>67.76707</ele>
      </trkpt>
      <trkpt lat="48.05636" lon="-1.54484">
        <ele>67.64735</ele>
      </trkpt>
      <trkpt lat="48.05634" lon="-1.54487">
        <ele>67.52487</ele>
      </trkpt>
      <trkpt lat="48.05632" lon="-1.54489">
        <ele>67.35426</ele>
      </trkpt>
      <trkpt lat="48.0563" lon="-1.54493">
        <ele>67.20437</ele>
      </trkpt>
      <trkpt lat="48.05631" lon="-1.54498">
        <ele>67.13559</ele>
      </trkpt>
      <trkpt lat="48.0563" lon="-1.54503">
        <ele>67.01564</ele>
      </trkpt>
      <trkpt lat="48.0563" lon="-1.54508">
        <ele>66.91124</ele>
      </trkpt>
      <trkpt lat="48.05629" lon="-1.54512">
        <ele>66.80251</ele>
      </trkpt>
      <trkpt lat="48.05629" lon="-1.54517">
        <ele>66.70879</ele>
      </trkpt>
      <trkpt lat="48.05629" lon="-1.54522">
        <ele>66.60923</ele>
      </trkpt>
      <trkpt lat="48.05629" lon="-1.54526">
        <ele>66.52712</ele>
      </trkpt>
      <trkpt lat="48.05629" lon="-1.54531">
        <ele>66.42546</ele>
      </trkpt>
      <trkpt lat="48.05629" lon="-1.54535">
        <ele>66.31615</ele>
      </trkpt>
      <trkpt lat="48.05629" lon="-1.5454">
        <ele>66.19092</ele>
      </trkpt>
      <trkpt lat="48.05628" lon="-1.54545">
        <ele>66.04381</ele>
      </trkpt>
      <trkpt lat="48.05628" lon="-1.5455">
        <ele>65.89064</ele>
      </trkpt>
      <trkpt lat="48.05628" lon="-1.54554">
        <ele>65.7673</ele>
      </trkpt>
      <trkpt lat="48.05627" lon="-1.54559">
        <ele>65.6326</ele>
      </trkpt>
      <trkpt lat="48.05627" lon="-1.54562">
        <ele>65.54569</ele>
      </trkpt>
      <trkpt lat="48.05627" lon="-1.54567">
        <ele>65.3916</ele>
      </trkpt>
      <trkpt lat="48.05627" lon="-1.54572">
        <ele>65.23919</ele>
      </trkpt>
      <trkpt lat="48.05626" lon="-1.54576">
        <ele>65.07691</ele>
      </trkpt>
      <trkpt lat="48.05625" lon="-1.54581">
        <ele>64.8871</ele>
      </trkpt>
      <trkpt lat="48.05624" lon="-1.54585">
        <ele>64.69615</ele>
      </trkpt>
      <trkpt lat="48.05624" lon="-1.54589">
        <ele>64.52561</ele>
      </trkpt>
      <trkpt lat="48.05623" lon="-1.54593">
        <ele>64.36765</ele>
      </trkpt>
      <trkpt lat="48.05622" lon="-1.54597">
        <ele>64.18211</ele>
      </trkpt>
      <trkpt lat="48.05621" lon="-1.54601">
        <ele>64.00582</ele>
      </trkpt>
      <trkpt lat="48.05621" lon="-1.54606">
        <ele>63.8425</ele>
      </trkpt>
      <trkpt lat="48.05619" lon="-1.5461">
        <ele>63.68486</ele>
      </trkpt>
      <trkpt lat="48.05619" lon="-1.54614">
        <ele>63.52965</ele>
      </trkpt>
      <trkpt lat="48.05618" lon="-1.54619">
        <ele>63.39022</ele>
      </trkpt>
      <trkpt lat="48.05617" lon="-1.54622">
        <ele>63.27269</ele>
      </trkpt>
      <trkpt lat="48.05617" lon="-1.54625">
        <ele>63.17613</ele>
      </trkpt>
      <trkpt lat="48.05616" lon="-1.54629">
        <ele>63.07855</ele>
      </trkpt>
      <trkpt lat="48.05616" lon="-1.54632">
        <ele>62.9816</ele>
      </trkpt>
      <trkpt lat="48.05615" lon="-1.54636">
        <ele>62.88254</ele>
      </trkpt>
      <trkpt lat="48.05614" lon="-1.54639">
        <ele>62.79982</ele>
      </trkpt>
      <trkpt lat="48.05614" lon="-1.54642">
        <ele>62.73143</ele>
      </trkpt>
      <trkpt lat="48.05612" lon="-1.54645">
        <ele>62.68163</ele>
      </trkpt>
      <trkpt lat="48.05611" lon="-1.54648">
        <ele>62.62923</ele>
      </trkpt>
      <trkpt lat="48.05609" lon="-1.5465">
        <ele>62.58081</ele>
      </trkpt>
      <trkpt lat="48.05606" lon="-1.54651">
        <ele>62.55518</ele>
      </trkpt>
      <trkpt lat="48.05602" lon="-1.54651">
        <ele>62.5237</ele>
      </trkpt>
      <trkpt lat="48.05599" lon="-1.54651">
        <ele>62.51015</ele>
      </trkpt>
      <trkpt lat="48.05597" lon="-1.5465">
        <ele>62.50699</ele>
      </trkpt>
      <trkpt lat="48.05595" lon="-1.54649">
        <ele>62.50623</ele>
      </trkpt>
      <trkpt lat="48.05593" lon="-1.54649">
        <ele>62.47519</ele>
      </trkpt>
      <trkpt lat="48.05591" lon="-1.5465">
        <ele>62.44205</ele>
      </trkpt>
      <trkpt lat="48.05591" lon="-1.5465">
        <ele>62.44205</ele>
        <time>2021-12-26T08:54:11.999Z</time>
      </trkpt>
      <trkpt lat="48.05589" lon="-1.54651">
        <ele>62.39661</ele>
        <time>2021-12-26T08:54:12.999Z</time>
      </trkpt>
      <trkpt lat="48.05587" lon="-1.54653">
        <ele>62.33458</ele>
        <time>2021-12-26T08:54:13.999Z</time>
      </trkpt>
      <trkpt lat="48.05585" lon="-1.54654">
        <ele>62.27589</ele>
        <time>2021-12-26T08:54:14.999Z</time>
      </trkpt>
      <trkpt lat="48.05582" lon="-1.54655">
        <ele>62.22372</ele>
        <time>2021-12-26T08:54:15.999Z</time>
      </trkpt>
      <trkpt lat="48.05579" lon="-1.54656">
        <ele>62.16195</ele>
        <time>2021-12-26T08:54:16.999Z</time>
      </trkpt>
      <trkpt lat="48.05577" lon="-1.54654">
        <ele>62.14893</ele>
        <time>2021-12-26T08:54:17.999Z</time>
      </trkpt>
      <trkpt lat="48.05575" lon="-1.54652">
        <ele>62.12974</ele>
        <time>2021-12-26T08:54:18.999Z</time>
      </trkpt>
      <trkpt lat="48.05572" lon="-1.54651">
        <ele>62.10296</ele>
        <time>2021-12-26T08:54:19.999Z</time>
      </trkpt>
      <trkpt lat="48.0557" lon="-1.54648">
        <ele>62.08061</ele>
        <time>2021-12-26T08:54:20.999Z</time>
      </trkpt>
      <trkpt lat="48.05567" lon="-1.54646">
        <ele>62.05199</ele>
        <time>2021-12-26T08:54:21.999Z</time>
      </trkpt>
      <trkpt lat="48.05564" lon="-1.54643">
        <ele>62.03723</ele>
        <time>2021-12-26T08:54:22.999Z</time>
      </trkpt>
      <trkpt lat="48.05562" lon="-1.5464">
        <ele>62.03016</ele>
        <time>2021-12-26T08:54:23.999Z</time>
      </trkpt>
      <trkpt lat="48.0556" lon="-1.54637">
        <ele>62.03192</ele>
        <time>2021-12-26T08:54:24.999Z</time>
      </trkpt>
      <trkpt lat="48.05562" lon="-1.54627">
        <ele>62.20785</ele>
        <time>2021-12-26T08:54:37.999Z</time>
      </trkpt>
      <trkpt lat="48.05563" lon="-1.54625">
        <ele>62.27695</ele>
        <time>2021-12-26T08:54:38.999Z</time>
      </trkpt>
      <trkpt lat="48.05565" lon="-1.54618">
        <ele>62.41221</ele>
        <time>2021-12-26T08:54:50.999Z</time>
      </trkpt>
      <trkpt lat="48.05562" lon="-1.54615">
        <ele>62.40022</ele>
        <time>2021-12-26T08:54:52.999Z</time>
      </trkpt>
      <trkpt lat="48.05561" lon="-1.54613">
        <ele>62.39058</ele>
        <time>2021-12-26T08:54:53.999Z</time>
      </trkpt>
      <trkpt lat="48.05559" lon="-1.54611">
        <ele>62.38248</ele>
        <time>2021-12-26T08:54:54.999Z</time>
      </trkpt>
      <trkpt lat="48.05557" lon="-1.54609">
        <ele>62.34986</ele>
        <time>2021-12-26T08:54:55.999Z</time>
      </trkpt>
      <trkpt lat="48.05554" lon="-1.54608">
        <ele>62.26252</ele>
        <time>2021-12-26T08:54:56.999Z</time>
      </trkpt>
      <trkpt lat="48.05551" lon="-1.54607">
        <ele>62.1729</ele>
        <time>2021-12-26T08:54:57.999Z</time>
      </trkpt>
      <trkpt lat="48.05549" lon="-1.54605">
        <ele>62.11453</ele>
        <time>2021-12-26T08:54:58.999Z</time>
      </trkpt>
      <trkpt lat="48.05546" lon="-1.54602">
        <ele>62.05784</ele>
        <time>2021-12-26T08:54:59.999Z</time>
      </trkpt>
      <trkpt lat="48.05543" lon="-1.54599">
        <ele>61.99654</ele>
        <time>2021-12-26T08:55:00.999Z</time>
      </trkpt>
      <trkpt lat="48.05539" lon="-1.54601">
        <ele>61.82733</ele>
        <time>2021-12-26T08:55:01.999Z</time>
      </trkpt>
      <trkpt lat="48.05534" lon="-1.54602">
        <ele>61.68788</ele>
        <time>2021-12-26T08:55:02.999Z</time>
      </trkpt>
      <trkpt lat="48.0553" lon="-1.54604">
        <ele>61.57116</ele>
        <time>2021-12-26T08:55:03.999Z</time>
      </trkpt>
      <trkpt lat="48.05527" lon="-1.54605">
        <ele>61.4861</ele>
        <time>2021-12-26T08:55:04.999Z</time>
      </trkpt>
      <trkpt lat="48.05525" lon="-1.54608">
        <ele>61.44137</ele>
        <time>2021-12-26T08:55:05.999Z</time>
      </trkpt>
      <trkpt lat="48.05523" lon="-1.5461">
        <ele>61.4031</ele>
        <time>2021-12-26T08:55:06.999Z</time>
      </trkpt>
      <trkpt lat="48.0552" lon="-1.5461">
        <ele>61.33791</ele>
        <time>2021-12-26T08:55:07.999Z</time>
      </trkpt>
      <trkpt lat="48.05518" lon="-1.54608">
        <ele>61.28612</ele>
        <time>2021-12-26T08:55:08.999Z</time>
      </trkpt>
      <trkpt lat="48.05515" lon="-1.54606">
        <ele>61.19358</ele>
        <time>2021-12-26T08:55:10.999Z</time>
      </trkpt>
      <trkpt lat="48.05513" lon="-1.54607">
        <ele>61.14566</ele>
        <time>2021-12-26T08:55:11.999Z</time>
      </trkpt>
      <trkpt lat="48.05511" lon="-1.54611">
        <ele>61.10145</ele>
        <time>2021-12-26T08:55:13.999Z</time>
      </trkpt>
      <trkpt lat="48.0551" lon="-1.54613">
        <ele>61.0941</ele>
        <time>2021-12-26T08:55:14.999Z</time>
      </trkpt>
      <trkpt lat="48.05509" lon="-1.54618">
        <ele>61.10792</ele>
        <time>2021-12-26T08:55:15.999Z</time>
      </trkpt>
      <trkpt lat="48.05508" lon="-1.54621">
        <ele>61.13481</ele>
        <time>2021-12-26T08:55:16.999Z</time>
      </trkpt>
      <trkpt lat="48.05509" lon="-1.54624">
        <ele>61.18023</ele>
        <time>2021-12-26T08:55:17.999Z</time>
      </trkpt>
      <trkpt lat="48.0551" lon="-1.54629">
        <ele>61.24626</ele>
        <time>2021-12-26T08:55:18.999Z</time>
      </trkpt>
      <trkpt lat="48.0551" lon="-1.54632">
        <ele>61.2823</ele>
        <time>2021-12-26T08:55:19.999Z</time>
      </trkpt>
      <trkpt lat="48.05509" lon="-1.54634">
        <ele>61.29042</ele>
        <time>2021-12-26T08:55:20.999Z</time>
      </trkpt>
      <trkpt lat="48.05507" lon="-1.54638">
        <ele>61.26536</ele>
        <time>2021-12-26T08:55:22.999Z</time>
      </trkpt>
      <trkpt lat="48.05504" lon="-1.54638">
        <ele>61.21064</ele>
        <time>2021-12-26T08:55:23.999Z</time>
      </trkpt>
      <trkpt lat="48.05501" lon="-1.54636">
        <ele>61.14053</ele>
        <time>2021-12-26T08:55:24.999Z</time>
      </trkpt>
      <trkpt lat="48.05499" lon="-1.54635">
        <ele>61.05593</ele>
        <time>2021-12-26T08:55:25.999Z</time>
      </trkpt>
      <trkpt lat="48.05496" lon="-1.54633">
        <ele>60.97708</ele>
        <time>2021-12-26T08:55:26.999Z</time>
      </trkpt>
      <trkpt lat="48.05493" lon="-1.54633">
        <ele>60.91419</ele>
        <time>2021-12-26T08:55:27.999Z</time>
      </trkpt>
      <trkpt lat="48.0549" lon="-1.54632">
        <ele>60.84947</ele>
        <time>2021-12-26T08:55:28.999Z</time>
      </trkpt>
      <trkpt lat="48.05488" lon="-1.54631">
        <ele>60.78491</ele>
        <time>2021-12-26T08:55:29.999Z</time>
      </trkpt>
      <trkpt lat="48.05485" lon="-1.5463">
        <ele>60.68609</ele>
        <time>2021-12-26T08:55:32.999Z</time>
      </trkpt>
      <trkpt lat="48.05481" lon="-1.54632">
        <ele>60.6426</ele>
        <time>2021-12-26T08:55:34.999Z</time>
      </trkpt>
      <trkpt lat="48.05478" lon="-1.54633">
        <ele>60.59274</ele>
        <time>2021-12-26T08:55:35.999Z</time>
      </trkpt>
      <trkpt lat="48.05476" lon="-1.54633">
        <ele>60.54879</ele>
        <time>2021-12-26T08:55:36.999Z</time>
      </trkpt>
      <trkpt lat="48.05474" lon="-1.54632">
        <ele>60.49658</ele>
        <time>2021-12-26T08:55:37.999Z</time>
      </trkpt>
      <trkpt lat="48.05472" lon="-1.5463">
        <ele>60.42822</ele>
        <time>2021-12-26T08:55:38.999Z</time>
      </trkpt>
      <trkpt lat="48.05471" lon="-1.54628">
        <ele>60.36676</ele>
        <time>2021-12-26T08:55:39.999Z</time>
      </trkpt>
      <trkpt lat="48.05468" lon="-1.54626">
        <ele>60.28711</ele>
        <time>2021-12-26T08:55:40.999Z</time>
      </trkpt>
      <trkpt lat="48.05466" lon="-1.54624">
        <ele>60.19626</ele>
        <time>2021-12-26T08:55:41.999Z</time>
      </trkpt>
      <trkpt lat="48.05463" lon="-1.54623">
        <ele>60.11526</ele>
        <time>2021-12-26T08:55:42.999Z</time>
      </trkpt>
      <trkpt lat="48.05462" lon="-1.54622">
        <ele>60.0644</ele>
        <time>2021-12-26T08:55:43.999Z</time>
      </trkpt>
      <trkpt lat="48.05459" lon="-1.54622">
        <ele>60.01093</ele>
        <time>2021-12-26T08:55:44.999Z</time>
      </trkpt>
      <trkpt lat="48.05457" lon="-1.54622">
        <ele>59.9684</ele>
        <time>2021-12-26T08:55:45.999Z</time>
      </trkpt>
      <trkpt lat="48.05455" lon="-1.54621">
        <ele>59.91419</ele>
        <time>2021-12-26T08:55:46.999Z</time>
      </trkpt>
      <trkpt lat="48.05452" lon="-1.54621">
        <ele>59.87495</ele>
        <time>2021-12-26T08:55:47.999Z</time>
      </trkpt>
      <trkpt lat="48.05449" lon="-1.5462">
        <ele>59.85167</ele>
        <time>2021-12-26T08:55:48.999Z</time>
      </trkpt>
      <trkpt lat="48.05447" lon="-1.5462">
        <ele>59.85086</ele>
        <time>2021-12-26T08:55:49.999Z</time>
      </trkpt>
      <trkpt lat="48.05444" lon="-1.54619">
        <ele>59.8804</ele>
        <time>2021-12-26T08:55:50.999Z</time>
      </trkpt>
      <trkpt lat="48.0544" lon="-1.54619">
        <ele>59.95694</ele>
        <time>2021-12-26T08:55:51.999Z</time>
      </trkpt>
      <trkpt lat="48.05437" lon="-1.54619">
        <ele>60.03498</ele>
        <time>2021-12-26T08:55:52.999Z</time>
      </trkpt>
      <trkpt lat="48.05434" lon="-1.54619">
        <ele>60.09523</ele>
        <time>2021-12-26T08:55:53.999Z</time>
      </trkpt>
      <trkpt lat="48.05432" lon="-1.54618">
        <ele>60.15793</ele>
        <time>2021-12-26T08:55:54.999Z</time>
      </trkpt>
      <trkpt lat="48.05429" lon="-1.54618">
        <ele>60.21821</ele>
        <time>2021-12-26T08:55:55.999Z</time>
      </trkpt>
      <trkpt lat="48.05427" lon="-1.54617">
        <ele>60.25377</ele>
        <time>2021-12-26T08:55:56.999Z</time>
      </trkpt>
      <trkpt lat="48.05425" lon="-1.54615">
        <ele>60.26379</ele>
        <time>2021-12-26T08:55:57.999Z</time>
      </trkpt>
      <trkpt lat="48.05423" lon="-1.54613">
        <ele>60.26492</ele>
        <time>2021-12-26T08:55:58.999Z</time>
      </trkpt>
      <trkpt lat="48.05421" lon="-1.54612">
        <ele>60.2714</ele>
        <time>2021-12-26T08:55:59.999Z</time>
      </trkpt>
      <trkpt lat="48.05419" lon="-1.54613">
        <ele>60.30211</ele>
        <time>2021-12-26T08:56:00.999Z</time>
      </trkpt>
      <trkpt lat="48.05418" lon="-1.54616">
        <ele>60.34224</ele>
        <time>2021-12-26T08:56:01.999Z</time>
      </trkpt>
      <trkpt lat="48.05417" lon="-1.54618">
        <ele>60.37702</ele>
        <time>2021-12-26T08:56:02.999Z</time>
      </trkpt>
      <trkpt lat="48.05415" lon="-1.5462">
        <ele>60.40276</ele>
        <time>2021-12-26T08:56:03.999Z</time>
      </trkpt>
      <trkpt lat="48.05412" lon="-1.54619">
        <ele>60.41417</ele>
        <time>2021-12-26T08:56:04.999Z</time>
      </trkpt>
      <trkpt lat="48.05409" lon="-1.54619">
        <ele>60.42526</ele>
        <time>2021-12-26T08:56:05.999Z</time>
      </trkpt>
      <trkpt lat="48.05406" lon="-1.5462">
        <ele>60.43986</ele>
        <time>2021-12-26T08:56:06.999Z</time>
      </trkpt>
      <trkpt lat="48.05403" lon="-1.54621">
        <ele>60.45846</ele>
        <time>2021-12-26T08:56:07.999Z</time>
      </trkpt>
      <trkpt lat="48.054" lon="-1.54621">
        <ele>60.47137</ele>
        <time>2021-12-26T08:56:08.999Z</time>
      </trkpt>
      <trkpt lat="48.05397" lon="-1.54621">
        <ele>60.48163</ele>
        <time>2021-12-26T08:56:09.999Z</time>
      </trkpt>
      <trkpt lat="48.05393" lon="-1.54622">
        <ele>60.48802</ele>
        <time>2021-12-26T08:56:10.999Z</time>
      </trkpt>
      <trkpt lat="48.05391" lon="-1.54621">
        <ele>60.48616</ele>
        <time>2021-12-26T08:56:11.999Z</time>
      </trkpt>
      <trkpt lat="48.05388" lon="-1.5462">
        <ele>60.47704</ele>
        <time>2021-12-26T08:56:12.999Z</time>
      </trkpt>
      <trkpt lat="48.05386" lon="-1.54619">
        <ele>60.46539</ele>
        <time>2021-12-26T08:56:13.999Z</time>
      </trkpt>
      <trkpt lat="48.05384" lon="-1.54617">
        <ele>60.44869</ele>
        <time>2021-12-26T08:56:14.999Z</time>
      </trkpt>
      <trkpt lat="48.05382" lon="-1.54616">
        <ele>60.44043</ele>
        <time>2021-12-26T08:56:15.999Z</time>
      </trkpt>
      <trkpt lat="48.05379" lon="-1.54617">
        <ele>60.44904</ele>
        <time>2021-12-26T08:56:17.999Z</time>
      </trkpt>
      <trkpt lat="48.05376" lon="-1.54616">
        <ele>60.44647</ele>
        <time>2021-12-26T08:56:19.999Z</time>
      </trkpt>
      <trkpt lat="48.05374" lon="-1.54615">
        <ele>60.44438</ele>
        <time>2021-12-26T08:56:20.999Z</time>
      </trkpt>
      <trkpt lat="48.05371" lon="-1.54616">
        <ele>60.45786</ele>
        <time>2021-12-26T08:56:21.999Z</time>
      </trkpt>
      <trkpt lat="48.05369" lon="-1.54617">
        <ele>60.46944</ele>
        <time>2021-12-26T08:56:22.999Z</time>
      </trkpt>
      <trkpt lat="48.05366" lon="-1.54618">
        <ele>60.46619</ele>
        <time>2021-12-26T08:56:23.999Z</time>
      </trkpt>
      <trkpt lat="48.05362" lon="-1.54617">
        <ele>60.44618</ele>
        <time>2021-12-26T08:56:24.999Z</time>
      </trkpt>
      <trkpt lat="48.05359" lon="-1.54617">
        <ele>60.4057</ele>
        <time>2021-12-26T08:56:25.999Z</time>
      </trkpt>
      <trkpt lat="48.05355" lon="-1.54618">
        <ele>60.34779</ele>
        <time>2021-12-26T08:56:26.999Z</time>
      </trkpt>
      <trkpt lat="48.05353" lon="-1.54618">
        <ele>60.28971</ele>
        <time>2021-12-26T08:56:27.999Z</time>
      </trkpt>
      <trkpt lat="48.05351" lon="-1.54619">
        <ele>60.23386</ele>
        <time>2021-12-26T08:56:28.999Z</time>
      </trkpt>
      <trkpt lat="48.05349" lon="-1.54621">
        <ele>60.18885</ele>
        <time>2021-12-26T08:56:29.999Z</time>
      </trkpt>
      <trkpt lat="48.05348" lon="-1.54623">
        <ele>60.13594</ele>
        <time>2021-12-26T08:56:30.999Z</time>
      </trkpt>
      <trkpt lat="48.05348" lon="-1.54623">
        <ele>60.13594</ele>
        <time>2021-12-26T08:56:30.999Z</time>
      </trkpt>
      <trkpt lat="48.05345" lon="-1.54624">
        <ele>60.04768</ele>
        <time>2021-12-26T08:56:31.999Z</time>
      </trkpt>
      <trkpt lat="48.05342" lon="-1.54625">
        <ele>59.9454</ele>
        <time>2021-12-26T08:56:32.999Z</time>
      </trkpt>
      <trkpt lat="48.05341" lon="-1.54628">
        <ele>59.90459</ele>
        <time>2021-12-26T08:56:33.999Z</time>
      </trkpt>
      <trkpt lat="48.05341" lon="-1.54633">
        <ele>59.90478</ele>
        <time>2021-12-26T08:56:35.999Z</time>
      </trkpt>
      <trkpt lat="48.05341" lon="-1.54636">
        <ele>59.91671</ele>
        <time>2021-12-26T08:56:37.000Z</time>
      </trkpt>
      <trkpt lat="48.05338" lon="-1.54641">
        <ele>59.81317</ele>
        <time>2021-12-26T08:56:38.000Z</time>
      </trkpt>
      <trkpt lat="48.05337" lon="-1.54645">
        <ele>59.79896</ele>
        <time>2021-12-26T08:56:39.000Z</time>
      </trkpt>
      <trkpt lat="48.05335" lon="-1.54651">
        <ele>59.73859</ele>
        <time>2021-12-26T08:56:40.000Z</time>
      </trkpt>
      <trkpt lat="48.05334" lon="-1.54656">
        <ele>59.71055</ele>
        <time>2021-12-26T08:56:41.000Z</time>
      </trkpt>
      <trkpt lat="48.05333" lon="-1.54661">
        <ele>59.67158</ele>
        <time>2021-12-26T08:56:42.000Z</time>
      </trkpt>
      <trkpt lat="48.05333" lon="-1.54666">
        <ele>59.64184</ele>
        <time>2021-12-26T08:56:43.000Z</time>
      </trkpt>
      <trkpt lat="48.05332" lon="-1.54671">
        <ele>59.60766</ele>
        <time>2021-12-26T08:56:44.000Z</time>
      </trkpt>
      <trkpt lat="48.05332" lon="-1.54675">
        <ele>59.56849</ele>
        <time>2021-12-26T08:56:45.000Z</time>
      </trkpt>
      <trkpt lat="48.05331" lon="-1.5468">
        <ele>59.49089</ele>
        <time>2021-12-26T08:56:46.000Z</time>
      </trkpt>
      <trkpt lat="48.0533" lon="-1.54685">
        <ele>59.41926</ele>
        <time>2021-12-26T08:56:47.000Z</time>
      </trkpt>
      <trkpt lat="48.05329" lon="-1.5469">
        <ele>59.34541</ele>
        <time>2021-12-26T08:56:48.000Z</time>
      </trkpt>
      <trkpt lat="48.05328" lon="-1.54695">
        <ele>59.24383</ele>
        <time>2021-12-26T08:56:49.000Z</time>
      </trkpt>
      <trkpt lat="48.05327" lon="-1.547">
        <ele>59.15273</ele>
        <time>2021-12-26T08:56:50.000Z</time>
      </trkpt>
      <trkpt lat="48.05326" lon="-1.54705">
        <ele>59.05832</ele>
        <time>2021-12-26T08:56:51.000Z</time>
      </trkpt>
      <trkpt lat="48.05325" lon="-1.54709">
        <ele>58.96377</ele>
        <time>2021-12-26T08:56:52.000Z</time>
      </trkpt>
      <trkpt lat="48.05324" lon="-1.54714">
        <ele>58.8551</ele>
        <time>2021-12-26T08:56:53.000Z</time>
      </trkpt>
      <trkpt lat="48.05323" lon="-1.54719">
        <ele>58.73961</ele>
        <time>2021-12-26T08:56:54.000Z</time>
      </trkpt>
      <trkpt lat="48.05323" lon="-1.54724">
        <ele>58.62805</ele>
        <time>2021-12-26T08:56:55.000Z</time>
      </trkpt>
      <trkpt lat="48.05322" lon="-1.54729">
        <ele>58.50209</ele>
        <time>2021-12-26T08:56:56.000Z</time>
      </trkpt>
      <trkpt lat="48.05322" lon="-1.54734">
        <ele>58.38135</ele>
        <time>2021-12-26T08:56:57.000Z</time>
      </trkpt>
      <trkpt lat="48.05321" lon="-1.54739">
        <ele>58.25406</ele>
        <time>2021-12-26T08:56:58.000Z</time>
      </trkpt>
      <trkpt lat="48.05321" lon="-1.54744">
        <ele>58.12007</ele>
        <time>2021-12-26T08:56:59.000Z</time>
      </trkpt>
      <trkpt lat="48.0532" lon="-1.54749">
        <ele>57.98794</ele>
        <time>2021-12-26T08:57:00.000Z</time>
      </trkpt>
      <trkpt lat="48.05319" lon="-1.54754">
        <ele>57.84787</ele>
        <time>2021-12-26T08:57:01.000Z</time>
      </trkpt>
      <trkpt lat="48.05319" lon="-1.54759">
        <ele>57.70419</ele>
        <time>2021-12-26T08:57:02.000Z</time>
      </trkpt>
      <trkpt lat="48.05318" lon="-1.54764">
        <ele>57.54256</ele>
        <time>2021-12-26T08:57:03.000Z</time>
      </trkpt>
      <trkpt lat="48.05318" lon="-1.54769">
        <ele>57.39032</ele>
        <time>2021-12-26T08:57:04.000Z</time>
      </trkpt>
      <trkpt lat="48.05318" lon="-1.54775">
        <ele>57.26918</ele>
        <time>2021-12-26T08:57:05.000Z</time>
      </trkpt>
      <trkpt lat="48.05318" lon="-1.54779">
        <ele>57.19448</ele>
        <time>2021-12-26T08:57:06.000Z</time>
      </trkpt>
      <trkpt lat="48.05319" lon="-1.54783">
        <ele>57.15558</ele>
        <time>2021-12-26T08:57:07.000Z</time>
      </trkpt>
      <trkpt lat="48.05319" lon="-1.54787">
        <ele>57.13716</ele>
        <time>2021-12-26T08:57:08.000Z</time>
      </trkpt>
      <trkpt lat="48.05318" lon="-1.54792">
        <ele>57.12684</ele>
        <time>2021-12-26T08:57:09.000Z</time>
      </trkpt>
      <trkpt lat="48.05317" lon="-1.54797">
        <ele>57.1539</ele>
        <time>2021-12-26T08:57:10.000Z</time>
      </trkpt>
      <trkpt lat="48.05316" lon="-1.54802">
        <ele>57.21682</ele>
        <time>2021-12-26T08:57:11.000Z</time>
      </trkpt>
      <trkpt lat="48.05315" lon="-1.54807">
        <ele>57.29585</ele>
        <time>2021-12-26T08:57:12.000Z</time>
      </trkpt>
      <trkpt lat="48.05314" lon="-1.54812">
        <ele>57.38102</ele>
        <time>2021-12-26T08:57:13.000Z</time>
      </trkpt>
      <trkpt lat="48.05313" lon="-1.54817">
        <ele>57.45844</ele>
        <time>2021-12-26T08:57:14.000Z</time>
      </trkpt>
      <trkpt lat="48.05313" lon="-1.54822">
        <ele>57.52549</ele>
        <time>2021-12-26T08:57:15.000Z</time>
      </trkpt>
      <trkpt lat="48.05311" lon="-1.54828">
        <ele>57.60267</ele>
        <time>2021-12-26T08:57:16.000Z</time>
      </trkpt>
      <trkpt lat="48.0531" lon="-1.54834">
        <ele>57.67044</ele>
        <time>2021-12-26T08:57:17.000Z</time>
      </trkpt>
      <trkpt lat="48.05309" lon="-1.54839">
        <ele>57.73393</ele>
        <time>2021-12-26T08:57:18.000Z</time>
      </trkpt>
      <trkpt lat="48.05309" lon="-1.54844">
        <ele>57.81291</ele>
        <time>2021-12-26T08:57:19.000Z</time>
      </trkpt>
      <trkpt lat="48.05308" lon="-1.54848">
        <ele>57.8981</ele>
        <time>2021-12-26T08:57:20.000Z</time>
      </trkpt>
      <trkpt lat="48.05309" lon="-1.54853">
        <ele>57.99915</ele>
        <time>2021-12-26T08:57:21.000Z</time>
      </trkpt>
      <trkpt lat="48.05309" lon="-1.54857">
        <ele>58.10423</ele>
        <time>2021-12-26T08:57:22.000Z</time>
      </trkpt>
      <trkpt lat="48.05309" lon="-1.54861">
        <ele>58.21414</ele>
        <time>2021-12-26T08:57:23.000Z</time>
      </trkpt>
      <trkpt lat="48.05308" lon="-1.54867">
        <ele>58.35935</ele>
        <time>2021-12-26T08:57:24.000Z</time>
      </trkpt>
      <trkpt lat="48.05308" lon="-1.54872">
        <ele>58.48072</ele>
        <time>2021-12-26T08:57:25.000Z</time>
      </trkpt>
      <trkpt lat="48.05307" lon="-1.54875">
        <ele>58.56935</ele>
        <time>2021-12-26T08:57:26.000Z</time>
      </trkpt>
      <trkpt lat="48.05307" lon="-1.54883">
        <ele>58.7254</ele>
        <time>2021-12-26T08:57:28.000Z</time>
      </trkpt>
      <trkpt lat="48.05307" lon="-1.54888">
        <ele>58.78918</ele>
        <time>2021-12-26T08:57:29.000Z</time>
      </trkpt>
      <trkpt lat="48.05307" lon="-1.54892">
        <ele>58.8297</ele>
        <time>2021-12-26T08:57:30.000Z</time>
      </trkpt>
      <trkpt lat="48.05307" lon="-1.54897">
        <ele>58.84752</ele>
        <time>2021-12-26T08:57:31.000Z</time>
      </trkpt>
      <trkpt lat="48.05307" lon="-1.54902">
        <ele>58.84532</ele>
        <time>2021-12-26T08:57:32.000Z</time>
      </trkpt>
      <trkpt lat="48.05306" lon="-1.54907">
        <ele>58.82043</ele>
        <time>2021-12-26T08:57:33.000Z</time>
      </trkpt>
      <trkpt lat="48.05305" lon="-1.54912">
        <ele>58.79057</ele>
        <time>2021-12-26T08:57:34.000Z</time>
      </trkpt>
      <trkpt lat="48.05303" lon="-1.54918">
        <ele>58.75017</ele>
        <time>2021-12-26T08:57:35.000Z</time>
      </trkpt>
      <trkpt lat="48.05302" lon="-1.54923">
        <ele>58.72257</ele>
        <time>2021-12-26T08:57:36.000Z</time>
      </trkpt>
      <trkpt lat="48.05301" lon="-1.54928">
        <ele>58.70102</ele>
        <time>2021-12-26T08:57:37.000Z</time>
      </trkpt>
      <trkpt lat="48.053" lon="-1.54933">
        <ele>58.67565</ele>
        <time>2021-12-26T08:57:38.000Z</time>
      </trkpt>
      <trkpt lat="48.05299" lon="-1.54936">
        <ele>58.64513</ele>
        <time>2021-12-26T08:57:39.000Z</time>
      </trkpt>
      <trkpt lat="48.05298" lon="-1.54941">
        <ele>58.61132</ele>
        <time>2021-12-26T08:57:40.000Z</time>
      </trkpt>
      <trkpt lat="48.05297" lon="-1.54945">
        <ele>58.57027</ele>
        <time>2021-12-26T08:57:41.000Z</time>
      </trkpt>
      <trkpt lat="48.05295" lon="-1.54949">
        <ele>58.52</ele>
        <time>2021-12-26T08:57:42.000Z</time>
      </trkpt>
      <trkpt lat="48.05293" lon="-1.54956">
        <ele>58.41807</ele>
        <time>2021-12-26T08:57:43.000Z</time>
      </trkpt>
      <trkpt lat="48.05292" lon="-1.54962">
        <ele>58.32036</ele>
        <time>2021-12-26T08:57:44.000Z</time>
      </trkpt>
      <trkpt lat="48.0529" lon="-1.54966">
        <ele>58.21538</ele>
        <time>2021-12-26T08:57:45.000Z</time>
      </trkpt>
      <trkpt lat="48.05288" lon="-1.54971">
        <ele>58.11241</ele>
        <time>2021-12-26T08:57:46.000Z</time>
      </trkpt>
      <trkpt lat="48.05285" lon="-1.54976">
        <ele>57.98107</ele>
        <time>2021-12-26T08:57:47.000Z</time>
      </trkpt>
      <trkpt lat="48.05283" lon="-1.54981">
        <ele>57.86656</ele>
        <time>2021-12-26T08:57:48.000Z</time>
      </trkpt>
      <trkpt lat="48.05282" lon="-1.54986">
        <ele>57.77314</ele>
        <time>2021-12-26T08:57:49.000Z</time>
      </trkpt>
      <trkpt lat="48.0528" lon="-1.54992">
        <ele>57.66293</ele>
        <time>2021-12-26T08:57:50.000Z</time>
      </trkpt>
      <trkpt lat="48.05278" lon="-1.54998">
        <ele>57.55934</ele>
        <time>2021-12-26T08:57:51.000Z</time>
      </trkpt>
      <trkpt lat="48.05277" lon="-1.55004">
        <ele>57.46915</ele>
        <time>2021-12-26T08:57:52.000Z</time>
      </trkpt>
      <trkpt lat="48.05275" lon="-1.5501">
        <ele>57.35261</ele>
        <time>2021-12-26T08:57:53.000Z</time>
      </trkpt>
      <trkpt lat="48.05274" lon="-1.55018">
        <ele>57.19426</ele>
        <time>2021-12-26T08:57:54.000Z</time>
      </trkpt>
      <trkpt lat="48.05273" lon="-1.55025">
        <ele>57.01262</ele>
        <time>2021-12-26T08:57:55.000Z</time>
      </trkpt>
      <trkpt lat="48.05272" lon="-1.55033">
        <ele>56.77491</ele>
        <time>2021-12-26T08:57:56.000Z</time>
      </trkpt>
      <trkpt lat="48.05271" lon="-1.5504">
        <ele>56.52101</ele>
        <time>2021-12-26T08:57:57.000Z</time>
      </trkpt>
      <trkpt lat="48.0527" lon="-1.55048">
        <ele>56.27402</ele>
        <time>2021-12-26T08:57:58.000Z</time>
      </trkpt>
      <trkpt lat="48.05269" lon="-1.55055">
        <ele>56.01096</ele>
        <time>2021-12-26T08:57:59.000Z</time>
      </trkpt>
      <trkpt lat="48.05269" lon="-1.55062">
        <ele>55.74261</ele>
        <time>2021-12-26T08:58:00.000Z</time>
      </trkpt>
      <trkpt lat="48.05268" lon="-1.55069">
        <ele>55.44893</ele>
        <time>2021-12-26T08:58:01.000Z</time>
      </trkpt>
      <trkpt lat="48.05267" lon="-1.55075">
        <ele>55.16604</ele>
        <time>2021-12-26T08:58:02.000Z</time>
      </trkpt>
      <trkpt lat="48.05267" lon="-1.55082">
        <ele>54.88282</ele>
        <time>2021-12-26T08:58:03.000Z</time>
      </trkpt>
      <trkpt lat="48.05267" lon="-1.55089">
        <ele>54.56535</ele>
        <time>2021-12-26T08:58:04.000Z</time>
      </trkpt>
      <trkpt lat="48.05265" lon="-1.551">
        <ele>53.98315</ele>
        <time>2021-12-26T08:58:05.000Z</time>
      </trkpt>
      <trkpt lat="48.05263" lon="-1.55109">
        <ele>53.48081</ele>
        <time>2021-12-26T08:58:06.000Z</time>
      </trkpt>
      <trkpt lat="48.05262" lon="-1.55118">
        <ele>52.95399</ele>
        <time>2021-12-26T08:58:07.000Z</time>
      </trkpt>
      <trkpt lat="48.0526" lon="-1.55126">
        <ele>52.37611</ele>
        <time>2021-12-26T08:58:08.000Z</time>
      </trkpt>
      <trkpt lat="48.05259" lon="-1.55133">
        <ele>51.78039</ele>
        <time>2021-12-26T08:58:09.000Z</time>
      </trkpt>
      <trkpt lat="48.05258" lon="-1.55143">
        <ele>51.05547</ele>
        <time>2021-12-26T08:58:10.000Z</time>
      </trkpt>
      <trkpt lat="48.05257" lon="-1.55152">
        <ele>50.2741</ele>
        <time>2021-12-26T08:58:11.000Z</time>
      </trkpt>
      <trkpt lat="48.05257" lon="-1.55163">
        <ele>49.39855</ele>
        <time>2021-12-26T08:58:12.000Z</time>
      </trkpt>
      <trkpt lat="48.05258" lon="-1.55173">
        <ele>48.48981</ele>
        <time>2021-12-26T08:58:13.000Z</time>
      </trkpt>
      <trkpt lat="48.05257" lon="-1.55184">
        <ele>47.58089</ele>
        <time>2021-12-26T08:58:14.000Z</time>
      </trkpt>
      <trkpt lat="48.05257" lon="-1.55194">
        <ele>46.68199</ele>
        <time>2021-12-26T08:58:15.000Z</time>
      </trkpt>
      <trkpt lat="48.05257" lon="-1.55205">
        <ele>45.59728</ele>
        <time>2021-12-26T08:58:16.000Z</time>
      </trkpt>
      <trkpt lat="48.05257" lon="-1.55215">
        <ele>44.70605</ele>
        <time>2021-12-26T08:58:17.000Z</time>
      </trkpt>
      <trkpt lat="48.05256" lon="-1.55223">
        <ele>44.13197</ele>
        <time>2021-12-26T08:58:18.000Z</time>
      </trkpt>
      <trkpt lat="48.05256" lon="-1.55232">
        <ele>43.56677</ele>
        <time>2021-12-26T08:58:19.000Z</time>
      </trkpt>
      <trkpt lat="48.05254" lon="-1.55239">
        <ele>43.11065</ele>
        <time>2021-12-26T08:58:20.000Z</time>
      </trkpt>
      <trkpt lat="48.05251" lon="-1.55248">
        <ele>42.50394</ele>
        <time>2021-12-26T08:58:21.000Z</time>
      </trkpt>
      <trkpt lat="48.05247" lon="-1.55256">
        <ele>41.98558</ele>
        <time>2021-12-26T08:58:22.000Z</time>
      </trkpt>
      <trkpt lat="48.05244" lon="-1.55263">
        <ele>41.46488</ele>
        <time>2021-12-26T08:58:23.000Z</time>
      </trkpt>
      <trkpt lat="48.05241" lon="-1.55271">
        <ele>40.97415</ele>
        <time>2021-12-26T08:58:24.000Z</time>
      </trkpt>
      <trkpt lat="48.05239" lon="-1.55277">
        <ele>40.60173</ele>
        <time>2021-12-26T08:58:25.000Z</time>
      </trkpt>
      <trkpt lat="48.05236" lon="-1.55284">
        <ele>40.32946</ele>
        <time>2021-12-26T08:58:26.000Z</time>
      </trkpt>
      <trkpt lat="48.05233" lon="-1.55289">
        <ele>40.14453</ele>
        <time>2021-12-26T08:58:27.000Z</time>
      </trkpt>
      <trkpt lat="48.0523" lon="-1.55293">
        <ele>40.0446</ele>
        <time>2021-12-26T08:58:28.000Z</time>
      </trkpt>
      <trkpt lat="48.05225" lon="-1.553">
        <ele>40.019</ele>
        <time>2021-12-26T08:58:29.000Z</time>
      </trkpt>
      <trkpt lat="48.05222" lon="-1.55304">
        <ele>40.09868</ele>
        <time>2021-12-26T08:58:30.000Z</time>
      </trkpt>
      <trkpt lat="48.05219" lon="-1.55309">
        <ele>40.21968</ele>
        <time>2021-12-26T08:58:31.000Z</time>
      </trkpt>
      <trkpt lat="48.05215" lon="-1.55313">
        <ele>40.36083</ele>
        <time>2021-12-26T08:58:32.000Z</time>
      </trkpt>
      <trkpt lat="48.05212" lon="-1.55317">
        <ele>40.46587</ele>
        <time>2021-12-26T08:58:33.000Z</time>
      </trkpt>
      <trkpt lat="48.05209" lon="-1.55322">
        <ele>40.5964</ele>
        <time>2021-12-26T08:58:34.000Z</time>
      </trkpt>
      <trkpt lat="48.05207" lon="-1.55327">
        <ele>40.7104</ele>
        <time>2021-12-26T08:58:35.000Z</time>
      </trkpt>
      <trkpt lat="48.05204" lon="-1.55331">
        <ele>40.79614</ele>
        <time>2021-12-26T08:58:36.000Z</time>
      </trkpt>
      <trkpt lat="48.05202" lon="-1.55335">
        <ele>40.85759</ele>
        <time>2021-12-26T08:58:37.000Z</time>
      </trkpt>
      <trkpt lat="48.052" lon="-1.55338">
        <ele>40.90212</ele>
        <time>2021-12-26T08:58:38.000Z</time>
      </trkpt>
      <trkpt lat="48.05197" lon="-1.55341">
        <ele>40.93935</ele>
        <time>2021-12-26T08:58:39.000Z</time>
      </trkpt>
      <trkpt lat="48.05194" lon="-1.55343">
        <ele>40.97911</ele>
        <time>2021-12-26T08:58:40.000Z</time>
      </trkpt>
      <trkpt lat="48.05191" lon="-1.55343">
        <ele>41.02213</ele>
        <time>2021-12-26T08:58:41.000Z</time>
      </trkpt>
      <trkpt lat="48.05191" lon="-1.55343">
        <ele>41.02213</ele>
      </trkpt>
      <trkpt lat="48.05187" lon="-1.55344">
        <ele>41.07378</ele>
      </trkpt>
      <trkpt lat="48.05185" lon="-1.55344">
        <ele>41.13189</ele>
      </trkpt>
      <trkpt lat="48.05182" lon="-1.55344">
        <ele>41.20941</ele>
      </trkpt>
      <trkpt lat="48.05179" lon="-1.55344">
        <ele>41.30468</ele>
      </trkpt>
      <trkpt lat="48.05176" lon="-1.55345">
        <ele>41.39403</ele>
      </trkpt>
      <trkpt lat="48.05174" lon="-1.55345">
        <ele>41.50673</ele>
      </trkpt>
      <trkpt lat="48.05171" lon="-1.55345">
        <ele>41.63517</ele>
      </trkpt>
      <trkpt lat="48.05167" lon="-1.55342">
        <ele>41.8978</ele>
      </trkpt>
      <trkpt lat="48.05164" lon="-1.55341">
        <ele>42.12502</ele>
      </trkpt>
      <trkpt lat="48.05162" lon="-1.5534">
        <ele>42.33041</ele>
      </trkpt>
      <trkpt lat="48.05158" lon="-1.55337">
        <ele>42.61863</ele>
      </trkpt>
      <trkpt lat="48.05156" lon="-1.55334">
        <ele>42.8767</ele>
      </trkpt>
      <trkpt lat="48.05153" lon="-1.55332">
        <ele>43.11431</ele>
      </trkpt>
      <trkpt lat="48.0515" lon="-1.5533">
        <ele>43.33305</ele>
      </trkpt>
      <trkpt lat="48.05148" lon="-1.55328">
        <ele>43.51961</ele>
      </trkpt>
      <trkpt lat="48.05145" lon="-1.55326">
        <ele>43.67508</ele>
      </trkpt>
      <trkpt lat="48.05143" lon="-1.55323">
        <ele>43.80762</ele>
      </trkpt>
      <trkpt lat="48.0514" lon="-1.5532">
        <ele>43.90349</ele>
      </trkpt>
      <trkpt lat="48.05138" lon="-1.55317">
        <ele>43.96448</ele>
      </trkpt>
      <trkpt lat="48.05135" lon="-1.55315">
        <ele>43.99438</ele>
      </trkpt>
      <trkpt lat="48.05133" lon="-1.55312">
        <ele>43.99315</ele>
      </trkpt>
      <trkpt lat="48.05131" lon="-1.55309">
        <ele>43.99089</ele>
      </trkpt>
      <trkpt lat="48.05128" lon="-1.55306">
        <ele>43.98269</ele>
      </trkpt>
      <trkpt lat="48.05125" lon="-1.55303">
        <ele>43.9705</ele>
      </trkpt>
      <trkpt lat="48.05123" lon="-1.553">
        <ele>43.94062</ele>
      </trkpt>
      <trkpt lat="48.0512" lon="-1.55296">
        <ele>43.88065</ele>
      </trkpt>
      <trkpt lat="48.05116" lon="-1.55293">
        <ele>43.78132</ele>
      </trkpt>
      <trkpt lat="48.05113" lon="-1.5529">
        <ele>43.62595</ele>
      </trkpt>
      <trkpt lat="48.0511" lon="-1.55286">
        <ele>43.41588</ele>
      </trkpt>
      <trkpt lat="48.05107" lon="-1.55281">
        <ele>43.16812</ele>
      </trkpt>
      <trkpt lat="48.05103" lon="-1.55277">
        <ele>42.90117</ele>
      </trkpt>
      <trkpt lat="48.051" lon="-1.55271">
        <ele>42.55497</ele>
      </trkpt>
      <trkpt lat="48.05096" lon="-1.55267">
        <ele>42.26822</ele>
      </trkpt>
      <trkpt lat="48.05093" lon="-1.55262">
        <ele>41.98148</ele>
      </trkpt>
      <trkpt lat="48.0509" lon="-1.55258">
        <ele>41.7633</ele>
      </trkpt>
      <trkpt lat="48.05086" lon="-1.55254">
        <ele>41.61792</ele>
      </trkpt>
      <trkpt lat="48.05084" lon="-1.5525">
        <ele>41.52845</ele>
      </trkpt>
      <trkpt lat="48.05081" lon="-1.55247">
        <ele>41.49857</ele>
      </trkpt>
      <trkpt lat="48.05077" lon="-1.55243">
        <ele>41.5452</ele>
      </trkpt>
      <trkpt lat="48.05074" lon="-1.55239">
        <ele>41.63955</ele>
      </trkpt>
      <trkpt lat="48.05071" lon="-1.55236">
        <ele>41.73643</ele>
      </trkpt>
      <trkpt lat="48.05068" lon="-1.55231">
        <ele>41.82694</ele>
      </trkpt>
      <trkpt lat="48.05066" lon="-1.55227">
        <ele>41.91952</ele>
      </trkpt>
      <trkpt lat="48.05063" lon="-1.55223">
        <ele>42.034</ele>
      </trkpt>
      <trkpt lat="48.0506" lon="-1.55219">
        <ele>42.12067</ele>
      </trkpt>
      <trkpt lat="48.05058" lon="-1.55215">
        <ele>42.19728</ele>
      </trkpt>
      <trkpt lat="48.05056" lon="-1.55211">
        <ele>42.26657</ele>
      </trkpt>
      <trkpt lat="48.05053" lon="-1.55207">
        <ele>42.34781</ele>
      </trkpt>
      <trkpt lat="48.05051" lon="-1.55203">
        <ele>42.37342</ele>
      </trkpt>
      <trkpt lat="48.05048" lon="-1.55199">
        <ele>42.40791</ele>
      </trkpt>
      <trkpt lat="48.05046" lon="-1.55194">
        <ele>42.45056</ele>
      </trkpt>
      <trkpt lat="48.05044" lon="-1.55189">
        <ele>42.51193</ele>
      </trkpt>
      <trkpt lat="48.05042" lon="-1.55185">
        <ele>42.59468</ele>
      </trkpt>
      <trkpt lat="48.05039" lon="-1.5518">
        <ele>42.7053</ele>
      </trkpt>
      <trkpt lat="48.05038" lon="-1.55176">
        <ele>42.80371</ele>
      </trkpt>
      <trkpt lat="48.05036" lon="-1.5517">
        <ele>42.86771</ele>
      </trkpt>
      <trkpt lat="48.05034" lon="-1.55166">
        <ele>42.91786</ele>
      </trkpt>
      <trkpt lat="48.05033" lon="-1.55161">
        <ele>42.93387</ele>
      </trkpt>
      <trkpt lat="48.05032" lon="-1.55158">
        <ele>42.89121</ele>
      </trkpt>
      <trkpt lat="48.05031" lon="-1.55154">
        <ele>42.81895</ele>
      </trkpt>
      <trkpt lat="48.0503" lon="-1.5515">
        <ele>42.74595</ele>
      </trkpt>
      <trkpt lat="48.05028" lon="-1.55145">
        <ele>42.62553</ele>
      </trkpt>
      <trkpt lat="48.05027" lon="-1.5514">
        <ele>42.54358</ele>
      </trkpt>
      <trkpt lat="48.05026" lon="-1.55135">
        <ele>42.49251</ele>
      </trkpt>
      <trkpt lat="48.05024" lon="-1.55129">
        <ele>42.51715</ele>
      </trkpt>
      <trkpt lat="48.05023" lon="-1.55124">
        <ele>42.59737</ele>
      </trkpt>
      <trkpt lat="48.05022" lon="-1.5512">
        <ele>42.70927</ele>
      </trkpt>
      <trkpt lat="48.05021" lon="-1.55115">
        <ele>42.84367</ele>
      </trkpt>
      <trkpt lat="48.0502" lon="-1.5511">
        <ele>43.00449</ele>
      </trkpt>
      <trkpt lat="48.05019" lon="-1.55105">
        <ele>43.1712</ele>
      </trkpt>
      <trkpt lat="48.05018" lon="-1.55101">
        <ele>43.40168</ele>
      </trkpt>
      <trkpt lat="48.05017" lon="-1.55096">
        <ele>43.5622</ele>
      </trkpt>
      <trkpt lat="48.05016" lon="-1.55091">
        <ele>43.69952</ele>
      </trkpt>
      <trkpt lat="48.05015" lon="-1.55087">
        <ele>43.83292</ele>
      </trkpt>
      <trkpt lat="48.05013" lon="-1.55083">
        <ele>43.91397</ele>
      </trkpt>
      <trkpt lat="48.05012" lon="-1.55078">
        <ele>43.9552</ele>
      </trkpt>
      <trkpt lat="48.05011" lon="-1.55073">
        <ele>43.95717</ele>
      </trkpt>
      <trkpt lat="48.05009" lon="-1.55068">
        <ele>43.94018</ele>
      </trkpt>
      <trkpt lat="48.05008" lon="-1.55063">
        <ele>43.91272</ele>
      </trkpt>
      <trkpt lat="48.05007" lon="-1.55059">
        <ele>43.92119</ele>
      </trkpt>
      <trkpt lat="48.05005" lon="-1.55055">
        <ele>43.97421</ele>
      </trkpt>
      <trkpt lat="48.05003" lon="-1.5505">
        <ele>44.06254</ele>
      </trkpt>
      <trkpt lat="48.05002" lon="-1.55046">
        <ele>44.19784</ele>
      </trkpt>
      <trkpt lat="48.05" lon="-1.55042">
        <ele>44.34405</ele>
      </trkpt>
      <trkpt lat="48.04999" lon="-1.55037">
        <ele>44.46366</ele>
      </trkpt>
      <trkpt lat="48.04997" lon="-1.55033">
        <ele>44.56867</ele>
      </trkpt>
      <trkpt lat="48.04996" lon="-1.55029">
        <ele>44.63795</ele>
      </trkpt>
      <trkpt lat="48.04994" lon="-1.55025">
        <ele>44.64374</ele>
      </trkpt>
      <trkpt lat="48.04992" lon="-1.5502">
        <ele>44.59319</ele>
      </trkpt>
      <trkpt lat="48.04991" lon="-1.55016">
        <ele>44.45379</ele>
      </trkpt>
      <trkpt lat="48.0499" lon="-1.5501">
        <ele>44.21681</ele>
      </trkpt>
      <trkpt lat="48.04988" lon="-1.55005">
        <ele>43.92517</ele>
      </trkpt>
      <trkpt lat="48.04986" lon="-1.54999">
        <ele>43.62801</ele>
      </trkpt>
      <trkpt lat="48.04984" lon="-1.54993">
        <ele>43.37424</ele>
      </trkpt>
      <trkpt lat="48.04982" lon="-1.54986">
        <ele>43.21105</ele>
      </trkpt>
      <trkpt lat="48.0498" lon="-1.5498">
        <ele>43.0481</ele>
      </trkpt>
      <trkpt lat="48.04977" lon="-1.54972">
        <ele>42.71891</ele>
      </trkpt>
      <trkpt lat="48.04975" lon="-1.54962">
        <ele>42.08301</ele>
      </trkpt>
      <trkpt lat="48.04972" lon="-1.54954">
        <ele>41.2953</ele>
      </trkpt>
      <trkpt lat="48.04969" lon="-1.54946">
        <ele>40.61062</ele>
      </trkpt>
      <trkpt lat="48.04966" lon="-1.54939">
        <ele>40.03357</ele>
      </trkpt>
      <trkpt lat="48.04963" lon="-1.5493">
        <ele>39.49925</ele>
      </trkpt>
      <trkpt lat="48.0496" lon="-1.5492">
        <ele>38.94733</ele>
      </trkpt>
      <trkpt lat="48.04957" lon="-1.54912">
        <ele>38.30936</ele>
      </trkpt>
      <trkpt lat="48.04953" lon="-1.54906">
        <ele>37.66784</ele>
      </trkpt>
      <trkpt lat="48.04949" lon="-1.54899">
        <ele>36.80814</ele>
      </trkpt>
      <trkpt lat="48.04946" lon="-1.54893">
        <ele>36.04922</ele>
      </trkpt>
      <trkpt lat="48.04942" lon="-1.54886">
        <ele>35.36459</ele>
      </trkpt>
      <trkpt lat="48.04938" lon="-1.5488">
        <ele>34.88565</ele>
      </trkpt>
      <trkpt lat="48.04934" lon="-1.54873">
        <ele>34.56705</ele>
      </trkpt>
      <trkpt lat="48.04931" lon="-1.54867">
        <ele>34.26726</ele>
      </trkpt>
      <trkpt lat="48.04928" lon="-1.54862">
        <ele>34.02147</ele>
      </trkpt>
      <trkpt lat="48.04926" lon="-1.54858">
        <ele>33.775</ele>
      </trkpt>
      <trkpt lat="48.04925" lon="-1.54854">
        <ele>33.61057</ele>
      </trkpt>
      <trkpt lat="48.04923" lon="-1.54851">
        <ele>33.47818</ele>
      </trkpt>
      <trkpt lat="48.04922" lon="-1.54848">
        <ele>33.37649</ele>
      </trkpt>
      <trkpt lat="48.04921" lon="-1.54844">
        <ele>33.29597</ele>
      </trkpt>
      <trkpt lat="48.04919" lon="-1.54841">
        <ele>33.24397</ele>
      </trkpt>
      <trkpt lat="48.04917" lon="-1.54836">
        <ele>33.22165</ele>
      </trkpt>
      <trkpt lat="48.04915" lon="-1.54833">
        <ele>33.22583</ele>
      </trkpt>
      <trkpt lat="48.04912" lon="-1.54828">
        <ele>33.24495</ele>
      </trkpt>
      <trkpt lat="48.04909" lon="-1.54823">
        <ele>33.27457</ele>
      </trkpt>
      <trkpt lat="48.04907" lon="-1.54818">
        <ele>33.3115</ele>
      </trkpt>
      <trkpt lat="48.04905" lon="-1.54812">
        <ele>33.3904</ele>
      </trkpt>
      <trkpt lat="48.04903" lon="-1.54809">
        <ele>33.46714</ele>
      </trkpt>
      <trkpt lat="48.04902" lon="-1.54805">
        <ele>33.57563</ele>
      </trkpt>
      <trkpt lat="48.04899" lon="-1.54799">
        <ele>33.75839</ele>
      </trkpt>
      <trkpt lat="48.04898" lon="-1.54795">
        <ele>33.88682</ele>
      </trkpt>
      <trkpt lat="48.04897" lon="-1.5479">
        <ele>34.0223</ele>
      </trkpt>
      <trkpt lat="48.04895" lon="-1.54786">
        <ele>34.12793</ele>
      </trkpt>
      <trkpt lat="48.04893" lon="-1.54782">
        <ele>34.21264</ele>
      </trkpt>
      <trkpt lat="48.04892" lon="-1.54778">
        <ele>34.29715</ele>
      </trkpt>
      <trkpt lat="48.04891" lon="-1.54773">
        <ele>34.41124</ele>
      </trkpt>
      <trkpt lat="48.0489" lon="-1.5477">
        <ele>34.50131</ele>
      </trkpt>
      <trkpt lat="48.0489" lon="-1.54769">
        <ele>34.53877</ele>
      </trkpt>
      <trkpt lat="48.0489" lon="-1.54769">
        <ele>34.53877</ele>
      </trkpt>
      <trkpt lat="48.04889" lon="-1.54773">
        <ele>34.39839</ele>
      </trkpt>
      <trkpt lat="48.04887" lon="-1.54776">
        <ele>34.26405</ele>
      </trkpt>
      <trkpt lat="48.04886" lon="-1.54778">
        <ele>34.1785</ele>
      </trkpt>
      <trkpt lat="48.04885" lon="-1.54781">
        <ele>34.07983</ele>
      </trkpt>
      <trkpt lat="48.04883" lon="-1.54779">
        <ele>34.07953</ele>
      </trkpt>
      <trkpt lat="48.0488" lon="-1.54777">
        <ele>34.08939</ele>
      </trkpt>
      <trkpt lat="48.04878" lon="-1.54775">
        <ele>34.1091</ele>
      </trkpt>
      <trkpt lat="48.04876" lon="-1.54773">
        <ele>34.1468</ele>
      </trkpt>
      <trkpt lat="48.04874" lon="-1.5477">
        <ele>34.18546</ele>
      </trkpt>
      <trkpt lat="48.04872" lon="-1.54767">
        <ele>34.21989</ele>
      </trkpt>
      <trkpt lat="48.0487" lon="-1.54764">
        <ele>34.22068</ele>
      </trkpt>
      <trkpt lat="48.04868" lon="-1.54761">
        <ele>34.259</ele>
      </trkpt>
      <trkpt lat="48.04868" lon="-1.54757">
        <ele>34.3398</ele>
      </trkpt>
      <trkpt lat="48.04868" lon="-1.54754">
        <ele>34.44732</ele>
      </trkpt>
      <trkpt lat="48.04868" lon="-1.5475">
        <ele>34.51649</ele>
      </trkpt>
      <trkpt lat="48.04866" lon="-1.54747">
        <ele>34.52316</ele>
      </trkpt>
      <trkpt lat="48.04865" lon="-1.54744">
        <ele>34.56354</ele>
      </trkpt>
      <trkpt lat="48.04863" lon="-1.54741">
        <ele>34.57815</ele>
      </trkpt>
      <trkpt lat="48.04861" lon="-1.54739">
        <ele>34.5772</ele>
      </trkpt>
      <trkpt lat="48.04859" lon="-1.54736">
        <ele>34.60899</ele>
      </trkpt>
      <trkpt lat="48.04857" lon="-1.54734">
        <ele>34.62533</ele>
      </trkpt>
      <trkpt lat="48.04855" lon="-1.54732">
        <ele>34.69364</ele>
      </trkpt>
      <trkpt lat="48.04853" lon="-1.5473">
        <ele>34.75644</ele>
      </trkpt>
      <trkpt lat="48.0485" lon="-1.54728">
        <ele>34.80288</ele>
      </trkpt>
      <trkpt lat="48.04847" lon="-1.54726">
        <ele>34.83414</ele>
      </trkpt>
      <trkpt lat="48.04844" lon="-1.54724">
        <ele>34.85603</ele>
      </trkpt>
      <trkpt lat="48.04841" lon="-1.54722">
        <ele>34.87239</ele>
      </trkpt>
      <trkpt lat="48.04838" lon="-1.5472">
        <ele>34.8805</ele>
      </trkpt>
      <trkpt lat="48.04836" lon="-1.54719">
        <ele>34.8709</ele>
      </trkpt>
      <trkpt lat="48.04833" lon="-1.54717">
        <ele>34.89268</ele>
      </trkpt>
      <trkpt lat="48.04831" lon="-1.54715">
        <ele>34.86922</ele>
      </trkpt>
      <trkpt lat="48.04828" lon="-1.54713">
        <ele>34.84847</ele>
      </trkpt>
      <trkpt lat="48.04826" lon="-1.54711">
        <ele>34.80854</ele>
      </trkpt>
      <trkpt lat="48.04823" lon="-1.54709">
        <ele>34.78221</ele>
      </trkpt>
      <trkpt lat="48.04821" lon="-1.54707">
        <ele>34.80735</ele>
      </trkpt>
      <trkpt lat="48.04818" lon="-1.54705">
        <ele>34.83002</ele>
      </trkpt>
      <trkpt lat="48.04816" lon="-1.54703">
        <ele>34.86404</ele>
      </trkpt>
      <trkpt lat="48.04813" lon="-1.54702">
        <ele>34.90678</ele>
      </trkpt>
      <trkpt lat="48.04811" lon="-1.547">
        <ele>34.91332</ele>
      </trkpt>
      <trkpt lat="48.04808" lon="-1.547">
        <ele>34.87633</ele>
      </trkpt>
      <trkpt lat="48.04805" lon="-1.54698">
        <ele>34.93484</ele>
      </trkpt>
      <trkpt lat="48.04803" lon="-1.54696">
        <ele>34.9886</ele>
      </trkpt>
      <trkpt lat="48.048" lon="-1.54695">
        <ele>35.05334</ele>
      </trkpt>
      <trkpt lat="48.04797" lon="-1.54693">
        <ele>35.11102</ele>
      </trkpt>
      <trkpt lat="48.04794" lon="-1.54692">
        <ele>35.1293</ele>
      </trkpt>
      <trkpt lat="48.04792" lon="-1.54691">
        <ele>35.10719</ele>
      </trkpt>
      <trkpt lat="48.04789" lon="-1.5469">
        <ele>35.0616</ele>
      </trkpt>
      <trkpt lat="48.04786" lon="-1.5469">
        <ele>34.96269</ele>
      </trkpt>
      <trkpt lat="48.04783" lon="-1.54689">
        <ele>34.90213</ele>
      </trkpt>
      <trkpt lat="48.04781" lon="-1.54688">
        <ele>34.8522</ele>
      </trkpt>
      <trkpt lat="48.04778" lon="-1.54686">
        <ele>34.8235</ele>
      </trkpt>
      <trkpt lat="48.04776" lon="-1.54685">
        <ele>34.8051</ele>
      </trkpt>
      <trkpt lat="48.04775" lon="-1.54684">
        <ele>34.81075</ele>
      </trkpt>
      <trkpt lat="48.04773" lon="-1.54682">
        <ele>34.80987</ele>
      </trkpt>
      <trkpt lat="48.04771" lon="-1.54681">
        <ele>34.8267</ele>
      </trkpt>
      <trkpt lat="48.04769" lon="-1.54679">
        <ele>34.90796</ele>
      </trkpt>
      <trkpt lat="48.04767" lon="-1.54677">
        <ele>35.00751</ele>
      </trkpt>
      <trkpt lat="48.04765" lon="-1.54675">
        <ele>35.18969</ele>
      </trkpt>
      <trkpt lat="48.04763" lon="-1.54671">
        <ele>35.527</ele>
      </trkpt>
      <trkpt lat="48.04761" lon="-1.5467">
        <ele>35.67707</ele>
      </trkpt>
      <trkpt lat="48.04759" lon="-1.54669">
        <ele>35.84701</ele>
      </trkpt>
      <trkpt lat="48.04757" lon="-1.54668">
        <ele>35.99772</ele>
      </trkpt>
      <trkpt lat="48.04755" lon="-1.54667">
        <ele>36.05804</ele>
      </trkpt>
      <trkpt lat="48.04754" lon="-1.54666">
        <ele>36.15378</ele>
      </trkpt>
      <trkpt lat="48.04752" lon="-1.54666">
        <ele>36.22235</ele>
      </trkpt>
      <trkpt lat="48.04749" lon="-1.54665">
        <ele>36.31432</ele>
      </trkpt>
      <trkpt lat="48.04747" lon="-1.54665">
        <ele>36.26772</ele>
      </trkpt>
      <trkpt lat="48.04744" lon="-1.54665">
        <ele>35.94802</ele>
      </trkpt>
      <trkpt lat="48.0474" lon="-1.54665">
        <ele>35.75116</ele>
      </trkpt>
      <trkpt lat="48.04735" lon="-1.54665">
        <ele>35.5816</ele>
      </trkpt>
      <trkpt lat="48.04732" lon="-1.54665">
        <ele>35.37662</ele>
      </trkpt>
      <trkpt lat="48.04727" lon="-1.54665">
        <ele>35.31058</ele>
      </trkpt>
      <trkpt lat="48.04723" lon="-1.54664">
        <ele>35.47219</ele>
      </trkpt>
      <trkpt lat="48.04719" lon="-1.54665">
        <ele>35.01231</ele>
      </trkpt>
      <trkpt lat="48.04716" lon="-1.54665">
        <ele>34.73877</ele>
      </trkpt>
      <trkpt lat="48.04713" lon="-1.54666">
        <ele>34.41472</ele>
      </trkpt>
      <trkpt lat="48.0471" lon="-1.54667">
        <ele>34.13769</ele>
      </trkpt>
      <trkpt lat="48.04706" lon="-1.54667">
        <ele>34.03977</ele>
      </trkpt>
      <trkpt lat="48.04703" lon="-1.54667">
        <ele>34.03275</ele>
      </trkpt>
      <trkpt lat="48.047" lon="-1.54668">
        <ele>33.99012</ele>
      </trkpt>
      <trkpt lat="48.04698" lon="-1.54669">
        <ele>33.98071</ele>
      </trkpt>
      <trkpt lat="48.04695" lon="-1.5467">
        <ele>34.08344</ele>
      </trkpt>
      <trkpt lat="48.04692" lon="-1.5467">
        <ele>34.28348</ele>
      </trkpt>
      <trkpt lat="48.04688" lon="-1.54671">
        <ele>34.48452</ele>
      </trkpt>
      <trkpt lat="48.04685" lon="-1.54671">
        <ele>34.78467</ele>
      </trkpt>
      <trkpt lat="48.04682" lon="-1.54671">
        <ele>35.0613</ele>
      </trkpt>
      <trkpt lat="48.04678" lon="-1.54671">
        <ele>35.30775</ele>
      </trkpt>
      <trkpt lat="48.04675" lon="-1.54671">
        <ele>35.65081</ele>
      </trkpt>
      <trkpt lat="48.04672" lon="-1.5467">
        <ele>35.97519</ele>
      </trkpt>
      <trkpt lat="48.04669" lon="-1.5467">
        <ele>36.21083</ele>
      </trkpt>
      <trkpt lat="48.04666" lon="-1.5467">
        <ele>36.50235</ele>
      </trkpt>
      <trkpt lat="48.04663" lon="-1.5467">
        <ele>36.72357</ele>
      </trkpt>
      <trkpt lat="48.04661" lon="-1.5467">
        <ele>36.97139</ele>
      </trkpt>
      <trkpt lat="48.04658" lon="-1.54669">
        <ele>37.19255</ele>
      </trkpt>
      <trkpt lat="48.04655" lon="-1.5467">
        <ele>37.28988</ele>
      </trkpt>
      <trkpt lat="48.04652" lon="-1.54671">
        <ele>37.15431</ele>
      </trkpt>
      <trkpt lat="48.04649" lon="-1.54672">
        <ele>36.95208</ele>
      </trkpt>
      <trkpt lat="48.04646" lon="-1.54673">
        <ele>36.75962</ele>
      </trkpt>
      <trkpt lat="48.04643" lon="-1.54674">
        <ele>36.67063</ele>
      </trkpt>
      <trkpt lat="48.0464" lon="-1.54674">
        <ele>36.59948</ele>
      </trkpt>
      <trkpt lat="48.04637" lon="-1.54675">
        <ele>36.58087</ele>
      </trkpt>
      <trkpt lat="48.04634" lon="-1.54675">
        <ele>36.63659</ele>
      </trkpt>
      <trkpt lat="48.04631" lon="-1.54676">
        <ele>36.49827</ele>
      </trkpt>
      <trkpt lat="48.04627" lon="-1.54677">
        <ele>36.32958</ele>
      </trkpt>
      <trkpt lat="48.04624" lon="-1.54678">
        <ele>36.131</ele>
      </trkpt>
      <trkpt lat="48.04622" lon="-1.54679">
        <ele>35.95334</ele>
      </trkpt>
      <trkpt lat="48.04619" lon="-1.5468">
        <ele>35.77885</ele>
      </trkpt>
      <trkpt lat="48.04616" lon="-1.54681">
        <ele>35.583</ele>
      </trkpt>
      <trkpt lat="48.04613" lon="-1.54682">
        <ele>35.4233</ele>
      </trkpt>
      <trkpt lat="48.0461" lon="-1.54682">
        <ele>35.33952</ele>
      </trkpt>
      <trkpt lat="48.04607" lon="-1.54683">
        <ele>35.25518</ele>
      </trkpt>
      <trkpt lat="48.04605" lon="-1.54684">
        <ele>35.29124</ele>
      </trkpt>
      <trkpt lat="48.04602" lon="-1.54685">
        <ele>35.30231</ele>
      </trkpt>
      <trkpt lat="48.046" lon="-1.54685">
        <ele>35.26945</ele>
      </trkpt>
      <trkpt lat="48.04597" lon="-1.54687">
        <ele>35.32638</ele>
      </trkpt>
      <trkpt lat="48.04594" lon="-1.54688">
        <ele>35.41782</ele>
      </trkpt>
      <trkpt lat="48.04591" lon="-1.54688">
        <ele>35.7825</ele>
      </trkpt>
      <trkpt lat="48.04588" lon="-1.54689">
        <ele>36.09932</ele>
      </trkpt>
      <trkpt lat="48.04586" lon="-1.54689">
        <ele>36.41499</ele>
      </trkpt>
      <trkpt lat="48.04584" lon="-1.5469">
        <ele>36.84256</ele>
      </trkpt>
      <trkpt lat="48.04581" lon="-1.54692">
        <ele>37.20044</ele>
      </trkpt>
      <trkpt lat="48.04579" lon="-1.54693">
        <ele>37.49137</ele>
      </trkpt>
      <trkpt lat="48.04577" lon="-1.54695">
        <ele>37.73752</ele>
      </trkpt>
      <trkpt lat="48.04574" lon="-1.54697">
        <ele>37.94781</ele>
      </trkpt>
      <trkpt lat="48.0457" lon="-1.54701">
        <ele>38.0366</ele>
      </trkpt>
      <trkpt lat="48.04569" lon="-1.54703">
        <ele>37.94045</ele>
      </trkpt>
      <trkpt lat="48.04567" lon="-1.54705">
        <ele>37.61935</ele>
      </trkpt>
      <trkpt lat="48.04565" lon="-1.54709">
        <ele>37.19444</ele>
      </trkpt>
      <trkpt lat="48.04565" lon="-1.54709">
        <ele>37.19444</ele>
      </trkpt>
      <trkpt lat="48.04564" lon="-1.54712">
        <ele>36.89626</ele>
      </trkpt>
      <trkpt lat="48.04562" lon="-1.54714">
        <ele>36.70201</ele>
      </trkpt>
      <trkpt lat="48.04561" lon="-1.54717">
        <ele>36.52973</ele>
      </trkpt>
      <trkpt lat="48.0456" lon="-1.54721">
        <ele>36.21053</ele>
      </trkpt>
      <trkpt lat="48.0456" lon="-1.54727">
        <ele>35.4285</ele>
      </trkpt>
      <trkpt lat="48.0456" lon="-1.54732">
        <ele>35.14092</ele>
      </trkpt>
      <trkpt lat="48.04559" lon="-1.54737">
        <ele>34.97687</ele>
      </trkpt>
      <trkpt lat="48.04558" lon="-1.54743">
        <ele>34.85693</ele>
      </trkpt>
      <trkpt lat="48.04556" lon="-1.5475">
        <ele>34.77801</ele>
      </trkpt>
      <trkpt lat="48.04555" lon="-1.54756">
        <ele>34.73182</ele>
      </trkpt>
      <trkpt lat="48.04553" lon="-1.54763">
        <ele>34.86938</ele>
      </trkpt>
      <trkpt lat="48.04552" lon="-1.54767">
        <ele>34.92471</ele>
      </trkpt>
      <trkpt lat="48.04551" lon="-1.54771">
        <ele>34.93553</ele>
      </trkpt>
      <trkpt lat="48.0455" lon="-1.54776">
        <ele>34.94297</ele>
      </trkpt>
      <trkpt lat="48.04548" lon="-1.54781">
        <ele>34.96493</ele>
      </trkpt>
      <trkpt lat="48.04547" lon="-1.54785">
        <ele>34.89804</ele>
      </trkpt>
      <trkpt lat="48.04547" lon="-1.5479">
        <ele>34.79903</ele>
      </trkpt>
      <trkpt lat="48.04546" lon="-1.54794">
        <ele>34.70235</ele>
      </trkpt>
      <trkpt lat="48.04545" lon="-1.54798">
        <ele>34.56848</ele>
      </trkpt>
      <trkpt lat="48.04545" lon="-1.54802">
        <ele>34.38195</ele>
      </trkpt>
      <trkpt lat="48.04545" lon="-1.54806">
        <ele>34.18433</ele>
      </trkpt>
      <trkpt lat="48.04546" lon="-1.5481">
        <ele>34.00298</ele>
      </trkpt>
      <trkpt lat="48.04546" lon="-1.54814">
        <ele>33.83052</ele>
      </trkpt>
      <trkpt lat="48.04547" lon="-1.54819">
        <ele>33.59551</ele>
      </trkpt>
      <trkpt lat="48.04547" lon="-1.54824">
        <ele>33.45181</ele>
      </trkpt>
      <trkpt lat="48.04547" lon="-1.5483">
        <ele>33.33931</ele>
      </trkpt>
      <trkpt lat="48.04547" lon="-1.54835">
        <ele>33.22701</ele>
      </trkpt>
      <trkpt lat="48.04547" lon="-1.5484">
        <ele>33.14312</ele>
      </trkpt>
      <trkpt lat="48.04548" lon="-1.54845">
        <ele>33.09377</ele>
      </trkpt>
      <trkpt lat="48.04547" lon="-1.54851">
        <ele>33.11474</ele>
      </trkpt>
      <trkpt lat="48.04543" lon="-1.54858">
        <ele>33.51219</ele>
      </trkpt>
      <trkpt lat="48.04542" lon="-1.54863">
        <ele>33.71989</ele>
      </trkpt>
      <trkpt lat="48.04541" lon="-1.54867">
        <ele>33.84712</ele>
      </trkpt>
      <trkpt lat="48.04541" lon="-1.5487">
        <ele>33.90515</ele>
      </trkpt>
      <trkpt lat="48.04542" lon="-1.54872">
        <ele>33.88124</ele>
      </trkpt>
      <trkpt lat="48.04544" lon="-1.54877">
        <ele>33.68239</ele>
      </trkpt>
      <trkpt lat="48.04542" lon="-1.54876">
        <ele>34.00304</ele>
      </trkpt>
      <trkpt lat="48.0454" lon="-1.54878">
        <ele>34.34937</ele>
      </trkpt>
      <trkpt lat="48.04537" lon="-1.54876">
        <ele>34.73324</ele>
      </trkpt>
      <trkpt lat="48.04535" lon="-1.54876">
        <ele>35.17589</ele>
      </trkpt>
      <trkpt lat="48.04531" lon="-1.54876">
        <ele>36.25157</ele>
      </trkpt>
      <trkpt lat="48.04532" lon="-1.54879">
        <ele>35.88088</ele>
      </trkpt>
      <trkpt lat="48.04534" lon="-1.54884">
        <ele>35.53015</ele>
      </trkpt>
      <trkpt lat="48.04535" lon="-1.54886">
        <ele>35.31104</ele>
      </trkpt>
      <trkpt lat="48.04537" lon="-1.5489">
        <ele>35.01108</ele>
      </trkpt>
      <trkpt lat="48.04539" lon="-1.54893">
        <ele>34.78639</ele>
      </trkpt>
      <trkpt lat="48.0454" lon="-1.54897">
        <ele>34.73401</ele>
      </trkpt>
      <trkpt lat="48.04542" lon="-1.54899">
        <ele>34.48432</ele>
      </trkpt>
      <trkpt lat="48.0454" lon="-1.54894">
        <ele>34.61605</ele>
      </trkpt>
      <trkpt lat="48.04538" lon="-1.54891">
        <ele>34.80389</ele>
      </trkpt>
      <trkpt lat="48.04536" lon="-1.54888">
        <ele>35.16462</ele>
      </trkpt>
      <trkpt lat="48.04533" lon="-1.54886">
        <ele>35.58924</ele>
      </trkpt>
      <trkpt lat="48.04531" lon="-1.54884">
        <ele>36.12767</ele>
      </trkpt>
      <trkpt lat="48.04533" lon="-1.54881">
        <ele>35.5615</ele>
      </trkpt>
      <trkpt lat="48.04535" lon="-1.54882">
        <ele>35.12332</ele>
      </trkpt>
      <trkpt lat="48.04537" lon="-1.54885">
        <ele>34.87011</ele>
      </trkpt>
      <trkpt lat="48.04537" lon="-1.5489">
        <ele>35.03893</ele>
      </trkpt>
      <trkpt lat="48.04537" lon="-1.54894">
        <ele>35.05346</ele>
      </trkpt>
      <trkpt lat="48.04539" lon="-1.54897">
        <ele>34.82152</ele>
      </trkpt>
      <trkpt lat="48.04541" lon="-1.549">
        <ele>34.69184</ele>
      </trkpt>
      <trkpt lat="48.04542" lon="-1.54904">
        <ele>34.62039</ele>
      </trkpt>
      <trkpt lat="48.04544" lon="-1.54901">
        <ele>34.2761</ele>
      </trkpt>
      <trkpt lat="48.04543" lon="-1.54898">
        <ele>34.37329</ele>
      </trkpt>
      <trkpt lat="48.04543" lon="-1.54898">
        <ele>34.37329</ele>
        <time>2021-12-26T09:08:31.999Z</time>
      </trkpt>
      <trkpt lat="48.04541" lon="-1.54894">
        <ele>34.51603</ele>
        <time>2021-12-26T09:08:32.999Z</time>
      </trkpt>
      <trkpt lat="48.04539" lon="-1.54891">
        <ele>34.67737</ele>
        <time>2021-12-26T09:08:33.999Z</time>
      </trkpt>
      <trkpt lat="48.04537" lon="-1.54888">
        <ele>35.01058</ele>
        <time>2021-12-26T09:08:34.999Z</time>
      </trkpt>
      <trkpt lat="48.04534" lon="-1.54885">
        <ele>35.47353</ele>
        <time>2021-12-26T09:08:35.999Z</time>
      </trkpt>
      <trkpt lat="48.04531" lon="-1.54883">
        <ele>36.08541</ele>
        <time>2021-12-26T09:08:36.999Z</time>
      </trkpt>
      <trkpt lat="48.04529" lon="-1.54883">
        <ele>36.62759</ele>
        <time>2021-12-26T09:08:37.999Z</time>
      </trkpt>
      <trkpt lat="48.04527" lon="-1.54882">
        <ele>37.18206</ele>
        <time>2021-12-26T09:08:39.999Z</time>
      </trkpt>
      <trkpt lat="48.04525" lon="-1.54881">
        <ele>37.859</ele>
        <time>2021-12-26T09:08:41.999Z</time>
      </trkpt>
      <trkpt lat="48.04524" lon="-1.54879">
        <ele>38.37203</ele>
        <time>2021-12-26T09:08:44.999Z</time>
      </trkpt>
      <trkpt lat="48.04522" lon="-1.54878">
        <ele>38.99432</ele>
        <time>2021-12-26T09:08:46.999Z</time>
      </trkpt>
      <trkpt lat="48.0452" lon="-1.54879">
        <ele>39.4828</ele>
        <time>2021-12-26T09:08:48.999Z</time>
      </trkpt>
      <trkpt lat="48.04516" lon="-1.5488">
        <ele>40.20043</ele>
        <time>2021-12-26T09:08:50.999Z</time>
      </trkpt>
      <trkpt lat="48.04513" lon="-1.54881">
        <ele>40.58639</ele>
        <time>2021-12-26T09:08:52.999Z</time>
      </trkpt>
      <trkpt lat="48.04511" lon="-1.54881">
        <ele>40.86377</ele>
        <time>2021-12-26T09:08:53.999Z</time>
      </trkpt>
      <trkpt lat="48.04508" lon="-1.54881">
        <ele>41.14221</ele>
        <time>2021-12-26T09:08:55.999Z</time>
      </trkpt>
      <trkpt lat="48.04506" lon="-1.54881">
        <ele>41.26164</ele>
        <time>2021-12-26T09:08:56.999Z</time>
      </trkpt>
      <trkpt lat="48.04503" lon="-1.54881">
        <ele>41.45947</ele>
        <time>2021-12-26T09:08:58.999Z</time>
      </trkpt>
      <trkpt lat="48.045" lon="-1.54882">
        <ele>41.4801</ele>
        <time>2021-12-26T09:09:00.999Z</time>
      </trkpt>
      <trkpt lat="48.04497" lon="-1.54882">
        <ele>41.56826</ele>
        <time>2021-12-26T09:09:02.999Z</time>
      </trkpt>
      <trkpt lat="48.04494" lon="-1.54884">
        <ele>41.62537</ele>
        <time>2021-12-26T09:09:04.999Z</time>
      </trkpt>
      <trkpt lat="48.04491" lon="-1.54882">
        <ele>41.95993</ele>
        <time>2021-12-26T09:09:57.999Z</time>
      </trkpt>
      <trkpt lat="48.04489" lon="-1.54882">
        <ele>42.15354</ele>
        <time>2021-12-26T09:09:58.999Z</time>
      </trkpt>
      <trkpt lat="48.04486" lon="-1.54881">
        <ele>42.52892</ele>
        <time>2021-12-26T09:10:00.999Z</time>
      </trkpt>
      <trkpt lat="48.04484" lon="-1.54879">
        <ele>43.09758</ele>
        <time>2021-12-26T09:10:02.999Z</time>
      </trkpt>
      <trkpt lat="48.04482" lon="-1.54877">
        <ele>43.48873</ele>
        <time>2021-12-26T09:10:03.999Z</time>
      </trkpt>
      <trkpt lat="48.0448" lon="-1.54875">
        <ele>43.93144</ele>
        <time>2021-12-26T09:10:04.999Z</time>
      </trkpt>
      <trkpt lat="48.04478" lon="-1.54874">
        <ele>44.30981</ele>
        <time>2021-12-26T09:10:05.999Z</time>
      </trkpt>
      <trkpt lat="48.04476" lon="-1.54872">
        <ele>44.76835</ele>
        <time>2021-12-26T09:10:06.999Z</time>
      </trkpt>
      <trkpt lat="48.04474" lon="-1.5487">
        <ele>45.28609</ele>
        <time>2021-12-26T09:10:08.999Z</time>
      </trkpt>
      <trkpt lat="48.0447" lon="-1.54868">
        <ele>45.99619</ele>
        <time>2021-12-26T09:10:10.999Z</time>
      </trkpt>
      <trkpt lat="48.04468" lon="-1.54866">
        <ele>46.36601</ele>
        <time>2021-12-26T09:10:12.999Z</time>
      </trkpt>
      <trkpt lat="48.04465" lon="-1.54865">
        <ele>46.79443</ele>
        <time>2021-12-26T09:10:14.999Z</time>
      </trkpt>
      <trkpt lat="48.04463" lon="-1.54865">
        <ele>46.95</ele>
        <time>2021-12-26T09:10:15.999Z</time>
      </trkpt>
      <trkpt lat="48.0446" lon="-1.54864">
        <ele>47.23517</ele>
        <time>2021-12-26T09:10:16.999Z</time>
      </trkpt>
      <trkpt lat="48.04458" lon="-1.54863">
        <ele>47.49292</ele>
        <time>2021-12-26T09:10:17.999Z</time>
      </trkpt>
      <trkpt lat="48.04456" lon="-1.54862">
        <ele>47.6933</ele>
        <time>2021-12-26T09:10:18.999Z</time>
      </trkpt>
      <trkpt lat="48.04452" lon="-1.54862">
        <ele>47.92736</ele>
        <time>2021-12-26T09:10:20.999Z</time>
      </trkpt>
      <trkpt lat="48.0445" lon="-1.54863">
        <ele>48.00451</ele>
        <time>2021-12-26T09:10:21.999Z</time>
      </trkpt>
      <trkpt lat="48.04448" lon="-1.54863">
        <ele>48.11511</ele>
        <time>2021-12-26T09:10:22.999Z</time>
      </trkpt>
      <trkpt lat="48.04446" lon="-1.54863">
        <ele>48.26536</ele>
        <time>2021-12-26T09:10:23.999Z</time>
      </trkpt>
      <trkpt lat="48.04443" lon="-1.54863">
        <ele>48.427</ele>
        <time>2021-12-26T09:10:24.999Z</time>
      </trkpt>
      <trkpt lat="48.04441" lon="-1.54864">
        <ele>48.57473</ele>
        <time>2021-12-26T09:10:25.999Z</time>
      </trkpt>
      <trkpt lat="48.04439" lon="-1.54864">
        <ele>48.75998</ele>
        <time>2021-12-26T09:10:26.999Z</time>
      </trkpt>
      <trkpt lat="48.04437" lon="-1.54864">
        <ele>48.92805</ele>
        <time>2021-12-26T09:10:27.999Z</time>
      </trkpt>
      <trkpt lat="48.04435" lon="-1.54864">
        <ele>49.0558</ele>
        <time>2021-12-26T09:10:28.999Z</time>
      </trkpt>
      <trkpt lat="48.04433" lon="-1.54864">
        <ele>49.18712</ele>
        <time>2021-12-26T09:10:29.999Z</time>
      </trkpt>
      <trkpt lat="48.04433" lon="-1.54864">
        <ele>49.18712</ele>
      </trkpt>
      <trkpt lat="48.04431" lon="-1.54865">
        <ele>49.31264</ele>
      </trkpt>
      <trkpt lat="48.04429" lon="-1.54865">
        <ele>49.42846</ele>
      </trkpt>
      <trkpt lat="48.04427" lon="-1.54865">
        <ele>49.5648</ele>
      </trkpt>
      <trkpt lat="48.04425" lon="-1.54865">
        <ele>49.66154</ele>
      </trkpt>
      <trkpt lat="48.04423" lon="-1.54866">
        <ele>49.68321</ele>
      </trkpt>
      <trkpt lat="48.04421" lon="-1.54866">
        <ele>49.69579</ele>
      </trkpt>
      <trkpt lat="48.04419" lon="-1.54867">
        <ele>49.64761</ele>
      </trkpt>
      <trkpt lat="48.04417" lon="-1.54869">
        <ele>49.55285</ele>
      </trkpt>
      <trkpt lat="48.04415" lon="-1.5487">
        <ele>49.46368</ele>
      </trkpt>
      <trkpt lat="48.04412" lon="-1.54873">
        <ele>49.27451</ele>
      </trkpt>
      <trkpt lat="48.04412" lon="-1.54879">
        <ele>49.06704</ele>
      </trkpt>
      <trkpt lat="48.04412" lon="-1.54883">
        <ele>48.97203</ele>
      </trkpt>
      <trkpt lat="48.04412" lon="-1.54887">
        <ele>48.87616</ele>
      </trkpt>
      <trkpt lat="48.04412" lon="-1.54892">
        <ele>48.8109</ele>
      </trkpt>
      <trkpt lat="48.04412" lon="-1.54898">
        <ele>48.74335</ele>
      </trkpt>
      <trkpt lat="48.04413" lon="-1.54903">
        <ele>48.70264</ele>
      </trkpt>
      <trkpt lat="48.04413" lon="-1.54909">
        <ele>48.67206</ele>
      </trkpt>
      <trkpt lat="48.04413" lon="-1.54915">
        <ele>48.60476</ele>
      </trkpt>
      <trkpt lat="48.04414" lon="-1.54921">
        <ele>48.53972</ele>
      </trkpt>
      <trkpt lat="48.04414" lon="-1.54927">
        <ele>48.4919</ele>
      </trkpt>
      <trkpt lat="48.04414" lon="-1.54934">
        <ele>48.42293</ele>
      </trkpt>
      <trkpt lat="48.04415" lon="-1.5494">
        <ele>48.34035</ele>
      </trkpt>
      <trkpt lat="48.04415" lon="-1.54947">
        <ele>48.21845</ele>
      </trkpt>
      <trkpt lat="48.04415" lon="-1.54955">
        <ele>48.07556</ele>
      </trkpt>
      <trkpt lat="48.04416" lon="-1.54962">
        <ele>47.88271</ele>
      </trkpt>
      <trkpt lat="48.04416" lon="-1.54969">
        <ele>47.65461</ele>
      </trkpt>
      <trkpt lat="48.04417" lon="-1.54977">
        <ele>47.3867</ele>
      </trkpt>
      <trkpt lat="48.04417" lon="-1.54984">
        <ele>47.10418</ele>
      </trkpt>
      <trkpt lat="48.04417" lon="-1.54991">
        <ele>46.79296</ele>
      </trkpt>
      <trkpt lat="48.04418" lon="-1.54999">
        <ele>46.43905</ele>
      </trkpt>
      <trkpt lat="48.04418" lon="-1.55007">
        <ele>46.05622</ele>
      </trkpt>
      <trkpt lat="48.04418" lon="-1.55015">
        <ele>45.67314</ele>
      </trkpt>
      <trkpt lat="48.04419" lon="-1.55023">
        <ele>45.33683</ele>
      </trkpt>
      <trkpt lat="48.04419" lon="-1.55031">
        <ele>44.98752</ele>
      </trkpt>
      <trkpt lat="48.04419" lon="-1.55039">
        <ele>44.63807</ele>
      </trkpt>
      <trkpt lat="48.0442" lon="-1.55047">
        <ele>44.27889</ele>
      </trkpt>
      <trkpt lat="48.0442" lon="-1.55055">
        <ele>43.92185</ele>
      </trkpt>
      <trkpt lat="48.04421" lon="-1.55063">
        <ele>43.56477</ele>
      </trkpt>
      <trkpt lat="48.04422" lon="-1.55071">
        <ele>43.24483</ele>
      </trkpt>
      <trkpt lat="48.04422" lon="-1.5508">
        <ele>42.99475</ele>
      </trkpt>
      <trkpt lat="48.04423" lon="-1.55088">
        <ele>42.84938</ele>
      </trkpt>
      <trkpt lat="48.04423" lon="-1.55096">
        <ele>42.77341</ele>
      </trkpt>
      <trkpt lat="48.04424" lon="-1.55104">
        <ele>42.73466</ele>
      </trkpt>
      <trkpt lat="48.04424" lon="-1.55112">
        <ele>42.62384</ele>
      </trkpt>
      <trkpt lat="48.04424" lon="-1.55119">
        <ele>42.40142</ele>
      </trkpt>
      <trkpt lat="48.04425" lon="-1.55125">
        <ele>42.06902</ele>
      </trkpt>
      <trkpt lat="48.04425" lon="-1.55131">
        <ele>41.67264</ele>
      </trkpt>
      <trkpt lat="48.04426" lon="-1.55136">
        <ele>41.35446</ele>
      </trkpt>
      <trkpt lat="48.04428" lon="-1.5514">
        <ele>41.05789</ele>
      </trkpt>
      <trkpt lat="48.04429" lon="-1.55142">
        <ele>40.87604</ele>
      </trkpt>
      <trkpt lat="48.0443" lon="-1.55145">
        <ele>40.5022</ele>
      </trkpt>
      <trkpt lat="48.0443" lon="-1.55149">
        <ele>40.12867</ele>
      </trkpt>
      <trkpt lat="48.04431" lon="-1.55153">
        <ele>39.6651</ele>
      </trkpt>
      <trkpt lat="48.04432" lon="-1.55156">
        <ele>39.17834</ele>
      </trkpt>
      <trkpt lat="48.04432" lon="-1.5516">
        <ele>38.67343</ele>
      </trkpt>
      <trkpt lat="48.04433" lon="-1.55166">
        <ele>37.88188</ele>
      </trkpt>
      <trkpt lat="48.04435" lon="-1.55171">
        <ele>37.25146</ele>
      </trkpt>
      <trkpt lat="48.04436" lon="-1.55176">
        <ele>36.64326</ele>
      </trkpt>
      <trkpt lat="48.04437" lon="-1.55181">
        <ele>36.07168</ele>
      </trkpt>
      <trkpt lat="48.04439" lon="-1.55188">
        <ele>35.50205</ele>
      </trkpt>
      <trkpt lat="48.04441" lon="-1.55195">
        <ele>34.99844</ele>
      </trkpt>
      <trkpt lat="48.04443" lon="-1.55202">
        <ele>34.5657</ele>
      </trkpt>
      <trkpt lat="48.04443" lon="-1.55206">
        <ele>34.44212</ele>
      </trkpt>
      <trkpt lat="48.04443" lon="-1.5521">
        <ele>34.38423</ele>
      </trkpt>
      <trkpt lat="48.04444" lon="-1.55214">
        <ele>34.1872</ele>
      </trkpt>
      <trkpt lat="48.04444" lon="-1.55219">
        <ele>34.14346</ele>
      </trkpt>
      <trkpt lat="48.04443" lon="-1.55222">
        <ele>34.34434</ele>
      </trkpt>
      <trkpt lat="48.04443" lon="-1.55226">
        <ele>34.51344</ele>
      </trkpt>
      <trkpt lat="48.04442" lon="-1.5523">
        <ele>34.77617</ele>
      </trkpt>
      <trkpt lat="48.04442" lon="-1.55233">
        <ele>35.00383</ele>
      </trkpt>
      <trkpt lat="48.04441" lon="-1.55241">
        <ele>35.49854</ele>
      </trkpt>
      <trkpt lat="48.04442" lon="-1.55245">
        <ele>35.5673</ele>
      </trkpt>
      <trkpt lat="48.04443" lon="-1.55248">
        <ele>35.47036</ele>
      </trkpt>
      <trkpt lat="48.04445" lon="-1.55249">
        <ele>35.22613</ele>
      </trkpt>
      <trkpt lat="48.04447" lon="-1.55248">
        <ele>34.96495</ele>
      </trkpt>
      <trkpt lat="48.04451" lon="-1.55248">
        <ele>34.53416</ele>
      </trkpt>
      <trkpt lat="48.04454" lon="-1.55247">
        <ele>34.16571</ele>
      </trkpt>
      <trkpt lat="48.04457" lon="-1.55246">
        <ele>33.98913</ele>
      </trkpt>
      <trkpt lat="48.04459" lon="-1.55245">
        <ele>33.77222</ele>
      </trkpt>
      <trkpt lat="48.04462" lon="-1.55243">
        <ele>33.5129</ele>
      </trkpt>
      <trkpt lat="48.04465" lon="-1.55242">
        <ele>33.27538</ele>
      </trkpt>
      <trkpt lat="48.04467" lon="-1.55241">
        <ele>33.11077</ele>
      </trkpt>
      <trkpt lat="48.0447" lon="-1.55241">
        <ele>33.05226</ele>
      </trkpt>
      <trkpt lat="48.04472" lon="-1.55242">
        <ele>33.05812</ele>
      </trkpt>
      <trkpt lat="48.04474" lon="-1.55243">
        <ele>33.05356</ele>
      </trkpt>
      <trkpt lat="48.04474" lon="-1.55245">
        <ele>33.27848</ele>
      </trkpt>
      <trkpt lat="48.04473" lon="-1.55249">
        <ele>33.66216</ele>
      </trkpt>
      <trkpt lat="48.04472" lon="-1.55252">
        <ele>34.0705</ele>
      </trkpt>
      <trkpt lat="48.04471" lon="-1.55256">
        <ele>34.53993</ele>
      </trkpt>
      <trkpt lat="48.0447" lon="-1.55258">
        <ele>34.91036</ele>
      </trkpt>
      <trkpt lat="48.04468" lon="-1.55261">
        <ele>35.20526</ele>
      </trkpt>
      <trkpt lat="48.04466" lon="-1.55263">
        <ele>35.4335</ele>
      </trkpt>
      <trkpt lat="48.04465" lon="-1.55265">
        <ele>35.52031</ele>
      </trkpt>
      <trkpt lat="48.04463" lon="-1.55268">
        <ele>35.67839</ele>
      </trkpt>
      <trkpt lat="48.04461" lon="-1.55273">
        <ele>35.82837</ele>
      </trkpt>
      <trkpt lat="48.0446" lon="-1.55277">
        <ele>35.95724</ele>
      </trkpt>
      <trkpt lat="48.04459" lon="-1.55281">
        <ele>36.10525</ele>
      </trkpt>
      <trkpt lat="48.04459" lon="-1.55285">
        <ele>36.19113</ele>
      </trkpt>
      <trkpt lat="48.04458" lon="-1.55289">
        <ele>36.33134</ele>
      </trkpt>
      <trkpt lat="48.04457" lon="-1.55293">
        <ele>36.42447</ele>
      </trkpt>
      <trkpt lat="48.04456" lon="-1.55297">
        <ele>36.55569</ele>
      </trkpt>
      <trkpt lat="48.04455" lon="-1.553">
        <ele>36.69335</ele>
      </trkpt>
      <trkpt lat="48.04454" lon="-1.55304">
        <ele>36.82786</ele>
      </trkpt>
      <trkpt lat="48.04453" lon="-1.55307">
        <ele>36.97188</ele>
      </trkpt>
      <trkpt lat="48.04452" lon="-1.55311">
        <ele>37.0753</ele>
      </trkpt>
      <trkpt lat="48.04451" lon="-1.55315">
        <ele>37.17447</ele>
      </trkpt>
      <trkpt lat="48.04449" lon="-1.5532">
        <ele>37.23776</ele>
      </trkpt>
      <trkpt lat="48.04448" lon="-1.55324">
        <ele>37.24644</ele>
      </trkpt>
      <trkpt lat="48.04448" lon="-1.55329">
        <ele>37.27231</ele>
      </trkpt>
      <trkpt lat="48.04447" lon="-1.55334">
        <ele>37.29831</ele>
      </trkpt>
      <trkpt lat="48.04447" lon="-1.5534">
        <ele>37.27264</ele>
      </trkpt>
      <trkpt lat="48.04446" lon="-1.55346">
        <ele>37.23965</ele>
      </trkpt>
      <trkpt lat="48.04445" lon="-1.55351">
        <ele>37.16233</ele>
      </trkpt>
      <trkpt lat="48.04445" lon="-1.55356">
        <ele>37.06882</ele>
      </trkpt>
      <trkpt lat="48.04444" lon="-1.55361">
        <ele>36.97983</ele>
      </trkpt>
      <trkpt lat="48.04444" lon="-1.55366">
        <ele>36.90167</ele>
      </trkpt>
      <trkpt lat="48.04443" lon="-1.55371">
        <ele>36.73518</ele>
      </trkpt>
      <trkpt lat="48.04442" lon="-1.55376">
        <ele>36.56295</ele>
      </trkpt>
      <trkpt lat="48.04442" lon="-1.55382">
        <ele>36.47766</ele>
      </trkpt>
      <trkpt lat="48.04441" lon="-1.55388">
        <ele>36.3534</ele>
      </trkpt>
      <trkpt lat="48.04441" lon="-1.55393">
        <ele>36.24602</ele>
      </trkpt>
      <trkpt lat="48.04441" lon="-1.55399">
        <ele>36.16086</ele>
      </trkpt>
      <trkpt lat="48.04442" lon="-1.55405">
        <ele>36.09812</ele>
      </trkpt>
      <trkpt lat="48.04442" lon="-1.55411">
        <ele>36.04552</ele>
      </trkpt>
      <trkpt lat="48.04443" lon="-1.55417">
        <ele>36.00162</ele>
      </trkpt>
      <trkpt lat="48.04443" lon="-1.55423">
        <ele>35.94679</ele>
      </trkpt>
      <trkpt lat="48.04444" lon="-1.55429">
        <ele>35.97697</ele>
      </trkpt>
      <trkpt lat="48.04445" lon="-1.55435">
        <ele>35.92802</ele>
      </trkpt>
      <trkpt lat="48.04446" lon="-1.5544">
        <ele>35.80701</ele>
      </trkpt>
      <trkpt lat="48.04446" lon="-1.55447">
        <ele>35.72822</ele>
      </trkpt>
      <trkpt lat="48.04447" lon="-1.55452">
        <ele>35.67799</ele>
      </trkpt>
      <trkpt lat="48.04447" lon="-1.55458">
        <ele>35.65615</ele>
      </trkpt>
      <trkpt lat="48.04447" lon="-1.55464">
        <ele>35.63645</ele>
      </trkpt>
      <trkpt lat="48.04448" lon="-1.5547">
        <ele>35.67976</ele>
      </trkpt>
      <trkpt lat="48.04448" lon="-1.55476">
        <ele>35.74082</ele>
      </trkpt>
      <trkpt lat="48.04449" lon="-1.55481">
        <ele>35.8129</ele>
      </trkpt>
      <trkpt lat="48.04449" lon="-1.55488">
        <ele>35.90897</ele>
      </trkpt>
      <trkpt lat="48.0445" lon="-1.55494">
        <ele>36.02537</ele>
      </trkpt>
      <trkpt lat="48.04451" lon="-1.555">
        <ele>36.07007</ele>
      </trkpt>
      <trkpt lat="48.04451" lon="-1.55506">
        <ele>36.08874</ele>
      </trkpt>
      <trkpt lat="48.04452" lon="-1.55512">
        <ele>36.1652</ele>
      </trkpt>
      <trkpt lat="48.04452" lon="-1.55517">
        <ele>36.21031</ele>
      </trkpt>
      <trkpt lat="48.04452" lon="-1.55523">
        <ele>36.20587</ele>
      </trkpt>
      <trkpt lat="48.04453" lon="-1.55529">
        <ele>36.18548</ele>
      </trkpt>
      <trkpt lat="48.04453" lon="-1.55534">
        <ele>36.15015</ele>
      </trkpt>
      <trkpt lat="48.04453" lon="-1.55539">
        <ele>36.13276</ele>
      </trkpt>
      <trkpt lat="48.04453" lon="-1.55544">
        <ele>36.11291</ele>
      </trkpt>
      <trkpt lat="48.04453" lon="-1.5555">
        <ele>36.09094</ele>
      </trkpt>
      <trkpt lat="48.04453" lon="-1.55555">
        <ele>36.07179</ele>
      </trkpt>
      <trkpt lat="48.04454" lon="-1.55561">
        <ele>36.05022</ele>
      </trkpt>
      <trkpt lat="48.04454" lon="-1.55566">
        <ele>36.03584</ele>
      </trkpt>
      <trkpt lat="48.04454" lon="-1.55572">
        <ele>36.0359</ele>
      </trkpt>
      <trkpt lat="48.04454" lon="-1.55577">
        <ele>36.05347</ele>
      </trkpt>
      <trkpt lat="48.04454" lon="-1.55582">
        <ele>36.09234</ele>
      </trkpt>
      <trkpt lat="48.04454" lon="-1.55586">
        <ele>36.15578</ele>
      </trkpt>
      <trkpt lat="48.04455" lon="-1.5559">
        <ele>36.25586</ele>
      </trkpt>
      <trkpt lat="48.04457" lon="-1.55593">
        <ele>36.3751</ele>
      </trkpt>
      <trkpt lat="48.04457" lon="-1.55593">
        <ele>36.3751</ele>
        <time>2021-12-26T09:14:24.999Z</time>
      </trkpt>
      <trkpt lat="48.0446" lon="-1.55595">
        <ele>36.46839</ele>
        <time>2021-12-26T09:14:25.999Z</time>
      </trkpt>
      <trkpt lat="48.04462" lon="-1.55596">
        <ele>36.58335</ele>
        <time>2021-12-26T09:14:26.999Z</time>
      </trkpt>
      <trkpt lat="48.04465" lon="-1.55594">
        <ele>36.57074</ele>
        <time>2021-12-26T09:14:27.999Z</time>
      </trkpt>
      <trkpt lat="48.04469" lon="-1.55593">
        <ele>36.57961</ele>
        <time>2021-12-26T09:14:28.999Z</time>
      </trkpt>
      <trkpt lat="48.04472" lon="-1.55592">
        <ele>36.59793</ele>
        <time>2021-12-26T09:14:29.999Z</time>
      </trkpt>
      <trkpt lat="48.04476" lon="-1.55591">
        <ele>36.63081</ele>
        <time>2021-12-26T09:14:30.999Z</time>
      </trkpt>
      <trkpt lat="48.0448" lon="-1.55592">
        <ele>36.73667</ele>
        <time>2021-12-26T09:14:31.999Z</time>
      </trkpt>
      <trkpt lat="48.04483" lon="-1.55593">
        <ele>36.82927</ele>
        <time>2021-12-26T09:14:32.999Z</time>
      </trkpt>
      <trkpt lat="48.04487" lon="-1.55593">
        <ele>36.92527</ele>
        <time>2021-12-26T09:14:33.999Z</time>
      </trkpt>
      <trkpt lat="48.0449" lon="-1.55594">
        <ele>37.0113</ele>
        <time>2021-12-26T09:14:34.999Z</time>
      </trkpt>
      <trkpt lat="48.04494" lon="-1.55594">
        <ele>37.1037</ele>
        <time>2021-12-26T09:14:35.999Z</time>
      </trkpt>
      <trkpt lat="48.04497" lon="-1.55595">
        <ele>37.19392</ele>
        <time>2021-12-26T09:14:36.999Z</time>
      </trkpt>
      <trkpt lat="48.04501" lon="-1.55595">
        <ele>37.29997</ele>
        <time>2021-12-26T09:14:37.999Z</time>
      </trkpt>
      <trkpt lat="48.04504" lon="-1.55595">
        <ele>37.40494</ele>
        <time>2021-12-26T09:14:38.999Z</time>
      </trkpt>
      <trkpt lat="48.04508" lon="-1.55596">
        <ele>37.51811</ele>
        <time>2021-12-26T09:14:39.999Z</time>
      </trkpt>
      <trkpt lat="48.04511" lon="-1.55596">
        <ele>37.65988</ele>
        <time>2021-12-26T09:14:40.999Z</time>
      </trkpt>
      <trkpt lat="48.04514" lon="-1.55597">
        <ele>37.83223</ele>
        <time>2021-12-26T09:14:41.999Z</time>
      </trkpt>
      <trkpt lat="48.04517" lon="-1.55599">
        <ele>38.01922</ele>
        <time>2021-12-26T09:14:42.999Z</time>
      </trkpt>
      <trkpt lat="48.0452" lon="-1.556">
        <ele>38.18926</ele>
        <time>2021-12-26T09:14:43.999Z</time>
      </trkpt>
      <trkpt lat="48.04522" lon="-1.55601">
        <ele>38.32432</ele>
        <time>2021-12-26T09:14:44.999Z</time>
      </trkpt>
      <trkpt lat="48.04525" lon="-1.55602">
        <ele>38.48838</ele>
        <time>2021-12-26T09:14:45.999Z</time>
      </trkpt>
      <trkpt lat="48.04527" lon="-1.55604">
        <ele>38.64095</ele>
        <time>2021-12-26T09:14:46.999Z</time>
      </trkpt>
      <trkpt lat="48.0453" lon="-1.55604">
        <ele>38.73047</ele>
        <time>2021-12-26T09:14:47.999Z</time>
      </trkpt>
      <trkpt lat="48.04532" lon="-1.55604">
        <ele>38.80999</ele>
        <time>2021-12-26T09:14:48.999Z</time>
      </trkpt>
      <trkpt lat="48.04534" lon="-1.55605">
        <ele>38.88811</ele>
        <time>2021-12-26T09:14:49.999Z</time>
      </trkpt>
      <trkpt lat="48.04536" lon="-1.55605">
        <ele>38.94634</ele>
        <time>2021-12-26T09:14:50.999Z</time>
      </trkpt>
      <trkpt lat="48.04539" lon="-1.55606">
        <ele>39.01447</ele>
        <time>2021-12-26T09:14:52.999Z</time>
      </trkpt>
      <trkpt lat="48.04542" lon="-1.55606">
        <ele>39.07013</ele>
        <time>2021-12-26T09:14:54.999Z</time>
      </trkpt>
      <trkpt lat="48.04545" lon="-1.55608">
        <ele>39.18263</ele>
        <time>2021-12-26T09:14:56.999Z</time>
      </trkpt>
      <trkpt lat="48.04547" lon="-1.55608">
        <ele>39.2345</ele>
        <time>2021-12-26T09:14:57.999Z</time>
      </trkpt>
      <trkpt lat="48.0455" lon="-1.5561">
        <ele>39.36319</ele>
        <time>2021-12-26T09:14:59.999Z</time>
      </trkpt>
      <trkpt lat="48.04552" lon="-1.55613">
        <ele>39.48769</ele>
        <time>2021-12-26T09:15:00.999Z</time>
      </trkpt>
      <trkpt lat="48.04555" lon="-1.55615">
        <ele>39.61591</ele>
        <time>2021-12-26T09:15:01.999Z</time>
      </trkpt>
      <trkpt lat="48.04557" lon="-1.55618">
        <ele>39.72935</ele>
        <time>2021-12-26T09:15:02.999Z</time>
      </trkpt>
      <trkpt lat="48.0456" lon="-1.5562">
        <ele>39.8686</ele>
        <time>2021-12-26T09:15:03.999Z</time>
      </trkpt>
      <trkpt lat="48.04562" lon="-1.55623">
        <ele>39.98793</ele>
        <time>2021-12-26T09:15:04.999Z</time>
      </trkpt>
      <trkpt lat="48.04564" lon="-1.55624">
        <ele>40.07442</ele>
        <time>2021-12-26T09:15:05.999Z</time>
      </trkpt>
      <trkpt lat="48.04566" lon="-1.55626">
        <ele>40.16367</ele>
        <time>2021-12-26T09:15:06.999Z</time>
      </trkpt>
      <trkpt lat="48.04568" lon="-1.55631">
        <ele>40.32736</ele>
        <time>2021-12-26T09:15:10.999Z</time>
      </trkpt>
      <trkpt lat="48.04569" lon="-1.55634">
        <ele>40.42499</ele>
        <time>2021-12-26T09:15:12.999Z</time>
      </trkpt>
      <trkpt lat="48.0457" lon="-1.5564">
        <ele>40.55434</ele>
        <time>2021-12-26T09:15:14.999Z</time>
      </trkpt>
      <trkpt lat="48.04571" lon="-1.55643">
        <ele>40.64021</ele>
        <time>2021-12-26T09:15:15.999Z</time>
      </trkpt>
      <trkpt lat="48.04571" lon="-1.55647">
        <ele>40.72887</ele>
        <time>2021-12-26T09:15:16.999Z</time>
      </trkpt>
      <trkpt lat="48.04572" lon="-1.5565">
        <ele>40.81472</ele>
        <time>2021-12-26T09:15:17.999Z</time>
      </trkpt>
      <trkpt lat="48.04572" lon="-1.55653">
        <ele>40.88464</ele>
        <time>2021-12-26T09:15:18.999Z</time>
      </trkpt>
      <trkpt lat="48.04572" lon="-1.55656">
        <ele>40.9439</ele>
        <time>2021-12-26T09:15:19.999Z</time>
      </trkpt>
      <trkpt lat="48.04572" lon="-1.55659">
        <ele>41.00339</ele>
        <time>2021-12-26T09:15:20.999Z</time>
      </trkpt>
      <trkpt lat="48.04572" lon="-1.55662">
        <ele>41.04434</ele>
        <time>2021-12-26T09:15:21.999Z</time>
      </trkpt>
      <trkpt lat="48.04572" lon="-1.55666">
        <ele>41.09648</ele>
        <time>2021-12-26T09:15:22.999Z</time>
      </trkpt>
      <trkpt lat="48.04572" lon="-1.55669">
        <ele>41.14252</ele>
        <time>2021-12-26T09:15:23.999Z</time>
      </trkpt>
      <trkpt lat="48.04574" lon="-1.5568">
        <ele>41.32722</ele>
        <time>2021-12-26T09:16:43.000Z</time>
      </trkpt>
      <trkpt lat="48.04575" lon="-1.55684">
        <ele>41.39095</ele>
        <time>2021-12-26T09:17:11.000Z</time>
      </trkpt>
      <trkpt lat="48.04575" lon="-1.55687">
        <ele>41.42059</ele>
        <time>2021-12-26T09:17:12.000Z</time>
      </trkpt>
      <trkpt lat="48.04575" lon="-1.5569">
        <ele>41.45852</ele>
        <time>2021-12-26T09:17:14.000Z</time>
      </trkpt>
      <trkpt lat="48.04575" lon="-1.55693">
        <ele>41.48245</ele>
        <time>2021-12-26T09:17:18.000Z</time>
      </trkpt>
      <trkpt lat="48.04575" lon="-1.55696">
        <ele>41.53739</ele>
        <time>2021-12-26T09:17:22.000Z</time>
      </trkpt>
      <trkpt lat="48.04576" lon="-1.55699">
        <ele>41.60641</ele>
        <time>2021-12-26T09:17:23.000Z</time>
      </trkpt>
      <trkpt lat="48.04577" lon="-1.55702">
        <ele>41.67266</ele>
        <time>2021-12-26T09:17:24.000Z</time>
      </trkpt>
      <trkpt lat="48.04578" lon="-1.55705">
        <ele>41.75143</ele>
        <time>2021-12-26T09:17:25.000Z</time>
      </trkpt>
      <trkpt lat="48.04578" lon="-1.55708">
        <ele>41.80179</ele>
        <time>2021-12-26T09:17:26.000Z</time>
      </trkpt>
      <trkpt lat="48.04578" lon="-1.55713">
        <ele>41.90019</ele>
        <time>2021-12-26T09:17:28.000Z</time>
      </trkpt>
      <trkpt lat="48.04579" lon="-1.55717">
        <ele>41.97516</ele>
        <time>2021-12-26T09:17:29.000Z</time>
      </trkpt>
      <trkpt lat="48.04579" lon="-1.5572">
        <ele>42.05318</ele>
        <time>2021-12-26T09:17:30.000Z</time>
      </trkpt>
      <trkpt lat="48.0458" lon="-1.55724">
        <ele>42.15621</ele>
        <time>2021-12-26T09:17:32.000Z</time>
      </trkpt>
      <trkpt lat="48.04582" lon="-1.55728">
        <ele>42.24547</ele>
        <time>2021-12-26T09:17:33.000Z</time>
      </trkpt>
      <trkpt lat="48.04583" lon="-1.55732">
        <ele>42.33346</ele>
        <time>2021-12-26T09:17:34.000Z</time>
      </trkpt>
      <trkpt lat="48.04584" lon="-1.55736">
        <ele>42.43165</ele>
        <time>2021-12-26T09:17:35.000Z</time>
      </trkpt>
      <trkpt lat="48.04586" lon="-1.5574">
        <ele>42.51596</ele>
        <time>2021-12-26T09:17:36.000Z</time>
      </trkpt>
      <trkpt lat="48.04587" lon="-1.55743">
        <ele>42.58579</ele>
        <time>2021-12-26T09:17:37.000Z</time>
      </trkpt>
      <trkpt lat="48.0459" lon="-1.55749">
        <ele>42.69579</ele>
        <time>2021-12-26T09:17:38.000Z</time>
      </trkpt>
      <trkpt lat="48.04592" lon="-1.55752">
        <ele>42.75382</ele>
        <time>2021-12-26T09:17:39.000Z</time>
      </trkpt>
      <trkpt lat="48.04594" lon="-1.55755">
        <ele>42.79944</ele>
        <time>2021-12-26T09:17:40.000Z</time>
      </trkpt>
      <trkpt lat="48.04597" lon="-1.55757">
        <ele>42.84209</ele>
        <time>2021-12-26T09:17:41.000Z</time>
      </trkpt>
      <trkpt lat="48.046" lon="-1.5576">
        <ele>42.88758</ele>
        <time>2021-12-26T09:17:42.000Z</time>
      </trkpt>
      <trkpt lat="48.04602" lon="-1.55762">
        <ele>42.92402</ele>
        <time>2021-12-26T09:17:43.000Z</time>
      </trkpt>
      <trkpt lat="48.04605" lon="-1.55764">
        <ele>42.95639</ele>
        <time>2021-12-26T09:17:44.000Z</time>
      </trkpt>
      <trkpt lat="48.04607" lon="-1.55767">
        <ele>42.98316</ele>
        <time>2021-12-26T09:17:45.000Z</time>
      </trkpt>
      <trkpt lat="48.0461" lon="-1.55769">
        <ele>43.00474</ele>
        <time>2021-12-26T09:17:46.000Z</time>
      </trkpt>
      <trkpt lat="48.04612" lon="-1.55771">
        <ele>43.0311</ele>
        <time>2021-12-26T09:17:47.000Z</time>
      </trkpt>
      <trkpt lat="48.04614" lon="-1.55772">
        <ele>43.06397</ele>
        <time>2021-12-26T09:17:48.000Z</time>
      </trkpt>
      <trkpt lat="48.04617" lon="-1.55774">
        <ele>43.10381</ele>
        <time>2021-12-26T09:17:49.000Z</time>
      </trkpt>
      <trkpt lat="48.04619" lon="-1.55775">
        <ele>43.14216</ele>
        <time>2021-12-26T09:17:50.000Z</time>
      </trkpt>
      <trkpt lat="48.04621" lon="-1.55777">
        <ele>43.16858</ele>
        <time>2021-12-26T09:17:51.000Z</time>
      </trkpt>
      <trkpt lat="48.04623" lon="-1.55779">
        <ele>43.19773</ele>
        <time>2021-12-26T09:17:52.000Z</time>
      </trkpt>
      <trkpt lat="48.04626" lon="-1.55781">
        <ele>43.22687</ele>
        <time>2021-12-26T09:17:53.000Z</time>
      </trkpt>
      <trkpt lat="48.04628" lon="-1.55782">
        <ele>43.26127</ele>
        <time>2021-12-26T09:17:54.000Z</time>
      </trkpt>
      <trkpt lat="48.0463" lon="-1.55784">
        <ele>43.2871</ele>
        <time>2021-12-26T09:17:55.000Z</time>
      </trkpt>
      <trkpt lat="48.04632" lon="-1.55787">
        <ele>43.30511</ele>
        <time>2021-12-26T09:17:56.000Z</time>
      </trkpt>
      <trkpt lat="48.04635" lon="-1.55789">
        <ele>43.3362</ele>
        <time>2021-12-26T09:17:57.000Z</time>
      </trkpt>
      <trkpt lat="48.04637" lon="-1.55791">
        <ele>43.36475</ele>
        <time>2021-12-26T09:17:58.000Z</time>
      </trkpt>
      <trkpt lat="48.0464" lon="-1.55793">
        <ele>43.40181</ele>
        <time>2021-12-26T09:17:59.000Z</time>
      </trkpt>
      <trkpt lat="48.04642" lon="-1.55796">
        <ele>43.43718</ele>
        <time>2021-12-26T09:18:00.000Z</time>
      </trkpt>
      <trkpt lat="48.04645" lon="-1.55798">
        <ele>43.47961</ele>
        <time>2021-12-26T09:18:01.000Z</time>
      </trkpt>
      <trkpt lat="48.04647" lon="-1.558">
        <ele>43.52266</ele>
        <time>2021-12-26T09:18:02.000Z</time>
      </trkpt>
      <trkpt lat="48.04649" lon="-1.55802">
        <ele>43.57912</ele>
        <time>2021-12-26T09:18:03.000Z</time>
      </trkpt>
      <trkpt lat="48.04651" lon="-1.55805">
        <ele>43.63086</ele>
        <time>2021-12-26T09:18:04.000Z</time>
      </trkpt>
      <trkpt lat="48.04654" lon="-1.55807">
        <ele>43.69725</ele>
        <time>2021-12-26T09:18:05.000Z</time>
      </trkpt>
      <trkpt lat="48.04656" lon="-1.55809">
        <ele>43.74935</ele>
        <time>2021-12-26T09:18:06.000Z</time>
      </trkpt>
      <trkpt lat="48.04658" lon="-1.55811">
        <ele>43.79932</ele>
        <time>2021-12-26T09:18:07.000Z</time>
      </trkpt>
      <trkpt lat="48.04661" lon="-1.55813">
        <ele>43.84895</ele>
        <time>2021-12-26T09:18:08.000Z</time>
      </trkpt>
      <trkpt lat="48.04663" lon="-1.55816">
        <ele>43.89039</ele>
        <time>2021-12-26T09:18:09.000Z</time>
      </trkpt>
      <trkpt lat="48.04665" lon="-1.55818">
        <ele>43.93536</ele>
        <time>2021-12-26T09:18:10.000Z</time>
      </trkpt>
      <trkpt lat="48.04667" lon="-1.5582">
        <ele>43.96535</ele>
        <time>2021-12-26T09:18:11.000Z</time>
      </trkpt>
      <trkpt lat="48.04669" lon="-1.55822">
        <ele>44.00262</ele>
        <time>2021-12-26T09:18:12.000Z</time>
      </trkpt>
      <trkpt lat="48.04673" lon="-1.55825">
        <ele>44.07173</ele>
        <time>2021-12-26T09:18:14.000Z</time>
      </trkpt>
      <trkpt lat="48.04675" lon="-1.55827">
        <ele>44.09898</ele>
        <time>2021-12-26T09:18:15.000Z</time>
      </trkpt>
      <trkpt lat="48.04677" lon="-1.5583">
        <ele>44.12433</ele>
        <time>2021-12-26T09:18:16.000Z</time>
      </trkpt>
      <trkpt lat="48.04679" lon="-1.55831">
        <ele>44.16563</ele>
        <time>2021-12-26T09:18:17.000Z</time>
      </trkpt>
      <trkpt lat="48.04682" lon="-1.55832">
        <ele>44.20872</ele>
        <time>2021-12-26T09:18:18.000Z</time>
      </trkpt>
      <trkpt lat="48.04684" lon="-1.55833">
        <ele>44.24785</ele>
        <time>2021-12-26T09:18:19.000Z</time>
      </trkpt>
      <trkpt lat="48.04687" lon="-1.55834">
        <ele>44.28309</ele>
        <time>2021-12-26T09:18:20.000Z</time>
      </trkpt>
      <trkpt lat="48.04689" lon="-1.55836">
        <ele>44.31487</ele>
        <time>2021-12-26T09:18:21.000Z</time>
      </trkpt>
      <trkpt lat="48.04692" lon="-1.55837">
        <ele>44.34206</ele>
        <time>2021-12-26T09:18:22.000Z</time>
      </trkpt>
      <trkpt lat="48.04693" lon="-1.55838">
        <ele>44.3599</ele>
        <time>2021-12-26T09:18:23.000Z</time>
      </trkpt>
      <trkpt lat="48.04695" lon="-1.5584">
        <ele>44.38319</ele>
        <time>2021-12-26T09:18:24.000Z</time>
      </trkpt>
      <trkpt lat="48.04697" lon="-1.55841">
        <ele>44.40748</ele>
        <time>2021-12-26T09:18:25.000Z</time>
      </trkpt>
      <trkpt lat="48.047" lon="-1.55843">
        <ele>44.43567</ele>
        <time>2021-12-26T09:18:26.000Z</time>
      </trkpt>
      <trkpt lat="48.04702" lon="-1.55845">
        <ele>44.46663</ele>
        <time>2021-12-26T09:18:27.000Z</time>
      </trkpt>
      <trkpt lat="48.04704" lon="-1.55847">
        <ele>44.50693</ele>
        <time>2021-12-26T09:18:28.000Z</time>
      </trkpt>
      <trkpt lat="48.04706" lon="-1.55849">
        <ele>44.54432</ele>
        <time>2021-12-26T09:18:29.000Z</time>
      </trkpt>
      <trkpt lat="48.04709" lon="-1.55851">
        <ele>44.5945</ele>
        <time>2021-12-26T09:18:30.000Z</time>
      </trkpt>
      <trkpt lat="48.04711" lon="-1.55853">
        <ele>44.64523</ele>
        <time>2021-12-26T09:18:31.000Z</time>
      </trkpt>
      <trkpt lat="48.04713" lon="-1.55855">
        <ele>44.69542</ele>
        <time>2021-12-26T09:18:32.000Z</time>
      </trkpt>
      <trkpt lat="48.04716" lon="-1.55857">
        <ele>44.74775</ele>
        <time>2021-12-26T09:18:33.000Z</time>
      </trkpt>
      <trkpt lat="48.04718" lon="-1.5586">
        <ele>44.78882</ele>
        <time>2021-12-26T09:18:34.000Z</time>
      </trkpt>
      <trkpt lat="48.0472" lon="-1.55862">
        <ele>44.82178</ele>
        <time>2021-12-26T09:18:35.000Z</time>
      </trkpt>
      <trkpt lat="48.04723" lon="-1.55864">
        <ele>44.85225</ele>
        <time>2021-12-26T09:18:36.000Z</time>
      </trkpt>
      <trkpt lat="48.04725" lon="-1.55866">
        <ele>44.87459</ele>
        <time>2021-12-26T09:18:37.000Z</time>
      </trkpt>
      <trkpt lat="48.04727" lon="-1.55868">
        <ele>44.8904</ele>
        <time>2021-12-26T09:18:38.000Z</time>
      </trkpt>
      <trkpt lat="48.04729" lon="-1.55871">
        <ele>44.89837</ele>
        <time>2021-12-26T09:18:39.000Z</time>
      </trkpt>
      <trkpt lat="48.04731" lon="-1.55873">
        <ele>44.90564</ele>
        <time>2021-12-26T09:18:40.000Z</time>
      </trkpt>
      <trkpt lat="48.04733" lon="-1.55876">
        <ele>44.90959</ele>
        <time>2021-12-26T09:18:41.000Z</time>
      </trkpt>
      <trkpt lat="48.04735" lon="-1.55878">
        <ele>44.91413</ele>
        <time>2021-12-26T09:18:42.000Z</time>
      </trkpt>
      <trkpt lat="48.04737" lon="-1.55881">
        <ele>44.91884</ele>
        <time>2021-12-26T09:18:43.000Z</time>
      </trkpt>
      <trkpt lat="48.04739" lon="-1.55883">
        <ele>44.92607</ele>
        <time>2021-12-26T09:18:44.000Z</time>
      </trkpt>
      <trkpt lat="48.04741" lon="-1.55886">
        <ele>44.93506</ele>
        <time>2021-12-26T09:18:45.000Z</time>
      </trkpt>
      <trkpt lat="48.04743" lon="-1.55889">
        <ele>44.95187</ele>
        <time>2021-12-26T09:18:46.000Z</time>
      </trkpt>
      <trkpt lat="48.04745" lon="-1.55892">
        <ele>44.97609</ele>
        <time>2021-12-26T09:18:47.000Z</time>
      </trkpt>
      <trkpt lat="48.04747" lon="-1.55895">
        <ele>45.00569</ele>
        <time>2021-12-26T09:18:48.000Z</time>
      </trkpt>
      <trkpt lat="48.04749" lon="-1.55898">
        <ele>45.04385</ele>
        <time>2021-12-26T09:18:49.000Z</time>
      </trkpt>
      <trkpt lat="48.0475" lon="-1.55902">
        <ele>45.09567</ele>
        <time>2021-12-26T09:18:50.000Z</time>
      </trkpt>
      <trkpt lat="48.04752" lon="-1.55905">
        <ele>45.14649</ele>
        <time>2021-12-26T09:18:51.000Z</time>
      </trkpt>
      <trkpt lat="48.04753" lon="-1.55909">
        <ele>45.20084</ele>
        <time>2021-12-26T09:18:52.000Z</time>
      </trkpt>
      <trkpt lat="48.04755" lon="-1.55912">
        <ele>45.24951</ele>
        <time>2021-12-26T09:18:53.000Z</time>
      </trkpt>
      <trkpt lat="48.04756" lon="-1.55915">
        <ele>45.29436</ele>
        <time>2021-12-26T09:18:54.000Z</time>
      </trkpt>
      <trkpt lat="48.04757" lon="-1.55919">
        <ele>45.33696</ele>
        <time>2021-12-26T09:18:55.000Z</time>
      </trkpt>
      <trkpt lat="48.04757" lon="-1.55919">
        <ele>45.33696</ele>
        <time>2021-12-26T09:18:55.000Z</time>
      </trkpt>
      <trkpt lat="48.04759" lon="-1.55923">
        <ele>45.36781</ele>
        <time>2021-12-26T09:18:56.000Z</time>
      </trkpt>
      <trkpt lat="48.0476" lon="-1.55927">
        <ele>45.38212</ele>
        <time>2021-12-26T09:18:57.000Z</time>
      </trkpt>
      <trkpt lat="48.04761" lon="-1.55931">
        <ele>45.38066</ele>
        <time>2021-12-26T09:18:58.000Z</time>
      </trkpt>
      <trkpt lat="48.04762" lon="-1.55934">
        <ele>45.36549</ele>
        <time>2021-12-26T09:18:59.000Z</time>
      </trkpt>
      <trkpt lat="48.04764" lon="-1.55938">
        <ele>45.34398</ele>
        <time>2021-12-26T09:19:00.000Z</time>
      </trkpt>
      <trkpt lat="48.04765" lon="-1.55942">
        <ele>45.32391</ele>
        <time>2021-12-26T09:19:01.000Z</time>
      </trkpt>
      <trkpt lat="48.04766" lon="-1.55945">
        <ele>45.31184</ele>
        <time>2021-12-26T09:19:02.000Z</time>
      </trkpt>
      <trkpt lat="48.04767" lon="-1.55949">
        <ele>45.31209</ele>
        <time>2021-12-26T09:19:03.000Z</time>
      </trkpt>
      <trkpt lat="48.04769" lon="-1.55952">
        <ele>45.32677</ele>
        <time>2021-12-26T09:19:04.000Z</time>
      </trkpt>
      <trkpt lat="48.0477" lon="-1.55956">
        <ele>45.35385</ele>
        <time>2021-12-26T09:19:05.000Z</time>
      </trkpt>
      <trkpt lat="48.04771" lon="-1.5596">
        <ele>45.38292</ele>
        <time>2021-12-26T09:19:06.000Z</time>
      </trkpt>
      <trkpt lat="48.04772" lon="-1.55964">
        <ele>45.4079</ele>
        <time>2021-12-26T09:19:07.000Z</time>
      </trkpt>
      <trkpt lat="48.04773" lon="-1.55969">
        <ele>45.42665</ele>
        <time>2021-12-26T09:19:08.000Z</time>
      </trkpt>
      <trkpt lat="48.04774" lon="-1.55973">
        <ele>45.43812</ele>
        <time>2021-12-26T09:19:09.000Z</time>
      </trkpt>
      <trkpt lat="48.04775" lon="-1.55977">
        <ele>45.42741</ele>
        <time>2021-12-26T09:19:10.000Z</time>
      </trkpt>
      <trkpt lat="48.04775" lon="-1.55982">
        <ele>45.40477</ele>
        <time>2021-12-26T09:19:11.000Z</time>
      </trkpt>
      <trkpt lat="48.04777" lon="-1.55986">
        <ele>45.36669</ele>
        <time>2021-12-26T09:19:12.000Z</time>
      </trkpt>
      <trkpt lat="48.04778" lon="-1.5599">
        <ele>45.29587</ele>
        <time>2021-12-26T09:19:13.000Z</time>
      </trkpt>
      <trkpt lat="48.04779" lon="-1.55994">
        <ele>45.2035</ele>
        <time>2021-12-26T09:19:14.000Z</time>
      </trkpt>
      <trkpt lat="48.0478" lon="-1.55998">
        <ele>45.10073</ele>
        <time>2021-12-26T09:19:15.000Z</time>
      </trkpt>
      <trkpt lat="48.04781" lon="-1.56001">
        <ele>44.99891</ele>
        <time>2021-12-26T09:19:16.000Z</time>
      </trkpt>
      <trkpt lat="48.04782" lon="-1.56006">
        <ele>44.90015</ele>
        <time>2021-12-26T09:19:17.000Z</time>
      </trkpt>
      <trkpt lat="48.04783" lon="-1.56009">
        <ele>44.8288</ele>
        <time>2021-12-26T09:19:18.000Z</time>
      </trkpt>
      <trkpt lat="48.04784" lon="-1.56013">
        <ele>44.79314</ele>
        <time>2021-12-26T09:19:19.000Z</time>
      </trkpt>
      <trkpt lat="48.04786" lon="-1.56016">
        <ele>44.81366</ele>
        <time>2021-12-26T09:19:20.000Z</time>
      </trkpt>
      <trkpt lat="48.04788" lon="-1.56019">
        <ele>44.87664</ele>
        <time>2021-12-26T09:19:21.000Z</time>
      </trkpt>
      <trkpt lat="48.0479" lon="-1.56023">
        <ele>44.9826</ele>
        <time>2021-12-26T09:19:22.000Z</time>
      </trkpt>
      <trkpt lat="48.04792" lon="-1.56026">
        <ele>45.12191</ele>
        <time>2021-12-26T09:19:23.000Z</time>
      </trkpt>
      <trkpt lat="48.04793" lon="-1.5603">
        <ele>45.28397</ele>
        <time>2021-12-26T09:19:24.000Z</time>
      </trkpt>
      <trkpt lat="48.04795" lon="-1.56034">
        <ele>45.45037</ele>
        <time>2021-12-26T09:19:25.000Z</time>
      </trkpt>
      <trkpt lat="48.04797" lon="-1.56038">
        <ele>45.61655</ele>
        <time>2021-12-26T09:19:26.000Z</time>
      </trkpt>
      <trkpt lat="48.04798" lon="-1.56042">
        <ele>45.76119</ele>
        <time>2021-12-26T09:19:27.000Z</time>
      </trkpt>
      <trkpt lat="48.04799" lon="-1.56045">
        <ele>45.88035</ele>
        <time>2021-12-26T09:19:28.000Z</time>
      </trkpt>
      <trkpt lat="48.04801" lon="-1.56049">
        <ele>45.98171</ele>
        <time>2021-12-26T09:19:29.000Z</time>
      </trkpt>
      <trkpt lat="48.04801" lon="-1.56053">
        <ele>46.06537</ele>
        <time>2021-12-26T09:19:30.000Z</time>
      </trkpt>
      <trkpt lat="48.04802" lon="-1.56057">
        <ele>46.1333</ele>
        <time>2021-12-26T09:19:31.000Z</time>
      </trkpt>
      <trkpt lat="48.04803" lon="-1.56061">
        <ele>46.19745</ele>
        <time>2021-12-26T09:19:32.000Z</time>
      </trkpt>
      <trkpt lat="48.04803" lon="-1.56065">
        <ele>46.25835</ele>
        <time>2021-12-26T09:19:33.000Z</time>
      </trkpt>
      <trkpt lat="48.04804" lon="-1.5607">
        <ele>46.32886</ele>
        <time>2021-12-26T09:19:34.000Z</time>
      </trkpt>
      <trkpt lat="48.04806" lon="-1.56073">
        <ele>46.41298</ele>
        <time>2021-12-26T09:19:35.000Z</time>
      </trkpt>
      <trkpt lat="48.04807" lon="-1.56076">
        <ele>46.52473</ele>
        <time>2021-12-26T09:19:36.000Z</time>
      </trkpt>
      <trkpt lat="48.04809" lon="-1.5608">
        <ele>46.64976</ele>
        <time>2021-12-26T09:19:37.000Z</time>
      </trkpt>
      <trkpt lat="48.0481" lon="-1.56083">
        <ele>46.80764</ele>
        <time>2021-12-26T09:19:38.000Z</time>
      </trkpt>
      <trkpt lat="48.04812" lon="-1.56087">
        <ele>46.99093</ele>
        <time>2021-12-26T09:19:39.000Z</time>
      </trkpt>
      <trkpt lat="48.04813" lon="-1.5609">
        <ele>47.16172</ele>
        <time>2021-12-26T09:19:40.000Z</time>
      </trkpt>
      <trkpt lat="48.04814" lon="-1.56094">
        <ele>47.3162</ele>
        <time>2021-12-26T09:19:41.000Z</time>
      </trkpt>
      <trkpt lat="48.04815" lon="-1.56097">
        <ele>47.45773</ele>
        <time>2021-12-26T09:19:42.000Z</time>
      </trkpt>
      <trkpt lat="48.04816" lon="-1.56102">
        <ele>47.57049</ele>
        <time>2021-12-26T09:19:43.000Z</time>
      </trkpt>
      <trkpt lat="48.04817" lon="-1.56106">
        <ele>47.65269</ele>
        <time>2021-12-26T09:19:44.000Z</time>
      </trkpt>
      <trkpt lat="48.04817" lon="-1.5611">
        <ele>47.72156</ele>
        <time>2021-12-26T09:19:45.000Z</time>
      </trkpt>
      <trkpt lat="48.04818" lon="-1.56114">
        <ele>47.76253</ele>
        <time>2021-12-26T09:19:46.000Z</time>
      </trkpt>
      <trkpt lat="48.04819" lon="-1.56119">
        <ele>47.79016</ele>
        <time>2021-12-26T09:19:47.000Z</time>
      </trkpt>
      <trkpt lat="48.0482" lon="-1.56123">
        <ele>47.80502</ele>
        <time>2021-12-26T09:19:48.000Z</time>
      </trkpt>
      <trkpt lat="48.04821" lon="-1.56128">
        <ele>47.80207</ele>
        <time>2021-12-26T09:19:49.000Z</time>
      </trkpt>
      <trkpt lat="48.04822" lon="-1.56132">
        <ele>47.78763</ele>
        <time>2021-12-26T09:19:50.000Z</time>
      </trkpt>
      <trkpt lat="48.04823" lon="-1.56137">
        <ele>47.76213</ele>
        <time>2021-12-26T09:19:51.000Z</time>
      </trkpt>
      <trkpt lat="48.04824" lon="-1.56141">
        <ele>47.74682</ele>
        <time>2021-12-26T09:19:52.000Z</time>
      </trkpt>
      <trkpt lat="48.04825" lon="-1.56145">
        <ele>47.75896</ele>
        <time>2021-12-26T09:19:53.000Z</time>
      </trkpt>
      <trkpt lat="48.04826" lon="-1.5615">
        <ele>47.80406</ele>
        <time>2021-12-26T09:19:54.000Z</time>
      </trkpt>
      <trkpt lat="48.04827" lon="-1.56154">
        <ele>47.88401</ele>
        <time>2021-12-26T09:19:55.000Z</time>
      </trkpt>
      <trkpt lat="48.04828" lon="-1.56158">
        <ele>48.00013</ele>
        <time>2021-12-26T09:19:56.000Z</time>
      </trkpt>
      <trkpt lat="48.04829" lon="-1.56163">
        <ele>48.15466</ele>
        <time>2021-12-26T09:19:57.000Z</time>
      </trkpt>
      <trkpt lat="48.0483" lon="-1.56167">
        <ele>48.34126</ele>
        <time>2021-12-26T09:19:58.000Z</time>
      </trkpt>
      <trkpt lat="48.04831" lon="-1.56171">
        <ele>48.52636</ele>
        <time>2021-12-26T09:19:59.000Z</time>
      </trkpt>
      <trkpt lat="48.04832" lon="-1.56176">
        <ele>48.70285</ele>
        <time>2021-12-26T09:20:00.000Z</time>
      </trkpt>
      <trkpt lat="48.04833" lon="-1.5618">
        <ele>48.87689</ele>
        <time>2021-12-26T09:20:01.000Z</time>
      </trkpt>
      <trkpt lat="48.04834" lon="-1.56184">
        <ele>49.01092</ele>
        <time>2021-12-26T09:20:02.000Z</time>
      </trkpt>
      <trkpt lat="48.04836" lon="-1.56189">
        <ele>49.11531</ele>
        <time>2021-12-26T09:20:03.000Z</time>
      </trkpt>
      <trkpt lat="48.04837" lon="-1.56193">
        <ele>49.18255</ele>
        <time>2021-12-26T09:20:04.000Z</time>
      </trkpt>
      <trkpt lat="48.04838" lon="-1.56198">
        <ele>49.22296</ele>
        <time>2021-12-26T09:20:05.000Z</time>
      </trkpt>
      <trkpt lat="48.04839" lon="-1.56202">
        <ele>49.2493</ele>
        <time>2021-12-26T09:20:06.000Z</time>
      </trkpt>
      <trkpt lat="48.0484" lon="-1.56206">
        <ele>49.27064</ele>
        <time>2021-12-26T09:20:07.000Z</time>
      </trkpt>
      <trkpt lat="48.04841" lon="-1.5621">
        <ele>49.28833</ele>
        <time>2021-12-26T09:20:08.000Z</time>
      </trkpt>
      <trkpt lat="48.04842" lon="-1.56214">
        <ele>49.32059</ele>
        <time>2021-12-26T09:20:09.000Z</time>
      </trkpt>
      <trkpt lat="48.04843" lon="-1.56218">
        <ele>49.37316</ele>
        <time>2021-12-26T09:20:10.000Z</time>
      </trkpt>
      <trkpt lat="48.04844" lon="-1.56222">
        <ele>49.43542</ele>
        <time>2021-12-26T09:20:11.000Z</time>
      </trkpt>
      <trkpt lat="48.04845" lon="-1.56227">
        <ele>49.54791</ele>
        <time>2021-12-26T09:20:12.000Z</time>
      </trkpt>
      <trkpt lat="48.04846" lon="-1.56231">
        <ele>49.69153</ele>
        <time>2021-12-26T09:20:13.000Z</time>
      </trkpt>
      <trkpt lat="48.04847" lon="-1.56235">
        <ele>49.86173</ele>
        <time>2021-12-26T09:20:14.000Z</time>
      </trkpt>
      <trkpt lat="48.04848" lon="-1.56239">
        <ele>50.03947</ele>
        <time>2021-12-26T09:20:15.000Z</time>
      </trkpt>
      <trkpt lat="48.04849" lon="-1.56243">
        <ele>50.21079</ele>
        <time>2021-12-26T09:20:16.000Z</time>
      </trkpt>
      <trkpt lat="48.04849" lon="-1.56248">
        <ele>50.38282</ele>
        <time>2021-12-26T09:20:17.000Z</time>
      </trkpt>
      <trkpt lat="48.04851" lon="-1.56252">
        <ele>50.55986</ele>
        <time>2021-12-26T09:20:18.000Z</time>
      </trkpt>
      <trkpt lat="48.04852" lon="-1.56256">
        <ele>50.72148</ele>
        <time>2021-12-26T09:20:19.000Z</time>
      </trkpt>
      <trkpt lat="48.04853" lon="-1.5626">
        <ele>50.86134</ele>
        <time>2021-12-26T09:20:20.000Z</time>
      </trkpt>
      <trkpt lat="48.04854" lon="-1.56264">
        <ele>50.98311</ele>
        <time>2021-12-26T09:20:21.000Z</time>
      </trkpt>
      <trkpt lat="48.04855" lon="-1.56268">
        <ele>51.07956</ele>
        <time>2021-12-26T09:20:22.000Z</time>
      </trkpt>
      <trkpt lat="48.04856" lon="-1.56273">
        <ele>51.15131</ele>
        <time>2021-12-26T09:20:23.000Z</time>
      </trkpt>
      <trkpt lat="48.04857" lon="-1.56277">
        <ele>51.20328</ele>
        <time>2021-12-26T09:20:24.000Z</time>
      </trkpt>
      <trkpt lat="48.04858" lon="-1.56281">
        <ele>51.23334</ele>
        <time>2021-12-26T09:20:25.000Z</time>
      </trkpt>
      <trkpt lat="48.04859" lon="-1.56285">
        <ele>51.26081</ele>
        <time>2021-12-26T09:20:26.000Z</time>
      </trkpt>
      <trkpt lat="48.0486" lon="-1.56289">
        <ele>51.28847</ele>
        <time>2021-12-26T09:20:27.000Z</time>
      </trkpt>
      <trkpt lat="48.04861" lon="-1.56293">
        <ele>51.33149</ele>
        <time>2021-12-26T09:20:28.000Z</time>
      </trkpt>
      <trkpt lat="48.04862" lon="-1.56297">
        <ele>51.39574</ele>
        <time>2021-12-26T09:20:29.000Z</time>
      </trkpt>
      <trkpt lat="48.04863" lon="-1.56301">
        <ele>51.49104</ele>
        <time>2021-12-26T09:20:30.000Z</time>
      </trkpt>
      <trkpt lat="48.04863" lon="-1.56306">
        <ele>51.61326</ele>
        <time>2021-12-26T09:20:31.000Z</time>
      </trkpt>
      <trkpt lat="48.04864" lon="-1.5631">
        <ele>51.75773</ele>
        <time>2021-12-26T09:20:32.000Z</time>
      </trkpt>
      <trkpt lat="48.04865" lon="-1.56314">
        <ele>51.93858</ele>
        <time>2021-12-26T09:20:33.000Z</time>
      </trkpt>
      <trkpt lat="48.04867" lon="-1.56317">
        <ele>52.13221</ele>
        <time>2021-12-26T09:20:34.000Z</time>
      </trkpt>
      <trkpt lat="48.04868" lon="-1.56321">
        <ele>52.31833</ele>
        <time>2021-12-26T09:20:35.000Z</time>
      </trkpt>
      <trkpt lat="48.04869" lon="-1.56325">
        <ele>52.52129</ele>
        <time>2021-12-26T09:20:36.000Z</time>
      </trkpt>
      <trkpt lat="48.0487" lon="-1.56329">
        <ele>52.70605</ele>
        <time>2021-12-26T09:20:37.000Z</time>
      </trkpt>
      <trkpt lat="48.04871" lon="-1.56333">
        <ele>52.88252</ele>
        <time>2021-12-26T09:20:38.000Z</time>
      </trkpt>
      <trkpt lat="48.04872" lon="-1.56337">
        <ele>53.03046</ele>
        <time>2021-12-26T09:20:39.000Z</time>
      </trkpt>
      <trkpt lat="48.04873" lon="-1.5634">
        <ele>53.17338</ele>
        <time>2021-12-26T09:20:40.000Z</time>
      </trkpt>
      <trkpt lat="48.04874" lon="-1.56344">
        <ele>53.27286</ele>
        <time>2021-12-26T09:20:41.000Z</time>
      </trkpt>
      <trkpt lat="48.04875" lon="-1.56348">
        <ele>53.34916</ele>
        <time>2021-12-26T09:20:42.000Z</time>
      </trkpt>
      <trkpt lat="48.04876" lon="-1.56352">
        <ele>53.4063</ele>
        <time>2021-12-26T09:20:43.000Z</time>
      </trkpt>
      <trkpt lat="48.04878" lon="-1.56356">
        <ele>53.45587</ele>
        <time>2021-12-26T09:20:44.000Z</time>
      </trkpt>
      <trkpt lat="48.04879" lon="-1.5636">
        <ele>53.49844</ele>
        <time>2021-12-26T09:20:45.000Z</time>
      </trkpt>
      <trkpt lat="48.04879" lon="-1.56364">
        <ele>53.52758</ele>
        <time>2021-12-26T09:20:46.000Z</time>
      </trkpt>
      <trkpt lat="48.0488" lon="-1.56369">
        <ele>53.55255</ele>
        <time>2021-12-26T09:20:47.000Z</time>
      </trkpt>
      <trkpt lat="48.04881" lon="-1.56373">
        <ele>53.58168</ele>
        <time>2021-12-26T09:20:48.000Z</time>
      </trkpt>
      <trkpt lat="48.04881" lon="-1.56377">
        <ele>53.61366</ele>
        <time>2021-12-26T09:20:49.000Z</time>
      </trkpt>
      <trkpt lat="48.04882" lon="-1.56381">
        <ele>53.65503</ele>
        <time>2021-12-26T09:20:50.000Z</time>
      </trkpt>
      <trkpt lat="48.04883" lon="-1.56385">
        <ele>53.71518</ele>
        <time>2021-12-26T09:20:51.000Z</time>
      </trkpt>
      <trkpt lat="48.04883" lon="-1.5639">
        <ele>53.79218</ele>
        <time>2021-12-26T09:20:52.000Z</time>
      </trkpt>
      <trkpt lat="48.04884" lon="-1.56394">
        <ele>53.9047</ele>
        <time>2021-12-26T09:20:53.000Z</time>
      </trkpt>
      <trkpt lat="48.04884" lon="-1.56398">
        <ele>54.042</ele>
        <time>2021-12-26T09:20:54.000Z</time>
      </trkpt>
      <trkpt lat="48.04885" lon="-1.56403">
        <ele>54.20785</ele>
        <time>2021-12-26T09:20:55.000Z</time>
      </trkpt>
      <trkpt lat="48.04885" lon="-1.56407">
        <ele>54.42003</ele>
        <time>2021-12-26T09:20:56.000Z</time>
      </trkpt>
      <trkpt lat="48.04886" lon="-1.56411">
        <ele>54.64986</ele>
        <time>2021-12-26T09:20:57.000Z</time>
      </trkpt>
      <trkpt lat="48.04887" lon="-1.56415">
        <ele>54.86946</ele>
        <time>2021-12-26T09:20:58.000Z</time>
      </trkpt>
      <trkpt lat="48.04887" lon="-1.56419">
        <ele>55.07141</ele>
        <time>2021-12-26T09:20:59.000Z</time>
      </trkpt>
      <trkpt lat="48.04888" lon="-1.56423">
        <ele>55.28141</ele>
        <time>2021-12-26T09:21:00.000Z</time>
      </trkpt>
      <trkpt lat="48.04888" lon="-1.56427">
        <ele>55.4847</ele>
        <time>2021-12-26T09:21:01.000Z</time>
      </trkpt>
      <trkpt lat="48.04889" lon="-1.56431">
        <ele>55.66213</ele>
        <time>2021-12-26T09:21:02.000Z</time>
      </trkpt>
      <trkpt lat="48.04889" lon="-1.56436">
        <ele>55.84779</ele>
        <time>2021-12-26T09:21:03.000Z</time>
      </trkpt>
      <trkpt lat="48.0489" lon="-1.5644">
        <ele>56.02956</ele>
        <time>2021-12-26T09:21:04.000Z</time>
      </trkpt>
      <trkpt lat="48.04891" lon="-1.56445">
        <ele>56.24438</ele>
        <time>2021-12-26T09:21:05.000Z</time>
      </trkpt>
      <trkpt lat="48.04891" lon="-1.56449">
        <ele>56.42543</ele>
        <time>2021-12-26T09:21:06.000Z</time>
      </trkpt>
      <trkpt lat="48.04891" lon="-1.56454">
        <ele>56.60058</ele>
        <time>2021-12-26T09:21:07.000Z</time>
      </trkpt>
      <trkpt lat="48.04892" lon="-1.56458">
        <ele>56.7428</ele>
        <time>2021-12-26T09:21:08.000Z</time>
      </trkpt>
      <trkpt lat="48.04892" lon="-1.56463">
        <ele>56.88449</ele>
        <time>2021-12-26T09:21:09.000Z</time>
      </trkpt>
      <trkpt lat="48.04893" lon="-1.56467">
        <ele>56.99674</ele>
        <time>2021-12-26T09:21:10.000Z</time>
      </trkpt>
      <trkpt lat="48.04893" lon="-1.56471">
        <ele>57.06791</ele>
        <time>2021-12-26T09:21:11.000Z</time>
      </trkpt>
      <trkpt lat="48.04894" lon="-1.56476">
        <ele>57.13115</ele>
        <time>2021-12-26T09:21:12.000Z</time>
      </trkpt>
      <trkpt lat="48.04894" lon="-1.5648">
        <ele>57.14786</ele>
        <time>2021-12-26T09:21:13.000Z</time>
      </trkpt>
      <trkpt lat="48.04894" lon="-1.56485">
        <ele>57.12895</ele>
        <time>2021-12-26T09:21:14.000Z</time>
      </trkpt>
      <trkpt lat="48.04894" lon="-1.56489">
        <ele>57.10161</ele>
        <time>2021-12-26T09:21:15.000Z</time>
      </trkpt>
      <trkpt lat="48.04894" lon="-1.56494">
        <ele>57.06044</ele>
        <time>2021-12-26T09:21:16.000Z</time>
      </trkpt>
      <trkpt lat="48.04895" lon="-1.56498">
        <ele>57.06303</ele>
        <time>2021-12-26T09:21:17.000Z</time>
      </trkpt>
      <trkpt lat="48.04895" lon="-1.56502">
        <ele>57.07279</ele>
        <time>2021-12-26T09:21:18.000Z</time>
      </trkpt>
      <trkpt lat="48.04896" lon="-1.56506">
        <ele>57.08763</ele>
        <time>2021-12-26T09:21:19.000Z</time>
      </trkpt>
      <trkpt lat="48.04896" lon="-1.56511">
        <ele>57.09215</ele>
        <time>2021-12-26T09:21:20.000Z</time>
      </trkpt>
      <trkpt lat="48.04896" lon="-1.56515">
        <ele>57.1184</ele>
        <time>2021-12-26T09:21:21.000Z</time>
      </trkpt>
      <trkpt lat="48.04896" lon="-1.5652">
        <ele>57.09779</ele>
        <time>2021-12-26T09:21:22.000Z</time>
      </trkpt>
      <trkpt lat="48.04896" lon="-1.56525">
        <ele>57.11242</ele>
        <time>2021-12-26T09:21:23.000Z</time>
      </trkpt>
      <trkpt lat="48.04896" lon="-1.56529">
        <ele>57.10779</ele>
        <time>2021-12-26T09:21:24.000Z</time>
      </trkpt>
      <trkpt lat="48.04896" lon="-1.56534">
        <ele>57.10786</ele>
        <time>2021-12-26T09:21:25.000Z</time>
      </trkpt>
      <trkpt lat="48.04896" lon="-1.56539">
        <ele>57.0837</ele>
        <time>2021-12-26T09:21:26.000Z</time>
      </trkpt>
      <trkpt lat="48.04896" lon="-1.56544">
        <ele>57.04649</ele>
        <time>2021-12-26T09:21:27.000Z</time>
      </trkpt>
      <trkpt lat="48.04896" lon="-1.5655">
        <ele>57.00881</ele>
        <time>2021-12-26T09:21:28.000Z</time>
      </trkpt>
      <trkpt lat="48.04896" lon="-1.56555">
        <ele>56.9838</ele>
        <time>2021-12-26T09:21:29.000Z</time>
      </trkpt>
      <trkpt lat="48.04896" lon="-1.56561">
        <ele>56.97449</ele>
        <time>2021-12-26T09:21:30.000Z</time>
      </trkpt>
      <trkpt lat="48.04896" lon="-1.56566">
        <ele>56.97507</ele>
        <time>2021-12-26T09:21:31.000Z</time>
      </trkpt>
      <trkpt lat="48.04896" lon="-1.56572">
        <ele>56.98745</ele>
        <time>2021-12-26T09:21:32.000Z</time>
      </trkpt>
      <trkpt lat="48.04896" lon="-1.56577">
        <ele>57.01778</ele>
        <time>2021-12-26T09:21:33.000Z</time>
      </trkpt>
      <trkpt lat="48.04896" lon="-1.56583">
        <ele>57.06248</ele>
        <time>2021-12-26T09:21:34.000Z</time>
      </trkpt>
      <trkpt lat="48.04896" lon="-1.56588">
        <ele>57.09849</ele>
        <time>2021-12-26T09:21:35.000Z</time>
      </trkpt>
      <trkpt lat="48.04896" lon="-1.56594">
        <ele>57.15069</ele>
        <time>2021-12-26T09:21:36.000Z</time>
      </trkpt>
      <trkpt lat="48.04897" lon="-1.56599">
        <ele>57.18595</ele>
        <time>2021-12-26T09:21:37.000Z</time>
      </trkpt>
      <trkpt lat="48.04897" lon="-1.56605">
        <ele>57.22959</ele>
        <time>2021-12-26T09:21:38.000Z</time>
      </trkpt>
      <trkpt lat="48.04897" lon="-1.56611">
        <ele>57.26448</ele>
        <time>2021-12-26T09:21:39.000Z</time>
      </trkpt>
      <trkpt lat="48.04897" lon="-1.56616">
        <ele>57.29667</ele>
        <time>2021-12-26T09:21:40.000Z</time>
      </trkpt>
      <trkpt lat="48.04897" lon="-1.56622">
        <ele>57.31185</ele>
        <time>2021-12-26T09:21:41.000Z</time>
      </trkpt>
      <trkpt lat="48.04898" lon="-1.56628">
        <ele>57.35558</ele>
        <time>2021-12-26T09:21:42.000Z</time>
      </trkpt>
      <trkpt lat="48.04898" lon="-1.56634">
        <ele>57.3726</ele>
        <time>2021-12-26T09:21:43.000Z</time>
      </trkpt>
      <trkpt lat="48.04899" lon="-1.56639">
        <ele>57.34844</ele>
        <time>2021-12-26T09:21:44.000Z</time>
      </trkpt>
      <trkpt lat="48.04899" lon="-1.56645">
        <ele>57.30504</ele>
        <time>2021-12-26T09:21:45.000Z</time>
      </trkpt>
      <trkpt lat="48.04899" lon="-1.56651">
        <ele>57.2359</ele>
        <time>2021-12-26T09:21:46.000Z</time>
      </trkpt>
      <trkpt lat="48.04899" lon="-1.56657">
        <ele>57.17881</ele>
        <time>2021-12-26T09:21:47.000Z</time>
      </trkpt>
      <trkpt lat="48.049" lon="-1.56663">
        <ele>57.12647</ele>
        <time>2021-12-26T09:21:48.000Z</time>
      </trkpt>
      <trkpt lat="48.049" lon="-1.56669">
        <ele>57.06814</ele>
        <time>2021-12-26T09:21:49.000Z</time>
      </trkpt>
      <trkpt lat="48.049" lon="-1.56676">
        <ele>57.00851</ele>
        <time>2021-12-26T09:21:50.000Z</time>
      </trkpt>
      <trkpt lat="48.04901" lon="-1.56682">
        <ele>56.95699</ele>
        <time>2021-12-26T09:21:51.000Z</time>
      </trkpt>
      <trkpt lat="48.04901" lon="-1.56689">
        <ele>56.90776</ele>
        <time>2021-12-26T09:21:52.000Z</time>
      </trkpt>
      <trkpt lat="48.04901" lon="-1.56695">
        <ele>56.87051</ele>
        <time>2021-12-26T09:21:53.000Z</time>
      </trkpt>
      <trkpt lat="48.04902" lon="-1.56702">
        <ele>56.86505</ele>
        <time>2021-12-26T09:21:54.000Z</time>
      </trkpt>
      <trkpt lat="48.04902" lon="-1.56709">
        <ele>56.88575</ele>
        <time>2021-12-26T09:21:55.000Z</time>
      </trkpt>
      <trkpt lat="48.04902" lon="-1.56715">
        <ele>56.93962</ele>
        <time>2021-12-26T09:21:56.000Z</time>
      </trkpt>
      <trkpt lat="48.04903" lon="-1.56722">
        <ele>56.98541</ele>
        <time>2021-12-26T09:21:57.000Z</time>
      </trkpt>
      <trkpt lat="48.04903" lon="-1.56729">
        <ele>57.05933</ele>
        <time>2021-12-26T09:21:58.000Z</time>
      </trkpt>
      <trkpt lat="48.04903" lon="-1.56736">
        <ele>57.15786</ele>
        <time>2021-12-26T09:21:59.000Z</time>
      </trkpt>
      <trkpt lat="48.04903" lon="-1.56743">
        <ele>57.28401</ele>
        <time>2021-12-26T09:22:00.000Z</time>
      </trkpt>
      <trkpt lat="48.04904" lon="-1.5675">
        <ele>57.43712</ele>
        <time>2021-12-26T09:22:01.000Z</time>
      </trkpt>
      <trkpt lat="48.04904" lon="-1.56757">
        <ele>57.56128</ele>
        <time>2021-12-26T09:22:02.000Z</time>
      </trkpt>
      <trkpt lat="48.04904" lon="-1.56763">
        <ele>57.67526</ele>
        <time>2021-12-26T09:22:03.000Z</time>
      </trkpt>
      <trkpt lat="48.04904" lon="-1.5677">
        <ele>57.77996</ele>
        <time>2021-12-26T09:22:04.000Z</time>
      </trkpt>
      <trkpt lat="48.04906" lon="-1.56776">
        <ele>57.90503</ele>
        <time>2021-12-26T09:22:05.000Z</time>
      </trkpt>
      <trkpt lat="48.04907" lon="-1.56782">
        <ele>57.99616</ele>
        <time>2021-12-26T09:22:06.000Z</time>
      </trkpt>
      <trkpt lat="48.04908" lon="-1.56788">
        <ele>58.0677</ele>
        <time>2021-12-26T09:22:07.000Z</time>
      </trkpt>
      <trkpt lat="48.04909" lon="-1.56793">
        <ele>58.16198</ele>
        <time>2021-12-26T09:22:08.000Z</time>
      </trkpt>
      <trkpt lat="48.04911" lon="-1.56799">
        <ele>58.28274</ele>
        <time>2021-12-26T09:22:09.000Z</time>
      </trkpt>
      <trkpt lat="48.04913" lon="-1.56804">
        <ele>58.42781</ele>
        <time>2021-12-26T09:22:10.000Z</time>
      </trkpt>
      <trkpt lat="48.04914" lon="-1.56809">
        <ele>58.61464</ele>
        <time>2021-12-26T09:22:11.000Z</time>
      </trkpt>
      <trkpt lat="48.04916" lon="-1.56814">
        <ele>58.84013</ele>
        <time>2021-12-26T09:22:12.000Z</time>
      </trkpt>
      <trkpt lat="48.04918" lon="-1.56819">
        <ele>59.07509</ele>
        <time>2021-12-26T09:22:13.000Z</time>
      </trkpt>
      <trkpt lat="48.0492" lon="-1.56824">
        <ele>59.27843</ele>
        <time>2021-12-26T09:22:14.000Z</time>
      </trkpt>
      <trkpt lat="48.04922" lon="-1.56829">
        <ele>59.45201</ele>
        <time>2021-12-26T09:22:15.000Z</time>
      </trkpt>
      <trkpt lat="48.04924" lon="-1.56834">
        <ele>59.60079</ele>
        <time>2021-12-26T09:22:16.000Z</time>
      </trkpt>
      <trkpt lat="48.04926" lon="-1.56838">
        <ele>59.72901</ele>
        <time>2021-12-26T09:22:17.000Z</time>
      </trkpt>
      <trkpt lat="48.04928" lon="-1.56843">
        <ele>59.84866</ele>
        <time>2021-12-26T09:22:18.000Z</time>
      </trkpt>
      <trkpt lat="48.0493" lon="-1.56848">
        <ele>59.96778</ele>
        <time>2021-12-26T09:22:19.000Z</time>
      </trkpt>
      <trkpt lat="48.04932" lon="-1.56852">
        <ele>60.09181</ele>
        <time>2021-12-26T09:22:20.000Z</time>
      </trkpt>
      <trkpt lat="48.04934" lon="-1.56857">
        <ele>60.20785</ele>
        <time>2021-12-26T09:22:21.000Z</time>
      </trkpt>
      <trkpt lat="48.04936" lon="-1.56861">
        <ele>60.32091</ele>
        <time>2021-12-26T09:22:22.000Z</time>
      </trkpt>
      <trkpt lat="48.04938" lon="-1.56866">
        <ele>60.41067</ele>
        <time>2021-12-26T09:22:23.000Z</time>
      </trkpt>
      <trkpt lat="48.0494" lon="-1.5687">
        <ele>60.48765</ele>
        <time>2021-12-26T09:22:24.000Z</time>
      </trkpt>
      <trkpt lat="48.04942" lon="-1.56875">
        <ele>60.56053</ele>
        <time>2021-12-26T09:22:25.000Z</time>
      </trkpt>
      <trkpt lat="48.04944" lon="-1.5688">
        <ele>60.64512</ele>
        <time>2021-12-26T09:22:26.000Z</time>
      </trkpt>
      <trkpt lat="48.04946" lon="-1.56884">
        <ele>60.74175</ele>
        <time>2021-12-26T09:22:27.000Z</time>
      </trkpt>
      <trkpt lat="48.04948" lon="-1.56889">
        <ele>60.84995</ele>
        <time>2021-12-26T09:22:28.000Z</time>
      </trkpt>
      <trkpt lat="48.0495" lon="-1.56893">
        <ele>60.963</ele>
        <time>2021-12-26T09:22:29.000Z</time>
      </trkpt>
      <trkpt lat="48.04952" lon="-1.56898">
        <ele>61.07921</ele>
        <time>2021-12-26T09:22:30.000Z</time>
      </trkpt>
      <trkpt lat="48.04954" lon="-1.56902">
        <ele>61.17939</ele>
        <time>2021-12-26T09:22:31.000Z</time>
      </trkpt>
      <trkpt lat="48.04957" lon="-1.56907">
        <ele>61.25803</ele>
        <time>2021-12-26T09:22:32.000Z</time>
      </trkpt>
      <trkpt lat="48.04959" lon="-1.56911">
        <ele>61.31432</ele>
        <time>2021-12-26T09:22:33.000Z</time>
      </trkpt>
      <trkpt lat="48.04961" lon="-1.56916">
        <ele>61.37495</ele>
        <time>2021-12-26T09:22:34.000Z</time>
      </trkpt>
      <trkpt lat="48.04963" lon="-1.5692">
        <ele>61.44442</ele>
        <time>2021-12-26T09:22:35.000Z</time>
      </trkpt>
      <trkpt lat="48.04966" lon="-1.56924">
        <ele>61.52851</ele>
        <time>2021-12-26T09:22:36.000Z</time>
      </trkpt>
      <trkpt lat="48.04968" lon="-1.56927">
        <ele>61.63594</ele>
        <time>2021-12-26T09:22:37.000Z</time>
      </trkpt>
      <trkpt lat="48.04971" lon="-1.56931">
        <ele>61.75111</ele>
        <time>2021-12-26T09:22:38.000Z</time>
      </trkpt>
      <trkpt lat="48.04974" lon="-1.56935">
        <ele>61.86645</ele>
        <time>2021-12-26T09:22:39.000Z</time>
      </trkpt>
      <trkpt lat="48.04976" lon="-1.56938">
        <ele>61.95868</ele>
        <time>2021-12-26T09:22:40.000Z</time>
      </trkpt>
      <trkpt lat="48.0498" lon="-1.56941">
        <ele>62.02862</ele>
        <time>2021-12-26T09:22:41.000Z</time>
      </trkpt>
      <trkpt lat="48.04983" lon="-1.56944">
        <ele>62.07338</ele>
        <time>2021-12-26T09:22:42.000Z</time>
      </trkpt>
      <trkpt lat="48.04986" lon="-1.56946">
        <ele>62.10091</ele>
        <time>2021-12-26T09:22:43.000Z</time>
      </trkpt>
      <trkpt lat="48.04989" lon="-1.56949">
        <ele>62.13276</ele>
        <time>2021-12-26T09:22:44.000Z</time>
      </trkpt>
      <trkpt lat="48.04993" lon="-1.56952">
        <ele>62.17439</ele>
        <time>2021-12-26T09:22:45.000Z</time>
      </trkpt>
      <trkpt lat="48.04996" lon="-1.56955">
        <ele>62.22872</ele>
        <time>2021-12-26T09:22:46.000Z</time>
      </trkpt>
      <trkpt lat="48.04999" lon="-1.56957">
        <ele>62.28412</ele>
        <time>2021-12-26T09:22:47.000Z</time>
      </trkpt>
      <trkpt lat="48.05003" lon="-1.5696">
        <ele>62.30554</ele>
        <time>2021-12-26T09:22:48.000Z</time>
      </trkpt>
      <trkpt lat="48.05006" lon="-1.56963">
        <ele>62.30945</ele>
        <time>2021-12-26T09:22:49.000Z</time>
      </trkpt>
      <trkpt lat="48.0501" lon="-1.56965">
        <ele>62.29245</ele>
        <time>2021-12-26T09:22:50.000Z</time>
      </trkpt>
      <trkpt lat="48.05013" lon="-1.56968">
        <ele>62.28265</ele>
        <time>2021-12-26T09:22:51.000Z</time>
      </trkpt>
      <trkpt lat="48.05016" lon="-1.56972">
        <ele>62.29089</ele>
        <time>2021-12-26T09:22:52.000Z</time>
      </trkpt>
      <trkpt lat="48.0502" lon="-1.56975">
        <ele>62.34621</ele>
        <time>2021-12-26T09:22:53.000Z</time>
      </trkpt>
      <trkpt lat="48.05023" lon="-1.56978">
        <ele>62.44729</ele>
        <time>2021-12-26T09:22:54.000Z</time>
      </trkpt>
      <trkpt lat="48.05026" lon="-1.56982">
        <ele>62.5812</ele>
        <time>2021-12-26T09:22:55.000Z</time>
      </trkpt>
      <trkpt lat="48.05029" lon="-1.56986">
        <ele>62.71523</ele>
        <time>2021-12-26T09:22:56.000Z</time>
      </trkpt>
      <trkpt lat="48.05032" lon="-1.56989">
        <ele>62.81782</ele>
        <time>2021-12-26T09:22:57.000Z</time>
      </trkpt>
      <trkpt lat="48.05036" lon="-1.56993">
        <ele>62.87735</ele>
        <time>2021-12-26T09:22:58.000Z</time>
      </trkpt>
      <trkpt lat="48.05039" lon="-1.56996">
        <ele>62.89409</ele>
        <time>2021-12-26T09:22:59.000Z</time>
      </trkpt>
      <trkpt lat="48.05042" lon="-1.57">
        <ele>62.88944</ele>
        <time>2021-12-26T09:23:00.000Z</time>
      </trkpt>
      <trkpt lat="48.05045" lon="-1.57004">
        <ele>62.88936</ele>
        <time>2021-12-26T09:23:01.000Z</time>
      </trkpt>
      <trkpt lat="48.05048" lon="-1.57008">
        <ele>62.90176</ele>
        <time>2021-12-26T09:23:02.000Z</time>
      </trkpt>
      <trkpt lat="48.05051" lon="-1.57013">
        <ele>62.92483</ele>
        <time>2021-12-26T09:23:03.000Z</time>
      </trkpt>
      <trkpt lat="48.05053" lon="-1.57017">
        <ele>62.94824</ele>
        <time>2021-12-26T09:23:04.000Z</time>
      </trkpt>
      <trkpt lat="48.05056" lon="-1.57022">
        <ele>62.94294</ele>
        <time>2021-12-26T09:23:05.000Z</time>
      </trkpt>
      <trkpt lat="48.05058" lon="-1.57027">
        <ele>62.90216</ele>
        <time>2021-12-26T09:23:06.000Z</time>
      </trkpt>
      <trkpt lat="48.0506" lon="-1.57032">
        <ele>62.84025</ele>
        <time>2021-12-26T09:23:07.000Z</time>
      </trkpt>
      <trkpt lat="48.05063" lon="-1.57036">
        <ele>62.79002</ele>
        <time>2021-12-26T09:23:08.000Z</time>
      </trkpt>
      <trkpt lat="48.05065" lon="-1.57041">
        <ele>62.78449</ele>
        <time>2021-12-26T09:23:09.000Z</time>
      </trkpt>
      <trkpt lat="48.05067" lon="-1.57047">
        <ele>62.82371</ele>
        <time>2021-12-26T09:23:10.000Z</time>
      </trkpt>
      <trkpt lat="48.05068" lon="-1.57052">
        <ele>62.89409</ele>
        <time>2021-12-26T09:23:11.000Z</time>
      </trkpt>
      <trkpt lat="48.0507" lon="-1.57058">
        <ele>62.96724</ele>
        <time>2021-12-26T09:23:12.000Z</time>
      </trkpt>
      <trkpt lat="48.05071" lon="-1.57063">
        <ele>63.02085</ele>
        <time>2021-12-26T09:23:13.000Z</time>
      </trkpt>
      <trkpt lat="48.05073" lon="-1.57069">
        <ele>63.02306</ele>
        <time>2021-12-26T09:23:14.000Z</time>
      </trkpt>
      <trkpt lat="48.05074" lon="-1.57075">
        <ele>62.98079</ele>
        <time>2021-12-26T09:23:15.000Z</time>
      </trkpt>
      <trkpt lat="48.05076" lon="-1.5708">
        <ele>62.90604</ele>
        <time>2021-12-26T09:23:16.000Z</time>
      </trkpt>
      <trkpt lat="48.05077" lon="-1.57086">
        <ele>62.82882</ele>
        <time>2021-12-26T09:23:17.000Z</time>
      </trkpt>
      <trkpt lat="48.05079" lon="-1.57091">
        <ele>62.75234</ele>
        <time>2021-12-26T09:23:18.000Z</time>
      </trkpt>
      <trkpt lat="48.0508" lon="-1.57097">
        <ele>62.68688</ele>
        <time>2021-12-26T09:23:19.000Z</time>
      </trkpt>
      <trkpt lat="48.05082" lon="-1.57103">
        <ele>62.65469</ele>
        <time>2021-12-26T09:23:20.000Z</time>
      </trkpt>
      <trkpt lat="48.05084" lon="-1.57109">
        <ele>62.67613</ele>
        <time>2021-12-26T09:23:21.000Z</time>
      </trkpt>
      <trkpt lat="48.05085" lon="-1.57115">
        <ele>62.74938</ele>
        <time>2021-12-26T09:23:22.000Z</time>
      </trkpt>
      <trkpt lat="48.05087" lon="-1.5712">
        <ele>62.85656</ele>
        <time>2021-12-26T09:23:23.000Z</time>
      </trkpt>
      <trkpt lat="48.05088" lon="-1.57126">
        <ele>62.96432</ele>
        <time>2021-12-26T09:23:24.000Z</time>
      </trkpt>
      <trkpt lat="48.0509" lon="-1.57132">
        <ele>63.02422</ele>
        <time>2021-12-26T09:23:25.000Z</time>
      </trkpt>
      <trkpt lat="48.05091" lon="-1.57137">
        <ele>63.02082</ele>
        <time>2021-12-26T09:23:26.000Z</time>
      </trkpt>
      <trkpt lat="48.05093" lon="-1.57142">
        <ele>62.9476</ele>
        <time>2021-12-26T09:23:27.000Z</time>
      </trkpt>
      <trkpt lat="48.05095" lon="-1.57147">
        <ele>62.83093</ele>
        <time>2021-12-26T09:23:28.000Z</time>
      </trkpt>
      <trkpt lat="48.05095" lon="-1.57147">
        <ele>62.83093</ele>
        <time>2021-12-26T09:23:28.000Z</time>
      </trkpt>
      <trkpt lat="48.05095" lon="-1.57152">
        <ele>62.79396</ele>
        <time>2021-12-26T09:23:29.000Z</time>
      </trkpt>
      <trkpt lat="48.05093" lon="-1.57157">
        <ele>62.89845</ele>
        <time>2021-12-26T09:23:30.000Z</time>
      </trkpt>
      <trkpt lat="48.05091" lon="-1.57161">
        <ele>63.06099</ele>
        <time>2021-12-26T09:23:31.000Z</time>
      </trkpt>
      <trkpt lat="48.05088" lon="-1.57162">
        <ele>63.27766</ele>
        <time>2021-12-26T09:23:32.000Z</time>
      </trkpt>
      <trkpt lat="48.05084" lon="-1.57162">
        <ele>63.49474</ele>
        <time>2021-12-26T09:23:33.000Z</time>
      </trkpt>
      <trkpt lat="48.0508" lon="-1.57161">
        <ele>63.67679</ele>
        <time>2021-12-26T09:23:34.000Z</time>
      </trkpt>
      <trkpt lat="48.05076" lon="-1.57161">
        <ele>63.80988</ele>
        <time>2021-12-26T09:23:35.000Z</time>
      </trkpt>
      <trkpt lat="48.05072" lon="-1.57161">
        <ele>63.91742</ele>
        <time>2021-12-26T09:23:36.000Z</time>
      </trkpt>
      <trkpt lat="48.05068" lon="-1.57161">
        <ele>64.01359</ele>
        <time>2021-12-26T09:23:37.000Z</time>
      </trkpt>
      <trkpt lat="48.05063" lon="-1.57161">
        <ele>64.10496</ele>
        <time>2021-12-26T09:23:38.000Z</time>
      </trkpt>
      <trkpt lat="48.05059" lon="-1.57161">
        <ele>64.19799</ele>
        <time>2021-12-26T09:23:39.000Z</time>
      </trkpt>
      <trkpt lat="48.05054" lon="-1.5716">
        <ele>64.29323</ele>
        <time>2021-12-26T09:23:40.000Z</time>
      </trkpt>
      <trkpt lat="48.0505" lon="-1.5716">
        <ele>64.38598</ele>
        <time>2021-12-26T09:23:41.000Z</time>
      </trkpt>
      <trkpt lat="48.05046" lon="-1.57159">
        <ele>64.47873</ele>
        <time>2021-12-26T09:23:42.000Z</time>
      </trkpt>
      <trkpt lat="48.05042" lon="-1.57159">
        <ele>64.55998</ele>
        <time>2021-12-26T09:23:43.000Z</time>
      </trkpt>
      <trkpt lat="48.05039" lon="-1.57158">
        <ele>64.62017</ele>
        <time>2021-12-26T09:23:44.000Z</time>
      </trkpt>
      <trkpt lat="48.05035" lon="-1.57158">
        <ele>64.66834</ele>
        <time>2021-12-26T09:23:45.000Z</time>
      </trkpt>
      <trkpt lat="48.05032" lon="-1.57157">
        <ele>64.70054</ele>
        <time>2021-12-26T09:23:46.000Z</time>
      </trkpt>
      <trkpt lat="48.05029" lon="-1.57156">
        <ele>64.72359</ele>
        <time>2021-12-26T09:23:47.000Z</time>
      </trkpt>
      <trkpt lat="48.05025" lon="-1.57156">
        <ele>64.73817</ele>
        <time>2021-12-26T09:23:48.000Z</time>
      </trkpt>
      <trkpt lat="48.05021" lon="-1.57155">
        <ele>64.7376</ele>
        <time>2021-12-26T09:23:49.000Z</time>
      </trkpt>
      <trkpt lat="48.05018" lon="-1.57154">
        <ele>64.72392</ele>
        <time>2021-12-26T09:23:50.000Z</time>
      </trkpt>
      <trkpt lat="48.05014" lon="-1.57153">
        <ele>64.69534</ele>
        <time>2021-12-26T09:23:51.000Z</time>
      </trkpt>
      <trkpt lat="48.05011" lon="-1.57152">
        <ele>64.6548</ele>
        <time>2021-12-26T09:23:52.000Z</time>
      </trkpt>
      <trkpt lat="48.05007" lon="-1.57151">
        <ele>64.60643</ele>
        <time>2021-12-26T09:23:53.000Z</time>
      </trkpt>
      <trkpt lat="48.05003" lon="-1.5715">
        <ele>64.54901</ele>
        <time>2021-12-26T09:23:54.000Z</time>
      </trkpt>
      <trkpt lat="48.04999" lon="-1.57149">
        <ele>64.48185</ele>
        <time>2021-12-26T09:23:55.000Z</time>
      </trkpt>
      <trkpt lat="48.04996" lon="-1.57148">
        <ele>64.39424</ele>
        <time>2021-12-26T09:23:56.000Z</time>
      </trkpt>
      <trkpt lat="48.04992" lon="-1.57146">
        <ele>64.28397</ele>
        <time>2021-12-26T09:23:57.000Z</time>
      </trkpt>
      <trkpt lat="48.04987" lon="-1.57145">
        <ele>64.13047</ele>
        <time>2021-12-26T09:23:58.000Z</time>
      </trkpt>
      <trkpt lat="48.04983" lon="-1.57143">
        <ele>63.9322</ele>
        <time>2021-12-26T09:23:59.000Z</time>
      </trkpt>
      <trkpt lat="48.04979" lon="-1.57142">
        <ele>63.70386</ele>
        <time>2021-12-26T09:24:00.000Z</time>
      </trkpt>
      <trkpt lat="48.04975" lon="-1.57141">
        <ele>63.47738</ele>
        <time>2021-12-26T09:24:01.000Z</time>
      </trkpt>
      <trkpt lat="48.04971" lon="-1.57139">
        <ele>63.26323</ele>
        <time>2021-12-26T09:24:02.000Z</time>
      </trkpt>
      <trkpt lat="48.04968" lon="-1.57138">
        <ele>63.07956</ele>
        <time>2021-12-26T09:24:03.000Z</time>
      </trkpt>
      <trkpt lat="48.04964" lon="-1.57136">
        <ele>62.92527</ele>
        <time>2021-12-26T09:24:04.000Z</time>
      </trkpt>
      <trkpt lat="48.04961" lon="-1.57135">
        <ele>62.79353</ele>
        <time>2021-12-26T09:24:05.000Z</time>
      </trkpt>
      <trkpt lat="48.04958" lon="-1.57134">
        <ele>62.67825</ele>
        <time>2021-12-26T09:24:06.000Z</time>
      </trkpt>
      <trkpt lat="48.04954" lon="-1.57132">
        <ele>62.55936</ele>
        <time>2021-12-26T09:24:07.000Z</time>
      </trkpt>
      <trkpt lat="48.04951" lon="-1.5713">
        <ele>62.46366</ele>
        <time>2021-12-26T09:24:08.000Z</time>
      </trkpt>
      <trkpt lat="48.04948" lon="-1.57128">
        <ele>62.38294</ele>
        <time>2021-12-26T09:24:09.000Z</time>
      </trkpt>
      <trkpt lat="48.04945" lon="-1.57127">
        <ele>62.31578</ele>
        <time>2021-12-26T09:24:10.000Z</time>
      </trkpt>
      <trkpt lat="48.04941" lon="-1.57126">
        <ele>62.25374</ele>
        <time>2021-12-26T09:24:11.000Z</time>
      </trkpt>
      <trkpt lat="48.04938" lon="-1.57125">
        <ele>62.20738</ele>
        <time>2021-12-26T09:24:12.000Z</time>
      </trkpt>
      <trkpt lat="48.04934" lon="-1.57124">
        <ele>62.16099</ele>
        <time>2021-12-26T09:24:13.000Z</time>
      </trkpt>
      <trkpt lat="48.04931" lon="-1.57123">
        <ele>62.11976</ele>
        <time>2021-12-26T09:24:14.000Z</time>
      </trkpt>
      <trkpt lat="48.04928" lon="-1.57121">
        <ele>62.07595</ele>
        <time>2021-12-26T09:24:15.000Z</time>
      </trkpt>
      <trkpt lat="48.04925" lon="-1.57119">
        <ele>62.01786</ele>
        <time>2021-12-26T09:24:16.000Z</time>
      </trkpt>
      <trkpt lat="48.04925" lon="-1.57119">
        <ele>62.01786</ele>
        <time>2021-12-26T09:24:16.000Z</time>
      </trkpt>
      <trkpt lat="48.04922" lon="-1.57118">
        <ele>61.95974</ele>
        <time>2021-12-26T09:24:17.000Z</time>
      </trkpt>
      <trkpt lat="48.0492" lon="-1.57116">
        <ele>61.90333</ele>
        <time>2021-12-26T09:24:19.000Z</time>
      </trkpt>
      <trkpt lat="48.04918" lon="-1.57116">
        <ele>61.87126</ele>
        <time>2021-12-26T09:24:23.000Z</time>
      </trkpt>
      <trkpt lat="48.04915" lon="-1.57116">
        <ele>61.82406</ele>
        <time>2021-12-26T09:24:25.000Z</time>
      </trkpt>
      <trkpt lat="48.04911" lon="-1.57115">
        <ele>61.73624</ele>
        <time>2021-12-26T09:24:27.000Z</time>
      </trkpt>
      <trkpt lat="48.04908" lon="-1.57114">
        <ele>61.65884</ele>
        <time>2021-12-26T09:24:28.000Z</time>
      </trkpt>
      <trkpt lat="48.04905" lon="-1.57112">
        <ele>61.56966</ele>
        <time>2021-12-26T09:24:29.000Z</time>
      </trkpt>
      <trkpt lat="48.04901" lon="-1.57111">
        <ele>61.47535</ele>
        <time>2021-12-26T09:24:30.000Z</time>
      </trkpt>
      <trkpt lat="48.04897" lon="-1.57109">
        <ele>61.36757</ele>
        <time>2021-12-26T09:24:31.000Z</time>
      </trkpt>
      <trkpt lat="48.04892" lon="-1.57107">
        <ele>61.24224</ele>
        <time>2021-12-26T09:24:32.000Z</time>
      </trkpt>
      <trkpt lat="48.04888" lon="-1.57106">
        <ele>61.12686</ele>
        <time>2021-12-26T09:24:33.000Z</time>
      </trkpt>
      <trkpt lat="48.04884" lon="-1.57104">
        <ele>61.00363</ele>
        <time>2021-12-26T09:24:34.000Z</time>
      </trkpt>
      <trkpt lat="48.04879" lon="-1.57103">
        <ele>60.8774</ele>
        <time>2021-12-26T09:24:35.000Z</time>
      </trkpt>
      <trkpt lat="48.04875" lon="-1.57102">
        <ele>60.76187</ele>
        <time>2021-12-26T09:24:36.000Z</time>
      </trkpt>
      <trkpt lat="48.04871" lon="-1.571">
        <ele>60.66657</ele>
        <time>2021-12-26T09:24:37.000Z</time>
      </trkpt>
      <trkpt lat="48.04866" lon="-1.57099">
        <ele>60.56642</ele>
        <time>2021-12-26T09:24:38.000Z</time>
      </trkpt>
      <trkpt lat="48.04862" lon="-1.57097">
        <ele>60.45288</ele>
        <time>2021-12-26T09:24:39.000Z</time>
      </trkpt>
      <trkpt lat="48.04859" lon="-1.57095">
        <ele>60.33013</ele>
        <time>2021-12-26T09:24:40.000Z</time>
      </trkpt>
      <trkpt lat="48.04856" lon="-1.57095">
        <ele>60.25769</ele>
        <time>2021-12-26T09:24:41.000Z</time>
      </trkpt>
      <trkpt lat="48.04855" lon="-1.57094">
        <ele>60.18035</ele>
        <time>2021-12-26T09:24:42.000Z</time>
      </trkpt>
      <trkpt lat="48.04853" lon="-1.57092">
        <ele>60.07107</ele>
        <time>2021-12-26T09:24:43.000Z</time>
      </trkpt>
      <trkpt lat="48.04851" lon="-1.5709">
        <ele>59.96762</ele>
        <time>2021-12-26T09:24:44.000Z</time>
      </trkpt>
      <trkpt lat="48.04849" lon="-1.57088">
        <ele>59.8302</ele>
        <time>2021-12-26T09:24:45.000Z</time>
      </trkpt>
      <trkpt lat="48.04847" lon="-1.57087">
        <ele>59.75959</ele>
        <time>2021-12-26T09:24:46.000Z</time>
      </trkpt>
      <trkpt lat="48.04844" lon="-1.57086">
        <ele>59.64902</ele>
        <time>2021-12-26T09:24:48.000Z</time>
      </trkpt>
      <trkpt lat="48.04841" lon="-1.57086">
        <ele>59.57431</ele>
        <time>2021-12-26T09:24:50.000Z</time>
      </trkpt>
      <trkpt lat="48.04838" lon="-1.57085">
        <ele>59.49717</ele>
        <time>2021-12-26T09:24:51.000Z</time>
      </trkpt>
      <trkpt lat="48.04836" lon="-1.57085">
        <ele>59.4292</ele>
        <time>2021-12-26T09:24:52.000Z</time>
      </trkpt>
      <trkpt lat="48.04833" lon="-1.57086">
        <ele>59.40427</ele>
        <time>2021-12-26T09:24:53.000Z</time>
      </trkpt>
      <trkpt lat="48.04831" lon="-1.57087">
        <ele>59.37001</ele>
        <time>2021-12-26T09:24:54.000Z</time>
      </trkpt>
      <trkpt lat="48.04829" lon="-1.57087">
        <ele>59.29328</ele>
        <time>2021-12-26T09:24:55.000Z</time>
      </trkpt>
      <trkpt lat="48.04826" lon="-1.57086">
        <ele>59.19212</ele>
        <time>2021-12-26T09:24:56.000Z</time>
      </trkpt>
      <trkpt lat="48.04823" lon="-1.57085">
        <ele>59.07029</ele>
        <time>2021-12-26T09:24:57.000Z</time>
      </trkpt>
      <trkpt lat="48.04819" lon="-1.57084">
        <ele>58.94909</ele>
        <time>2021-12-26T09:24:58.000Z</time>
      </trkpt>
      <trkpt lat="48.04816" lon="-1.57083">
        <ele>58.82593</ele>
        <time>2021-12-26T09:24:59.000Z</time>
      </trkpt>
      <trkpt lat="48.04812" lon="-1.57083">
        <ele>58.71272</ele>
        <time>2021-12-26T09:25:00.000Z</time>
      </trkpt>
      <trkpt lat="48.04809" lon="-1.57082">
        <ele>58.61027</ele>
        <time>2021-12-26T09:25:01.000Z</time>
      </trkpt>
      <trkpt lat="48.04805" lon="-1.57082">
        <ele>58.51357</ele>
        <time>2021-12-26T09:25:02.000Z</time>
      </trkpt>
      <trkpt lat="48.04802" lon="-1.57082">
        <ele>58.43288</ele>
        <time>2021-12-26T09:25:03.000Z</time>
      </trkpt>
      <trkpt lat="48.04798" lon="-1.57082">
        <ele>58.34823</ele>
        <time>2021-12-26T09:25:04.000Z</time>
      </trkpt>
      <trkpt lat="48.04795" lon="-1.57081">
        <ele>58.24155</ele>
        <time>2021-12-26T09:25:05.000Z</time>
      </trkpt>
      <trkpt lat="48.04791" lon="-1.57079">
        <ele>58.12545</ele>
        <time>2021-12-26T09:25:06.000Z</time>
      </trkpt>
      <trkpt lat="48.04788" lon="-1.57078">
        <ele>58.00222</ele>
        <time>2021-12-26T09:25:07.000Z</time>
      </trkpt>
      <trkpt lat="48.04784" lon="-1.57077">
        <ele>57.86833</ele>
        <time>2021-12-26T09:25:08.000Z</time>
      </trkpt>
      <trkpt lat="48.0478" lon="-1.57076">
        <ele>57.72653</ele>
        <time>2021-12-26T09:25:09.000Z</time>
      </trkpt>
      <trkpt lat="48.04776" lon="-1.57075">
        <ele>57.5735</ele>
        <time>2021-12-26T09:25:10.000Z</time>
      </trkpt>
      <trkpt lat="48.04772" lon="-1.57073">
        <ele>57.41468</ele>
        <time>2021-12-26T09:25:11.000Z</time>
      </trkpt>
      <trkpt lat="48.04768" lon="-1.57071">
        <ele>57.2506</ele>
        <time>2021-12-26T09:25:12.000Z</time>
      </trkpt>
      <trkpt lat="48.04764" lon="-1.57069">
        <ele>57.09981</ele>
        <time>2021-12-26T09:25:13.000Z</time>
      </trkpt>
      <trkpt lat="48.0476" lon="-1.57067">
        <ele>56.95092</ele>
        <time>2021-12-26T09:25:14.000Z</time>
      </trkpt>
      <trkpt lat="48.04756" lon="-1.57067">
        <ele>56.81234</ele>
        <time>2021-12-26T09:25:15.000Z</time>
      </trkpt>
      <trkpt lat="48.04751" lon="-1.57066">
        <ele>56.65753</ele>
        <time>2021-12-26T09:25:16.000Z</time>
      </trkpt>
      <trkpt lat="48.04747" lon="-1.57065">
        <ele>56.51051</ele>
        <time>2021-12-26T09:25:17.000Z</time>
      </trkpt>
      <trkpt lat="48.04743" lon="-1.57064">
        <ele>56.36407</ele>
        <time>2021-12-26T09:25:18.000Z</time>
      </trkpt>
      <trkpt lat="48.04738" lon="-1.57063">
        <ele>56.22538</ele>
        <time>2021-12-26T09:25:19.000Z</time>
      </trkpt>
      <trkpt lat="48.04734" lon="-1.57062">
        <ele>56.07573</ele>
        <time>2021-12-26T09:25:20.000Z</time>
      </trkpt>
      <trkpt lat="48.04729" lon="-1.57061">
        <ele>55.93389</ele>
        <time>2021-12-26T09:25:21.000Z</time>
      </trkpt>
      <trkpt lat="48.04725" lon="-1.57059">
        <ele>55.79394</ele>
        <time>2021-12-26T09:25:22.000Z</time>
      </trkpt>
      <trkpt lat="48.0472" lon="-1.57058">
        <ele>55.65087</ele>
        <time>2021-12-26T09:25:23.000Z</time>
      </trkpt>
      <trkpt lat="48.04717" lon="-1.57057">
        <ele>55.53985</ele>
        <time>2021-12-26T09:25:24.000Z</time>
      </trkpt>
      <trkpt lat="48.04713" lon="-1.57056">
        <ele>55.43778</ele>
        <time>2021-12-26T09:25:25.000Z</time>
      </trkpt>
      <trkpt lat="48.04709" lon="-1.57056">
        <ele>55.36326</ele>
        <time>2021-12-26T09:25:26.000Z</time>
      </trkpt>
      <trkpt lat="48.04704" lon="-1.57056">
        <ele>55.27831</ele>
        <time>2021-12-26T09:25:27.000Z</time>
      </trkpt>
      <trkpt lat="48.047" lon="-1.57056">
        <ele>55.21113</ele>
        <time>2021-12-26T09:25:28.000Z</time>
      </trkpt>
      <trkpt lat="48.04696" lon="-1.57056">
        <ele>55.15757</ele>
        <time>2021-12-26T09:25:29.000Z</time>
      </trkpt>
      <trkpt lat="48.04691" lon="-1.57056">
        <ele>55.0983</ele>
        <time>2021-12-26T09:25:30.000Z</time>
      </trkpt>
      <trkpt lat="48.04687" lon="-1.57055">
        <ele>55.05747</ele>
        <time>2021-12-26T09:25:31.000Z</time>
      </trkpt>
      <trkpt lat="48.04683" lon="-1.57055">
        <ele>55.025</ele>
        <time>2021-12-26T09:25:32.000Z</time>
      </trkpt>
      <trkpt lat="48.04679" lon="-1.57054">
        <ele>54.99138</ele>
        <time>2021-12-26T09:25:33.000Z</time>
      </trkpt>
      <trkpt lat="48.04675" lon="-1.57053">
        <ele>54.97488</ele>
        <time>2021-12-26T09:25:34.000Z</time>
      </trkpt>
      <trkpt lat="48.04671" lon="-1.57053">
        <ele>55.00039</ele>
        <time>2021-12-26T09:25:35.000Z</time>
      </trkpt>
      <trkpt lat="48.04667" lon="-1.57054">
        <ele>55.04801</ele>
        <time>2021-12-26T09:25:36.000Z</time>
      </trkpt>
      <trkpt lat="48.04663" lon="-1.57053">
        <ele>55.07915</ele>
        <time>2021-12-26T09:25:37.000Z</time>
      </trkpt>
      <trkpt lat="48.04659" lon="-1.57053">
        <ele>55.1029</ele>
        <time>2021-12-26T09:25:38.000Z</time>
      </trkpt>
      <trkpt lat="48.04655" lon="-1.57053">
        <ele>55.10926</ele>
        <time>2021-12-26T09:25:39.000Z</time>
      </trkpt>
      <trkpt lat="48.04651" lon="-1.57052">
        <ele>55.09537</ele>
        <time>2021-12-26T09:25:40.000Z</time>
      </trkpt>
      <trkpt lat="48.04647" lon="-1.57051">
        <ele>55.07623</ele>
        <time>2021-12-26T09:25:41.000Z</time>
      </trkpt>
      <trkpt lat="48.04643" lon="-1.5705">
        <ele>55.05321</ele>
        <time>2021-12-26T09:25:42.000Z</time>
      </trkpt>
      <trkpt lat="48.04639" lon="-1.57049">
        <ele>55.01412</ele>
        <time>2021-12-26T09:25:43.000Z</time>
      </trkpt>
      <trkpt lat="48.04635" lon="-1.57048">
        <ele>54.96186</ele>
        <time>2021-12-26T09:25:44.000Z</time>
      </trkpt>
      <trkpt lat="48.04631" lon="-1.57047">
        <ele>54.88771</ele>
        <time>2021-12-26T09:25:45.000Z</time>
      </trkpt>
      <trkpt lat="48.04626" lon="-1.57046">
        <ele>54.80515</ele>
        <time>2021-12-26T09:25:46.000Z</time>
      </trkpt>
      <trkpt lat="48.04622" lon="-1.57046">
        <ele>54.70669</ele>
        <time>2021-12-26T09:25:47.000Z</time>
      </trkpt>
      <trkpt lat="48.04617" lon="-1.57045">
        <ele>54.57267</ele>
        <time>2021-12-26T09:25:48.000Z</time>
      </trkpt>
      <trkpt lat="48.04613" lon="-1.57044">
        <ele>54.40134</ele>
        <time>2021-12-26T09:25:49.000Z</time>
      </trkpt>
      <trkpt lat="48.04608" lon="-1.57044">
        <ele>54.20246</ele>
        <time>2021-12-26T09:25:50.000Z</time>
      </trkpt>
      <trkpt lat="48.04604" lon="-1.57043">
        <ele>53.98438</ele>
        <time>2021-12-26T09:25:51.000Z</time>
      </trkpt>
      <trkpt lat="48.04599" lon="-1.57042">
        <ele>53.71292</ele>
        <time>2021-12-26T09:25:52.000Z</time>
      </trkpt>
      <trkpt lat="48.04595" lon="-1.5704">
        <ele>53.40848</ele>
        <time>2021-12-26T09:25:53.000Z</time>
      </trkpt>
      <trkpt lat="48.0459" lon="-1.57038">
        <ele>53.09106</ele>
        <time>2021-12-26T09:25:54.000Z</time>
      </trkpt>
      <trkpt lat="48.04586" lon="-1.57037">
        <ele>52.76045</ele>
        <time>2021-12-26T09:25:55.000Z</time>
      </trkpt>
      <trkpt lat="48.04583" lon="-1.57036">
        <ele>52.40909</ele>
        <time>2021-12-26T09:25:56.000Z</time>
      </trkpt>
      <trkpt lat="48.04579" lon="-1.57034">
        <ele>52.01747</ele>
        <time>2021-12-26T09:25:57.000Z</time>
      </trkpt>
      <trkpt lat="48.04576" lon="-1.57033">
        <ele>51.62131</ele>
        <time>2021-12-26T09:25:58.000Z</time>
      </trkpt>
      <trkpt lat="48.04573" lon="-1.57032">
        <ele>51.3095</ele>
        <time>2021-12-26T09:25:59.000Z</time>
      </trkpt>
      <trkpt lat="48.04571" lon="-1.57032">
        <ele>51.08769</ele>
        <time>2021-12-26T09:26:44.999Z</time>
      </trkpt>
      <trkpt lat="48.04568" lon="-1.57032">
        <ele>50.84037</ele>
        <time>2021-12-26T09:26:46.999Z</time>
      </trkpt>
      <trkpt lat="48.04566" lon="-1.57031">
        <ele>50.62552</ele>
        <time>2021-12-26T09:26:47.999Z</time>
      </trkpt>
      <trkpt lat="48.04563" lon="-1.57029">
        <ele>50.41197</ele>
        <time>2021-12-26T09:26:48.999Z</time>
      </trkpt>
      <trkpt lat="48.04561" lon="-1.57026">
        <ele>50.23923</ele>
        <time>2021-12-26T09:26:49.999Z</time>
      </trkpt>
      <trkpt lat="48.04558" lon="-1.57022">
        <ele>50.08129</ele>
        <time>2021-12-26T09:26:50.999Z</time>
      </trkpt>
      <trkpt lat="48.04556" lon="-1.57017">
        <ele>49.95746</ele>
        <time>2021-12-26T09:26:51.999Z</time>
      </trkpt>
      <trkpt lat="48.04555" lon="-1.57011">
        <ele>49.85491</ele>
        <time>2021-12-26T09:26:52.999Z</time>
      </trkpt>
      <trkpt lat="48.04554" lon="-1.57004">
        <ele>49.77388</ele>
        <time>2021-12-26T09:26:53.999Z</time>
      </trkpt>
      <trkpt lat="48.04553" lon="-1.56998">
        <ele>49.67077</ele>
        <time>2021-12-26T09:26:54.999Z</time>
      </trkpt>
      <trkpt lat="48.04552" lon="-1.56992">
        <ele>49.54829</ele>
        <time>2021-12-26T09:26:55.999Z</time>
      </trkpt>
      <trkpt lat="48.04551" lon="-1.56985">
        <ele>49.38947</ele>
        <time>2021-12-26T09:26:56.999Z</time>
      </trkpt>
      <trkpt lat="48.04549" lon="-1.56979">
        <ele>49.19885</ele>
        <time>2021-12-26T09:26:57.999Z</time>
      </trkpt>
      <trkpt lat="48.04548" lon="-1.56972">
        <ele>48.99096</ele>
        <time>2021-12-26T09:26:58.999Z</time>
      </trkpt>
      <trkpt lat="48.04546" lon="-1.56966">
        <ele>48.79715</ele>
        <time>2021-12-26T09:26:59.999Z</time>
      </trkpt>
      <trkpt lat="48.04544" lon="-1.5696">
        <ele>48.59451</ele>
        <time>2021-12-26T09:27:00.999Z</time>
      </trkpt>
      <trkpt lat="48.0454" lon="-1.56956">
        <ele>48.45315</ele>
        <time>2021-12-26T09:27:01.999Z</time>
      </trkpt>
      <trkpt lat="48.04536" lon="-1.56953">
        <ele>48.38839</ele>
        <time>2021-12-26T09:27:02.999Z</time>
      </trkpt>
      <trkpt lat="48.04531" lon="-1.56951">
        <ele>48.36909</ele>
        <time>2021-12-26T09:27:03.999Z</time>
      </trkpt>
      <trkpt lat="48.04527" lon="-1.5695">
        <ele>48.35422</ele>
        <time>2021-12-26T09:27:04.999Z</time>
      </trkpt>
      <trkpt lat="48.04523" lon="-1.56948">
        <ele>48.3031</ele>
        <time>2021-12-26T09:27:05.999Z</time>
      </trkpt>
      <trkpt lat="48.04518" lon="-1.56946">
        <ele>48.24097</ele>
        <time>2021-12-26T09:27:06.999Z</time>
      </trkpt>
      <trkpt lat="48.04513" lon="-1.56945">
        <ele>48.17328</ele>
        <time>2021-12-26T09:27:07.999Z</time>
      </trkpt>
      <trkpt lat="48.04508" lon="-1.56944">
        <ele>48.07573</ele>
        <time>2021-12-26T09:27:08.999Z</time>
      </trkpt>
      <trkpt lat="48.04502" lon="-1.56942">
        <ele>47.9254</ele>
        <time>2021-12-26T09:27:09.999Z</time>
      </trkpt>
      <trkpt lat="48.04496" lon="-1.56941">
        <ele>47.67093</ele>
        <time>2021-12-26T09:27:10.999Z</time>
      </trkpt>
      <trkpt lat="48.0449" lon="-1.5694">
        <ele>47.33767</ele>
        <time>2021-12-26T09:27:11.999Z</time>
      </trkpt>
      <trkpt lat="48.04484" lon="-1.5694">
        <ele>46.99563</ele>
        <time>2021-12-26T09:27:12.999Z</time>
      </trkpt>
      <trkpt lat="48.04479" lon="-1.5694">
        <ele>46.72151</ele>
        <time>2021-12-26T09:27:13.999Z</time>
      </trkpt>
      <trkpt lat="48.04473" lon="-1.5694">
        <ele>46.49716</ele>
        <time>2021-12-26T09:27:14.999Z</time>
      </trkpt>
      <trkpt lat="48.04467" lon="-1.5694">
        <ele>46.30849</ele>
        <time>2021-12-26T09:27:15.999Z</time>
      </trkpt>
      <trkpt lat="48.04462" lon="-1.5694">
        <ele>46.14807</ele>
        <time>2021-12-26T09:27:16.999Z</time>
      </trkpt>
      <trkpt lat="48.04457" lon="-1.56939">
        <ele>46.00702</ele>
        <time>2021-12-26T09:27:17.999Z</time>
      </trkpt>
      <trkpt lat="48.04452" lon="-1.56938">
        <ele>45.8751</ele>
        <time>2021-12-26T09:27:18.999Z</time>
      </trkpt>
      <trkpt lat="48.04446" lon="-1.56937">
        <ele>45.74291</ele>
        <time>2021-12-26T09:27:19.999Z</time>
      </trkpt>
      <trkpt lat="48.04441" lon="-1.56936">
        <ele>45.6096</ele>
        <time>2021-12-26T09:27:20.999Z</time>
      </trkpt>
      <trkpt lat="48.04435" lon="-1.56935">
        <ele>45.47678</ele>
        <time>2021-12-26T09:27:21.999Z</time>
      </trkpt>
      <trkpt lat="48.0443" lon="-1.56933">
        <ele>45.3298</ele>
        <time>2021-12-26T09:27:22.999Z</time>
      </trkpt>
      <trkpt lat="48.04425" lon="-1.56932">
        <ele>45.14289</ele>
        <time>2021-12-26T09:27:23.999Z</time>
      </trkpt>
      <trkpt lat="48.04419" lon="-1.56931">
        <ele>44.95473</ele>
        <time>2021-12-26T09:27:24.999Z</time>
      </trkpt>
      <trkpt lat="48.04414" lon="-1.5693">
        <ele>44.8088</ele>
        <time>2021-12-26T09:27:25.999Z</time>
      </trkpt>
      <trkpt lat="48.04408" lon="-1.56928">
        <ele>44.73609</ele>
        <time>2021-12-26T09:27:26.999Z</time>
      </trkpt>
      <trkpt lat="48.04403" lon="-1.56927">
        <ele>44.7469</ele>
        <time>2021-12-26T09:27:27.999Z</time>
      </trkpt>
      <trkpt lat="48.04397" lon="-1.56925">
        <ele>44.77442</ele>
        <time>2021-12-26T09:27:28.999Z</time>
      </trkpt>
      <trkpt lat="48.04392" lon="-1.56924">
        <ele>44.75855</ele>
        <time>2021-12-26T09:27:29.999Z</time>
      </trkpt>
      <trkpt lat="48.04387" lon="-1.56923">
        <ele>44.6506</ele>
        <time>2021-12-26T09:27:30.999Z</time>
      </trkpt>
      <trkpt lat="48.04383" lon="-1.56921">
        <ele>44.4642</ele>
        <time>2021-12-26T09:27:31.999Z</time>
      </trkpt>
      <trkpt lat="48.04378" lon="-1.56919">
        <ele>44.21248</ele>
        <time>2021-12-26T09:27:32.999Z</time>
      </trkpt>
      <trkpt lat="48.04374" lon="-1.56917">
        <ele>43.98656</ele>
        <time>2021-12-26T09:27:33.999Z</time>
      </trkpt>
      <trkpt lat="48.04369" lon="-1.56917">
        <ele>43.75504</ele>
        <time>2021-12-26T09:27:34.999Z</time>
      </trkpt>
      <trkpt lat="48.04364" lon="-1.56917">
        <ele>43.59871</ele>
        <time>2021-12-26T09:27:35.999Z</time>
      </trkpt>
      <trkpt lat="48.04359" lon="-1.56919">
        <ele>43.45297</ele>
        <time>2021-12-26T09:27:36.999Z</time>
      </trkpt>
      <trkpt lat="48.04354" lon="-1.5692">
        <ele>43.33264</ele>
        <time>2021-12-26T09:27:37.999Z</time>
      </trkpt>
      <trkpt lat="48.04349" lon="-1.56921">
        <ele>43.25223</ele>
        <time>2021-12-26T09:27:38.999Z</time>
      </trkpt>
      <trkpt lat="48.04344" lon="-1.56922">
        <ele>43.19904</ele>
        <time>2021-12-26T09:27:39.999Z</time>
      </trkpt>
      <trkpt lat="48.04339" lon="-1.56922">
        <ele>43.18491</ele>
        <time>2021-12-26T09:27:40.999Z</time>
      </trkpt>
      <trkpt lat="48.04334" lon="-1.56923">
        <ele>43.20521</ele>
        <time>2021-12-26T09:27:41.999Z</time>
      </trkpt>
      <trkpt lat="48.0433" lon="-1.56924">
        <ele>43.24458</ele>
        <time>2021-12-26T09:27:42.999Z</time>
      </trkpt>
      <trkpt lat="48.04325" lon="-1.56924">
        <ele>43.2854</ele>
        <time>2021-12-26T09:27:43.999Z</time>
      </trkpt>
      <trkpt lat="48.04321" lon="-1.56925">
        <ele>43.31791</ele>
        <time>2021-12-26T09:27:44.999Z</time>
      </trkpt>
      <trkpt lat="48.04317" lon="-1.56926">
        <ele>43.3275</ele>
        <time>2021-12-26T09:27:45.999Z</time>
      </trkpt>
      <trkpt lat="48.04312" lon="-1.56926">
        <ele>43.32657</ele>
        <time>2021-12-26T09:27:46.999Z</time>
      </trkpt>
      <trkpt lat="48.04308" lon="-1.56927">
        <ele>43.33458</ele>
        <time>2021-12-26T09:27:47.999Z</time>
      </trkpt>
      <trkpt lat="48.04304" lon="-1.56928">
        <ele>43.37268</ele>
        <time>2021-12-26T09:27:48.999Z</time>
      </trkpt>
      <trkpt lat="48.043" lon="-1.56929">
        <ele>43.45189</ele>
        <time>2021-12-26T09:27:49.999Z</time>
      </trkpt>
      <trkpt lat="48.04295" lon="-1.56929">
        <ele>43.61511</ele>
        <time>2021-12-26T09:27:50.999Z</time>
      </trkpt>
      <trkpt lat="48.04291" lon="-1.5693">
        <ele>43.83227</ele>
        <time>2021-12-26T09:27:51.999Z</time>
      </trkpt>
      <trkpt lat="48.04287" lon="-1.5693">
        <ele>44.07365</ele>
        <time>2021-12-26T09:27:52.999Z</time>
      </trkpt>
      <trkpt lat="48.04283" lon="-1.5693">
        <ele>44.32345</ele>
        <time>2021-12-26T09:27:53.999Z</time>
      </trkpt>
      <trkpt lat="48.04279" lon="-1.5693">
        <ele>44.57526</ele>
        <time>2021-12-26T09:27:54.999Z</time>
      </trkpt>
      <trkpt lat="48.04275" lon="-1.5693">
        <ele>44.80699</ele>
        <time>2021-12-26T09:27:55.999Z</time>
      </trkpt>
      <trkpt lat="48.04271" lon="-1.5693">
        <ele>45.02109</ele>
        <time>2021-12-26T09:27:56.999Z</time>
      </trkpt>
      <trkpt lat="48.04267" lon="-1.5693">
        <ele>45.23052</ele>
        <time>2021-12-26T09:27:57.999Z</time>
      </trkpt>
      <trkpt lat="48.04263" lon="-1.5693">
        <ele>45.44322</ele>
        <time>2021-12-26T09:27:58.999Z</time>
      </trkpt>
      <trkpt lat="48.0426" lon="-1.5693">
        <ele>45.65455</ele>
        <time>2021-12-26T09:27:59.999Z</time>
      </trkpt>
      <trkpt lat="48.04257" lon="-1.56931">
        <ele>45.82956</ele>
        <time>2021-12-26T09:28:00.999Z</time>
      </trkpt>
      <trkpt lat="48.04253" lon="-1.56931">
        <ele>46.06753</ele>
        <time>2021-12-26T09:28:01.999Z</time>
      </trkpt>
      <trkpt lat="48.04249" lon="-1.56931">
        <ele>46.28598</ele>
        <time>2021-12-26T09:28:02.999Z</time>
      </trkpt>
      <trkpt lat="48.04246" lon="-1.56931">
        <ele>46.51021</ele>
        <time>2021-12-26T09:28:03.999Z</time>
      </trkpt>
      <trkpt lat="48.04243" lon="-1.56931">
        <ele>46.70304</ele>
        <time>2021-12-26T09:28:04.999Z</time>
      </trkpt>
      <trkpt lat="48.0424" lon="-1.5693">
        <ele>46.86663</ele>
        <time>2021-12-26T09:28:05.999Z</time>
      </trkpt>
      <trkpt lat="48.04237" lon="-1.5693">
        <ele>47.02731</ele>
        <time>2021-12-26T09:28:06.999Z</time>
      </trkpt>
      <trkpt lat="48.04233" lon="-1.56931">
        <ele>47.26667</ele>
        <time>2021-12-26T09:28:07.999Z</time>
      </trkpt>
      <trkpt lat="48.04231" lon="-1.56932">
        <ele>47.41976</ele>
        <time>2021-12-26T09:28:08.999Z</time>
      </trkpt>
      <trkpt lat="48.04228" lon="-1.56932">
        <ele>47.55096</ele>
        <time>2021-12-26T09:28:09.999Z</time>
      </trkpt>
      <trkpt lat="48.04226" lon="-1.56933">
        <ele>47.66216</ele>
        <time>2021-12-26T09:28:10.999Z</time>
      </trkpt>
      <trkpt lat="48.04223" lon="-1.56933">
        <ele>47.77058</ele>
        <time>2021-12-26T09:28:11.999Z</time>
      </trkpt>
      <trkpt lat="48.04221" lon="-1.56934">
        <ele>47.87731</ele>
        <time>2021-12-26T09:28:12.999Z</time>
      </trkpt>
      <trkpt lat="48.04218" lon="-1.56935">
        <ele>47.98796</ele>
        <time>2021-12-26T09:28:13.999Z</time>
      </trkpt>
      <trkpt lat="48.04216" lon="-1.56937">
        <ele>48.0806</ele>
        <time>2021-12-26T09:28:14.999Z</time>
      </trkpt>
      <trkpt lat="48.04213" lon="-1.56938">
        <ele>48.19239</ele>
        <time>2021-12-26T09:28:15.999Z</time>
      </trkpt>
      <trkpt lat="48.04211" lon="-1.56939">
        <ele>48.29028</ele>
        <time>2021-12-26T09:28:16.999Z</time>
      </trkpt>
      <trkpt lat="48.04208" lon="-1.5694">
        <ele>48.39262</ele>
        <time>2021-12-26T09:28:17.999Z</time>
      </trkpt>
      <trkpt lat="48.04206" lon="-1.5694">
        <ele>48.48877</ele>
        <time>2021-12-26T09:28:18.999Z</time>
      </trkpt>
      <trkpt lat="48.04203" lon="-1.5694">
        <ele>48.6078</ele>
        <time>2021-12-26T09:28:19.999Z</time>
      </trkpt>
      <trkpt lat="48.042" lon="-1.56941">
        <ele>48.7155</ele>
        <time>2021-12-26T09:28:20.999Z</time>
      </trkpt>
      <trkpt lat="48.04197" lon="-1.56941">
        <ele>48.83334</ele>
        <time>2021-12-26T09:28:21.999Z</time>
      </trkpt>
      <trkpt lat="48.04194" lon="-1.56942">
        <ele>48.93721</ele>
        <time>2021-12-26T09:28:22.999Z</time>
      </trkpt>
      <trkpt lat="48.04192" lon="-1.56943">
        <ele>49.03719</ele>
        <time>2021-12-26T09:28:23.999Z</time>
      </trkpt>
      <trkpt lat="48.04189" lon="-1.56943">
        <ele>49.15036</ele>
        <time>2021-12-26T09:28:24.999Z</time>
      </trkpt>
      <trkpt lat="48.04186" lon="-1.56944">
        <ele>49.26175</ele>
        <time>2021-12-26T09:28:25.999Z</time>
      </trkpt>
      <trkpt lat="48.04183" lon="-1.56944">
        <ele>49.3748</ele>
        <time>2021-12-26T09:28:26.999Z</time>
      </trkpt>
      <trkpt lat="48.0418" lon="-1.56945">
        <ele>49.47517</ele>
        <time>2021-12-26T09:28:27.999Z</time>
      </trkpt>
      <trkpt lat="48.04178" lon="-1.56945">
        <ele>49.57311</ele>
        <time>2021-12-26T09:28:28.999Z</time>
      </trkpt>
      <trkpt lat="48.04176" lon="-1.56945">
        <ele>49.64515</ele>
        <time>2021-12-26T09:28:29.999Z</time>
      </trkpt>
      <trkpt lat="48.04173" lon="-1.56946">
        <ele>49.71969</ele>
        <time>2021-12-26T09:28:30.999Z</time>
      </trkpt>
      <trkpt lat="48.04171" lon="-1.56946">
        <ele>49.79813</ele>
        <time>2021-12-26T09:28:31.999Z</time>
      </trkpt>
      <trkpt lat="48.04169" lon="-1.56946">
        <ele>49.87532</ele>
        <time>2021-12-26T09:28:32.999Z</time>
      </trkpt>
      <trkpt lat="48.04166" lon="-1.56946">
        <ele>49.94263</ele>
        <time>2021-12-26T09:28:33.999Z</time>
      </trkpt>
      <trkpt lat="48.04163" lon="-1.56948">
        <ele>50.04885</ele>
        <time>2021-12-26T09:28:34.999Z</time>
      </trkpt>
      <trkpt lat="48.04159" lon="-1.56948">
        <ele>50.17235</ele>
        <time>2021-12-26T09:28:35.999Z</time>
      </trkpt>
      <trkpt lat="48.04156" lon="-1.56949">
        <ele>50.26949</ele>
        <time>2021-12-26T09:28:36.999Z</time>
      </trkpt>
      <trkpt lat="48.04152" lon="-1.5695">
        <ele>50.35284</ele>
        <time>2021-12-26T09:28:37.999Z</time>
      </trkpt>
      <trkpt lat="48.04149" lon="-1.56951">
        <ele>50.42737</ele>
        <time>2021-12-26T09:28:38.999Z</time>
      </trkpt>
      <trkpt lat="48.04146" lon="-1.56952">
        <ele>50.48276</ele>
        <time>2021-12-26T09:28:39.999Z</time>
      </trkpt>
      <trkpt lat="48.04143" lon="-1.56953">
        <ele>50.53063</ele>
        <time>2021-12-26T09:28:40.999Z</time>
      </trkpt>
      <trkpt lat="48.04141" lon="-1.56954">
        <ele>50.56082</ele>
        <time>2021-12-26T09:28:41.999Z</time>
      </trkpt>
      <trkpt lat="48.04139" lon="-1.56955">
        <ele>50.5834</ele>
        <time>2021-12-26T09:28:42.999Z</time>
      </trkpt>
      <trkpt lat="48.04135" lon="-1.56957">
        <ele>50.60578</ele>
        <time>2021-12-26T09:28:43.999Z</time>
      </trkpt>
      <trkpt lat="48.04133" lon="-1.56958">
        <ele>50.61383</ele>
        <time>2021-12-26T09:28:44.999Z</time>
      </trkpt>
      <trkpt lat="48.0413" lon="-1.5696">
        <ele>50.61514</ele>
        <time>2021-12-26T09:28:45.999Z</time>
      </trkpt>
      <trkpt lat="48.04128" lon="-1.56962">
        <ele>50.61201</ele>
        <time>2021-12-26T09:28:46.999Z</time>
      </trkpt>
      <trkpt lat="48.04125" lon="-1.56964">
        <ele>50.60362</ele>
        <time>2021-12-26T09:28:47.999Z</time>
      </trkpt>
      <trkpt lat="48.04121" lon="-1.56966">
        <ele>50.59776</ele>
        <time>2021-12-26T09:28:48.999Z</time>
      </trkpt>
      <trkpt lat="48.04118" lon="-1.56968">
        <ele>50.59804</ele>
        <time>2021-12-26T09:28:49.999Z</time>
      </trkpt>
      <trkpt lat="48.04116" lon="-1.5697">
        <ele>50.60568</ele>
        <time>2021-12-26T09:28:51.999Z</time>
      </trkpt>
      <trkpt lat="48.04112" lon="-1.56972">
        <ele>50.61858</ele>
        <time>2021-12-26T09:28:53.999Z</time>
      </trkpt>
      <trkpt lat="48.04109" lon="-1.56973">
        <ele>50.63359</ele>
        <time>2021-12-26T09:28:54.999Z</time>
      </trkpt>
      <trkpt lat="48.04105" lon="-1.56974">
        <ele>50.65087</ele>
        <time>2021-12-26T09:28:55.999Z</time>
      </trkpt>
      <trkpt lat="48.04102" lon="-1.56974">
        <ele>50.6667</ele>
        <time>2021-12-26T09:28:56.999Z</time>
      </trkpt>
      <trkpt lat="48.04098" lon="-1.56976">
        <ele>50.69811</ele>
        <time>2021-12-26T09:28:57.999Z</time>
      </trkpt>
      <trkpt lat="48.04095" lon="-1.56977">
        <ele>50.73152</ele>
        <time>2021-12-26T09:28:58.999Z</time>
      </trkpt>
      <trkpt lat="48.04092" lon="-1.56978">
        <ele>50.76767</ele>
        <time>2021-12-26T09:28:59.999Z</time>
      </trkpt>
      <trkpt lat="48.0409" lon="-1.5698">
        <ele>50.80318</ele>
        <time>2021-12-26T09:29:00.999Z</time>
      </trkpt>
      <trkpt lat="48.0409" lon="-1.5698">
        <ele>50.80318</ele>
        <time>2021-12-26T09:29:00.999Z</time>
      </trkpt>
      <trkpt lat="48.04088" lon="-1.56983">
        <ele>50.84304</ele>
        <time>2021-12-26T09:29:01.999Z</time>
      </trkpt>
      <trkpt lat="48.04087" lon="-1.56986">
        <ele>50.87187</ele>
        <time>2021-12-26T09:29:02.999Z</time>
      </trkpt>
      <trkpt lat="48.04087" lon="-1.5699">
        <ele>50.89243</ele>
        <time>2021-12-26T09:29:03.999Z</time>
      </trkpt>
      <trkpt lat="48.04087" lon="-1.56993">
        <ele>50.90475</ele>
        <time>2021-12-26T09:29:04.999Z</time>
      </trkpt>
      <trkpt lat="48.04086" lon="-1.56997">
        <ele>50.92825</ele>
        <time>2021-12-26T09:29:14.999Z</time>
      </trkpt>
      <trkpt lat="48.04085" lon="-1.56999">
        <ele>50.95269</ele>
        <time>2021-12-26T09:29:15.999Z</time>
      </trkpt>
      <trkpt lat="48.04084" lon="-1.57003">
        <ele>50.97119</ele>
        <time>2021-12-26T09:29:16.999Z</time>
      </trkpt>
      <trkpt lat="48.04083" lon="-1.57007">
        <ele>50.98773</ele>
        <time>2021-12-26T09:29:17.999Z</time>
      </trkpt>
      <trkpt lat="48.04083" lon="-1.57011">
        <ele>50.99701</ele>
        <time>2021-12-26T09:29:18.999Z</time>
      </trkpt>
      <trkpt lat="48.04081" lon="-1.57016">
        <ele>51.01104</ele>
        <time>2021-12-26T09:29:19.999Z</time>
      </trkpt>
      <trkpt lat="48.0408" lon="-1.57021">
        <ele>51.04208</ele>
        <time>2021-12-26T09:29:20.999Z</time>
      </trkpt>
      <trkpt lat="48.04078" lon="-1.57025">
        <ele>51.09014</ele>
        <time>2021-12-26T09:29:21.999Z</time>
      </trkpt>
      <trkpt lat="48.04076" lon="-1.57029">
        <ele>51.15799</ele>
        <time>2021-12-26T09:29:22.999Z</time>
      </trkpt>
      <trkpt lat="48.04074" lon="-1.57032">
        <ele>51.23295</ele>
        <time>2021-12-26T09:29:23.999Z</time>
      </trkpt>
      <trkpt lat="48.04071" lon="-1.57035">
        <ele>51.32882</ele>
        <time>2021-12-26T09:29:24.999Z</time>
      </trkpt>
      <trkpt lat="48.04068" lon="-1.57037">
        <ele>51.45104</ele>
        <time>2021-12-26T09:29:25.999Z</time>
      </trkpt>
      <trkpt lat="48.04065" lon="-1.57039">
        <ele>51.58505</ele>
        <time>2021-12-26T09:29:26.999Z</time>
      </trkpt>
      <trkpt lat="48.04062" lon="-1.57041">
        <ele>51.71428</ele>
        <time>2021-12-26T09:29:27.999Z</time>
      </trkpt>
      <trkpt lat="48.04059" lon="-1.57043">
        <ele>51.82508</ele>
        <time>2021-12-26T09:29:28.999Z</time>
      </trkpt>
      <trkpt lat="48.04057" lon="-1.57046">
        <ele>51.904</ele>
        <time>2021-12-26T09:29:29.999Z</time>
      </trkpt>
      <trkpt lat="48.04054" lon="-1.57049">
        <ele>51.95082</ele>
        <time>2021-12-26T09:29:30.999Z</time>
      </trkpt>
      <trkpt lat="48.04051" lon="-1.57052">
        <ele>51.96072</ele>
        <time>2021-12-26T09:29:31.999Z</time>
      </trkpt>
      <trkpt lat="48.04048" lon="-1.57055">
        <ele>51.97133</ele>
        <time>2021-12-26T09:29:32.999Z</time>
      </trkpt>
      <trkpt lat="48.04045" lon="-1.57058">
        <ele>51.97767</ele>
        <time>2021-12-26T09:29:33.999Z</time>
      </trkpt>
      <trkpt lat="48.04042" lon="-1.57061">
        <ele>52.00416</ele>
        <time>2021-12-26T09:29:34.999Z</time>
      </trkpt>
      <trkpt lat="48.04039" lon="-1.57064">
        <ele>52.02781</ele>
        <time>2021-12-26T09:29:35.999Z</time>
      </trkpt>
      <trkpt lat="48.04036" lon="-1.57068">
        <ele>52.05062</ele>
        <time>2021-12-26T09:29:36.999Z</time>
      </trkpt>
      <trkpt lat="48.04033" lon="-1.57071">
        <ele>52.06959</ele>
        <time>2021-12-26T09:29:37.999Z</time>
      </trkpt>
      <trkpt lat="48.0403" lon="-1.57074">
        <ele>52.08799</ele>
        <time>2021-12-26T09:29:38.999Z</time>
      </trkpt>
      <trkpt lat="48.04027" lon="-1.57078">
        <ele>52.06982</ele>
        <time>2021-12-26T09:29:39.999Z</time>
      </trkpt>
      <trkpt lat="48.04024" lon="-1.57081">
        <ele>52.04294</ele>
        <time>2021-12-26T09:29:40.999Z</time>
      </trkpt>
      <trkpt lat="48.04021" lon="-1.57084">
        <ele>51.99512</ele>
        <time>2021-12-26T09:29:41.999Z</time>
      </trkpt>
      <trkpt lat="48.04018" lon="-1.57088">
        <ele>51.9395</ele>
        <time>2021-12-26T09:29:42.999Z</time>
      </trkpt>
      <trkpt lat="48.04015" lon="-1.57091">
        <ele>51.8831</ele>
        <time>2021-12-26T09:29:43.999Z</time>
      </trkpt>
      <trkpt lat="48.04012" lon="-1.57094">
        <ele>51.84169</ele>
        <time>2021-12-26T09:29:44.999Z</time>
      </trkpt>
      <trkpt lat="48.04009" lon="-1.57098">
        <ele>51.80805</ele>
        <time>2021-12-26T09:29:45.999Z</time>
      </trkpt>
      <trkpt lat="48.04006" lon="-1.57101">
        <ele>51.78444</ele>
        <time>2021-12-26T09:29:46.999Z</time>
      </trkpt>
      <trkpt lat="48.04003" lon="-1.57104">
        <ele>51.77777</ele>
        <time>2021-12-26T09:29:47.999Z</time>
      </trkpt>
      <trkpt lat="48.04" lon="-1.57108">
        <ele>51.77538</ele>
        <time>2021-12-26T09:29:48.999Z</time>
      </trkpt>
      <trkpt lat="48.03997" lon="-1.57111">
        <ele>51.77188</ele>
        <time>2021-12-26T09:29:49.999Z</time>
      </trkpt>
      <trkpt lat="48.03994" lon="-1.57115">
        <ele>51.76712</ele>
        <time>2021-12-26T09:29:50.999Z</time>
      </trkpt>
      <trkpt lat="48.0399" lon="-1.57118">
        <ele>51.75503</ele>
        <time>2021-12-26T09:29:51.999Z</time>
      </trkpt>
      <trkpt lat="48.03987" lon="-1.57121">
        <ele>51.73331</ele>
        <time>2021-12-26T09:29:52.999Z</time>
      </trkpt>
      <trkpt lat="48.03984" lon="-1.57125">
        <ele>51.70603</ele>
        <time>2021-12-26T09:29:53.999Z</time>
      </trkpt>
      <trkpt lat="48.03981" lon="-1.57128">
        <ele>51.69409</ele>
        <time>2021-12-26T09:29:54.999Z</time>
      </trkpt>
      <trkpt lat="48.03977" lon="-1.57131">
        <ele>51.7063</ele>
        <time>2021-12-26T09:29:55.999Z</time>
      </trkpt>
      <trkpt lat="48.03974" lon="-1.57135">
        <ele>51.73629</ele>
        <time>2021-12-26T09:29:56.999Z</time>
      </trkpt>
      <trkpt lat="48.03971" lon="-1.57138">
        <ele>51.77651</ele>
        <time>2021-12-26T09:29:57.999Z</time>
      </trkpt>
      <trkpt lat="48.03968" lon="-1.57141">
        <ele>51.81463</ele>
        <time>2021-12-26T09:29:58.999Z</time>
      </trkpt>
      <trkpt lat="48.03965" lon="-1.57145">
        <ele>51.84501</ele>
        <time>2021-12-26T09:29:59.999Z</time>
      </trkpt>
      <trkpt lat="48.03962" lon="-1.57148">
        <ele>51.85972</ele>
        <time>2021-12-26T09:30:00.999Z</time>
      </trkpt>
      <trkpt lat="48.03959" lon="-1.57151">
        <ele>51.85302</ele>
        <time>2021-12-26T09:30:01.999Z</time>
      </trkpt>
      <trkpt lat="48.03955" lon="-1.57154">
        <ele>51.82121</ele>
        <time>2021-12-26T09:30:02.999Z</time>
      </trkpt>
      <trkpt lat="48.03951" lon="-1.57158">
        <ele>51.77001</ele>
        <time>2021-12-26T09:30:03.999Z</time>
      </trkpt>
      <trkpt lat="48.03947" lon="-1.57161">
        <ele>51.69881</ele>
        <time>2021-12-26T09:30:04.999Z</time>
      </trkpt>
      <trkpt lat="48.03943" lon="-1.57164">
        <ele>51.60963</ele>
        <time>2021-12-26T09:30:05.999Z</time>
      </trkpt>
      <trkpt lat="48.03939" lon="-1.57167">
        <ele>51.5116</ele>
        <time>2021-12-26T09:30:06.999Z</time>
      </trkpt>
      <trkpt lat="48.03935" lon="-1.5717">
        <ele>51.4096</ele>
        <time>2021-12-26T09:30:07.999Z</time>
      </trkpt>
      <trkpt lat="48.03931" lon="-1.57172">
        <ele>51.31041</ele>
        <time>2021-12-26T09:30:08.999Z</time>
      </trkpt>
      <trkpt lat="48.03926" lon="-1.57175">
        <ele>51.21309</ele>
        <time>2021-12-26T09:30:09.999Z</time>
      </trkpt>
      <trkpt lat="48.03922" lon="-1.57177">
        <ele>51.11521</ele>
        <time>2021-12-26T09:30:10.999Z</time>
      </trkpt>
      <trkpt lat="48.03917" lon="-1.57179">
        <ele>51.0102</ele>
        <time>2021-12-26T09:30:11.999Z</time>
      </trkpt>
      <trkpt lat="48.03912" lon="-1.57181">
        <ele>50.88808</ele>
        <time>2021-12-26T09:30:12.999Z</time>
      </trkpt>
      <trkpt lat="48.03907" lon="-1.57183">
        <ele>50.75346</ele>
        <time>2021-12-26T09:30:13.999Z</time>
      </trkpt>
      <trkpt lat="48.03902" lon="-1.57185">
        <ele>50.60468</ele>
        <time>2021-12-26T09:30:14.999Z</time>
      </trkpt>
      <trkpt lat="48.03897" lon="-1.57187">
        <ele>50.44903</ele>
        <time>2021-12-26T09:30:15.999Z</time>
      </trkpt>
      <trkpt lat="48.03892" lon="-1.57189">
        <ele>50.29216</ele>
        <time>2021-12-26T09:30:16.999Z</time>
      </trkpt>
      <trkpt lat="48.03887" lon="-1.57191">
        <ele>50.12755</ele>
        <time>2021-12-26T09:30:17.999Z</time>
      </trkpt>
      <trkpt lat="48.03882" lon="-1.57192">
        <ele>49.94227</ele>
        <time>2021-12-26T09:30:18.999Z</time>
      </trkpt>
      <trkpt lat="48.03876" lon="-1.57192">
        <ele>49.71223</ele>
        <time>2021-12-26T09:30:19.999Z</time>
      </trkpt>
      <trkpt lat="48.03871" lon="-1.57192">
        <ele>49.43458</ele>
        <time>2021-12-26T09:30:20.999Z</time>
      </trkpt>
      <trkpt lat="48.03865" lon="-1.57192">
        <ele>49.13502</ele>
        <time>2021-12-26T09:30:21.999Z</time>
      </trkpt>
      <trkpt lat="48.0386" lon="-1.57192">
        <ele>48.81318</ele>
        <time>2021-12-26T09:30:22.999Z</time>
      </trkpt>
      <trkpt lat="48.03854" lon="-1.57191">
        <ele>48.4285</ele>
        <time>2021-12-26T09:30:23.999Z</time>
      </trkpt>
      <trkpt lat="48.03848" lon="-1.57189">
        <ele>48.00862</ele>
        <time>2021-12-26T09:30:24.999Z</time>
      </trkpt>
      <trkpt lat="48.03841" lon="-1.57187">
        <ele>47.58209</ele>
        <time>2021-12-26T09:30:25.999Z</time>
      </trkpt>
      <trkpt lat="48.03835" lon="-1.57184">
        <ele>47.20022</ele>
        <time>2021-12-26T09:30:26.999Z</time>
      </trkpt>
      <trkpt lat="48.03828" lon="-1.5718">
        <ele>46.85238</ele>
        <time>2021-12-26T09:30:27.999Z</time>
      </trkpt>
      <trkpt lat="48.0382" lon="-1.57177">
        <ele>46.46878</ele>
        <time>2021-12-26T09:30:28.999Z</time>
      </trkpt>
      <trkpt lat="48.03813" lon="-1.57174">
        <ele>45.97896</ele>
        <time>2021-12-26T09:30:29.999Z</time>
      </trkpt>
      <trkpt lat="48.03804" lon="-1.57171">
        <ele>45.39194</ele>
        <time>2021-12-26T09:30:30.999Z</time>
      </trkpt>
      <trkpt lat="48.03796" lon="-1.57168">
        <ele>44.77953</ele>
        <time>2021-12-26T09:30:31.999Z</time>
      </trkpt>
      <trkpt lat="48.03787" lon="-1.57165">
        <ele>44.21625</ele>
        <time>2021-12-26T09:30:32.999Z</time>
      </trkpt>
      <trkpt lat="48.03778" lon="-1.57164">
        <ele>43.62015</ele>
        <time>2021-12-26T09:30:33.999Z</time>
      </trkpt>
      <trkpt lat="48.03769" lon="-1.57163">
        <ele>42.91276</ele>
        <time>2021-12-26T09:30:34.999Z</time>
      </trkpt>
      <trkpt lat="48.03759" lon="-1.57162">
        <ele>42.04025</ele>
        <time>2021-12-26T09:30:35.999Z</time>
      </trkpt>
      <trkpt lat="48.03749" lon="-1.57163">
        <ele>41.13597</ele>
        <time>2021-12-26T09:30:36.999Z</time>
      </trkpt>
      <trkpt lat="48.03739" lon="-1.57164">
        <ele>40.24605</ele>
        <time>2021-12-26T09:30:37.999Z</time>
      </trkpt>
      <trkpt lat="48.03729" lon="-1.57166">
        <ele>39.3228</ele>
        <time>2021-12-26T09:30:38.999Z</time>
      </trkpt>
      <trkpt lat="48.03718" lon="-1.57168">
        <ele>38.33677</ele>
        <time>2021-12-26T09:30:39.999Z</time>
      </trkpt>
      <trkpt lat="48.03707" lon="-1.57171">
        <ele>37.36669</ele>
        <time>2021-12-26T09:30:40.999Z</time>
      </trkpt>
      <trkpt lat="48.03696" lon="-1.57173">
        <ele>36.42354</ele>
        <time>2021-12-26T09:30:41.999Z</time>
      </trkpt>
      <trkpt lat="48.03685" lon="-1.57176">
        <ele>35.45322</ele>
        <time>2021-12-26T09:30:42.999Z</time>
      </trkpt>
      <trkpt lat="48.03673" lon="-1.57179">
        <ele>34.43743</ele>
        <time>2021-12-26T09:30:43.999Z</time>
      </trkpt>
      <trkpt lat="48.03662" lon="-1.57183">
        <ele>33.48312</ele>
        <time>2021-12-26T09:30:44.999Z</time>
      </trkpt>
      <trkpt lat="48.03651" lon="-1.57187">
        <ele>32.83412</ele>
        <time>2021-12-26T09:30:45.999Z</time>
      </trkpt>
      <trkpt lat="48.0364" lon="-1.57191">
        <ele>32.58222</ele>
        <time>2021-12-26T09:30:46.999Z</time>
      </trkpt>
      <trkpt lat="48.03629" lon="-1.57196">
        <ele>32.56605</ele>
        <time>2021-12-26T09:30:47.999Z</time>
      </trkpt>
      <trkpt lat="48.03619" lon="-1.57201">
        <ele>32.7483</ele>
        <time>2021-12-26T09:30:48.999Z</time>
      </trkpt>
      <trkpt lat="48.0361" lon="-1.57207">
        <ele>32.98172</ele>
        <time>2021-12-26T09:30:49.999Z</time>
      </trkpt>
      <trkpt lat="48.03601" lon="-1.57212">
        <ele>33.03925</ele>
        <time>2021-12-26T09:30:50.999Z</time>
      </trkpt>
      <trkpt lat="48.03592" lon="-1.57219">
        <ele>33.09421</ele>
        <time>2021-12-26T09:30:51.999Z</time>
      </trkpt>
      <trkpt lat="48.03585" lon="-1.57225">
        <ele>33.45872</ele>
        <time>2021-12-26T09:30:52.999Z</time>
      </trkpt>
      <trkpt lat="48.03578" lon="-1.57232">
        <ele>34.05768</ele>
        <time>2021-12-26T09:30:53.999Z</time>
      </trkpt>
      <trkpt lat="48.03571" lon="-1.57238">
        <ele>34.60967</ele>
        <time>2021-12-26T09:30:54.999Z</time>
      </trkpt>
      <trkpt lat="48.03565" lon="-1.57244">
        <ele>34.9617</ele>
        <time>2021-12-26T09:30:55.999Z</time>
      </trkpt>
      <trkpt lat="48.03559" lon="-1.5725">
        <ele>35.13906</ele>
        <time>2021-12-26T09:30:56.999Z</time>
      </trkpt>
      <trkpt lat="48.03553" lon="-1.57255">
        <ele>35.31205</ele>
        <time>2021-12-26T09:30:57.999Z</time>
      </trkpt>
      <trkpt lat="48.03547" lon="-1.5726">
        <ele>35.62154</ele>
        <time>2021-12-26T09:30:58.999Z</time>
      </trkpt>
      <trkpt lat="48.03542" lon="-1.57263">
        <ele>36.04851</ele>
        <time>2021-12-26T09:30:59.999Z</time>
      </trkpt>
      <trkpt lat="48.03537" lon="-1.57266">
        <ele>36.51095</ele>
        <time>2021-12-26T09:31:00.999Z</time>
      </trkpt>
      <trkpt lat="48.03533" lon="-1.57268">
        <ele>36.95404</ele>
        <time>2021-12-26T09:31:01.999Z</time>
      </trkpt>
      <trkpt lat="48.03529" lon="-1.5727">
        <ele>37.33122</ele>
        <time>2021-12-26T09:31:02.999Z</time>
      </trkpt>
      <trkpt lat="48.03525" lon="-1.57272">
        <ele>37.64792</ele>
        <time>2021-12-26T09:31:03.999Z</time>
      </trkpt>
      <trkpt lat="48.03521" lon="-1.57273">
        <ele>37.89118</ele>
        <time>2021-12-26T09:31:04.999Z</time>
      </trkpt>
      <trkpt lat="48.03518" lon="-1.57275">
        <ele>38.10968</ele>
        <time>2021-12-26T09:31:05.999Z</time>
      </trkpt>
      <trkpt lat="48.03515" lon="-1.57276">
        <ele>38.30723</ele>
        <time>2021-12-26T09:31:06.999Z</time>
      </trkpt>
      <trkpt lat="48.03512" lon="-1.57277">
        <ele>38.48417</ele>
        <time>2021-12-26T09:31:07.999Z</time>
      </trkpt>
      <trkpt lat="48.03509" lon="-1.57278">
        <ele>38.65109</ele>
        <time>2021-12-26T09:31:08.999Z</time>
      </trkpt>
      <trkpt lat="48.03506" lon="-1.5728">
        <ele>38.81386</ele>
        <time>2021-12-26T09:31:09.999Z</time>
      </trkpt>
      <trkpt lat="48.03503" lon="-1.57281">
        <ele>38.98907</ele>
        <time>2021-12-26T09:31:10.999Z</time>
      </trkpt>
      <trkpt lat="48.035" lon="-1.57282">
        <ele>39.17294</ele>
        <time>2021-12-26T09:31:11.999Z</time>
      </trkpt>
      <trkpt lat="48.03498" lon="-1.57283">
        <ele>39.37273</ele>
        <time>2021-12-26T09:31:12.999Z</time>
      </trkpt>
      <trkpt lat="48.03495" lon="-1.57284">
        <ele>39.60353</ele>
        <time>2021-12-26T09:31:13.999Z</time>
      </trkpt>
      <trkpt lat="48.03493" lon="-1.57285">
        <ele>39.8675</ele>
        <time>2021-12-26T09:31:14.999Z</time>
      </trkpt>
      <trkpt lat="48.03491" lon="-1.57286">
        <ele>40.15459</ele>
        <time>2021-12-26T09:31:15.999Z</time>
      </trkpt>
      <trkpt lat="48.03488" lon="-1.57287">
        <ele>40.4871</ele>
        <time>2021-12-26T09:31:16.999Z</time>
      </trkpt>
      <trkpt lat="48.03486" lon="-1.57288">
        <ele>40.82062</ele>
        <time>2021-12-26T09:31:17.999Z</time>
      </trkpt>
      <trkpt lat="48.03483" lon="-1.57289">
        <ele>41.17303</ele>
        <time>2021-12-26T09:31:18.999Z</time>
      </trkpt>
      <trkpt lat="48.03481" lon="-1.5729">
        <ele>41.53284</ele>
        <time>2021-12-26T09:31:19.999Z</time>
      </trkpt>
      <trkpt lat="48.03479" lon="-1.57291">
        <ele>41.83982</ele>
        <time>2021-12-26T09:31:20.999Z</time>
      </trkpt>
      <trkpt lat="48.03476" lon="-1.57292">
        <ele>42.11411</ele>
        <time>2021-12-26T09:31:21.999Z</time>
      </trkpt>
      <trkpt lat="48.03474" lon="-1.57293">
        <ele>42.37046</ele>
        <time>2021-12-26T09:31:22.999Z</time>
      </trkpt>
      <trkpt lat="48.03472" lon="-1.57294">
        <ele>42.56233</ele>
        <time>2021-12-26T09:31:23.999Z</time>
      </trkpt>
      <trkpt lat="48.0347" lon="-1.57295">
        <ele>42.74865</ele>
        <time>2021-12-26T09:31:24.999Z</time>
      </trkpt>
      <trkpt lat="48.03468" lon="-1.57296">
        <ele>42.90084</ele>
        <time>2021-12-26T09:31:25.999Z</time>
      </trkpt>
      <trkpt lat="48.03466" lon="-1.57296">
        <ele>43.03107</ele>
        <time>2021-12-26T09:31:26.999Z</time>
      </trkpt>
      <trkpt lat="48.03464" lon="-1.57297">
        <ele>43.14442</ele>
        <time>2021-12-26T09:31:27.999Z</time>
      </trkpt>
      <trkpt lat="48.03461" lon="-1.57298">
        <ele>43.24349</ele>
        <time>2021-12-26T09:31:28.999Z</time>
      </trkpt>
      <trkpt lat="48.03459" lon="-1.57299">
        <ele>43.33821</ele>
        <time>2021-12-26T09:31:29.999Z</time>
      </trkpt>
      <trkpt lat="48.03456" lon="-1.573">
        <ele>43.41975</ele>
        <time>2021-12-26T09:31:30.999Z</time>
      </trkpt>
      <trkpt lat="48.03454" lon="-1.57301">
        <ele>43.48883</ele>
        <time>2021-12-26T09:31:31.999Z</time>
      </trkpt>
      <trkpt lat="48.03451" lon="-1.57302">
        <ele>43.56158</ele>
        <time>2021-12-26T09:31:32.999Z</time>
      </trkpt>
      <trkpt lat="48.03448" lon="-1.57303">
        <ele>43.6426</ele>
        <time>2021-12-26T09:31:33.999Z</time>
      </trkpt>
      <trkpt lat="48.03446" lon="-1.57304">
        <ele>43.71067</ele>
        <time>2021-12-26T09:31:34.999Z</time>
      </trkpt>
      <trkpt lat="48.03443" lon="-1.57304">
        <ele>43.77784</ele>
        <time>2021-12-26T09:31:35.999Z</time>
      </trkpt>
      <trkpt lat="48.03441" lon="-1.57305">
        <ele>43.83379</ele>
        <time>2021-12-26T09:31:36.999Z</time>
      </trkpt>
      <trkpt lat="48.03438" lon="-1.57305">
        <ele>43.90026</ele>
        <time>2021-12-26T09:31:37.999Z</time>
      </trkpt>
      <trkpt lat="48.03436" lon="-1.57306">
        <ele>43.97082</ele>
        <time>2021-12-26T09:31:38.999Z</time>
      </trkpt>
      <trkpt lat="48.03433" lon="-1.57306">
        <ele>44.05065</ele>
        <time>2021-12-26T09:31:39.999Z</time>
      </trkpt>
      <trkpt lat="48.03431" lon="-1.57307">
        <ele>44.12206</ele>
        <time>2021-12-26T09:31:40.999Z</time>
      </trkpt>
      <trkpt lat="48.03428" lon="-1.57307">
        <ele>44.2054</ele>
        <time>2021-12-26T09:31:41.999Z</time>
      </trkpt>
      <trkpt lat="48.03426" lon="-1.57307">
        <ele>44.3026</ele>
        <time>2021-12-26T09:31:42.999Z</time>
      </trkpt>
      <trkpt lat="48.03423" lon="-1.57308">
        <ele>44.41688</ele>
        <time>2021-12-26T09:31:43.999Z</time>
      </trkpt>
      <trkpt lat="48.03421" lon="-1.57308">
        <ele>44.53361</ele>
        <time>2021-12-26T09:31:44.999Z</time>
      </trkpt>
      <trkpt lat="48.03418" lon="-1.57308">
        <ele>44.64802</ele>
        <time>2021-12-26T09:31:45.999Z</time>
      </trkpt>
      <trkpt lat="48.03416" lon="-1.57309">
        <ele>44.7644</ele>
        <time>2021-12-26T09:31:46.999Z</time>
      </trkpt>
      <trkpt lat="48.03413" lon="-1.57309">
        <ele>44.88333</ele>
        <time>2021-12-26T09:31:47.999Z</time>
      </trkpt>
      <trkpt lat="48.0341" lon="-1.57309">
        <ele>45.00154</ele>
        <time>2021-12-26T09:31:48.999Z</time>
      </trkpt>
      <trkpt lat="48.03408" lon="-1.57309">
        <ele>45.11454</ele>
        <time>2021-12-26T09:31:49.999Z</time>
      </trkpt>
      <trkpt lat="48.03405" lon="-1.5731">
        <ele>45.20285</ele>
        <time>2021-12-26T09:31:50.999Z</time>
      </trkpt>
      <trkpt lat="48.03402" lon="-1.5731">
        <ele>45.28749</ele>
        <time>2021-12-26T09:31:51.999Z</time>
      </trkpt>
      <trkpt lat="48.034" lon="-1.5731">
        <ele>45.35409</ele>
        <time>2021-12-26T09:31:52.999Z</time>
      </trkpt>
      <trkpt lat="48.03397" lon="-1.5731">
        <ele>45.41063</ele>
        <time>2021-12-26T09:31:53.999Z</time>
      </trkpt>
      <trkpt lat="48.03395" lon="-1.5731">
        <ele>45.47457</ele>
        <time>2021-12-26T09:31:54.999Z</time>
      </trkpt>
      <trkpt lat="48.03392" lon="-1.5731">
        <ele>45.52208</ele>
        <time>2021-12-26T09:31:55.999Z</time>
      </trkpt>
      <trkpt lat="48.03389" lon="-1.57309">
        <ele>45.55982</ele>
        <time>2021-12-26T09:31:56.999Z</time>
      </trkpt>
      <trkpt lat="48.03387" lon="-1.57309">
        <ele>45.59511</ele>
        <time>2021-12-26T09:31:57.999Z</time>
      </trkpt>
      <trkpt lat="48.03384" lon="-1.57309">
        <ele>45.62052</ele>
        <time>2021-12-26T09:31:58.999Z</time>
      </trkpt>
      <trkpt lat="48.03381" lon="-1.57308">
        <ele>45.64657</ele>
        <time>2021-12-26T09:31:59.999Z</time>
      </trkpt>
      <trkpt lat="48.03378" lon="-1.57307">
        <ele>45.68739</ele>
        <time>2021-12-26T09:32:00.999Z</time>
      </trkpt>
      <trkpt lat="48.03375" lon="-1.57307">
        <ele>45.76667</ele>
        <time>2021-12-26T09:32:01.999Z</time>
      </trkpt>
      <trkpt lat="48.03372" lon="-1.57307">
        <ele>45.86907</ele>
        <time>2021-12-26T09:32:02.999Z</time>
      </trkpt>
      <trkpt lat="48.03369" lon="-1.57307">
        <ele>45.97027</ele>
        <time>2021-12-26T09:32:03.999Z</time>
      </trkpt>
      <trkpt lat="48.03366" lon="-1.57308">
        <ele>46.05686</ele>
        <time>2021-12-26T09:32:04.999Z</time>
      </trkpt>
      <trkpt lat="48.03364" lon="-1.5731">
        <ele>46.08622</ele>
        <time>2021-12-26T09:32:05.999Z</time>
      </trkpt>
      <trkpt lat="48.03362" lon="-1.57311">
        <ele>46.06991</ele>
        <time>2021-12-26T09:32:06.999Z</time>
      </trkpt>
      <trkpt lat="48.03359" lon="-1.57311">
        <ele>45.96689</ele>
        <time>2021-12-26T09:32:07.999Z</time>
      </trkpt>
      <trkpt lat="48.03357" lon="-1.57312">
        <ele>45.82736</ele>
        <time>2021-12-26T09:32:08.999Z</time>
      </trkpt>
      <trkpt lat="48.03354" lon="-1.57314">
        <ele>45.65535</ele>
        <time>2021-12-26T09:32:09.999Z</time>
      </trkpt>
      <trkpt lat="48.0335" lon="-1.57315">
        <ele>45.37787</ele>
        <time>2021-12-26T09:32:10.999Z</time>
      </trkpt>
      <trkpt lat="48.03348" lon="-1.57316">
        <ele>45.10212</ele>
        <time>2021-12-26T09:32:11.999Z</time>
      </trkpt>
      <trkpt lat="48.03345" lon="-1.57317">
        <ele>44.82554</ele>
        <time>2021-12-26T09:32:12.999Z</time>
      </trkpt>
      <trkpt lat="48.03345" lon="-1.57317">
        <ele>44.82554</ele>
        <time>2021-12-26T09:32:12.999Z</time>
      </trkpt>
      <trkpt lat="48.03343" lon="-1.57318">
        <ele>44.52608</ele>
        <time>2021-12-26T09:32:13.999Z</time>
      </trkpt>
      <trkpt lat="48.03342" lon="-1.57319">
        <ele>44.20502</ele>
        <time>2021-12-26T09:32:14.999Z</time>
      </trkpt>
      <trkpt lat="48.03339" lon="-1.57318">
        <ele>43.66642</ele>
        <time>2021-12-26T09:32:15.999Z</time>
      </trkpt>
      <trkpt lat="48.03337" lon="-1.57318">
        <ele>43.19864</ele>
        <time>2021-12-26T09:32:16.999Z</time>
      </trkpt>
      <trkpt lat="48.03335" lon="-1.57318">
        <ele>42.68383</ele>
        <time>2021-12-26T09:32:17.999Z</time>
      </trkpt>
      <trkpt lat="48.03333" lon="-1.57317">
        <ele>41.95321</ele>
        <time>2021-12-26T09:32:19.999Z</time>
      </trkpt>
      <trkpt lat="48.0333" lon="-1.57315">
        <ele>40.8827</ele>
        <time>2021-12-26T09:32:23.999Z</time>
      </trkpt>
      <trkpt lat="48.03329" lon="-1.57313">
        <ele>40.23136</ele>
        <time>2021-12-26T09:32:28.999Z</time>
      </trkpt>
      <trkpt lat="48.03327" lon="-1.57312">
        <ele>39.57894</ele>
        <time>2021-12-26T09:32:30.999Z</time>
      </trkpt>
      <trkpt lat="48.03328" lon="-1.57319">
        <ele>40.1293</ele>
        <time>2021-12-26T09:32:42.999Z</time>
      </trkpt>
      <trkpt lat="48.03326" lon="-1.57325">
        <ele>39.09195</ele>
        <time>2021-12-26T09:32:53.999Z</time>
      </trkpt>
      <trkpt lat="48.03325" lon="-1.57331">
        <ele>38.74534</ele>
        <time>2021-12-26T09:32:56.999Z</time>
      </trkpt>
      <trkpt lat="48.03325" lon="-1.57341">
        <ele>38.14657</ele>
        <time>2021-12-26T09:33:18.999Z</time>
      </trkpt>
      <trkpt lat="48.03324" lon="-1.57343">
        <ele>37.69815</ele>
        <time>2021-12-26T09:33:19.999Z</time>
      </trkpt>
      <trkpt lat="48.03322" lon="-1.57349">
        <ele>36.4498</ele>
        <time>2021-12-26T09:33:22.999Z</time>
      </trkpt>
      <trkpt lat="48.0332" lon="-1.57353">
        <ele>35.00954</ele>
        <time>2021-12-26T09:33:24.999Z</time>
      </trkpt>
      <trkpt lat="48.03319" lon="-1.57359">
        <ele>34.09985</ele>
        <time>2021-12-26T09:33:36.999Z</time>
      </trkpt>
      <trkpt lat="48.03319" lon="-1.57363">
        <ele>33.94161</ele>
        <time>2021-12-26T09:33:37.999Z</time>
      </trkpt>
      <trkpt lat="48.03319" lon="-1.57367">
        <ele>33.86836</ele>
        <time>2021-12-26T09:33:38.999Z</time>
      </trkpt>
      <trkpt lat="48.03319" lon="-1.5737">
        <ele>33.89219</ele>
        <time>2021-12-26T09:33:39.999Z</time>
      </trkpt>
      <trkpt lat="48.03319" lon="-1.57373">
        <ele>33.93981</ele>
        <time>2021-12-26T09:33:40.999Z</time>
      </trkpt>
      <trkpt lat="48.0332" lon="-1.57376">
        <ele>33.92392</ele>
        <time>2021-12-26T09:33:41.999Z</time>
      </trkpt>
      <trkpt lat="48.0332" lon="-1.57382">
        <ele>33.94501</ele>
        <time>2021-12-26T09:33:42.999Z</time>
      </trkpt>
      <trkpt lat="48.0332" lon="-1.57386">
        <ele>33.74944</ele>
        <time>2021-12-26T09:33:43.999Z</time>
      </trkpt>
      <trkpt lat="48.03319" lon="-1.5739">
        <ele>33.64465</ele>
        <time>2021-12-26T09:33:44.999Z</time>
      </trkpt>
      <trkpt lat="48.03319" lon="-1.57396">
        <ele>33.62162</ele>
        <time>2021-12-26T09:33:45.999Z</time>
      </trkpt>
      <trkpt lat="48.03319" lon="-1.57402">
        <ele>33.42809</ele>
        <time>2021-12-26T09:33:46.999Z</time>
      </trkpt>
      <trkpt lat="48.03319" lon="-1.57407">
        <ele>33.19858</ele>
        <time>2021-12-26T09:33:47.999Z</time>
      </trkpt>
      <trkpt lat="48.03319" lon="-1.57411">
        <ele>33.21516</ele>
        <time>2021-12-26T09:33:48.999Z</time>
      </trkpt>
      <trkpt lat="48.03318" lon="-1.57415">
        <ele>33.09334</ele>
        <time>2021-12-26T09:33:49.999Z</time>
      </trkpt>
      <trkpt lat="48.03318" lon="-1.57419">
        <ele>33.07352</ele>
        <time>2021-12-26T09:33:50.999Z</time>
      </trkpt>
      <trkpt lat="48.03318" lon="-1.57422">
        <ele>33.2321</ele>
        <time>2021-12-26T09:33:51.999Z</time>
      </trkpt>
      <trkpt lat="48.03318" lon="-1.57425">
        <ele>33.18878</ele>
        <time>2021-12-26T09:33:52.999Z</time>
      </trkpt>
      <trkpt lat="48.03317" lon="-1.57429">
        <ele>32.8277</ele>
        <time>2021-12-26T09:33:53.999Z</time>
      </trkpt>
      <trkpt lat="48.03317" lon="-1.57432">
        <ele>32.78961</ele>
        <time>2021-12-26T09:33:54.999Z</time>
      </trkpt>
      <trkpt lat="48.03317" lon="-1.57436">
        <ele>32.84507</ele>
        <time>2021-12-26T09:33:55.999Z</time>
      </trkpt>
      <trkpt lat="48.03317" lon="-1.5744">
        <ele>32.70951</ele>
        <time>2021-12-26T09:33:56.999Z</time>
      </trkpt>
      <trkpt lat="48.03316" lon="-1.57448">
        <ele>32.45976</ele>
        <time>2021-12-26T09:33:57.999Z</time>
      </trkpt>
      <trkpt lat="48.03317" lon="-1.57451">
        <ele>33.36656</ele>
        <time>2021-12-26T09:33:58.999Z</time>
      </trkpt>
      <trkpt lat="48.03317" lon="-1.57454">
        <ele>33.24861</ele>
        <time>2021-12-26T09:33:59.999Z</time>
      </trkpt>
      <trkpt lat="48.03317" lon="-1.57458">
        <ele>33.36544</ele>
        <time>2021-12-26T09:34:00.999Z</time>
      </trkpt>
      <trkpt lat="48.03317" lon="-1.57462">
        <ele>33.29921</ele>
        <time>2021-12-26T09:34:01.999Z</time>
      </trkpt>
      <trkpt lat="48.03315" lon="-1.57468">
        <ele>32.34046</ele>
        <time>2021-12-26T09:34:02.999Z</time>
      </trkpt>
      <trkpt lat="48.03312" lon="-1.57474">
        <ele>30.83505</ele>
        <time>2021-12-26T09:34:03.999Z</time>
      </trkpt>
      <trkpt lat="48.0331" lon="-1.57478">
        <ele>29.83008</ele>
        <time>2021-12-26T09:34:04.999Z</time>
      </trkpt>
      <trkpt lat="48.03308" lon="-1.57482">
        <ele>29.35848</ele>
        <time>2021-12-26T09:34:05.999Z</time>
      </trkpt>
      <trkpt lat="48.03307" lon="-1.57484">
        <ele>29.11944</ele>
        <time>2021-12-26T09:34:06.999Z</time>
      </trkpt>
      <trkpt lat="48.03307" lon="-1.57487">
        <ele>28.99137</ele>
        <time>2021-12-26T09:34:07.999Z</time>
      </trkpt>
      <trkpt lat="48.03306" lon="-1.57491">
        <ele>28.83899</ele>
        <time>2021-12-26T09:34:08.999Z</time>
      </trkpt>
      <trkpt lat="48.03304" lon="-1.57497">
        <ele>28.52641</ele>
        <time>2021-12-26T09:34:09.999Z</time>
      </trkpt>
      <trkpt lat="48.03301" lon="-1.57504">
        <ele>28.39187</ele>
        <time>2021-12-26T09:34:10.999Z</time>
      </trkpt>
      <trkpt lat="48.03299" lon="-1.5751">
        <ele>28.42348</ele>
        <time>2021-12-26T09:34:11.999Z</time>
      </trkpt>
      <trkpt lat="48.03297" lon="-1.57515">
        <ele>28.51227</ele>
        <time>2021-12-26T09:34:12.999Z</time>
      </trkpt>
      <trkpt lat="48.03295" lon="-1.57519">
        <ele>28.55658</ele>
        <time>2021-12-26T09:34:13.999Z</time>
      </trkpt>
      <trkpt lat="48.03292" lon="-1.57522">
        <ele>28.5895</ele>
        <time>2021-12-26T09:34:14.999Z</time>
      </trkpt>
      <trkpt lat="48.0329" lon="-1.57523">
        <ele>28.57252</ele>
        <time>2021-12-26T09:34:15.999Z</time>
      </trkpt>
      <trkpt lat="48.03286" lon="-1.57522">
        <ele>28.50848</ele>
        <time>2021-12-26T09:34:16.999Z</time>
      </trkpt>
      <trkpt lat="48.03283" lon="-1.57521">
        <ele>28.42827</ele>
        <time>2021-12-26T09:34:17.999Z</time>
      </trkpt>
      <trkpt lat="48.0328" lon="-1.57521">
        <ele>28.45589</ele>
        <time>2021-12-26T09:34:18.999Z</time>
      </trkpt>
      <trkpt lat="48.03277" lon="-1.57521">
        <ele>28.5537</ele>
        <time>2021-12-26T09:34:20.999Z</time>
      </trkpt>
      <trkpt lat="48.03275" lon="-1.5752">
        <ele>28.7041</ele>
        <time>2021-12-26T09:34:21.999Z</time>
      </trkpt>
      <trkpt lat="48.03273" lon="-1.57518">
        <ele>28.87009</ele>
        <time>2021-12-26T09:34:23.999Z</time>
      </trkpt>
      <trkpt lat="48.03271" lon="-1.57514">
        <ele>29.01342</ele>
        <time>2021-12-26T09:34:25.999Z</time>
      </trkpt>
      <trkpt lat="48.0327" lon="-1.57511">
        <ele>29.13626</ele>
        <time>2021-12-26T09:34:26.999Z</time>
      </trkpt>
      <trkpt lat="48.03268" lon="-1.57511">
        <ele>29.31941</ele>
        <time>2021-12-26T09:34:27.999Z</time>
      </trkpt>
      <trkpt lat="48.03265" lon="-1.5751">
        <ele>29.51992</ele>
        <time>2021-12-26T09:34:28.999Z</time>
      </trkpt>
      <trkpt lat="48.03263" lon="-1.57509">
        <ele>29.68218</ele>
        <time>2021-12-26T09:34:29.999Z</time>
      </trkpt>
      <trkpt lat="48.03261" lon="-1.57508">
        <ele>29.85999</ele>
        <time>2021-12-26T09:34:30.999Z</time>
      </trkpt>
      <trkpt lat="48.03259" lon="-1.57507">
        <ele>30.01766</ele>
        <time>2021-12-26T09:34:31.999Z</time>
      </trkpt>
      <trkpt lat="48.03257" lon="-1.57506">
        <ele>30.17696</ele>
        <time>2021-12-26T09:34:32.999Z</time>
      </trkpt>
      <trkpt lat="48.03255" lon="-1.57505">
        <ele>30.35362</ele>
        <time>2021-12-26T09:34:33.999Z</time>
      </trkpt>
      <trkpt lat="48.03253" lon="-1.57502">
        <ele>30.59857</ele>
        <time>2021-12-26T09:34:34.999Z</time>
      </trkpt>
      <trkpt lat="48.03253" lon="-1.57502">
        <ele>30.59857</ele>
        <time>2021-12-26T09:34:34.999Z</time>
      </trkpt>
      <trkpt lat="48.0325" lon="-1.575">
        <ele>30.83748</ele>
        <time>2021-12-26T09:34:35.999Z</time>
      </trkpt>
      <trkpt lat="48.03248" lon="-1.57498">
        <ele>31.02331</ele>
        <time>2021-12-26T09:34:36.999Z</time>
      </trkpt>
      <trkpt lat="48.03246" lon="-1.57497">
        <ele>31.21102</ele>
        <time>2021-12-26T09:34:37.999Z</time>
      </trkpt>
      <trkpt lat="48.03244" lon="-1.57496">
        <ele>31.4345</ele>
        <time>2021-12-26T09:34:38.999Z</time>
      </trkpt>
      <trkpt lat="48.03242" lon="-1.57495">
        <ele>31.6391</ele>
        <time>2021-12-26T09:34:39.999Z</time>
      </trkpt>
      <trkpt lat="48.03238" lon="-1.57492">
        <ele>31.94586</ele>
        <time>2021-12-26T09:34:40.999Z</time>
      </trkpt>
      <trkpt lat="48.03236" lon="-1.57491">
        <ele>32.09706</ele>
        <time>2021-12-26T09:34:41.999Z</time>
      </trkpt>
      <trkpt lat="48.03234" lon="-1.5749">
        <ele>32.22196</ele>
        <time>2021-12-26T09:34:42.999Z</time>
      </trkpt>
      <trkpt lat="48.03231" lon="-1.57488">
        <ele>32.46955</ele>
        <time>2021-12-26T09:34:44.999Z</time>
      </trkpt>
      <trkpt lat="48.03227" lon="-1.57486">
        <ele>32.70887</ele>
        <time>2021-12-26T09:34:46.999Z</time>
      </trkpt>
      <trkpt lat="48.03225" lon="-1.57485">
        <ele>32.8455</ele>
        <time>2021-12-26T09:34:47.999Z</time>
      </trkpt>
      <trkpt lat="48.03222" lon="-1.57484">
        <ele>33.02527</ele>
        <time>2021-12-26T09:34:48.999Z</time>
      </trkpt>
      <trkpt lat="48.0322" lon="-1.57483">
        <ele>33.20164</ele>
        <time>2021-12-26T09:34:49.999Z</time>
      </trkpt>
      <trkpt lat="48.03217" lon="-1.57481">
        <ele>33.3816</ele>
        <time>2021-12-26T09:34:50.999Z</time>
      </trkpt>
      <trkpt lat="48.03215" lon="-1.57481">
        <ele>33.53704</ele>
        <time>2021-12-26T09:34:51.999Z</time>
      </trkpt>
      <trkpt lat="48.03212" lon="-1.57479">
        <ele>33.76149</ele>
        <time>2021-12-26T09:34:53.999Z</time>
      </trkpt>
      <trkpt lat="48.03209" lon="-1.57478">
        <ele>34.00425</ele>
        <time>2021-12-26T09:34:55.999Z</time>
      </trkpt>
      <trkpt lat="48.03206" lon="-1.57477">
        <ele>34.24353</ele>
        <time>2021-12-26T09:34:57.999Z</time>
      </trkpt>
      <trkpt lat="48.03204" lon="-1.57476">
        <ele>34.39388</ele>
        <time>2021-12-26T09:34:58.999Z</time>
      </trkpt>
      <trkpt lat="48.03203" lon="-1.57475">
        <ele>34.54161</ele>
        <time>2021-12-26T09:34:59.999Z</time>
      </trkpt>
      <trkpt lat="48.032" lon="-1.57474">
        <ele>34.79271</ele>
        <time>2021-12-26T09:35:01.999Z</time>
      </trkpt>
      <trkpt lat="48.03197" lon="-1.57472">
        <ele>35.06941</ele>
        <time>2021-12-26T09:35:03.999Z</time>
      </trkpt>
      <trkpt lat="48.03193" lon="-1.57469">
        <ele>35.4089</ele>
        <time>2021-12-26T09:35:06.999Z</time>
      </trkpt>
      <trkpt lat="48.0319" lon="-1.57466">
        <ele>35.6968</ele>
        <time>2021-12-26T09:35:08.999Z</time>
      </trkpt>
      <trkpt lat="48.03187" lon="-1.57465">
        <ele>35.98906</ele>
        <time>2021-12-26T09:35:10.999Z</time>
      </trkpt>
      <trkpt lat="48.03185" lon="-1.57464">
        <ele>36.1688</ele>
        <time>2021-12-26T09:35:11.999Z</time>
      </trkpt>
      <trkpt lat="48.03181" lon="-1.57462">
        <ele>36.47523</ele>
        <time>2021-12-26T09:35:13.999Z</time>
      </trkpt>
      <trkpt lat="48.03179" lon="-1.57461">
        <ele>36.63517</ele>
        <time>2021-12-26T09:35:14.999Z</time>
      </trkpt>
      <trkpt lat="48.03177" lon="-1.5746">
        <ele>36.88669</ele>
        <time>2021-12-26T09:35:16.999Z</time>
      </trkpt>
      <trkpt lat="48.03173" lon="-1.57458">
        <ele>37.15926</ele>
        <time>2021-12-26T09:35:18.999Z</time>
      </trkpt>
      <trkpt lat="48.0317" lon="-1.57457">
        <ele>37.43367</ele>
        <time>2021-12-26T09:35:20.999Z</time>
      </trkpt>
      <trkpt lat="48.03169" lon="-1.57456">
        <ele>37.58759</ele>
        <time>2021-12-26T09:35:21.999Z</time>
      </trkpt>
      <trkpt lat="48.03165" lon="-1.57455">
        <ele>37.89638</ele>
        <time>2021-12-26T09:35:22.999Z</time>
      </trkpt>
      <trkpt lat="48.03161" lon="-1.57453">
        <ele>38.25715</ele>
        <time>2021-12-26T09:35:25.999Z</time>
      </trkpt>
      <trkpt lat="48.03157" lon="-1.57451">
        <ele>38.59244</ele>
        <time>2021-12-26T09:35:28.999Z</time>
      </trkpt>
      <trkpt lat="48.0315" lon="-1.57448">
        <ele>39.11789</ele>
        <time>2021-12-26T09:35:33.999Z</time>
      </trkpt>
      <trkpt lat="48.03147" lon="-1.57447">
        <ele>39.38359</ele>
        <time>2021-12-26T09:35:35.999Z</time>
      </trkpt>
      <trkpt lat="48.03143" lon="-1.57445">
        <ele>39.74821</ele>
        <time>2021-12-26T09:35:37.999Z</time>
      </trkpt>
      <trkpt lat="48.03139" lon="-1.57445">
        <ele>39.99996</ele>
        <time>2021-12-26T09:35:39.999Z</time>
      </trkpt>
      <trkpt lat="48.03137" lon="-1.57445">
        <ele>40.14949</ele>
        <time>2021-12-26T09:35:40.999Z</time>
      </trkpt>
      <trkpt lat="48.03135" lon="-1.57445">
        <ele>40.25817</ele>
        <time>2021-12-26T09:35:41.999Z</time>
      </trkpt>
      <trkpt lat="48.03132" lon="-1.57445">
        <ele>40.40177</ele>
        <time>2021-12-26T09:35:42.999Z</time>
      </trkpt>
      <trkpt lat="48.03129" lon="-1.57444">
        <ele>40.52215</ele>
        <time>2021-12-26T09:35:43.999Z</time>
      </trkpt>
      <trkpt lat="48.03127" lon="-1.57444">
        <ele>40.5844</ele>
        <time>2021-12-26T09:35:44.999Z</time>
      </trkpt>
      <trkpt lat="48.03125" lon="-1.57443">
        <ele>40.63804</ele>
        <time>2021-12-26T09:35:45.999Z</time>
      </trkpt>
      <trkpt lat="48.03123" lon="-1.57442">
        <ele>40.67327</ele>
        <time>2021-12-26T09:35:46.999Z</time>
      </trkpt>
      <trkpt lat="48.03122" lon="-1.57441">
        <ele>40.70087</ele>
        <time>2021-12-26T09:35:47.999Z</time>
      </trkpt>
      <trkpt lat="48.03118" lon="-1.57439">
        <ele>40.72955</ele>
        <time>2021-12-26T09:35:49.999Z</time>
      </trkpt>
      <trkpt lat="48.03116" lon="-1.57438">
        <ele>40.73754</ele>
        <time>2021-12-26T09:35:50.999Z</time>
      </trkpt>
      <trkpt lat="48.03114" lon="-1.57438">
        <ele>40.74338</ele>
        <time>2021-12-26T09:35:51.999Z</time>
      </trkpt>
      <trkpt lat="48.03112" lon="-1.57437">
        <ele>40.75016</ele>
        <time>2021-12-26T09:35:52.999Z</time>
      </trkpt>
      <trkpt lat="48.03109" lon="-1.57437">
        <ele>40.77568</ele>
        <time>2021-12-26T09:35:54.999Z</time>
      </trkpt>
      <trkpt lat="48.03105" lon="-1.57437">
        <ele>40.81778</ele>
        <time>2021-12-26T09:35:57.999Z</time>
      </trkpt>
      <trkpt lat="48.03102" lon="-1.57437">
        <ele>40.84602</ele>
        <time>2021-12-26T09:35:59.999Z</time>
      </trkpt>
      <trkpt lat="48.031" lon="-1.57436">
        <ele>40.88177</ele>
        <time>2021-12-26T09:36:00.999Z</time>
      </trkpt>
      <trkpt lat="48.03097" lon="-1.57433">
        <ele>40.99224</ele>
        <time>2021-12-26T09:36:02.999Z</time>
      </trkpt>
      <trkpt lat="48.03096" lon="-1.5743">
        <ele>41.07805</ele>
        <time>2021-12-26T09:36:03.999Z</time>
      </trkpt>
      <trkpt lat="48.03096" lon="-1.57427">
        <ele>41.17062</ele>
        <time>2021-12-26T09:36:04.999Z</time>
      </trkpt>
      <trkpt lat="48.03095" lon="-1.57424">
        <ele>41.27331</ele>
        <time>2021-12-26T09:36:05.999Z</time>
      </trkpt>
      <trkpt lat="48.03094" lon="-1.57419">
        <ele>41.44183</ele>
        <time>2021-12-26T09:36:07.999Z</time>
      </trkpt>
      <trkpt lat="48.03094" lon="-1.57416">
        <ele>41.51425</ele>
        <time>2021-12-26T09:36:08.999Z</time>
      </trkpt>
      <trkpt lat="48.03093" lon="-1.57411">
        <ele>41.68842</ele>
        <time>2021-12-26T09:36:10.999Z</time>
      </trkpt>
      <trkpt lat="48.03092" lon="-1.57406">
        <ele>41.82135</ele>
        <time>2021-12-26T09:36:12.999Z</time>
      </trkpt>
      <trkpt lat="48.03091" lon="-1.57402">
        <ele>41.94929</ele>
        <time>2021-12-26T09:36:14.999Z</time>
      </trkpt>
      <trkpt lat="48.0309" lon="-1.57399">
        <ele>42.04574</ele>
        <time>2021-12-26T09:36:16.999Z</time>
      </trkpt>
      <trkpt lat="48.0309" lon="-1.57396">
        <ele>42.09603</ele>
        <time>2021-12-26T09:36:18.999Z</time>
      </trkpt>
      <trkpt lat="48.03089" lon="-1.57392">
        <ele>42.20214</ele>
        <time>2021-12-26T09:36:20.999Z</time>
      </trkpt>
      <trkpt lat="48.03088" lon="-1.57389">
        <ele>42.29738</ele>
        <time>2021-12-26T09:36:21.999Z</time>
      </trkpt>
      <trkpt lat="48.03086" lon="-1.57385">
        <ele>42.42751</ele>
        <time>2021-12-26T09:36:22.999Z</time>
      </trkpt>
      <trkpt lat="48.03085" lon="-1.57381">
        <ele>42.5263</ele>
        <time>2021-12-26T09:36:23.999Z</time>
      </trkpt>
      <trkpt lat="48.03084" lon="-1.57379">
        <ele>42.57929</ele>
        <time>2021-12-26T09:36:26.000Z</time>
      </trkpt>
      <trkpt lat="48.03083" lon="-1.57375">
        <ele>42.67984</ele>
        <time>2021-12-26T09:36:28.000Z</time>
      </trkpt>
      <trkpt lat="48.03081" lon="-1.57372">
        <ele>42.78422</ele>
        <time>2021-12-26T09:36:29.000Z</time>
      </trkpt>
      <trkpt lat="48.03079" lon="-1.57369">
        <ele>42.89061</ele>
        <time>2021-12-26T09:36:31.000Z</time>
      </trkpt>
      <trkpt lat="48.03077" lon="-1.57365">
        <ele>42.97494</ele>
        <time>2021-12-26T09:36:32.000Z</time>
      </trkpt>
      <trkpt lat="48.03075" lon="-1.57361">
        <ele>43.04564</ele>
        <time>2021-12-26T09:36:33.000Z</time>
      </trkpt>
      <trkpt lat="48.03073" lon="-1.57358">
        <ele>43.10629</ele>
        <time>2021-12-26T09:36:34.000Z</time>
      </trkpt>
      <trkpt lat="48.03071" lon="-1.57355">
        <ele>43.16885</ele>
        <time>2021-12-26T09:36:35.000Z</time>
      </trkpt>
      <trkpt lat="48.03069" lon="-1.57352">
        <ele>43.22749</ele>
        <time>2021-12-26T09:36:36.000Z</time>
      </trkpt>
      <trkpt lat="48.03067" lon="-1.57349">
        <ele>43.27415</ele>
        <time>2021-12-26T09:36:37.000Z</time>
      </trkpt>
      <trkpt lat="48.03065" lon="-1.57346">
        <ele>43.32761</ele>
        <time>2021-12-26T09:36:38.000Z</time>
      </trkpt>
      <trkpt lat="48.03063" lon="-1.57343">
        <ele>43.37641</ele>
        <time>2021-12-26T09:36:39.000Z</time>
      </trkpt>
      <trkpt lat="48.03062" lon="-1.57341">
        <ele>43.41756</ele>
        <time>2021-12-26T09:36:40.000Z</time>
      </trkpt>
      <trkpt lat="48.0306" lon="-1.57338">
        <ele>43.46066</ele>
        <time>2021-12-26T09:36:41.000Z</time>
      </trkpt>
      <trkpt lat="48.03058" lon="-1.57335">
        <ele>43.47884</ele>
        <time>2021-12-26T09:36:42.000Z</time>
      </trkpt>
      <trkpt lat="48.03057" lon="-1.57332">
        <ele>43.48753</ele>
        <time>2021-12-26T09:36:43.000Z</time>
      </trkpt>
      <trkpt lat="48.03055" lon="-1.5733">
        <ele>43.48761</ele>
        <time>2021-12-26T09:36:44.000Z</time>
      </trkpt>
      <trkpt lat="48.03053" lon="-1.57327">
        <ele>43.47809</ele>
        <time>2021-12-26T09:36:45.000Z</time>
      </trkpt>
      <trkpt lat="48.03051" lon="-1.57324">
        <ele>43.45687</ele>
        <time>2021-12-26T09:36:46.000Z</time>
      </trkpt>
      <trkpt lat="48.0305" lon="-1.57321">
        <ele>43.42381</ele>
        <time>2021-12-26T09:36:47.000Z</time>
      </trkpt>
      <trkpt lat="48.03048" lon="-1.57318">
        <ele>43.40867</ele>
        <time>2021-12-26T09:36:48.000Z</time>
      </trkpt>
      <trkpt lat="48.03046" lon="-1.57315">
        <ele>43.40402</ele>
        <time>2021-12-26T09:36:49.000Z</time>
      </trkpt>
      <trkpt lat="48.03044" lon="-1.57312">
        <ele>43.42014</ele>
        <time>2021-12-26T09:36:50.000Z</time>
      </trkpt>
      <trkpt lat="48.03043" lon="-1.5731">
        <ele>43.46286</ele>
        <time>2021-12-26T09:36:51.000Z</time>
      </trkpt>
      <trkpt lat="48.03041" lon="-1.57307">
        <ele>43.52236</ele>
        <time>2021-12-26T09:36:52.000Z</time>
      </trkpt>
      <trkpt lat="48.03039" lon="-1.57304">
        <ele>43.57558</ele>
        <time>2021-12-26T09:36:53.000Z</time>
      </trkpt>
      <trkpt lat="48.03037" lon="-1.57301">
        <ele>43.61035</ele>
        <time>2021-12-26T09:36:54.000Z</time>
      </trkpt>
      <trkpt lat="48.03036" lon="-1.57298">
        <ele>43.62531</ele>
        <time>2021-12-26T09:36:55.000Z</time>
      </trkpt>
      <trkpt lat="48.03034" lon="-1.57295">
        <ele>43.61027</ele>
        <time>2021-12-26T09:36:56.000Z</time>
      </trkpt>
      <trkpt lat="48.03032" lon="-1.57291">
        <ele>43.56982</ele>
        <time>2021-12-26T09:36:57.000Z</time>
      </trkpt>
      <trkpt lat="48.0303" lon="-1.57288">
        <ele>43.50013</ele>
        <time>2021-12-26T09:36:58.000Z</time>
      </trkpt>
      <trkpt lat="48.03028" lon="-1.57286">
        <ele>43.44467</ele>
        <time>2021-12-26T09:36:59.000Z</time>
      </trkpt>
      <trkpt lat="48.03027" lon="-1.57283">
        <ele>43.377</ele>
        <time>2021-12-26T09:37:00.000Z</time>
      </trkpt>
      <trkpt lat="48.03025" lon="-1.57279">
        <ele>43.31006</ele>
        <time>2021-12-26T09:37:01.000Z</time>
      </trkpt>
      <trkpt lat="48.03024" lon="-1.57276">
        <ele>43.27753</ele>
        <time>2021-12-26T09:37:02.000Z</time>
      </trkpt>
      <trkpt lat="48.03022" lon="-1.57273">
        <ele>43.28788</ele>
        <time>2021-12-26T09:37:03.000Z</time>
      </trkpt>
      <trkpt lat="48.03021" lon="-1.5727">
        <ele>43.32921</ele>
        <time>2021-12-26T09:37:04.000Z</time>
      </trkpt>
      <trkpt lat="48.03019" lon="-1.57267">
        <ele>43.38544</ele>
        <time>2021-12-26T09:37:05.000Z</time>
      </trkpt>
      <trkpt lat="48.03018" lon="-1.57264">
        <ele>43.45393</ele>
        <time>2021-12-26T09:37:06.000Z</time>
      </trkpt>
      <trkpt lat="48.03016" lon="-1.57261">
        <ele>43.5172</ele>
        <time>2021-12-26T09:37:07.000Z</time>
      </trkpt>
      <trkpt lat="48.03015" lon="-1.57258">
        <ele>43.55823</ele>
        <time>2021-12-26T09:37:08.000Z</time>
      </trkpt>
      <trkpt lat="48.03013" lon="-1.57254">
        <ele>43.57896</ele>
        <time>2021-12-26T09:37:09.000Z</time>
      </trkpt>
      <trkpt lat="48.03011" lon="-1.57252">
        <ele>43.58227</ele>
        <time>2021-12-26T09:37:10.000Z</time>
      </trkpt>
      <trkpt lat="48.0301" lon="-1.57249">
        <ele>43.56692</ele>
        <time>2021-12-26T09:37:11.000Z</time>
      </trkpt>
      <trkpt lat="48.03008" lon="-1.57246">
        <ele>43.53925</ele>
        <time>2021-12-26T09:37:12.000Z</time>
      </trkpt>
      <trkpt lat="48.03007" lon="-1.57243">
        <ele>43.52114</ele>
        <time>2021-12-26T09:37:13.000Z</time>
      </trkpt>
      <trkpt lat="48.03005" lon="-1.5724">
        <ele>43.51314</ele>
        <time>2021-12-26T09:37:14.000Z</time>
      </trkpt>
      <trkpt lat="48.03003" lon="-1.57238">
        <ele>43.53075</ele>
        <time>2021-12-26T09:37:15.000Z</time>
      </trkpt>
      <trkpt lat="48.03002" lon="-1.57235">
        <ele>43.55151</ele>
        <time>2021-12-26T09:37:16.000Z</time>
      </trkpt>
      <trkpt lat="48.03" lon="-1.57232">
        <ele>43.58323</ele>
        <time>2021-12-26T09:37:17.000Z</time>
      </trkpt>
      <trkpt lat="48.02999" lon="-1.57229">
        <ele>43.61979</ele>
        <time>2021-12-26T09:37:18.000Z</time>
      </trkpt>
      <trkpt lat="48.02997" lon="-1.57226">
        <ele>43.65948</ele>
        <time>2021-12-26T09:37:19.000Z</time>
      </trkpt>
      <trkpt lat="48.02996" lon="-1.57223">
        <ele>43.69685</ele>
        <time>2021-12-26T09:37:20.000Z</time>
      </trkpt>
      <trkpt lat="48.02994" lon="-1.5722">
        <ele>43.72316</ele>
        <time>2021-12-26T09:37:21.000Z</time>
      </trkpt>
      <trkpt lat="48.02993" lon="-1.57217">
        <ele>43.74524</ele>
        <time>2021-12-26T09:37:22.000Z</time>
      </trkpt>
      <trkpt lat="48.02991" lon="-1.57214">
        <ele>43.75862</ele>
        <time>2021-12-26T09:37:23.000Z</time>
      </trkpt>
      <trkpt lat="48.02991" lon="-1.57214">
        <ele>43.75862</ele>
        <time>2021-12-26T09:37:23.000Z</time>
      </trkpt>
      <trkpt lat="48.0299" lon="-1.57211">
        <ele>43.7628</ele>
        <time>2021-12-26T09:37:24.000Z</time>
      </trkpt>
      <trkpt lat="48.02988" lon="-1.57208">
        <ele>43.74816</ele>
        <time>2021-12-26T09:37:25.000Z</time>
      </trkpt>
      <trkpt lat="48.02987" lon="-1.57204">
        <ele>43.71952</ele>
        <time>2021-12-26T09:37:26.000Z</time>
      </trkpt>
      <trkpt lat="48.02987" lon="-1.572">
        <ele>43.67183</ele>
        <time>2021-12-26T09:37:27.000Z</time>
      </trkpt>
      <trkpt lat="48.02987" lon="-1.57195">
        <ele>43.60829</ele>
        <time>2021-12-26T09:37:28.000Z</time>
      </trkpt>
      <trkpt lat="48.02987" lon="-1.57191">
        <ele>43.54349</ele>
        <time>2021-12-26T09:37:29.000Z</time>
      </trkpt>
      <trkpt lat="48.02986" lon="-1.57186">
        <ele>43.47725</ele>
        <time>2021-12-26T09:37:30.000Z</time>
      </trkpt>
      <trkpt lat="48.02986" lon="-1.57182">
        <ele>43.42185</ele>
        <time>2021-12-26T09:37:31.000Z</time>
      </trkpt>
      <trkpt lat="48.02986" lon="-1.57177">
        <ele>43.36666</ele>
        <time>2021-12-26T09:37:32.000Z</time>
      </trkpt>
      <trkpt lat="48.02985" lon="-1.57172">
        <ele>43.31761</ele>
        <time>2021-12-26T09:37:33.000Z</time>
      </trkpt>
      <trkpt lat="48.02985" lon="-1.57167">
        <ele>43.2625</ele>
        <time>2021-12-26T09:37:34.000Z</time>
      </trkpt>
      <trkpt lat="48.02985" lon="-1.57162">
        <ele>43.20639</ele>
        <time>2021-12-26T09:37:35.000Z</time>
      </trkpt>
      <trkpt lat="48.02985" lon="-1.57156">
        <ele>43.14636</ele>
        <time>2021-12-26T09:37:36.000Z</time>
      </trkpt>
      <trkpt lat="48.02985" lon="-1.5715">
        <ele>43.09254</ele>
        <time>2021-12-26T09:37:37.000Z</time>
      </trkpt>
      <trkpt lat="48.02985" lon="-1.57144">
        <ele>43.03691</ele>
        <time>2021-12-26T09:37:38.000Z</time>
      </trkpt>
      <trkpt lat="48.02984" lon="-1.57138">
        <ele>42.97452</ele>
        <time>2021-12-26T09:37:39.000Z</time>
      </trkpt>
      <trkpt lat="48.02984" lon="-1.57131">
        <ele>42.89457</ele>
        <time>2021-12-26T09:37:40.000Z</time>
      </trkpt>
      <trkpt lat="48.02984" lon="-1.57125">
        <ele>42.81531</ele>
        <time>2021-12-26T09:37:41.000Z</time>
      </trkpt>
      <trkpt lat="48.02983" lon="-1.57118">
        <ele>42.73819</ele>
        <time>2021-12-26T09:37:42.000Z</time>
      </trkpt>
      <trkpt lat="48.02983" lon="-1.57111">
        <ele>42.66138</ele>
        <time>2021-12-26T09:37:43.000Z</time>
      </trkpt>
      <trkpt lat="48.02983" lon="-1.57103">
        <ele>42.59591</ele>
        <time>2021-12-26T09:37:44.000Z</time>
      </trkpt>
      <trkpt lat="48.02982" lon="-1.57096">
        <ele>42.55464</ele>
        <time>2021-12-26T09:37:45.000Z</time>
      </trkpt>
      <trkpt lat="48.02982" lon="-1.57089">
        <ele>42.51814</ele>
        <time>2021-12-26T09:37:46.000Z</time>
      </trkpt>
      <trkpt lat="48.02982" lon="-1.57081">
        <ele>42.48142</ele>
        <time>2021-12-26T09:37:47.000Z</time>
      </trkpt>
      <trkpt lat="48.02982" lon="-1.57074">
        <ele>42.44306</ele>
        <time>2021-12-26T09:37:48.000Z</time>
      </trkpt>
      <trkpt lat="48.02981" lon="-1.57066">
        <ele>42.41564</ele>
        <time>2021-12-26T09:37:49.000Z</time>
      </trkpt>
      <trkpt lat="48.02981" lon="-1.57058">
        <ele>42.40686</ele>
        <time>2021-12-26T09:37:50.000Z</time>
      </trkpt>
      <trkpt lat="48.02981" lon="-1.57049">
        <ele>42.39001</ele>
        <time>2021-12-26T09:37:51.000Z</time>
      </trkpt>
      <trkpt lat="48.02981" lon="-1.57041">
        <ele>42.36596</ele>
        <time>2021-12-26T09:37:52.000Z</time>
      </trkpt>
      <trkpt lat="48.0298" lon="-1.57034">
        <ele>42.36948</ele>
        <time>2021-12-26T09:37:53.000Z</time>
      </trkpt>
      <trkpt lat="48.0298" lon="-1.57026">
        <ele>42.313</ele>
        <time>2021-12-26T09:37:54.000Z</time>
      </trkpt>
      <trkpt lat="48.0298" lon="-1.57019">
        <ele>42.22258</ele>
        <time>2021-12-26T09:37:55.000Z</time>
      </trkpt>
      <trkpt lat="48.02979" lon="-1.57012">
        <ele>42.15733</ele>
        <time>2021-12-26T09:37:56.000Z</time>
      </trkpt>
      <trkpt lat="48.02979" lon="-1.57004">
        <ele>42.11705</ele>
        <time>2021-12-26T09:37:57.000Z</time>
      </trkpt>
      <trkpt lat="48.0298" lon="-1.56997">
        <ele>42.08042</ele>
        <time>2021-12-26T09:37:58.000Z</time>
      </trkpt>
      <trkpt lat="48.0298" lon="-1.56989">
        <ele>42.08396</ele>
        <time>2021-12-26T09:37:59.000Z</time>
      </trkpt>
      <trkpt lat="48.0298" lon="-1.56981">
        <ele>42.11909</ele>
        <time>2021-12-26T09:38:00.000Z</time>
      </trkpt>
      <trkpt lat="48.0298" lon="-1.56974">
        <ele>42.14512</ele>
        <time>2021-12-26T09:38:01.000Z</time>
      </trkpt>
      <trkpt lat="48.0298" lon="-1.56966">
        <ele>42.12889</ele>
        <time>2021-12-26T09:38:02.000Z</time>
      </trkpt>
      <trkpt lat="48.02981" lon="-1.56958">
        <ele>42.10333</ele>
        <time>2021-12-26T09:38:03.000Z</time>
      </trkpt>
      <trkpt lat="48.02981" lon="-1.56951">
        <ele>42.08403</ele>
        <time>2021-12-26T09:38:04.000Z</time>
      </trkpt>
      <trkpt lat="48.02981" lon="-1.56944">
        <ele>42.0652</ele>
        <time>2021-12-26T09:38:05.000Z</time>
      </trkpt>
      <trkpt lat="48.02982" lon="-1.56937">
        <ele>42.03069</ele>
        <time>2021-12-26T09:38:06.000Z</time>
      </trkpt>
      <trkpt lat="48.02982" lon="-1.5693">
        <ele>42.01488</ele>
        <time>2021-12-26T09:38:07.000Z</time>
      </trkpt>
      <trkpt lat="48.02983" lon="-1.56923">
        <ele>42.00564</ele>
        <time>2021-12-26T09:38:08.000Z</time>
      </trkpt>
      <trkpt lat="48.02983" lon="-1.56916">
        <ele>42.0152</ele>
        <time>2021-12-26T09:38:09.000Z</time>
      </trkpt>
      <trkpt lat="48.02983" lon="-1.56909">
        <ele>42.01855</ele>
        <time>2021-12-26T09:38:10.000Z</time>
      </trkpt>
      <trkpt lat="48.02983" lon="-1.56902">
        <ele>42.02559</ele>
        <time>2021-12-26T09:38:11.000Z</time>
      </trkpt>
      <trkpt lat="48.02983" lon="-1.56894">
        <ele>42.0288</ele>
        <time>2021-12-26T09:38:12.000Z</time>
      </trkpt>
      <trkpt lat="48.02983" lon="-1.56887">
        <ele>42.03406</ele>
        <time>2021-12-26T09:38:13.000Z</time>
      </trkpt>
      <trkpt lat="48.02984" lon="-1.5688">
        <ele>42.04464</ele>
        <time>2021-12-26T09:38:14.000Z</time>
      </trkpt>
      <trkpt lat="48.02984" lon="-1.56873">
        <ele>42.06929</ele>
        <time>2021-12-26T09:38:15.000Z</time>
      </trkpt>
      <trkpt lat="48.02984" lon="-1.56866">
        <ele>42.11488</ele>
        <time>2021-12-26T09:38:16.000Z</time>
      </trkpt>
      <trkpt lat="48.02985" lon="-1.56859">
        <ele>42.19083</ele>
        <time>2021-12-26T09:38:17.000Z</time>
      </trkpt>
      <trkpt lat="48.02985" lon="-1.56851">
        <ele>42.27983</ele>
        <time>2021-12-26T09:38:18.000Z</time>
      </trkpt>
      <trkpt lat="48.02985" lon="-1.56845">
        <ele>42.3615</ele>
        <time>2021-12-26T09:38:19.000Z</time>
      </trkpt>
      <trkpt lat="48.02985" lon="-1.56838">
        <ele>42.41639</ele>
        <time>2021-12-26T09:38:20.000Z</time>
      </trkpt>
      <trkpt lat="48.02985" lon="-1.56831">
        <ele>42.4352</ele>
        <time>2021-12-26T09:38:21.000Z</time>
      </trkpt>
      <trkpt lat="48.02985" lon="-1.56824">
        <ele>42.42989</ele>
        <time>2021-12-26T09:38:22.000Z</time>
      </trkpt>
      <trkpt lat="48.02984" lon="-1.56817">
        <ele>42.41596</ele>
        <time>2021-12-26T09:38:23.000Z</time>
      </trkpt>
      <trkpt lat="48.02984" lon="-1.56811">
        <ele>42.4038</ele>
        <time>2021-12-26T09:38:24.000Z</time>
      </trkpt>
      <trkpt lat="48.02984" lon="-1.56804">
        <ele>42.40447</ele>
        <time>2021-12-26T09:38:25.000Z</time>
      </trkpt>
      <trkpt lat="48.02984" lon="-1.56797">
        <ele>42.4148</ele>
        <time>2021-12-26T09:38:26.000Z</time>
      </trkpt>
      <trkpt lat="48.02985" lon="-1.5679">
        <ele>42.42701</ele>
        <time>2021-12-26T09:38:27.000Z</time>
      </trkpt>
      <trkpt lat="48.02987" lon="-1.56783">
        <ele>42.44864</ele>
        <time>2021-12-26T09:38:28.000Z</time>
      </trkpt>
      <trkpt lat="48.0299" lon="-1.56778">
        <ele>42.47945</ele>
        <time>2021-12-26T09:38:29.000Z</time>
      </trkpt>
      <trkpt lat="48.0299" lon="-1.56778">
        <ele>42.47945</ele>
        <time>2021-12-26T09:38:29.000Z</time>
      </trkpt>
      <trkpt lat="48.02995" lon="-1.56775">
        <ele>42.49318</ele>
        <time>2021-12-26T09:38:30.000Z</time>
      </trkpt>
      <trkpt lat="48.02999" lon="-1.56774">
        <ele>42.45503</ele>
        <time>2021-12-26T09:38:31.000Z</time>
      </trkpt>
      <trkpt lat="48.03004" lon="-1.56773">
        <ele>42.36216</ele>
        <time>2021-12-26T09:38:32.000Z</time>
      </trkpt>
      <trkpt lat="48.0301" lon="-1.56773">
        <ele>42.23367</ele>
        <time>2021-12-26T09:38:33.000Z</time>
      </trkpt>
      <trkpt lat="48.03015" lon="-1.56774">
        <ele>42.07535</ele>
        <time>2021-12-26T09:38:34.000Z</time>
      </trkpt>
      <trkpt lat="48.0302" lon="-1.56774">
        <ele>41.89982</ele>
        <time>2021-12-26T09:38:35.000Z</time>
      </trkpt>
      <trkpt lat="48.03026" lon="-1.56774">
        <ele>41.70771</ele>
        <time>2021-12-26T09:38:36.000Z</time>
      </trkpt>
      <trkpt lat="48.03031" lon="-1.56774">
        <ele>41.49879</ele>
        <time>2021-12-26T09:38:37.000Z</time>
      </trkpt>
      <trkpt lat="48.03036" lon="-1.56774">
        <ele>41.26876</ele>
        <time>2021-12-26T09:38:38.000Z</time>
      </trkpt>
      <trkpt lat="48.03042" lon="-1.56774">
        <ele>41.0402</ele>
        <time>2021-12-26T09:38:39.000Z</time>
      </trkpt>
      <trkpt lat="48.03048" lon="-1.56774">
        <ele>40.82513</ele>
        <time>2021-12-26T09:38:40.000Z</time>
      </trkpt>
      <trkpt lat="48.03054" lon="-1.56775">
        <ele>40.60838</ele>
        <time>2021-12-26T09:38:41.000Z</time>
      </trkpt>
      <trkpt lat="48.0306" lon="-1.56775">
        <ele>40.39457</ele>
        <time>2021-12-26T09:38:42.000Z</time>
      </trkpt>
      <trkpt lat="48.03066" lon="-1.56775">
        <ele>40.19554</ele>
        <time>2021-12-26T09:38:43.000Z</time>
      </trkpt>
      <trkpt lat="48.03072" lon="-1.56775">
        <ele>40.01957</ele>
        <time>2021-12-26T09:38:44.000Z</time>
      </trkpt>
      <trkpt lat="48.03079" lon="-1.56776">
        <ele>39.86179</ele>
        <time>2021-12-26T09:38:45.000Z</time>
      </trkpt>
      <trkpt lat="48.03085" lon="-1.56776">
        <ele>39.70169</ele>
        <time>2021-12-26T09:38:46.000Z</time>
      </trkpt>
      <trkpt lat="48.03091" lon="-1.56776">
        <ele>39.52247</ele>
        <time>2021-12-26T09:38:47.000Z</time>
      </trkpt>
      <trkpt lat="48.03097" lon="-1.56776">
        <ele>39.32218</ele>
        <time>2021-12-26T09:38:48.000Z</time>
      </trkpt>
      <trkpt lat="48.03103" lon="-1.56776">
        <ele>39.11633</ele>
        <time>2021-12-26T09:38:49.000Z</time>
      </trkpt>
      <trkpt lat="48.03109" lon="-1.56776">
        <ele>38.92688</ele>
        <time>2021-12-26T09:38:50.000Z</time>
      </trkpt>
      <trkpt lat="48.03115" lon="-1.56776">
        <ele>38.76586</ele>
        <time>2021-12-26T09:38:51.000Z</time>
      </trkpt>
      <trkpt lat="48.03121" lon="-1.56776">
        <ele>38.61835</ele>
        <time>2021-12-26T09:38:52.000Z</time>
      </trkpt>
      <trkpt lat="48.03127" lon="-1.56776">
        <ele>38.48227</ele>
        <time>2021-12-26T09:38:53.000Z</time>
      </trkpt>
      <trkpt lat="48.03132" lon="-1.56776">
        <ele>38.36175</ele>
        <time>2021-12-26T09:38:54.000Z</time>
      </trkpt>
      <trkpt lat="48.03138" lon="-1.56776">
        <ele>38.26571</ele>
        <time>2021-12-26T09:38:55.000Z</time>
      </trkpt>
      <trkpt lat="48.03144" lon="-1.56777">
        <ele>38.19412</ele>
        <time>2021-12-26T09:38:56.000Z</time>
      </trkpt>
      <trkpt lat="48.0315" lon="-1.56777">
        <ele>38.12163</ele>
        <time>2021-12-26T09:38:57.000Z</time>
      </trkpt>
      <trkpt lat="48.03156" lon="-1.56777">
        <ele>38.01816</ele>
        <time>2021-12-26T09:38:58.000Z</time>
      </trkpt>
      <trkpt lat="48.03162" lon="-1.56777">
        <ele>37.88103</ele>
        <time>2021-12-26T09:38:59.000Z</time>
      </trkpt>
      <trkpt lat="48.03168" lon="-1.56777">
        <ele>37.72693</ele>
        <time>2021-12-26T09:39:00.000Z</time>
      </trkpt>
      <trkpt lat="48.03174" lon="-1.56777">
        <ele>37.54897</ele>
        <time>2021-12-26T09:39:01.000Z</time>
      </trkpt>
      <trkpt lat="48.0318" lon="-1.56776">
        <ele>37.35047</ele>
        <time>2021-12-26T09:39:02.000Z</time>
      </trkpt>
      <trkpt lat="48.03186" lon="-1.56775">
        <ele>37.07041</ele>
        <time>2021-12-26T09:39:03.000Z</time>
      </trkpt>
      <trkpt lat="48.03193" lon="-1.56774">
        <ele>36.77179</ele>
        <time>2021-12-26T09:39:04.000Z</time>
      </trkpt>
      <trkpt lat="48.03199" lon="-1.56773">
        <ele>36.59411</ele>
        <time>2021-12-26T09:39:05.000Z</time>
      </trkpt>
      <trkpt lat="48.03206" lon="-1.56771">
        <ele>36.6794</ele>
        <time>2021-12-26T09:39:06.000Z</time>
      </trkpt>
      <trkpt lat="48.03212" lon="-1.5677">
        <ele>36.98033</ele>
        <time>2021-12-26T09:39:07.000Z</time>
      </trkpt>
      <trkpt lat="48.03217" lon="-1.56768">
        <ele>37.3658</ele>
        <time>2021-12-26T09:39:08.000Z</time>
      </trkpt>
      <trkpt lat="48.03223" lon="-1.56766">
        <ele>37.73469</ele>
        <time>2021-12-26T09:39:09.000Z</time>
      </trkpt>
      <trkpt lat="48.03227" lon="-1.56764">
        <ele>38.0191</ele>
        <time>2021-12-26T09:39:10.000Z</time>
      </trkpt>
      <trkpt lat="48.03232" lon="-1.56762">
        <ele>38.27431</ele>
        <time>2021-12-26T09:39:11.000Z</time>
      </trkpt>
      <trkpt lat="48.03236" lon="-1.5676">
        <ele>38.51353</ele>
        <time>2021-12-26T09:39:12.000Z</time>
      </trkpt>
      <trkpt lat="48.03241" lon="-1.56759">
        <ele>38.7374</ele>
        <time>2021-12-26T09:39:13.000Z</time>
      </trkpt>
      <trkpt lat="48.03245" lon="-1.56757">
        <ele>38.94814</ele>
        <time>2021-12-26T09:39:14.000Z</time>
      </trkpt>
      <trkpt lat="48.03249" lon="-1.56756">
        <ele>39.15383</ele>
        <time>2021-12-26T09:39:15.000Z</time>
      </trkpt>
      <trkpt lat="48.03254" lon="-1.56753">
        <ele>39.35811</ele>
        <time>2021-12-26T09:39:16.000Z</time>
      </trkpt>
      <trkpt lat="48.03258" lon="-1.56751">
        <ele>39.55298</ele>
        <time>2021-12-26T09:39:17.000Z</time>
      </trkpt>
      <trkpt lat="48.03262" lon="-1.56749">
        <ele>39.73426</ele>
        <time>2021-12-26T09:39:18.000Z</time>
      </trkpt>
      <trkpt lat="48.03266" lon="-1.56748">
        <ele>39.89209</ele>
        <time>2021-12-26T09:39:19.000Z</time>
      </trkpt>
      <trkpt lat="48.0327" lon="-1.56746">
        <ele>40.04063</ele>
        <time>2021-12-26T09:39:20.000Z</time>
      </trkpt>
      <trkpt lat="48.03273" lon="-1.56745">
        <ele>40.17045</ele>
        <time>2021-12-26T09:39:21.000Z</time>
      </trkpt>
      <trkpt lat="48.03277" lon="-1.56743">
        <ele>40.31886</ele>
        <time>2021-12-26T09:39:22.000Z</time>
      </trkpt>
      <trkpt lat="48.03281" lon="-1.56741">
        <ele>40.47616</ele>
        <time>2021-12-26T09:39:23.000Z</time>
      </trkpt>
      <trkpt lat="48.03285" lon="-1.56739">
        <ele>40.61926</ele>
        <time>2021-12-26T09:39:24.000Z</time>
      </trkpt>
      <trkpt lat="48.03288" lon="-1.56738">
        <ele>40.73051</ele>
        <time>2021-12-26T09:39:25.000Z</time>
      </trkpt>
      <trkpt lat="48.03292" lon="-1.56736">
        <ele>40.83722</ele>
        <time>2021-12-26T09:39:26.000Z</time>
      </trkpt>
      <trkpt lat="48.03292" lon="-1.56736">
        <ele>40.83722</ele>
        <time>2021-12-26T09:39:26.000Z</time>
      </trkpt>
      <trkpt lat="48.03295" lon="-1.56733">
        <ele>40.93095</ele>
        <time>2021-12-26T09:39:27.000Z</time>
      </trkpt>
      <trkpt lat="48.03299" lon="-1.5673">
        <ele>41.00611</ele>
        <time>2021-12-26T09:39:28.000Z</time>
      </trkpt>
      <trkpt lat="48.03302" lon="-1.56727">
        <ele>41.06051</ele>
        <time>2021-12-26T09:39:29.000Z</time>
      </trkpt>
      <trkpt lat="48.03306" lon="-1.56724">
        <ele>41.08791</ele>
        <time>2021-12-26T09:39:30.000Z</time>
      </trkpt>
      <trkpt lat="48.03309" lon="-1.56721">
        <ele>41.09304</ele>
        <time>2021-12-26T09:39:31.000Z</time>
      </trkpt>
      <trkpt lat="48.03313" lon="-1.56717">
        <ele>41.08485</ele>
        <time>2021-12-26T09:39:32.000Z</time>
      </trkpt>
      <trkpt lat="48.03317" lon="-1.56714">
        <ele>41.06278</ele>
        <time>2021-12-26T09:39:33.000Z</time>
      </trkpt>
      <trkpt lat="48.03321" lon="-1.56711">
        <ele>41.03914</ele>
        <time>2021-12-26T09:39:34.000Z</time>
      </trkpt>
      <trkpt lat="48.03324" lon="-1.56707">
        <ele>41.0059</ele>
        <time>2021-12-26T09:39:35.000Z</time>
      </trkpt>
      <trkpt lat="48.03328" lon="-1.56703">
        <ele>40.95598</ele>
        <time>2021-12-26T09:39:36.000Z</time>
      </trkpt>
      <trkpt lat="48.03332" lon="-1.567">
        <ele>40.89152</ele>
        <time>2021-12-26T09:39:37.000Z</time>
      </trkpt>
      <trkpt lat="48.03335" lon="-1.56696">
        <ele>40.84299</ele>
        <time>2021-12-26T09:39:38.000Z</time>
      </trkpt>
      <trkpt lat="48.03338" lon="-1.56691">
        <ele>40.81331</ele>
        <time>2021-12-26T09:39:39.000Z</time>
      </trkpt>
      <trkpt lat="48.03342" lon="-1.56687">
        <ele>40.78332</ele>
        <time>2021-12-26T09:39:40.000Z</time>
      </trkpt>
      <trkpt lat="48.03345" lon="-1.56683">
        <ele>40.76217</ele>
        <time>2021-12-26T09:39:41.000Z</time>
      </trkpt>
      <trkpt lat="48.03348" lon="-1.56678">
        <ele>40.76918</ele>
        <time>2021-12-26T09:39:42.000Z</time>
      </trkpt>
      <trkpt lat="48.03351" lon="-1.56673">
        <ele>40.7899</ele>
        <time>2021-12-26T09:39:43.000Z</time>
      </trkpt>
      <trkpt lat="48.03354" lon="-1.56669">
        <ele>40.79653</ele>
        <time>2021-12-26T09:39:44.000Z</time>
      </trkpt>
      <trkpt lat="48.03358" lon="-1.56664">
        <ele>40.76453</ele>
        <time>2021-12-26T09:39:45.000Z</time>
      </trkpt>
      <trkpt lat="48.03361" lon="-1.56659">
        <ele>40.66506</ele>
        <time>2021-12-26T09:39:46.000Z</time>
      </trkpt>
      <trkpt lat="48.03365" lon="-1.56654">
        <ele>40.50299</ele>
        <time>2021-12-26T09:39:47.000Z</time>
      </trkpt>
      <trkpt lat="48.03369" lon="-1.56649">
        <ele>40.30881</ele>
        <time>2021-12-26T09:39:48.000Z</time>
      </trkpt>
      <trkpt lat="48.03373" lon="-1.56645">
        <ele>40.12695</ele>
        <time>2021-12-26T09:39:49.000Z</time>
      </trkpt>
      <trkpt lat="48.03377" lon="-1.5664">
        <ele>39.98767</ele>
        <time>2021-12-26T09:39:50.000Z</time>
      </trkpt>
      <trkpt lat="48.03381" lon="-1.56636">
        <ele>39.89614</ele>
        <time>2021-12-26T09:39:51.000Z</time>
      </trkpt>
      <trkpt lat="48.03385" lon="-1.56632">
        <ele>39.83541</ele>
        <time>2021-12-26T09:39:52.000Z</time>
      </trkpt>
      <trkpt lat="48.03389" lon="-1.56628">
        <ele>39.80384</ele>
        <time>2021-12-26T09:39:53.000Z</time>
      </trkpt>
      <trkpt lat="48.03394" lon="-1.56624">
        <ele>39.71819</ele>
        <time>2021-12-26T09:39:54.000Z</time>
      </trkpt>
      <trkpt lat="48.03398" lon="-1.5662">
        <ele>39.61208</ele>
        <time>2021-12-26T09:39:55.000Z</time>
      </trkpt>
      <trkpt lat="48.03403" lon="-1.56617">
        <ele>39.50187</ele>
        <time>2021-12-26T09:39:56.000Z</time>
      </trkpt>
      <trkpt lat="48.03408" lon="-1.56613">
        <ele>39.39739</ele>
        <time>2021-12-26T09:39:57.000Z</time>
      </trkpt>
      <trkpt lat="48.03412" lon="-1.56609">
        <ele>39.30451</ele>
        <time>2021-12-26T09:39:58.000Z</time>
      </trkpt>
      <trkpt lat="48.03418" lon="-1.56607">
        <ele>39.20591</ele>
        <time>2021-12-26T09:39:59.000Z</time>
      </trkpt>
      <trkpt lat="48.03423" lon="-1.56604">
        <ele>39.13179</ele>
        <time>2021-12-26T09:40:00.000Z</time>
      </trkpt>
      <trkpt lat="48.03428" lon="-1.56601">
        <ele>39.07876</ele>
        <time>2021-12-26T09:40:01.000Z</time>
      </trkpt>
      <trkpt lat="48.03433" lon="-1.56599">
        <ele>39.00656</ele>
        <time>2021-12-26T09:40:02.000Z</time>
      </trkpt>
      <trkpt lat="48.03438" lon="-1.56598">
        <ele>38.93277</ele>
        <time>2021-12-26T09:40:03.000Z</time>
      </trkpt>
      <trkpt lat="48.03443" lon="-1.56596">
        <ele>38.85653</ele>
        <time>2021-12-26T09:40:04.000Z</time>
      </trkpt>
      <trkpt lat="48.03448" lon="-1.56594">
        <ele>38.78033</ele>
        <time>2021-12-26T09:40:05.000Z</time>
      </trkpt>
      <trkpt lat="48.03452" lon="-1.56589">
        <ele>38.76278</ele>
        <time>2021-12-26T09:40:06.000Z</time>
      </trkpt>
      <trkpt lat="48.03456" lon="-1.56585">
        <ele>38.73004</ele>
        <time>2021-12-26T09:40:07.000Z</time>
      </trkpt>
      <trkpt lat="48.03457" lon="-1.56579">
        <ele>38.81122</ele>
        <time>2021-12-26T09:40:08.000Z</time>
      </trkpt>
      <trkpt lat="48.03458" lon="-1.56572">
        <ele>38.9219</ele>
        <time>2021-12-26T09:40:09.000Z</time>
      </trkpt>
      <trkpt lat="48.03458" lon="-1.56566">
        <ele>39.04636</ele>
        <time>2021-12-26T09:40:10.000Z</time>
      </trkpt>
      <trkpt lat="48.03457" lon="-1.56559">
        <ele>39.18142</ele>
        <time>2021-12-26T09:40:11.000Z</time>
      </trkpt>
      <trkpt lat="48.03457" lon="-1.56552">
        <ele>39.31915</ele>
        <time>2021-12-26T09:40:12.000Z</time>
      </trkpt>
      <trkpt lat="48.03456" lon="-1.56546">
        <ele>39.4478</ele>
        <time>2021-12-26T09:40:13.000Z</time>
      </trkpt>
      <trkpt lat="48.03456" lon="-1.56539">
        <ele>39.57829</ele>
        <time>2021-12-26T09:40:14.000Z</time>
      </trkpt>
      <trkpt lat="48.03455" lon="-1.56533">
        <ele>39.72279</ele>
        <time>2021-12-26T09:40:15.000Z</time>
      </trkpt>
      <trkpt lat="48.03455" lon="-1.56526">
        <ele>39.86141</ele>
        <time>2021-12-26T09:40:16.000Z</time>
      </trkpt>
      <trkpt lat="48.03456" lon="-1.5652">
        <ele>39.98764</ele>
        <time>2021-12-26T09:40:17.000Z</time>
      </trkpt>
      <trkpt lat="48.03456" lon="-1.56513">
        <ele>40.09191</ele>
        <time>2021-12-26T09:40:18.000Z</time>
      </trkpt>
      <trkpt lat="48.03457" lon="-1.56507">
        <ele>40.15563</ele>
        <time>2021-12-26T09:40:19.000Z</time>
      </trkpt>
      <trkpt lat="48.03458" lon="-1.56501">
        <ele>40.16642</ele>
        <time>2021-12-26T09:40:20.000Z</time>
      </trkpt>
      <trkpt lat="48.0346" lon="-1.56495">
        <ele>40.14167</ele>
        <time>2021-12-26T09:40:21.000Z</time>
      </trkpt>
      <trkpt lat="48.03462" lon="-1.56489">
        <ele>40.09124</ele>
        <time>2021-12-26T09:40:22.000Z</time>
      </trkpt>
      <trkpt lat="48.03464" lon="-1.56483">
        <ele>40.04105</ele>
        <time>2021-12-26T09:40:23.000Z</time>
      </trkpt>
      <trkpt lat="48.03466" lon="-1.56477">
        <ele>39.99179</ele>
        <time>2021-12-26T09:40:24.000Z</time>
      </trkpt>
      <trkpt lat="48.03468" lon="-1.56472">
        <ele>39.95287</ele>
        <time>2021-12-26T09:40:25.000Z</time>
      </trkpt>
      <trkpt lat="48.0347" lon="-1.56466">
        <ele>39.90928</ele>
        <time>2021-12-26T09:40:26.000Z</time>
      </trkpt>
      <trkpt lat="48.03472" lon="-1.56461">
        <ele>39.8632</ele>
        <time>2021-12-26T09:40:27.000Z</time>
      </trkpt>
      <trkpt lat="48.03475" lon="-1.56456">
        <ele>39.793</ele>
        <time>2021-12-26T09:40:28.000Z</time>
      </trkpt>
      <trkpt lat="48.03477" lon="-1.56451">
        <ele>39.69565</ele>
        <time>2021-12-26T09:40:29.000Z</time>
      </trkpt>
      <trkpt lat="48.0348" lon="-1.56446">
        <ele>39.58289</ele>
        <time>2021-12-26T09:40:30.000Z</time>
      </trkpt>
      <trkpt lat="48.03482" lon="-1.56441">
        <ele>39.45367</ele>
        <time>2021-12-26T09:40:31.000Z</time>
      </trkpt>
      <trkpt lat="48.03485" lon="-1.56436">
        <ele>39.27883</ele>
        <time>2021-12-26T09:40:32.000Z</time>
      </trkpt>
      <trkpt lat="48.03487" lon="-1.5643">
        <ele>39.05954</ele>
        <time>2021-12-26T09:40:33.000Z</time>
      </trkpt>
      <trkpt lat="48.03489" lon="-1.56426">
        <ele>38.83372</ele>
        <time>2021-12-26T09:40:34.000Z</time>
      </trkpt>
      <trkpt lat="48.0349" lon="-1.56423">
        <ele>38.6679</ele>
        <time>2021-12-26T09:40:35.000Z</time>
      </trkpt>
      <trkpt lat="48.03492" lon="-1.56419">
        <ele>38.47593</ele>
        <time>2021-12-26T09:40:37.000Z</time>
      </trkpt>
      <trkpt lat="48.03493" lon="-1.56416">
        <ele>38.31822</ele>
        <time>2021-12-26T09:40:39.000Z</time>
      </trkpt>
      <trkpt lat="48.03494" lon="-1.56413">
        <ele>38.17299</ele>
        <time>2021-12-26T09:40:41.000Z</time>
      </trkpt>
      <trkpt lat="48.03497" lon="-1.56411">
        <ele>37.91027</ele>
        <time>2021-12-26T09:40:51.000Z</time>
      </trkpt>
      <trkpt lat="48.03499" lon="-1.56409">
        <ele>37.69184</ele>
        <time>2021-12-26T09:40:52.000Z</time>
      </trkpt>
      <trkpt lat="48.035" lon="-1.56408">
        <ele>37.51829</ele>
        <time>2021-12-26T09:40:53.000Z</time>
      </trkpt>
      <trkpt lat="48.03503" lon="-1.56406">
        <ele>37.26251</ele>
        <time>2021-12-26T09:40:55.000Z</time>
      </trkpt>
      <trkpt lat="48.03503" lon="-1.56406">
        <ele>37.26251</ele>
        <time>2021-12-26T09:40:55.000Z</time>
      </trkpt>
      <trkpt lat="48.03505" lon="-1.56404">
        <ele>37.04785</ele>
        <time>2021-12-26T09:40:57.000Z</time>
      </trkpt>
      <trkpt lat="48.03507" lon="-1.56402">
        <ele>36.87383</ele>
        <time>2021-12-26T09:40:59.000Z</time>
      </trkpt>
      <trkpt lat="48.03514" lon="-1.56402">
        <ele>36.34247</ele>
        <time>2021-12-26T09:41:13.000Z</time>
      </trkpt>
      <trkpt lat="48.03521" lon="-1.56403">
        <ele>35.84274</ele>
        <time>2021-12-26T09:41:23.000Z</time>
      </trkpt>
      <trkpt lat="48.03525" lon="-1.56408">
        <ele>35.56641</ele>
        <time>2021-12-26T09:41:27.000Z</time>
      </trkpt>
      <trkpt lat="48.0353" lon="-1.56412">
        <ele>35.31441</ele>
        <time>2021-12-26T09:41:32.000Z</time>
      </trkpt>
      <trkpt lat="48.03535" lon="-1.56417">
        <ele>35.06017</ele>
        <time>2021-12-26T09:41:36.000Z</time>
      </trkpt>
      <trkpt lat="48.03541" lon="-1.56423">
        <ele>34.68412</ele>
        <time>2021-12-26T09:41:41.000Z</time>
      </trkpt>
      <trkpt lat="48.03544" lon="-1.56426">
        <ele>34.52767</ele>
        <time>2021-12-26T09:41:42.000Z</time>
      </trkpt>
      <trkpt lat="48.03546" lon="-1.56429">
        <ele>34.40834</ele>
        <time>2021-12-26T09:41:43.000Z</time>
      </trkpt>
      <trkpt lat="48.03549" lon="-1.56431">
        <ele>34.28921</ele>
        <time>2021-12-26T09:41:44.000Z</time>
      </trkpt>
      <trkpt lat="48.03551" lon="-1.56434">
        <ele>34.23871</ele>
        <time>2021-12-26T09:41:45.000Z</time>
      </trkpt>
      <trkpt lat="48.03553" lon="-1.56436">
        <ele>34.18614</ele>
        <time>2021-12-26T09:41:46.000Z</time>
      </trkpt>
      <trkpt lat="48.03556" lon="-1.56439">
        <ele>34.10656</ele>
        <time>2021-12-26T09:41:47.000Z</time>
      </trkpt>
      <trkpt lat="48.03558" lon="-1.56442">
        <ele>33.9662</ele>
        <time>2021-12-26T09:41:48.000Z</time>
      </trkpt>
      <trkpt lat="48.03561" lon="-1.56447">
        <ele>33.73844</ele>
        <time>2021-12-26T09:41:49.000Z</time>
      </trkpt>
      <trkpt lat="48.03564" lon="-1.56449">
        <ele>33.46751</ele>
        <time>2021-12-26T09:41:50.000Z</time>
      </trkpt>
      <trkpt lat="48.03567" lon="-1.56451">
        <ele>33.26206</ele>
        <time>2021-12-26T09:41:51.000Z</time>
      </trkpt>
      <trkpt lat="48.03569" lon="-1.56452">
        <ele>33.08877</ele>
        <time>2021-12-26T09:41:52.000Z</time>
      </trkpt>
      <trkpt lat="48.03571" lon="-1.56453">
        <ele>32.91439</ele>
        <time>2021-12-26T09:41:53.000Z</time>
      </trkpt>
      <trkpt lat="48.03574" lon="-1.56456">
        <ele>32.73459</ele>
        <time>2021-12-26T09:41:54.000Z</time>
      </trkpt>
      <trkpt lat="48.03576" lon="-1.56459">
        <ele>32.61678</ele>
        <time>2021-12-26T09:41:55.000Z</time>
      </trkpt>
      <trkpt lat="48.0358" lon="-1.56461">
        <ele>32.48778</ele>
        <time>2021-12-26T09:41:56.000Z</time>
      </trkpt>
      <trkpt lat="48.03582" lon="-1.56463">
        <ele>32.40423</ele>
        <time>2021-12-26T09:41:57.000Z</time>
      </trkpt>
      <trkpt lat="48.03585" lon="-1.56465">
        <ele>32.26473</ele>
        <time>2021-12-26T09:41:58.000Z</time>
      </trkpt>
      <trkpt lat="48.03588" lon="-1.56466">
        <ele>32.14039</ele>
        <time>2021-12-26T09:41:59.000Z</time>
      </trkpt>
      <trkpt lat="48.0359" lon="-1.56468">
        <ele>31.97167</ele>
        <time>2021-12-26T09:42:00.000Z</time>
      </trkpt>
      <trkpt lat="48.03593" lon="-1.56471">
        <ele>31.75234</ele>
        <time>2021-12-26T09:42:01.000Z</time>
      </trkpt>
      <trkpt lat="48.03596" lon="-1.56473">
        <ele>31.51139</ele>
        <time>2021-12-26T09:42:02.000Z</time>
      </trkpt>
      <trkpt lat="48.036" lon="-1.56478">
        <ele>31.08284</ele>
        <time>2021-12-26T09:42:03.000Z</time>
      </trkpt>
      <trkpt lat="48.03603" lon="-1.56482">
        <ele>30.82142</ele>
        <time>2021-12-26T09:42:04.000Z</time>
      </trkpt>
      <trkpt lat="48.03606" lon="-1.56485">
        <ele>30.61616</ele>
        <time>2021-12-26T09:42:05.000Z</time>
      </trkpt>
      <trkpt lat="48.03609" lon="-1.56489">
        <ele>30.45792</ele>
        <time>2021-12-26T09:42:06.000Z</time>
      </trkpt>
      <trkpt lat="48.03612" lon="-1.56492">
        <ele>30.31495</ele>
        <time>2021-12-26T09:42:07.000Z</time>
      </trkpt>
      <trkpt lat="48.03615" lon="-1.56495">
        <ele>30.20196</ele>
        <time>2021-12-26T09:42:08.000Z</time>
      </trkpt>
      <trkpt lat="48.03618" lon="-1.56498">
        <ele>30.06056</ele>
        <time>2021-12-26T09:42:09.000Z</time>
      </trkpt>
      <trkpt lat="48.0362" lon="-1.56501">
        <ele>29.92179</ele>
        <time>2021-12-26T09:42:10.000Z</time>
      </trkpt>
      <trkpt lat="48.03622" lon="-1.56504">
        <ele>29.7713</ele>
        <time>2021-12-26T09:42:12.000Z</time>
      </trkpt>
      <trkpt lat="48.03625" lon="-1.56507">
        <ele>29.60842</ele>
        <time>2021-12-26T09:42:13.000Z</time>
      </trkpt>
      <trkpt lat="48.03627" lon="-1.56511">
        <ele>29.45907</ele>
        <time>2021-12-26T09:42:21.000Z</time>
      </trkpt>
      <trkpt lat="48.0363" lon="-1.56517">
        <ele>29.2259</ele>
        <time>2021-12-26T09:42:35.000Z</time>
      </trkpt>
      <trkpt lat="48.0363" lon="-1.56523">
        <ele>29.10078</ele>
        <time>2021-12-26T09:42:37.000Z</time>
      </trkpt>
      <trkpt lat="48.03631" lon="-1.56526">
        <ele>29.04815</ele>
        <time>2021-12-26T09:42:38.000Z</time>
      </trkpt>
      <trkpt lat="48.03632" lon="-1.56531">
        <ele>28.98373</ele>
        <time>2021-12-26T09:42:40.000Z</time>
      </trkpt>
      <trkpt lat="48.03635" lon="-1.56533">
        <ele>28.9578</ele>
        <time>2021-12-26T09:42:42.000Z</time>
      </trkpt>
      <trkpt lat="48.03638" lon="-1.56533">
        <ele>28.94671</ele>
        <time>2021-12-26T09:42:43.000Z</time>
      </trkpt>
      <trkpt lat="48.0364" lon="-1.56531">
        <ele>28.93808</ele>
        <time>2021-12-26T09:42:44.000Z</time>
      </trkpt>
      <trkpt lat="48.03643" lon="-1.5653">
        <ele>28.93753</ele>
        <time>2021-12-26T09:42:45.000Z</time>
      </trkpt>
      <trkpt lat="48.03646" lon="-1.56531">
        <ele>28.94258</ele>
        <time>2021-12-26T09:42:46.000Z</time>
      </trkpt>
      <trkpt lat="48.03649" lon="-1.56532">
        <ele>28.95552</ele>
        <time>2021-12-26T09:42:47.000Z</time>
      </trkpt>
      <trkpt lat="48.03652" lon="-1.56533">
        <ele>28.9707</ele>
        <time>2021-12-26T09:42:48.000Z</time>
      </trkpt>
      <trkpt lat="48.03655" lon="-1.56534">
        <ele>28.98556</ele>
        <time>2021-12-26T09:42:49.000Z</time>
      </trkpt>
      <trkpt lat="48.03659" lon="-1.56535">
        <ele>28.99679</ele>
        <time>2021-12-26T09:42:50.000Z</time>
      </trkpt>
      <trkpt lat="48.03662" lon="-1.56536">
        <ele>29.00254</ele>
        <time>2021-12-26T09:42:51.000Z</time>
      </trkpt>
      <trkpt lat="48.03665" lon="-1.56537">
        <ele>28.99699</ele>
        <time>2021-12-26T09:42:52.000Z</time>
      </trkpt>
      <trkpt lat="48.03669" lon="-1.56537">
        <ele>28.97702</ele>
        <time>2021-12-26T09:42:53.000Z</time>
      </trkpt>
      <trkpt lat="48.03672" lon="-1.56537">
        <ele>28.95365</ele>
        <time>2021-12-26T09:42:54.000Z</time>
      </trkpt>
      <trkpt lat="48.03675" lon="-1.56537">
        <ele>28.9221</ele>
        <time>2021-12-26T09:42:55.000Z</time>
      </trkpt>
      <trkpt lat="48.03678" lon="-1.56537">
        <ele>28.88204</ele>
        <time>2021-12-26T09:42:56.000Z</time>
      </trkpt>
      <trkpt lat="48.03681" lon="-1.56536">
        <ele>28.84761</ele>
        <time>2021-12-26T09:42:57.000Z</time>
      </trkpt>
      <trkpt lat="48.03684" lon="-1.56533">
        <ele>28.72407</ele>
        <time>2021-12-26T09:42:58.000Z</time>
      </trkpt>
      <trkpt lat="48.03687" lon="-1.56529">
        <ele>28.63167</ele>
        <time>2021-12-26T09:42:59.000Z</time>
      </trkpt>
      <trkpt lat="48.03689" lon="-1.56524">
        <ele>28.60037</ele>
        <time>2021-12-26T09:43:00.000Z</time>
      </trkpt>
      <trkpt lat="48.03692" lon="-1.5652">
        <ele>28.65679</ele>
        <time>2021-12-26T09:43:01.000Z</time>
      </trkpt>
      <trkpt lat="48.03695" lon="-1.56517">
        <ele>28.74532</ele>
        <time>2021-12-26T09:43:02.000Z</time>
      </trkpt>
      <trkpt lat="48.03699" lon="-1.56516">
        <ele>28.82712</ele>
        <time>2021-12-26T09:43:03.000Z</time>
      </trkpt>
      <trkpt lat="48.03701" lon="-1.56515">
        <ele>28.89579</ele>
        <time>2021-12-26T09:43:04.000Z</time>
      </trkpt>
      <trkpt lat="48.03704" lon="-1.56515">
        <ele>28.93843</ele>
        <time>2021-12-26T09:43:05.000Z</time>
      </trkpt>
      <trkpt lat="48.03708" lon="-1.56515">
        <ele>28.96971</ele>
        <time>2021-12-26T09:43:06.000Z</time>
      </trkpt>
      <trkpt lat="48.0371" lon="-1.56515">
        <ele>28.99733</ele>
        <time>2021-12-26T09:43:07.000Z</time>
      </trkpt>
      <trkpt lat="48.03714" lon="-1.56514">
        <ele>29.02561</ele>
        <time>2021-12-26T09:43:08.000Z</time>
      </trkpt>
      <trkpt lat="48.03717" lon="-1.56514">
        <ele>29.04851</ele>
        <time>2021-12-26T09:43:09.000Z</time>
      </trkpt>
      <trkpt lat="48.03721" lon="-1.56513">
        <ele>29.06762</ele>
        <time>2021-12-26T09:43:10.000Z</time>
      </trkpt>
      <trkpt lat="48.03724" lon="-1.56511">
        <ele>29.07791</ele>
        <time>2021-12-26T09:43:11.000Z</time>
      </trkpt>
      <trkpt lat="48.03728" lon="-1.5651">
        <ele>29.08897</ele>
        <time>2021-12-26T09:43:12.000Z</time>
      </trkpt>
      <trkpt lat="48.0373" lon="-1.56508">
        <ele>29.09179</ele>
        <time>2021-12-26T09:43:13.000Z</time>
      </trkpt>
      <trkpt lat="48.03734" lon="-1.56506">
        <ele>29.10535</ele>
        <time>2021-12-26T09:43:14.000Z</time>
      </trkpt>
      <trkpt lat="48.03737" lon="-1.56503">
        <ele>29.09722</ele>
        <time>2021-12-26T09:43:15.000Z</time>
      </trkpt>
      <trkpt lat="48.03739" lon="-1.56499">
        <ele>29.09092</ele>
        <time>2021-12-26T09:43:16.000Z</time>
      </trkpt>
      <trkpt lat="48.03742" lon="-1.56495">
        <ele>29.11433</ele>
        <time>2021-12-26T09:43:17.000Z</time>
      </trkpt>
      <trkpt lat="48.03744" lon="-1.56491">
        <ele>29.18075</ele>
        <time>2021-12-26T09:43:18.000Z</time>
      </trkpt>
      <trkpt lat="48.03746" lon="-1.56488">
        <ele>29.2662</ele>
        <time>2021-12-26T09:43:19.000Z</time>
      </trkpt>
      <trkpt lat="48.03748" lon="-1.56484">
        <ele>29.37606</ele>
        <time>2021-12-26T09:43:20.000Z</time>
      </trkpt>
      <trkpt lat="48.03751" lon="-1.56481">
        <ele>29.44965</ele>
        <time>2021-12-26T09:43:21.000Z</time>
      </trkpt>
      <trkpt lat="48.03754" lon="-1.5648">
        <ele>29.49081</ele>
        <time>2021-12-26T09:43:22.000Z</time>
      </trkpt>
      <trkpt lat="48.03757" lon="-1.5648">
        <ele>29.51942</ele>
        <time>2021-12-26T09:43:23.000Z</time>
      </trkpt>
      <trkpt lat="48.03761" lon="-1.56482">
        <ele>29.55245</ele>
        <time>2021-12-26T09:43:24.000Z</time>
      </trkpt>
      <trkpt lat="48.03764" lon="-1.56483">
        <ele>29.62711</ele>
        <time>2021-12-26T09:43:25.000Z</time>
      </trkpt>
      <trkpt lat="48.03767" lon="-1.56484">
        <ele>29.71729</ele>
        <time>2021-12-26T09:43:26.000Z</time>
      </trkpt>
      <trkpt lat="48.0377" lon="-1.56484">
        <ele>29.79378</ele>
        <time>2021-12-26T09:43:27.000Z</time>
      </trkpt>
      <trkpt lat="48.03772" lon="-1.56485">
        <ele>29.8857</ele>
        <time>2021-12-26T09:43:28.000Z</time>
      </trkpt>
      <trkpt lat="48.03775" lon="-1.56486">
        <ele>29.97934</ele>
        <time>2021-12-26T09:43:29.000Z</time>
      </trkpt>
      <trkpt lat="48.03777" lon="-1.56487">
        <ele>30.05639</ele>
        <time>2021-12-26T09:43:30.000Z</time>
      </trkpt>
      <trkpt lat="48.0378" lon="-1.56489">
        <ele>30.22586</ele>
        <time>2021-12-26T09:43:31.000Z</time>
      </trkpt>
      <trkpt lat="48.03781" lon="-1.56494">
        <ele>30.46895</ele>
        <time>2021-12-26T09:43:32.000Z</time>
      </trkpt>
      <trkpt lat="48.03784" lon="-1.56498">
        <ele>30.74518</ele>
        <time>2021-12-26T09:43:33.000Z</time>
      </trkpt>
      <trkpt lat="48.03786" lon="-1.565">
        <ele>30.9706</ele>
        <time>2021-12-26T09:43:34.000Z</time>
      </trkpt>
      <trkpt lat="48.03789" lon="-1.56502">
        <ele>31.20682</ele>
        <time>2021-12-26T09:43:35.000Z</time>
      </trkpt>
      <trkpt lat="48.03791" lon="-1.56501">
        <ele>31.31352</ele>
        <time>2021-12-26T09:43:36.000Z</time>
      </trkpt>
      <trkpt lat="48.03793" lon="-1.565">
        <ele>31.37592</ele>
        <time>2021-12-26T09:43:37.000Z</time>
      </trkpt>
      <trkpt lat="48.03795" lon="-1.565">
        <ele>31.47317</ele>
        <time>2021-12-26T09:43:38.000Z</time>
      </trkpt>
      <trkpt lat="48.03797" lon="-1.56499">
        <ele>31.57944</ele>
        <time>2021-12-26T09:43:39.000Z</time>
      </trkpt>
      <trkpt lat="48.03799" lon="-1.56498">
        <ele>31.6628</ele>
        <time>2021-12-26T09:43:40.000Z</time>
      </trkpt>
      <trkpt lat="48.038" lon="-1.56497">
        <ele>31.77189</ele>
        <time>2021-12-26T09:43:41.000Z</time>
      </trkpt>
      <trkpt lat="48.03802" lon="-1.56496">
        <ele>31.87505</ele>
        <time>2021-12-26T09:43:42.000Z</time>
      </trkpt>
      <trkpt lat="48.03806" lon="-1.56494">
        <ele>32.1577</ele>
        <time>2021-12-26T09:43:44.000Z</time>
      </trkpt>
      <trkpt lat="48.03808" lon="-1.56492">
        <ele>32.28512</ele>
        <time>2021-12-26T09:43:45.000Z</time>
      </trkpt>
      <trkpt lat="48.0381" lon="-1.5649">
        <ele>32.381</ele>
        <time>2021-12-26T09:43:46.000Z</time>
      </trkpt>
      <trkpt lat="48.03811" lon="-1.5649">
        <ele>32.56227</ele>
        <time>2021-12-26T09:43:47.000Z</time>
      </trkpt>
      <trkpt lat="48.03814" lon="-1.56489">
        <ele>32.8296</ele>
        <time>2021-12-26T09:43:50.000Z</time>
      </trkpt>
      <trkpt lat="48.03812" lon="-1.5649">
        <ele>32.64467</ele>
        <time>2021-12-26T09:44:04.000Z</time>
      </trkpt>
      <trkpt lat="48.0381" lon="-1.56491">
        <ele>32.48884</ele>
        <time>2021-12-26T09:44:05.000Z</time>
      </trkpt>
      <trkpt lat="48.03807" lon="-1.56493">
        <ele>32.23249</ele>
        <time>2021-12-26T09:44:06.000Z</time>
      </trkpt>
      <trkpt lat="48.03804" lon="-1.56495">
        <ele>32.03397</ele>
        <time>2021-12-26T09:44:07.000Z</time>
      </trkpt>
      <trkpt lat="48.03802" lon="-1.56497">
        <ele>31.84719</ele>
        <time>2021-12-26T09:44:08.000Z</time>
      </trkpt>
      <trkpt lat="48.03799" lon="-1.56498">
        <ele>31.6628</ele>
        <time>2021-12-26T09:44:09.000Z</time>
      </trkpt>
      <trkpt lat="48.03796" lon="-1.565">
        <ele>31.50527</ele>
        <time>2021-12-26T09:44:10.000Z</time>
      </trkpt>
      <trkpt lat="48.03793" lon="-1.56501">
        <ele>31.39896</ele>
        <time>2021-12-26T09:44:11.000Z</time>
      </trkpt>
      <trkpt lat="48.03791" lon="-1.56502">
        <ele>31.32787</ele>
        <time>2021-12-26T09:44:12.000Z</time>
      </trkpt>
      <trkpt lat="48.03789" lon="-1.56503">
        <ele>31.24948</ele>
        <time>2021-12-26T09:44:13.000Z</time>
      </trkpt>
      <trkpt lat="48.03786" lon="-1.56503">
        <ele>31.11561</ele>
        <time>2021-12-26T09:44:14.000Z</time>
      </trkpt>
      <trkpt lat="48.03784" lon="-1.56502">
        <ele>30.92197</ele>
        <time>2021-12-26T09:44:15.000Z</time>
      </trkpt>
      <trkpt lat="48.03781" lon="-1.56499">
        <ele>30.72425</ele>
        <time>2021-12-26T09:44:16.000Z</time>
      </trkpt>
      <trkpt lat="48.03779" lon="-1.56496">
        <ele>30.52282</ele>
        <time>2021-12-26T09:44:17.000Z</time>
      </trkpt>
      <trkpt lat="48.03779" lon="-1.56493">
        <ele>30.36299</ele>
        <time>2021-12-26T09:44:18.000Z</time>
      </trkpt>
      <trkpt lat="48.03778" lon="-1.5649">
        <ele>30.1973</ele>
        <time>2021-12-26T09:44:20.000Z</time>
      </trkpt>
      <trkpt lat="48.0378" lon="-1.56492">
        <ele>30.33565</ele>
        <time>2021-12-26T09:44:34.000Z</time>
      </trkpt>
      <trkpt lat="48.03782" lon="-1.56496">
        <ele>30.57539</ele>
        <time>2021-12-26T09:44:36.000Z</time>
      </trkpt>
      <trkpt lat="48.03783" lon="-1.56498">
        <ele>30.72298</ele>
        <time>2021-12-26T09:44:37.000Z</time>
      </trkpt>
      <trkpt lat="48.03785" lon="-1.565">
        <ele>30.93969</ele>
        <time>2021-12-26T09:44:38.000Z</time>
      </trkpt>
      <trkpt lat="48.03788" lon="-1.56502">
        <ele>31.19371</ele>
        <time>2021-12-26T09:44:40.000Z</time>
      </trkpt>
      <trkpt lat="48.03791" lon="-1.56502">
        <ele>31.33594</ele>
        <time>2021-12-26T09:44:42.000Z</time>
      </trkpt>
      <trkpt lat="48.03794" lon="-1.565">
        <ele>31.42759</ele>
        <time>2021-12-26T09:44:44.000Z</time>
      </trkpt>
      <trkpt lat="48.03797" lon="-1.56499">
        <ele>31.57944</ele>
        <time>2021-12-26T09:44:45.000Z</time>
      </trkpt>
      <trkpt lat="48.03799" lon="-1.56498">
        <ele>31.64007</ele>
        <time>2021-12-26T09:44:46.000Z</time>
      </trkpt>
      <trkpt lat="48.03801" lon="-1.56497">
        <ele>31.80808</ele>
        <time>2021-12-26T09:44:47.000Z</time>
      </trkpt>
      <trkpt lat="48.03803" lon="-1.56495">
        <ele>31.85688</ele>
        <time>2021-12-26T09:44:48.000Z</time>
      </trkpt>
      <trkpt lat="48.03805" lon="-1.56494">
        <ele>32.02069</ele>
        <time>2021-12-26T09:44:49.000Z</time>
      </trkpt>
      <trkpt lat="48.03808" lon="-1.56492">
        <ele>32.2103</ele>
        <time>2021-12-26T09:44:51.000Z</time>
      </trkpt>
      <trkpt lat="48.0381" lon="-1.5649">
        <ele>32.36223</ele>
        <time>2021-12-26T09:44:52.000Z</time>
      </trkpt>
      <trkpt lat="48.03811" lon="-1.56489">
        <ele>32.48674</ele>
        <time>2021-12-26T09:44:53.000Z</time>
      </trkpt>
      <trkpt lat="48.03813" lon="-1.56487">
        <ele>32.49877</ele>
        <time>2021-12-26T09:44:54.000Z</time>
      </trkpt>
      <trkpt lat="48.03815" lon="-1.56485">
        <ele>32.64547</ele>
        <time>2021-12-26T09:44:55.000Z</time>
      </trkpt>
      <trkpt lat="48.03816" lon="-1.56484">
        <ele>32.79581</ele>
        <time>2021-12-26T09:44:56.000Z</time>
      </trkpt>
      <trkpt lat="48.03819" lon="-1.56482">
        <ele>32.98835</ele>
        <time>2021-12-26T09:44:58.000Z</time>
      </trkpt>
      <trkpt lat="48.0382" lon="-1.5648">
        <ele>33.05117</ele>
        <time>2021-12-26T09:44:59.000Z</time>
      </trkpt>
      <trkpt lat="48.03822" lon="-1.56478">
        <ele>33.15749</ele>
        <time>2021-12-26T09:45:00.000Z</time>
      </trkpt>
      <trkpt lat="48.03823" lon="-1.56476">
        <ele>33.19567</ele>
        <time>2021-12-26T09:45:01.000Z</time>
      </trkpt>
      <trkpt lat="48.03825" lon="-1.56474">
        <ele>33.29645</ele>
        <time>2021-12-26T09:45:02.000Z</time>
      </trkpt>
      <trkpt lat="48.03826" lon="-1.56471">
        <ele>33.3657</ele>
        <time>2021-12-26T09:45:03.000Z</time>
      </trkpt>
      <trkpt lat="48.03827" lon="-1.56469">
        <ele>33.49994</ele>
        <time>2021-12-26T09:45:04.000Z</time>
      </trkpt>
      <trkpt lat="48.03828" lon="-1.56467">
        <ele>33.63811</ele>
        <time>2021-12-26T09:45:05.000Z</time>
      </trkpt>
      <trkpt lat="48.0383" lon="-1.56464">
        <ele>33.90004</ele>
        <time>2021-12-26T09:45:07.000Z</time>
      </trkpt>
      <trkpt lat="48.03832" lon="-1.56462">
        <ele>34.09503</ele>
        <time>2021-12-26T09:45:08.000Z</time>
      </trkpt>
      <trkpt lat="48.03833" lon="-1.5646">
        <ele>34.33975</ele>
        <time>2021-12-26T09:45:09.000Z</time>
      </trkpt>
      <trkpt lat="48.03836" lon="-1.56458">
        <ele>34.83825</ele>
        <time>2021-12-26T09:45:11.000Z</time>
      </trkpt>
      <trkpt lat="48.03838" lon="-1.56456">
        <ele>35.24844</ele>
        <time>2021-12-26T09:45:13.000Z</time>
      </trkpt>
      <trkpt lat="48.0384" lon="-1.56453">
        <ele>35.33791</ele>
        <time>2021-12-26T09:45:45.000Z</time>
      </trkpt>
      <trkpt lat="48.03842" lon="-1.56455">
        <ele>35.81547</ele>
        <time>2021-12-26T09:45:51.000Z</time>
      </trkpt>
      <trkpt lat="48.03843" lon="-1.56457">
        <ele>36.1693</ele>
        <time>2021-12-26T09:45:52.000Z</time>
      </trkpt>
      <trkpt lat="48.03843" lon="-1.56457">
        <ele>36.1693</ele>
        <time>2021-12-26T09:45:52.000Z</time>
      </trkpt>
      <trkpt lat="48.03844" lon="-1.56459">
        <ele>36.49159</ele>
        <time>2021-12-26T09:45:53.000Z</time>
      </trkpt>
      <trkpt lat="48.03846" lon="-1.56462">
        <ele>36.84702</ele>
        <time>2021-12-26T09:45:54.000Z</time>
      </trkpt>
      <trkpt lat="48.03847" lon="-1.56465">
        <ele>37.08946</ele>
        <time>2021-12-26T09:45:55.000Z</time>
      </trkpt>
      <trkpt lat="48.03848" lon="-1.56467">
        <ele>37.39605</ele>
        <time>2021-12-26T09:45:56.000Z</time>
      </trkpt>
      <trkpt lat="48.03849" lon="-1.5647">
        <ele>37.67408</ele>
        <time>2021-12-26T09:45:57.000Z</time>
      </trkpt>
      <trkpt lat="48.03851" lon="-1.56472">
        <ele>37.95063</ele>
        <time>2021-12-26T09:45:58.000Z</time>
      </trkpt>
      <trkpt lat="48.03852" lon="-1.56475">
        <ele>38.23296</ele>
        <time>2021-12-26T09:45:59.000Z</time>
      </trkpt>
      <trkpt lat="48.03853" lon="-1.56477">
        <ele>38.49993</ele>
        <time>2021-12-26T09:46:00.000Z</time>
      </trkpt>
      <trkpt lat="48.03855" lon="-1.5648">
        <ele>38.73749</ele>
        <time>2021-12-26T09:46:01.000Z</time>
      </trkpt>
      <trkpt lat="48.03856" lon="-1.56483">
        <ele>38.95612</ele>
        <time>2021-12-26T09:46:02.000Z</time>
      </trkpt>
      <trkpt lat="48.03857" lon="-1.56485">
        <ele>39.15257</ele>
        <time>2021-12-26T09:46:03.000Z</time>
      </trkpt>
      <trkpt lat="48.03859" lon="-1.56487">
        <ele>39.35729</ele>
        <time>2021-12-26T09:46:04.000Z</time>
      </trkpt>
      <trkpt lat="48.0386" lon="-1.5649">
        <ele>39.54431</ele>
        <time>2021-12-26T09:46:05.000Z</time>
      </trkpt>
      <trkpt lat="48.03862" lon="-1.56492">
        <ele>39.72486</ele>
        <time>2021-12-26T09:46:06.000Z</time>
      </trkpt>
      <trkpt lat="48.03863" lon="-1.56495">
        <ele>39.87658</ele>
        <time>2021-12-26T09:46:07.000Z</time>
      </trkpt>
      <trkpt lat="48.03865" lon="-1.56497">
        <ele>40.03682</ele>
        <time>2021-12-26T09:46:08.000Z</time>
      </trkpt>
      <trkpt lat="48.03866" lon="-1.565">
        <ele>40.15836</ele>
        <time>2021-12-26T09:46:09.000Z</time>
      </trkpt>
      <trkpt lat="48.03868" lon="-1.56502">
        <ele>40.29419</ele>
        <time>2021-12-26T09:46:10.000Z</time>
      </trkpt>
      <trkpt lat="48.0387" lon="-1.56504">
        <ele>40.42713</ele>
        <time>2021-12-26T09:46:11.000Z</time>
      </trkpt>
      <trkpt lat="48.03871" lon="-1.56507">
        <ele>40.54038</ele>
        <time>2021-12-26T09:46:12.000Z</time>
      </trkpt>
      <trkpt lat="48.03872" lon="-1.56509">
        <ele>40.64704</ele>
        <time>2021-12-26T09:46:13.000Z</time>
      </trkpt>
      <trkpt lat="48.03874" lon="-1.56512">
        <ele>40.76811</ele>
        <time>2021-12-26T09:46:14.000Z</time>
      </trkpt>
      <trkpt lat="48.03875" lon="-1.56514">
        <ele>40.88907</ele>
        <time>2021-12-26T09:46:15.000Z</time>
      </trkpt>
      <trkpt lat="48.03877" lon="-1.56516">
        <ele>41.02202</ele>
        <time>2021-12-26T09:46:16.000Z</time>
      </trkpt>
      <trkpt lat="48.03878" lon="-1.56519">
        <ele>41.14533</ele>
        <time>2021-12-26T09:46:17.000Z</time>
      </trkpt>
      <trkpt lat="48.0388" lon="-1.56521">
        <ele>41.27934</ele>
        <time>2021-12-26T09:46:18.000Z</time>
      </trkpt>
      <trkpt lat="48.03881" lon="-1.56524">
        <ele>41.42423</ele>
        <time>2021-12-26T09:46:19.000Z</time>
      </trkpt>
      <trkpt lat="48.03883" lon="-1.56527">
        <ele>41.56054</ele>
        <time>2021-12-26T09:46:19.999Z</time>
      </trkpt>
      <trkpt lat="48.03884" lon="-1.56529">
        <ele>41.69876</ele>
        <time>2021-12-26T09:46:20.999Z</time>
      </trkpt>
      <trkpt lat="48.03885" lon="-1.56532">
        <ele>41.80956</ele>
        <time>2021-12-26T09:46:21.999Z</time>
      </trkpt>
      <trkpt lat="48.03887" lon="-1.56534">
        <ele>41.96162</ele>
        <time>2021-12-26T09:46:22.999Z</time>
      </trkpt>
      <trkpt lat="48.03888" lon="-1.56537">
        <ele>42.09641</ele>
        <time>2021-12-26T09:46:23.999Z</time>
      </trkpt>
      <trkpt lat="48.0389" lon="-1.5654">
        <ele>42.24427</ele>
        <time>2021-12-26T09:46:24.999Z</time>
      </trkpt>
      <trkpt lat="48.03891" lon="-1.56542">
        <ele>42.39454</ele>
        <time>2021-12-26T09:46:25.999Z</time>
      </trkpt>
      <trkpt lat="48.03893" lon="-1.56545">
        <ele>42.52307</ele>
        <time>2021-12-26T09:46:26.999Z</time>
      </trkpt>
      <trkpt lat="48.03894" lon="-1.56547">
        <ele>42.68115</ele>
        <time>2021-12-26T09:46:27.999Z</time>
      </trkpt>
      <trkpt lat="48.03896" lon="-1.5655">
        <ele>42.8265</ele>
        <time>2021-12-26T09:46:28.999Z</time>
      </trkpt>
      <trkpt lat="48.03897" lon="-1.56552">
        <ele>42.93123</ele>
        <time>2021-12-26T09:46:29.999Z</time>
      </trkpt>
      <trkpt lat="48.03898" lon="-1.56555">
        <ele>43.04851</ele>
        <time>2021-12-26T09:46:30.999Z</time>
      </trkpt>
      <trkpt lat="48.039" lon="-1.56557">
        <ele>43.18164</ele>
        <time>2021-12-26T09:46:31.999Z</time>
      </trkpt>
      <trkpt lat="48.03901" lon="-1.56559">
        <ele>43.29092</ele>
        <time>2021-12-26T09:46:32.999Z</time>
      </trkpt>
      <trkpt lat="48.03902" lon="-1.56561">
        <ele>43.40094</ele>
        <time>2021-12-26T09:46:33.999Z</time>
      </trkpt>
      <trkpt lat="48.03904" lon="-1.56564">
        <ele>43.4996</ele>
        <time>2021-12-26T09:46:34.999Z</time>
      </trkpt>
      <trkpt lat="48.03905" lon="-1.56566">
        <ele>43.59814</ele>
        <time>2021-12-26T09:46:35.999Z</time>
      </trkpt>
      <trkpt lat="48.03907" lon="-1.56568">
        <ele>43.71807</ele>
        <time>2021-12-26T09:46:36.999Z</time>
      </trkpt>
      <trkpt lat="48.03908" lon="-1.5657">
        <ele>43.79482</ele>
        <time>2021-12-26T09:46:37.999Z</time>
      </trkpt>
      <trkpt lat="48.03909" lon="-1.56573">
        <ele>43.85543</ele>
        <time>2021-12-26T09:46:38.999Z</time>
      </trkpt>
      <trkpt lat="48.03911" lon="-1.56575">
        <ele>43.91802</ele>
        <time>2021-12-26T09:46:39.999Z</time>
      </trkpt>
      <trkpt lat="48.03912" lon="-1.56578">
        <ele>43.96215</ele>
        <time>2021-12-26T09:46:40.999Z</time>
      </trkpt>
      <trkpt lat="48.03913" lon="-1.5658">
        <ele>44.02556</ele>
        <time>2021-12-26T09:46:41.999Z</time>
      </trkpt>
      <trkpt lat="48.03914" lon="-1.56582">
        <ele>44.10959</ele>
        <time>2021-12-26T09:46:42.999Z</time>
      </trkpt>
      <trkpt lat="48.03915" lon="-1.56584">
        <ele>44.17237</ele>
        <time>2021-12-26T09:46:43.999Z</time>
      </trkpt>
      <trkpt lat="48.03917" lon="-1.56587">
        <ele>44.22586</ele>
        <time>2021-12-26T09:46:44.999Z</time>
      </trkpt>
      <trkpt lat="48.03918" lon="-1.5659">
        <ele>44.28858</ele>
        <time>2021-12-26T09:46:45.999Z</time>
      </trkpt>
      <trkpt lat="48.0392" lon="-1.56592">
        <ele>44.35844</ele>
        <time>2021-12-26T09:46:46.999Z</time>
      </trkpt>
      <trkpt lat="48.03921" lon="-1.56595">
        <ele>44.41454</ele>
        <time>2021-12-26T09:46:47.999Z</time>
      </trkpt>
      <trkpt lat="48.03923" lon="-1.56598">
        <ele>44.48578</ele>
        <time>2021-12-26T09:46:48.999Z</time>
      </trkpt>
      <trkpt lat="48.03924" lon="-1.56601">
        <ele>44.55241</ele>
        <time>2021-12-26T09:46:49.999Z</time>
      </trkpt>
      <trkpt lat="48.03926" lon="-1.56603">
        <ele>44.61436</ele>
        <time>2021-12-26T09:46:50.999Z</time>
      </trkpt>
      <trkpt lat="48.03927" lon="-1.56606">
        <ele>44.67128</ele>
        <time>2021-12-26T09:46:51.999Z</time>
      </trkpt>
      <trkpt lat="48.03929" lon="-1.56609">
        <ele>44.75823</ele>
        <time>2021-12-26T09:46:52.999Z</time>
      </trkpt>
      <trkpt lat="48.0393" lon="-1.56611">
        <ele>44.80916</ele>
        <time>2021-12-26T09:46:53.999Z</time>
      </trkpt>
      <trkpt lat="48.03932" lon="-1.56614">
        <ele>44.8857</ele>
        <time>2021-12-26T09:46:54.999Z</time>
      </trkpt>
      <trkpt lat="48.03933" lon="-1.56616">
        <ele>44.94477</ele>
        <time>2021-12-26T09:46:55.999Z</time>
      </trkpt>
      <trkpt lat="48.03935" lon="-1.56619">
        <ele>45.00845</ele>
        <time>2021-12-26T09:46:56.999Z</time>
      </trkpt>
      <trkpt lat="48.03936" lon="-1.56621">
        <ele>45.0627</ele>
        <time>2021-12-26T09:46:57.999Z</time>
      </trkpt>
      <trkpt lat="48.03938" lon="-1.56624">
        <ele>45.10147</ele>
        <time>2021-12-26T09:46:58.999Z</time>
      </trkpt>
      <trkpt lat="48.03939" lon="-1.56627">
        <ele>45.12853</ele>
        <time>2021-12-26T09:46:59.999Z</time>
      </trkpt>
      <trkpt lat="48.0394" lon="-1.5663">
        <ele>45.14013</ele>
        <time>2021-12-26T09:47:00.999Z</time>
      </trkpt>
      <trkpt lat="48.03941" lon="-1.56633">
        <ele>45.16099</ele>
        <time>2021-12-26T09:47:01.999Z</time>
      </trkpt>
      <trkpt lat="48.03943" lon="-1.56636">
        <ele>45.17569</ele>
        <time>2021-12-26T09:47:02.999Z</time>
      </trkpt>
      <trkpt lat="48.03944" lon="-1.56639">
        <ele>45.18194</ele>
        <time>2021-12-26T09:47:03.999Z</time>
      </trkpt>
      <trkpt lat="48.03946" lon="-1.56643">
        <ele>45.20556</ele>
        <time>2021-12-26T09:47:04.999Z</time>
      </trkpt>
      <trkpt lat="48.03947" lon="-1.56646">
        <ele>45.22734</ele>
        <time>2021-12-26T09:47:05.999Z</time>
      </trkpt>
      <trkpt lat="48.03948" lon="-1.56649">
        <ele>45.25888</ele>
        <time>2021-12-26T09:47:06.999Z</time>
      </trkpt>
      <trkpt lat="48.0395" lon="-1.56653">
        <ele>45.28881</ele>
        <time>2021-12-26T09:47:07.999Z</time>
      </trkpt>
      <trkpt lat="48.03951" lon="-1.56656">
        <ele>45.38232</ele>
        <time>2021-12-26T09:47:08.999Z</time>
      </trkpt>
      <trkpt lat="48.03953" lon="-1.56659">
        <ele>45.48187</ele>
        <time>2021-12-26T09:47:09.999Z</time>
      </trkpt>
      <trkpt lat="48.03955" lon="-1.56662">
        <ele>45.62489</ele>
        <time>2021-12-26T09:47:10.999Z</time>
      </trkpt>
      <trkpt lat="48.03958" lon="-1.56664">
        <ele>45.84001</ele>
        <time>2021-12-26T09:47:11.999Z</time>
      </trkpt>
      <trkpt lat="48.03961" lon="-1.56665">
        <ele>46.07072</ele>
        <time>2021-12-26T09:47:12.999Z</time>
      </trkpt>
      <trkpt lat="48.03963" lon="-1.56665">
        <ele>46.28664</ele>
        <time>2021-12-26T09:47:13.999Z</time>
      </trkpt>
      <trkpt lat="48.03965" lon="-1.56665">
        <ele>46.51407</ele>
        <time>2021-12-26T09:47:14.999Z</time>
      </trkpt>
      <trkpt lat="48.03968" lon="-1.56664">
        <ele>46.74245</ele>
        <time>2021-12-26T09:47:15.999Z</time>
      </trkpt>
      <trkpt lat="48.0397" lon="-1.56663">
        <ele>46.91156</ele>
        <time>2021-12-26T09:47:16.999Z</time>
      </trkpt>
      <trkpt lat="48.03972" lon="-1.56663">
        <ele>47.10231</ele>
        <time>2021-12-26T09:47:17.999Z</time>
      </trkpt>
      <trkpt lat="48.03975" lon="-1.56664">
        <ele>47.3142</ele>
        <time>2021-12-26T09:47:18.999Z</time>
      </trkpt>
      <trkpt lat="48.03978" lon="-1.56665">
        <ele>47.50113</ele>
        <time>2021-12-26T09:47:19.999Z</time>
      </trkpt>
      <trkpt lat="48.0398" lon="-1.56666">
        <ele>47.61159</ele>
        <time>2021-12-26T09:47:20.999Z</time>
      </trkpt>
      <trkpt lat="48.03982" lon="-1.56666">
        <ele>47.71526</ele>
        <time>2021-12-26T09:47:21.999Z</time>
      </trkpt>
      <trkpt lat="48.03984" lon="-1.56668">
        <ele>47.80786</ele>
        <time>2021-12-26T09:47:22.999Z</time>
      </trkpt>
      <trkpt lat="48.03986" lon="-1.5667">
        <ele>47.86335</ele>
        <time>2021-12-26T09:47:23.999Z</time>
      </trkpt>
      <trkpt lat="48.03989" lon="-1.56672">
        <ele>47.92128</ele>
        <time>2021-12-26T09:47:24.999Z</time>
      </trkpt>
      <trkpt lat="48.03991" lon="-1.56674">
        <ele>47.95128</ele>
        <time>2021-12-26T09:47:25.999Z</time>
      </trkpt>
      <trkpt lat="48.03993" lon="-1.56676">
        <ele>48.00092</ele>
        <time>2021-12-26T09:47:26.999Z</time>
      </trkpt>
      <trkpt lat="48.03996" lon="-1.56677">
        <ele>48.04893</ele>
        <time>2021-12-26T09:47:27.999Z</time>
      </trkpt>
      <trkpt lat="48.03998" lon="-1.56678">
        <ele>48.12625</ele>
        <time>2021-12-26T09:47:28.999Z</time>
      </trkpt>
      <trkpt lat="48.04" lon="-1.5668">
        <ele>48.20641</ele>
        <time>2021-12-26T09:47:29.999Z</time>
      </trkpt>
      <trkpt lat="48.04003" lon="-1.56681">
        <ele>48.27215</ele>
        <time>2021-12-26T09:47:30.999Z</time>
      </trkpt>
      <trkpt lat="48.04004" lon="-1.56682">
        <ele>48.32089</ele>
        <time>2021-12-26T09:47:31.999Z</time>
      </trkpt>
      <trkpt lat="48.04007" lon="-1.56683">
        <ele>48.41052</ele>
        <time>2021-12-26T09:47:33.999Z</time>
      </trkpt>
      <trkpt lat="48.04009" lon="-1.56683">
        <ele>48.50408</ele>
        <time>2021-12-26T09:47:35.999Z</time>
      </trkpt>
      <trkpt lat="48.04012" lon="-1.56684">
        <ele>48.65732</ele>
        <time>2021-12-26T09:47:37.999Z</time>
      </trkpt>
      <trkpt lat="48.04016" lon="-1.56683">
        <ele>48.80993</ele>
        <time>2021-12-26T09:47:39.999Z</time>
      </trkpt>
      <trkpt lat="48.04019" lon="-1.56683">
        <ele>48.96901</ele>
        <time>2021-12-26T09:47:41.999Z</time>
      </trkpt>
      <trkpt lat="48.04021" lon="-1.56683">
        <ele>49.06475</ele>
        <time>2021-12-26T09:47:42.999Z</time>
      </trkpt>
      <trkpt lat="48.04024" lon="-1.56683">
        <ele>49.17429</ele>
        <time>2021-12-26T09:47:44.999Z</time>
      </trkpt>
      <trkpt lat="48.04026" lon="-1.56683">
        <ele>49.26086</ele>
        <time>2021-12-26T09:47:45.999Z</time>
      </trkpt>
      <trkpt lat="48.04028" lon="-1.56683">
        <ele>49.33971</ele>
        <time>2021-12-26T09:47:46.999Z</time>
      </trkpt>
      <trkpt lat="48.0403" lon="-1.56683">
        <ele>49.42176</ele>
        <time>2021-12-26T09:47:47.999Z</time>
      </trkpt>
      <trkpt lat="48.04032" lon="-1.56682">
        <ele>49.49738</ele>
        <time>2021-12-26T09:47:48.999Z</time>
      </trkpt>
      <trkpt lat="48.04034" lon="-1.56682">
        <ele>49.56964</ele>
        <time>2021-12-26T09:47:49.999Z</time>
      </trkpt>
      <trkpt lat="48.04036" lon="-1.56681">
        <ele>49.63739</ele>
        <time>2021-12-26T09:47:50.999Z</time>
      </trkpt>
      <trkpt lat="48.04039" lon="-1.56681">
        <ele>49.69236</ele>
        <time>2021-12-26T09:47:51.999Z</time>
      </trkpt>
      <trkpt lat="48.04041" lon="-1.56681">
        <ele>49.73434</ele>
        <time>2021-12-26T09:47:52.999Z</time>
      </trkpt>
      <trkpt lat="48.04043" lon="-1.56681">
        <ele>49.75943</ele>
        <time>2021-12-26T09:47:53.999Z</time>
      </trkpt>
      <trkpt lat="48.04043" lon="-1.56681">
        <ele>49.75943</ele>
      </trkpt>
      <trkpt lat="48.04046" lon="-1.56681">
        <ele>49.77876</ele>
      </trkpt>
      <trkpt lat="48.04048" lon="-1.5668">
        <ele>49.79297</ele>
      </trkpt>
      <trkpt lat="48.04051" lon="-1.5668">
        <ele>49.79679</ele>
      </trkpt>
      <trkpt lat="48.04055" lon="-1.5668">
        <ele>49.79119</ele>
      </trkpt>
      <trkpt lat="48.04058" lon="-1.5668">
        <ele>49.77868</ele>
      </trkpt>
      <trkpt lat="48.04061" lon="-1.5668">
        <ele>49.76229</ele>
      </trkpt>
      <trkpt lat="48.04064" lon="-1.5668">
        <ele>49.73946</ele>
      </trkpt>
      <trkpt lat="48.04068" lon="-1.5668">
        <ele>49.70252</ele>
      </trkpt>
      <trkpt lat="48.04071" lon="-1.5668">
        <ele>49.66385</ele>
      </trkpt>
      <trkpt lat="48.04073" lon="-1.56679">
        <ele>49.63175</ele>
      </trkpt>
      <trkpt lat="48.04075" lon="-1.56678">
        <ele>49.60794</ele>
      </trkpt>
      <trkpt lat="48.04076" lon="-1.56678">
        <ele>49.57939</ele>
      </trkpt>
      <trkpt lat="48.04078" lon="-1.56677">
        <ele>49.55351</ele>
      </trkpt>
      <trkpt lat="48.0408" lon="-1.56677">
        <ele>49.52426</ele>
      </trkpt>
      <trkpt lat="48.04081" lon="-1.5667">
        <ele>49.52321</ele>
      </trkpt>
      <trkpt lat="48.04081" lon="-1.56666">
        <ele>49.53956</ele>
      </trkpt>
      <trkpt lat="48.0408" lon="-1.56662">
        <ele>49.56219</ele>
      </trkpt>
      <trkpt lat="48.0408" lon="-1.56658">
        <ele>49.58207</ele>
      </trkpt>
      <trkpt lat="48.0408" lon="-1.56654">
        <ele>49.61822</ele>
      </trkpt>
      <trkpt lat="48.04079" lon="-1.56649">
        <ele>49.66639</ele>
      </trkpt>
      <trkpt lat="48.04079" lon="-1.56644">
        <ele>49.69884</ele>
      </trkpt>
      <trkpt lat="48.04079" lon="-1.56638">
        <ele>49.7365</ele>
      </trkpt>
      <trkpt lat="48.04079" lon="-1.56633">
        <ele>49.75538</ele>
      </trkpt>
      <trkpt lat="48.04079" lon="-1.56627">
        <ele>49.75294</ele>
      </trkpt>
      <trkpt lat="48.04078" lon="-1.56621">
        <ele>49.73235</ele>
      </trkpt>
      <trkpt lat="48.04078" lon="-1.56615">
        <ele>49.69258</ele>
      </trkpt>
      <trkpt lat="48.04077" lon="-1.56609">
        <ele>49.63708</ele>
      </trkpt>
      <trkpt lat="48.04077" lon="-1.56602">
        <ele>49.58542</ele>
      </trkpt>
      <trkpt lat="48.04076" lon="-1.56595">
        <ele>49.53388</ele>
      </trkpt>
      <trkpt lat="48.04075" lon="-1.56589">
        <ele>49.48459</ele>
      </trkpt>
      <trkpt lat="48.04075" lon="-1.56582">
        <ele>49.43303</ele>
      </trkpt>
      <trkpt lat="48.04074" lon="-1.56575">
        <ele>49.37119</ele>
      </trkpt>
      <trkpt lat="48.04073" lon="-1.56568">
        <ele>49.29087</ele>
      </trkpt>
      <trkpt lat="48.04072" lon="-1.56561">
        <ele>49.17601</ele>
      </trkpt>
      <trkpt lat="48.04071" lon="-1.56553">
        <ele>49.02821</ele>
      </trkpt>
      <trkpt lat="48.0407" lon="-1.56546">
        <ele>48.84141</ele>
      </trkpt>
      <trkpt lat="48.0407" lon="-1.56538">
        <ele>48.64293</ele>
      </trkpt>
      <trkpt lat="48.04069" lon="-1.5653">
        <ele>48.45124</ele>
      </trkpt>
      <trkpt lat="48.04068" lon="-1.56522">
        <ele>48.25709</ele>
      </trkpt>
      <trkpt lat="48.04067" lon="-1.56514">
        <ele>48.08743</ele>
      </trkpt>
      <trkpt lat="48.04066" lon="-1.56505">
        <ele>47.91927</ele>
      </trkpt>
      <trkpt lat="48.04065" lon="-1.56497">
        <ele>47.74777</ele>
      </trkpt>
      <trkpt lat="48.04064" lon="-1.56488">
        <ele>47.55094</ele>
      </trkpt>
      <trkpt lat="48.04062" lon="-1.5648">
        <ele>47.34229</ele>
      </trkpt>
      <trkpt lat="48.04061" lon="-1.56471">
        <ele>47.10864</ele>
      </trkpt>
      <trkpt lat="48.0406" lon="-1.56462">
        <ele>46.83956</ele>
      </trkpt>
      <trkpt lat="48.04059" lon="-1.56452">
        <ele>46.55111</ele>
      </trkpt>
      <trkpt lat="48.04058" lon="-1.56443">
        <ele>46.24278</ele>
      </trkpt>
      <trkpt lat="48.04057" lon="-1.56434">
        <ele>45.92021</ele>
      </trkpt>
      <trkpt lat="48.04056" lon="-1.56425">
        <ele>45.55061</ele>
      </trkpt>
      <trkpt lat="48.04055" lon="-1.56415">
        <ele>45.11896</ele>
      </trkpt>
      <trkpt lat="48.04054" lon="-1.56406">
        <ele>44.64577</ele>
      </trkpt>
      <trkpt lat="48.04053" lon="-1.56396">
        <ele>44.17393</ele>
      </trkpt>
      <trkpt lat="48.04051" lon="-1.56386">
        <ele>43.79254</ele>
      </trkpt>
      <trkpt lat="48.0405" lon="-1.56376">
        <ele>43.49185</ele>
      </trkpt>
      <trkpt lat="48.04049" lon="-1.56366">
        <ele>43.26161</ele>
      </trkpt>
      <trkpt lat="48.04047" lon="-1.56357">
        <ele>43.07337</ele>
      </trkpt>
      <trkpt lat="48.04046" lon="-1.56348">
        <ele>42.90528</ele>
      </trkpt>
      <trkpt lat="48.04047" lon="-1.56343">
        <ele>42.7653</ele>
      </trkpt>
      <trkpt lat="48.04047" lon="-1.56336">
        <ele>42.6163</ele>
      </trkpt>
      <trkpt lat="48.04047" lon="-1.56336">
        <ele>42.6163</ele>
      </trkpt>
      <trkpt lat="48.04047" lon="-1.56332">
        <ele>42.53535</ele>
      </trkpt>
      <trkpt lat="48.0405" lon="-1.5633">
        <ele>42.44126</ele>
      </trkpt>
      <trkpt lat="48.04053" lon="-1.56328">
        <ele>42.34891</ele>
      </trkpt>
      <trkpt lat="48.04054" lon="-1.56325">
        <ele>42.26432</ele>
      </trkpt>
      <trkpt lat="48.04056" lon="-1.56324">
        <ele>42.20399</ele>
      </trkpt>
      <trkpt lat="48.04059" lon="-1.56324">
        <ele>42.12058</ele>
      </trkpt>
      <trkpt lat="48.04062" lon="-1.56324">
        <ele>41.99527</ele>
      </trkpt>
      <trkpt lat="48.04066" lon="-1.56323">
        <ele>41.83861</ele>
      </trkpt>
      <trkpt lat="48.0407" lon="-1.56322">
        <ele>41.67083</ele>
      </trkpt>
      <trkpt lat="48.04074" lon="-1.56322">
        <ele>41.48777</ele>
      </trkpt>
      <trkpt lat="48.04078" lon="-1.56321">
        <ele>41.3079</ele>
      </trkpt>
      <trkpt lat="48.04083" lon="-1.5632">
        <ele>41.10106</ele>
      </trkpt>
      <trkpt lat="48.04088" lon="-1.56319">
        <ele>40.86853</ele>
      </trkpt>
      <trkpt lat="48.04093" lon="-1.56318">
        <ele>40.66453</ele>
      </trkpt>
      <trkpt lat="48.04098" lon="-1.56318">
        <ele>40.44987</ele>
      </trkpt>
      <trkpt lat="48.04102" lon="-1.56317">
        <ele>40.25021</ele>
      </trkpt>
      <trkpt lat="48.04107" lon="-1.56316">
        <ele>40.07498</ele>
      </trkpt>
      <trkpt lat="48.04112" lon="-1.56316">
        <ele>39.92942</ele>
      </trkpt>
      <trkpt lat="48.04118" lon="-1.56315">
        <ele>39.81393</ele>
      </trkpt>
      <trkpt lat="48.04123" lon="-1.56315">
        <ele>39.69442</ele>
      </trkpt>
      <trkpt lat="48.04128" lon="-1.56314">
        <ele>39.58777</ele>
      </trkpt>
      <trkpt lat="48.04133" lon="-1.56313">
        <ele>39.47968</ele>
      </trkpt>
      <trkpt lat="48.04138" lon="-1.56312">
        <ele>39.38301</ele>
      </trkpt>
      <trkpt lat="48.04144" lon="-1.56311">
        <ele>39.27718</ele>
      </trkpt>
      <trkpt lat="48.04149" lon="-1.5631">
        <ele>39.15747</ele>
      </trkpt>
      <trkpt lat="48.04154" lon="-1.5631">
        <ele>39.0439</ele>
      </trkpt>
      <trkpt lat="48.0416" lon="-1.56309">
        <ele>38.93945</ele>
      </trkpt>
      <trkpt lat="48.04165" lon="-1.56309">
        <ele>38.83645</ele>
      </trkpt>
      <trkpt lat="48.04169" lon="-1.56308">
        <ele>38.7316</ele>
      </trkpt>
      <trkpt lat="48.04173" lon="-1.56307">
        <ele>38.62794</ele>
      </trkpt>
      <trkpt lat="48.04177" lon="-1.56306">
        <ele>38.54183</ele>
      </trkpt>
      <trkpt lat="48.04179" lon="-1.56305">
        <ele>38.46377</ele>
      </trkpt>
      <trkpt lat="48.04181" lon="-1.56305">
        <ele>38.40444</ele>
      </trkpt>
      <trkpt lat="48.04183" lon="-1.56304">
        <ele>38.34356</ele>
      </trkpt>
      <trkpt lat="48.04186" lon="-1.56304">
        <ele>38.27305</ele>
      </trkpt>
      <trkpt lat="48.04189" lon="-1.56304">
        <ele>38.23267</ele>
      </trkpt>
      <trkpt lat="48.04192" lon="-1.56304">
        <ele>38.19266</ele>
      </trkpt>
      <trkpt lat="48.04195" lon="-1.56303">
        <ele>38.14837</ele>
      </trkpt>
      <trkpt lat="48.04199" lon="-1.56303">
        <ele>38.09858</ele>
      </trkpt>
      <trkpt lat="48.04203" lon="-1.56302">
        <ele>38.04539</ele>
      </trkpt>
      <trkpt lat="48.04207" lon="-1.56301">
        <ele>37.98966</ele>
      </trkpt>
      <trkpt lat="48.04212" lon="-1.56301">
        <ele>37.92077</ele>
      </trkpt>
      <trkpt lat="48.04216" lon="-1.563">
        <ele>37.83759</ele>
      </trkpt>
      <trkpt lat="48.04221" lon="-1.56299">
        <ele>37.73411</ele>
      </trkpt>
      <trkpt lat="48.04226" lon="-1.56299">
        <ele>37.62047</ele>
      </trkpt>
      <trkpt lat="48.04231" lon="-1.56298">
        <ele>37.50544</ele>
      </trkpt>
      <trkpt lat="48.04236" lon="-1.56298">
        <ele>37.41127</ele>
      </trkpt>
      <trkpt lat="48.04241" lon="-1.56297">
        <ele>37.32552</ele>
      </trkpt>
      <trkpt lat="48.04246" lon="-1.56297">
        <ele>37.2411</ele>
      </trkpt>
      <trkpt lat="48.04252" lon="-1.56296">
        <ele>37.16066</ele>
      </trkpt>
      <trkpt lat="48.04257" lon="-1.56296">
        <ele>37.07798</ele>
      </trkpt>
      <trkpt lat="48.04262" lon="-1.56294">
        <ele>36.99174</ele>
      </trkpt>
      <trkpt lat="48.04267" lon="-1.56293">
        <ele>36.91683</ele>
      </trkpt>
      <trkpt lat="48.04272" lon="-1.56291">
        <ele>36.84292</ele>
      </trkpt>
      <trkpt lat="48.04278" lon="-1.5629">
        <ele>36.76123</ele>
      </trkpt>
      <trkpt lat="48.04283" lon="-1.56289">
        <ele>36.66563</ele>
      </trkpt>
      <trkpt lat="48.04289" lon="-1.56288">
        <ele>36.53911</ele>
      </trkpt>
      <trkpt lat="48.04295" lon="-1.56287">
        <ele>36.41557</ele>
      </trkpt>
      <trkpt lat="48.04301" lon="-1.56286">
        <ele>36.31338</ele>
      </trkpt>
      <trkpt lat="48.04307" lon="-1.56285">
        <ele>36.23105</ele>
      </trkpt>
      <trkpt lat="48.04313" lon="-1.56285">
        <ele>36.15324</ele>
      </trkpt>
      <trkpt lat="48.04318" lon="-1.56284">
        <ele>36.095</ele>
      </trkpt>
      <trkpt lat="48.04324" lon="-1.56283">
        <ele>36.08195</ele>
      </trkpt>
      <trkpt lat="48.04329" lon="-1.56283">
        <ele>36.13179</ele>
      </trkpt>
      <trkpt lat="48.04334" lon="-1.56282">
        <ele>36.2271</ele>
      </trkpt>
      <trkpt lat="48.04339" lon="-1.56281">
        <ele>36.34032</ele>
      </trkpt>
      <trkpt lat="48.04344" lon="-1.5628">
        <ele>36.44932</ele>
      </trkpt>
      <trkpt lat="48.04349" lon="-1.56279">
        <ele>36.52767</ele>
      </trkpt>
      <trkpt lat="48.04354" lon="-1.56278">
        <ele>36.57768</ele>
      </trkpt>
      <trkpt lat="48.04359" lon="-1.56277">
        <ele>36.62254</ele>
      </trkpt>
      <trkpt lat="48.04364" lon="-1.56277">
        <ele>36.67854</ele>
      </trkpt>
      <trkpt lat="48.04369" lon="-1.56276">
        <ele>36.76414</ele>
      </trkpt>
      <trkpt lat="48.04374" lon="-1.56275">
        <ele>36.88049</ele>
      </trkpt>
      <trkpt lat="48.04379" lon="-1.56274">
        <ele>37.01902</ele>
      </trkpt>
      <trkpt lat="48.04384" lon="-1.56273">
        <ele>37.16168</ele>
      </trkpt>
      <trkpt lat="48.04388" lon="-1.56273">
        <ele>37.29816</ele>
      </trkpt>
      <trkpt lat="48.04393" lon="-1.56272">
        <ele>37.42406</ele>
      </trkpt>
      <trkpt lat="48.04398" lon="-1.56271">
        <ele>37.54685</ele>
      </trkpt>
      <trkpt lat="48.04402" lon="-1.56271">
        <ele>37.67895</ele>
      </trkpt>
      <trkpt lat="48.04406" lon="-1.5627">
        <ele>37.81635</ele>
      </trkpt>
      <trkpt lat="48.0441" lon="-1.5627">
        <ele>37.95865</ele>
      </trkpt>
      <trkpt lat="48.04414" lon="-1.56269">
        <ele>38.1063</ele>
      </trkpt>
      <trkpt lat="48.04418" lon="-1.56269">
        <ele>38.26519</ele>
      </trkpt>
      <trkpt lat="48.04422" lon="-1.56268">
        <ele>38.4468</ele>
      </trkpt>
      <trkpt lat="48.04426" lon="-1.56268">
        <ele>38.62819</ele>
      </trkpt>
      <trkpt lat="48.0443" lon="-1.56267">
        <ele>38.80892</ele>
      </trkpt>
      <trkpt lat="48.04433" lon="-1.56267">
        <ele>38.96339</ele>
      </trkpt>
      <trkpt lat="48.04437" lon="-1.56266">
        <ele>39.09055</ele>
      </trkpt>
      <trkpt lat="48.0444" lon="-1.56264">
        <ele>39.18416</ele>
      </trkpt>
      <trkpt lat="48.0444" lon="-1.56264">
        <ele>39.18416</ele>
        <time>2021-12-26T09:52:51.999Z</time>
      </trkpt>
      <trkpt lat="48.04443" lon="-1.56261">
        <ele>39.26092</ele>
        <time>2021-12-26T09:52:52.999Z</time>
      </trkpt>
      <trkpt lat="48.04446" lon="-1.56258">
        <ele>39.31277</ele>
        <time>2021-12-26T09:52:53.999Z</time>
      </trkpt>
      <trkpt lat="48.04448" lon="-1.56253">
        <ele>39.3339</ele>
        <time>2021-12-26T09:52:54.999Z</time>
      </trkpt>
      <trkpt lat="48.04448" lon="-1.56247">
        <ele>39.31539</ele>
        <time>2021-12-26T09:52:55.999Z</time>
      </trkpt>
      <trkpt lat="48.04448" lon="-1.56242">
        <ele>39.28278</ele>
        <time>2021-12-26T09:52:56.999Z</time>
      </trkpt>
      <trkpt lat="48.04447" lon="-1.56236">
        <ele>39.25492</ele>
        <time>2021-12-26T09:52:57.999Z</time>
      </trkpt>
      <trkpt lat="48.04447" lon="-1.5623">
        <ele>39.23959</ele>
        <time>2021-12-26T09:52:58.999Z</time>
      </trkpt>
      <trkpt lat="48.04447" lon="-1.56224">
        <ele>39.23732</ele>
        <time>2021-12-26T09:52:59.999Z</time>
      </trkpt>
      <trkpt lat="48.04447" lon="-1.56218">
        <ele>39.2487</ele>
        <time>2021-12-26T09:53:00.999Z</time>
      </trkpt>
      <trkpt lat="48.04447" lon="-1.56212">
        <ele>39.27035</ele>
        <time>2021-12-26T09:53:01.999Z</time>
      </trkpt>
      <trkpt lat="48.04447" lon="-1.56206">
        <ele>39.30112</ele>
        <time>2021-12-26T09:53:02.999Z</time>
      </trkpt>
      <trkpt lat="48.04447" lon="-1.562">
        <ele>39.34045</ele>
        <time>2021-12-26T09:53:03.999Z</time>
      </trkpt>
      <trkpt lat="48.04447" lon="-1.56194">
        <ele>39.388</ele>
        <time>2021-12-26T09:53:04.999Z</time>
      </trkpt>
      <trkpt lat="48.04447" lon="-1.56187">
        <ele>39.44069</ele>
        <time>2021-12-26T09:53:05.999Z</time>
      </trkpt>
      <trkpt lat="48.04447" lon="-1.56181">
        <ele>39.49873</ele>
        <time>2021-12-26T09:53:06.999Z</time>
      </trkpt>
      <trkpt lat="48.04447" lon="-1.56175">
        <ele>39.56658</ele>
        <time>2021-12-26T09:53:07.999Z</time>
      </trkpt>
      <trkpt lat="48.04447" lon="-1.56168">
        <ele>39.63973</ele>
        <time>2021-12-26T09:53:08.999Z</time>
      </trkpt>
      <trkpt lat="48.04447" lon="-1.56162">
        <ele>39.7128</ele>
        <time>2021-12-26T09:53:09.999Z</time>
      </trkpt>
      <trkpt lat="48.04446" lon="-1.56156">
        <ele>39.78751</ele>
        <time>2021-12-26T09:53:10.999Z</time>
      </trkpt>
      <trkpt lat="48.04445" lon="-1.5615">
        <ele>39.86301</ele>
        <time>2021-12-26T09:53:11.999Z</time>
      </trkpt>
      <trkpt lat="48.04444" lon="-1.56144">
        <ele>39.93891</ele>
        <time>2021-12-26T09:53:12.999Z</time>
      </trkpt>
      <trkpt lat="48.04443" lon="-1.56138">
        <ele>40.01116</ele>
        <time>2021-12-26T09:53:13.999Z</time>
      </trkpt>
      <trkpt lat="48.04442" lon="-1.56133">
        <ele>40.08181</ele>
        <time>2021-12-26T09:53:14.999Z</time>
      </trkpt>
      <trkpt lat="48.04441" lon="-1.56127">
        <ele>40.14891</ele>
        <time>2021-12-26T09:53:15.999Z</time>
      </trkpt>
      <trkpt lat="48.0444" lon="-1.56123">
        <ele>40.20202</ele>
        <time>2021-12-26T09:53:16.999Z</time>
      </trkpt>
      <trkpt lat="48.04441" lon="-1.56119">
        <ele>40.25361</ele>
        <time>2021-12-26T09:54:23.999Z</time>
      </trkpt>
      <trkpt lat="48.04441" lon="-1.56116">
        <ele>40.29476</ele>
        <time>2021-12-26T09:54:24.999Z</time>
      </trkpt>
      <trkpt lat="48.04441" lon="-1.56113">
        <ele>40.34266</ele>
        <time>2021-12-26T09:54:25.999Z</time>
      </trkpt>
      <trkpt lat="48.04441" lon="-1.56111">
        <ele>40.38824</ele>
        <time>2021-12-26T09:54:26.999Z</time>
      </trkpt>
      <trkpt lat="48.04441" lon="-1.56107">
        <ele>40.44691</ele>
        <time>2021-12-26T09:54:27.999Z</time>
      </trkpt>
      <trkpt lat="48.04441" lon="-1.56103">
        <ele>40.51943</ele>
        <time>2021-12-26T09:54:28.999Z</time>
      </trkpt>
      <trkpt lat="48.0444" lon="-1.56098">
        <ele>40.60057</ele>
        <time>2021-12-26T09:54:29.999Z</time>
      </trkpt>
      <trkpt lat="48.0444" lon="-1.56093">
        <ele>40.67734</ele>
        <time>2021-12-26T09:54:30.999Z</time>
      </trkpt>
      <trkpt lat="48.04439" lon="-1.56087">
        <ele>40.7472</ele>
        <time>2021-12-26T09:54:31.999Z</time>
      </trkpt>
      <trkpt lat="48.04439" lon="-1.56082">
        <ele>40.7923</ele>
        <time>2021-12-26T09:54:32.999Z</time>
      </trkpt>
      <trkpt lat="48.04439" lon="-1.56077">
        <ele>40.81759</ele>
        <time>2021-12-26T09:54:33.999Z</time>
      </trkpt>
      <trkpt lat="48.04439" lon="-1.56072">
        <ele>40.83217</ele>
        <time>2021-12-26T09:54:34.999Z</time>
      </trkpt>
      <trkpt lat="48.04438" lon="-1.56066">
        <ele>40.84472</ele>
        <time>2021-12-26T09:54:35.999Z</time>
      </trkpt>
      <trkpt lat="48.04439" lon="-1.5606">
        <ele>40.83625</ele>
        <time>2021-12-26T09:54:36.999Z</time>
      </trkpt>
      <trkpt lat="48.04439" lon="-1.56054">
        <ele>40.85183</ele>
        <time>2021-12-26T09:54:37.999Z</time>
      </trkpt>
      <trkpt lat="48.04439" lon="-1.56048">
        <ele>40.86515</ele>
        <time>2021-12-26T09:54:38.999Z</time>
      </trkpt>
      <trkpt lat="48.04439" lon="-1.56045">
        <ele>40.88583</ele>
        <time>2021-12-26T09:54:39.999Z</time>
      </trkpt>
      <trkpt lat="48.04439" lon="-1.5604">
        <ele>40.93516</ele>
        <time>2021-12-26T09:54:40.999Z</time>
      </trkpt>
      <trkpt lat="48.04438" lon="-1.56036">
        <ele>41.02437</ele>
        <time>2021-12-26T09:54:41.999Z</time>
      </trkpt>
      <trkpt lat="48.04437" lon="-1.56032">
        <ele>41.11555</ele>
        <time>2021-12-26T09:54:42.999Z</time>
      </trkpt>
      <trkpt lat="48.04436" lon="-1.56027">
        <ele>41.18264</ele>
        <time>2021-12-26T09:54:43.999Z</time>
      </trkpt>
      <trkpt lat="48.04436" lon="-1.56021">
        <ele>41.23748</ele>
        <time>2021-12-26T09:54:44.999Z</time>
      </trkpt>
      <trkpt lat="48.04435" lon="-1.56016">
        <ele>41.29578</ele>
        <time>2021-12-26T09:54:45.999Z</time>
      </trkpt>
      <trkpt lat="48.04434" lon="-1.56011">
        <ele>41.35256</ele>
        <time>2021-12-26T09:54:46.999Z</time>
      </trkpt>
      <trkpt lat="48.04434" lon="-1.56005">
        <ele>41.37437</ele>
        <time>2021-12-26T09:54:47.999Z</time>
      </trkpt>
      <trkpt lat="48.04434" lon="-1.56">
        <ele>41.40511</ele>
        <time>2021-12-26T09:54:48.999Z</time>
      </trkpt>
      <trkpt lat="48.04433" lon="-1.55994">
        <ele>41.4245</ele>
        <time>2021-12-26T09:54:49.999Z</time>
      </trkpt>
      <trkpt lat="48.04433" lon="-1.55988">
        <ele>41.44251</ele>
        <time>2021-12-26T09:54:50.999Z</time>
      </trkpt>
      <trkpt lat="48.04433" lon="-1.55982">
        <ele>41.44318</ele>
        <time>2021-12-26T09:54:51.999Z</time>
      </trkpt>
      <trkpt lat="48.04432" lon="-1.55976">
        <ele>41.43186</ele>
        <time>2021-12-26T09:54:52.999Z</time>
      </trkpt>
      <trkpt lat="48.04432" lon="-1.5597">
        <ele>41.41398</ele>
        <time>2021-12-26T09:54:53.999Z</time>
      </trkpt>
      <trkpt lat="48.04431" lon="-1.55964">
        <ele>41.39674</ele>
        <time>2021-12-26T09:54:54.999Z</time>
      </trkpt>
      <trkpt lat="48.04431" lon="-1.55958">
        <ele>41.40215</ele>
        <time>2021-12-26T09:54:55.999Z</time>
      </trkpt>
      <trkpt lat="48.04431" lon="-1.55952">
        <ele>41.44644</ele>
        <time>2021-12-26T09:54:56.999Z</time>
      </trkpt>
      <trkpt lat="48.0443" lon="-1.55946">
        <ele>41.54026</ele>
        <time>2021-12-26T09:54:57.999Z</time>
      </trkpt>
      <trkpt lat="48.0443" lon="-1.5594">
        <ele>41.6848</ele>
        <time>2021-12-26T09:54:58.999Z</time>
      </trkpt>
      <trkpt lat="48.04429" lon="-1.55935">
        <ele>41.84219</ele>
        <time>2021-12-26T09:54:59.999Z</time>
      </trkpt>
      <trkpt lat="48.04429" lon="-1.55929">
        <ele>42.00957</ele>
        <time>2021-12-26T09:55:00.999Z</time>
      </trkpt>
      <trkpt lat="48.04428" lon="-1.55923">
        <ele>42.14727</ele>
        <time>2021-12-26T09:55:01.999Z</time>
      </trkpt>
      <trkpt lat="48.04428" lon="-1.55918">
        <ele>42.23917</ele>
        <time>2021-12-26T09:55:02.999Z</time>
      </trkpt>
      <trkpt lat="48.04428" lon="-1.55912">
        <ele>42.31626</ele>
        <time>2021-12-26T09:55:03.999Z</time>
      </trkpt>
      <trkpt lat="48.04426" lon="-1.55907">
        <ele>42.41525</ele>
        <time>2021-12-26T09:55:04.999Z</time>
      </trkpt>
      <trkpt lat="48.04425" lon="-1.55902">
        <ele>42.49925</ele>
        <time>2021-12-26T09:55:05.999Z</time>
      </trkpt>
      <trkpt lat="48.04425" lon="-1.55896">
        <ele>42.54605</ele>
        <time>2021-12-26T09:55:06.999Z</time>
      </trkpt>
      <trkpt lat="48.04425" lon="-1.55891">
        <ele>42.57043</ele>
        <time>2021-12-26T09:55:07.999Z</time>
      </trkpt>
      <trkpt lat="48.04425" lon="-1.55885">
        <ele>42.58151</ele>
        <time>2021-12-26T09:55:08.999Z</time>
      </trkpt>
      <trkpt lat="48.04424" lon="-1.55879">
        <ele>42.59666</ele>
        <time>2021-12-26T09:55:09.999Z</time>
      </trkpt>
      <trkpt lat="48.04424" lon="-1.55873">
        <ele>42.64108</ele>
        <time>2021-12-26T09:55:10.999Z</time>
      </trkpt>
      <trkpt lat="48.04424" lon="-1.55867">
        <ele>42.66048</ele>
        <time>2021-12-26T09:55:11.999Z</time>
      </trkpt>
      <trkpt lat="48.04424" lon="-1.55861">
        <ele>42.62158</ele>
        <time>2021-12-26T09:55:12.999Z</time>
      </trkpt>
      <trkpt lat="48.04424" lon="-1.55855">
        <ele>42.50414</ele>
        <time>2021-12-26T09:55:13.999Z</time>
      </trkpt>
      <trkpt lat="48.04424" lon="-1.55848">
        <ele>42.32497</ele>
        <time>2021-12-26T09:55:14.999Z</time>
      </trkpt>
      <trkpt lat="48.04424" lon="-1.55842">
        <ele>42.04105</ele>
        <time>2021-12-26T09:55:15.999Z</time>
      </trkpt>
      <trkpt lat="48.04423" lon="-1.55836">
        <ele>41.90428</ele>
        <time>2021-12-26T09:55:16.999Z</time>
      </trkpt>
      <trkpt lat="48.04423" lon="-1.5583">
        <ele>41.70489</ele>
        <time>2021-12-26T09:55:17.999Z</time>
      </trkpt>
      <trkpt lat="48.04423" lon="-1.55826">
        <ele>41.52325</ele>
        <time>2021-12-26T09:55:18.999Z</time>
      </trkpt>
      <trkpt lat="48.04422" lon="-1.55821">
        <ele>41.61113</ele>
        <time>2021-12-26T09:55:19.999Z</time>
      </trkpt>
      <trkpt lat="48.0442" lon="-1.55817">
        <ele>41.97261</ele>
        <time>2021-12-26T09:55:20.999Z</time>
      </trkpt>
      <trkpt lat="48.0442" lon="-1.55813">
        <ele>42.09607</ele>
        <time>2021-12-26T09:55:21.999Z</time>
      </trkpt>
      <trkpt lat="48.04419" lon="-1.55809">
        <ele>42.20075</ele>
        <time>2021-12-26T09:55:22.999Z</time>
      </trkpt>
      <trkpt lat="48.04419" lon="-1.55804">
        <ele>42.21754</ele>
        <time>2021-12-26T09:55:23.999Z</time>
      </trkpt>
      <trkpt lat="48.04418" lon="-1.55799">
        <ele>42.24372</ele>
        <time>2021-12-26T09:55:24.999Z</time>
      </trkpt>
      <trkpt lat="48.04418" lon="-1.55795">
        <ele>42.26189</ele>
        <time>2021-12-26T09:55:25.999Z</time>
      </trkpt>
      <trkpt lat="48.04417" lon="-1.55792">
        <ele>42.41307</ele>
        <time>2021-12-26T09:55:26.999Z</time>
      </trkpt>
      <trkpt lat="48.04416" lon="-1.55788">
        <ele>42.5774</ele>
        <time>2021-12-26T09:55:27.999Z</time>
      </trkpt>
      <trkpt lat="48.04416" lon="-1.55786">
        <ele>42.62405</ele>
        <time>2021-12-26T09:55:28.999Z</time>
      </trkpt>
      <trkpt lat="48.04416" lon="-1.55782">
        <ele>42.52849</ele>
        <time>2021-12-26T09:55:29.999Z</time>
      </trkpt>
      <trkpt lat="48.04417" lon="-1.55779">
        <ele>42.28531</ele>
        <time>2021-12-26T09:55:30.999Z</time>
      </trkpt>
      <trkpt lat="48.04417" lon="-1.55775">
        <ele>42.09474</ele>
        <time>2021-12-26T09:55:31.999Z</time>
      </trkpt>
      <trkpt lat="48.04417" lon="-1.55775">
        <ele>42.09474</ele>
        <time>2021-12-26T09:55:31.999Z</time>
      </trkpt>
      <trkpt lat="48.04418" lon="-1.5577">
        <ele>41.89148</ele>
        <time>2021-12-26T09:55:32.999Z</time>
      </trkpt>
      <trkpt lat="48.04418" lon="-1.55765">
        <ele>41.7874</ele>
        <time>2021-12-26T09:55:33.999Z</time>
      </trkpt>
      <trkpt lat="48.04417" lon="-1.55761">
        <ele>41.87386</ele>
        <time>2021-12-26T09:55:34.999Z</time>
      </trkpt>
      <trkpt lat="48.04417" lon="-1.55758">
        <ele>41.8878</ele>
        <time>2021-12-26T09:55:35.999Z</time>
      </trkpt>
      <trkpt lat="48.04416" lon="-1.55755">
        <ele>41.7665</ele>
        <time>2021-12-26T09:55:36.999Z</time>
      </trkpt>
      <trkpt lat="48.04417" lon="-1.55752">
        <ele>41.5715</ele>
        <time>2021-12-26T09:55:37.999Z</time>
      </trkpt>
      <trkpt lat="48.04416" lon="-1.55743">
        <ele>40.91944</ele>
        <time>2021-12-26T09:55:39.999Z</time>
      </trkpt>
      <trkpt lat="48.04417" lon="-1.55736">
        <ele>40.21545</ele>
        <time>2021-12-26T09:55:40.999Z</time>
      </trkpt>
      <trkpt lat="48.04416" lon="-1.55731">
        <ele>39.69703</ele>
        <time>2021-12-26T09:55:41.999Z</time>
      </trkpt>
      <trkpt lat="48.04416" lon="-1.55725">
        <ele>39.01025</ele>
        <time>2021-12-26T09:55:42.999Z</time>
      </trkpt>
      <trkpt lat="48.04416" lon="-1.55721">
        <ele>38.53847</ele>
        <time>2021-12-26T09:55:43.999Z</time>
      </trkpt>
      <trkpt lat="48.04416" lon="-1.55716">
        <ele>38.01638</ele>
        <time>2021-12-26T09:55:44.999Z</time>
      </trkpt>
      <trkpt lat="48.04416" lon="-1.55711">
        <ele>37.55985</ele>
        <time>2021-12-26T09:55:45.999Z</time>
      </trkpt>
      <trkpt lat="48.04416" lon="-1.55706">
        <ele>37.05259</ele>
        <time>2021-12-26T09:55:46.999Z</time>
      </trkpt>
      <trkpt lat="48.04415" lon="-1.55701">
        <ele>36.61983</ele>
        <time>2021-12-26T09:55:47.999Z</time>
      </trkpt>
      <trkpt lat="48.04414" lon="-1.55697">
        <ele>36.26228</ele>
        <time>2021-12-26T09:55:48.999Z</time>
      </trkpt>
      <trkpt lat="48.04414" lon="-1.55692">
        <ele>35.81858</ele>
        <time>2021-12-26T09:55:49.999Z</time>
      </trkpt>
      <trkpt lat="48.04414" lon="-1.55686">
        <ele>35.38212</ele>
        <time>2021-12-26T09:55:50.999Z</time>
      </trkpt>
      <trkpt lat="48.04414" lon="-1.55679">
        <ele>34.92522</ele>
        <time>2021-12-26T09:55:51.999Z</time>
      </trkpt>
      <trkpt lat="48.04414" lon="-1.55672">
        <ele>34.47565</ele>
        <time>2021-12-26T09:55:52.999Z</time>
      </trkpt>
      <trkpt lat="48.04414" lon="-1.55665">
        <ele>34.1621</ele>
        <time>2021-12-26T09:55:53.999Z</time>
      </trkpt>
      <trkpt lat="48.04414" lon="-1.55658">
        <ele>33.89491</ele>
        <time>2021-12-26T09:55:54.999Z</time>
      </trkpt>
      <trkpt lat="48.04414" lon="-1.55652">
        <ele>33.68531</ele>
        <time>2021-12-26T09:55:55.999Z</time>
      </trkpt>
      <trkpt lat="48.04414" lon="-1.55646">
        <ele>33.54796</ele>
        <time>2021-12-26T09:55:56.999Z</time>
      </trkpt>
      <trkpt lat="48.04414" lon="-1.5564">
        <ele>33.51532</ele>
        <time>2021-12-26T09:55:57.999Z</time>
      </trkpt>
      <trkpt lat="48.04416" lon="-1.55634">
        <ele>33.65804</ele>
        <time>2021-12-26T09:55:58.999Z</time>
      </trkpt>
      <trkpt lat="48.04416" lon="-1.55628">
        <ele>33.73401</ele>
        <time>2021-12-26T09:55:59.999Z</time>
      </trkpt>
      <trkpt lat="48.04415" lon="-1.55624">
        <ele>33.73991</ele>
        <time>2021-12-26T09:56:00.999Z</time>
      </trkpt>
      <trkpt lat="48.04414" lon="-1.5562">
        <ele>33.66136</ele>
        <time>2021-12-26T09:56:01.999Z</time>
      </trkpt>
      <trkpt lat="48.04413" lon="-1.55618">
        <ele>33.56581</ele>
        <time>2021-12-26T09:56:02.999Z</time>
      </trkpt>
      <trkpt lat="48.0441" lon="-1.55616">
        <ele>33.2894</ele>
        <time>2021-12-26T09:56:04.999Z</time>
      </trkpt>
      <trkpt lat="48.04408" lon="-1.55616">
        <ele>33.08076</ele>
        <time>2021-12-26T09:56:06.999Z</time>
      </trkpt>
      <trkpt lat="48.04405" lon="-1.55616">
        <ele>32.80064</ele>
        <time>2021-12-26T09:56:08.999Z</time>
      </trkpt>
      <trkpt lat="48.04403" lon="-1.55616">
        <ele>32.58134</ele>
        <time>2021-12-26T09:56:10.999Z</time>
      </trkpt>
      <trkpt lat="48.04403" lon="-1.55616">
        <ele>32.58134</ele>
        <time>2021-12-26T09:56:10.999Z</time>
      </trkpt>
      <trkpt lat="48.04399" lon="-1.55618">
        <ele>32.2823</ele>
        <time>2021-12-26T09:56:13.999Z</time>
      </trkpt>
      <trkpt lat="48.04397" lon="-1.5562">
        <ele>32.12476</ele>
        <time>2021-12-26T09:56:14.999Z</time>
      </trkpt>
      <trkpt lat="48.04395" lon="-1.55621">
        <ele>32.01496</ele>
        <time>2021-12-26T09:56:16.000Z</time>
      </trkpt>
      <trkpt lat="48.04393" lon="-1.55623">
        <ele>31.91287</ele>
        <time>2021-12-26T09:56:17.000Z</time>
      </trkpt>
      <trkpt lat="48.04391" lon="-1.55625">
        <ele>31.79144</ele>
        <time>2021-12-26T09:56:18.000Z</time>
      </trkpt>
      <trkpt lat="48.04388" lon="-1.55628">
        <ele>31.67813</ele>
        <time>2021-12-26T09:56:19.000Z</time>
      </trkpt>
      <trkpt lat="48.04385" lon="-1.55634">
        <ele>31.57262</ele>
        <time>2021-12-26T09:56:20.000Z</time>
      </trkpt>
      <trkpt lat="48.04383" lon="-1.55639">
        <ele>31.52124</ele>
        <time>2021-12-26T09:56:21.000Z</time>
      </trkpt>
      <trkpt lat="48.04381" lon="-1.55644">
        <ele>31.51027</ele>
        <time>2021-12-26T09:56:22.000Z</time>
      </trkpt>
      <trkpt lat="48.04378" lon="-1.55649">
        <ele>31.46705</ele>
        <time>2021-12-26T09:56:23.000Z</time>
      </trkpt>
      <trkpt lat="48.04376" lon="-1.55654">
        <ele>31.46628</ele>
        <time>2021-12-26T09:56:24.000Z</time>
      </trkpt>
      <trkpt lat="48.04374" lon="-1.55658">
        <ele>31.45476</ele>
        <time>2021-12-26T09:56:25.000Z</time>
      </trkpt>
      <trkpt lat="48.04371" lon="-1.55662">
        <ele>31.44622</ele>
        <time>2021-12-26T09:56:26.000Z</time>
      </trkpt>
      <trkpt lat="48.04369" lon="-1.55666">
        <ele>31.51289</ele>
        <time>2021-12-26T09:56:27.000Z</time>
      </trkpt>
      <trkpt lat="48.04367" lon="-1.5567">
        <ele>31.55335</ele>
        <time>2021-12-26T09:56:28.000Z</time>
      </trkpt>
      <trkpt lat="48.04364" lon="-1.55674">
        <ele>31.58194</ele>
        <time>2021-12-26T09:56:29.000Z</time>
      </trkpt>
      <trkpt lat="48.04362" lon="-1.55676">
        <ele>31.60147</ele>
        <time>2021-12-26T09:56:30.000Z</time>
      </trkpt>
      <trkpt lat="48.0436" lon="-1.55679">
        <ele>31.57443</ele>
        <time>2021-12-26T09:56:31.000Z</time>
      </trkpt>
      <trkpt lat="48.04357" lon="-1.55681">
        <ele>31.5354</ele>
        <time>2021-12-26T09:56:32.000Z</time>
      </trkpt>
      <trkpt lat="48.04353" lon="-1.55685">
        <ele>31.54164</ele>
        <time>2021-12-26T09:56:33.000Z</time>
      </trkpt>
      <trkpt lat="48.0435" lon="-1.55688">
        <ele>31.54135</ele>
        <time>2021-12-26T09:56:34.000Z</time>
      </trkpt>
      <trkpt lat="48.04347" lon="-1.55691">
        <ele>31.62391</ele>
        <time>2021-12-26T09:56:35.000Z</time>
      </trkpt>
      <trkpt lat="48.04344" lon="-1.55695">
        <ele>31.72395</ele>
        <time>2021-12-26T09:56:36.000Z</time>
      </trkpt>
      <trkpt lat="48.04341" lon="-1.55699">
        <ele>31.84289</ele>
        <time>2021-12-26T09:56:37.000Z</time>
      </trkpt>
      <trkpt lat="48.04339" lon="-1.55703">
        <ele>31.95416</ele>
        <time>2021-12-26T09:56:38.000Z</time>
      </trkpt>
      <trkpt lat="48.04336" lon="-1.55707">
        <ele>32.04279</ele>
        <time>2021-12-26T09:56:39.000Z</time>
      </trkpt>
      <trkpt lat="48.04334" lon="-1.55711">
        <ele>32.08183</ele>
        <time>2021-12-26T09:56:40.000Z</time>
      </trkpt>
      <trkpt lat="48.04331" lon="-1.55714">
        <ele>32.06979</ele>
        <time>2021-12-26T09:56:41.000Z</time>
      </trkpt>
      <trkpt lat="48.04329" lon="-1.55718">
        <ele>32.03093</ele>
        <time>2021-12-26T09:56:42.000Z</time>
      </trkpt>
      <trkpt lat="48.04327" lon="-1.55723">
        <ele>31.98491</ele>
        <time>2021-12-26T09:56:43.000Z</time>
      </trkpt>
      <trkpt lat="48.04325" lon="-1.55727">
        <ele>31.91411</ele>
        <time>2021-12-26T09:56:44.000Z</time>
      </trkpt>
      <trkpt lat="48.04323" lon="-1.55732">
        <ele>31.84911</ele>
        <time>2021-12-26T09:56:45.000Z</time>
      </trkpt>
      <trkpt lat="48.04321" lon="-1.55736">
        <ele>31.81155</ele>
        <time>2021-12-26T09:56:46.000Z</time>
      </trkpt>
      <trkpt lat="48.04319" lon="-1.5574">
        <ele>31.80192</ele>
        <time>2021-12-26T09:56:47.000Z</time>
      </trkpt>
      <trkpt lat="48.04317" lon="-1.55744">
        <ele>31.83558</ele>
        <time>2021-12-26T09:56:48.000Z</time>
      </trkpt>
      <trkpt lat="48.04315" lon="-1.55749">
        <ele>31.9095</ele>
        <time>2021-12-26T09:56:49.000Z</time>
      </trkpt>
      <trkpt lat="48.04313" lon="-1.55754">
        <ele>32.00295</ele>
        <time>2021-12-26T09:56:50.000Z</time>
      </trkpt>
      <trkpt lat="48.04311" lon="-1.55759">
        <ele>32.08243</ele>
        <time>2021-12-26T09:56:51.000Z</time>
      </trkpt>
      <trkpt lat="48.0431" lon="-1.55763">
        <ele>32.14779</ele>
        <time>2021-12-26T09:56:52.000Z</time>
      </trkpt>
      <trkpt lat="48.04308" lon="-1.55768">
        <ele>32.16388</ele>
        <time>2021-12-26T09:56:53.000Z</time>
      </trkpt>
      <trkpt lat="48.04306" lon="-1.55773">
        <ele>32.19509</ele>
        <time>2021-12-26T09:56:54.000Z</time>
      </trkpt>
      <trkpt lat="48.04305" lon="-1.55778">
        <ele>32.22087</ele>
        <time>2021-12-26T09:56:55.000Z</time>
      </trkpt>
      <trkpt lat="48.04303" lon="-1.55782">
        <ele>32.15766</ele>
        <time>2021-12-26T09:56:56.000Z</time>
      </trkpt>
      <trkpt lat="48.04301" lon="-1.55787">
        <ele>32.09558</ele>
        <time>2021-12-26T09:56:57.000Z</time>
      </trkpt>
      <trkpt lat="48.04299" lon="-1.55792">
        <ele>32.00538</ele>
        <time>2021-12-26T09:56:58.000Z</time>
      </trkpt>
      <trkpt lat="48.04297" lon="-1.55796">
        <ele>31.94529</ele>
        <time>2021-12-26T09:56:59.000Z</time>
      </trkpt>
      <trkpt lat="48.04294" lon="-1.55799">
        <ele>31.85688</ele>
        <time>2021-12-26T09:57:00.000Z</time>
      </trkpt>
      <trkpt lat="48.0429" lon="-1.55801">
        <ele>31.82461</ele>
        <time>2021-12-26T09:57:01.000Z</time>
      </trkpt>
      <trkpt lat="48.04287" lon="-1.55803">
        <ele>31.84198</ele>
        <time>2021-12-26T09:57:02.000Z</time>
      </trkpt>
      <trkpt lat="48.04283" lon="-1.55805">
        <ele>31.89606</ele>
        <time>2021-12-26T09:57:03.000Z</time>
      </trkpt>
      <trkpt lat="48.0428" lon="-1.55809">
        <ele>31.94765</ele>
        <time>2021-12-26T09:57:04.000Z</time>
      </trkpt>
      <trkpt lat="48.04277" lon="-1.55813">
        <ele>31.94808</ele>
        <time>2021-12-26T09:57:05.000Z</time>
      </trkpt>
      <trkpt lat="48.04275" lon="-1.55817">
        <ele>31.90016</ele>
        <time>2021-12-26T09:57:06.000Z</time>
      </trkpt>
      <trkpt lat="48.04272" lon="-1.55822">
        <ele>31.83479</ele>
        <time>2021-12-26T09:57:07.000Z</time>
      </trkpt>
      <trkpt lat="48.04269" lon="-1.55825">
        <ele>31.77426</ele>
        <time>2021-12-26T09:57:08.000Z</time>
      </trkpt>
      <trkpt lat="48.04266" lon="-1.55827">
        <ele>31.74005</ele>
        <time>2021-12-26T09:57:09.000Z</time>
      </trkpt>
      <trkpt lat="48.04262" lon="-1.55829">
        <ele>31.74046</ele>
        <time>2021-12-26T09:57:10.000Z</time>
      </trkpt>
      <trkpt lat="48.04259" lon="-1.5583">
        <ele>31.75879</ele>
        <time>2021-12-26T09:57:11.000Z</time>
      </trkpt>
      <trkpt lat="48.04255" lon="-1.55828">
        <ele>31.75518</ele>
        <time>2021-12-26T09:57:12.000Z</time>
      </trkpt>
      <trkpt lat="48.04252" lon="-1.55825">
        <ele>31.71867</ele>
        <time>2021-12-26T09:57:13.000Z</time>
      </trkpt>
      <trkpt lat="48.0425" lon="-1.55821">
        <ele>31.68539</ele>
        <time>2021-12-26T09:57:14.000Z</time>
      </trkpt>
      <trkpt lat="48.04247" lon="-1.55817">
        <ele>31.6813</ele>
        <time>2021-12-26T09:57:15.000Z</time>
      </trkpt>
      <trkpt lat="48.04244" lon="-1.55813">
        <ele>31.70589</ele>
        <time>2021-12-26T09:57:16.000Z</time>
      </trkpt>
      <trkpt lat="48.04242" lon="-1.55808">
        <ele>31.75089</ele>
        <time>2021-12-26T09:57:17.000Z</time>
      </trkpt>
      <trkpt lat="48.0424" lon="-1.55804">
        <ele>31.8169</ele>
        <time>2021-12-26T09:57:18.000Z</time>
      </trkpt>
      <trkpt lat="48.04238" lon="-1.55799">
        <ele>31.88813</ele>
        <time>2021-12-26T09:57:19.000Z</time>
      </trkpt>
      <trkpt lat="48.04236" lon="-1.55795">
        <ele>31.93439</ele>
        <time>2021-12-26T09:57:20.000Z</time>
      </trkpt>
      <trkpt lat="48.04233" lon="-1.55791">
        <ele>31.96059</ele>
        <time>2021-12-26T09:57:21.000Z</time>
      </trkpt>
      <trkpt lat="48.04231" lon="-1.55788">
        <ele>31.96327</ele>
        <time>2021-12-26T09:57:22.000Z</time>
      </trkpt>
      <trkpt lat="48.04228" lon="-1.55786">
        <ele>31.92461</ele>
        <time>2021-12-26T09:57:23.000Z</time>
      </trkpt>
      <trkpt lat="48.04224" lon="-1.55786">
        <ele>31.85746</ele>
        <time>2021-12-26T09:57:24.000Z</time>
      </trkpt>
      <trkpt lat="48.04221" lon="-1.55789">
        <ele>31.78665</ele>
        <time>2021-12-26T09:57:25.000Z</time>
      </trkpt>
      <trkpt lat="48.04219" lon="-1.55793">
        <ele>31.73495</ele>
        <time>2021-12-26T09:57:26.000Z</time>
      </trkpt>
      <trkpt lat="48.04216" lon="-1.55798">
        <ele>31.69473</ele>
        <time>2021-12-26T09:57:27.000Z</time>
      </trkpt>
      <trkpt lat="48.04214" lon="-1.55803">
        <ele>31.65882</ele>
        <time>2021-12-26T09:57:28.000Z</time>
      </trkpt>
      <trkpt lat="48.04211" lon="-1.55808">
        <ele>31.65095</ele>
        <time>2021-12-26T09:57:29.000Z</time>
      </trkpt>
      <trkpt lat="48.0421" lon="-1.55814">
        <ele>31.67022</ele>
        <time>2021-12-26T09:57:30.000Z</time>
      </trkpt>
      <trkpt lat="48.04207" lon="-1.5582">
        <ele>31.68506</ele>
        <time>2021-12-26T09:57:31.000Z</time>
      </trkpt>
      <trkpt lat="48.04205" lon="-1.55825">
        <ele>31.67406</ele>
        <time>2021-12-26T09:57:32.000Z</time>
      </trkpt>
      <trkpt lat="48.04202" lon="-1.55829">
        <ele>31.614</ele>
        <time>2021-12-26T09:57:33.000Z</time>
      </trkpt>
      <trkpt lat="48.04198" lon="-1.55832">
        <ele>31.50543</ele>
        <time>2021-12-26T09:57:34.000Z</time>
      </trkpt>
      <trkpt lat="48.04194" lon="-1.55834">
        <ele>31.36202</ele>
        <time>2021-12-26T09:57:35.000Z</time>
      </trkpt>
      <trkpt lat="48.0419" lon="-1.55837">
        <ele>31.21104</ele>
        <time>2021-12-26T09:57:36.000Z</time>
      </trkpt>
      <trkpt lat="48.04186" lon="-1.55839">
        <ele>31.06837</ele>
        <time>2021-12-26T09:57:37.000Z</time>
      </trkpt>
      <trkpt lat="48.04182" lon="-1.55841">
        <ele>30.95311</ele>
        <time>2021-12-26T09:57:38.000Z</time>
      </trkpt>
      <trkpt lat="48.04178" lon="-1.55845">
        <ele>30.85926</ele>
        <time>2021-12-26T09:57:39.000Z</time>
      </trkpt>
      <trkpt lat="48.04175" lon="-1.55848">
        <ele>30.81579</ele>
        <time>2021-12-26T09:57:40.000Z</time>
      </trkpt>
      <trkpt lat="48.04172" lon="-1.55852">
        <ele>30.82611</ele>
        <time>2021-12-26T09:57:41.000Z</time>
      </trkpt>
      <trkpt lat="48.04168" lon="-1.55856">
        <ele>30.88202</ele>
        <time>2021-12-26T09:57:42.000Z</time>
      </trkpt>
      <trkpt lat="48.04164" lon="-1.55857">
        <ele>30.95968</ele>
        <time>2021-12-26T09:57:43.000Z</time>
      </trkpt>
      <trkpt lat="48.0416" lon="-1.55856">
        <ele>30.98157</ele>
        <time>2021-12-26T09:57:44.000Z</time>
      </trkpt>
      <trkpt lat="48.04157" lon="-1.55852">
        <ele>30.94723</ele>
        <time>2021-12-26T09:57:45.000Z</time>
      </trkpt>
      <trkpt lat="48.04154" lon="-1.55848">
        <ele>30.88619</ele>
        <time>2021-12-26T09:57:46.000Z</time>
      </trkpt>
      <trkpt lat="48.04151" lon="-1.55844">
        <ele>30.82221</ele>
        <time>2021-12-26T09:57:47.000Z</time>
      </trkpt>
      <trkpt lat="48.04148" lon="-1.55839">
        <ele>30.7729</ele>
        <time>2021-12-26T09:57:48.000Z</time>
      </trkpt>
      <trkpt lat="48.04145" lon="-1.55834">
        <ele>30.75482</ele>
        <time>2021-12-26T09:57:49.000Z</time>
      </trkpt>
      <trkpt lat="48.04142" lon="-1.5583">
        <ele>30.77853</ele>
        <time>2021-12-26T09:57:50.000Z</time>
      </trkpt>
      <trkpt lat="48.0414" lon="-1.55825">
        <ele>30.8426</ele>
        <time>2021-12-26T09:57:51.000Z</time>
      </trkpt>
      <trkpt lat="48.04137" lon="-1.5582">
        <ele>30.93561</ele>
        <time>2021-12-26T09:57:52.000Z</time>
      </trkpt>
      <trkpt lat="48.04134" lon="-1.55816">
        <ele>31.0555</ele>
        <time>2021-12-26T09:57:53.000Z</time>
      </trkpt>
      <trkpt lat="48.04131" lon="-1.55812">
        <ele>31.19701</ele>
        <time>2021-12-26T09:57:54.000Z</time>
      </trkpt>
      <trkpt lat="48.04128" lon="-1.55808">
        <ele>31.40285</ele>
        <time>2021-12-26T09:57:55.000Z</time>
      </trkpt>
      <trkpt lat="48.04125" lon="-1.55804">
        <ele>31.60083</ele>
        <time>2021-12-26T09:57:56.000Z</time>
      </trkpt>
      <trkpt lat="48.04121" lon="-1.55802">
        <ele>31.77699</ele>
        <time>2021-12-26T09:57:57.000Z</time>
      </trkpt>
      <trkpt lat="48.04116" lon="-1.55801">
        <ele>31.96386</ele>
        <time>2021-12-26T09:57:58.000Z</time>
      </trkpt>
      <trkpt lat="48.04112" lon="-1.558">
        <ele>32.11473</ele>
        <time>2021-12-26T09:57:59.000Z</time>
      </trkpt>
      <trkpt lat="48.04108" lon="-1.558">
        <ele>32.18479</ele>
        <time>2021-12-26T09:58:00.000Z</time>
      </trkpt>
      <trkpt lat="48.04103" lon="-1.55801">
        <ele>32.19901</ele>
        <time>2021-12-26T09:58:01.000Z</time>
      </trkpt>
      <trkpt lat="48.04099" lon="-1.55803">
        <ele>32.17476</ele>
        <time>2021-12-26T09:58:02.000Z</time>
      </trkpt>
      <trkpt lat="48.04095" lon="-1.55805">
        <ele>32.12745</ele>
        <time>2021-12-26T09:58:03.000Z</time>
      </trkpt>
      <trkpt lat="48.04091" lon="-1.55808">
        <ele>31.96901</ele>
        <time>2021-12-26T09:58:04.000Z</time>
      </trkpt>
      <trkpt lat="48.04089" lon="-1.55813">
        <ele>31.623</ele>
        <time>2021-12-26T09:58:05.000Z</time>
      </trkpt>
      <trkpt lat="48.04087" lon="-1.55819">
        <ele>31.13239</ele>
        <time>2021-12-26T09:58:06.000Z</time>
      </trkpt>
      <trkpt lat="48.04086" lon="-1.55826">
        <ele>30.71098</ele>
        <time>2021-12-26T09:58:07.000Z</time>
      </trkpt>
      <trkpt lat="48.04085" lon="-1.55834">
        <ele>30.50865</ele>
        <time>2021-12-26T09:58:08.000Z</time>
      </trkpt>
      <trkpt lat="48.04083" lon="-1.55842">
        <ele>30.4811</ele>
        <time>2021-12-26T09:58:09.000Z</time>
      </trkpt>
      <trkpt lat="48.04081" lon="-1.55849">
        <ele>30.50376</ele>
        <time>2021-12-26T09:58:10.000Z</time>
      </trkpt>
      <trkpt lat="48.04079" lon="-1.55855">
        <ele>30.49917</ele>
        <time>2021-12-26T09:58:11.000Z</time>
      </trkpt>
      <trkpt lat="48.04076" lon="-1.55861">
        <ele>30.47992</ele>
        <time>2021-12-26T09:58:12.000Z</time>
      </trkpt>
      <trkpt lat="48.04073" lon="-1.55867">
        <ele>30.4912</ele>
        <time>2021-12-26T09:58:13.000Z</time>
      </trkpt>
      <trkpt lat="48.0407" lon="-1.55871">
        <ele>30.51341</ele>
        <time>2021-12-26T09:58:14.000Z</time>
      </trkpt>
      <trkpt lat="48.04066" lon="-1.55873">
        <ele>30.53998</ele>
        <time>2021-12-26T09:58:15.000Z</time>
      </trkpt>
      <trkpt lat="48.04062" lon="-1.55876">
        <ele>30.53858</ele>
        <time>2021-12-26T09:58:16.000Z</time>
      </trkpt>
      <trkpt lat="48.04059" lon="-1.55879">
        <ele>30.50807</ele>
        <time>2021-12-26T09:58:17.000Z</time>
      </trkpt>
      <trkpt lat="48.04055" lon="-1.55883">
        <ele>30.46306</ele>
        <time>2021-12-26T09:58:18.000Z</time>
      </trkpt>
      <trkpt lat="48.04052" lon="-1.55886">
        <ele>30.3999</ele>
        <time>2021-12-26T09:58:19.000Z</time>
      </trkpt>
      <trkpt lat="48.04048" lon="-1.5589">
        <ele>30.32675</ele>
        <time>2021-12-26T09:58:20.000Z</time>
      </trkpt>
      <trkpt lat="48.04044" lon="-1.55892">
        <ele>30.30469</ele>
        <time>2021-12-26T09:58:21.000Z</time>
      </trkpt>
      <trkpt lat="48.04041" lon="-1.5589">
        <ele>30.36719</ele>
        <time>2021-12-26T09:58:22.000Z</time>
      </trkpt>
      <trkpt lat="48.04038" lon="-1.55887">
        <ele>30.4993</ele>
        <time>2021-12-26T09:58:23.000Z</time>
      </trkpt>
      <trkpt lat="48.04035" lon="-1.55883">
        <ele>30.70955</ele>
        <time>2021-12-26T09:58:24.000Z</time>
      </trkpt>
      <trkpt lat="48.04033" lon="-1.55879">
        <ele>31.01651</ele>
        <time>2021-12-26T09:58:25.000Z</time>
      </trkpt>
      <trkpt lat="48.04031" lon="-1.55874">
        <ele>31.4061</ele>
        <time>2021-12-26T09:58:26.000Z</time>
      </trkpt>
      <trkpt lat="48.04029" lon="-1.5587">
        <ele>31.85881</ele>
        <time>2021-12-26T09:58:27.000Z</time>
      </trkpt>
      <trkpt lat="48.04027" lon="-1.55866">
        <ele>32.30503</ele>
        <time>2021-12-26T09:58:28.000Z</time>
      </trkpt>
      <trkpt lat="48.04025" lon="-1.55862">
        <ele>32.72571</ele>
        <time>2021-12-26T09:58:29.000Z</time>
      </trkpt>
      <trkpt lat="48.04023" lon="-1.55859">
        <ele>33.10745</ele>
        <time>2021-12-26T09:58:30.000Z</time>
      </trkpt>
      <trkpt lat="48.04021" lon="-1.55855">
        <ele>33.40939</ele>
        <time>2021-12-26T09:58:31.000Z</time>
      </trkpt>
      <trkpt lat="48.04019" lon="-1.55851">
        <ele>33.67596</ele>
        <time>2021-12-26T09:58:32.000Z</time>
      </trkpt>
      <trkpt lat="48.04017" lon="-1.55848">
        <ele>33.82726</ele>
        <time>2021-12-26T09:58:33.000Z</time>
      </trkpt>
      <trkpt lat="48.04017" lon="-1.55848">
        <ele>33.82726</ele>
        <time>2021-12-26T09:58:33.000Z</time>
      </trkpt>
      <trkpt lat="48.04015" lon="-1.55846">
        <ele>33.9042</ele>
        <time>2021-12-26T09:58:34.000Z</time>
      </trkpt>
      <trkpt lat="48.04014" lon="-1.55843">
        <ele>34.03316</ele>
        <time>2021-12-26T09:58:35.000Z</time>
      </trkpt>
      <trkpt lat="48.04013" lon="-1.5584">
        <ele>34.18101</ele>
        <time>2021-12-26T09:58:36.000Z</time>
      </trkpt>
      <trkpt lat="48.04011" lon="-1.55836">
        <ele>34.34723</ele>
        <time>2021-12-26T09:58:37.000Z</time>
      </trkpt>
      <trkpt lat="48.0401" lon="-1.55834">
        <ele>34.4517</ele>
        <time>2021-12-26T09:58:38.000Z</time>
      </trkpt>
      <trkpt lat="48.04008" lon="-1.5583">
        <ele>34.59686</ele>
        <time>2021-12-26T09:58:39.000Z</time>
      </trkpt>
      <trkpt lat="48.04007" lon="-1.55827">
        <ele>34.77006</ele>
        <time>2021-12-26T09:58:40.000Z</time>
      </trkpt>
      <trkpt lat="48.04007" lon="-1.55823">
        <ele>34.92539</ele>
        <time>2021-12-26T09:58:41.000Z</time>
      </trkpt>
      <trkpt lat="48.04005" lon="-1.5582">
        <ele>35.07293</ele>
        <time>2021-12-26T09:58:42.000Z</time>
      </trkpt>
      <trkpt lat="48.04005" lon="-1.55816">
        <ele>35.21241</ele>
        <time>2021-12-26T09:58:43.000Z</time>
      </trkpt>
      <trkpt lat="48.04004" lon="-1.55813">
        <ele>35.31744</ele>
        <time>2021-12-26T09:58:44.000Z</time>
      </trkpt>
      <trkpt lat="48.04003" lon="-1.55809">
        <ele>35.39292</ele>
        <time>2021-12-26T09:58:45.000Z</time>
      </trkpt>
      <trkpt lat="48.04003" lon="-1.55806">
        <ele>35.44878</ele>
        <time>2021-12-26T09:58:46.000Z</time>
      </trkpt>
      <trkpt lat="48.04002" lon="-1.55803">
        <ele>35.47967</ele>
        <time>2021-12-26T09:58:47.000Z</time>
      </trkpt>
      <trkpt lat="48.04001" lon="-1.55799">
        <ele>35.52081</ele>
        <time>2021-12-26T09:58:48.000Z</time>
      </trkpt>
      <trkpt lat="48.04" lon="-1.55795">
        <ele>35.55093</ele>
        <time>2021-12-26T09:58:49.000Z</time>
      </trkpt>
      <trkpt lat="48.03999" lon="-1.55791">
        <ele>35.5926</ele>
        <time>2021-12-26T09:58:50.000Z</time>
      </trkpt>
      <trkpt lat="48.03998" lon="-1.55787">
        <ele>35.64408</ele>
        <time>2021-12-26T09:58:51.000Z</time>
      </trkpt>
      <trkpt lat="48.03998" lon="-1.55783">
        <ele>35.71097</ele>
        <time>2021-12-26T09:58:52.000Z</time>
      </trkpt>
      <trkpt lat="48.03997" lon="-1.55779">
        <ele>35.79539</ele>
        <time>2021-12-26T09:58:53.000Z</time>
      </trkpt>
      <trkpt lat="48.03997" lon="-1.55775">
        <ele>35.88725</ele>
        <time>2021-12-26T09:58:54.000Z</time>
      </trkpt>
      <trkpt lat="48.03997" lon="-1.5577">
        <ele>36.00107</ele>
        <time>2021-12-26T09:58:55.000Z</time>
      </trkpt>
      <trkpt lat="48.03996" lon="-1.55767">
        <ele>36.08532</ele>
        <time>2021-12-26T09:58:56.000Z</time>
      </trkpt>
      <trkpt lat="48.03997" lon="-1.55763">
        <ele>36.20633</ele>
        <time>2021-12-26T09:58:57.000Z</time>
      </trkpt>
      <trkpt lat="48.03997" lon="-1.55759">
        <ele>36.31545</ele>
        <time>2021-12-26T09:58:58.000Z</time>
      </trkpt>
      <trkpt lat="48.03997" lon="-1.55755">
        <ele>36.4104</ele>
        <time>2021-12-26T09:58:59.000Z</time>
      </trkpt>
      <trkpt lat="48.03997" lon="-1.55752">
        <ele>36.50539</ele>
        <time>2021-12-26T09:59:00.000Z</time>
      </trkpt>
      <trkpt lat="48.03997" lon="-1.55748">
        <ele>36.62783</ele>
        <time>2021-12-26T09:59:01.000Z</time>
      </trkpt>
      <trkpt lat="48.03998" lon="-1.55744">
        <ele>36.77734</ele>
        <time>2021-12-26T09:59:02.000Z</time>
      </trkpt>
      <trkpt lat="48.03998" lon="-1.55741">
        <ele>36.88921</ele>
        <time>2021-12-26T09:59:03.000Z</time>
      </trkpt>
      <trkpt lat="48.03999" lon="-1.55734">
        <ele>37.19806</ele>
        <time>2021-12-26T09:59:05.000Z</time>
      </trkpt>
      <trkpt lat="48.04" lon="-1.5573">
        <ele>37.35813</ele>
        <time>2021-12-26T09:59:06.000Z</time>
      </trkpt>
      <trkpt lat="48.04001" lon="-1.55726">
        <ele>37.56764</ele>
        <time>2021-12-26T09:59:07.000Z</time>
      </trkpt>
      <trkpt lat="48.04002" lon="-1.55723">
        <ele>37.71887</ele>
        <time>2021-12-26T09:59:08.000Z</time>
      </trkpt>
      <trkpt lat="48.04003" lon="-1.55719">
        <ele>37.87159</ele>
        <time>2021-12-26T09:59:09.000Z</time>
      </trkpt>
      <trkpt lat="48.04003" lon="-1.55715">
        <ele>37.98477</ele>
        <time>2021-12-26T09:59:10.000Z</time>
      </trkpt>
      <trkpt lat="48.04004" lon="-1.55711">
        <ele>38.11139</ele>
        <time>2021-12-26T09:59:11.000Z</time>
      </trkpt>
      <trkpt lat="48.04005" lon="-1.55707">
        <ele>38.21279</ele>
        <time>2021-12-26T09:59:12.000Z</time>
      </trkpt>
      <trkpt lat="48.04006" lon="-1.55704">
        <ele>38.28637</ele>
        <time>2021-12-26T09:59:13.000Z</time>
      </trkpt>
      <trkpt lat="48.04007" lon="-1.557">
        <ele>38.36552</ele>
        <time>2021-12-26T09:59:14.000Z</time>
      </trkpt>
      <trkpt lat="48.04008" lon="-1.55696">
        <ele>38.42181</ele>
        <time>2021-12-26T09:59:15.000Z</time>
      </trkpt>
      <trkpt lat="48.04009" lon="-1.55692">
        <ele>38.4696</ele>
        <time>2021-12-26T09:59:16.000Z</time>
      </trkpt>
      <trkpt lat="48.04011" lon="-1.55689">
        <ele>38.5459</ele>
        <time>2021-12-26T09:59:17.000Z</time>
      </trkpt>
      <trkpt lat="48.04012" lon="-1.55685">
        <ele>38.61361</ele>
        <time>2021-12-26T09:59:18.000Z</time>
      </trkpt>
      <trkpt lat="48.04013" lon="-1.55682">
        <ele>38.66767</ele>
        <time>2021-12-26T09:59:19.000Z</time>
      </trkpt>
      <trkpt lat="48.04015" lon="-1.55677">
        <ele>38.72733</ele>
        <time>2021-12-26T09:59:20.000Z</time>
      </trkpt>
      <trkpt lat="48.04016" lon="-1.55673">
        <ele>38.77026</ele>
        <time>2021-12-26T09:59:21.000Z</time>
      </trkpt>
      <trkpt lat="48.04018" lon="-1.55669">
        <ele>38.79493</ele>
        <time>2021-12-26T09:59:22.000Z</time>
      </trkpt>
      <trkpt lat="48.0402" lon="-1.55664">
        <ele>38.82603</ele>
        <time>2021-12-26T09:59:23.000Z</time>
      </trkpt>
      <trkpt lat="48.04021" lon="-1.5566">
        <ele>38.83833</ele>
        <time>2021-12-26T09:59:24.000Z</time>
      </trkpt>
      <trkpt lat="48.04023" lon="-1.55656">
        <ele>38.85101</ele>
        <time>2021-12-26T09:59:25.000Z</time>
      </trkpt>
      <trkpt lat="48.04024" lon="-1.55651">
        <ele>38.8737</ele>
        <time>2021-12-26T09:59:26.000Z</time>
      </trkpt>
      <trkpt lat="48.04026" lon="-1.55646">
        <ele>38.90903</ele>
        <time>2021-12-26T09:59:27.000Z</time>
      </trkpt>
      <trkpt lat="48.04026" lon="-1.55642">
        <ele>38.94917</ele>
        <time>2021-12-26T09:59:28.000Z</time>
      </trkpt>
      <trkpt lat="48.04027" lon="-1.55637">
        <ele>38.9956</ele>
        <time>2021-12-26T09:59:29.000Z</time>
      </trkpt>
      <trkpt lat="48.04026" lon="-1.55632">
        <ele>39.03125</ele>
        <time>2021-12-26T09:59:30.000Z</time>
      </trkpt>
      <trkpt lat="48.04025" lon="-1.55628">
        <ele>39.06374</ele>
        <time>2021-12-26T09:59:31.000Z</time>
      </trkpt>
      <trkpt lat="48.04025" lon="-1.55628">
        <ele>39.06374</ele>
        <time>2021-12-26T09:59:31.000Z</time>
      </trkpt>
      <trkpt lat="48.04023" lon="-1.55624">
        <ele>39.07207</ele>
        <time>2021-12-26T09:59:32.000Z</time>
      </trkpt>
      <trkpt lat="48.04021" lon="-1.55621">
        <ele>39.08623</ele>
        <time>2021-12-26T09:59:33.000Z</time>
      </trkpt>
      <trkpt lat="48.04018" lon="-1.55619">
        <ele>39.09635</ele>
        <time>2021-12-26T09:59:34.000Z</time>
      </trkpt>
      <trkpt lat="48.04015" lon="-1.55618">
        <ele>39.12123</ele>
        <time>2021-12-26T09:59:35.000Z</time>
      </trkpt>
      <trkpt lat="48.04012" lon="-1.55616">
        <ele>39.1713</ele>
        <time>2021-12-26T09:59:36.000Z</time>
      </trkpt>
      <trkpt lat="48.0401" lon="-1.55614">
        <ele>39.25171</ele>
        <time>2021-12-26T09:59:37.000Z</time>
      </trkpt>
      <trkpt lat="48.04007" lon="-1.55612">
        <ele>39.36143</ele>
        <time>2021-12-26T09:59:38.000Z</time>
      </trkpt>
      <trkpt lat="48.04004" lon="-1.55611">
        <ele>39.48021</ele>
        <time>2021-12-26T09:59:39.000Z</time>
      </trkpt>
      <trkpt lat="48.04001" lon="-1.55609">
        <ele>39.61071</ele>
        <time>2021-12-26T09:59:40.000Z</time>
      </trkpt>
      <trkpt lat="48.03998" lon="-1.55608">
        <ele>39.73927</ele>
        <time>2021-12-26T09:59:41.000Z</time>
      </trkpt>
      <trkpt lat="48.03995" lon="-1.55606">
        <ele>39.87883</ele>
        <time>2021-12-26T09:59:42.000Z</time>
      </trkpt>
      <trkpt lat="48.03993" lon="-1.55603">
        <ele>40.02097</ele>
        <time>2021-12-26T09:59:43.000Z</time>
      </trkpt>
      <trkpt lat="48.0399" lon="-1.55601">
        <ele>40.14764</ele>
        <time>2021-12-26T09:59:44.000Z</time>
      </trkpt>
      <trkpt lat="48.03988" lon="-1.55598">
        <ele>40.26203</ele>
        <time>2021-12-26T09:59:45.000Z</time>
      </trkpt>
      <trkpt lat="48.03986" lon="-1.55596">
        <ele>40.37195</ele>
        <time>2021-12-26T09:59:46.000Z</time>
      </trkpt>
      <trkpt lat="48.03984" lon="-1.55593">
        <ele>40.47538</ele>
        <time>2021-12-26T09:59:47.000Z</time>
      </trkpt>
      <trkpt lat="48.03982" lon="-1.5559">
        <ele>40.57577</ele>
        <time>2021-12-26T09:59:48.000Z</time>
      </trkpt>
      <trkpt lat="48.0398" lon="-1.55587">
        <ele>40.66735</ele>
        <time>2021-12-26T09:59:49.000Z</time>
      </trkpt>
      <trkpt lat="48.03978" lon="-1.55585">
        <ele>40.76626</ele>
        <time>2021-12-26T09:59:50.000Z</time>
      </trkpt>
      <trkpt lat="48.03976" lon="-1.55582">
        <ele>40.87291</ele>
        <time>2021-12-26T09:59:51.000Z</time>
      </trkpt>
      <trkpt lat="48.03974" lon="-1.55579">
        <ele>40.99874</ele>
        <time>2021-12-26T09:59:52.000Z</time>
      </trkpt>
      <trkpt lat="48.03972" lon="-1.55576">
        <ele>41.13512</ele>
        <time>2021-12-26T09:59:53.000Z</time>
      </trkpt>
      <trkpt lat="48.0397" lon="-1.55572">
        <ele>41.29675</ele>
        <time>2021-12-26T09:59:54.000Z</time>
      </trkpt>
      <trkpt lat="48.03968" lon="-1.55569">
        <ele>41.47044</ele>
        <time>2021-12-26T09:59:55.000Z</time>
      </trkpt>
      <trkpt lat="48.03967" lon="-1.55566">
        <ele>41.6451</ele>
        <time>2021-12-26T09:59:56.000Z</time>
      </trkpt>
      <trkpt lat="48.03965" lon="-1.55563">
        <ele>41.81462</ele>
        <time>2021-12-26T09:59:57.000Z</time>
      </trkpt>
      <trkpt lat="48.03963" lon="-1.5556">
        <ele>41.99773</ele>
        <time>2021-12-26T09:59:58.000Z</time>
      </trkpt>
      <trkpt lat="48.03961" lon="-1.55557">
        <ele>42.14805</ele>
        <time>2021-12-26T09:59:59.000Z</time>
      </trkpt>
      <trkpt lat="48.0396" lon="-1.55554">
        <ele>42.2849</ele>
        <time>2021-12-26T10:00:00.000Z</time>
      </trkpt>
      <trkpt lat="48.03958" lon="-1.55552">
        <ele>42.40035</ele>
        <time>2021-12-26T10:00:01.000Z</time>
      </trkpt>
      <trkpt lat="48.03957" lon="-1.55549">
        <ele>42.5248</ele>
        <time>2021-12-26T10:00:02.000Z</time>
      </trkpt>
      <trkpt lat="48.03955" lon="-1.55547">
        <ele>42.65944</ele>
        <time>2021-12-26T10:00:03.000Z</time>
      </trkpt>
      <trkpt lat="48.03953" lon="-1.55545">
        <ele>42.81946</ele>
        <time>2021-12-26T10:00:04.000Z</time>
      </trkpt>
      <trkpt lat="48.03951" lon="-1.55542">
        <ele>43.02222</ele>
        <time>2021-12-26T10:00:05.000Z</time>
      </trkpt>
      <trkpt lat="48.03949" lon="-1.5554">
        <ele>43.26453</ele>
        <time>2021-12-26T10:00:06.000Z</time>
      </trkpt>
      <trkpt lat="48.03947" lon="-1.55537">
        <ele>43.51908</ele>
        <time>2021-12-26T10:00:07.000Z</time>
      </trkpt>
      <trkpt lat="48.03945" lon="-1.55535">
        <ele>43.82581</ele>
        <time>2021-12-26T10:00:08.000Z</time>
      </trkpt>
      <trkpt lat="48.03944" lon="-1.55532">
        <ele>44.12077</ele>
        <time>2021-12-26T10:00:09.000Z</time>
      </trkpt>
      <trkpt lat="48.03942" lon="-1.5553">
        <ele>44.41916</ele>
        <time>2021-12-26T10:00:10.000Z</time>
      </trkpt>
      <trkpt lat="48.0394" lon="-1.55527">
        <ele>44.69945</ele>
        <time>2021-12-26T10:00:11.000Z</time>
      </trkpt>
      <trkpt lat="48.03939" lon="-1.55524">
        <ele>44.93774</ele>
        <time>2021-12-26T10:00:12.000Z</time>
      </trkpt>
      <trkpt lat="48.03937" lon="-1.55521">
        <ele>45.13048</ele>
        <time>2021-12-26T10:00:13.000Z</time>
      </trkpt>
      <trkpt lat="48.03936" lon="-1.55519">
        <ele>45.29165</ele>
        <time>2021-12-26T10:00:14.000Z</time>
      </trkpt>
      <trkpt lat="48.03935" lon="-1.55515">
        <ele>45.41948</ele>
        <time>2021-12-26T10:00:15.000Z</time>
      </trkpt>
      <trkpt lat="48.03934" lon="-1.55512">
        <ele>45.5217</ele>
        <time>2021-12-26T10:00:16.000Z</time>
      </trkpt>
      <trkpt lat="48.03934" lon="-1.55509">
        <ele>45.62231</ele>
        <time>2021-12-26T10:00:17.000Z</time>
      </trkpt>
      <trkpt lat="48.03933" lon="-1.55505">
        <ele>45.73489</ele>
        <time>2021-12-26T10:00:18.000Z</time>
      </trkpt>
      <trkpt lat="48.03932" lon="-1.55502">
        <ele>45.84062</ele>
        <time>2021-12-26T10:00:19.000Z</time>
      </trkpt>
      <trkpt lat="48.03932" lon="-1.55499">
        <ele>45.97153</ele>
        <time>2021-12-26T10:00:20.000Z</time>
      </trkpt>
      <trkpt lat="48.0393" lon="-1.55496">
        <ele>46.13097</ele>
        <time>2021-12-26T10:00:21.000Z</time>
      </trkpt>
      <trkpt lat="48.03928" lon="-1.55497">
        <ele>46.20874</ele>
        <time>2021-12-26T10:00:22.000Z</time>
      </trkpt>
      <trkpt lat="48.03926" lon="-1.55498">
        <ele>46.30032</ele>
        <time>2021-12-26T10:00:23.000Z</time>
      </trkpt>
      <trkpt lat="48.03924" lon="-1.555">
        <ele>46.37137</ele>
        <time>2021-12-26T10:00:24.000Z</time>
      </trkpt>
      <trkpt lat="48.03921" lon="-1.55501">
        <ele>46.46685</ele>
        <time>2021-12-26T10:00:25.000Z</time>
      </trkpt>
      <trkpt lat="48.03919" lon="-1.55504">
        <ele>46.57318</ele>
        <time>2021-12-26T10:00:26.000Z</time>
      </trkpt>
      <trkpt lat="48.03917" lon="-1.55506">
        <ele>46.70643</ele>
        <time>2021-12-26T10:00:27.000Z</time>
      </trkpt>
      <trkpt lat="48.03915" lon="-1.55508">
        <ele>46.87992</ele>
        <time>2021-12-26T10:00:28.000Z</time>
      </trkpt>
      <trkpt lat="48.03913" lon="-1.55509">
        <ele>47.07519</ele>
        <time>2021-12-26T10:00:29.000Z</time>
      </trkpt>
      <trkpt lat="48.0391" lon="-1.55511">
        <ele>47.27725</ele>
        <time>2021-12-26T10:00:30.000Z</time>
      </trkpt>
      <trkpt lat="48.03908" lon="-1.55511">
        <ele>47.46521</ele>
        <time>2021-12-26T10:00:31.000Z</time>
      </trkpt>
      <trkpt lat="48.03905" lon="-1.55512">
        <ele>47.63164</ele>
        <time>2021-12-26T10:00:32.000Z</time>
      </trkpt>
      <trkpt lat="48.03903" lon="-1.55512">
        <ele>47.76909</ele>
        <time>2021-12-26T10:00:33.000Z</time>
      </trkpt>
      <trkpt lat="48.039" lon="-1.55512">
        <ele>47.86393</ele>
        <time>2021-12-26T10:00:34.000Z</time>
      </trkpt>
      <trkpt lat="48.03898" lon="-1.55512">
        <ele>47.93103</ele>
        <time>2021-12-26T10:00:35.000Z</time>
      </trkpt>
      <trkpt lat="48.03895" lon="-1.55511">
        <ele>47.97477</ele>
        <time>2021-12-26T10:00:36.000Z</time>
      </trkpt>
      <trkpt lat="48.03893" lon="-1.5551">
        <ele>48.01043</ele>
        <time>2021-12-26T10:00:37.000Z</time>
      </trkpt>
      <trkpt lat="48.03891" lon="-1.55508">
        <ele>48.05379</ele>
        <time>2021-12-26T10:00:38.000Z</time>
      </trkpt>
      <trkpt lat="48.03889" lon="-1.55505">
        <ele>48.12318</ele>
        <time>2021-12-26T10:00:39.000Z</time>
      </trkpt>
      <trkpt lat="48.03887" lon="-1.55503">
        <ele>48.22699</ele>
        <time>2021-12-26T10:00:40.000Z</time>
      </trkpt>
      <trkpt lat="48.03885" lon="-1.555">
        <ele>48.3712</ele>
        <time>2021-12-26T10:00:41.000Z</time>
      </trkpt>
      <trkpt lat="48.03884" lon="-1.55498">
        <ele>48.55276</ele>
        <time>2021-12-26T10:00:42.000Z</time>
      </trkpt>
      <trkpt lat="48.03882" lon="-1.55495">
        <ele>48.778</ele>
        <time>2021-12-26T10:00:43.000Z</time>
      </trkpt>
      <trkpt lat="48.0388" lon="-1.55493">
        <ele>49.03315</ele>
        <time>2021-12-26T10:00:44.000Z</time>
      </trkpt>
      <trkpt lat="48.03878" lon="-1.55491">
        <ele>49.31226</ele>
        <time>2021-12-26T10:00:45.000Z</time>
      </trkpt>
      <trkpt lat="48.03877" lon="-1.55488">
        <ele>49.58807</ele>
        <time>2021-12-26T10:00:46.000Z</time>
      </trkpt>
      <trkpt lat="48.03875" lon="-1.55485">
        <ele>49.84013</ele>
        <time>2021-12-26T10:00:47.000Z</time>
      </trkpt>
      <trkpt lat="48.03873" lon="-1.55482">
        <ele>50.08125</ele>
        <time>2021-12-26T10:00:48.000Z</time>
      </trkpt>
      <trkpt lat="48.03872" lon="-1.5548">
        <ele>50.28598</ele>
        <time>2021-12-26T10:00:49.000Z</time>
      </trkpt>
      <trkpt lat="48.03871" lon="-1.55476">
        <ele>50.47075</ele>
        <time>2021-12-26T10:00:50.000Z</time>
      </trkpt>
      <trkpt lat="48.03869" lon="-1.55473">
        <ele>50.63116</ele>
        <time>2021-12-26T10:00:51.000Z</time>
      </trkpt>
      <trkpt lat="48.03867" lon="-1.5547">
        <ele>50.76536</ele>
        <time>2021-12-26T10:00:52.000Z</time>
      </trkpt>
      <trkpt lat="48.03866" lon="-1.55467">
        <ele>50.89873</ele>
        <time>2021-12-26T10:00:53.000Z</time>
      </trkpt>
      <trkpt lat="48.03864" lon="-1.55464">
        <ele>51.04249</ele>
        <time>2021-12-26T10:00:54.000Z</time>
      </trkpt>
      <trkpt lat="48.03863" lon="-1.55461">
        <ele>51.19868</ele>
        <time>2021-12-26T10:00:55.000Z</time>
      </trkpt>
      <trkpt lat="48.03861" lon="-1.55458">
        <ele>51.36651</ele>
        <time>2021-12-26T10:00:56.000Z</time>
      </trkpt>
      <trkpt lat="48.0386" lon="-1.55455">
        <ele>51.55209</ele>
        <time>2021-12-26T10:00:57.000Z</time>
      </trkpt>
      <trkpt lat="48.03858" lon="-1.55452">
        <ele>51.74774</ele>
        <time>2021-12-26T10:00:58.000Z</time>
      </trkpt>
      <trkpt lat="48.03856" lon="-1.5545">
        <ele>51.92941</ele>
        <time>2021-12-26T10:00:59.000Z</time>
      </trkpt>
      <trkpt lat="48.03855" lon="-1.55446">
        <ele>52.13748</ele>
        <time>2021-12-26T10:01:00.000Z</time>
      </trkpt>
      <trkpt lat="48.03853" lon="-1.55444">
        <ele>52.29582</ele>
        <time>2021-12-26T10:01:01.000Z</time>
      </trkpt>
      <trkpt lat="48.03851" lon="-1.55442">
        <ele>52.45065</ele>
        <time>2021-12-26T10:01:02.000Z</time>
      </trkpt>
      <trkpt lat="48.0385" lon="-1.5544">
        <ele>52.58584</ele>
        <time>2021-12-26T10:01:03.000Z</time>
      </trkpt>
      <trkpt lat="48.03849" lon="-1.55438">
        <ele>52.69801</ele>
        <time>2021-12-26T10:01:04.000Z</time>
      </trkpt>
      <trkpt lat="48.03848" lon="-1.55435">
        <ele>52.80953</ele>
        <time>2021-12-26T10:01:05.000Z</time>
      </trkpt>
      <trkpt lat="48.03846" lon="-1.55433">
        <ele>52.90909</ele>
        <time>2021-12-26T10:01:06.000Z</time>
      </trkpt>
      <trkpt lat="48.03845" lon="-1.55431">
        <ele>53.01864</ele>
        <time>2021-12-26T10:01:07.000Z</time>
      </trkpt>
      <trkpt lat="48.03844" lon="-1.55429">
        <ele>53.12086</ele>
        <time>2021-12-26T10:01:08.000Z</time>
      </trkpt>
      <trkpt lat="48.03842" lon="-1.55427">
        <ele>53.23047</ele>
        <time>2021-12-26T10:01:09.000Z</time>
      </trkpt>
      <trkpt lat="48.03841" lon="-1.55424">
        <ele>53.34435</ele>
        <time>2021-12-26T10:01:10.000Z</time>
      </trkpt>
      <trkpt lat="48.0384" lon="-1.55421">
        <ele>53.46704</ele>
        <time>2021-12-26T10:01:11.000Z</time>
      </trkpt>
      <trkpt lat="48.0384" lon="-1.55421">
        <ele>53.46704</ele>
        <time>2021-12-26T10:01:11.000Z</time>
      </trkpt>
      <trkpt lat="48.0384" lon="-1.55418">
        <ele>53.57724</ele>
        <time>2021-12-26T10:01:12.000Z</time>
      </trkpt>
      <trkpt lat="48.0384" lon="-1.55415">
        <ele>53.68204</ele>
        <time>2021-12-26T10:01:13.000Z</time>
      </trkpt>
      <trkpt lat="48.03841" lon="-1.55411">
        <ele>53.76807</ele>
        <time>2021-12-26T10:01:14.000Z</time>
      </trkpt>
      <trkpt lat="48.03841" lon="-1.55408">
        <ele>53.87073</ele>
        <time>2021-12-26T10:01:15.000Z</time>
      </trkpt>
      <trkpt lat="48.03842" lon="-1.55404">
        <ele>53.95693</ele>
        <time>2021-12-26T10:01:16.000Z</time>
      </trkpt>
      <trkpt lat="48.03843" lon="-1.55401">
        <ele>54.028</ele>
        <time>2021-12-26T10:01:17.000Z</time>
      </trkpt>
      <trkpt lat="48.03843" lon="-1.55396">
        <ele>54.11276</ele>
        <time>2021-12-26T10:01:18.000Z</time>
      </trkpt>
      <trkpt lat="48.03844" lon="-1.55393">
        <ele>54.17993</ele>
        <time>2021-12-26T10:01:19.000Z</time>
      </trkpt>
      <trkpt lat="48.03844" lon="-1.55389">
        <ele>54.25067</ele>
        <time>2021-12-26T10:01:20.000Z</time>
      </trkpt>
      <trkpt lat="48.03845" lon="-1.55385">
        <ele>54.30474</ele>
        <time>2021-12-26T10:01:21.000Z</time>
      </trkpt>
      <trkpt lat="48.03846" lon="-1.55381">
        <ele>54.35197</ele>
        <time>2021-12-26T10:01:22.000Z</time>
      </trkpt>
      <trkpt lat="48.03846" lon="-1.55377">
        <ele>54.43418</ele>
        <time>2021-12-26T10:01:23.000Z</time>
      </trkpt>
      <trkpt lat="48.03845" lon="-1.55374">
        <ele>54.55213</ele>
        <time>2021-12-26T10:01:24.000Z</time>
      </trkpt>
      <trkpt lat="48.03844" lon="-1.5537">
        <ele>54.69856</ele>
        <time>2021-12-26T10:01:25.000Z</time>
      </trkpt>
      <trkpt lat="48.03843" lon="-1.55366">
        <ele>54.85322</ele>
        <time>2021-12-26T10:01:26.000Z</time>
      </trkpt>
      <trkpt lat="48.03842" lon="-1.55363">
        <ele>55.02607</ele>
        <time>2021-12-26T10:01:27.000Z</time>
      </trkpt>
      <trkpt lat="48.03841" lon="-1.55359">
        <ele>55.19884</ele>
        <time>2021-12-26T10:01:28.000Z</time>
      </trkpt>
      <trkpt lat="48.03839" lon="-1.55356">
        <ele>55.35887</ele>
        <time>2021-12-26T10:01:29.000Z</time>
      </trkpt>
      <trkpt lat="48.03838" lon="-1.55353">
        <ele>55.51138</ele>
        <time>2021-12-26T10:01:30.000Z</time>
      </trkpt>
      <trkpt lat="48.03837" lon="-1.5535">
        <ele>55.65112</ele>
        <time>2021-12-26T10:01:31.000Z</time>
      </trkpt>
      <trkpt lat="48.03836" lon="-1.55347">
        <ele>55.78556</ele>
        <time>2021-12-26T10:01:32.000Z</time>
      </trkpt>
      <trkpt lat="48.03834" lon="-1.55344">
        <ele>55.90843</ele>
        <time>2021-12-26T10:01:33.000Z</time>
      </trkpt>
      <trkpt lat="48.03833" lon="-1.55341">
        <ele>56.00194</ele>
        <time>2021-12-26T10:01:34.000Z</time>
      </trkpt>
      <trkpt lat="48.03832" lon="-1.55338">
        <ele>56.09937</ele>
        <time>2021-12-26T10:01:35.000Z</time>
      </trkpt>
      <trkpt lat="48.0383" lon="-1.55335">
        <ele>56.18515</ele>
        <time>2021-12-26T10:01:36.000Z</time>
      </trkpt>
      <trkpt lat="48.03829" lon="-1.55332">
        <ele>56.25533</ele>
        <time>2021-12-26T10:01:37.000Z</time>
      </trkpt>
      <trkpt lat="48.03829" lon="-1.55329">
        <ele>56.30392</ele>
        <time>2021-12-26T10:01:38.000Z</time>
      </trkpt>
      <trkpt lat="48.03829" lon="-1.55325">
        <ele>56.34089</ele>
        <time>2021-12-26T10:01:39.000Z</time>
      </trkpt>
      <trkpt lat="48.03829" lon="-1.55321">
        <ele>56.35835</ele>
        <time>2021-12-26T10:01:40.000Z</time>
      </trkpt>
      <trkpt lat="48.03829" lon="-1.55317">
        <ele>56.36524</ele>
        <time>2021-12-26T10:01:41.000Z</time>
      </trkpt>
      <trkpt lat="48.03829" lon="-1.55312">
        <ele>56.36189</ele>
        <time>2021-12-26T10:01:42.000Z</time>
      </trkpt>
      <trkpt lat="48.03829" lon="-1.55308">
        <ele>56.35194</ele>
        <time>2021-12-26T10:01:43.000Z</time>
      </trkpt>
      <trkpt lat="48.0383" lon="-1.55304">
        <ele>56.34002</ele>
        <time>2021-12-26T10:01:44.000Z</time>
      </trkpt>
      <trkpt lat="48.0383" lon="-1.553">
        <ele>56.32925</ele>
        <time>2021-12-26T10:01:45.000Z</time>
      </trkpt>
      <trkpt lat="48.03831" lon="-1.55296">
        <ele>56.32414</ele>
        <time>2021-12-26T10:01:46.000Z</time>
      </trkpt>
      <trkpt lat="48.03832" lon="-1.55292">
        <ele>56.31409</ele>
        <time>2021-12-26T10:01:47.000Z</time>
      </trkpt>
      <trkpt lat="48.03832" lon="-1.55287">
        <ele>56.29774</ele>
        <time>2021-12-26T10:01:48.000Z</time>
      </trkpt>
      <trkpt lat="48.03833" lon="-1.55283">
        <ele>56.27933</ele>
        <time>2021-12-26T10:01:49.000Z</time>
      </trkpt>
      <trkpt lat="48.03834" lon="-1.55279">
        <ele>56.26249</ele>
        <time>2021-12-26T10:01:50.000Z</time>
      </trkpt>
      <trkpt lat="48.03835" lon="-1.55274">
        <ele>56.25097</ele>
        <time>2021-12-26T10:01:51.000Z</time>
      </trkpt>
      <trkpt lat="48.03836" lon="-1.5527">
        <ele>56.24822</ele>
        <time>2021-12-26T10:01:52.000Z</time>
      </trkpt>
      <trkpt lat="48.03837" lon="-1.55266">
        <ele>56.25648</ele>
        <time>2021-12-26T10:01:53.000Z</time>
      </trkpt>
      <trkpt lat="48.03838" lon="-1.55262">
        <ele>56.27651</ele>
        <time>2021-12-26T10:01:54.000Z</time>
      </trkpt>
      <trkpt lat="48.03839" lon="-1.55258">
        <ele>56.30072</ele>
        <time>2021-12-26T10:01:55.000Z</time>
      </trkpt>
      <trkpt lat="48.0384" lon="-1.55253">
        <ele>56.32624</ele>
        <time>2021-12-26T10:01:56.000Z</time>
      </trkpt>
      <trkpt lat="48.03841" lon="-1.55249">
        <ele>56.34849</ele>
        <time>2021-12-26T10:01:57.000Z</time>
      </trkpt>
      <trkpt lat="48.03843" lon="-1.55245">
        <ele>56.36392</ele>
        <time>2021-12-26T10:01:58.000Z</time>
      </trkpt>
      <trkpt lat="48.03844" lon="-1.55241">
        <ele>56.37424</ele>
        <time>2021-12-26T10:01:59.000Z</time>
      </trkpt>
      <trkpt lat="48.03845" lon="-1.55237">
        <ele>56.37389</ele>
        <time>2021-12-26T10:02:00.000Z</time>
      </trkpt>
      <trkpt lat="48.03847" lon="-1.55234">
        <ele>56.36566</ele>
        <time>2021-12-26T10:02:01.000Z</time>
      </trkpt>
      <trkpt lat="48.03848" lon="-1.5523">
        <ele>56.36833</ele>
        <time>2021-12-26T10:02:02.000Z</time>
      </trkpt>
      <trkpt lat="48.03849" lon="-1.55226">
        <ele>56.36888</ele>
        <time>2021-12-26T10:02:03.000Z</time>
      </trkpt>
      <trkpt lat="48.03851" lon="-1.55222">
        <ele>56.37371</ele>
        <time>2021-12-26T10:02:04.000Z</time>
      </trkpt>
      <trkpt lat="48.03852" lon="-1.55218">
        <ele>56.36614</ele>
        <time>2021-12-26T10:02:05.000Z</time>
      </trkpt>
      <trkpt lat="48.03854" lon="-1.55215">
        <ele>56.34144</ele>
        <time>2021-12-26T10:02:06.000Z</time>
      </trkpt>
      <trkpt lat="48.03855" lon="-1.55211">
        <ele>56.35857</ele>
        <time>2021-12-26T10:02:07.000Z</time>
      </trkpt>
      <trkpt lat="48.03857" lon="-1.55206">
        <ele>56.3819</ele>
        <time>2021-12-26T10:02:08.000Z</time>
      </trkpt>
      <trkpt lat="48.03859" lon="-1.55201">
        <ele>56.36072</ele>
        <time>2021-12-26T10:02:09.000Z</time>
      </trkpt>
      <trkpt lat="48.0386" lon="-1.55197">
        <ele>56.35551</ele>
        <time>2021-12-26T10:02:10.000Z</time>
      </trkpt>
      <trkpt lat="48.03861" lon="-1.55192">
        <ele>56.36702</ele>
        <time>2021-12-26T10:02:11.000Z</time>
      </trkpt>
      <trkpt lat="48.03862" lon="-1.55187">
        <ele>56.36464</ele>
        <time>2021-12-26T10:02:12.000Z</time>
      </trkpt>
      <trkpt lat="48.03863" lon="-1.55182">
        <ele>56.36588</ele>
        <time>2021-12-26T10:02:13.000Z</time>
      </trkpt>
      <trkpt lat="48.03865" lon="-1.55177">
        <ele>56.34091</ele>
        <time>2021-12-26T10:02:14.000Z</time>
      </trkpt>
      <trkpt lat="48.03866" lon="-1.55172">
        <ele>56.31531</ele>
        <time>2021-12-26T10:02:15.000Z</time>
      </trkpt>
      <trkpt lat="48.03867" lon="-1.55167">
        <ele>56.29121</ele>
        <time>2021-12-26T10:02:16.000Z</time>
      </trkpt>
      <trkpt lat="48.03868" lon="-1.55162">
        <ele>56.27945</ele>
        <time>2021-12-26T10:02:17.000Z</time>
      </trkpt>
      <trkpt lat="48.03869" lon="-1.55157">
        <ele>56.25919</ele>
        <time>2021-12-26T10:02:18.000Z</time>
      </trkpt>
      <trkpt lat="48.03869" lon="-1.55152">
        <ele>56.25222</ele>
        <time>2021-12-26T10:02:19.000Z</time>
      </trkpt>
      <trkpt lat="48.0387" lon="-1.55147">
        <ele>56.23466</ele>
        <time>2021-12-26T10:02:20.000Z</time>
      </trkpt>
      <trkpt lat="48.0387" lon="-1.55143">
        <ele>56.21462</ele>
        <time>2021-12-26T10:02:21.000Z</time>
      </trkpt>
      <trkpt lat="48.0387" lon="-1.55138">
        <ele>56.20955</ele>
        <time>2021-12-26T10:02:22.000Z</time>
      </trkpt>
      <trkpt lat="48.03871" lon="-1.55133">
        <ele>56.1952</ele>
        <time>2021-12-26T10:02:23.000Z</time>
      </trkpt>
      <trkpt lat="48.03871" lon="-1.55128">
        <ele>56.17558</ele>
        <time>2021-12-26T10:02:24.000Z</time>
      </trkpt>
      <trkpt lat="48.03871" lon="-1.55124">
        <ele>56.12947</ele>
        <time>2021-12-26T10:02:25.000Z</time>
      </trkpt>
      <trkpt lat="48.03872" lon="-1.55119">
        <ele>56.0762</ele>
        <time>2021-12-26T10:02:26.000Z</time>
      </trkpt>
      <trkpt lat="48.03872" lon="-1.55116">
        <ele>56.05352</ele>
        <time>2021-12-26T10:02:27.000Z</time>
      </trkpt>
      <trkpt lat="48.03872" lon="-1.55116">
        <ele>56.05352</ele>
        <time>2021-12-26T10:02:27.000Z</time>
      </trkpt>
      <trkpt lat="48.03871" lon="-1.55112">
        <ele>56.04987</ele>
        <time>2021-12-26T10:02:29.000Z</time>
      </trkpt>
      <trkpt lat="48.03869" lon="-1.5511">
        <ele>56.10682</ele>
        <time>2021-12-26T10:02:35.000Z</time>
      </trkpt>
      <trkpt lat="48.03866" lon="-1.55111">
        <ele>56.26812</ele>
        <time>2021-12-26T10:02:37.000Z</time>
      </trkpt>
      <trkpt lat="48.03863" lon="-1.55112">
        <ele>56.40136</ele>
        <time>2021-12-26T10:02:38.000Z</time>
      </trkpt>
      <trkpt lat="48.0386" lon="-1.55112">
        <ele>56.55112</ele>
        <time>2021-12-26T10:02:39.000Z</time>
      </trkpt>
      <trkpt lat="48.03857" lon="-1.55111">
        <ele>56.71607</ele>
        <time>2021-12-26T10:02:40.000Z</time>
      </trkpt>
      <trkpt lat="48.03853" lon="-1.5511">
        <ele>56.87695</ele>
        <time>2021-12-26T10:02:41.000Z</time>
      </trkpt>
      <trkpt lat="48.0385" lon="-1.55109">
        <ele>57.02288</ele>
        <time>2021-12-26T10:02:42.000Z</time>
      </trkpt>
      <trkpt lat="48.03847" lon="-1.55109">
        <ele>57.15053</ele>
        <time>2021-12-26T10:02:43.000Z</time>
      </trkpt>
      <trkpt lat="48.03843" lon="-1.55108">
        <ele>57.29189</ele>
        <time>2021-12-26T10:02:44.000Z</time>
      </trkpt>
      <trkpt lat="48.0384" lon="-1.55107">
        <ele>57.42216</ele>
        <time>2021-12-26T10:02:45.000Z</time>
      </trkpt>
      <trkpt lat="48.03837" lon="-1.55107">
        <ele>57.55135</ele>
        <time>2021-12-26T10:02:46.000Z</time>
      </trkpt>
      <trkpt lat="48.03833" lon="-1.55106">
        <ele>57.69875</ele>
        <time>2021-12-26T10:02:47.000Z</time>
      </trkpt>
      <trkpt lat="48.0383" lon="-1.55106">
        <ele>57.82911</ele>
        <time>2021-12-26T10:02:48.000Z</time>
      </trkpt>
      <trkpt lat="48.03827" lon="-1.55106">
        <ele>57.96007</ele>
        <time>2021-12-26T10:02:49.000Z</time>
      </trkpt>
      <trkpt lat="48.03824" lon="-1.55105">
        <ele>58.11123</ele>
        <time>2021-12-26T10:02:50.000Z</time>
      </trkpt>
      <trkpt lat="48.03822" lon="-1.55105">
        <ele>58.23026</ele>
        <time>2021-12-26T10:02:51.000Z</time>
      </trkpt>
      <trkpt lat="48.03818" lon="-1.55104">
        <ele>58.39665</ele>
        <time>2021-12-26T10:02:52.000Z</time>
      </trkpt>
      <trkpt lat="48.03815" lon="-1.55103">
        <ele>58.55983</ele>
        <time>2021-12-26T10:02:53.000Z</time>
      </trkpt>
      <trkpt lat="48.03812" lon="-1.55101">
        <ele>58.71674</ele>
        <time>2021-12-26T10:02:54.000Z</time>
      </trkpt>
      <trkpt lat="48.03809" lon="-1.55101">
        <ele>58.85825</ele>
        <time>2021-12-26T10:02:55.000Z</time>
      </trkpt>
      <trkpt lat="48.03805" lon="-1.551">
        <ele>58.98161</ele>
        <time>2021-12-26T10:02:56.000Z</time>
      </trkpt>
      <trkpt lat="48.03802" lon="-1.551">
        <ele>59.07859</ele>
        <time>2021-12-26T10:02:57.000Z</time>
      </trkpt>
      <trkpt lat="48.03798" lon="-1.551">
        <ele>59.16286</ele>
        <time>2021-12-26T10:02:58.000Z</time>
      </trkpt>
      <trkpt lat="48.03795" lon="-1.55099">
        <ele>59.2293</ele>
        <time>2021-12-26T10:02:59.000Z</time>
      </trkpt>
      <trkpt lat="48.03792" lon="-1.55099">
        <ele>59.2817</ele>
        <time>2021-12-26T10:03:00.000Z</time>
      </trkpt>
      <trkpt lat="48.03788" lon="-1.55099">
        <ele>59.33056</ele>
        <time>2021-12-26T10:03:01.000Z</time>
      </trkpt>
      <trkpt lat="48.03785" lon="-1.55099">
        <ele>59.36037</ele>
        <time>2021-12-26T10:03:02.000Z</time>
      </trkpt>
      <trkpt lat="48.03782" lon="-1.551">
        <ele>59.37724</ele>
        <time>2021-12-26T10:03:03.000Z</time>
      </trkpt>
      <trkpt lat="48.03779" lon="-1.551">
        <ele>59.37445</ele>
        <time>2021-12-26T10:03:04.000Z</time>
      </trkpt>
      <trkpt lat="48.03775" lon="-1.55101">
        <ele>59.37402</ele>
        <time>2021-12-26T10:03:05.000Z</time>
      </trkpt>
      <trkpt lat="48.03772" lon="-1.55101">
        <ele>59.36439</ele>
        <time>2021-12-26T10:03:06.000Z</time>
      </trkpt>
      <trkpt lat="48.03769" lon="-1.55101">
        <ele>59.35236</ele>
        <time>2021-12-26T10:03:07.000Z</time>
      </trkpt>
      <trkpt lat="48.03766" lon="-1.55102">
        <ele>59.34173</ele>
        <time>2021-12-26T10:03:08.000Z</time>
      </trkpt>
      <trkpt lat="48.03763" lon="-1.55102">
        <ele>59.34412</ele>
        <time>2021-12-26T10:03:09.000Z</time>
      </trkpt>
      <trkpt lat="48.0376" lon="-1.55102">
        <ele>59.3507</ele>
        <time>2021-12-26T10:03:10.000Z</time>
      </trkpt>
      <trkpt lat="48.03757" lon="-1.55102">
        <ele>59.35794</ele>
        <time>2021-12-26T10:03:11.000Z</time>
      </trkpt>
      <trkpt lat="48.03753" lon="-1.55102">
        <ele>59.3762</ele>
        <time>2021-12-26T10:03:12.000Z</time>
      </trkpt>
      <trkpt lat="48.0375" lon="-1.55102">
        <ele>59.3905</ele>
        <time>2021-12-26T10:03:13.000Z</time>
      </trkpt>
      <trkpt lat="48.03747" lon="-1.55103">
        <ele>59.39897</ele>
        <time>2021-12-26T10:03:14.000Z</time>
      </trkpt>
      <trkpt lat="48.03743" lon="-1.55103">
        <ele>59.4148</ele>
        <time>2021-12-26T10:03:15.000Z</time>
      </trkpt>
      <trkpt lat="48.0374" lon="-1.55103">
        <ele>59.43172</ele>
        <time>2021-12-26T10:03:16.000Z</time>
      </trkpt>
      <trkpt lat="48.03737" lon="-1.55103">
        <ele>59.43961</ele>
        <time>2021-12-26T10:03:17.000Z</time>
      </trkpt>
      <trkpt lat="48.03734" lon="-1.55103">
        <ele>59.44946</ele>
        <time>2021-12-26T10:03:18.000Z</time>
      </trkpt>
      <trkpt lat="48.03731" lon="-1.55104">
        <ele>59.4541</ele>
        <time>2021-12-26T10:03:19.000Z</time>
      </trkpt>
      <trkpt lat="48.03727" lon="-1.55105">
        <ele>59.43467</ele>
        <time>2021-12-26T10:03:20.000Z</time>
      </trkpt>
      <trkpt lat="48.03724" lon="-1.55105">
        <ele>59.43223</ele>
        <time>2021-12-26T10:03:21.000Z</time>
      </trkpt>
      <trkpt lat="48.03721" lon="-1.55106">
        <ele>59.42299</ele>
        <time>2021-12-26T10:03:22.000Z</time>
      </trkpt>
      <trkpt lat="48.03718" lon="-1.55106">
        <ele>59.42506</ele>
        <time>2021-12-26T10:03:23.000Z</time>
      </trkpt>
      <trkpt lat="48.03718" lon="-1.55106">
        <ele>59.42506</ele>
        <time>2021-12-26T10:03:23.000Z</time>
      </trkpt>
      <trkpt lat="48.03715" lon="-1.55105">
        <ele>59.4486</ele>
        <time>2021-12-26T10:03:24.000Z</time>
      </trkpt>
      <trkpt lat="48.03712" lon="-1.55102">
        <ele>59.5055</ele>
        <time>2021-12-26T10:03:25.000Z</time>
      </trkpt>
      <trkpt lat="48.03711" lon="-1.55098">
        <ele>59.58302</ele>
        <time>2021-12-26T10:03:26.000Z</time>
      </trkpt>
      <trkpt lat="48.0371" lon="-1.55093">
        <ele>59.6526</ele>
        <time>2021-12-26T10:03:27.000Z</time>
      </trkpt>
      <trkpt lat="48.03709" lon="-1.55088">
        <ele>59.70026</ele>
        <time>2021-12-26T10:03:28.000Z</time>
      </trkpt>
      <trkpt lat="48.03709" lon="-1.55083">
        <ele>59.7093</ele>
        <time>2021-12-26T10:03:29.000Z</time>
      </trkpt>
      <trkpt lat="48.03709" lon="-1.55078">
        <ele>59.66833</ele>
        <time>2021-12-26T10:03:30.000Z</time>
      </trkpt>
      <trkpt lat="48.03709" lon="-1.55073">
        <ele>59.59034</ele>
        <time>2021-12-26T10:03:31.000Z</time>
      </trkpt>
      <trkpt lat="48.03709" lon="-1.55068">
        <ele>59.49206</ele>
        <time>2021-12-26T10:03:32.000Z</time>
      </trkpt>
      <trkpt lat="48.03709" lon="-1.55063">
        <ele>59.39617</ele>
        <time>2021-12-26T10:03:33.000Z</time>
      </trkpt>
      <trkpt lat="48.03709" lon="-1.55058">
        <ele>59.3104</ele>
        <time>2021-12-26T10:03:34.000Z</time>
      </trkpt>
      <trkpt lat="48.03709" lon="-1.55054">
        <ele>59.25294</ele>
        <time>2021-12-26T10:03:35.000Z</time>
      </trkpt>
      <trkpt lat="48.03709" lon="-1.55049">
        <ele>59.23484</ele>
        <time>2021-12-26T10:03:36.000Z</time>
      </trkpt>
      <trkpt lat="48.0371" lon="-1.55044">
        <ele>59.24983</ele>
        <time>2021-12-26T10:03:37.000Z</time>
      </trkpt>
      <trkpt lat="48.0371" lon="-1.55039">
        <ele>59.28582</ele>
        <time>2021-12-26T10:03:38.000Z</time>
      </trkpt>
      <trkpt lat="48.0371" lon="-1.55035">
        <ele>59.33374</ele>
        <time>2021-12-26T10:03:39.000Z</time>
      </trkpt>
      <trkpt lat="48.0371" lon="-1.5503">
        <ele>59.39057</ele>
        <time>2021-12-26T10:03:40.000Z</time>
      </trkpt>
      <trkpt lat="48.0371" lon="-1.55025">
        <ele>59.44767</ele>
        <time>2021-12-26T10:03:41.000Z</time>
      </trkpt>
      <trkpt lat="48.0371" lon="-1.5502">
        <ele>59.49141</ele>
        <time>2021-12-26T10:03:42.000Z</time>
      </trkpt>
      <trkpt lat="48.0371" lon="-1.55016">
        <ele>59.51823</ele>
        <time>2021-12-26T10:03:43.000Z</time>
      </trkpt>
      <trkpt lat="48.0371" lon="-1.55011">
        <ele>59.53392</ele>
        <time>2021-12-26T10:03:44.000Z</time>
      </trkpt>
      <trkpt lat="48.0371" lon="-1.55007">
        <ele>59.54427</ele>
        <time>2021-12-26T10:03:45.000Z</time>
      </trkpt>
      <trkpt lat="48.0371" lon="-1.55003">
        <ele>59.54961</ele>
        <time>2021-12-26T10:03:46.000Z</time>
      </trkpt>
      <trkpt lat="48.0371" lon="-1.54998">
        <ele>59.55234</ele>
        <time>2021-12-26T10:03:47.000Z</time>
      </trkpt>
      <trkpt lat="48.0371" lon="-1.54995">
        <ele>59.55386</ele>
        <time>2021-12-26T10:03:48.000Z</time>
      </trkpt>
      <trkpt lat="48.0371" lon="-1.54992">
        <ele>59.55478</ele>
        <time>2021-12-26T10:03:49.000Z</time>
      </trkpt>
      <trkpt lat="48.0371" lon="-1.54989">
        <ele>59.55641</ele>
        <time>2021-12-26T10:03:50.000Z</time>
      </trkpt>
      <trkpt lat="48.03711" lon="-1.54985">
        <ele>59.56088</ele>
        <time>2021-12-26T10:03:52.000Z</time>
      </trkpt>
      <trkpt lat="48.03711" lon="-1.5498">
        <ele>59.56584</ele>
        <time>2021-12-26T10:03:54.000Z</time>
      </trkpt>
      <trkpt lat="48.03711" lon="-1.54977">
        <ele>59.57039</ele>
        <time>2021-12-26T10:03:55.000Z</time>
      </trkpt>
      <trkpt lat="48.03712" lon="-1.54973">
        <ele>59.57505</ele>
        <time>2021-12-26T10:03:56.000Z</time>
      </trkpt>
      <trkpt lat="48.03714" lon="-1.54968">
        <ele>59.57315</ele>
        <time>2021-12-26T10:03:57.000Z</time>
      </trkpt>
      <trkpt lat="48.03715" lon="-1.54964">
        <ele>59.5616</ele>
        <time>2021-12-26T10:03:58.000Z</time>
      </trkpt>
      <trkpt lat="48.03717" lon="-1.54958">
        <ele>59.54243</ele>
        <time>2021-12-26T10:03:59.000Z</time>
      </trkpt>
      <trkpt lat="48.03719" lon="-1.54953">
        <ele>59.52112</ele>
        <time>2021-12-26T10:04:00.000Z</time>
      </trkpt>
      <trkpt lat="48.0372" lon="-1.54948">
        <ele>59.5036</ele>
        <time>2021-12-26T10:04:01.000Z</time>
      </trkpt>
      <trkpt lat="48.03722" lon="-1.54942">
        <ele>59.49407</ele>
        <time>2021-12-26T10:04:02.000Z</time>
      </trkpt>
      <trkpt lat="48.03724" lon="-1.54937">
        <ele>59.49307</ele>
        <time>2021-12-26T10:04:03.000Z</time>
      </trkpt>
      <trkpt lat="48.03725" lon="-1.54931">
        <ele>59.49978</ele>
        <time>2021-12-26T10:04:04.000Z</time>
      </trkpt>
      <trkpt lat="48.03727" lon="-1.54925">
        <ele>59.51168</ele>
        <time>2021-12-26T10:04:05.000Z</time>
      </trkpt>
      <trkpt lat="48.03728" lon="-1.54919">
        <ele>59.52542</ele>
        <time>2021-12-26T10:04:06.000Z</time>
      </trkpt>
      <trkpt lat="48.03729" lon="-1.54913">
        <ele>59.53606</ele>
        <time>2021-12-26T10:04:07.000Z</time>
      </trkpt>
      <trkpt lat="48.0373" lon="-1.54906">
        <ele>59.54111</ele>
        <time>2021-12-26T10:04:08.000Z</time>
      </trkpt>
      <trkpt lat="48.03731" lon="-1.549">
        <ele>59.54751</ele>
        <time>2021-12-26T10:04:09.000Z</time>
      </trkpt>
      <trkpt lat="48.03732" lon="-1.54893">
        <ele>59.55651</ele>
        <time>2021-12-26T10:04:10.000Z</time>
      </trkpt>
      <trkpt lat="48.03733" lon="-1.54887">
        <ele>59.56873</ele>
        <time>2021-12-26T10:04:11.000Z</time>
      </trkpt>
      <trkpt lat="48.03733" lon="-1.5488">
        <ele>59.58448</ele>
        <time>2021-12-26T10:04:12.000Z</time>
      </trkpt>
      <trkpt lat="48.03733" lon="-1.54873">
        <ele>59.59879</ele>
        <time>2021-12-26T10:04:13.000Z</time>
      </trkpt>
      <trkpt lat="48.03733" lon="-1.54867">
        <ele>59.61194</ele>
        <time>2021-12-26T10:04:14.000Z</time>
      </trkpt>
      <trkpt lat="48.03732" lon="-1.5486">
        <ele>59.6279</ele>
        <time>2021-12-26T10:04:15.000Z</time>
      </trkpt>
      <trkpt lat="48.03732" lon="-1.54854">
        <ele>59.64481</ele>
        <time>2021-12-26T10:04:16.000Z</time>
      </trkpt>
      <trkpt lat="48.03731" lon="-1.54848">
        <ele>59.66463</ele>
        <time>2021-12-26T10:04:17.000Z</time>
      </trkpt>
      <trkpt lat="48.0373" lon="-1.54841">
        <ele>59.68069</ele>
        <time>2021-12-26T10:04:18.000Z</time>
      </trkpt>
      <trkpt lat="48.0373" lon="-1.54835">
        <ele>59.70063</ele>
        <time>2021-12-26T10:04:19.000Z</time>
      </trkpt>
      <trkpt lat="48.03728" lon="-1.5483">
        <ele>59.71346</ele>
        <time>2021-12-26T10:04:20.000Z</time>
      </trkpt>
      <trkpt lat="48.03726" lon="-1.54826">
        <ele>59.71118</ele>
        <time>2021-12-26T10:04:21.000Z</time>
      </trkpt>
      <trkpt lat="48.03723" lon="-1.54821">
        <ele>59.7049</ele>
        <time>2021-12-26T10:04:22.000Z</time>
      </trkpt>
      <trkpt lat="48.03721" lon="-1.54816">
        <ele>59.70328</ele>
        <time>2021-12-26T10:04:23.000Z</time>
      </trkpt>
      <trkpt lat="48.03719" lon="-1.5481">
        <ele>59.72752</ele>
        <time>2021-12-26T10:04:24.000Z</time>
      </trkpt>
      <trkpt lat="48.03718" lon="-1.54804">
        <ele>59.78839</ele>
        <time>2021-12-26T10:04:25.000Z</time>
      </trkpt>
      <trkpt lat="48.03719" lon="-1.54799">
        <ele>59.9014</ele>
        <time>2021-12-26T10:04:26.000Z</time>
      </trkpt>
      <trkpt lat="48.0372" lon="-1.54795">
        <ele>60.00802</ele>
        <time>2021-12-26T10:04:27.000Z</time>
      </trkpt>
      <trkpt lat="48.0372" lon="-1.54795">
        <ele>60.00802</ele>
        <time>2021-12-26T10:04:27.000Z</time>
      </trkpt>
      <trkpt lat="48.03721" lon="-1.5479">
        <ele>60.09856</ele>
        <time>2021-12-26T10:04:28.000Z</time>
      </trkpt>
      <trkpt lat="48.03723" lon="-1.54787">
        <ele>60.19126</ele>
        <time>2021-12-26T10:04:29.000Z</time>
      </trkpt>
      <trkpt lat="48.03725" lon="-1.54783">
        <ele>60.25589</ele>
        <time>2021-12-26T10:04:30.000Z</time>
      </trkpt>
      <trkpt lat="48.03725" lon="-1.54778">
        <ele>60.26615</ele>
        <time>2021-12-26T10:04:31.000Z</time>
      </trkpt>
      <trkpt lat="48.03723" lon="-1.54775">
        <ele>60.19461</ele>
        <time>2021-12-26T10:04:32.000Z</time>
      </trkpt>
      <trkpt lat="48.0372" lon="-1.54774">
        <ele>60.08117</ele>
        <time>2021-12-26T10:04:33.000Z</time>
      </trkpt>
      <trkpt lat="48.03716" lon="-1.54775">
        <ele>59.95448</ele>
        <time>2021-12-26T10:04:34.000Z</time>
      </trkpt>
      <trkpt lat="48.03712" lon="-1.54777">
        <ele>59.79973</ele>
        <time>2021-12-26T10:04:35.000Z</time>
      </trkpt>
      <trkpt lat="48.03707" lon="-1.54779">
        <ele>59.6373</ele>
        <time>2021-12-26T10:04:36.000Z</time>
      </trkpt>
      <trkpt lat="48.03703" lon="-1.54781">
        <ele>59.48221</ele>
        <time>2021-12-26T10:04:37.000Z</time>
      </trkpt>
      <trkpt lat="48.03698" lon="-1.54784">
        <ele>59.31559</ele>
        <time>2021-12-26T10:04:38.000Z</time>
      </trkpt>
      <trkpt lat="48.03693" lon="-1.54785">
        <ele>59.138</ele>
        <time>2021-12-26T10:04:39.000Z</time>
      </trkpt>
      <trkpt lat="48.03688" lon="-1.54787">
        <ele>58.95791</ele>
        <time>2021-12-26T10:04:40.000Z</time>
      </trkpt>
      <trkpt lat="48.03682" lon="-1.54787">
        <ele>58.75654</ele>
        <time>2021-12-26T10:04:41.000Z</time>
      </trkpt>
      <trkpt lat="48.03676" lon="-1.54787">
        <ele>58.55171</ele>
        <time>2021-12-26T10:04:42.000Z</time>
      </trkpt>
      <trkpt lat="48.03671" lon="-1.54787">
        <ele>58.3445</ele>
        <time>2021-12-26T10:04:43.000Z</time>
      </trkpt>
      <trkpt lat="48.03665" lon="-1.54786">
        <ele>58.11725</ele>
        <time>2021-12-26T10:04:44.000Z</time>
      </trkpt>
      <trkpt lat="48.03659" lon="-1.54786">
        <ele>57.85586</ele>
        <time>2021-12-26T10:04:45.000Z</time>
      </trkpt>
      <trkpt lat="48.03653" lon="-1.54786">
        <ele>57.56599</ele>
        <time>2021-12-26T10:04:46.000Z</time>
      </trkpt>
      <trkpt lat="48.03647" lon="-1.54785">
        <ele>57.28181</ele>
        <time>2021-12-26T10:04:47.000Z</time>
      </trkpt>
      <trkpt lat="48.03641" lon="-1.54785">
        <ele>56.96743</ele>
        <time>2021-12-26T10:04:48.000Z</time>
      </trkpt>
      <trkpt lat="48.03636" lon="-1.54786">
        <ele>56.6684</ele>
        <time>2021-12-26T10:04:49.000Z</time>
      </trkpt>
      <trkpt lat="48.0363" lon="-1.54788">
        <ele>56.37799</ele>
        <time>2021-12-26T10:04:50.000Z</time>
      </trkpt>
      <trkpt lat="48.03624" lon="-1.54789">
        <ele>56.06903</ele>
        <time>2021-12-26T10:04:51.000Z</time>
      </trkpt>
      <trkpt lat="48.03618" lon="-1.54791">
        <ele>55.76858</ele>
        <time>2021-12-26T10:04:52.000Z</time>
      </trkpt>
      <trkpt lat="48.03613" lon="-1.54793">
        <ele>55.46434</ele>
        <time>2021-12-26T10:04:53.000Z</time>
      </trkpt>
      <trkpt lat="48.03607" lon="-1.54795">
        <ele>55.19024</ele>
        <time>2021-12-26T10:04:54.000Z</time>
      </trkpt>
      <trkpt lat="48.03602" lon="-1.54798">
        <ele>54.93751</ele>
        <time>2021-12-26T10:04:55.000Z</time>
      </trkpt>
      <trkpt lat="48.03599" lon="-1.54799">
        <ele>54.77435</ele>
        <time>2021-12-26T10:04:56.000Z</time>
      </trkpt>
      <trkpt lat="48.03596" lon="-1.54798">
        <ele>54.65441</ele>
        <time>2021-12-26T10:04:57.000Z</time>
      </trkpt>
      <trkpt lat="48.03593" lon="-1.54798">
        <ele>54.53179</ele>
        <time>2021-12-26T10:04:58.000Z</time>
      </trkpt>
      <trkpt lat="48.03591" lon="-1.54797">
        <ele>54.40097</ele>
        <time>2021-12-26T10:04:59.000Z</time>
      </trkpt>
      <trkpt lat="48.03589" lon="-1.54795">
        <ele>54.29036</ele>
        <time>2021-12-26T10:05:25.000Z</time>
      </trkpt>
      <trkpt lat="48.03589" lon="-1.54795">
        <ele>54.29036</ele>
        <time>2021-12-26T10:05:25.000Z</time>
      </trkpt>
      <trkpt lat="48.03588" lon="-1.54791">
        <ele>54.27681</ele>
        <time>2021-12-26T10:05:26.000Z</time>
      </trkpt>
      <trkpt lat="48.03589" lon="-1.54787">
        <ele>54.28633</ele>
        <time>2021-12-26T10:05:27.000Z</time>
      </trkpt>
      <trkpt lat="48.03589" lon="-1.54782">
        <ele>54.31379</ele>
        <time>2021-12-26T10:05:28.000Z</time>
      </trkpt>
      <trkpt lat="48.0359" lon="-1.54777">
        <ele>54.34325</ele>
        <time>2021-12-26T10:05:29.000Z</time>
      </trkpt>
      <trkpt lat="48.0359" lon="-1.54772">
        <ele>54.36709</ele>
        <time>2021-12-26T10:05:30.000Z</time>
      </trkpt>
      <trkpt lat="48.03591" lon="-1.54766">
        <ele>54.35279</ele>
        <time>2021-12-26T10:05:31.000Z</time>
      </trkpt>
      <trkpt lat="48.03591" lon="-1.5476">
        <ele>54.27677</ele>
        <time>2021-12-26T10:05:32.000Z</time>
      </trkpt>
      <trkpt lat="48.0359" lon="-1.54753">
        <ele>54.17434</ele>
        <time>2021-12-26T10:05:33.000Z</time>
      </trkpt>
      <trkpt lat="48.0359" lon="-1.54747">
        <ele>54.06762</ele>
        <time>2021-12-26T10:05:34.000Z</time>
      </trkpt>
      <trkpt lat="48.03589" lon="-1.5474">
        <ele>54.00711</ele>
        <time>2021-12-26T10:05:35.000Z</time>
      </trkpt>
      <trkpt lat="48.03589" lon="-1.54733">
        <ele>53.97534</ele>
        <time>2021-12-26T10:05:36.000Z</time>
      </trkpt>
      <trkpt lat="48.03588" lon="-1.54726">
        <ele>53.97061</ele>
        <time>2021-12-26T10:05:37.000Z</time>
      </trkpt>
      <trkpt lat="48.03587" lon="-1.5472">
        <ele>53.94682</ele>
        <time>2021-12-26T10:05:38.000Z</time>
      </trkpt>
      <trkpt lat="48.03584" lon="-1.54714">
        <ele>53.83896</ele>
        <time>2021-12-26T10:05:39.000Z</time>
      </trkpt>
      <trkpt lat="48.03581" lon="-1.54709">
        <ele>53.67739</ele>
        <time>2021-12-26T10:05:40.000Z</time>
      </trkpt>
      <trkpt lat="48.03578" lon="-1.54705">
        <ele>53.50895</ele>
        <time>2021-12-26T10:05:41.000Z</time>
      </trkpt>
      <trkpt lat="48.03576" lon="-1.54699">
        <ele>53.36975</ele>
        <time>2021-12-26T10:05:42.000Z</time>
      </trkpt>
      <trkpt lat="48.03575" lon="-1.54693">
        <ele>53.25127</ele>
        <time>2021-12-26T10:05:43.000Z</time>
      </trkpt>
      <trkpt lat="48.03574" lon="-1.54686">
        <ele>53.14503</ele>
        <time>2021-12-26T10:05:44.000Z</time>
      </trkpt>
      <trkpt lat="48.03574" lon="-1.5468">
        <ele>53.08806</ele>
        <time>2021-12-26T10:05:45.000Z</time>
      </trkpt>
      <trkpt lat="48.03576" lon="-1.54675">
        <ele>53.13734</ele>
        <time>2021-12-26T10:05:46.000Z</time>
      </trkpt>
      <trkpt lat="48.03579" lon="-1.54669">
        <ele>53.24721</ele>
        <time>2021-12-26T10:05:47.000Z</time>
      </trkpt>
      <trkpt lat="48.03582" lon="-1.54664">
        <ele>53.36172</ele>
        <time>2021-12-26T10:05:48.000Z</time>
      </trkpt>
      <trkpt lat="48.03585" lon="-1.54659">
        <ele>53.45083</ele>
        <time>2021-12-26T10:05:49.000Z</time>
      </trkpt>
      <trkpt lat="48.03589" lon="-1.54654">
        <ele>53.51053</ele>
        <time>2021-12-26T10:05:50.000Z</time>
      </trkpt>
      <trkpt lat="48.03592" lon="-1.54649">
        <ele>53.572</ele>
        <time>2021-12-26T10:05:51.000Z</time>
      </trkpt>
      <trkpt lat="48.03596" lon="-1.54645">
        <ele>53.64492</ele>
        <time>2021-12-26T10:05:52.000Z</time>
      </trkpt>
      <trkpt lat="48.036" lon="-1.54641">
        <ele>53.73789</ele>
        <time>2021-12-26T10:05:53.000Z</time>
      </trkpt>
      <trkpt lat="48.03604" lon="-1.54636">
        <ele>53.88053</ele>
        <time>2021-12-26T10:05:54.000Z</time>
      </trkpt>
      <trkpt lat="48.03606" lon="-1.54631">
        <ele>54.03299</ele>
        <time>2021-12-26T10:05:55.000Z</time>
      </trkpt>
      <trkpt lat="48.03609" lon="-1.54626">
        <ele>54.19798</ele>
        <time>2021-12-26T10:05:56.000Z</time>
      </trkpt>
      <trkpt lat="48.03612" lon="-1.54621">
        <ele>54.34841</ele>
        <time>2021-12-26T10:05:57.000Z</time>
      </trkpt>
      <trkpt lat="48.03614" lon="-1.54616">
        <ele>54.46393</ele>
        <time>2021-12-26T10:05:58.000Z</time>
      </trkpt>
      <trkpt lat="48.03616" lon="-1.5461">
        <ele>54.5613</ele>
        <time>2021-12-26T10:05:59.000Z</time>
      </trkpt>
      <trkpt lat="48.03618" lon="-1.54605">
        <ele>54.6422</ele>
        <time>2021-12-26T10:06:00.000Z</time>
      </trkpt>
      <trkpt lat="48.0362" lon="-1.54599">
        <ele>54.71259</ele>
        <time>2021-12-26T10:06:01.000Z</time>
      </trkpt>
      <trkpt lat="48.03622" lon="-1.54594">
        <ele>54.7791</ele>
        <time>2021-12-26T10:06:02.000Z</time>
      </trkpt>
      <trkpt lat="48.03624" lon="-1.54589">
        <ele>54.84601</ele>
        <time>2021-12-26T10:06:03.000Z</time>
      </trkpt>
      <trkpt lat="48.03626" lon="-1.54584">
        <ele>54.92973</ele>
        <time>2021-12-26T10:06:04.000Z</time>
      </trkpt>
      <trkpt lat="48.03629" lon="-1.5458">
        <ele>55.00753</ele>
        <time>2021-12-26T10:06:05.000Z</time>
      </trkpt>
      <trkpt lat="48.03632" lon="-1.54576">
        <ele>55.12159</ele>
        <time>2021-12-26T10:06:06.000Z</time>
      </trkpt>
      <trkpt lat="48.03635" lon="-1.54573">
        <ele>55.24024</ele>
        <time>2021-12-26T10:06:07.000Z</time>
      </trkpt>
      <trkpt lat="48.03638" lon="-1.54569">
        <ele>55.35603</ele>
        <time>2021-12-26T10:06:08.000Z</time>
      </trkpt>
      <trkpt lat="48.03639" lon="-1.54563">
        <ele>55.42222</ele>
        <time>2021-12-26T10:06:09.000Z</time>
      </trkpt>
      <trkpt lat="48.0364" lon="-1.54557">
        <ele>55.46478</ele>
        <time>2021-12-26T10:06:09.999Z</time>
      </trkpt>
      <trkpt lat="48.03641" lon="-1.54551">
        <ele>55.54876</ele>
        <time>2021-12-26T10:06:10.999Z</time>
      </trkpt>
      <trkpt lat="48.03642" lon="-1.54545">
        <ele>55.65788</ele>
        <time>2021-12-26T10:06:11.999Z</time>
      </trkpt>
      <trkpt lat="48.03643" lon="-1.5454">
        <ele>55.776</ele>
        <time>2021-12-26T10:06:12.999Z</time>
      </trkpt>
      <trkpt lat="48.03644" lon="-1.54534">
        <ele>55.89191</ele>
        <time>2021-12-26T10:06:13.999Z</time>
      </trkpt>
      <trkpt lat="48.03646" lon="-1.54529">
        <ele>55.9965</ele>
        <time>2021-12-26T10:06:14.999Z</time>
      </trkpt>
      <trkpt lat="48.03647" lon="-1.54524">
        <ele>56.09185</ele>
        <time>2021-12-26T10:06:15.999Z</time>
      </trkpt>
      <trkpt lat="48.03649" lon="-1.54519">
        <ele>56.18246</ele>
        <time>2021-12-26T10:06:16.999Z</time>
      </trkpt>
      <trkpt lat="48.03652" lon="-1.54514">
        <ele>56.27174</ele>
        <time>2021-12-26T10:06:17.999Z</time>
      </trkpt>
      <trkpt lat="48.03654" lon="-1.5451">
        <ele>56.36124</ele>
        <time>2021-12-26T10:06:18.999Z</time>
      </trkpt>
      <trkpt lat="48.03656" lon="-1.54506">
        <ele>56.45725</ele>
        <time>2021-12-26T10:06:19.999Z</time>
      </trkpt>
      <trkpt lat="48.03658" lon="-1.54501">
        <ele>56.56125</ele>
        <time>2021-12-26T10:06:20.999Z</time>
      </trkpt>
      <trkpt lat="48.03659" lon="-1.54496">
        <ele>56.64857</ele>
        <time>2021-12-26T10:06:21.999Z</time>
      </trkpt>
      <trkpt lat="48.0366" lon="-1.5449">
        <ele>56.74033</ele>
        <time>2021-12-26T10:06:22.999Z</time>
      </trkpt>
      <trkpt lat="48.0366" lon="-1.54485">
        <ele>56.82775</ele>
        <time>2021-12-26T10:06:23.999Z</time>
      </trkpt>
      <trkpt lat="48.0366" lon="-1.54478">
        <ele>56.91127</ele>
        <time>2021-12-26T10:06:24.999Z</time>
      </trkpt>
      <trkpt lat="48.03662" lon="-1.54473">
        <ele>56.95215</ele>
        <time>2021-12-26T10:06:25.999Z</time>
      </trkpt>
      <trkpt lat="48.03664" lon="-1.54467">
        <ele>56.97789</ele>
        <time>2021-12-26T10:06:26.999Z</time>
      </trkpt>
      <trkpt lat="48.03665" lon="-1.54462">
        <ele>57.00981</ele>
        <time>2021-12-26T10:06:27.999Z</time>
      </trkpt>
      <trkpt lat="48.03667" lon="-1.54457">
        <ele>57.0418</ele>
        <time>2021-12-26T10:06:28.999Z</time>
      </trkpt>
      <trkpt lat="48.03669" lon="-1.54452">
        <ele>57.08103</ele>
        <time>2021-12-26T10:06:29.999Z</time>
      </trkpt>
      <trkpt lat="48.03671" lon="-1.54447">
        <ele>57.13494</ele>
        <time>2021-12-26T10:06:30.999Z</time>
      </trkpt>
      <trkpt lat="48.03673" lon="-1.54442">
        <ele>57.19818</ele>
        <time>2021-12-26T10:06:31.999Z</time>
      </trkpt>
      <trkpt lat="48.03674" lon="-1.54436">
        <ele>57.26816</ele>
        <time>2021-12-26T10:06:32.999Z</time>
      </trkpt>
      <trkpt lat="48.03676" lon="-1.54431">
        <ele>57.35164</ele>
        <time>2021-12-26T10:06:33.999Z</time>
      </trkpt>
      <trkpt lat="48.03678" lon="-1.54426">
        <ele>57.44913</ele>
        <time>2021-12-26T10:06:34.999Z</time>
      </trkpt>
      <trkpt lat="48.0368" lon="-1.54422">
        <ele>57.56375</ele>
        <time>2021-12-26T10:06:35.999Z</time>
      </trkpt>
      <trkpt lat="48.03682" lon="-1.54417">
        <ele>57.683</ele>
        <time>2021-12-26T10:06:36.999Z</time>
      </trkpt>
      <trkpt lat="48.03684" lon="-1.54412">
        <ele>57.81162</ele>
        <time>2021-12-26T10:06:37.999Z</time>
      </trkpt>
      <trkpt lat="48.03686" lon="-1.54407">
        <ele>57.94495</ele>
        <time>2021-12-26T10:06:38.999Z</time>
      </trkpt>
      <trkpt lat="48.03687" lon="-1.54402">
        <ele>58.06564</ele>
        <time>2021-12-26T10:06:39.999Z</time>
      </trkpt>
      <trkpt lat="48.03687" lon="-1.54396">
        <ele>58.18252</ele>
        <time>2021-12-26T10:06:40.999Z</time>
      </trkpt>
      <trkpt lat="48.03688" lon="-1.54391">
        <ele>58.2959</ele>
        <time>2021-12-26T10:06:41.999Z</time>
      </trkpt>
      <trkpt lat="48.03688" lon="-1.54386">
        <ele>58.40433</ele>
        <time>2021-12-26T10:06:42.999Z</time>
      </trkpt>
      <trkpt lat="48.03688" lon="-1.5438">
        <ele>58.52136</ele>
        <time>2021-12-26T10:06:43.999Z</time>
      </trkpt>
      <trkpt lat="48.03689" lon="-1.54374">
        <ele>58.64897</ele>
        <time>2021-12-26T10:06:44.999Z</time>
      </trkpt>
      <trkpt lat="48.0369" lon="-1.54369">
        <ele>58.77267</ele>
        <time>2021-12-26T10:06:45.999Z</time>
      </trkpt>
      <trkpt lat="48.03691" lon="-1.54364">
        <ele>58.90247</ele>
        <time>2021-12-26T10:06:46.999Z</time>
      </trkpt>
      <trkpt lat="48.03692" lon="-1.54359">
        <ele>59.03567</ele>
        <time>2021-12-26T10:06:47.999Z</time>
      </trkpt>
      <trkpt lat="48.03694" lon="-1.54354">
        <ele>59.16887</ele>
        <time>2021-12-26T10:06:48.999Z</time>
      </trkpt>
      <trkpt lat="48.03695" lon="-1.54349">
        <ele>59.31415</ele>
        <time>2021-12-26T10:06:49.999Z</time>
      </trkpt>
      <trkpt lat="48.03696" lon="-1.54344">
        <ele>59.46793</ele>
        <time>2021-12-26T10:06:50.999Z</time>
      </trkpt>
      <trkpt lat="48.03697" lon="-1.54339">
        <ele>59.63844</ele>
        <time>2021-12-26T10:06:51.999Z</time>
      </trkpt>
      <trkpt lat="48.03698" lon="-1.54334">
        <ele>59.81889</ele>
        <time>2021-12-26T10:06:52.999Z</time>
      </trkpt>
      <trkpt lat="48.03699" lon="-1.5433">
        <ele>60.0005</ele>
        <time>2021-12-26T10:06:53.999Z</time>
      </trkpt>
      <trkpt lat="48.037" lon="-1.54325">
        <ele>60.17688</ele>
        <time>2021-12-26T10:06:54.999Z</time>
      </trkpt>
      <trkpt lat="48.03701" lon="-1.5432">
        <ele>60.34678</ele>
        <time>2021-12-26T10:06:55.999Z</time>
      </trkpt>
      <trkpt lat="48.03703" lon="-1.54316">
        <ele>60.5023</ele>
        <time>2021-12-26T10:06:56.999Z</time>
      </trkpt>
      <trkpt lat="48.03703" lon="-1.54311">
        <ele>60.63503</ele>
        <time>2021-12-26T10:06:57.999Z</time>
      </trkpt>
      <trkpt lat="48.03704" lon="-1.54306">
        <ele>60.74692</ele>
        <time>2021-12-26T10:06:58.999Z</time>
      </trkpt>
      <trkpt lat="48.03705" lon="-1.54302">
        <ele>60.84392</ele>
        <time>2021-12-26T10:06:59.999Z</time>
      </trkpt>
      <trkpt lat="48.03707" lon="-1.54297">
        <ele>60.93629</ele>
        <time>2021-12-26T10:07:00.999Z</time>
      </trkpt>
      <trkpt lat="48.03708" lon="-1.54292">
        <ele>61.0238</ele>
        <time>2021-12-26T10:07:01.999Z</time>
      </trkpt>
      <trkpt lat="48.03708" lon="-1.54288">
        <ele>61.11663</ele>
        <time>2021-12-26T10:07:02.999Z</time>
      </trkpt>
      <trkpt lat="48.0371" lon="-1.54283">
        <ele>61.22433</ele>
        <time>2021-12-26T10:07:03.999Z</time>
      </trkpt>
      <trkpt lat="48.03711" lon="-1.54279">
        <ele>61.34546</ele>
        <time>2021-12-26T10:07:04.999Z</time>
      </trkpt>
      <trkpt lat="48.03712" lon="-1.54274">
        <ele>61.47817</ele>
        <time>2021-12-26T10:07:05.999Z</time>
      </trkpt>
      <trkpt lat="48.03713" lon="-1.5427">
        <ele>61.62735</ele>
        <time>2021-12-26T10:07:06.999Z</time>
      </trkpt>
      <trkpt lat="48.03714" lon="-1.54266">
        <ele>61.77169</ele>
        <time>2021-12-26T10:07:07.999Z</time>
      </trkpt>
      <trkpt lat="48.03715" lon="-1.54261">
        <ele>61.9357</ele>
        <time>2021-12-26T10:07:08.999Z</time>
      </trkpt>
      <trkpt lat="48.03716" lon="-1.54256">
        <ele>62.09414</ele>
        <time>2021-12-26T10:07:09.999Z</time>
      </trkpt>
      <trkpt lat="48.03717" lon="-1.54252">
        <ele>62.23702</ele>
        <time>2021-12-26T10:07:10.999Z</time>
      </trkpt>
      <trkpt lat="48.03718" lon="-1.54247">
        <ele>62.36177</ele>
        <time>2021-12-26T10:07:11.999Z</time>
      </trkpt>
      <trkpt lat="48.03719" lon="-1.54242">
        <ele>62.44263</ele>
        <time>2021-12-26T10:07:12.999Z</time>
      </trkpt>
      <trkpt lat="48.0372" lon="-1.54238">
        <ele>62.48917</ele>
        <time>2021-12-26T10:07:13.999Z</time>
      </trkpt>
      <trkpt lat="48.0372" lon="-1.54233">
        <ele>62.49992</ele>
        <time>2021-12-26T10:07:14.999Z</time>
      </trkpt>
      <trkpt lat="48.03721" lon="-1.54228">
        <ele>62.49309</ele>
        <time>2021-12-26T10:07:15.999Z</time>
      </trkpt>
      <trkpt lat="48.03721" lon="-1.54223">
        <ele>62.48151</ele>
        <time>2021-12-26T10:07:16.999Z</time>
      </trkpt>
      <trkpt lat="48.03722" lon="-1.54218">
        <ele>62.49105</ele>
        <time>2021-12-26T10:07:17.999Z</time>
      </trkpt>
      <trkpt lat="48.03722" lon="-1.54218">
        <ele>62.49105</ele>
        <time>2021-12-26T10:07:17.999Z</time>
      </trkpt>
      <trkpt lat="48.03722" lon="-1.54213">
        <ele>62.52405</ele>
        <time>2021-12-26T10:07:18.999Z</time>
      </trkpt>
      <trkpt lat="48.03723" lon="-1.5421">
        <ele>62.58768</ele>
        <time>2021-12-26T10:07:19.999Z</time>
      </trkpt>
      <trkpt lat="48.03721" lon="-1.54204">
        <ele>62.75353</ele>
        <time>2021-12-26T10:07:20.999Z</time>
      </trkpt>
      <trkpt lat="48.0372" lon="-1.542">
        <ele>62.89154</ele>
        <time>2021-12-26T10:07:21.999Z</time>
      </trkpt>
      <trkpt lat="48.03718" lon="-1.54196">
        <ele>63.01171</ele>
        <time>2021-12-26T10:07:22.999Z</time>
      </trkpt>
      <trkpt lat="48.03717" lon="-1.54191">
        <ele>63.08059</ele>
        <time>2021-12-26T10:07:23.999Z</time>
      </trkpt>
      <trkpt lat="48.03716" lon="-1.54186">
        <ele>63.11295</ele>
        <time>2021-12-26T10:07:24.999Z</time>
      </trkpt>
      <trkpt lat="48.03715" lon="-1.54182">
        <ele>63.11037</ele>
        <time>2021-12-26T10:07:25.999Z</time>
      </trkpt>
      <trkpt lat="48.03714" lon="-1.54177">
        <ele>63.09703</ele>
        <time>2021-12-26T10:07:26.999Z</time>
      </trkpt>
      <trkpt lat="48.03713" lon="-1.54172">
        <ele>63.08674</ele>
        <time>2021-12-26T10:07:27.999Z</time>
      </trkpt>
      <trkpt lat="48.03711" lon="-1.54167">
        <ele>63.08381</ele>
        <time>2021-12-26T10:07:28.999Z</time>
      </trkpt>
      <trkpt lat="48.0371" lon="-1.54162">
        <ele>63.11233</ele>
        <time>2021-12-26T10:07:29.999Z</time>
      </trkpt>
      <trkpt lat="48.0371" lon="-1.54156">
        <ele>63.16584</ele>
        <time>2021-12-26T10:07:30.999Z</time>
      </trkpt>
      <trkpt lat="48.03709" lon="-1.54151">
        <ele>63.2265</ele>
        <time>2021-12-26T10:07:31.999Z</time>
      </trkpt>
      <trkpt lat="48.03708" lon="-1.54146">
        <ele>63.28231</ele>
        <time>2021-12-26T10:07:32.999Z</time>
      </trkpt>
      <trkpt lat="48.03707" lon="-1.54141">
        <ele>63.32841</ele>
        <time>2021-12-26T10:07:33.999Z</time>
      </trkpt>
      <trkpt lat="48.03706" lon="-1.54136">
        <ele>63.36486</ele>
        <time>2021-12-26T10:07:34.999Z</time>
      </trkpt>
      <trkpt lat="48.03704" lon="-1.54131">
        <ele>63.38759</ele>
        <time>2021-12-26T10:07:35.999Z</time>
      </trkpt>
      <trkpt lat="48.03703" lon="-1.54126">
        <ele>63.39387</ele>
        <time>2021-12-26T10:07:36.999Z</time>
      </trkpt>
      <trkpt lat="48.03702" lon="-1.54121">
        <ele>63.39075</ele>
        <time>2021-12-26T10:07:37.999Z</time>
      </trkpt>
      <trkpt lat="48.03701" lon="-1.54116">
        <ele>63.3823</ele>
        <time>2021-12-26T10:07:38.999Z</time>
      </trkpt>
      <trkpt lat="48.037" lon="-1.54112">
        <ele>63.37591</ele>
        <time>2021-12-26T10:07:39.999Z</time>
      </trkpt>
      <trkpt lat="48.037" lon="-1.54106">
        <ele>63.38879</ele>
        <time>2021-12-26T10:07:40.999Z</time>
      </trkpt>
      <trkpt lat="48.03698" lon="-1.54101">
        <ele>63.41619</ele>
        <time>2021-12-26T10:07:41.999Z</time>
      </trkpt>
      <trkpt lat="48.03697" lon="-1.54096">
        <ele>63.45146</ele>
        <time>2021-12-26T10:07:42.999Z</time>
      </trkpt>
      <trkpt lat="48.03696" lon="-1.5409">
        <ele>63.5</ele>
        <time>2021-12-26T10:07:43.999Z</time>
      </trkpt>
      <trkpt lat="48.03694" lon="-1.54084">
        <ele>63.55834</ele>
        <time>2021-12-26T10:07:44.999Z</time>
      </trkpt>
      <trkpt lat="48.03693" lon="-1.54079">
        <ele>63.61057</ele>
        <time>2021-12-26T10:07:45.999Z</time>
      </trkpt>
      <trkpt lat="48.03691" lon="-1.54073">
        <ele>63.664</ele>
        <time>2021-12-26T10:07:46.999Z</time>
      </trkpt>
      <trkpt lat="48.0369" lon="-1.54067">
        <ele>63.7219</ele>
        <time>2021-12-26T10:07:47.999Z</time>
      </trkpt>
      <trkpt lat="48.03688" lon="-1.54062">
        <ele>63.78651</ele>
        <time>2021-12-26T10:07:48.999Z</time>
      </trkpt>
      <trkpt lat="48.03686" lon="-1.54056">
        <ele>63.87033</ele>
        <time>2021-12-26T10:07:49.999Z</time>
      </trkpt>
      <trkpt lat="48.03684" lon="-1.5405">
        <ele>63.96268</ele>
        <time>2021-12-26T10:07:50.999Z</time>
      </trkpt>
      <trkpt lat="48.03683" lon="-1.54044">
        <ele>64.01808</ele>
        <time>2021-12-26T10:07:51.999Z</time>
      </trkpt>
      <trkpt lat="48.03682" lon="-1.54039">
        <ele>64.05812</ele>
        <time>2021-12-26T10:07:52.999Z</time>
      </trkpt>
      <trkpt lat="48.0368" lon="-1.54033">
        <ele>64.06209</ele>
        <time>2021-12-26T10:07:53.999Z</time>
      </trkpt>
      <trkpt lat="48.03679" lon="-1.54028">
        <ele>64.02981</ele>
        <time>2021-12-26T10:07:54.999Z</time>
      </trkpt>
      <trkpt lat="48.03677" lon="-1.54022">
        <ele>63.94695</ele>
        <time>2021-12-26T10:07:55.999Z</time>
      </trkpt>
      <trkpt lat="48.03676" lon="-1.54017">
        <ele>63.83139</ele>
        <time>2021-12-26T10:07:56.999Z</time>
      </trkpt>
      <trkpt lat="48.03675" lon="-1.5401">
        <ele>63.70412</ele>
        <time>2021-12-26T10:07:57.999Z</time>
      </trkpt>
      <trkpt lat="48.03674" lon="-1.54004">
        <ele>63.60689</ele>
        <time>2021-12-26T10:07:58.999Z</time>
      </trkpt>
      <trkpt lat="48.03674" lon="-1.53998">
        <ele>63.53813</ele>
        <time>2021-12-26T10:07:59.999Z</time>
      </trkpt>
      <trkpt lat="48.03673" lon="-1.53992">
        <ele>63.4952</ele>
        <time>2021-12-26T10:08:00.999Z</time>
      </trkpt>
      <trkpt lat="48.03673" lon="-1.53986">
        <ele>63.4651</ele>
        <time>2021-12-26T10:08:01.999Z</time>
      </trkpt>
      <trkpt lat="48.03672" lon="-1.5398">
        <ele>63.43602</ele>
        <time>2021-12-26T10:08:02.999Z</time>
      </trkpt>
      <trkpt lat="48.03672" lon="-1.53974">
        <ele>63.40141</ele>
        <time>2021-12-26T10:08:03.999Z</time>
      </trkpt>
      <trkpt lat="48.03671" lon="-1.53968">
        <ele>63.35222</ele>
        <time>2021-12-26T10:08:04.999Z</time>
      </trkpt>
      <trkpt lat="48.0367" lon="-1.53962">
        <ele>63.30048</ele>
        <time>2021-12-26T10:08:05.999Z</time>
      </trkpt>
      <trkpt lat="48.0367" lon="-1.53955">
        <ele>63.24273</ele>
        <time>2021-12-26T10:08:06.999Z</time>
      </trkpt>
      <trkpt lat="48.03669" lon="-1.53949">
        <ele>63.18549</ele>
        <time>2021-12-26T10:08:07.999Z</time>
      </trkpt>
      <trkpt lat="48.03668" lon="-1.53943">
        <ele>63.13095</ele>
        <time>2021-12-26T10:08:08.999Z</time>
      </trkpt>
      <trkpt lat="48.03667" lon="-1.53937">
        <ele>63.07661</ele>
        <time>2021-12-26T10:08:09.999Z</time>
      </trkpt>
      <trkpt lat="48.03666" lon="-1.5393">
        <ele>63.03242</ele>
        <time>2021-12-26T10:08:10.999Z</time>
      </trkpt>
      <trkpt lat="48.03666" lon="-1.53924">
        <ele>62.99328</ele>
        <time>2021-12-26T10:08:11.999Z</time>
      </trkpt>
      <trkpt lat="48.03665" lon="-1.53918">
        <ele>62.9562</ele>
        <time>2021-12-26T10:08:12.999Z</time>
      </trkpt>
      <trkpt lat="48.03664" lon="-1.53912">
        <ele>62.90657</ele>
        <time>2021-12-26T10:08:13.999Z</time>
      </trkpt>
      <trkpt lat="48.03663" lon="-1.53905">
        <ele>62.83946</ele>
        <time>2021-12-26T10:08:14.999Z</time>
      </trkpt>
      <trkpt lat="48.03662" lon="-1.53899">
        <ele>62.74401</ele>
        <time>2021-12-26T10:08:15.999Z</time>
      </trkpt>
      <trkpt lat="48.03662" lon="-1.53892">
        <ele>62.62837</ele>
        <time>2021-12-26T10:08:16.999Z</time>
      </trkpt>
      <trkpt lat="48.03661" lon="-1.53885">
        <ele>62.49884</ele>
        <time>2021-12-26T10:08:17.999Z</time>
      </trkpt>
      <trkpt lat="48.03661" lon="-1.53879">
        <ele>62.38441</ele>
        <time>2021-12-26T10:08:18.999Z</time>
      </trkpt>
      <trkpt lat="48.0366" lon="-1.53872">
        <ele>62.28531</ele>
        <time>2021-12-26T10:08:19.999Z</time>
      </trkpt>
      <trkpt lat="48.03659" lon="-1.53865">
        <ele>62.23033</ele>
        <time>2021-12-26T10:08:20.999Z</time>
      </trkpt>
      <trkpt lat="48.03658" lon="-1.53858">
        <ele>62.20512</ele>
        <time>2021-12-26T10:08:21.999Z</time>
      </trkpt>
      <trkpt lat="48.03658" lon="-1.5385">
        <ele>62.19372</ele>
        <time>2021-12-26T10:08:22.999Z</time>
      </trkpt>
      <trkpt lat="48.03657" lon="-1.53842">
        <ele>62.17314</ele>
        <time>2021-12-26T10:08:23.999Z</time>
      </trkpt>
      <trkpt lat="48.03657" lon="-1.53834">
        <ele>62.12444</ele>
        <time>2021-12-26T10:08:24.999Z</time>
      </trkpt>
      <trkpt lat="48.03657" lon="-1.53826">
        <ele>62.06371</ele>
        <time>2021-12-26T10:08:25.999Z</time>
      </trkpt>
      <trkpt lat="48.03658" lon="-1.53819">
        <ele>61.99378</ele>
        <time>2021-12-26T10:08:26.999Z</time>
      </trkpt>
      <trkpt lat="48.03658" lon="-1.53811">
        <ele>61.91196</ele>
        <time>2021-12-26T10:08:27.999Z</time>
      </trkpt>
      <trkpt lat="48.03659" lon="-1.53804">
        <ele>61.81862</ele>
        <time>2021-12-26T10:08:28.999Z</time>
      </trkpt>
      <trkpt lat="48.03659" lon="-1.53797">
        <ele>61.70321</ele>
        <time>2021-12-26T10:08:29.999Z</time>
      </trkpt>
      <trkpt lat="48.03659" lon="-1.53789">
        <ele>61.56476</ele>
        <time>2021-12-26T10:08:30.999Z</time>
      </trkpt>
      <trkpt lat="48.0366" lon="-1.53782">
        <ele>61.43937</ele>
        <time>2021-12-26T10:08:31.999Z</time>
      </trkpt>
      <trkpt lat="48.03661" lon="-1.53775">
        <ele>61.32662</ele>
        <time>2021-12-26T10:08:32.999Z</time>
      </trkpt>
      <trkpt lat="48.03662" lon="-1.53767">
        <ele>61.26125</ele>
        <time>2021-12-26T10:08:33.999Z</time>
      </trkpt>
      <trkpt lat="48.03663" lon="-1.53759">
        <ele>61.2568</ele>
        <time>2021-12-26T10:08:34.999Z</time>
      </trkpt>
      <trkpt lat="48.03664" lon="-1.53751">
        <ele>61.2749</ele>
        <time>2021-12-26T10:08:35.999Z</time>
      </trkpt>
      <trkpt lat="48.03666" lon="-1.53743">
        <ele>61.26792</ele>
        <time>2021-12-26T10:08:36.999Z</time>
      </trkpt>
      <trkpt lat="48.03667" lon="-1.53735">
        <ele>61.19127</ele>
        <time>2021-12-26T10:08:37.999Z</time>
      </trkpt>
      <trkpt lat="48.03669" lon="-1.53727">
        <ele>61.0183</ele>
        <time>2021-12-26T10:08:38.999Z</time>
      </trkpt>
      <trkpt lat="48.03671" lon="-1.53719">
        <ele>60.74654</ele>
        <time>2021-12-26T10:08:39.999Z</time>
      </trkpt>
      <trkpt lat="48.03674" lon="-1.53712">
        <ele>60.47459</ele>
        <time>2021-12-26T10:08:40.999Z</time>
      </trkpt>
      <trkpt lat="48.03677" lon="-1.53705">
        <ele>60.21913</ele>
        <time>2021-12-26T10:08:41.999Z</time>
      </trkpt>
      <trkpt lat="48.03679" lon="-1.53697">
        <ele>60.04631</ele>
        <time>2021-12-26T10:08:42.999Z</time>
      </trkpt>
      <trkpt lat="48.03681" lon="-1.5369">
        <ele>59.9556</ele>
        <time>2021-12-26T10:08:43.999Z</time>
      </trkpt>
      <trkpt lat="48.03683" lon="-1.53683">
        <ele>59.90364</ele>
        <time>2021-12-26T10:08:44.999Z</time>
      </trkpt>
      <trkpt lat="48.03682" lon="-1.53677">
        <ele>59.84295</ele>
        <time>2021-12-26T10:08:45.999Z</time>
      </trkpt>
      <trkpt lat="48.03681" lon="-1.53671">
        <ele>59.79632</ele>
        <time>2021-12-26T10:08:46.999Z</time>
      </trkpt>
      <trkpt lat="48.03678" lon="-1.53667">
        <ele>59.75089</ele>
        <time>2021-12-26T10:08:47.999Z</time>
      </trkpt>
      <trkpt lat="48.03675" lon="-1.53666">
        <ele>59.74209</ele>
        <time>2021-12-26T10:08:48.999Z</time>
      </trkpt>
      <trkpt lat="48.03675" lon="-1.53666">
        <ele>59.74209</ele>
        <time>2021-12-26T10:08:48.999Z</time>
      </trkpt>
      <trkpt lat="48.0367" lon="-1.53664">
        <ele>59.74877</ele>
        <time>2021-12-26T10:08:49.999Z</time>
      </trkpt>
      <trkpt lat="48.03667" lon="-1.53661">
        <ele>59.75537</ele>
        <time>2021-12-26T10:08:50.999Z</time>
      </trkpt>
      <trkpt lat="48.03663" lon="-1.53658">
        <ele>59.76063</ele>
        <time>2021-12-26T10:08:51.999Z</time>
      </trkpt>
      <trkpt lat="48.03659" lon="-1.53655">
        <ele>59.76966</ele>
        <time>2021-12-26T10:08:52.999Z</time>
      </trkpt>
      <trkpt lat="48.03654" lon="-1.53653">
        <ele>59.79662</ele>
        <time>2021-12-26T10:08:53.999Z</time>
      </trkpt>
      <trkpt lat="48.0365" lon="-1.53649">
        <ele>59.82647</ele>
        <time>2021-12-26T10:08:54.999Z</time>
      </trkpt>
      <trkpt lat="48.03646" lon="-1.53647">
        <ele>59.8613</ele>
        <time>2021-12-26T10:08:55.999Z</time>
      </trkpt>
      <trkpt lat="48.03642" lon="-1.53645">
        <ele>59.90917</ele>
        <time>2021-12-26T10:08:56.999Z</time>
      </trkpt>
      <trkpt lat="48.03638" lon="-1.53643">
        <ele>59.94846</ele>
        <time>2021-12-26T10:08:57.999Z</time>
      </trkpt>
      <trkpt lat="48.03634" lon="-1.53641">
        <ele>59.98563</ele>
        <time>2021-12-26T10:08:58.999Z</time>
      </trkpt>
      <trkpt lat="48.03629" lon="-1.53639">
        <ele>60.02378</ele>
        <time>2021-12-26T10:08:59.999Z</time>
      </trkpt>
      <trkpt lat="48.03625" lon="-1.53637">
        <ele>60.06407</ele>
        <time>2021-12-26T10:09:00.999Z</time>
      </trkpt>
      <trkpt lat="48.03621" lon="-1.53636">
        <ele>60.1158</ele>
        <time>2021-12-26T10:09:01.999Z</time>
      </trkpt>
      <trkpt lat="48.03617" lon="-1.53634">
        <ele>60.19074</ele>
        <time>2021-12-26T10:09:02.999Z</time>
      </trkpt>
      <trkpt lat="48.03612" lon="-1.53632">
        <ele>60.30112</ele>
        <time>2021-12-26T10:09:03.999Z</time>
      </trkpt>
      <trkpt lat="48.03608" lon="-1.53631">
        <ele>60.43004</ele>
        <time>2021-12-26T10:09:04.999Z</time>
      </trkpt>
      <trkpt lat="48.03604" lon="-1.5363">
        <ele>60.55826</ele>
        <time>2021-12-26T10:09:05.999Z</time>
      </trkpt>
      <trkpt lat="48.03599" lon="-1.53629">
        <ele>60.7065</ele>
        <time>2021-12-26T10:09:06.999Z</time>
      </trkpt>
      <trkpt lat="48.03595" lon="-1.53629">
        <ele>60.837</ele>
        <time>2021-12-26T10:09:07.999Z</time>
      </trkpt>
      <trkpt lat="48.03591" lon="-1.53629">
        <ele>60.93399</ele>
        <time>2021-12-26T10:09:08.999Z</time>
      </trkpt>
      <trkpt lat="48.03587" lon="-1.53629">
        <ele>61.01019</ele>
        <time>2021-12-26T10:09:09.999Z</time>
      </trkpt>
      <trkpt lat="48.03583" lon="-1.5363">
        <ele>61.074</ele>
        <time>2021-12-26T10:09:10.999Z</time>
      </trkpt>
      <trkpt lat="48.03579" lon="-1.5363">
        <ele>61.1226</ele>
        <time>2021-12-26T10:09:11.999Z</time>
      </trkpt>
      <trkpt lat="48.03575" lon="-1.5363">
        <ele>61.17167</ele>
        <time>2021-12-26T10:09:12.999Z</time>
      </trkpt>
      <trkpt lat="48.03571" lon="-1.53631">
        <ele>61.23033</ele>
        <time>2021-12-26T10:09:13.999Z</time>
      </trkpt>
      <trkpt lat="48.03567" lon="-1.53631">
        <ele>61.30626</ele>
        <time>2021-12-26T10:09:14.999Z</time>
      </trkpt>
      <trkpt lat="48.03563" lon="-1.53633">
        <ele>61.40197</ele>
        <time>2021-12-26T10:09:15.999Z</time>
      </trkpt>
      <trkpt lat="48.03559" lon="-1.53634">
        <ele>61.4952</ele>
        <time>2021-12-26T10:09:16.999Z</time>
      </trkpt>
      <trkpt lat="48.03555" lon="-1.53635">
        <ele>61.57959</ele>
        <time>2021-12-26T10:09:17.999Z</time>
      </trkpt>
      <trkpt lat="48.03551" lon="-1.53637">
        <ele>61.64682</ele>
        <time>2021-12-26T10:09:18.999Z</time>
      </trkpt>
      <trkpt lat="48.03548" lon="-1.5364">
        <ele>61.69087</ele>
        <time>2021-12-26T10:09:19.999Z</time>
      </trkpt>
      <trkpt lat="48.03545" lon="-1.53644">
        <ele>61.7165</ele>
        <time>2021-12-26T10:09:20.999Z</time>
      </trkpt>
      <trkpt lat="48.03542" lon="-1.53649">
        <ele>61.73784</ele>
        <time>2021-12-26T10:09:21.999Z</time>
      </trkpt>
      <trkpt lat="48.03539" lon="-1.53653">
        <ele>61.72779</ele>
        <time>2021-12-26T10:09:22.999Z</time>
      </trkpt>
      <trkpt lat="48.03537" lon="-1.53658">
        <ele>61.73009</ele>
        <time>2021-12-26T10:09:23.999Z</time>
      </trkpt>
      <trkpt lat="48.03535" lon="-1.53663">
        <ele>61.70226</ele>
        <time>2021-12-26T10:09:24.999Z</time>
      </trkpt>
      <trkpt lat="48.03533" lon="-1.53667">
        <ele>61.65561</ele>
        <time>2021-12-26T10:09:25.999Z</time>
      </trkpt>
      <trkpt lat="48.0353" lon="-1.53673">
        <ele>61.5844</ele>
        <time>2021-12-26T10:09:26.999Z</time>
      </trkpt>
      <trkpt lat="48.03528" lon="-1.53678">
        <ele>61.5162</ele>
        <time>2021-12-26T10:09:27.999Z</time>
      </trkpt>
      <trkpt lat="48.03525" lon="-1.53682">
        <ele>61.45243</ele>
        <time>2021-12-26T10:09:28.999Z</time>
      </trkpt>
      <trkpt lat="48.03521" lon="-1.53686">
        <ele>61.392</ele>
        <time>2021-12-26T10:09:29.999Z</time>
      </trkpt>
      <trkpt lat="48.03518" lon="-1.53689">
        <ele>61.34716</ele>
        <time>2021-12-26T10:09:30.999Z</time>
      </trkpt>
      <trkpt lat="48.03514" lon="-1.5369">
        <ele>61.31041</ele>
        <time>2021-12-26T10:09:31.999Z</time>
      </trkpt>
      <trkpt lat="48.03511" lon="-1.53691">
        <ele>61.2732</ele>
        <time>2021-12-26T10:09:32.999Z</time>
      </trkpt>
      <trkpt lat="48.03507" lon="-1.53692">
        <ele>61.22478</ele>
        <time>2021-12-26T10:09:33.999Z</time>
      </trkpt>
      <trkpt lat="48.03503" lon="-1.53692">
        <ele>61.16371</ele>
        <time>2021-12-26T10:09:34.999Z</time>
      </trkpt>
      <trkpt lat="48.035" lon="-1.53693">
        <ele>61.08394</ele>
        <time>2021-12-26T10:09:35.999Z</time>
      </trkpt>
      <trkpt lat="48.03496" lon="-1.53694">
        <ele>60.98027</ele>
        <time>2021-12-26T10:09:36.999Z</time>
      </trkpt>
      <trkpt lat="48.03492" lon="-1.53695">
        <ele>60.84749</ele>
        <time>2021-12-26T10:09:37.999Z</time>
      </trkpt>
      <trkpt lat="48.03489" lon="-1.53696">
        <ele>60.70653</ele>
        <time>2021-12-26T10:09:38.999Z</time>
      </trkpt>
      <trkpt lat="48.03485" lon="-1.53697">
        <ele>60.55178</ele>
        <time>2021-12-26T10:09:39.999Z</time>
      </trkpt>
      <trkpt lat="48.03481" lon="-1.53698">
        <ele>60.4303</ele>
        <time>2021-12-26T10:09:40.999Z</time>
      </trkpt>
      <trkpt lat="48.03478" lon="-1.537">
        <ele>60.33339</ele>
        <time>2021-12-26T10:09:41.999Z</time>
      </trkpt>
      <trkpt lat="48.03475" lon="-1.53705">
        <ele>60.29517</ele>
        <time>2021-12-26T10:09:42.999Z</time>
      </trkpt>
      <trkpt lat="48.03474" lon="-1.53711">
        <ele>60.28466</ele>
        <time>2021-12-26T10:09:43.999Z</time>
      </trkpt>
      <trkpt lat="48.03473" lon="-1.53717">
        <ele>60.28976</ele>
        <time>2021-12-26T10:09:44.999Z</time>
      </trkpt>
      <trkpt lat="48.03472" lon="-1.53723">
        <ele>60.31009</ele>
        <time>2021-12-26T10:09:45.999Z</time>
      </trkpt>
      <trkpt lat="48.03471" lon="-1.53729">
        <ele>60.34163</ele>
        <time>2021-12-26T10:09:46.999Z</time>
      </trkpt>
      <trkpt lat="48.0347" lon="-1.53735">
        <ele>60.38026</ele>
        <time>2021-12-26T10:09:47.999Z</time>
      </trkpt>
      <trkpt lat="48.03469" lon="-1.53741">
        <ele>60.4146</ele>
        <time>2021-12-26T10:09:48.999Z</time>
      </trkpt>
      <trkpt lat="48.03467" lon="-1.53747">
        <ele>60.44011</ele>
        <time>2021-12-26T10:09:49.999Z</time>
      </trkpt>
      <trkpt lat="48.03466" lon="-1.53753">
        <ele>60.45898</ele>
        <time>2021-12-26T10:09:50.999Z</time>
      </trkpt>
      <trkpt lat="48.03465" lon="-1.53759">
        <ele>60.4703</ele>
        <time>2021-12-26T10:09:51.999Z</time>
      </trkpt>
      <trkpt lat="48.03464" lon="-1.53765">
        <ele>60.49458</ele>
        <time>2021-12-26T10:09:52.999Z</time>
      </trkpt>
      <trkpt lat="48.03463" lon="-1.53772">
        <ele>60.52695</ele>
        <time>2021-12-26T10:09:53.999Z</time>
      </trkpt>
      <trkpt lat="48.03463" lon="-1.53778">
        <ele>60.56988</ele>
        <time>2021-12-26T10:09:54.999Z</time>
      </trkpt>
      <trkpt lat="48.03463" lon="-1.53785">
        <ele>60.61257</ele>
        <time>2021-12-26T10:09:55.999Z</time>
      </trkpt>
      <trkpt lat="48.03464" lon="-1.53791">
        <ele>60.65595</ele>
        <time>2021-12-26T10:09:56.999Z</time>
      </trkpt>
      <trkpt lat="48.03466" lon="-1.53797">
        <ele>60.6777</ele>
        <time>2021-12-26T10:09:57.999Z</time>
      </trkpt>
      <trkpt lat="48.03467" lon="-1.53802">
        <ele>60.69587</ele>
        <time>2021-12-26T10:09:58.999Z</time>
      </trkpt>
      <trkpt lat="48.03469" lon="-1.53808">
        <ele>60.71036</ele>
        <time>2021-12-26T10:09:59.999Z</time>
      </trkpt>
      <trkpt lat="48.03471" lon="-1.53813">
        <ele>60.71954</ele>
        <time>2021-12-26T10:10:00.999Z</time>
      </trkpt>
      <trkpt lat="48.0347" lon="-1.53819">
        <ele>60.72422</ele>
        <time>2021-12-26T10:10:01.999Z</time>
      </trkpt>
      <trkpt lat="48.03468" lon="-1.53824">
        <ele>60.73013</ele>
        <time>2021-12-26T10:10:02.999Z</time>
      </trkpt>
      <trkpt lat="48.03465" lon="-1.53828">
        <ele>60.727</ele>
        <time>2021-12-26T10:10:03.999Z</time>
      </trkpt>
      <trkpt lat="48.03461" lon="-1.5383">
        <ele>60.69207</ele>
        <time>2021-12-26T10:10:04.999Z</time>
      </trkpt>
      <trkpt lat="48.03457" lon="-1.53832">
        <ele>60.64328</ele>
        <time>2021-12-26T10:10:05.999Z</time>
      </trkpt>
      <trkpt lat="48.03453" lon="-1.53834">
        <ele>60.58212</ele>
        <time>2021-12-26T10:10:06.999Z</time>
      </trkpt>
      <trkpt lat="48.03449" lon="-1.53836">
        <ele>60.50597</ele>
        <time>2021-12-26T10:10:07.999Z</time>
      </trkpt>
      <trkpt lat="48.03445" lon="-1.53839">
        <ele>60.42861</ele>
        <time>2021-12-26T10:10:08.999Z</time>
      </trkpt>
      <trkpt lat="48.03441" lon="-1.5384">
        <ele>60.34982</ele>
        <time>2021-12-26T10:10:09.999Z</time>
      </trkpt>
      <trkpt lat="48.03437" lon="-1.53841">
        <ele>60.26815</ele>
        <time>2021-12-26T10:10:10.999Z</time>
      </trkpt>
      <trkpt lat="48.03432" lon="-1.53841">
        <ele>60.16232</ele>
        <time>2021-12-26T10:10:11.999Z</time>
      </trkpt>
      <trkpt lat="48.03428" lon="-1.5384">
        <ele>60.02222</ele>
        <time>2021-12-26T10:10:12.999Z</time>
      </trkpt>
      <trkpt lat="48.03424" lon="-1.53839">
        <ele>59.90894</ele>
        <time>2021-12-26T10:10:13.999Z</time>
      </trkpt>
      <trkpt lat="48.03419" lon="-1.53839">
        <ele>59.79423</ele>
        <time>2021-12-26T10:10:14.999Z</time>
      </trkpt>
      <trkpt lat="48.03415" lon="-1.53838">
        <ele>59.68829</ele>
        <time>2021-12-26T10:10:15.999Z</time>
      </trkpt>
      <trkpt lat="48.03412" lon="-1.53837">
        <ele>59.57799</ele>
        <time>2021-12-26T10:10:16.999Z</time>
      </trkpt>
      <trkpt lat="48.03407" lon="-1.53833">
        <ele>59.34343</ele>
        <time>2021-12-26T10:10:17.999Z</time>
      </trkpt>
      <trkpt lat="48.03407" lon="-1.53833">
        <ele>59.34343</ele>
        <time>2021-12-26T10:10:17.999Z</time>
      </trkpt>
      <trkpt lat="48.03402" lon="-1.53829">
        <ele>59.11579</ele>
        <time>2021-12-26T10:10:18.999Z</time>
      </trkpt>
      <trkpt lat="48.03398" lon="-1.53824">
        <ele>58.89926</ele>
        <time>2021-12-26T10:10:19.999Z</time>
      </trkpt>
      <trkpt lat="48.03394" lon="-1.53819">
        <ele>58.70789</ele>
        <time>2021-12-26T10:10:20.999Z</time>
      </trkpt>
      <trkpt lat="48.0339" lon="-1.53815">
        <ele>58.53375</ele>
        <time>2021-12-26T10:10:21.999Z</time>
      </trkpt>
      <trkpt lat="48.03386" lon="-1.5381">
        <ele>58.34537</ele>
        <time>2021-12-26T10:10:22.999Z</time>
      </trkpt>
      <trkpt lat="48.03382" lon="-1.53805">
        <ele>58.13575</ele>
        <time>2021-12-26T10:10:23.999Z</time>
      </trkpt>
      <trkpt lat="48.03379" lon="-1.538">
        <ele>57.91144</ele>
        <time>2021-12-26T10:10:24.999Z</time>
      </trkpt>
      <trkpt lat="48.03375" lon="-1.53795">
        <ele>57.69528</ele>
        <time>2021-12-26T10:10:25.999Z</time>
      </trkpt>
      <trkpt lat="48.03371" lon="-1.53791">
        <ele>57.50896</ele>
        <time>2021-12-26T10:10:26.999Z</time>
      </trkpt>
      <trkpt lat="48.03367" lon="-1.53786">
        <ele>57.33058</ele>
        <time>2021-12-26T10:10:27.999Z</time>
      </trkpt>
      <trkpt lat="48.03363" lon="-1.53782">
        <ele>57.16613</ele>
        <time>2021-12-26T10:10:28.999Z</time>
      </trkpt>
      <trkpt lat="48.03358" lon="-1.53779">
        <ele>56.94336</ele>
        <time>2021-12-26T10:10:29.999Z</time>
      </trkpt>
      <trkpt lat="48.03353" lon="-1.53775">
        <ele>56.68365</ele>
        <time>2021-12-26T10:10:30.999Z</time>
      </trkpt>
      <trkpt lat="48.03349" lon="-1.53771">
        <ele>56.4189</ele>
        <time>2021-12-26T10:10:31.999Z</time>
      </trkpt>
      <trkpt lat="48.03344" lon="-1.53768">
        <ele>56.11422</ele>
        <time>2021-12-26T10:10:32.999Z</time>
      </trkpt>
      <trkpt lat="48.03338" lon="-1.53766">
        <ele>55.82078</ele>
        <time>2021-12-26T10:10:33.999Z</time>
      </trkpt>
      <trkpt lat="48.03333" lon="-1.53764">
        <ele>55.5388</ele>
        <time>2021-12-26T10:10:34.999Z</time>
      </trkpt>
      <trkpt lat="48.03328" lon="-1.53762">
        <ele>55.27413</ele>
        <time>2021-12-26T10:10:35.999Z</time>
      </trkpt>
      <trkpt lat="48.03323" lon="-1.5376">
        <ele>55.04059</ele>
        <time>2021-12-26T10:10:36.999Z</time>
      </trkpt>
      <trkpt lat="48.03319" lon="-1.53758">
        <ele>54.81432</ele>
        <time>2021-12-26T10:10:37.999Z</time>
      </trkpt>
      <trkpt lat="48.03314" lon="-1.53756">
        <ele>54.58542</ele>
        <time>2021-12-26T10:10:38.999Z</time>
      </trkpt>
      <trkpt lat="48.0331" lon="-1.53753">
        <ele>54.34078</ele>
        <time>2021-12-26T10:10:39.999Z</time>
      </trkpt>
      <trkpt lat="48.03305" lon="-1.53752">
        <ele>54.09642</ele>
        <time>2021-12-26T10:10:40.999Z</time>
      </trkpt>
      <trkpt lat="48.033" lon="-1.5375">
        <ele>53.84531</ele>
        <time>2021-12-26T10:10:41.999Z</time>
      </trkpt>
      <trkpt lat="48.03296" lon="-1.53748">
        <ele>53.59688</ele>
        <time>2021-12-26T10:10:42.999Z</time>
      </trkpt>
      <trkpt lat="48.03291" lon="-1.53746">
        <ele>53.35111</ele>
        <time>2021-12-26T10:10:43.999Z</time>
      </trkpt>
      <trkpt lat="48.03286" lon="-1.53744">
        <ele>53.10964</ele>
        <time>2021-12-26T10:10:44.999Z</time>
      </trkpt>
      <trkpt lat="48.0328" lon="-1.53741">
        <ele>52.86319</ele>
        <time>2021-12-26T10:10:45.999Z</time>
      </trkpt>
      <trkpt lat="48.03275" lon="-1.53739">
        <ele>52.59569</ele>
        <time>2021-12-26T10:10:46.999Z</time>
      </trkpt>
      <trkpt lat="48.03269" lon="-1.53736">
        <ele>52.28838</ele>
        <time>2021-12-26T10:10:47.999Z</time>
      </trkpt>
      <trkpt lat="48.03264" lon="-1.53733">
        <ele>51.94365</ele>
        <time>2021-12-26T10:10:48.999Z</time>
      </trkpt>
      <trkpt lat="48.03258" lon="-1.53729">
        <ele>51.56894</ele>
        <time>2021-12-26T10:10:49.999Z</time>
      </trkpt>
      <trkpt lat="48.03252" lon="-1.53726">
        <ele>51.18324</ele>
        <time>2021-12-26T10:10:50.999Z</time>
      </trkpt>
      <trkpt lat="48.03246" lon="-1.53724">
        <ele>50.76476</ele>
        <time>2021-12-26T10:10:51.999Z</time>
      </trkpt>
      <trkpt lat="48.0324" lon="-1.53721">
        <ele>50.30691</ele>
        <time>2021-12-26T10:10:52.999Z</time>
      </trkpt>
      <trkpt lat="48.03234" lon="-1.53719">
        <ele>49.87728</ele>
        <time>2021-12-26T10:10:53.999Z</time>
      </trkpt>
      <trkpt lat="48.03228" lon="-1.53716">
        <ele>49.47161</ele>
        <time>2021-12-26T10:10:54.999Z</time>
      </trkpt>
      <trkpt lat="48.03222" lon="-1.53713">
        <ele>49.1091</ele>
        <time>2021-12-26T10:10:55.999Z</time>
      </trkpt>
      <trkpt lat="48.03216" lon="-1.53711">
        <ele>48.76022</ele>
        <time>2021-12-26T10:10:56.999Z</time>
      </trkpt>
      <trkpt lat="48.03209" lon="-1.53709">
        <ele>48.3657</ele>
        <time>2021-12-26T10:10:57.999Z</time>
      </trkpt>
      <trkpt lat="48.03203" lon="-1.53707">
        <ele>47.90144</ele>
        <time>2021-12-26T10:10:58.999Z</time>
      </trkpt>
      <trkpt lat="48.03197" lon="-1.53705">
        <ele>47.37547</ele>
        <time>2021-12-26T10:10:59.999Z</time>
      </trkpt>
      <trkpt lat="48.0319" lon="-1.53704">
        <ele>46.84519</ele>
        <time>2021-12-26T10:11:00.999Z</time>
      </trkpt>
      <trkpt lat="48.03183" lon="-1.53703">
        <ele>46.37263</ele>
        <time>2021-12-26T10:11:01.999Z</time>
      </trkpt>
      <trkpt lat="48.03177" lon="-1.53702">
        <ele>45.99674</ele>
        <time>2021-12-26T10:11:02.999Z</time>
      </trkpt>
      <trkpt lat="48.0317" lon="-1.53703">
        <ele>45.66161</ele>
        <time>2021-12-26T10:11:03.999Z</time>
      </trkpt>
      <trkpt lat="48.03164" lon="-1.53703">
        <ele>45.33741</ele>
        <time>2021-12-26T10:11:04.999Z</time>
      </trkpt>
      <trkpt lat="48.03158" lon="-1.53704">
        <ele>45.05458</ele>
        <time>2021-12-26T10:11:05.999Z</time>
      </trkpt>
      <trkpt lat="48.03152" lon="-1.53705">
        <ele>44.78426</ele>
        <time>2021-12-26T10:11:06.999Z</time>
      </trkpt>
      <trkpt lat="48.03146" lon="-1.53706">
        <ele>44.54114</ele>
        <time>2021-12-26T10:11:07.999Z</time>
      </trkpt>
      <trkpt lat="48.0314" lon="-1.53706">
        <ele>44.30066</ele>
        <time>2021-12-26T10:11:08.999Z</time>
      </trkpt>
      <trkpt lat="48.03135" lon="-1.53706">
        <ele>44.11858</ele>
        <time>2021-12-26T10:11:09.999Z</time>
      </trkpt>
      <trkpt lat="48.03131" lon="-1.53707">
        <ele>43.99034</ele>
        <time>2021-12-26T10:11:10.999Z</time>
      </trkpt>
      <trkpt lat="48.03128" lon="-1.53708">
        <ele>43.89293</ele>
        <time>2021-12-26T10:11:11.999Z</time>
      </trkpt>
      <trkpt lat="48.03128" lon="-1.53708">
        <ele>43.89293</ele>
        <time>2021-12-26T10:11:11.999Z</time>
      </trkpt>
      <trkpt lat="48.03124" lon="-1.53707">
        <ele>43.78631</ele>
        <time>2021-12-26T10:11:12.999Z</time>
      </trkpt>
      <trkpt lat="48.03121" lon="-1.53704">
        <ele>43.69986</ele>
        <time>2021-12-26T10:11:13.999Z</time>
      </trkpt>
      <trkpt lat="48.03122" lon="-1.53697">
        <ele>43.74459</ele>
        <time>2021-12-26T10:11:14.999Z</time>
      </trkpt>
      <trkpt lat="48.03123" lon="-1.5369">
        <ele>43.76044</ele>
        <time>2021-12-26T10:11:15.999Z</time>
      </trkpt>
      <trkpt lat="48.03121" lon="-1.53684">
        <ele>43.72413</ele>
        <time>2021-12-26T10:11:16.999Z</time>
      </trkpt>
      <trkpt lat="48.0312" lon="-1.53678">
        <ele>43.68328</ele>
        <time>2021-12-26T10:11:17.999Z</time>
      </trkpt>
      <trkpt lat="48.03117" lon="-1.53675">
        <ele>43.59466</ele>
        <time>2021-12-26T10:11:18.999Z</time>
      </trkpt>
      <trkpt lat="48.03113" lon="-1.53668">
        <ele>43.50618</ele>
        <time>2021-12-26T10:11:19.999Z</time>
      </trkpt>
      <trkpt lat="48.03108" lon="-1.53662">
        <ele>43.45728</ele>
        <time>2021-12-26T10:11:20.999Z</time>
      </trkpt>
      <trkpt lat="48.03105" lon="-1.53659">
        <ele>43.44947</ele>
        <time>2021-12-26T10:11:21.999Z</time>
      </trkpt>
      <trkpt lat="48.03103" lon="-1.53651">
        <ele>43.54918</ele>
        <time>2021-12-26T10:11:23.999Z</time>
      </trkpt>
      <trkpt lat="48.03104" lon="-1.53644">
        <ele>43.67177</ele>
        <time>2021-12-26T10:11:24.999Z</time>
      </trkpt>
      <trkpt lat="48.03105" lon="-1.53638">
        <ele>43.7925</ele>
        <time>2021-12-26T10:11:25.999Z</time>
      </trkpt>
      <trkpt lat="48.03106" lon="-1.53631">
        <ele>43.89478</ele>
        <time>2021-12-26T10:11:26.999Z</time>
      </trkpt>
      <trkpt lat="48.03107" lon="-1.53625">
        <ele>43.99114</ele>
        <time>2021-12-26T10:11:27.999Z</time>
      </trkpt>
      <trkpt lat="48.03108" lon="-1.53618">
        <ele>44.08036</ele>
        <time>2021-12-26T10:11:28.999Z</time>
      </trkpt>
      <trkpt lat="48.03109" lon="-1.53613">
        <ele>44.1495</ele>
        <time>2021-12-26T10:11:29.999Z</time>
      </trkpt>
      <trkpt lat="48.0311" lon="-1.53608">
        <ele>44.21736</ele>
        <time>2021-12-26T10:11:30.999Z</time>
      </trkpt>
      <trkpt lat="48.03111" lon="-1.53601">
        <ele>44.31247</ele>
        <time>2021-12-26T10:11:31.999Z</time>
      </trkpt>
      <trkpt lat="48.03111" lon="-1.53595">
        <ele>44.40467</ele>
        <time>2021-12-26T10:11:32.999Z</time>
      </trkpt>
      <trkpt lat="48.03112" lon="-1.53589">
        <ele>44.50085</ele>
        <time>2021-12-26T10:11:33.999Z</time>
      </trkpt>
      <trkpt lat="48.03112" lon="-1.53583">
        <ele>44.59683</ele>
        <time>2021-12-26T10:11:34.999Z</time>
      </trkpt>
      <trkpt lat="48.03113" lon="-1.53577">
        <ele>44.6939</ele>
        <time>2021-12-26T10:11:35.999Z</time>
      </trkpt>
      <trkpt lat="48.03114" lon="-1.53572">
        <ele>44.79153</ele>
        <time>2021-12-26T10:11:36.999Z</time>
      </trkpt>
      <trkpt lat="48.03114" lon="-1.53565">
        <ele>44.90282</ele>
        <time>2021-12-26T10:11:37.999Z</time>
      </trkpt>
      <trkpt lat="48.03115" lon="-1.53559">
        <ele>45.00888</ele>
        <time>2021-12-26T10:11:38.999Z</time>
      </trkpt>
      <trkpt lat="48.03115" lon="-1.53553">
        <ele>45.1167</ele>
        <time>2021-12-26T10:11:39.999Z</time>
      </trkpt>
      <trkpt lat="48.03116" lon="-1.53548">
        <ele>45.21847</ele>
        <time>2021-12-26T10:11:40.999Z</time>
      </trkpt>
      <trkpt lat="48.03116" lon="-1.53543">
        <ele>45.3139</ele>
        <time>2021-12-26T10:11:41.999Z</time>
      </trkpt>
      <trkpt lat="48.03116" lon="-1.53537">
        <ele>45.42996</ele>
        <time>2021-12-26T10:11:42.999Z</time>
      </trkpt>
      <trkpt lat="48.03117" lon="-1.53532">
        <ele>45.53953</ele>
        <time>2021-12-26T10:11:43.999Z</time>
      </trkpt>
      <trkpt lat="48.03117" lon="-1.53526">
        <ele>45.67245</ele>
        <time>2021-12-26T10:11:44.999Z</time>
      </trkpt>
      <trkpt lat="48.03117" lon="-1.5352">
        <ele>45.85063</ele>
        <time>2021-12-26T10:11:45.999Z</time>
      </trkpt>
      <trkpt lat="48.03117" lon="-1.53514">
        <ele>46.0386</ele>
        <time>2021-12-26T10:11:46.999Z</time>
      </trkpt>
      <trkpt lat="48.03117" lon="-1.53509">
        <ele>46.24769</ele>
        <time>2021-12-26T10:11:47.999Z</time>
      </trkpt>
      <trkpt lat="48.03117" lon="-1.53503">
        <ele>46.47001</ele>
        <time>2021-12-26T10:11:48.999Z</time>
      </trkpt>
      <trkpt lat="48.03117" lon="-1.53498">
        <ele>46.67597</ele>
        <time>2021-12-26T10:11:49.999Z</time>
      </trkpt>
      <trkpt lat="48.03116" lon="-1.53493">
        <ele>46.86867</ele>
        <time>2021-12-26T10:11:50.999Z</time>
      </trkpt>
      <trkpt lat="48.03116" lon="-1.53488">
        <ele>47.02718</ele>
        <time>2021-12-26T10:11:51.999Z</time>
      </trkpt>
      <trkpt lat="48.03116" lon="-1.53485">
        <ele>47.14739</ele>
        <time>2021-12-26T10:11:52.999Z</time>
      </trkpt>
      <trkpt lat="48.03116" lon="-1.53481">
        <ele>47.25198</ele>
        <time>2021-12-26T10:11:53.999Z</time>
      </trkpt>
      <trkpt lat="48.03116" lon="-1.53478">
        <ele>47.35225</ele>
        <time>2021-12-26T10:11:54.999Z</time>
      </trkpt>
      <trkpt lat="48.03116" lon="-1.53474">
        <ele>47.4629</ele>
        <time>2021-12-26T10:11:55.999Z</time>
      </trkpt>
      <trkpt lat="48.03116" lon="-1.5347">
        <ele>47.57391</ele>
        <time>2021-12-26T10:11:56.999Z</time>
      </trkpt>
      <trkpt lat="48.03115" lon="-1.53465">
        <ele>47.68912</ele>
        <time>2021-12-26T10:11:57.999Z</time>
      </trkpt>
      <trkpt lat="48.03115" lon="-1.53461">
        <ele>47.79908</ele>
        <time>2021-12-26T10:11:58.999Z</time>
      </trkpt>
      <trkpt lat="48.03114" lon="-1.53457">
        <ele>47.91273</ele>
        <time>2021-12-26T10:11:59.999Z</time>
      </trkpt>
      <trkpt lat="48.03114" lon="-1.53453">
        <ele>48.01377</ele>
        <time>2021-12-26T10:12:00.999Z</time>
      </trkpt>
      <trkpt lat="48.03113" lon="-1.5345">
        <ele>48.10565</ele>
        <time>2021-12-26T10:12:01.999Z</time>
      </trkpt>
      <trkpt lat="48.03113" lon="-1.53445">
        <ele>48.20622</ele>
        <time>2021-12-26T10:12:02.999Z</time>
      </trkpt>
      <trkpt lat="48.03112" lon="-1.53442">
        <ele>48.2851</ele>
        <time>2021-12-26T10:12:03.999Z</time>
      </trkpt>
      <trkpt lat="48.03111" lon="-1.53438">
        <ele>48.36416</ele>
        <time>2021-12-26T10:12:04.999Z</time>
      </trkpt>
      <trkpt lat="48.03111" lon="-1.53435">
        <ele>48.42047</ele>
        <time>2021-12-26T10:12:05.999Z</time>
      </trkpt>
      <trkpt lat="48.0311" lon="-1.53432">
        <ele>48.48543</ele>
        <time>2021-12-26T10:12:06.999Z</time>
      </trkpt>
      <trkpt lat="48.03109" lon="-1.53428">
        <ele>48.57175</ele>
        <time>2021-12-26T10:12:07.999Z</time>
      </trkpt>
      <trkpt lat="48.03108" lon="-1.53426">
        <ele>48.64529</ele>
        <time>2021-12-26T10:12:08.999Z</time>
      </trkpt>
      <trkpt lat="48.03108" lon="-1.53422">
        <ele>48.74313</ele>
        <time>2021-12-26T10:12:09.999Z</time>
      </trkpt>
      <trkpt lat="48.03107" lon="-1.5342">
        <ele>48.83251</ele>
        <time>2021-12-26T10:12:10.999Z</time>
      </trkpt>
      <trkpt lat="48.03106" lon="-1.53417">
        <ele>48.94899</ele>
        <time>2021-12-26T10:12:11.999Z</time>
      </trkpt>
      <trkpt lat="48.03105" lon="-1.53413">
        <ele>49.08596</ele>
        <time>2021-12-26T10:12:12.999Z</time>
      </trkpt>
      <trkpt lat="48.03104" lon="-1.5341">
        <ele>49.24858</ele>
        <time>2021-12-26T10:12:13.999Z</time>
      </trkpt>
      <trkpt lat="48.03104" lon="-1.5341">
        <ele>49.24858</ele>
        <time>2021-12-26T10:12:13.999Z</time>
      </trkpt>
      <trkpt lat="48.03103" lon="-1.53406">
        <ele>49.40882</ele>
        <time>2021-12-26T10:12:14.999Z</time>
      </trkpt>
      <trkpt lat="48.03102" lon="-1.53403">
        <ele>49.57584</ele>
        <time>2021-12-26T10:12:15.999Z</time>
      </trkpt>
      <trkpt lat="48.03102" lon="-1.53399">
        <ele>49.7458</ele>
        <time>2021-12-26T10:12:16.999Z</time>
      </trkpt>
      <trkpt lat="48.03101" lon="-1.53395">
        <ele>49.93945</ele>
        <time>2021-12-26T10:12:17.999Z</time>
      </trkpt>
      <trkpt lat="48.031" lon="-1.53391">
        <ele>50.09783</ele>
        <time>2021-12-26T10:12:18.999Z</time>
      </trkpt>
      <trkpt lat="48.031" lon="-1.53388">
        <ele>50.24797</ele>
        <time>2021-12-26T10:12:19.999Z</time>
      </trkpt>
      <trkpt lat="48.03099" lon="-1.53384">
        <ele>50.41628</ele>
        <time>2021-12-26T10:12:20.999Z</time>
      </trkpt>
      <trkpt lat="48.03099" lon="-1.5338">
        <ele>50.59461</ele>
        <time>2021-12-26T10:12:21.999Z</time>
      </trkpt>
      <trkpt lat="48.03099" lon="-1.53376">
        <ele>50.76136</ele>
        <time>2021-12-26T10:12:22.999Z</time>
      </trkpt>
      <trkpt lat="48.03098" lon="-1.53372">
        <ele>50.92009</ele>
        <time>2021-12-26T10:12:23.999Z</time>
      </trkpt>
      <trkpt lat="48.03098" lon="-1.53368">
        <ele>51.09086</ele>
        <time>2021-12-26T10:12:24.999Z</time>
      </trkpt>
      <trkpt lat="48.03098" lon="-1.53365">
        <ele>51.20957</ele>
        <time>2021-12-26T10:12:25.999Z</time>
      </trkpt>
      <trkpt lat="48.03097" lon="-1.53363">
        <ele>51.32469</ele>
        <time>2021-12-26T10:12:26.999Z</time>
      </trkpt>
      <trkpt lat="48.03097" lon="-1.53359">
        <ele>51.48088</ele>
        <time>2021-12-26T10:12:27.999Z</time>
      </trkpt>
      <trkpt lat="48.03097" lon="-1.53355">
        <ele>51.62129</ele>
        <time>2021-12-26T10:12:28.999Z</time>
      </trkpt>
      <trkpt lat="48.03097" lon="-1.53351">
        <ele>51.79053</ele>
        <time>2021-12-26T10:12:29.999Z</time>
      </trkpt>
      <trkpt lat="48.03096" lon="-1.53348">
        <ele>51.91524</ele>
        <time>2021-12-26T10:12:31.999Z</time>
      </trkpt>
      <trkpt lat="48.03096" lon="-1.53343">
        <ele>52.06581</ele>
        <time>2021-12-26T10:12:32.999Z</time>
      </trkpt>
      <trkpt lat="48.03096" lon="-1.53339">
        <ele>52.22494</ele>
        <time>2021-12-26T10:12:33.999Z</time>
      </trkpt>
      <trkpt lat="48.03096" lon="-1.53335">
        <ele>52.38293</ele>
        <time>2021-12-26T10:12:34.999Z</time>
      </trkpt>
      <trkpt lat="48.03096" lon="-1.53332">
        <ele>52.49698</ele>
        <time>2021-12-26T10:12:35.999Z</time>
      </trkpt>
      <trkpt lat="48.03096" lon="-1.53328">
        <ele>52.60773</ele>
        <time>2021-12-26T10:12:36.999Z</time>
      </trkpt>
      <trkpt lat="48.03097" lon="-1.53324">
        <ele>52.75057</ele>
        <time>2021-12-26T10:12:37.999Z</time>
      </trkpt>
      <trkpt lat="48.03097" lon="-1.53321">
        <ele>52.87252</ele>
        <time>2021-12-26T10:12:38.999Z</time>
      </trkpt>
      <trkpt lat="48.03097" lon="-1.53317">
        <ele>52.98507</ele>
        <time>2021-12-26T10:12:39.999Z</time>
      </trkpt>
      <trkpt lat="48.03097" lon="-1.53313">
        <ele>53.08894</ele>
        <time>2021-12-26T10:12:40.999Z</time>
      </trkpt>
      <trkpt lat="48.03098" lon="-1.53309">
        <ele>53.18515</ele>
        <time>2021-12-26T10:12:41.999Z</time>
      </trkpt>
      <trkpt lat="48.03098" lon="-1.53306">
        <ele>53.26763</ele>
        <time>2021-12-26T10:12:42.999Z</time>
      </trkpt>
      <trkpt lat="48.03098" lon="-1.53302">
        <ele>53.34211</ele>
        <time>2021-12-26T10:12:43.999Z</time>
      </trkpt>
      <trkpt lat="48.03099" lon="-1.53299">
        <ele>53.41368</ele>
        <time>2021-12-26T10:12:44.999Z</time>
      </trkpt>
      <trkpt lat="48.03099" lon="-1.53295">
        <ele>53.48978</ele>
        <time>2021-12-26T10:12:45.999Z</time>
      </trkpt>
      <trkpt lat="48.031" lon="-1.53292">
        <ele>53.56395</ele>
        <time>2021-12-26T10:12:46.999Z</time>
      </trkpt>
      <trkpt lat="48.031" lon="-1.53288">
        <ele>53.64063</ele>
        <time>2021-12-26T10:12:47.999Z</time>
      </trkpt>
      <trkpt lat="48.03101" lon="-1.53285">
        <ele>53.71842</ele>
        <time>2021-12-26T10:12:48.999Z</time>
      </trkpt>
      <trkpt lat="48.03102" lon="-1.53282">
        <ele>53.79866</ele>
        <time>2021-12-26T10:12:49.999Z</time>
      </trkpt>
      <trkpt lat="48.03102" lon="-1.53278">
        <ele>53.87924</ele>
        <time>2021-12-26T10:12:50.999Z</time>
      </trkpt>
      <trkpt lat="48.03103" lon="-1.53275">
        <ele>53.94887</ele>
        <time>2021-12-26T10:12:51.999Z</time>
      </trkpt>
      <trkpt lat="48.03103" lon="-1.53272">
        <ele>54.02446</ele>
        <time>2021-12-26T10:12:52.999Z</time>
      </trkpt>
      <trkpt lat="48.03104" lon="-1.53268">
        <ele>54.10037</ele>
        <time>2021-12-26T10:12:53.999Z</time>
      </trkpt>
      <trkpt lat="48.03104" lon="-1.53265">
        <ele>54.17158</ele>
        <time>2021-12-26T10:12:54.999Z</time>
      </trkpt>
      <trkpt lat="48.03104" lon="-1.53262">
        <ele>54.24647</ele>
        <time>2021-12-26T10:12:55.999Z</time>
      </trkpt>
      <trkpt lat="48.03105" lon="-1.53258">
        <ele>54.32614</ele>
        <time>2021-12-26T10:12:56.999Z</time>
      </trkpt>
      <trkpt lat="48.03105" lon="-1.53254">
        <ele>54.40956</ele>
        <time>2021-12-26T10:12:57.999Z</time>
      </trkpt>
      <trkpt lat="48.03105" lon="-1.53251">
        <ele>54.49547</ele>
        <time>2021-12-26T10:12:58.999Z</time>
      </trkpt>
      <trkpt lat="48.03105" lon="-1.53247">
        <ele>54.57903</ele>
        <time>2021-12-26T10:12:59.999Z</time>
      </trkpt>
      <trkpt lat="48.03105" lon="-1.53244">
        <ele>54.67293</ele>
        <time>2021-12-26T10:13:00.999Z</time>
      </trkpt>
      <trkpt lat="48.03105" lon="-1.5324">
        <ele>54.78621</ele>
        <time>2021-12-26T10:13:01.999Z</time>
      </trkpt>
      <trkpt lat="48.03105" lon="-1.53236">
        <ele>54.89964</ele>
        <time>2021-12-26T10:13:02.999Z</time>
      </trkpt>
      <trkpt lat="48.03106" lon="-1.53233">
        <ele>55.00689</ele>
        <time>2021-12-26T10:13:03.999Z</time>
      </trkpt>
      <trkpt lat="48.03105" lon="-1.53229">
        <ele>55.10312</ele>
        <time>2021-12-26T10:13:04.999Z</time>
      </trkpt>
      <trkpt lat="48.03105" lon="-1.53226">
        <ele>55.19928</ele>
        <time>2021-12-26T10:13:05.999Z</time>
      </trkpt>
      <trkpt lat="48.03105" lon="-1.53222">
        <ele>55.2859</ele>
        <time>2021-12-26T10:13:06.999Z</time>
      </trkpt>
      <trkpt lat="48.03105" lon="-1.53219">
        <ele>55.36353</ele>
        <time>2021-12-26T10:13:07.999Z</time>
      </trkpt>
      <trkpt lat="48.03105" lon="-1.53215">
        <ele>55.43637</ele>
        <time>2021-12-26T10:13:08.999Z</time>
      </trkpt>
      <trkpt lat="48.03105" lon="-1.53211">
        <ele>55.51363</ele>
        <time>2021-12-26T10:13:09.999Z</time>
      </trkpt>
      <trkpt lat="48.03106" lon="-1.53208">
        <ele>55.58101</ele>
        <time>2021-12-26T10:13:10.999Z</time>
      </trkpt>
      <trkpt lat="48.03106" lon="-1.53204">
        <ele>55.64556</ele>
        <time>2021-12-26T10:13:11.999Z</time>
      </trkpt>
      <trkpt lat="48.03106" lon="-1.532">
        <ele>55.70124</ele>
        <time>2021-12-26T10:13:12.999Z</time>
      </trkpt>
      <trkpt lat="48.03106" lon="-1.53195">
        <ele>55.75771</ele>
        <time>2021-12-26T10:13:14.999Z</time>
      </trkpt>
      <trkpt lat="48.03106" lon="-1.53192">
        <ele>55.79685</ele>
        <time>2021-12-26T10:13:15.999Z</time>
      </trkpt>
      <trkpt lat="48.03106" lon="-1.53187">
        <ele>55.82624</ele>
        <time>2021-12-26T10:13:16.999Z</time>
      </trkpt>
      <trkpt lat="48.03106" lon="-1.53183">
        <ele>55.84513</ele>
        <time>2021-12-26T10:13:17.999Z</time>
      </trkpt>
      <trkpt lat="48.03106" lon="-1.53178">
        <ele>55.84551</ele>
        <time>2021-12-26T10:13:18.999Z</time>
      </trkpt>
      <trkpt lat="48.03106" lon="-1.53174">
        <ele>55.81142</ele>
        <time>2021-12-26T10:13:19.999Z</time>
      </trkpt>
      <trkpt lat="48.03106" lon="-1.53169">
        <ele>55.76951</ele>
        <time>2021-12-26T10:13:20.999Z</time>
      </trkpt>
      <trkpt lat="48.03106" lon="-1.53165">
        <ele>55.73317</ele>
        <time>2021-12-26T10:13:21.999Z</time>
      </trkpt>
      <trkpt lat="48.03106" lon="-1.53161">
        <ele>55.70516</ele>
        <time>2021-12-26T10:13:22.999Z</time>
      </trkpt>
      <trkpt lat="48.03106" lon="-1.53157">
        <ele>55.68009</ele>
        <time>2021-12-26T10:13:23.999Z</time>
      </trkpt>
      <trkpt lat="48.03106" lon="-1.53154">
        <ele>55.66941</ele>
        <time>2021-12-26T10:13:24.999Z</time>
      </trkpt>
      <trkpt lat="48.03106" lon="-1.5315">
        <ele>55.6747</ele>
        <time>2021-12-26T10:13:25.999Z</time>
      </trkpt>
      <trkpt lat="48.03106" lon="-1.53145">
        <ele>55.6989</ele>
        <time>2021-12-26T10:13:26.999Z</time>
      </trkpt>
      <trkpt lat="48.03106" lon="-1.53141">
        <ele>55.73372</ele>
        <time>2021-12-26T10:13:27.999Z</time>
      </trkpt>
      <trkpt lat="48.03107" lon="-1.53137">
        <ele>55.77741</ele>
        <time>2021-12-26T10:13:28.999Z</time>
      </trkpt>
      <trkpt lat="48.03107" lon="-1.53133">
        <ele>55.83228</ele>
        <time>2021-12-26T10:13:29.999Z</time>
      </trkpt>
      <trkpt lat="48.03107" lon="-1.53129">
        <ele>55.89018</ele>
        <time>2021-12-26T10:13:30.999Z</time>
      </trkpt>
      <trkpt lat="48.03108" lon="-1.53125">
        <ele>55.93949</ele>
        <time>2021-12-26T10:13:31.999Z</time>
      </trkpt>
      <trkpt lat="48.03108" lon="-1.53125">
        <ele>55.93949</ele>
        <time>2021-12-26T10:13:31.999Z</time>
      </trkpt>
      <trkpt lat="48.03108" lon="-1.53121">
        <ele>55.99519</ele>
        <time>2021-12-26T10:13:32.999Z</time>
      </trkpt>
      <trkpt lat="48.03108" lon="-1.53118">
        <ele>56.02866</ele>
        <time>2021-12-26T10:13:33.999Z</time>
      </trkpt>
      <trkpt lat="48.03108" lon="-1.53114">
        <ele>56.06674</ele>
        <time>2021-12-26T10:13:34.999Z</time>
      </trkpt>
      <trkpt lat="48.03108" lon="-1.53111">
        <ele>56.09273</ele>
        <time>2021-12-26T10:13:35.999Z</time>
      </trkpt>
      <trkpt lat="48.03108" lon="-1.53107">
        <ele>56.12034</ele>
        <time>2021-12-26T10:13:36.999Z</time>
      </trkpt>
      <trkpt lat="48.03107" lon="-1.53103">
        <ele>56.15416</ele>
        <time>2021-12-26T10:13:37.999Z</time>
      </trkpt>
      <trkpt lat="48.03107" lon="-1.53099">
        <ele>56.2005</ele>
        <time>2021-12-26T10:13:38.999Z</time>
      </trkpt>
      <trkpt lat="48.03108" lon="-1.53095">
        <ele>56.2509</ele>
        <time>2021-12-26T10:13:39.999Z</time>
      </trkpt>
      <trkpt lat="48.03109" lon="-1.53092">
        <ele>56.28882</ele>
        <time>2021-12-26T10:13:40.999Z</time>
      </trkpt>
      <trkpt lat="48.0311" lon="-1.53088">
        <ele>56.30943</ele>
        <time>2021-12-26T10:13:41.999Z</time>
      </trkpt>
      <trkpt lat="48.03112" lon="-1.53085">
        <ele>56.3198</ele>
        <time>2021-12-26T10:13:42.999Z</time>
      </trkpt>
      <trkpt lat="48.03115" lon="-1.53081">
        <ele>56.33309</ele>
        <time>2021-12-26T10:13:43.999Z</time>
      </trkpt>
      <trkpt lat="48.03117" lon="-1.53078">
        <ele>56.36094</ele>
        <time>2021-12-26T10:13:44.999Z</time>
      </trkpt>
      <trkpt lat="48.03119" lon="-1.53074">
        <ele>56.41221</ele>
        <time>2021-12-26T10:13:45.999Z</time>
      </trkpt>
      <trkpt lat="48.03122" lon="-1.53071">
        <ele>56.47809</ele>
        <time>2021-12-26T10:13:46.999Z</time>
      </trkpt>
      <trkpt lat="48.03124" lon="-1.53067">
        <ele>56.54451</ele>
        <time>2021-12-26T10:13:47.999Z</time>
      </trkpt>
      <trkpt lat="48.03127" lon="-1.53063">
        <ele>56.59851</ele>
        <time>2021-12-26T10:13:48.999Z</time>
      </trkpt>
      <trkpt lat="48.03129" lon="-1.53059">
        <ele>56.6336</ele>
        <time>2021-12-26T10:13:49.999Z</time>
      </trkpt>
      <trkpt lat="48.03132" lon="-1.53055">
        <ele>56.65198</ele>
        <time>2021-12-26T10:13:50.999Z</time>
      </trkpt>
      <trkpt lat="48.03134" lon="-1.53051">
        <ele>56.6662</ele>
        <time>2021-12-26T10:13:51.999Z</time>
      </trkpt>
      <trkpt lat="48.03137" lon="-1.53047">
        <ele>56.6878</ele>
        <time>2021-12-26T10:13:52.999Z</time>
      </trkpt>
      <trkpt lat="48.0314" lon="-1.53043">
        <ele>56.71978</ele>
        <time>2021-12-26T10:13:53.999Z</time>
      </trkpt>
      <trkpt lat="48.03142" lon="-1.5304">
        <ele>56.76019</ele>
        <time>2021-12-26T10:13:54.999Z</time>
      </trkpt>
      <trkpt lat="48.03145" lon="-1.53036">
        <ele>56.80597</ele>
        <time>2021-12-26T10:13:55.999Z</time>
      </trkpt>
      <trkpt lat="48.03147" lon="-1.53032">
        <ele>56.84661</ele>
        <time>2021-12-26T10:13:56.999Z</time>
      </trkpt>
      <trkpt lat="48.0315" lon="-1.53028">
        <ele>56.87406</ele>
        <time>2021-12-26T10:13:57.999Z</time>
      </trkpt>
      <trkpt lat="48.03153" lon="-1.53024">
        <ele>56.88569</ele>
        <time>2021-12-26T10:13:58.999Z</time>
      </trkpt>
      <trkpt lat="48.03156" lon="-1.5302">
        <ele>56.88823</ele>
        <time>2021-12-26T10:13:59.999Z</time>
      </trkpt>
      <trkpt lat="48.03159" lon="-1.53016">
        <ele>56.89435</ele>
        <time>2021-12-26T10:14:00.999Z</time>
      </trkpt>
      <trkpt lat="48.03162" lon="-1.53012">
        <ele>56.90576</ele>
        <time>2021-12-26T10:14:01.999Z</time>
      </trkpt>
      <trkpt lat="48.03165" lon="-1.53008">
        <ele>56.92562</ele>
        <time>2021-12-26T10:14:02.999Z</time>
      </trkpt>
      <trkpt lat="48.03168" lon="-1.53003">
        <ele>56.94872</ele>
        <time>2021-12-26T10:14:03.999Z</time>
      </trkpt>
      <trkpt lat="48.03171" lon="-1.52999">
        <ele>56.96333</ele>
        <time>2021-12-26T10:14:04.999Z</time>
      </trkpt>
      <trkpt lat="48.03174" lon="-1.52995">
        <ele>56.96172</ele>
        <time>2021-12-26T10:14:05.999Z</time>
      </trkpt>
      <trkpt lat="48.03177" lon="-1.52991">
        <ele>56.94355</ele>
        <time>2021-12-26T10:14:06.999Z</time>
      </trkpt>
      <trkpt lat="48.0318" lon="-1.52988">
        <ele>56.91762</ele>
        <time>2021-12-26T10:14:07.999Z</time>
      </trkpt>
      <trkpt lat="48.03184" lon="-1.52984">
        <ele>56.90178</ele>
        <time>2021-12-26T10:14:08.999Z</time>
      </trkpt>
      <trkpt lat="48.03187" lon="-1.52981">
        <ele>56.90669</ele>
        <time>2021-12-26T10:14:09.999Z</time>
      </trkpt>
      <trkpt lat="48.03191" lon="-1.52977">
        <ele>56.93756</ele>
        <time>2021-12-26T10:14:10.999Z</time>
      </trkpt>
      <trkpt lat="48.03194" lon="-1.52974">
        <ele>56.98983</ele>
        <time>2021-12-26T10:14:11.999Z</time>
      </trkpt>
      <trkpt lat="48.03198" lon="-1.5297">
        <ele>57.04691</ele>
        <time>2021-12-26T10:14:12.999Z</time>
      </trkpt>
      <trkpt lat="48.03202" lon="-1.52967">
        <ele>57.09413</ele>
        <time>2021-12-26T10:14:13.999Z</time>
      </trkpt>
      <trkpt lat="48.03205" lon="-1.52963">
        <ele>57.1295</ele>
        <time>2021-12-26T10:14:14.999Z</time>
      </trkpt>
      <trkpt lat="48.03209" lon="-1.5296">
        <ele>57.15818</ele>
        <time>2021-12-26T10:14:15.999Z</time>
      </trkpt>
      <trkpt lat="48.03213" lon="-1.52957">
        <ele>57.19034</ele>
        <time>2021-12-26T10:14:16.999Z</time>
      </trkpt>
      <trkpt lat="48.03216" lon="-1.52954">
        <ele>57.2327</ele>
        <time>2021-12-26T10:14:17.999Z</time>
      </trkpt>
      <trkpt lat="48.0322" lon="-1.52951">
        <ele>57.27971</ele>
        <time>2021-12-26T10:14:18.999Z</time>
      </trkpt>
      <trkpt lat="48.03224" lon="-1.52947">
        <ele>57.31459</ele>
        <time>2021-12-26T10:14:19.999Z</time>
      </trkpt>
      <trkpt lat="48.03227" lon="-1.52944">
        <ele>57.31599</ele>
        <time>2021-12-26T10:14:20.999Z</time>
      </trkpt>
      <trkpt lat="48.03231" lon="-1.52941">
        <ele>57.28736</ele>
        <time>2021-12-26T10:14:21.999Z</time>
      </trkpt>
      <trkpt lat="48.03234" lon="-1.52938">
        <ele>57.24182</ele>
        <time>2021-12-26T10:14:22.999Z</time>
      </trkpt>
      <trkpt lat="48.03238" lon="-1.52934">
        <ele>57.18984</ele>
        <time>2021-12-26T10:14:23.999Z</time>
      </trkpt>
      <trkpt lat="48.03242" lon="-1.52931">
        <ele>57.15217</ele>
        <time>2021-12-26T10:14:24.999Z</time>
      </trkpt>
      <trkpt lat="48.03245" lon="-1.52927">
        <ele>57.14485</ele>
        <time>2021-12-26T10:14:25.999Z</time>
      </trkpt>
      <trkpt lat="48.03249" lon="-1.52924">
        <ele>57.15239</ele>
        <time>2021-12-26T10:14:26.999Z</time>
      </trkpt>
      <trkpt lat="48.03253" lon="-1.52921">
        <ele>57.15945</ele>
        <time>2021-12-26T10:14:27.999Z</time>
      </trkpt>
      <trkpt lat="48.03256" lon="-1.52918">
        <ele>57.1585</ele>
        <time>2021-12-26T10:14:28.999Z</time>
      </trkpt>
      <trkpt lat="48.0326" lon="-1.52914">
        <ele>57.15326</ele>
        <time>2021-12-26T10:14:29.999Z</time>
      </trkpt>
      <trkpt lat="48.03264" lon="-1.52911">
        <ele>57.16216</ele>
        <time>2021-12-26T10:14:30.999Z</time>
      </trkpt>
      <trkpt lat="48.03267" lon="-1.52908">
        <ele>57.18528</ele>
        <time>2021-12-26T10:14:31.999Z</time>
      </trkpt>
      <trkpt lat="48.03271" lon="-1.52905">
        <ele>57.23619</ele>
        <time>2021-12-26T10:14:32.999Z</time>
      </trkpt>
      <trkpt lat="48.03274" lon="-1.52902">
        <ele>57.31519</ele>
        <time>2021-12-26T10:14:33.999Z</time>
      </trkpt>
      <trkpt lat="48.03278" lon="-1.529">
        <ele>57.4282</ele>
        <time>2021-12-26T10:14:34.999Z</time>
      </trkpt>
      <trkpt lat="48.03282" lon="-1.52897">
        <ele>57.56672</ele>
        <time>2021-12-26T10:14:35.999Z</time>
      </trkpt>
      <trkpt lat="48.03286" lon="-1.52895">
        <ele>57.72224</ele>
        <time>2021-12-26T10:14:36.999Z</time>
      </trkpt>
      <trkpt lat="48.03289" lon="-1.52892">
        <ele>57.89999</ele>
        <time>2021-12-26T10:14:37.999Z</time>
      </trkpt>
      <trkpt lat="48.03293" lon="-1.5289">
        <ele>58.08828</ele>
        <time>2021-12-26T10:14:38.999Z</time>
      </trkpt>
      <trkpt lat="48.03297" lon="-1.52889">
        <ele>58.27826</ele>
        <time>2021-12-26T10:14:39.999Z</time>
      </trkpt>
      <trkpt lat="48.03301" lon="-1.52887">
        <ele>58.46954</ele>
        <time>2021-12-26T10:14:40.999Z</time>
      </trkpt>
      <trkpt lat="48.03305" lon="-1.52885">
        <ele>58.64727</ele>
        <time>2021-12-26T10:14:41.999Z</time>
      </trkpt>
      <trkpt lat="48.03309" lon="-1.52884">
        <ele>58.81504</ele>
        <time>2021-12-26T10:14:42.999Z</time>
      </trkpt>
      <trkpt lat="48.03312" lon="-1.52882">
        <ele>58.97878</ele>
        <time>2021-12-26T10:14:43.999Z</time>
      </trkpt>
      <trkpt lat="48.03316" lon="-1.5288">
        <ele>59.12202</ele>
        <time>2021-12-26T10:14:44.999Z</time>
      </trkpt>
      <trkpt lat="48.0332" lon="-1.52879">
        <ele>59.24454</ele>
        <time>2021-12-26T10:14:45.999Z</time>
      </trkpt>
      <trkpt lat="48.03324" lon="-1.52877">
        <ele>59.3376</ele>
        <time>2021-12-26T10:14:46.999Z</time>
      </trkpt>
      <trkpt lat="48.03328" lon="-1.52875">
        <ele>59.40505</ele>
        <time>2021-12-26T10:14:47.999Z</time>
      </trkpt>
      <trkpt lat="48.03332" lon="-1.52873">
        <ele>59.45063</ele>
        <time>2021-12-26T10:14:48.999Z</time>
      </trkpt>
      <trkpt lat="48.03335" lon="-1.52871">
        <ele>59.47285</ele>
        <time>2021-12-26T10:14:49.999Z</time>
      </trkpt>
      <trkpt lat="48.03339" lon="-1.5287">
        <ele>59.48752</ele>
        <time>2021-12-26T10:14:50.999Z</time>
      </trkpt>
      <trkpt lat="48.03343" lon="-1.52868">
        <ele>59.52585</ele>
        <time>2021-12-26T10:14:51.999Z</time>
      </trkpt>
      <trkpt lat="48.03346" lon="-1.52866">
        <ele>59.58702</ele>
        <time>2021-12-26T10:14:52.999Z</time>
      </trkpt>
      <trkpt lat="48.0335" lon="-1.52864">
        <ele>59.705</ele>
        <time>2021-12-26T10:14:53.999Z</time>
      </trkpt>
      <trkpt lat="48.03354" lon="-1.52861">
        <ele>59.86578</ele>
        <time>2021-12-26T10:14:54.999Z</time>
      </trkpt>
      <trkpt lat="48.03357" lon="-1.52859">
        <ele>60.03121</ele>
        <time>2021-12-26T10:14:55.999Z</time>
      </trkpt>
      <trkpt lat="48.03361" lon="-1.52856">
        <ele>60.18004</ele>
        <time>2021-12-26T10:14:56.999Z</time>
      </trkpt>
      <trkpt lat="48.03364" lon="-1.52853">
        <ele>60.29701</ele>
        <time>2021-12-26T10:14:57.999Z</time>
      </trkpt>
      <trkpt lat="48.03368" lon="-1.5285">
        <ele>60.37926</ele>
        <time>2021-12-26T10:14:58.999Z</time>
      </trkpt>
      <trkpt lat="48.03371" lon="-1.52847">
        <ele>60.42986</ele>
        <time>2021-12-26T10:14:59.999Z</time>
      </trkpt>
      <trkpt lat="48.03374" lon="-1.52844">
        <ele>60.48598</ele>
        <time>2021-12-26T10:15:00.999Z</time>
      </trkpt>
      <trkpt lat="48.03377" lon="-1.52841">
        <ele>60.56727</ele>
        <time>2021-12-26T10:15:01.999Z</time>
      </trkpt>
      <trkpt lat="48.0338" lon="-1.52837">
        <ele>60.68516</ele>
        <time>2021-12-26T10:15:02.999Z</time>
      </trkpt>
      <trkpt lat="48.03383" lon="-1.52834">
        <ele>60.82111</ele>
        <time>2021-12-26T10:15:03.999Z</time>
      </trkpt>
      <trkpt lat="48.03386" lon="-1.5283">
        <ele>60.95598</ele>
        <time>2021-12-26T10:15:04.999Z</time>
      </trkpt>
      <trkpt lat="48.03389" lon="-1.52827">
        <ele>61.06033</ele>
        <time>2021-12-26T10:15:05.999Z</time>
      </trkpt>
      <trkpt lat="48.03392" lon="-1.52824">
        <ele>61.12822</ele>
        <time>2021-12-26T10:15:06.999Z</time>
      </trkpt>
      <trkpt lat="48.03392" lon="-1.52824">
        <ele>61.12822</ele>
      </trkpt>
      <trkpt lat="48.03394" lon="-1.52821">
        <ele>61.17315</ele>
      </trkpt>
      <trkpt lat="48.03396" lon="-1.52818">
        <ele>61.20942</ele>
      </trkpt>
      <trkpt lat="48.03398" lon="-1.52816">
        <ele>61.24418</ele>
      </trkpt>
      <trkpt lat="48.034" lon="-1.52814">
        <ele>61.28449</ele>
      </trkpt>
      <trkpt lat="48.03401" lon="-1.52812">
        <ele>61.32792</ele>
      </trkpt>
      <trkpt lat="48.03403" lon="-1.52809">
        <ele>61.40425</ele>
      </trkpt>
      <trkpt lat="48.03402" lon="-1.52809">
        <ele>61.39696</ele>
      </trkpt>
      <trkpt lat="48.03402" lon="-1.52809">
        <ele>61.39696</ele>
      </trkpt>
      <trkpt lat="48.03406" lon="-1.52807">
        <ele>61.52009</ele>
      </trkpt>
      <trkpt lat="48.03409" lon="-1.52803">
        <ele>61.70999</ele>
      </trkpt>
      <trkpt lat="48.03413" lon="-1.52798">
        <ele>61.90208</ele>
      </trkpt>
      <trkpt lat="48.03413" lon="-1.52798">
        <ele>61.90208</ele>
        <time>2021-12-26T10:16:48.000Z</time>
      </trkpt>
      <trkpt lat="48.03416" lon="-1.52793">
        <ele>62.04963</ele>
        <time>2021-12-26T10:16:49.000Z</time>
      </trkpt>
      <trkpt lat="48.03421" lon="-1.52788">
        <ele>62.12857</ele>
        <time>2021-12-26T10:16:50.000Z</time>
      </trkpt>
      <trkpt lat="48.03425" lon="-1.52784">
        <ele>62.18148</ele>
        <time>2021-12-26T10:16:51.000Z</time>
      </trkpt>
      <trkpt lat="48.03429" lon="-1.52779">
        <ele>62.25125</ele>
        <time>2021-12-26T10:16:52.000Z</time>
      </trkpt>
      <trkpt lat="48.03433" lon="-1.52775">
        <ele>62.36215</ele>
        <time>2021-12-26T10:16:53.000Z</time>
      </trkpt>
      <trkpt lat="48.03437" lon="-1.5277">
        <ele>62.49028</ele>
        <time>2021-12-26T10:16:54.000Z</time>
      </trkpt>
      <trkpt lat="48.03442" lon="-1.52766">
        <ele>62.60893</ele>
        <time>2021-12-26T10:16:55.000Z</time>
      </trkpt>
      <trkpt lat="48.03446" lon="-1.52762">
        <ele>62.70636</ele>
        <time>2021-12-26T10:16:56.000Z</time>
      </trkpt>
      <trkpt lat="48.0345" lon="-1.52757">
        <ele>62.78454</ele>
        <time>2021-12-26T10:16:57.000Z</time>
      </trkpt>
      <trkpt lat="48.03454" lon="-1.52753">
        <ele>62.82991</ele>
        <time>2021-12-26T10:16:58.000Z</time>
      </trkpt>
      <trkpt lat="48.03458" lon="-1.52749">
        <ele>62.85088</ele>
        <time>2021-12-26T10:16:59.000Z</time>
      </trkpt>
      <trkpt lat="48.03462" lon="-1.52745">
        <ele>62.87641</ele>
        <time>2021-12-26T10:17:00.000Z</time>
      </trkpt>
      <trkpt lat="48.03466" lon="-1.52741">
        <ele>62.96136</ele>
        <time>2021-12-26T10:17:01.000Z</time>
      </trkpt>
      <trkpt lat="48.0347" lon="-1.52737">
        <ele>63.09599</ele>
        <time>2021-12-26T10:17:02.000Z</time>
      </trkpt>
      <trkpt lat="48.03474" lon="-1.52733">
        <ele>63.25745</ele>
        <time>2021-12-26T10:17:03.000Z</time>
      </trkpt>
      <trkpt lat="48.03478" lon="-1.52729">
        <ele>63.39097</ele>
        <time>2021-12-26T10:17:04.000Z</time>
      </trkpt>
      <trkpt lat="48.03482" lon="-1.52725">
        <ele>63.46274</ele>
        <time>2021-12-26T10:17:05.000Z</time>
      </trkpt>
      <trkpt lat="48.03486" lon="-1.52721">
        <ele>63.48995</ele>
        <time>2021-12-26T10:17:06.000Z</time>
      </trkpt>
      <trkpt lat="48.03491" lon="-1.52717">
        <ele>63.52826</ele>
        <time>2021-12-26T10:17:07.000Z</time>
      </trkpt>
      <trkpt lat="48.03495" lon="-1.52713">
        <ele>63.6516</ele>
        <time>2021-12-26T10:17:08.000Z</time>
      </trkpt>
      <trkpt lat="48.03498" lon="-1.52709">
        <ele>63.88129</ele>
        <time>2021-12-26T10:17:09.000Z</time>
      </trkpt>
      <trkpt lat="48.03502" lon="-1.52705">
        <ele>64.11713</ele>
        <time>2021-12-26T10:17:10.000Z</time>
      </trkpt>
      <trkpt lat="48.03506" lon="-1.52701">
        <ele>64.27586</ele>
        <time>2021-12-26T10:17:11.000Z</time>
      </trkpt>
      <trkpt lat="48.0351" lon="-1.52697">
        <ele>64.33653</ele>
        <time>2021-12-26T10:17:12.000Z</time>
      </trkpt>
      <trkpt lat="48.03514" lon="-1.52693">
        <ele>64.31041</ele>
        <time>2021-12-26T10:17:13.000Z</time>
      </trkpt>
      <trkpt lat="48.03517" lon="-1.5269">
        <ele>64.25621</ele>
        <time>2021-12-26T10:17:14.000Z</time>
      </trkpt>
      <trkpt lat="48.03521" lon="-1.52686">
        <ele>64.23302</ele>
        <time>2021-12-26T10:17:15.000Z</time>
      </trkpt>
      <trkpt lat="48.03525" lon="-1.52682">
        <ele>64.26869</ele>
        <time>2021-12-26T10:17:16.000Z</time>
      </trkpt>
      <trkpt lat="48.03529" lon="-1.52678">
        <ele>64.34707</ele>
        <time>2021-12-26T10:17:17.000Z</time>
      </trkpt>
      <trkpt lat="48.03533" lon="-1.52674">
        <ele>64.43923</ele>
        <time>2021-12-26T10:17:18.000Z</time>
      </trkpt>
      <trkpt lat="48.03537" lon="-1.5267">
        <ele>64.51232</ele>
        <time>2021-12-26T10:17:19.000Z</time>
      </trkpt>
      <trkpt lat="48.0354" lon="-1.52667">
        <ele>64.55361</ele>
        <time>2021-12-26T10:17:20.000Z</time>
      </trkpt>
      <trkpt lat="48.03544" lon="-1.52663">
        <ele>64.59021</ele>
        <time>2021-12-26T10:17:21.000Z</time>
      </trkpt>
      <trkpt lat="48.03548" lon="-1.52659">
        <ele>64.61408</ele>
        <time>2021-12-26T10:17:22.000Z</time>
      </trkpt>
      <trkpt lat="48.03552" lon="-1.52655">
        <ele>64.62944</ele>
        <time>2021-12-26T10:17:23.000Z</time>
      </trkpt>
      <trkpt lat="48.03556" lon="-1.52652">
        <ele>64.65627</ele>
        <time>2021-12-26T10:17:24.000Z</time>
      </trkpt>
      <trkpt lat="48.03559" lon="-1.52648">
        <ele>64.70492</ele>
        <time>2021-12-26T10:17:25.000Z</time>
      </trkpt>
      <trkpt lat="48.03563" lon="-1.52645">
        <ele>64.76274</ele>
        <time>2021-12-26T10:17:26.000Z</time>
      </trkpt>
      <trkpt lat="48.03567" lon="-1.52642">
        <ele>64.81386</ele>
        <time>2021-12-26T10:17:27.000Z</time>
      </trkpt>
      <trkpt lat="48.03571" lon="-1.52639">
        <ele>64.83309</ele>
        <time>2021-12-26T10:17:28.000Z</time>
      </trkpt>
      <trkpt lat="48.03575" lon="-1.52635">
        <ele>64.77826</ele>
        <time>2021-12-26T10:17:29.000Z</time>
      </trkpt>
      <trkpt lat="48.0358" lon="-1.52631">
        <ele>64.64449</ele>
        <time>2021-12-26T10:17:30.000Z</time>
      </trkpt>
      <trkpt lat="48.03584" lon="-1.52628">
        <ele>64.49363</ele>
        <time>2021-12-26T10:17:31.000Z</time>
      </trkpt>
      <trkpt lat="48.03588" lon="-1.52624">
        <ele>64.36992</ele>
        <time>2021-12-26T10:17:32.000Z</time>
      </trkpt>
      <trkpt lat="48.03592" lon="-1.52621">
        <ele>64.29599</ele>
        <time>2021-12-26T10:17:33.000Z</time>
      </trkpt>
      <trkpt lat="48.03596" lon="-1.52617">
        <ele>64.25731</ele>
        <time>2021-12-26T10:17:34.000Z</time>
      </trkpt>
      <trkpt lat="48.036" lon="-1.52612">
        <ele>64.22291</ele>
        <time>2021-12-26T10:17:35.000Z</time>
      </trkpt>
      <trkpt lat="48.03604" lon="-1.52608">
        <ele>64.1568</ele>
        <time>2021-12-26T10:17:36.000Z</time>
      </trkpt>
      <trkpt lat="48.03608" lon="-1.52603">
        <ele>64.06347</ele>
        <time>2021-12-26T10:17:37.000Z</time>
      </trkpt>
      <trkpt lat="48.03611" lon="-1.52599">
        <ele>63.95495</ele>
        <time>2021-12-26T10:17:38.000Z</time>
      </trkpt>
      <trkpt lat="48.03615" lon="-1.52594">
        <ele>63.86325</ele>
        <time>2021-12-26T10:17:39.000Z</time>
      </trkpt>
      <trkpt lat="48.03618" lon="-1.52588">
        <ele>63.76771</ele>
        <time>2021-12-26T10:17:40.000Z</time>
      </trkpt>
      <trkpt lat="48.03621" lon="-1.52583">
        <ele>63.63312</ele>
        <time>2021-12-26T10:17:41.000Z</time>
      </trkpt>
      <trkpt lat="48.03624" lon="-1.52577">
        <ele>63.42567</ele>
        <time>2021-12-26T10:17:42.000Z</time>
      </trkpt>
      <trkpt lat="48.03627" lon="-1.52571">
        <ele>63.16281</ele>
        <time>2021-12-26T10:17:43.000Z</time>
      </trkpt>
      <trkpt lat="48.0363" lon="-1.52565">
        <ele>62.8641</ele>
        <time>2021-12-26T10:17:44.000Z</time>
      </trkpt>
      <trkpt lat="48.03633" lon="-1.52558">
        <ele>62.65619</ele>
        <time>2021-12-26T10:17:45.000Z</time>
      </trkpt>
      <trkpt lat="48.03635" lon="-1.52552">
        <ele>62.53863</ele>
        <time>2021-12-26T10:17:46.000Z</time>
      </trkpt>
      <trkpt lat="48.03638" lon="-1.52546">
        <ele>62.49322</ele>
        <time>2021-12-26T10:17:47.000Z</time>
      </trkpt>
      <trkpt lat="48.03641" lon="-1.52539">
        <ele>62.47602</ele>
        <time>2021-12-26T10:17:48.000Z</time>
      </trkpt>
      <trkpt lat="48.03644" lon="-1.52533">
        <ele>62.44249</ele>
        <time>2021-12-26T10:17:49.000Z</time>
      </trkpt>
      <trkpt lat="48.03645" lon="-1.52526">
        <ele>62.40836</ele>
        <time>2021-12-26T10:17:50.000Z</time>
      </trkpt>
      <trkpt lat="48.03647" lon="-1.52519">
        <ele>62.38041</ele>
        <time>2021-12-26T10:17:51.000Z</time>
      </trkpt>
      <trkpt lat="48.03652" lon="-1.52519">
        <ele>62.19284</ele>
        <time>2021-12-26T10:17:52.000Z</time>
      </trkpt>
      <trkpt lat="48.03656" lon="-1.52514">
        <ele>62.1215</ele>
        <time>2021-12-26T10:17:53.000Z</time>
      </trkpt>
      <trkpt lat="48.03656" lon="-1.52514">
        <ele>62.1215</ele>
      </trkpt>
      <trkpt lat="48.0366" lon="-1.52506">
        <ele>62.06219</ele>
      </trkpt>
      <trkpt lat="48.03664" lon="-1.52502">
        <ele>61.95571</ele>
      </trkpt>
      <trkpt lat="48.03668" lon="-1.52497">
        <ele>61.78</ele>
      </trkpt>
      <trkpt lat="48.03672" lon="-1.52493">
        <ele>61.56598</ele>
      </trkpt>
      <trkpt lat="48.03677" lon="-1.5249">
        <ele>61.37906</ele>
      </trkpt>
      <trkpt lat="48.03682" lon="-1.52486">
        <ele>61.26829</ele>
      </trkpt>
      <trkpt lat="48.03687" lon="-1.52483">
        <ele>61.24098</ele>
      </trkpt>
      <trkpt lat="48.03692" lon="-1.5248">
        <ele>61.22443</ele>
      </trkpt>
      <trkpt lat="48.03697" lon="-1.52476">
        <ele>61.1599</ele>
      </trkpt>
      <trkpt lat="48.03703" lon="-1.52473">
        <ele>61.03553</ele>
      </trkpt>
      <trkpt lat="48.03708" lon="-1.5247">
        <ele>60.90059</ele>
      </trkpt>
      <trkpt lat="48.03713" lon="-1.52467">
        <ele>60.7771</ele>
      </trkpt>
      <trkpt lat="48.03718" lon="-1.52464">
        <ele>60.68783</ele>
      </trkpt>
      <trkpt lat="48.03723" lon="-1.52461">
        <ele>60.64957</ele>
      </trkpt>
      <trkpt lat="48.03728" lon="-1.52457">
        <ele>60.65406</ele>
      </trkpt>
      <trkpt lat="48.03733" lon="-1.52454">
        <ele>60.69866</ele>
      </trkpt>
      <trkpt lat="48.03738" lon="-1.52451">
        <ele>60.74478</ele>
      </trkpt>
      <trkpt lat="48.03743" lon="-1.52448">
        <ele>60.7505</ele>
      </trkpt>
      <trkpt lat="48.03748" lon="-1.52445">
        <ele>60.69873</ele>
      </trkpt>
      <trkpt lat="48.03753" lon="-1.52442">
        <ele>60.60811</ele>
      </trkpt>
      <trkpt lat="48.03758" lon="-1.52439">
        <ele>60.52398</ele>
      </trkpt>
      <trkpt lat="48.03762" lon="-1.52436">
        <ele>60.48683</ele>
      </trkpt>
      <trkpt lat="48.03767" lon="-1.52433">
        <ele>60.50485</ele>
      </trkpt>
      <trkpt lat="48.03772" lon="-1.5243">
        <ele>60.56688</ele>
      </trkpt>
      <trkpt lat="48.03777" lon="-1.52427">
        <ele>60.64362</ele>
      </trkpt>
      <trkpt lat="48.03782" lon="-1.52423">
        <ele>60.68334</ele>
      </trkpt>
      <trkpt lat="48.03787" lon="-1.52419">
        <ele>60.65196</ele>
      </trkpt>
      <trkpt lat="48.03792" lon="-1.52415">
        <ele>60.54027</ele>
      </trkpt>
      <trkpt lat="48.03796" lon="-1.52411">
        <ele>60.42464</ele>
      </trkpt>
      <trkpt lat="48.03801" lon="-1.52406">
        <ele>60.40845</ele>
      </trkpt>
      <trkpt lat="48.03805" lon="-1.52401">
        <ele>60.55456</ele>
      </trkpt>
      <trkpt lat="48.0381" lon="-1.52395">
        <ele>60.72292</ele>
      </trkpt>
      <trkpt lat="48.03814" lon="-1.52389">
        <ele>60.79631</ele>
      </trkpt>
      <trkpt lat="48.03818" lon="-1.52383">
        <ele>60.75051</ele>
      </trkpt>
      <trkpt lat="48.03822" lon="-1.52376">
        <ele>60.66354</ele>
      </trkpt>
      <trkpt lat="48.03825" lon="-1.52369">
        <ele>60.65321</ele>
      </trkpt>
      <trkpt lat="48.03829" lon="-1.52363">
        <ele>60.69098</ele>
      </trkpt>
      <trkpt lat="48.03832" lon="-1.52356">
        <ele>60.68873</ele>
      </trkpt>
      <trkpt lat="48.03836" lon="-1.52349">
        <ele>60.618</ele>
      </trkpt>
      <trkpt lat="48.03839" lon="-1.52342">
        <ele>60.51063</ele>
      </trkpt>
      <trkpt lat="48.03843" lon="-1.52335">
        <ele>60.45494</ele>
      </trkpt>
      <trkpt lat="48.03846" lon="-1.52328">
        <ele>60.50176</ele>
      </trkpt>
      <trkpt lat="48.0385" lon="-1.52322">
        <ele>60.61118</ele>
      </trkpt>
      <trkpt lat="48.03853" lon="-1.52315">
        <ele>60.72151</ele>
      </trkpt>
      <trkpt lat="48.03857" lon="-1.52308">
        <ele>60.7748</ele>
      </trkpt>
      <trkpt lat="48.0386" lon="-1.52301">
        <ele>60.75025</ele>
      </trkpt>
      <trkpt lat="48.03863" lon="-1.52294">
        <ele>60.62627</ele>
      </trkpt>
      <trkpt lat="48.03866" lon="-1.52287">
        <ele>60.46435</ele>
      </trkpt>
      <trkpt lat="48.0387" lon="-1.5228">
        <ele>60.34353</ele>
      </trkpt>
      <trkpt lat="48.03873" lon="-1.52273">
        <ele>60.34798</ele>
      </trkpt>
      <trkpt lat="48.03873" lon="-1.52273">
        <ele>60.34798</ele>
        <time>2021-12-26T10:29:08.999Z</time>
      </trkpt>
      <trkpt lat="48.03876" lon="-1.52266">
        <ele>60.46934</ele>
        <time>2021-12-26T10:29:09.999Z</time>
      </trkpt>
      <trkpt lat="48.03879" lon="-1.5226">
        <ele>60.61143</ele>
        <time>2021-12-26T10:29:10.999Z</time>
      </trkpt>
      <trkpt lat="48.03883" lon="-1.52253">
        <ele>60.69179</ele>
        <time>2021-12-26T10:29:11.999Z</time>
      </trkpt>
      <trkpt lat="48.03886" lon="-1.52246">
        <ele>60.68387</ele>
        <time>2021-12-26T10:29:12.999Z</time>
      </trkpt>
      <trkpt lat="48.03888" lon="-1.52239">
        <ele>60.605</ele>
        <time>2021-12-26T10:29:13.999Z</time>
      </trkpt>
      <trkpt lat="48.03891" lon="-1.52231">
        <ele>60.49719</ele>
        <time>2021-12-26T10:29:14.999Z</time>
      </trkpt>
      <trkpt lat="48.03893" lon="-1.52224">
        <ele>60.4008</ele>
        <time>2021-12-26T10:29:15.999Z</time>
      </trkpt>
      <trkpt lat="48.03896" lon="-1.52217">
        <ele>60.34735</ele>
        <time>2021-12-26T10:29:16.999Z</time>
      </trkpt>
      <trkpt lat="48.03898" lon="-1.52209">
        <ele>60.35569</ele>
        <time>2021-12-26T10:29:17.999Z</time>
      </trkpt>
      <trkpt lat="48.03899" lon="-1.52202">
        <ele>60.4282</ele>
        <time>2021-12-26T10:29:18.999Z</time>
      </trkpt>
      <trkpt lat="48.03901" lon="-1.52194">
        <ele>60.55229</ele>
        <time>2021-12-26T10:29:19.999Z</time>
      </trkpt>
      <trkpt lat="48.03903" lon="-1.52186">
        <ele>60.66284</ele>
        <time>2021-12-26T10:29:20.999Z</time>
      </trkpt>
      <trkpt lat="48.03905" lon="-1.52178">
        <ele>60.71823</ele>
        <time>2021-12-26T10:29:21.999Z</time>
      </trkpt>
      <trkpt lat="48.03906" lon="-1.5217">
        <ele>60.71031</ele>
        <time>2021-12-26T10:29:22.999Z</time>
      </trkpt>
      <trkpt lat="48.03908" lon="-1.52162">
        <ele>60.66473</ele>
        <time>2021-12-26T10:29:23.999Z</time>
      </trkpt>
      <trkpt lat="48.0391" lon="-1.52154">
        <ele>60.58022</ele>
        <time>2021-12-26T10:29:24.999Z</time>
      </trkpt>
      <trkpt lat="48.03911" lon="-1.52145">
        <ele>60.45665</ele>
        <time>2021-12-26T10:29:25.999Z</time>
      </trkpt>
      <trkpt lat="48.03913" lon="-1.52137">
        <ele>60.28185</ele>
        <time>2021-12-26T10:29:26.999Z</time>
      </trkpt>
      <trkpt lat="48.03915" lon="-1.52128">
        <ele>60.04945</ele>
        <time>2021-12-26T10:29:27.999Z</time>
      </trkpt>
      <trkpt lat="48.03916" lon="-1.5212">
        <ele>59.78792</ele>
        <time>2021-12-26T10:29:28.999Z</time>
      </trkpt>
      <trkpt lat="48.03918" lon="-1.52111">
        <ele>59.54476</ele>
        <time>2021-12-26T10:29:29.999Z</time>
      </trkpt>
      <trkpt lat="48.03919" lon="-1.52102">
        <ele>59.33209</ele>
        <time>2021-12-26T10:29:30.999Z</time>
      </trkpt>
      <trkpt lat="48.03921" lon="-1.52093">
        <ele>59.16329</ele>
        <time>2021-12-26T10:29:31.999Z</time>
      </trkpt>
      <trkpt lat="48.03923" lon="-1.52084">
        <ele>59.04739</ele>
        <time>2021-12-26T10:29:32.999Z</time>
      </trkpt>
      <trkpt lat="48.03924" lon="-1.52075">
        <ele>59.0004</ele>
        <time>2021-12-26T10:29:33.999Z</time>
      </trkpt>
      <trkpt lat="48.03926" lon="-1.52067">
        <ele>59.0104</ele>
        <time>2021-12-26T10:29:34.999Z</time>
      </trkpt>
      <trkpt lat="48.03928" lon="-1.52058">
        <ele>59.04118</ele>
        <time>2021-12-26T10:29:35.999Z</time>
      </trkpt>
      <trkpt lat="48.03929" lon="-1.52049">
        <ele>59.07105</ele>
        <time>2021-12-26T10:29:36.999Z</time>
      </trkpt>
      <trkpt lat="48.03931" lon="-1.52041">
        <ele>59.08679</ele>
        <time>2021-12-26T10:29:37.999Z</time>
      </trkpt>
      <trkpt lat="48.03932" lon="-1.52033">
        <ele>59.09488</ele>
        <time>2021-12-26T10:29:38.999Z</time>
      </trkpt>
      <trkpt lat="48.03934" lon="-1.52024">
        <ele>59.09651</ele>
        <time>2021-12-26T10:29:39.999Z</time>
      </trkpt>
      <trkpt lat="48.03936" lon="-1.52016">
        <ele>59.08401</ele>
        <time>2021-12-26T10:29:40.999Z</time>
      </trkpt>
      <trkpt lat="48.03938" lon="-1.52008">
        <ele>59.06518</ele>
        <time>2021-12-26T10:29:41.999Z</time>
      </trkpt>
      <trkpt lat="48.0394" lon="-1.52">
        <ele>59.0469</ele>
        <time>2021-12-26T10:29:42.999Z</time>
      </trkpt>
      <trkpt lat="48.03942" lon="-1.51992">
        <ele>59.02826</ele>
        <time>2021-12-26T10:29:43.999Z</time>
      </trkpt>
      <trkpt lat="48.03944" lon="-1.51984">
        <ele>59.00932</ele>
        <time>2021-12-26T10:29:44.999Z</time>
      </trkpt>
      <trkpt lat="48.03947" lon="-1.51977">
        <ele>58.99945</ele>
        <time>2021-12-26T10:29:45.999Z</time>
      </trkpt>
      <trkpt lat="48.03951" lon="-1.5197">
        <ele>59.00318</ele>
        <time>2021-12-26T10:29:46.999Z</time>
      </trkpt>
      <trkpt lat="48.03954" lon="-1.51963">
        <ele>59.01971</ele>
        <time>2021-12-26T10:29:47.999Z</time>
      </trkpt>
      <trkpt lat="48.03958" lon="-1.51957">
        <ele>59.07085</ele>
        <time>2021-12-26T10:29:48.999Z</time>
      </trkpt>
      <trkpt lat="48.03962" lon="-1.51952">
        <ele>59.14603</ele>
        <time>2021-12-26T10:29:49.999Z</time>
      </trkpt>
      <trkpt lat="48.03966" lon="-1.51947">
        <ele>59.24668</ele>
        <time>2021-12-26T10:29:50.999Z</time>
      </trkpt>
      <trkpt lat="48.03971" lon="-1.51942">
        <ele>59.34085</ele>
        <time>2021-12-26T10:29:51.999Z</time>
      </trkpt>
      <trkpt lat="48.03975" lon="-1.51938">
        <ele>59.42062</ele>
        <time>2021-12-26T10:29:52.999Z</time>
      </trkpt>
      <trkpt lat="48.0398" lon="-1.51934">
        <ele>59.45931</ele>
        <time>2021-12-26T10:29:53.999Z</time>
      </trkpt>
      <trkpt lat="48.03985" lon="-1.5193">
        <ele>59.47377</ele>
        <time>2021-12-26T10:29:54.999Z</time>
      </trkpt>
      <trkpt lat="48.0399" lon="-1.51927">
        <ele>59.4935</ele>
        <time>2021-12-26T10:29:55.999Z</time>
      </trkpt>
      <trkpt lat="48.03995" lon="-1.51924">
        <ele>59.53421</ele>
        <time>2021-12-26T10:29:56.999Z</time>
      </trkpt>
      <trkpt lat="48.04" lon="-1.5192">
        <ele>59.58977</ele>
        <time>2021-12-26T10:29:57.999Z</time>
      </trkpt>
      <trkpt lat="48.04005" lon="-1.51917">
        <ele>59.63874</ele>
        <time>2021-12-26T10:29:58.999Z</time>
      </trkpt>
      <trkpt lat="48.04009" lon="-1.51913">
        <ele>59.68404</ele>
        <time>2021-12-26T10:29:59.999Z</time>
      </trkpt>
      <trkpt lat="48.04014" lon="-1.51909">
        <ele>59.73088</ele>
        <time>2021-12-26T10:30:00.999Z</time>
      </trkpt>
      <trkpt lat="48.04019" lon="-1.51905">
        <ele>59.78918</ele>
        <time>2021-12-26T10:30:01.999Z</time>
      </trkpt>
      <trkpt lat="48.04024" lon="-1.51902">
        <ele>59.83959</ele>
        <time>2021-12-26T10:30:02.999Z</time>
      </trkpt>
      <trkpt lat="48.04028" lon="-1.51897">
        <ele>59.85279</ele>
        <time>2021-12-26T10:30:03.999Z</time>
      </trkpt>
      <trkpt lat="48.04031" lon="-1.51891">
        <ele>59.79403</ele>
        <time>2021-12-26T10:30:04.999Z</time>
      </trkpt>
      <trkpt lat="48.04032" lon="-1.51883">
        <ele>59.70423</ele>
        <time>2021-12-26T10:30:05.999Z</time>
      </trkpt>
      <trkpt lat="48.04032" lon="-1.51876">
        <ele>59.61848</ele>
        <time>2021-12-26T10:30:06.999Z</time>
      </trkpt>
      <trkpt lat="48.0403" lon="-1.51868">
        <ele>59.51866</ele>
        <time>2021-12-26T10:30:07.999Z</time>
      </trkpt>
      <trkpt lat="48.04029" lon="-1.5186">
        <ele>59.39599</ele>
        <time>2021-12-26T10:30:08.999Z</time>
      </trkpt>
      <trkpt lat="48.04027" lon="-1.51853">
        <ele>59.25822</ele>
        <time>2021-12-26T10:30:09.999Z</time>
      </trkpt>
      <trkpt lat="48.04025" lon="-1.51845">
        <ele>59.10756</ele>
        <time>2021-12-26T10:30:10.999Z</time>
      </trkpt>
      <trkpt lat="48.04023" lon="-1.51838">
        <ele>58.97574</ele>
        <time>2021-12-26T10:30:11.999Z</time>
      </trkpt>
      <trkpt lat="48.04021" lon="-1.5183">
        <ele>58.84661</ele>
        <time>2021-12-26T10:30:12.999Z</time>
      </trkpt>
      <trkpt lat="48.04019" lon="-1.51822">
        <ele>58.72118</ele>
        <time>2021-12-26T10:30:13.999Z</time>
      </trkpt>
      <trkpt lat="48.04017" lon="-1.51814">
        <ele>58.57035</ele>
        <time>2021-12-26T10:30:14.999Z</time>
      </trkpt>
      <trkpt lat="48.04016" lon="-1.51806">
        <ele>58.39606</ele>
        <time>2021-12-26T10:30:15.999Z</time>
      </trkpt>
      <trkpt lat="48.04015" lon="-1.51798">
        <ele>58.20624</ele>
        <time>2021-12-26T10:30:16.999Z</time>
      </trkpt>
      <trkpt lat="48.04014" lon="-1.5179">
        <ele>58.0133</ele>
        <time>2021-12-26T10:30:17.999Z</time>
      </trkpt>
      <trkpt lat="48.04013" lon="-1.51782">
        <ele>57.82718</ele>
        <time>2021-12-26T10:30:18.999Z</time>
      </trkpt>
      <trkpt lat="48.04012" lon="-1.51773">
        <ele>57.60439</ele>
        <time>2021-12-26T10:30:19.999Z</time>
      </trkpt>
      <trkpt lat="48.04011" lon="-1.51764">
        <ele>57.36533</ele>
        <time>2021-12-26T10:30:20.999Z</time>
      </trkpt>
      <trkpt lat="48.0401" lon="-1.51755">
        <ele>57.19899</ele>
        <time>2021-12-26T10:30:21.999Z</time>
      </trkpt>
      <trkpt lat="48.0401" lon="-1.51747">
        <ele>57.19911</ele>
        <time>2021-12-26T10:30:22.999Z</time>
      </trkpt>
      <trkpt lat="48.04011" lon="-1.51738">
        <ele>57.38702</ele>
        <time>2021-12-26T10:30:23.999Z</time>
      </trkpt>
      <trkpt lat="48.04012" lon="-1.5173">
        <ele>57.67433</ele>
        <time>2021-12-26T10:30:24.999Z</time>
      </trkpt>
      <trkpt lat="48.04015" lon="-1.51723">
        <ele>57.9818</ele>
        <time>2021-12-26T10:30:25.999Z</time>
      </trkpt>
      <trkpt lat="48.04018" lon="-1.51717">
        <ele>58.25019</ele>
        <time>2021-12-26T10:30:26.999Z</time>
      </trkpt>
      <trkpt lat="48.04021" lon="-1.5171">
        <ele>58.48719</ele>
        <time>2021-12-26T10:30:27.999Z</time>
      </trkpt>
      <trkpt lat="48.04023" lon="-1.51702">
        <ele>58.69897</ele>
        <time>2021-12-26T10:30:28.999Z</time>
      </trkpt>
      <trkpt lat="48.04024" lon="-1.51695">
        <ele>58.86755</ele>
        <time>2021-12-26T10:30:29.999Z</time>
      </trkpt>
      <trkpt lat="48.04025" lon="-1.51687">
        <ele>58.97976</ele>
        <time>2021-12-26T10:30:30.999Z</time>
      </trkpt>
      <trkpt lat="48.04026" lon="-1.51679">
        <ele>59.02425</ele>
        <time>2021-12-26T10:30:31.999Z</time>
      </trkpt>
      <trkpt lat="48.04027" lon="-1.51671">
        <ele>59.01761</ele>
        <time>2021-12-26T10:30:32.999Z</time>
      </trkpt>
      <trkpt lat="48.04029" lon="-1.51663">
        <ele>58.98368</ele>
        <time>2021-12-26T10:30:33.999Z</time>
      </trkpt>
      <trkpt lat="48.04033" lon="-1.51657">
        <ele>58.9333</ele>
        <time>2021-12-26T10:30:34.999Z</time>
      </trkpt>
      <trkpt lat="48.04037" lon="-1.51651">
        <ele>58.8601</ele>
        <time>2021-12-26T10:30:35.999Z</time>
      </trkpt>
      <trkpt lat="48.04041" lon="-1.51645">
        <ele>58.77132</ele>
        <time>2021-12-26T10:30:36.999Z</time>
      </trkpt>
      <trkpt lat="48.04045" lon="-1.5164">
        <ele>58.70459</ele>
        <time>2021-12-26T10:30:37.999Z</time>
      </trkpt>
      <trkpt lat="48.04048" lon="-1.51637">
        <ele>58.66442</ele>
        <time>2021-12-26T10:30:38.999Z</time>
      </trkpt>
      <trkpt lat="48.04048" lon="-1.51637">
        <ele>58.66442</ele>
        <time>2021-12-26T10:30:38.999Z</time>
      </trkpt>
      <trkpt lat="48.04053" lon="-1.51634">
        <ele>58.65646</ele>
        <time>2021-12-26T10:30:39.999Z</time>
      </trkpt>
      <trkpt lat="48.04058" lon="-1.5163">
        <ele>58.68139</ele>
        <time>2021-12-26T10:30:40.999Z</time>
      </trkpt>
      <trkpt lat="48.04064" lon="-1.51627">
        <ele>58.74078</ele>
        <time>2021-12-26T10:30:41.999Z</time>
      </trkpt>
      <trkpt lat="48.04069" lon="-1.51626">
        <ele>58.83019</ele>
        <time>2021-12-26T10:30:42.999Z</time>
      </trkpt>
      <trkpt lat="48.04074" lon="-1.51624">
        <ele>58.94123</ele>
        <time>2021-12-26T10:30:43.999Z</time>
      </trkpt>
      <trkpt lat="48.0408" lon="-1.51622">
        <ele>59.11339</ele>
        <time>2021-12-26T10:30:44.999Z</time>
      </trkpt>
      <trkpt lat="48.04085" lon="-1.51621">
        <ele>59.30227</ele>
        <time>2021-12-26T10:30:45.999Z</time>
      </trkpt>
      <trkpt lat="48.04091" lon="-1.5162">
        <ele>59.53138</ele>
        <time>2021-12-26T10:30:46.999Z</time>
      </trkpt>
      <trkpt lat="48.04096" lon="-1.51619">
        <ele>59.71787</ele>
        <time>2021-12-26T10:30:47.999Z</time>
      </trkpt>
      <trkpt lat="48.04101" lon="-1.51619">
        <ele>59.91404</ele>
        <time>2021-12-26T10:30:48.999Z</time>
      </trkpt>
      <trkpt lat="48.04107" lon="-1.51617">
        <ele>60.11876</ele>
        <time>2021-12-26T10:30:49.999Z</time>
      </trkpt>
      <trkpt lat="48.04112" lon="-1.51616">
        <ele>60.29466</ele>
        <time>2021-12-26T10:30:50.999Z</time>
      </trkpt>
      <trkpt lat="48.04117" lon="-1.51616">
        <ele>60.46844</ele>
        <time>2021-12-26T10:30:51.999Z</time>
      </trkpt>
      <trkpt lat="48.04122" lon="-1.51616">
        <ele>60.64614</ele>
        <time>2021-12-26T10:30:52.999Z</time>
      </trkpt>
      <trkpt lat="48.04128" lon="-1.51615">
        <ele>60.83199</ele>
        <time>2021-12-26T10:30:53.999Z</time>
      </trkpt>
      <trkpt lat="48.04133" lon="-1.51615">
        <ele>61.00729</ele>
        <time>2021-12-26T10:30:54.999Z</time>
      </trkpt>
      <trkpt lat="48.04139" lon="-1.51614">
        <ele>61.20732</ele>
        <time>2021-12-26T10:30:55.999Z</time>
      </trkpt>
      <trkpt lat="48.04144" lon="-1.51613">
        <ele>61.38171</ele>
        <time>2021-12-26T10:30:56.999Z</time>
      </trkpt>
      <trkpt lat="48.04149" lon="-1.51613">
        <ele>61.535</ele>
        <time>2021-12-26T10:30:57.999Z</time>
      </trkpt>
      <trkpt lat="48.04154" lon="-1.51613">
        <ele>61.67258</ele>
        <time>2021-12-26T10:30:58.999Z</time>
      </trkpt>
      <trkpt lat="48.0416" lon="-1.51613">
        <ele>61.82859</ele>
        <time>2021-12-26T10:30:59.999Z</time>
      </trkpt>
      <trkpt lat="48.04165" lon="-1.51613">
        <ele>61.98903</ele>
        <time>2021-12-26T10:31:00.999Z</time>
      </trkpt>
      <trkpt lat="48.0417" lon="-1.51613">
        <ele>62.19467</ele>
        <time>2021-12-26T10:31:01.999Z</time>
      </trkpt>
      <trkpt lat="48.04175" lon="-1.51613">
        <ele>62.45452</ele>
        <time>2021-12-26T10:31:02.999Z</time>
      </trkpt>
      <trkpt lat="48.04181" lon="-1.51614">
        <ele>62.75355</ele>
        <time>2021-12-26T10:31:03.999Z</time>
      </trkpt>
      <trkpt lat="48.04186" lon="-1.51614">
        <ele>62.95518</ele>
        <time>2021-12-26T10:31:04.999Z</time>
      </trkpt>
      <trkpt lat="48.04191" lon="-1.51614">
        <ele>63.09306</ele>
        <time>2021-12-26T10:31:05.999Z</time>
      </trkpt>
      <trkpt lat="48.04196" lon="-1.51614">
        <ele>63.17026</ele>
        <time>2021-12-26T10:31:06.999Z</time>
      </trkpt>
      <trkpt lat="48.042" lon="-1.51613">
        <ele>63.18745</ele>
        <time>2021-12-26T10:31:07.999Z</time>
      </trkpt>
      <trkpt lat="48.04204" lon="-1.51611">
        <ele>63.16276</ele>
        <time>2021-12-26T10:31:08.999Z</time>
      </trkpt>
      <trkpt lat="48.04208" lon="-1.51607">
        <ele>63.10058</ele>
        <time>2021-12-26T10:31:09.999Z</time>
      </trkpt>
      <trkpt lat="48.04211" lon="-1.51603">
        <ele>63.03302</ele>
        <time>2021-12-26T10:31:10.999Z</time>
      </trkpt>
      <trkpt lat="48.04213" lon="-1.51597">
        <ele>62.97666</ele>
        <time>2021-12-26T10:31:11.999Z</time>
      </trkpt>
      <trkpt lat="48.04216" lon="-1.51592">
        <ele>62.92641</ele>
        <time>2021-12-26T10:31:12.999Z</time>
      </trkpt>
      <trkpt lat="48.04219" lon="-1.51587">
        <ele>62.87533</ele>
        <time>2021-12-26T10:31:13.999Z</time>
      </trkpt>
      <trkpt lat="48.04222" lon="-1.51581">
        <ele>62.81891</ele>
        <time>2021-12-26T10:31:14.999Z</time>
      </trkpt>
      <trkpt lat="48.04225" lon="-1.51576">
        <ele>62.75703</ele>
        <time>2021-12-26T10:31:15.999Z</time>
      </trkpt>
      <trkpt lat="48.04229" lon="-1.51574">
        <ele>62.69121</ele>
        <time>2021-12-26T10:31:16.999Z</time>
      </trkpt>
      <trkpt lat="48.04233" lon="-1.51575">
        <ele>62.63752</ele>
        <time>2021-12-26T10:31:17.999Z</time>
      </trkpt>
      <trkpt lat="48.04237" lon="-1.51575">
        <ele>62.61051</ele>
        <time>2021-12-26T10:31:18.999Z</time>
      </trkpt>
      <trkpt lat="48.04241" lon="-1.51576">
        <ele>62.60226</ele>
        <time>2021-12-26T10:31:19.999Z</time>
      </trkpt>
      <trkpt lat="48.04245" lon="-1.51577">
        <ele>62.60125</ele>
        <time>2021-12-26T10:31:20.999Z</time>
      </trkpt>
      <trkpt lat="48.04247" lon="-1.51578">
        <ele>62.60065</ele>
        <time>2021-12-26T10:31:21.999Z</time>
      </trkpt>
      <trkpt lat="48.04251" lon="-1.51581">
        <ele>62.58738</ele>
        <time>2021-12-26T10:31:22.999Z</time>
      </trkpt>
      <trkpt lat="48.04253" lon="-1.51583">
        <ele>62.57185</ele>
        <time>2021-12-26T10:31:23.999Z</time>
      </trkpt>
    </trkseg>
  </trk>
  <trk>
    <name><![CDATA[Châteaugiron 24 km accessible bien]]></name>
    <desc><![CDATA[(niveau moyen 1h50 tres boueux). Parcours sympa varié accessible au plus grand nombre pas technique sauf un passage délicat , champs de bosses pour s 'echauffer ou se faire une expérience dans le bas de nouvoitou, single secret dans petit bois vers "le bas poirier " pas d'accés visible en entrée ou sortie , passer le long du champ. Très amusant en version boueux a voir sec, certainement plus rapide.]]></desc>
    <extensions>
      <line xmlns="http://www.topografix.com/GPX/gpx_style/0/2">
        <color>0000FF</color>
        <width>4</width>
      </line>
    </extensions>
    <trkseg>
      <trkpt lat="48.04254" lon="-1.51588">
        <ele>62.53953</ele>
        <time>2021-12-26T08:24:48.000Z</time>
      </trkpt>
      <trkpt lat="48.04252" lon="-1.51586">
        <ele>62.55931</ele>
        <time>2021-12-26T08:25:48.000Z</time>
      </trkpt>
      <trkpt lat="48.04252" lon="-1.51583">
        <ele>62.57192</ele>
        <time>2021-12-26T08:26:17.000Z</time>
      </trkpt>
      <trkpt lat="48.04252" lon="-1.5158">
        <ele>62.58712</ele>
        <time>2021-12-26T08:26:20.000Z</time>
      </trkpt>
      <trkpt lat="48.04253" lon="-1.51577">
        <ele>62.59568</ele>
        <time>2021-12-26T08:26:22.000Z</time>
      </trkpt>
      <trkpt lat="48.04257" lon="-1.5158">
        <ele>62.56181</ele>
        <time>2021-12-26T08:26:23.000Z</time>
      </trkpt>
      <trkpt lat="48.0426" lon="-1.51583">
        <ele>62.5066</ele>
        <time>2021-12-26T08:26:24.000Z</time>
      </trkpt>
      <trkpt lat="48.04263" lon="-1.51586">
        <ele>62.42841</ele>
        <time>2021-12-26T08:26:25.000Z</time>
      </trkpt>
      <trkpt lat="48.04266" lon="-1.51589">
        <ele>62.34021</ele>
        <time>2021-12-26T08:26:26.000Z</time>
      </trkpt>
      <trkpt lat="48.0427" lon="-1.51591">
        <ele>62.23316</ele>
        <time>2021-12-26T08:26:27.000Z</time>
      </trkpt>
      <trkpt lat="48.04273" lon="-1.51594">
        <ele>62.12673</ele>
        <time>2021-12-26T08:26:28.000Z</time>
      </trkpt>
      <trkpt lat="48.04277" lon="-1.51596">
        <ele>62.03682</ele>
        <time>2021-12-26T08:26:29.000Z</time>
      </trkpt>
      <trkpt lat="48.0428" lon="-1.51598">
        <ele>61.95889</ele>
        <time>2021-12-26T08:26:30.000Z</time>
      </trkpt>
      <trkpt lat="48.04284" lon="-1.51598">
        <ele>61.90698</ele>
        <time>2021-12-26T08:26:31.000Z</time>
      </trkpt>
      <trkpt lat="48.04287" lon="-1.51598">
        <ele>61.87342</ele>
        <time>2021-12-26T08:26:32.000Z</time>
      </trkpt>
      <trkpt lat="48.04291" lon="-1.51594">
        <ele>61.8757</ele>
        <time>2021-12-26T08:26:33.000Z</time>
      </trkpt>
      <trkpt lat="48.04294" lon="-1.51593">
        <ele>61.85329</ele>
        <time>2021-12-26T08:26:34.000Z</time>
      </trkpt>
      <trkpt lat="48.04298" lon="-1.51592">
        <ele>61.82161</ele>
        <time>2021-12-26T08:26:35.000Z</time>
      </trkpt>
      <trkpt lat="48.04302" lon="-1.51593">
        <ele>61.74413</ele>
        <time>2021-12-26T08:26:36.000Z</time>
      </trkpt>
      <trkpt lat="48.04305" lon="-1.51592">
        <ele>61.69761</ele>
        <time>2021-12-26T08:26:37.000Z</time>
      </trkpt>
      <trkpt lat="48.04308" lon="-1.51589">
        <ele>61.65686</ele>
        <time>2021-12-26T08:26:37.999Z</time>
      </trkpt>
      <trkpt lat="48.04311" lon="-1.51587">
        <ele>61.61636</ele>
        <time>2021-12-26T08:26:38.999Z</time>
      </trkpt>
      <trkpt lat="48.04314" lon="-1.51584">
        <ele>61.55498</ele>
        <time>2021-12-26T08:26:39.999Z</time>
      </trkpt>
      <trkpt lat="48.04317" lon="-1.5158">
        <ele>61.47641</ele>
        <time>2021-12-26T08:26:40.999Z</time>
      </trkpt>
      <trkpt lat="48.0432" lon="-1.51577">
        <ele>61.37776</ele>
        <time>2021-12-26T08:26:41.999Z</time>
      </trkpt>
      <trkpt lat="48.04323" lon="-1.51573">
        <ele>61.26168</ele>
        <time>2021-12-26T08:26:42.999Z</time>
      </trkpt>
      <trkpt lat="48.04326" lon="-1.51569">
        <ele>61.12228</ele>
        <time>2021-12-26T08:26:43.999Z</time>
      </trkpt>
      <trkpt lat="48.04329" lon="-1.51565">
        <ele>60.94689</ele>
        <time>2021-12-26T08:26:44.999Z</time>
      </trkpt>
      <trkpt lat="48.04333" lon="-1.51561">
        <ele>60.76141</ele>
        <time>2021-12-26T08:26:45.999Z</time>
      </trkpt>
      <trkpt lat="48.04336" lon="-1.51557">
        <ele>60.60349</ele>
        <time>2021-12-26T08:26:46.999Z</time>
      </trkpt>
      <trkpt lat="48.04339" lon="-1.51554">
        <ele>60.50967</ele>
        <time>2021-12-26T08:26:47.999Z</time>
      </trkpt>
      <trkpt lat="48.04342" lon="-1.5155">
        <ele>60.46411</ele>
        <time>2021-12-26T08:26:48.999Z</time>
      </trkpt>
      <trkpt lat="48.04345" lon="-1.51545">
        <ele>60.47746</ele>
        <time>2021-12-26T08:26:49.999Z</time>
      </trkpt>
      <trkpt lat="48.04348" lon="-1.51541">
        <ele>60.50979</ele>
        <time>2021-12-26T08:26:50.999Z</time>
      </trkpt>
      <trkpt lat="48.04351" lon="-1.51537">
        <ele>60.53366</ele>
        <time>2021-12-26T08:26:51.999Z</time>
      </trkpt>
      <trkpt lat="48.04353" lon="-1.51533">
        <ele>60.54586</ele>
        <time>2021-12-26T08:26:52.999Z</time>
      </trkpt>
      <trkpt lat="48.04356" lon="-1.5153">
        <ele>60.50841</ele>
        <time>2021-12-26T08:26:53.999Z</time>
      </trkpt>
      <trkpt lat="48.04359" lon="-1.51527">
        <ele>60.30424</ele>
        <time>2021-12-26T08:26:54.999Z</time>
      </trkpt>
      <trkpt lat="48.04362" lon="-1.51525">
        <ele>60.07293</ele>
        <time>2021-12-26T08:26:55.999Z</time>
      </trkpt>
      <trkpt lat="48.04365" lon="-1.51522">
        <ele>59.93007</ele>
        <time>2021-12-26T08:26:56.999Z</time>
      </trkpt>
      <trkpt lat="48.04367" lon="-1.51518">
        <ele>59.83861</ele>
        <time>2021-12-26T08:26:57.999Z</time>
      </trkpt>
      <trkpt lat="48.04369" lon="-1.51514">
        <ele>59.76402</ele>
        <time>2021-12-26T08:26:58.999Z</time>
      </trkpt>
      <trkpt lat="48.04371" lon="-1.51512">
        <ele>59.62127</ele>
        <time>2021-12-26T08:26:59.999Z</time>
      </trkpt>
      <trkpt lat="48.04375" lon="-1.51511">
        <ele>59.46594</ele>
        <time>2021-12-26T08:27:00.999Z</time>
      </trkpt>
      <trkpt lat="48.04379" lon="-1.5151">
        <ele>59.36103</ele>
        <time>2021-12-26T08:27:01.999Z</time>
      </trkpt>
      <trkpt lat="48.04382" lon="-1.51506">
        <ele>59.39425</ele>
        <time>2021-12-26T08:27:02.999Z</time>
      </trkpt>
      <trkpt lat="48.04385" lon="-1.51501">
        <ele>59.51086</ele>
        <time>2021-12-26T08:27:03.999Z</time>
      </trkpt>
      <trkpt lat="48.04387" lon="-1.51496">
        <ele>59.61124</ele>
        <time>2021-12-26T08:27:04.999Z</time>
      </trkpt>
      <trkpt lat="48.04389" lon="-1.5149">
        <ele>59.68542</ele>
        <time>2021-12-26T08:27:05.999Z</time>
      </trkpt>
      <trkpt lat="48.04391" lon="-1.51485">
        <ele>59.72729</ele>
        <time>2021-12-26T08:27:06.999Z</time>
      </trkpt>
      <trkpt lat="48.04394" lon="-1.51481">
        <ele>59.74524</ele>
        <time>2021-12-26T08:27:07.999Z</time>
      </trkpt>
      <trkpt lat="48.04396" lon="-1.51475">
        <ele>59.78463</ele>
        <time>2021-12-26T08:27:08.999Z</time>
      </trkpt>
      <trkpt lat="48.04397" lon="-1.5147">
        <ele>59.82605</ele>
        <time>2021-12-26T08:27:09.999Z</time>
      </trkpt>
      <trkpt lat="48.04398" lon="-1.51464">
        <ele>59.87524</ele>
        <time>2021-12-26T08:27:10.999Z</time>
      </trkpt>
      <trkpt lat="48.04399" lon="-1.51458">
        <ele>59.948</ele>
        <time>2021-12-26T08:27:11.999Z</time>
      </trkpt>
      <trkpt lat="48.04401" lon="-1.51452">
        <ele>60.04686</ele>
        <time>2021-12-26T08:27:12.999Z</time>
      </trkpt>
      <trkpt lat="48.04404" lon="-1.51448">
        <ele>60.17129</ele>
        <time>2021-12-26T08:27:13.999Z</time>
      </trkpt>
      <trkpt lat="48.04407" lon="-1.51445">
        <ele>60.29507</ele>
        <time>2021-12-26T08:27:14.999Z</time>
      </trkpt>
      <trkpt lat="48.0441" lon="-1.51442">
        <ele>60.37853</ele>
        <time>2021-12-26T08:27:15.999Z</time>
      </trkpt>
      <trkpt lat="48.04414" lon="-1.5144">
        <ele>60.40938</ele>
        <time>2021-12-26T08:27:16.999Z</time>
      </trkpt>
      <trkpt lat="48.04417" lon="-1.51437">
        <ele>60.41722</ele>
        <time>2021-12-26T08:27:17.999Z</time>
      </trkpt>
      <trkpt lat="48.04421" lon="-1.51434">
        <ele>60.4069</ele>
        <time>2021-12-26T08:27:18.999Z</time>
      </trkpt>
      <trkpt lat="48.04424" lon="-1.5143">
        <ele>60.38433</ele>
        <time>2021-12-26T08:27:19.999Z</time>
      </trkpt>
      <trkpt lat="48.04427" lon="-1.51426">
        <ele>60.34383</ele>
        <time>2021-12-26T08:27:20.999Z</time>
      </trkpt>
      <trkpt lat="48.0443" lon="-1.51422">
        <ele>60.303</ele>
        <time>2021-12-26T08:27:21.999Z</time>
      </trkpt>
      <trkpt lat="48.04433" lon="-1.51418">
        <ele>60.25844</ele>
        <time>2021-12-26T08:27:22.999Z</time>
      </trkpt>
      <trkpt lat="48.04437" lon="-1.51416">
        <ele>60.21268</ele>
        <time>2021-12-26T08:27:23.999Z</time>
      </trkpt>
      <trkpt lat="48.0444" lon="-1.51419">
        <ele>60.11991</ele>
        <time>2021-12-26T08:27:24.999Z</time>
      </trkpt>
      <trkpt lat="48.04444" lon="-1.51422">
        <ele>60.07305</ele>
        <time>2021-12-26T08:27:25.999Z</time>
      </trkpt>
      <trkpt lat="48.04448" lon="-1.51425">
        <ele>60.10545</ele>
        <time>2021-12-26T08:27:26.999Z</time>
      </trkpt>
      <trkpt lat="48.04453" lon="-1.51427">
        <ele>60.2062</ele>
        <time>2021-12-26T08:27:27.999Z</time>
      </trkpt>
      <trkpt lat="48.04457" lon="-1.5143">
        <ele>60.33569</ele>
        <time>2021-12-26T08:27:28.999Z</time>
      </trkpt>
      <trkpt lat="48.04462" lon="-1.51431">
        <ele>60.44848</ele>
        <time>2021-12-26T08:27:29.999Z</time>
      </trkpt>
      <trkpt lat="48.04466" lon="-1.51432">
        <ele>60.4939</ele>
        <time>2021-12-26T08:27:30.999Z</time>
      </trkpt>
      <trkpt lat="48.04471" lon="-1.51433">
        <ele>60.43619</ele>
        <time>2021-12-26T08:27:31.999Z</time>
      </trkpt>
      <trkpt lat="48.04475" lon="-1.51434">
        <ele>60.30585</ele>
        <time>2021-12-26T08:27:32.999Z</time>
      </trkpt>
      <trkpt lat="48.0448" lon="-1.51436">
        <ele>60.1495</ele>
        <time>2021-12-26T08:27:33.999Z</time>
      </trkpt>
      <trkpt lat="48.04484" lon="-1.5144">
        <ele>60.02149</ele>
        <time>2021-12-26T08:27:34.999Z</time>
      </trkpt>
      <trkpt lat="48.04487" lon="-1.51445">
        <ele>59.94347</ele>
        <time>2021-12-26T08:27:35.999Z</time>
      </trkpt>
      <trkpt lat="48.04489" lon="-1.51451">
        <ele>59.87821</ele>
        <time>2021-12-26T08:27:36.999Z</time>
      </trkpt>
      <trkpt lat="48.04492" lon="-1.51457">
        <ele>59.8042</ele>
        <time>2021-12-26T08:27:37.999Z</time>
      </trkpt>
      <trkpt lat="48.04495" lon="-1.51462">
        <ele>59.71443</ele>
        <time>2021-12-26T08:27:38.999Z</time>
      </trkpt>
      <trkpt lat="48.04499" lon="-1.51466">
        <ele>59.65651</ele>
        <time>2021-12-26T08:27:39.999Z</time>
      </trkpt>
      <trkpt lat="48.04503" lon="-1.5147">
        <ele>59.65105</ele>
        <time>2021-12-26T08:27:40.999Z</time>
      </trkpt>
      <trkpt lat="48.04508" lon="-1.51473">
        <ele>59.62536</ele>
        <time>2021-12-26T08:27:41.999Z</time>
      </trkpt>
      <trkpt lat="48.04512" lon="-1.51476">
        <ele>59.5674</ele>
        <time>2021-12-26T08:27:42.999Z</time>
      </trkpt>
      <trkpt lat="48.04517" lon="-1.51479">
        <ele>59.52875</ele>
        <time>2021-12-26T08:27:43.999Z</time>
      </trkpt>
      <trkpt lat="48.04522" lon="-1.51479">
        <ele>59.57805</ele>
        <time>2021-12-26T08:27:44.999Z</time>
      </trkpt>
      <trkpt lat="48.04527" lon="-1.51478">
        <ele>59.63342</ele>
        <time>2021-12-26T08:27:45.999Z</time>
      </trkpt>
      <trkpt lat="48.04532" lon="-1.51477">
        <ele>59.6683</ele>
        <time>2021-12-26T08:27:46.999Z</time>
      </trkpt>
      <trkpt lat="48.04537" lon="-1.51476">
        <ele>59.68425</ele>
        <time>2021-12-26T08:27:47.999Z</time>
      </trkpt>
      <trkpt lat="48.04542" lon="-1.51477">
        <ele>59.67894</ele>
        <time>2021-12-26T08:27:48.999Z</time>
      </trkpt>
      <trkpt lat="48.04546" lon="-1.51476">
        <ele>59.67707</ele>
        <time>2021-12-26T08:27:49.999Z</time>
      </trkpt>
      <trkpt lat="48.0455" lon="-1.51476">
        <ele>59.66956</ele>
        <time>2021-12-26T08:27:50.999Z</time>
      </trkpt>
      <trkpt lat="48.04555" lon="-1.51475">
        <ele>59.65702</ele>
        <time>2021-12-26T08:27:51.999Z</time>
      </trkpt>
      <trkpt lat="48.04559" lon="-1.51476">
        <ele>59.63324</ele>
        <time>2021-12-26T08:27:52.999Z</time>
      </trkpt>
      <trkpt lat="48.04564" lon="-1.51477">
        <ele>59.59854</ele>
        <time>2021-12-26T08:27:53.999Z</time>
      </trkpt>
      <trkpt lat="48.04569" lon="-1.51477">
        <ele>59.56835</ele>
        <time>2021-12-26T08:27:54.999Z</time>
      </trkpt>
      <trkpt lat="48.04574" lon="-1.51478">
        <ele>59.54332</ele>
        <time>2021-12-26T08:27:55.999Z</time>
      </trkpt>
      <trkpt lat="48.04579" lon="-1.51479">
        <ele>59.53405</ele>
        <time>2021-12-26T08:27:56.999Z</time>
      </trkpt>
      <trkpt lat="48.04583" lon="-1.5148">
        <ele>59.54565</ele>
        <time>2021-12-26T08:27:57.999Z</time>
      </trkpt>
      <trkpt lat="48.04588" lon="-1.5148">
        <ele>59.57251</ele>
        <time>2021-12-26T08:27:58.999Z</time>
      </trkpt>
      <trkpt lat="48.04593" lon="-1.5148">
        <ele>59.6001</ele>
        <time>2021-12-26T08:27:59.999Z</time>
      </trkpt>
      <trkpt lat="48.04598" lon="-1.51481">
        <ele>59.61788</ele>
        <time>2021-12-26T08:28:00.999Z</time>
      </trkpt>
      <trkpt lat="48.04602" lon="-1.51483">
        <ele>59.62215</ele>
        <time>2021-12-26T08:28:01.999Z</time>
      </trkpt>
      <trkpt lat="48.04606" lon="-1.51486">
        <ele>59.62217</ele>
        <time>2021-12-26T08:28:02.999Z</time>
      </trkpt>
      <trkpt lat="48.04611" lon="-1.51487">
        <ele>59.62508</ele>
        <time>2021-12-26T08:28:03.999Z</time>
      </trkpt>
      <trkpt lat="48.04616" lon="-1.51488">
        <ele>59.62941</ele>
        <time>2021-12-26T08:28:04.999Z</time>
      </trkpt>
      <trkpt lat="48.0462" lon="-1.51488">
        <ele>59.63269</ele>
        <time>2021-12-26T08:28:05.999Z</time>
      </trkpt>
      <trkpt lat="48.04625" lon="-1.51488">
        <ele>59.63437</ele>
        <time>2021-12-26T08:28:06.999Z</time>
      </trkpt>
      <trkpt lat="48.0463" lon="-1.51488">
        <ele>59.63402</ele>
        <time>2021-12-26T08:28:07.999Z</time>
      </trkpt>
      <trkpt lat="48.04634" lon="-1.51488">
        <ele>59.63724</ele>
        <time>2021-12-26T08:28:08.999Z</time>
      </trkpt>
      <trkpt lat="48.04639" lon="-1.51487">
        <ele>59.64579</ele>
        <time>2021-12-26T08:28:09.999Z</time>
      </trkpt>
      <trkpt lat="48.04644" lon="-1.51487">
        <ele>59.65798</ele>
        <time>2021-12-26T08:28:10.999Z</time>
      </trkpt>
      <trkpt lat="48.04648" lon="-1.51487">
        <ele>59.67639</ele>
        <time>2021-12-26T08:28:11.999Z</time>
      </trkpt>
      <trkpt lat="48.04653" lon="-1.51486">
        <ele>59.69871</ele>
        <time>2021-12-26T08:28:12.999Z</time>
      </trkpt>
      <trkpt lat="48.04658" lon="-1.51485">
        <ele>59.72238</ele>
        <time>2021-12-26T08:28:13.999Z</time>
      </trkpt>
      <trkpt lat="48.04662" lon="-1.51484">
        <ele>59.74499</ele>
        <time>2021-12-26T08:28:14.999Z</time>
      </trkpt>
      <trkpt lat="48.04667" lon="-1.51484">
        <ele>59.77292</ele>
        <time>2021-12-26T08:28:15.999Z</time>
      </trkpt>
      <trkpt lat="48.04671" lon="-1.51483">
        <ele>59.81038</ele>
        <time>2021-12-26T08:28:16.999Z</time>
      </trkpt>
      <trkpt lat="48.04676" lon="-1.51481">
        <ele>59.85333</ele>
        <time>2021-12-26T08:28:17.999Z</time>
      </trkpt>
      <trkpt lat="48.0468" lon="-1.5148">
        <ele>59.89966</ele>
        <time>2021-12-26T08:28:18.999Z</time>
      </trkpt>
      <trkpt lat="48.04685" lon="-1.51479">
        <ele>59.96207</ele>
        <time>2021-12-26T08:28:19.999Z</time>
      </trkpt>
      <trkpt lat="48.04689" lon="-1.51477">
        <ele>60.04348</ele>
        <time>2021-12-26T08:28:20.999Z</time>
      </trkpt>
      <trkpt lat="48.04693" lon="-1.51475">
        <ele>60.16039</ele>
        <time>2021-12-26T08:28:21.999Z</time>
      </trkpt>
      <trkpt lat="48.04697" lon="-1.51472">
        <ele>60.32044</ele>
        <time>2021-12-26T08:28:22.999Z</time>
      </trkpt>
      <trkpt lat="48.04701" lon="-1.51469">
        <ele>60.47761</ele>
        <time>2021-12-26T08:28:23.999Z</time>
      </trkpt>
      <trkpt lat="48.04705" lon="-1.51465">
        <ele>60.6092</ele>
        <time>2021-12-26T08:28:24.999Z</time>
      </trkpt>
      <trkpt lat="48.04709" lon="-1.51462">
        <ele>60.69815</ele>
        <time>2021-12-26T08:28:25.999Z</time>
      </trkpt>
      <trkpt lat="48.04714" lon="-1.5146">
        <ele>60.72773</ele>
        <time>2021-12-26T08:28:26.999Z</time>
      </trkpt>
      <trkpt lat="48.04718" lon="-1.51457">
        <ele>60.7138</ele>
        <time>2021-12-26T08:28:27.999Z</time>
      </trkpt>
      <trkpt lat="48.04722" lon="-1.51455">
        <ele>60.69665</ele>
        <time>2021-12-26T08:28:28.999Z</time>
      </trkpt>
      <trkpt lat="48.04726" lon="-1.51453">
        <ele>60.68445</ele>
        <time>2021-12-26T08:28:29.999Z</time>
      </trkpt>
      <trkpt lat="48.0473" lon="-1.51453">
        <ele>60.65299</ele>
        <time>2021-12-26T08:28:30.999Z</time>
      </trkpt>
      <trkpt lat="48.04735" lon="-1.51453">
        <ele>60.60958</ele>
        <time>2021-12-26T08:28:31.999Z</time>
      </trkpt>
      <trkpt lat="48.04739" lon="-1.51451">
        <ele>60.60519</ele>
        <time>2021-12-26T08:28:32.999Z</time>
      </trkpt>
      <trkpt lat="48.04741" lon="-1.51447">
        <ele>60.65427</ele>
        <time>2021-12-26T08:28:33.999Z</time>
      </trkpt>
      <trkpt lat="48.04743" lon="-1.51443">
        <ele>60.70784</ele>
        <time>2021-12-26T08:28:34.999Z</time>
      </trkpt>
      <trkpt lat="48.04744" lon="-1.51438">
        <ele>60.74011</ele>
        <time>2021-12-26T08:28:35.999Z</time>
      </trkpt>
      <trkpt lat="48.04744" lon="-1.51433">
        <ele>60.75058</ele>
        <time>2021-12-26T08:28:36.999Z</time>
      </trkpt>
      <trkpt lat="48.04747" lon="-1.51429">
        <ele>60.72031</ele>
        <time>2021-12-26T08:28:37.999Z</time>
      </trkpt>
      <trkpt lat="48.0475" lon="-1.51425">
        <ele>60.67496</ele>
        <time>2021-12-26T08:28:38.999Z</time>
      </trkpt>
      <trkpt lat="48.04753" lon="-1.51422">
        <ele>60.627</ele>
        <time>2021-12-26T08:28:39.999Z</time>
      </trkpt>
      <trkpt lat="48.04757" lon="-1.5142">
        <ele>60.57224</ele>
        <time>2021-12-26T08:28:40.999Z</time>
      </trkpt>
      <trkpt lat="48.04761" lon="-1.51417">
        <ele>60.5006</ele>
        <time>2021-12-26T08:28:41.999Z</time>
      </trkpt>
      <trkpt lat="48.04764" lon="-1.51415">
        <ele>60.34916</ele>
        <time>2021-12-26T08:28:42.999Z</time>
      </trkpt>
      <trkpt lat="48.04769" lon="-1.51413">
        <ele>60.11752</ele>
        <time>2021-12-26T08:28:43.999Z</time>
      </trkpt>
      <trkpt lat="48.04773" lon="-1.51411">
        <ele>59.92861</ele>
        <time>2021-12-26T08:28:44.999Z</time>
      </trkpt>
      <trkpt lat="48.04777" lon="-1.5141">
        <ele>59.92941</ele>
        <time>2021-12-26T08:28:45.999Z</time>
      </trkpt>
      <trkpt lat="48.04781" lon="-1.51407">
        <ele>60.29906</ele>
        <time>2021-12-26T08:28:46.999Z</time>
      </trkpt>
      <trkpt lat="48.04785" lon="-1.51405">
        <ele>60.84675</ele>
        <time>2021-12-26T08:28:47.999Z</time>
      </trkpt>
      <trkpt lat="48.04789" lon="-1.51406">
        <ele>61.39579</ele>
        <time>2021-12-26T08:28:48.999Z</time>
      </trkpt>
      <trkpt lat="48.04792" lon="-1.51411">
        <ele>61.68811</ele>
        <time>2021-12-26T08:28:49.999Z</time>
      </trkpt>
      <trkpt lat="48.04794" lon="-1.51417">
        <ele>61.88288</ele>
        <time>2021-12-26T08:28:50.999Z</time>
      </trkpt>
      <trkpt lat="48.04797" lon="-1.51424">
        <ele>61.8215</ele>
        <time>2021-12-26T08:28:51.999Z</time>
      </trkpt>
      <trkpt lat="48.048" lon="-1.5143">
        <ele>61.38849</ele>
        <time>2021-12-26T08:28:52.999Z</time>
      </trkpt>
      <trkpt lat="48.04804" lon="-1.51435">
        <ele>60.90444</ele>
        <time>2021-12-26T08:28:53.999Z</time>
      </trkpt>
      <trkpt lat="48.04809" lon="-1.51436">
        <ele>60.79397</ele>
        <time>2021-12-26T08:28:54.999Z</time>
      </trkpt>
      <trkpt lat="48.04813" lon="-1.51437">
        <ele>60.61252</ele>
        <time>2021-12-26T08:28:55.999Z</time>
      </trkpt>
      <trkpt lat="48.04818" lon="-1.51436">
        <ele>60.83719</ele>
        <time>2021-12-26T08:28:56.999Z</time>
      </trkpt>
      <trkpt lat="48.04822" lon="-1.51435">
        <ele>60.99349</ele>
        <time>2021-12-26T08:28:57.999Z</time>
      </trkpt>
      <trkpt lat="48.04827" lon="-1.51433">
        <ele>61.24337</ele>
        <time>2021-12-26T08:28:58.999Z</time>
      </trkpt>
      <trkpt lat="48.04831" lon="-1.51432">
        <ele>61.37886</ele>
        <time>2021-12-26T08:28:59.999Z</time>
      </trkpt>
      <trkpt lat="48.04836" lon="-1.5143">
        <ele>61.4265</ele>
        <time>2021-12-26T08:29:00.999Z</time>
      </trkpt>
      <trkpt lat="48.0484" lon="-1.51428">
        <ele>61.35045</ele>
        <time>2021-12-26T08:29:01.999Z</time>
      </trkpt>
      <trkpt lat="48.04844" lon="-1.51426">
        <ele>61.24339</ele>
        <time>2021-12-26T08:29:02.999Z</time>
      </trkpt>
      <trkpt lat="48.04849" lon="-1.51424">
        <ele>61.11344</ele>
        <time>2021-12-26T08:29:03.999Z</time>
      </trkpt>
      <trkpt lat="48.04854" lon="-1.51422">
        <ele>60.79637</ele>
        <time>2021-12-26T08:29:04.999Z</time>
      </trkpt>
      <trkpt lat="48.04858" lon="-1.5142">
        <ele>60.34253</ele>
        <time>2021-12-26T08:29:05.999Z</time>
      </trkpt>
      <trkpt lat="48.04863" lon="-1.51418">
        <ele>59.88369</ele>
        <time>2021-12-26T08:29:06.999Z</time>
      </trkpt>
      <trkpt lat="48.04868" lon="-1.51416">
        <ele>59.50157</ele>
        <time>2021-12-26T08:29:07.999Z</time>
      </trkpt>
      <trkpt lat="48.04872" lon="-1.51413">
        <ele>59.28209</ele>
        <time>2021-12-26T08:29:08.999Z</time>
      </trkpt>
      <trkpt lat="48.04876" lon="-1.51411">
        <ele>59.22398</ele>
        <time>2021-12-26T08:29:09.999Z</time>
      </trkpt>
      <trkpt lat="48.0488" lon="-1.51408">
        <ele>59.34809</ele>
        <time>2021-12-26T08:29:10.999Z</time>
      </trkpt>
      <trkpt lat="48.04884" lon="-1.51405">
        <ele>59.56687</ele>
        <time>2021-12-26T08:29:11.999Z</time>
      </trkpt>
      <trkpt lat="48.04888" lon="-1.51402">
        <ele>59.84177</ele>
        <time>2021-12-26T08:29:12.999Z</time>
      </trkpt>
      <trkpt lat="48.04892" lon="-1.51399">
        <ele>60.13761</ele>
        <time>2021-12-26T08:29:13.999Z</time>
      </trkpt>
      <trkpt lat="48.04896" lon="-1.51397">
        <ele>60.22649</ele>
        <time>2021-12-26T08:29:14.999Z</time>
      </trkpt>
      <trkpt lat="48.04901" lon="-1.51395">
        <ele>60.14283</ele>
        <time>2021-12-26T08:29:15.999Z</time>
      </trkpt>
      <trkpt lat="48.04905" lon="-1.51393">
        <ele>59.82407</ele>
        <time>2021-12-26T08:29:16.999Z</time>
      </trkpt>
      <trkpt lat="48.04911" lon="-1.5139">
        <ele>59.24178</ele>
        <time>2021-12-26T08:29:17.999Z</time>
      </trkpt>
      <trkpt lat="48.04916" lon="-1.51387">
        <ele>58.58166</ele>
        <time>2021-12-26T08:29:18.999Z</time>
      </trkpt>
      <trkpt lat="48.04922" lon="-1.51384">
        <ele>57.99311</ele>
        <time>2021-12-26T08:29:19.999Z</time>
      </trkpt>
      <trkpt lat="48.04927" lon="-1.51381">
        <ele>57.53375</ele>
        <time>2021-12-26T08:29:20.999Z</time>
      </trkpt>
      <trkpt lat="48.04933" lon="-1.51378">
        <ele>57.34279</ele>
        <time>2021-12-26T08:29:21.999Z</time>
      </trkpt>
      <trkpt lat="48.04939" lon="-1.51375">
        <ele>57.40068</ele>
        <time>2021-12-26T08:29:22.999Z</time>
      </trkpt>
      <trkpt lat="48.04945" lon="-1.51372">
        <ele>57.55363</ele>
        <time>2021-12-26T08:29:23.999Z</time>
      </trkpt>
      <trkpt lat="48.04951" lon="-1.51369">
        <ele>57.61949</ele>
        <time>2021-12-26T08:29:24.999Z</time>
      </trkpt>
      <trkpt lat="48.04958" lon="-1.51366">
        <ele>57.48485</ele>
        <time>2021-12-26T08:29:25.999Z</time>
      </trkpt>
      <trkpt lat="48.04964" lon="-1.51363">
        <ele>57.16195</ele>
        <time>2021-12-26T08:29:26.999Z</time>
      </trkpt>
      <trkpt lat="48.0497" lon="-1.5136">
        <ele>56.62223</ele>
        <time>2021-12-26T08:29:27.999Z</time>
      </trkpt>
      <trkpt lat="48.04976" lon="-1.51357">
        <ele>55.9846</ele>
        <time>2021-12-26T08:29:28.999Z</time>
      </trkpt>
      <trkpt lat="48.04982" lon="-1.51353">
        <ele>55.46224</ele>
        <time>2021-12-26T08:29:29.999Z</time>
      </trkpt>
      <trkpt lat="48.04988" lon="-1.5135">
        <ele>55.20488</ele>
        <time>2021-12-26T08:29:30.999Z</time>
      </trkpt>
      <trkpt lat="48.04994" lon="-1.51346">
        <ele>55.23343</ele>
        <time>2021-12-26T08:29:31.999Z</time>
      </trkpt>
      <trkpt lat="48.05001" lon="-1.51342">
        <ele>55.46828</ele>
        <time>2021-12-26T08:29:32.999Z</time>
      </trkpt>
      <trkpt lat="48.05008" lon="-1.51339">
        <ele>55.75516</ele>
        <time>2021-12-26T08:29:33.999Z</time>
      </trkpt>
      <trkpt lat="48.05015" lon="-1.51335">
        <ele>55.68807</ele>
        <time>2021-12-26T08:29:34.999Z</time>
      </trkpt>
      <trkpt lat="48.05022" lon="-1.51331">
        <ele>55.08025</ele>
        <time>2021-12-26T08:29:35.999Z</time>
      </trkpt>
      <trkpt lat="48.05029" lon="-1.51327">
        <ele>54.24578</ele>
        <time>2021-12-26T08:29:36.999Z</time>
      </trkpt>
      <trkpt lat="48.05036" lon="-1.51324">
        <ele>53.63938</ele>
        <time>2021-12-26T08:29:37.999Z</time>
      </trkpt>
      <trkpt lat="48.05044" lon="-1.5132">
        <ele>53.36962</ele>
        <time>2021-12-26T08:29:38.999Z</time>
      </trkpt>
      <trkpt lat="48.05052" lon="-1.51315">
        <ele>53.55245</ele>
        <time>2021-12-26T08:29:39.999Z</time>
      </trkpt>
      <trkpt lat="48.0506" lon="-1.51311">
        <ele>53.88396</ele>
        <time>2021-12-26T08:29:40.999Z</time>
      </trkpt>
      <trkpt lat="48.05068" lon="-1.51307">
        <ele>53.96134</ele>
        <time>2021-12-26T08:29:41.999Z</time>
      </trkpt>
      <trkpt lat="48.05077" lon="-1.51302">
        <ele>53.555</ele>
        <time>2021-12-26T08:29:42.999Z</time>
      </trkpt>
      <trkpt lat="48.05086" lon="-1.51298">
        <ele>52.75762</ele>
        <time>2021-12-26T08:29:43.999Z</time>
      </trkpt>
      <trkpt lat="48.05094" lon="-1.51293">
        <ele>51.96115</ele>
        <time>2021-12-26T08:29:44.999Z</time>
      </trkpt>
      <trkpt lat="48.05103" lon="-1.51289">
        <ele>51.88894</ele>
        <time>2021-12-26T08:29:45.999Z</time>
      </trkpt>
      <trkpt lat="48.05112" lon="-1.51284">
        <ele>52.36091</ele>
        <time>2021-12-26T08:29:46.999Z</time>
      </trkpt>
      <trkpt lat="48.05121" lon="-1.5128">
        <ele>52.75692</ele>
        <time>2021-12-26T08:29:47.999Z</time>
      </trkpt>
      <trkpt lat="48.0513" lon="-1.51275">
        <ele>52.37262</ele>
        <time>2021-12-26T08:29:48.999Z</time>
      </trkpt>
      <trkpt lat="48.05139" lon="-1.51271">
        <ele>51.1444</ele>
        <time>2021-12-26T08:29:49.999Z</time>
      </trkpt>
      <trkpt lat="48.05148" lon="-1.51266">
        <ele>50.24894</ele>
        <time>2021-12-26T08:29:50.999Z</time>
      </trkpt>
      <trkpt lat="48.05157" lon="-1.51261">
        <ele>50.08525</ele>
        <time>2021-12-26T08:29:51.999Z</time>
      </trkpt>
      <trkpt lat="48.05166" lon="-1.51257">
        <ele>50.30058</ele>
        <time>2021-12-26T08:29:52.999Z</time>
      </trkpt>
      <trkpt lat="48.05176" lon="-1.51252">
        <ele>50.36049</ele>
        <time>2021-12-26T08:29:53.999Z</time>
      </trkpt>
      <trkpt lat="48.05185" lon="-1.51248">
        <ele>49.67109</ele>
        <time>2021-12-26T08:29:54.999Z</time>
      </trkpt>
      <trkpt lat="48.05195" lon="-1.51244">
        <ele>48.55019</ele>
        <time>2021-12-26T08:29:55.999Z</time>
      </trkpt>
      <trkpt lat="48.05205" lon="-1.51241">
        <ele>47.37531</ele>
        <time>2021-12-26T08:29:56.999Z</time>
      </trkpt>
      <trkpt lat="48.05216" lon="-1.51238">
        <ele>46.58134</ele>
        <time>2021-12-26T08:29:57.999Z</time>
      </trkpt>
      <trkpt lat="48.05226" lon="-1.51233">
        <ele>46.39546</ele>
        <time>2021-12-26T08:29:58.999Z</time>
      </trkpt>
      <trkpt lat="48.05235" lon="-1.51229">
        <ele>46.18831</ele>
        <time>2021-12-26T08:29:59.999Z</time>
      </trkpt>
      <trkpt lat="48.05244" lon="-1.51225">
        <ele>45.73291</ele>
        <time>2021-12-26T08:30:00.999Z</time>
      </trkpt>
      <trkpt lat="48.05253" lon="-1.5122">
        <ele>45.03385</ele>
        <time>2021-12-26T08:30:01.999Z</time>
      </trkpt>
      <trkpt lat="48.05262" lon="-1.51216">
        <ele>44.40178</ele>
        <time>2021-12-26T08:30:02.999Z</time>
      </trkpt>
      <trkpt lat="48.0527" lon="-1.51212">
        <ele>44.16044</ele>
        <time>2021-12-26T08:30:03.999Z</time>
      </trkpt>
      <trkpt lat="48.05277" lon="-1.51207">
        <ele>44.18761</ele>
        <time>2021-12-26T08:30:04.999Z</time>
      </trkpt>
      <trkpt lat="48.05284" lon="-1.51203">
        <ele>44.33159</ele>
        <time>2021-12-26T08:30:05.999Z</time>
      </trkpt>
      <trkpt lat="48.0529" lon="-1.51198">
        <ele>44.31824</ele>
        <time>2021-12-26T08:30:06.999Z</time>
      </trkpt>
      <trkpt lat="48.05295" lon="-1.51191">
        <ele>43.91614</ele>
        <time>2021-12-26T08:30:07.999Z</time>
      </trkpt>
      <trkpt lat="48.05299" lon="-1.51185">
        <ele>43.31935</ele>
        <time>2021-12-26T08:30:08.999Z</time>
      </trkpt>
      <trkpt lat="48.05303" lon="-1.51182">
        <ele>42.63994</ele>
        <time>2021-12-26T08:30:09.999Z</time>
      </trkpt>
      <trkpt lat="48.05308" lon="-1.51181">
        <ele>42.09267</ele>
        <time>2021-12-26T08:30:10.999Z</time>
      </trkpt>
      <trkpt lat="48.05312" lon="-1.51181">
        <ele>41.86614</ele>
        <time>2021-12-26T08:30:11.999Z</time>
      </trkpt>
      <trkpt lat="48.05317" lon="-1.5118">
        <ele>41.94879</ele>
        <time>2021-12-26T08:30:12.999Z</time>
      </trkpt>
      <trkpt lat="48.05321" lon="-1.51181">
        <ele>42.22914</ele>
        <time>2021-12-26T08:30:13.999Z</time>
      </trkpt>
      <trkpt lat="48.05326" lon="-1.5118">
        <ele>42.58641</ele>
        <time>2021-12-26T08:30:14.999Z</time>
      </trkpt>
      <trkpt lat="48.05329" lon="-1.51179">
        <ele>42.86324</ele>
        <time>2021-12-26T08:30:15.999Z</time>
      </trkpt>
      <trkpt lat="48.05333" lon="-1.51176">
        <ele>43.03284</ele>
        <time>2021-12-26T08:30:16.999Z</time>
      </trkpt>
      <trkpt lat="48.05336" lon="-1.51176">
        <ele>43.11022</ele>
        <time>2021-12-26T08:30:17.999Z</time>
      </trkpt>
      <trkpt lat="48.0534" lon="-1.51176">
        <ele>43.14872</ele>
        <time>2021-12-26T08:30:18.999Z</time>
      </trkpt>
      <trkpt lat="48.0534" lon="-1.51176">
        <ele>43.14872</ele>
        <time>2021-12-26T08:30:18.999Z</time>
      </trkpt>
      <trkpt lat="48.0534" lon="-1.51182">
        <ele>43.07164</ele>
        <time>2021-12-26T08:30:19.999Z</time>
      </trkpt>
      <trkpt lat="48.05341" lon="-1.51188">
        <ele>42.96539</ele>
        <time>2021-12-26T08:30:20.999Z</time>
      </trkpt>
      <trkpt lat="48.05343" lon="-1.51194">
        <ele>42.81891</ele>
        <time>2021-12-26T08:30:21.999Z</time>
      </trkpt>
      <trkpt lat="48.05347" lon="-1.51198">
        <ele>42.6951</ele>
        <time>2021-12-26T08:30:22.999Z</time>
      </trkpt>
      <trkpt lat="48.05351" lon="-1.51201">
        <ele>42.62976</ele>
        <time>2021-12-26T08:30:23.999Z</time>
      </trkpt>
      <trkpt lat="48.05356" lon="-1.51203">
        <ele>42.62017</ele>
        <time>2021-12-26T08:30:24.999Z</time>
      </trkpt>
      <trkpt lat="48.05361" lon="-1.51205">
        <ele>42.63948</ele>
        <time>2021-12-26T08:30:25.999Z</time>
      </trkpt>
      <trkpt lat="48.05366" lon="-1.51207">
        <ele>42.69442</ele>
        <time>2021-12-26T08:30:26.999Z</time>
      </trkpt>
      <trkpt lat="48.05372" lon="-1.51209">
        <ele>42.77593</ele>
        <time>2021-12-26T08:30:27.999Z</time>
      </trkpt>
      <trkpt lat="48.05377" lon="-1.51212">
        <ele>42.80083</ele>
        <time>2021-12-26T08:30:28.999Z</time>
      </trkpt>
      <trkpt lat="48.05381" lon="-1.51217">
        <ele>42.76089</ele>
        <time>2021-12-26T08:30:29.999Z</time>
      </trkpt>
      <trkpt lat="48.05385" lon="-1.51223">
        <ele>42.71591</ele>
        <time>2021-12-26T08:30:30.999Z</time>
      </trkpt>
      <trkpt lat="48.05388" lon="-1.5123">
        <ele>42.67902</ele>
        <time>2021-12-26T08:30:31.999Z</time>
      </trkpt>
      <trkpt lat="48.05391" lon="-1.51236">
        <ele>42.70094</ele>
        <time>2021-12-26T08:30:32.999Z</time>
      </trkpt>
      <trkpt lat="48.05394" lon="-1.51243">
        <ele>42.73003</ele>
        <time>2021-12-26T08:30:33.999Z</time>
      </trkpt>
      <trkpt lat="48.05398" lon="-1.51249">
        <ele>42.76706</ele>
        <time>2021-12-26T08:30:34.999Z</time>
      </trkpt>
      <trkpt lat="48.054" lon="-1.51256">
        <ele>42.75619</ele>
        <time>2021-12-26T08:30:35.999Z</time>
      </trkpt>
      <trkpt lat="48.05403" lon="-1.51262">
        <ele>42.72652</ele>
        <time>2021-12-26T08:30:36.999Z</time>
      </trkpt>
      <trkpt lat="48.05405" lon="-1.51269">
        <ele>42.6912</ele>
        <time>2021-12-26T08:30:37.999Z</time>
      </trkpt>
      <trkpt lat="48.05408" lon="-1.51275">
        <ele>42.65275</ele>
        <time>2021-12-26T08:30:38.999Z</time>
      </trkpt>
      <trkpt lat="48.0541" lon="-1.51281">
        <ele>42.65244</ele>
        <time>2021-12-26T08:30:39.999Z</time>
      </trkpt>
      <trkpt lat="48.05412" lon="-1.51288">
        <ele>42.69752</ele>
        <time>2021-12-26T08:30:40.999Z</time>
      </trkpt>
      <trkpt lat="48.05415" lon="-1.51295">
        <ele>42.8016</ele>
        <time>2021-12-26T08:30:41.999Z</time>
      </trkpt>
      <trkpt lat="48.05416" lon="-1.51302">
        <ele>42.95232</ele>
        <time>2021-12-26T08:30:42.999Z</time>
      </trkpt>
      <trkpt lat="48.05418" lon="-1.51308">
        <ele>43.17786</ele>
        <time>2021-12-26T08:30:43.999Z</time>
      </trkpt>
      <trkpt lat="48.0542" lon="-1.51315">
        <ele>43.39161</ele>
        <time>2021-12-26T08:30:44.999Z</time>
      </trkpt>
      <trkpt lat="48.05422" lon="-1.51321">
        <ele>43.56905</ele>
        <time>2021-12-26T08:30:45.999Z</time>
      </trkpt>
      <trkpt lat="48.05424" lon="-1.51328">
        <ele>43.75498</ele>
        <time>2021-12-26T08:30:46.999Z</time>
      </trkpt>
      <trkpt lat="48.05426" lon="-1.51334">
        <ele>43.92233</ele>
        <time>2021-12-26T08:30:47.999Z</time>
      </trkpt>
      <trkpt lat="48.05428" lon="-1.5134">
        <ele>44.06948</ele>
        <time>2021-12-26T08:30:48.999Z</time>
      </trkpt>
      <trkpt lat="48.0543" lon="-1.51346">
        <ele>44.21359</ele>
        <time>2021-12-26T08:30:49.999Z</time>
      </trkpt>
      <trkpt lat="48.05431" lon="-1.51352">
        <ele>44.37519</ele>
        <time>2021-12-26T08:30:50.999Z</time>
      </trkpt>
      <trkpt lat="48.05433" lon="-1.51357">
        <ele>44.62391</ele>
        <time>2021-12-26T08:30:51.999Z</time>
      </trkpt>
      <trkpt lat="48.05435" lon="-1.51363">
        <ele>44.90726</ele>
        <time>2021-12-26T08:30:52.999Z</time>
      </trkpt>
      <trkpt lat="48.05436" lon="-1.51369">
        <ele>45.16337</ele>
        <time>2021-12-26T08:30:53.999Z</time>
      </trkpt>
      <trkpt lat="48.05437" lon="-1.51375">
        <ele>45.54538</ele>
        <time>2021-12-26T08:30:54.999Z</time>
      </trkpt>
      <trkpt lat="48.05438" lon="-1.51381">
        <ele>45.96592</ele>
        <time>2021-12-26T08:30:55.999Z</time>
      </trkpt>
      <trkpt lat="48.05439" lon="-1.51386">
        <ele>46.39662</ele>
        <time>2021-12-26T08:30:56.999Z</time>
      </trkpt>
      <trkpt lat="48.05441" lon="-1.51392">
        <ele>46.77806</ele>
        <time>2021-12-26T08:30:57.999Z</time>
      </trkpt>
      <trkpt lat="48.05442" lon="-1.51398">
        <ele>47.0737</ele>
        <time>2021-12-26T08:30:58.999Z</time>
      </trkpt>
      <trkpt lat="48.05443" lon="-1.51404">
        <ele>47.26017</ele>
        <time>2021-12-26T08:30:59.999Z</time>
      </trkpt>
      <trkpt lat="48.05444" lon="-1.51409">
        <ele>47.35773</ele>
        <time>2021-12-26T08:31:00.999Z</time>
      </trkpt>
      <trkpt lat="48.05445" lon="-1.51415">
        <ele>47.40705</ele>
        <time>2021-12-26T08:31:01.999Z</time>
      </trkpt>
      <trkpt lat="48.05447" lon="-1.51421">
        <ele>47.42158</ele>
        <time>2021-12-26T08:31:02.999Z</time>
      </trkpt>
      <trkpt lat="48.05448" lon="-1.51427">
        <ele>47.41988</ele>
        <time>2021-12-26T08:31:03.999Z</time>
      </trkpt>
      <trkpt lat="48.05449" lon="-1.51433">
        <ele>47.41855</ele>
        <time>2021-12-26T08:31:04.999Z</time>
      </trkpt>
      <trkpt lat="48.05451" lon="-1.51439">
        <ele>47.4334</ele>
        <time>2021-12-26T08:31:05.999Z</time>
      </trkpt>
      <trkpt lat="48.05452" lon="-1.51445">
        <ele>47.471</ele>
        <time>2021-12-26T08:31:06.999Z</time>
      </trkpt>
      <trkpt lat="48.05454" lon="-1.51451">
        <ele>47.53399</ele>
        <time>2021-12-26T08:31:07.999Z</time>
      </trkpt>
      <trkpt lat="48.05455" lon="-1.51458">
        <ele>47.60797</ele>
        <time>2021-12-26T08:31:08.999Z</time>
      </trkpt>
      <trkpt lat="48.05456" lon="-1.51464">
        <ele>47.69633</ele>
        <time>2021-12-26T08:31:09.999Z</time>
      </trkpt>
      <trkpt lat="48.05458" lon="-1.51471">
        <ele>47.75807</ele>
        <time>2021-12-26T08:31:10.999Z</time>
      </trkpt>
      <trkpt lat="48.05459" lon="-1.51477">
        <ele>47.81068</ele>
        <time>2021-12-26T08:31:11.999Z</time>
      </trkpt>
      <trkpt lat="48.05461" lon="-1.51484">
        <ele>47.82753</ele>
        <time>2021-12-26T08:31:12.999Z</time>
      </trkpt>
      <trkpt lat="48.05462" lon="-1.5149">
        <ele>47.82633</ele>
        <time>2021-12-26T08:31:13.999Z</time>
      </trkpt>
      <trkpt lat="48.05463" lon="-1.51496">
        <ele>47.81153</ele>
        <time>2021-12-26T08:31:14.999Z</time>
      </trkpt>
      <trkpt lat="48.05464" lon="-1.51502">
        <ele>47.78572</ele>
        <time>2021-12-26T08:31:15.999Z</time>
      </trkpt>
      <trkpt lat="48.05465" lon="-1.51507">
        <ele>47.76046</ele>
        <time>2021-12-26T08:31:16.999Z</time>
      </trkpt>
      <trkpt lat="48.05465" lon="-1.51507">
        <ele>47.76046</ele>
        <time>2021-12-26T08:31:16.999Z</time>
      </trkpt>
      <trkpt lat="48.05466" lon="-1.51513">
        <ele>47.71955</ele>
        <time>2021-12-26T08:31:17.999Z</time>
      </trkpt>
      <trkpt lat="48.05464" lon="-1.51518">
        <ele>47.63967</ele>
        <time>2021-12-26T08:31:18.999Z</time>
      </trkpt>
      <trkpt lat="48.0546" lon="-1.5152">
        <ele>47.58166</ele>
        <time>2021-12-26T08:31:19.999Z</time>
      </trkpt>
      <trkpt lat="48.05455" lon="-1.51522">
        <ele>47.50653</ele>
        <time>2021-12-26T08:31:20.999Z</time>
      </trkpt>
      <trkpt lat="48.0545" lon="-1.51523">
        <ele>47.406</ele>
        <time>2021-12-26T08:31:21.999Z</time>
      </trkpt>
      <trkpt lat="48.05445" lon="-1.51523">
        <ele>47.32815</ele>
        <time>2021-12-26T08:31:22.999Z</time>
      </trkpt>
      <trkpt lat="48.05439" lon="-1.51522">
        <ele>47.20033</ele>
        <time>2021-12-26T08:31:23.999Z</time>
      </trkpt>
      <trkpt lat="48.05433" lon="-1.51522">
        <ele>46.92367</ele>
        <time>2021-12-26T08:31:24.999Z</time>
      </trkpt>
      <trkpt lat="48.05427" lon="-1.51522">
        <ele>46.40312</ele>
        <time>2021-12-26T08:31:25.999Z</time>
      </trkpt>
      <trkpt lat="48.05422" lon="-1.51522">
        <ele>45.7577</ele>
        <time>2021-12-26T08:31:26.999Z</time>
      </trkpt>
      <trkpt lat="48.05417" lon="-1.51522">
        <ele>45.07993</ele>
        <time>2021-12-26T08:31:27.999Z</time>
      </trkpt>
      <trkpt lat="48.05411" lon="-1.51519">
        <ele>44.39816</ele>
        <time>2021-12-26T08:31:28.999Z</time>
      </trkpt>
      <trkpt lat="48.05407" lon="-1.51514">
        <ele>43.75917</ele>
        <time>2021-12-26T08:31:29.999Z</time>
      </trkpt>
      <trkpt lat="48.05403" lon="-1.51507">
        <ele>43.13611</ele>
        <time>2021-12-26T08:31:30.999Z</time>
      </trkpt>
      <trkpt lat="48.05399" lon="-1.51499">
        <ele>42.41079</ele>
        <time>2021-12-26T08:31:31.999Z</time>
      </trkpt>
      <trkpt lat="48.05395" lon="-1.51492">
        <ele>41.60326</ele>
        <time>2021-12-26T08:31:32.999Z</time>
      </trkpt>
      <trkpt lat="48.05389" lon="-1.51488">
        <ele>40.65453</ele>
        <time>2021-12-26T08:31:33.999Z</time>
      </trkpt>
      <trkpt lat="48.05383" lon="-1.51484">
        <ele>40.04218</ele>
        <time>2021-12-26T08:31:34.999Z</time>
      </trkpt>
      <trkpt lat="48.05377" lon="-1.51482">
        <ele>39.80615</ele>
        <time>2021-12-26T08:31:35.999Z</time>
      </trkpt>
      <trkpt lat="48.05371" lon="-1.51479">
        <ele>39.7284</ele>
        <time>2021-12-26T08:31:36.999Z</time>
      </trkpt>
      <trkpt lat="48.05366" lon="-1.51476">
        <ele>39.63966</ele>
        <time>2021-12-26T08:31:37.999Z</time>
      </trkpt>
      <trkpt lat="48.0536" lon="-1.51473">
        <ele>39.55289</ele>
        <time>2021-12-26T08:31:38.999Z</time>
      </trkpt>
      <trkpt lat="48.05355" lon="-1.5147">
        <ele>39.53429</ele>
        <time>2021-12-26T08:31:39.999Z</time>
      </trkpt>
      <trkpt lat="48.05351" lon="-1.51467">
        <ele>39.55934</ele>
        <time>2021-12-26T08:31:40.999Z</time>
      </trkpt>
      <trkpt lat="48.05347" lon="-1.51466">
        <ele>39.59336</ele>
        <time>2021-12-26T08:31:41.999Z</time>
      </trkpt>
      <trkpt lat="48.05344" lon="-1.51466">
        <ele>39.62007</ele>
        <time>2021-12-26T08:31:42.999Z</time>
      </trkpt>
      <trkpt lat="48.05342" lon="-1.51467">
        <ele>39.64673</ele>
        <time>2021-12-26T08:31:43.999Z</time>
      </trkpt>
      <trkpt lat="48.05341" lon="-1.51469">
        <ele>39.68569</ele>
        <time>2021-12-26T08:31:45.999Z</time>
      </trkpt>
      <trkpt lat="48.05341" lon="-1.51474">
        <ele>39.72348</ele>
        <time>2021-12-26T08:31:47.999Z</time>
      </trkpt>
      <trkpt lat="48.05341" lon="-1.51474">
        <ele>39.72348</ele>
      </trkpt>
      <trkpt lat="48.0534" lon="-1.51477">
        <ele>39.74931</ele>
      </trkpt>
      <trkpt lat="48.05341" lon="-1.51482">
        <ele>39.7809</ele>
      </trkpt>
      <trkpt lat="48.05341" lon="-1.51487">
        <ele>39.80845</ele>
      </trkpt>
      <trkpt lat="48.0534" lon="-1.51492">
        <ele>39.83447</ele>
      </trkpt>
      <trkpt lat="48.0534" lon="-1.51496">
        <ele>39.83698</ele>
      </trkpt>
      <trkpt lat="48.0534" lon="-1.51501">
        <ele>39.81593</ele>
      </trkpt>
      <trkpt lat="48.0534" lon="-1.51506">
        <ele>39.78787</ele>
      </trkpt>
      <trkpt lat="48.05341" lon="-1.5151">
        <ele>39.73936</ele>
      </trkpt>
      <trkpt lat="48.05342" lon="-1.51514">
        <ele>39.69714</ele>
      </trkpt>
      <trkpt lat="48.05343" lon="-1.51518">
        <ele>39.65876</ele>
      </trkpt>
      <trkpt lat="48.05344" lon="-1.51521">
        <ele>39.61925</ele>
      </trkpt>
      <trkpt lat="48.05343" lon="-1.51522">
        <ele>39.62325</ele>
      </trkpt>
      <trkpt lat="48.05339" lon="-1.5152">
        <ele>39.70232</ele>
      </trkpt>
      <trkpt lat="48.05335" lon="-1.5152">
        <ele>39.79355</ele>
      </trkpt>
      <trkpt lat="48.05332" lon="-1.51522">
        <ele>39.8442</ele>
      </trkpt>
      <trkpt lat="48.05329" lon="-1.51522">
        <ele>39.94437</ele>
      </trkpt>
      <trkpt lat="48.05324" lon="-1.51523">
        <ele>40.04012</ele>
      </trkpt>
      <trkpt lat="48.0532" lon="-1.51524">
        <ele>40.11102</ele>
      </trkpt>
      <trkpt lat="48.05316" lon="-1.51525">
        <ele>40.12544</ele>
      </trkpt>
      <trkpt lat="48.05311" lon="-1.51526">
        <ele>40.10886</ele>
      </trkpt>
      <trkpt lat="48.05307" lon="-1.51526">
        <ele>40.07883</ele>
      </trkpt>
      <trkpt lat="48.05303" lon="-1.51527">
        <ele>40.03265</ele>
      </trkpt>
      <trkpt lat="48.05299" lon="-1.51528">
        <ele>39.99126</ele>
      </trkpt>
      <trkpt lat="48.05296" lon="-1.51528">
        <ele>39.96301</ele>
      </trkpt>
      <trkpt lat="48.05293" lon="-1.51528">
        <ele>39.93661</ele>
      </trkpt>
      <trkpt lat="48.05289" lon="-1.51529">
        <ele>39.89963</ele>
      </trkpt>
      <trkpt lat="48.05287" lon="-1.5153">
        <ele>39.86398</ele>
      </trkpt>
      <trkpt lat="48.05286" lon="-1.51534">
        <ele>39.8004</ele>
      </trkpt>
      <trkpt lat="48.05286" lon="-1.51539">
        <ele>39.72191</ele>
      </trkpt>
      <trkpt lat="48.05287" lon="-1.51545">
        <ele>39.63078</ele>
      </trkpt>
      <trkpt lat="48.05287" lon="-1.51552">
        <ele>39.5405</ele>
      </trkpt>
      <trkpt lat="48.05286" lon="-1.51559">
        <ele>39.48865</ele>
      </trkpt>
      <trkpt lat="48.05285" lon="-1.51566">
        <ele>39.48422</ele>
      </trkpt>
      <trkpt lat="48.05283" lon="-1.51572">
        <ele>39.52706</ele>
      </trkpt>
      <trkpt lat="48.05281" lon="-1.51578">
        <ele>39.61226</ele>
      </trkpt>
      <trkpt lat="48.05279" lon="-1.51584">
        <ele>39.72235</ele>
      </trkpt>
      <trkpt lat="48.05277" lon="-1.5159">
        <ele>39.83805</ele>
      </trkpt>
      <trkpt lat="48.05276" lon="-1.51596">
        <ele>39.93774</ele>
      </trkpt>
      <trkpt lat="48.05274" lon="-1.51602">
        <ele>40.02911</ele>
      </trkpt>
      <trkpt lat="48.05272" lon="-1.51608">
        <ele>40.10383</ele>
      </trkpt>
      <trkpt lat="48.05271" lon="-1.51614">
        <ele>40.15749</ele>
      </trkpt>
      <trkpt lat="48.05269" lon="-1.5162">
        <ele>40.21998</ele>
      </trkpt>
      <trkpt lat="48.05268" lon="-1.51626">
        <ele>40.26241</ele>
      </trkpt>
      <trkpt lat="48.05268" lon="-1.51632">
        <ele>40.30169</ele>
      </trkpt>
      <trkpt lat="48.05267" lon="-1.51638">
        <ele>40.34298</ele>
      </trkpt>
      <trkpt lat="48.05267" lon="-1.51644">
        <ele>40.3486</ele>
      </trkpt>
      <trkpt lat="48.05268" lon="-1.51647">
        <ele>40.34416</ele>
      </trkpt>
      <trkpt lat="48.0527" lon="-1.51649">
        <ele>40.28668</ele>
      </trkpt>
      <trkpt lat="48.05273" lon="-1.51649">
        <ele>40.23682</ele>
      </trkpt>
      <trkpt lat="48.05273" lon="-1.51649">
        <ele>40.23682</ele>
        <time>2021-12-26T08:32:47.999Z</time>
      </trkpt>
      <trkpt lat="48.05276" lon="-1.51649">
        <ele>40.18699</ele>
        <time>2021-12-26T08:32:48.999Z</time>
      </trkpt>
      <trkpt lat="48.05279" lon="-1.51649">
        <ele>40.1395</ele>
        <time>2021-12-26T08:32:49.999Z</time>
      </trkpt>
      <trkpt lat="48.05282" lon="-1.51649">
        <ele>40.09815</ele>
        <time>2021-12-26T08:32:50.999Z</time>
      </trkpt>
      <trkpt lat="48.05286" lon="-1.5165">
        <ele>40.05929</ele>
        <time>2021-12-26T08:32:51.999Z</time>
      </trkpt>
      <trkpt lat="48.0529" lon="-1.51651">
        <ele>40.0272</ele>
        <time>2021-12-26T08:32:52.999Z</time>
      </trkpt>
      <trkpt lat="48.05296" lon="-1.51653">
        <ele>40.02308</ele>
        <time>2021-12-26T08:32:53.999Z</time>
      </trkpt>
      <trkpt lat="48.053" lon="-1.51653">
        <ele>40.0489</ele>
        <time>2021-12-26T08:32:54.999Z</time>
      </trkpt>
      <trkpt lat="48.05305" lon="-1.51654">
        <ele>40.08629</ele>
        <time>2021-12-26T08:32:55.999Z</time>
      </trkpt>
      <trkpt lat="48.05309" lon="-1.51655">
        <ele>40.11837</ele>
        <time>2021-12-26T08:32:56.999Z</time>
      </trkpt>
      <trkpt lat="48.05314" lon="-1.51656">
        <ele>40.11656</ele>
        <time>2021-12-26T08:32:57.999Z</time>
      </trkpt>
      <trkpt lat="48.05316" lon="-1.51657">
        <ele>40.0936</ele>
        <time>2021-12-26T08:32:58.999Z</time>
      </trkpt>
      <trkpt lat="48.05319" lon="-1.51657">
        <ele>40.05026</ele>
        <time>2021-12-26T08:32:59.999Z</time>
      </trkpt>
      <trkpt lat="48.05324" lon="-1.51658">
        <ele>39.96943</ele>
        <time>2021-12-26T08:33:00.999Z</time>
      </trkpt>
      <trkpt lat="48.05328" lon="-1.51658">
        <ele>39.87815</ele>
        <time>2021-12-26T08:33:01.999Z</time>
      </trkpt>
      <trkpt lat="48.05332" lon="-1.51657">
        <ele>39.80098</ele>
        <time>2021-12-26T08:33:02.999Z</time>
      </trkpt>
      <trkpt lat="48.05337" lon="-1.51656">
        <ele>39.73631</ele>
        <time>2021-12-26T08:33:03.999Z</time>
      </trkpt>
      <trkpt lat="48.05341" lon="-1.51656">
        <ele>39.68144</ele>
        <time>2021-12-26T08:33:04.999Z</time>
      </trkpt>
      <trkpt lat="48.05345" lon="-1.51656">
        <ele>39.62886</ele>
        <time>2021-12-26T08:33:05.999Z</time>
      </trkpt>
      <trkpt lat="48.0535" lon="-1.51655">
        <ele>39.5851</ele>
        <time>2021-12-26T08:33:06.999Z</time>
      </trkpt>
      <trkpt lat="48.05354" lon="-1.51655">
        <ele>39.56168</ele>
        <time>2021-12-26T08:33:07.999Z</time>
      </trkpt>
      <trkpt lat="48.05357" lon="-1.51656">
        <ele>39.56092</ele>
        <time>2021-12-26T08:33:08.999Z</time>
      </trkpt>
      <trkpt lat="48.05362" lon="-1.51656">
        <ele>39.59992</ele>
        <time>2021-12-26T08:33:09.999Z</time>
      </trkpt>
      <trkpt lat="48.05365" lon="-1.51657">
        <ele>39.67536</ele>
        <time>2021-12-26T08:33:10.999Z</time>
      </trkpt>
      <trkpt lat="48.05369" lon="-1.51657">
        <ele>39.78291</ele>
        <time>2021-12-26T08:33:11.999Z</time>
      </trkpt>
      <trkpt lat="48.05372" lon="-1.51661">
        <ele>39.87015</ele>
        <time>2021-12-26T08:33:12.999Z</time>
      </trkpt>
      <trkpt lat="48.05372" lon="-1.51666">
        <ele>39.92092</ele>
        <time>2021-12-26T08:33:13.999Z</time>
      </trkpt>
      <trkpt lat="48.05373" lon="-1.51672">
        <ele>39.95527</ele>
        <time>2021-12-26T08:33:14.999Z</time>
      </trkpt>
      <trkpt lat="48.05374" lon="-1.51678">
        <ele>40.0096</ele>
        <time>2021-12-26T08:33:15.999Z</time>
      </trkpt>
      <trkpt lat="48.05375" lon="-1.51683">
        <ele>40.06888</ele>
        <time>2021-12-26T08:33:16.999Z</time>
      </trkpt>
      <trkpt lat="48.05376" lon="-1.51689">
        <ele>40.13934</ele>
        <time>2021-12-26T08:33:17.999Z</time>
      </trkpt>
      <trkpt lat="48.05377" lon="-1.51695">
        <ele>40.22407</ele>
        <time>2021-12-26T08:33:18.999Z</time>
      </trkpt>
      <trkpt lat="48.05378" lon="-1.51701">
        <ele>40.34165</ele>
        <time>2021-12-26T08:33:19.999Z</time>
      </trkpt>
      <trkpt lat="48.05379" lon="-1.51708">
        <ele>40.43917</ele>
        <time>2021-12-26T08:33:20.999Z</time>
      </trkpt>
      <trkpt lat="48.05381" lon="-1.51714">
        <ele>40.51549</ele>
        <time>2021-12-26T08:33:21.999Z</time>
      </trkpt>
      <trkpt lat="48.05382" lon="-1.51719">
        <ele>40.59635</ele>
        <time>2021-12-26T08:33:22.999Z</time>
      </trkpt>
      <trkpt lat="48.05383" lon="-1.51725">
        <ele>40.70661</ele>
        <time>2021-12-26T08:33:23.999Z</time>
      </trkpt>
      <trkpt lat="48.05384" lon="-1.5173">
        <ele>40.84177</ele>
        <time>2021-12-26T08:33:24.999Z</time>
      </trkpt>
      <trkpt lat="48.05384" lon="-1.51734">
        <ele>40.98721</ele>
        <time>2021-12-26T08:33:25.999Z</time>
      </trkpt>
      <trkpt lat="48.05384" lon="-1.51738">
        <ele>41.13653</ele>
        <time>2021-12-26T08:33:26.999Z</time>
      </trkpt>
      <trkpt lat="48.05381" lon="-1.51737">
        <ele>41.04324</ele>
        <time>2021-12-26T08:33:28.999Z</time>
      </trkpt>
      <trkpt lat="48.05381" lon="-1.51734">
        <ele>40.91597</ele>
        <time>2021-12-26T08:33:29.999Z</time>
      </trkpt>
      <trkpt lat="48.0538" lon="-1.5173">
        <ele>40.7551</ele>
        <time>2021-12-26T08:33:30.999Z</time>
      </trkpt>
      <trkpt lat="48.0538" lon="-1.5173">
        <ele>40.7551</ele>
        <time>2021-12-26T08:33:30.999Z</time>
      </trkpt>
      <trkpt lat="48.05379" lon="-1.51725">
        <ele>40.5649</ele>
        <time>2021-12-26T08:33:31.999Z</time>
      </trkpt>
      <trkpt lat="48.05377" lon="-1.51719">
        <ele>40.39242</ele>
        <time>2021-12-26T08:33:32.999Z</time>
      </trkpt>
      <trkpt lat="48.05375" lon="-1.51711">
        <ele>40.21959</ele>
        <time>2021-12-26T08:33:33.999Z</time>
      </trkpt>
      <trkpt lat="48.05374" lon="-1.51704">
        <ele>40.08555</ele>
        <time>2021-12-26T08:33:34.999Z</time>
      </trkpt>
      <trkpt lat="48.05373" lon="-1.51698">
        <ele>39.94477</ele>
        <time>2021-12-26T08:33:35.999Z</time>
      </trkpt>
      <trkpt lat="48.05372" lon="-1.51693">
        <ele>39.83691</ele>
        <time>2021-12-26T08:33:36.999Z</time>
      </trkpt>
      <trkpt lat="48.0537" lon="-1.51693">
        <ele>39.67496</ele>
        <time>2021-12-26T08:33:37.999Z</time>
      </trkpt>
      <trkpt lat="48.05367" lon="-1.51695">
        <ele>39.42492</ele>
        <time>2021-12-26T08:33:38.999Z</time>
      </trkpt>
      <trkpt lat="48.05363" lon="-1.51697">
        <ele>39.08587</ele>
        <time>2021-12-26T08:33:39.999Z</time>
      </trkpt>
      <trkpt lat="48.05357" lon="-1.51698">
        <ele>38.79625</ele>
        <time>2021-12-26T08:33:40.999Z</time>
      </trkpt>
      <trkpt lat="48.05352" lon="-1.51698">
        <ele>38.67995</ele>
        <time>2021-12-26T08:33:41.999Z</time>
      </trkpt>
      <trkpt lat="48.05347" lon="-1.51698">
        <ele>38.68435</ele>
        <time>2021-12-26T08:33:42.999Z</time>
      </trkpt>
      <trkpt lat="48.05343" lon="-1.51697">
        <ele>38.7208</ele>
        <time>2021-12-26T08:33:43.999Z</time>
      </trkpt>
      <trkpt lat="48.05339" lon="-1.51697">
        <ele>38.75879</ele>
        <time>2021-12-26T08:33:44.999Z</time>
      </trkpt>
      <trkpt lat="48.05334" lon="-1.51697">
        <ele>38.77582</ele>
        <time>2021-12-26T08:33:45.999Z</time>
      </trkpt>
      <trkpt lat="48.0533" lon="-1.51697">
        <ele>38.76883</ele>
        <time>2021-12-26T08:33:46.999Z</time>
      </trkpt>
      <trkpt lat="48.05325" lon="-1.51697">
        <ele>38.76131</ele>
        <time>2021-12-26T08:33:47.999Z</time>
      </trkpt>
      <trkpt lat="48.05322" lon="-1.51697">
        <ele>38.7569</ele>
        <time>2021-12-26T08:33:48.999Z</time>
      </trkpt>
      <trkpt lat="48.05318" lon="-1.51697">
        <ele>38.74977</ele>
        <time>2021-12-26T08:33:49.999Z</time>
      </trkpt>
      <trkpt lat="48.05314" lon="-1.51697">
        <ele>38.75367</ele>
        <time>2021-12-26T08:33:50.999Z</time>
      </trkpt>
      <trkpt lat="48.05311" lon="-1.51696">
        <ele>38.74803</ele>
        <time>2021-12-26T08:33:51.999Z</time>
      </trkpt>
      <trkpt lat="48.05308" lon="-1.51697">
        <ele>38.72537</ele>
        <time>2021-12-26T08:33:52.999Z</time>
      </trkpt>
      <trkpt lat="48.05305" lon="-1.51696">
        <ele>38.71028</ele>
        <time>2021-12-26T08:33:53.999Z</time>
      </trkpt>
      <trkpt lat="48.05302" lon="-1.51696">
        <ele>38.68147</ele>
        <time>2021-12-26T08:33:54.999Z</time>
      </trkpt>
      <trkpt lat="48.05299" lon="-1.51696">
        <ele>38.6675</ele>
        <time>2021-12-26T08:33:55.999Z</time>
      </trkpt>
      <trkpt lat="48.05296" lon="-1.51696">
        <ele>38.66241</ele>
        <time>2021-12-26T08:33:56.999Z</time>
      </trkpt>
      <trkpt lat="48.05294" lon="-1.51696">
        <ele>38.6755</ele>
        <time>2021-12-26T08:33:57.999Z</time>
      </trkpt>
      <trkpt lat="48.05291" lon="-1.51696">
        <ele>38.71845</ele>
        <time>2021-12-26T08:33:58.999Z</time>
      </trkpt>
      <trkpt lat="48.05287" lon="-1.51695">
        <ele>38.83263</ele>
        <time>2021-12-26T08:33:59.999Z</time>
      </trkpt>
      <trkpt lat="48.05285" lon="-1.51693">
        <ele>38.93803</ele>
        <time>2021-12-26T08:34:00.999Z</time>
      </trkpt>
      <trkpt lat="48.05284" lon="-1.5169">
        <ele>39.00501</ele>
        <time>2021-12-26T08:34:01.999Z</time>
      </trkpt>
      <trkpt lat="48.05287" lon="-1.51688">
        <ele>38.96244</ele>
        <time>2021-12-26T08:34:03.999Z</time>
      </trkpt>
      <trkpt lat="48.05287" lon="-1.51688">
        <ele>38.96244</ele>
      </trkpt>
      <trkpt lat="48.05289" lon="-1.51688">
        <ele>38.90235</ele>
      </trkpt>
      <trkpt lat="48.05292" lon="-1.51689">
        <ele>38.84029</ele>
      </trkpt>
      <trkpt lat="48.05295" lon="-1.51689">
        <ele>38.80905</ele>
      </trkpt>
      <trkpt lat="48.05298" lon="-1.51689">
        <ele>38.80279</ele>
      </trkpt>
      <trkpt lat="48.05301" lon="-1.51689">
        <ele>38.81718</ele>
      </trkpt>
      <trkpt lat="48.05304" lon="-1.5169">
        <ele>38.83821</ele>
      </trkpt>
      <trkpt lat="48.05307" lon="-1.5169">
        <ele>38.85647</ele>
      </trkpt>
      <trkpt lat="48.0531" lon="-1.5169">
        <ele>38.86768</ele>
      </trkpt>
      <trkpt lat="48.05312" lon="-1.51691">
        <ele>38.87606</ele>
      </trkpt>
      <trkpt lat="48.05314" lon="-1.51691">
        <ele>38.86273</ele>
      </trkpt>
      <trkpt lat="48.05317" lon="-1.51691">
        <ele>38.86127</ele>
      </trkpt>
      <trkpt lat="48.05319" lon="-1.51692">
        <ele>38.85942</ele>
      </trkpt>
      <trkpt lat="48.05322" lon="-1.51691">
        <ele>38.87709</ele>
      </trkpt>
      <trkpt lat="48.05324" lon="-1.51687">
        <ele>38.99912</ele>
      </trkpt>
      <trkpt lat="48.05323" lon="-1.51682">
        <ele>39.20037</ele>
      </trkpt>
      <trkpt lat="48.0532" lon="-1.51681">
        <ele>39.29188</ele>
      </trkpt>
      <trkpt lat="48.05316" lon="-1.51679">
        <ele>39.38613</ele>
      </trkpt>
      <trkpt lat="48.05312" lon="-1.5168">
        <ele>39.33258</ele>
      </trkpt>
      <trkpt lat="48.05308" lon="-1.51679">
        <ele>39.32414</ele>
      </trkpt>
      <trkpt lat="48.05305" lon="-1.5168">
        <ele>39.27063</ele>
      </trkpt>
      <trkpt lat="48.053" lon="-1.5168">
        <ele>39.20895</ele>
      </trkpt>
      <trkpt lat="48.05296" lon="-1.51679">
        <ele>39.19886</ele>
      </trkpt>
      <trkpt lat="48.05291" lon="-1.51679">
        <ele>39.21932</ele>
      </trkpt>
      <trkpt lat="48.05288" lon="-1.5168">
        <ele>39.25198</ele>
      </trkpt>
      <trkpt lat="48.05284" lon="-1.5168">
        <ele>39.3334</ele>
      </trkpt>
      <trkpt lat="48.05281" lon="-1.51679">
        <ele>39.46239</ele>
      </trkpt>
      <trkpt lat="48.05281" lon="-1.51676">
        <ele>39.58794</ele>
      </trkpt>
      <trkpt lat="48.05283" lon="-1.51673">
        <ele>39.63941</ele>
      </trkpt>
      <trkpt lat="48.05286" lon="-1.51673">
        <ele>39.55397</ele>
      </trkpt>
      <trkpt lat="48.05289" lon="-1.51674">
        <ele>39.49928</ele>
      </trkpt>
      <trkpt lat="48.05293" lon="-1.51674">
        <ele>39.46968</ele>
      </trkpt>
      <trkpt lat="48.05296" lon="-1.51674">
        <ele>39.46022</ele>
      </trkpt>
      <trkpt lat="48.053" lon="-1.51675">
        <ele>39.46576</ele>
      </trkpt>
      <trkpt lat="48.05304" lon="-1.51675">
        <ele>39.49032</ele>
      </trkpt>
      <trkpt lat="48.05307" lon="-1.51676">
        <ele>39.51141</ele>
      </trkpt>
      <trkpt lat="48.05312" lon="-1.51676">
        <ele>39.54042</ele>
      </trkpt>
      <trkpt lat="48.05316" lon="-1.51676">
        <ele>39.53414</ele>
      </trkpt>
      <trkpt lat="48.05321" lon="-1.51676">
        <ele>39.51782</ele>
      </trkpt>
      <trkpt lat="48.05325" lon="-1.51675">
        <ele>39.48573</ele>
      </trkpt>
      <trkpt lat="48.05328" lon="-1.51675">
        <ele>39.45735</ele>
      </trkpt>
      <trkpt lat="48.05332" lon="-1.51675">
        <ele>39.41574</ele>
      </trkpt>
      <trkpt lat="48.05337" lon="-1.51675">
        <ele>39.37028</ele>
      </trkpt>
      <trkpt lat="48.0534" lon="-1.51675">
        <ele>39.32601</ele>
      </trkpt>
      <trkpt lat="48.05344" lon="-1.51676">
        <ele>39.26581</ele>
      </trkpt>
      <trkpt lat="48.05347" lon="-1.51676">
        <ele>39.20187</ele>
      </trkpt>
      <trkpt lat="48.05351" lon="-1.51677">
        <ele>39.16269</ele>
      </trkpt>
      <trkpt lat="48.05355" lon="-1.51677">
        <ele>39.17827</ele>
      </trkpt>
      <trkpt lat="48.0536" lon="-1.51675">
        <ele>39.3069</ele>
      </trkpt>
      <trkpt lat="48.05363" lon="-1.51672">
        <ele>39.49233</ele>
      </trkpt>
      <trkpt lat="48.05366" lon="-1.51667">
        <ele>39.66925</ele>
      </trkpt>
      <trkpt lat="48.05369" lon="-1.51664">
        <ele>39.77338</ele>
      </trkpt>
      <trkpt lat="48.05371" lon="-1.51661">
        <ele>39.8444</ele>
      </trkpt>
      <trkpt lat="48.05374" lon="-1.51659">
        <ele>39.92232</ele>
      </trkpt>
      <trkpt lat="48.05376" lon="-1.51657">
        <ele>39.97145</ele>
      </trkpt>
      <trkpt lat="48.0538" lon="-1.51657">
        <ele>40.0485</ele>
      </trkpt>
      <trkpt lat="48.05383" lon="-1.51657">
        <ele>40.09893</ele>
      </trkpt>
      <trkpt lat="48.05387" lon="-1.51657">
        <ele>40.11704</ele>
      </trkpt>
      <trkpt lat="48.05389" lon="-1.51658">
        <ele>40.12843</ele>
      </trkpt>
      <trkpt lat="48.05392" lon="-1.51658">
        <ele>40.13462</ele>
      </trkpt>
      <trkpt lat="48.05395" lon="-1.51659">
        <ele>40.14929</ele>
      </trkpt>
      <trkpt lat="48.05398" lon="-1.51659">
        <ele>40.17714</ele>
      </trkpt>
      <trkpt lat="48.05401" lon="-1.51659">
        <ele>40.22164</ele>
      </trkpt>
      <trkpt lat="48.05403" lon="-1.5166">
        <ele>40.30177</ele>
      </trkpt>
      <trkpt lat="48.05406" lon="-1.51662">
        <ele>40.41137</ele>
      </trkpt>
      <trkpt lat="48.05409" lon="-1.51663">
        <ele>40.53122</ele>
      </trkpt>
      <trkpt lat="48.05412" lon="-1.51667">
        <ele>40.64966</ele>
      </trkpt>
      <trkpt lat="48.05415" lon="-1.51669">
        <ele>40.75061</ele>
      </trkpt>
      <trkpt lat="48.05417" lon="-1.51672">
        <ele>40.83356</ele>
      </trkpt>
      <trkpt lat="48.05419" lon="-1.51674">
        <ele>40.88997</ele>
      </trkpt>
      <trkpt lat="48.0542" lon="-1.51677">
        <ele>40.92849</ele>
      </trkpt>
      <trkpt lat="48.05421" lon="-1.5168">
        <ele>40.96636</ele>
      </trkpt>
      <trkpt lat="48.05424" lon="-1.51683">
        <ele>41.04706</ele>
      </trkpt>
      <trkpt lat="48.05427" lon="-1.51687">
        <ele>41.19188</ele>
      </trkpt>
      <trkpt lat="48.0543" lon="-1.5169">
        <ele>41.32258</ele>
      </trkpt>
      <trkpt lat="48.05432" lon="-1.51692">
        <ele>41.42762</ele>
      </trkpt>
      <trkpt lat="48.05435" lon="-1.51695">
        <ele>41.56921</ele>
      </trkpt>
      <trkpt lat="48.05438" lon="-1.51697">
        <ele>41.70307</ele>
      </trkpt>
      <trkpt lat="48.05441" lon="-1.51698">
        <ele>41.85138</ele>
      </trkpt>
      <trkpt lat="48.05444" lon="-1.51699">
        <ele>41.975</ele>
      </trkpt>
      <trkpt lat="48.05449" lon="-1.51703">
        <ele>42.10944</ele>
      </trkpt>
      <trkpt lat="48.05452" lon="-1.51705">
        <ele>42.207</ele>
      </trkpt>
      <trkpt lat="48.05454" lon="-1.51711">
        <ele>42.18914</ele>
      </trkpt>
      <trkpt lat="48.05454" lon="-1.51716">
        <ele>42.15735</ele>
      </trkpt>
      <trkpt lat="48.05456" lon="-1.51722">
        <ele>42.21243</ele>
      </trkpt>
      <trkpt lat="48.05458" lon="-1.51724">
        <ele>42.31892</ele>
      </trkpt>
      <trkpt lat="48.0546" lon="-1.51719">
        <ele>42.43378</ele>
      </trkpt>
      <trkpt lat="48.05463" lon="-1.51716">
        <ele>42.57573</ele>
      </trkpt>
      <trkpt lat="48.05467" lon="-1.51719">
        <ele>42.77157</ele>
      </trkpt>
      <trkpt lat="48.0547" lon="-1.51722">
        <ele>42.99026</ele>
      </trkpt>
      <trkpt lat="48.05473" lon="-1.51724">
        <ele>43.19945</ele>
      </trkpt>
      <trkpt lat="48.05475" lon="-1.51723">
        <ele>43.3931</ele>
      </trkpt>
      <trkpt lat="48.05477" lon="-1.51721">
        <ele>43.56092</ele>
      </trkpt>
      <trkpt lat="48.05479" lon="-1.51721">
        <ele>43.71401</ele>
      </trkpt>
      <trkpt lat="48.05484" lon="-1.51722">
        <ele>44.07108</ele>
      </trkpt>
      <trkpt lat="48.05486" lon="-1.51724">
        <ele>44.19842</ele>
      </trkpt>
      <trkpt lat="48.05488" lon="-1.51725">
        <ele>44.28859</ele>
      </trkpt>
      <trkpt lat="48.05491" lon="-1.51724">
        <ele>44.28283</ele>
      </trkpt>
      <trkpt lat="48.05497" lon="-1.51725">
        <ele>43.84475</ele>
      </trkpt>
      <trkpt lat="48.05497" lon="-1.51728">
        <ele>43.76672</ele>
      </trkpt>
      <trkpt lat="48.055" lon="-1.51731">
        <ele>43.36822</ele>
      </trkpt>
      <trkpt lat="48.05502" lon="-1.51734">
        <ele>42.88797</ele>
      </trkpt>
      <trkpt lat="48.05505" lon="-1.51738">
        <ele>42.40282</ele>
      </trkpt>
      <trkpt lat="48.05507" lon="-1.51742">
        <ele>42.05144</ele>
      </trkpt>
      <trkpt lat="48.05509" lon="-1.51746">
        <ele>41.77495</ele>
      </trkpt>
      <trkpt lat="48.05511" lon="-1.5175">
        <ele>41.61108</ele>
      </trkpt>
      <trkpt lat="48.05513" lon="-1.51753">
        <ele>41.65977</ele>
      </trkpt>
      <trkpt lat="48.05516" lon="-1.51757">
        <ele>41.86196</ele>
      </trkpt>
      <trkpt lat="48.05519" lon="-1.5176">
        <ele>42.00434</ele>
      </trkpt>
      <trkpt lat="48.05522" lon="-1.51762">
        <ele>42.19196</ele>
      </trkpt>
      <trkpt lat="48.05525" lon="-1.51763">
        <ele>42.27826</ele>
      </trkpt>
      <trkpt lat="48.05529" lon="-1.51762">
        <ele>42.15929</ele>
      </trkpt>
      <trkpt lat="48.05533" lon="-1.51762">
        <ele>42.14495</ele>
      </trkpt>
      <trkpt lat="48.05536" lon="-1.51763">
        <ele>42.19228</ele>
      </trkpt>
      <trkpt lat="48.05542" lon="-1.51764">
        <ele>42.29657</ele>
      </trkpt>
      <trkpt lat="48.05546" lon="-1.51764">
        <ele>42.32836</ele>
      </trkpt>
      <trkpt lat="48.0555" lon="-1.51764">
        <ele>42.37306</ele>
      </trkpt>
      <trkpt lat="48.05554" lon="-1.51764">
        <ele>42.39839</ele>
      </trkpt>
      <trkpt lat="48.05558" lon="-1.51763">
        <ele>42.42009</ele>
      </trkpt>
      <trkpt lat="48.05563" lon="-1.51762">
        <ele>42.37828</ele>
      </trkpt>
      <trkpt lat="48.05566" lon="-1.5176">
        <ele>42.27086</ele>
      </trkpt>
      <trkpt lat="48.05569" lon="-1.51758">
        <ele>42.13765</ele>
      </trkpt>
      <trkpt lat="48.05572" lon="-1.51756">
        <ele>42.0064</ele>
      </trkpt>
      <trkpt lat="48.05576" lon="-1.51754">
        <ele>41.91752</ele>
      </trkpt>
      <trkpt lat="48.0558" lon="-1.51754">
        <ele>41.89053</ele>
      </trkpt>
      <trkpt lat="48.05583" lon="-1.51755">
        <ele>41.9274</ele>
      </trkpt>
      <trkpt lat="48.05587" lon="-1.51756">
        <ele>41.99336</ele>
      </trkpt>
      <trkpt lat="48.0559" lon="-1.51756">
        <ele>42.046</ele>
      </trkpt>
      <trkpt lat="48.05594" lon="-1.51758">
        <ele>42.13689</ele>
      </trkpt>
      <trkpt lat="48.05598" lon="-1.51758">
        <ele>42.16235</ele>
      </trkpt>
      <trkpt lat="48.05602" lon="-1.51756">
        <ele>41.92366</ele>
      </trkpt>
      <trkpt lat="48.05606" lon="-1.51753">
        <ele>41.72146</ele>
      </trkpt>
      <trkpt lat="48.05611" lon="-1.51751">
        <ele>41.59116</ele>
      </trkpt>
      <trkpt lat="48.05615" lon="-1.51747">
        <ele>41.60565</ele>
      </trkpt>
      <trkpt lat="48.05619" lon="-1.51743">
        <ele>41.83746</ele>
      </trkpt>
      <trkpt lat="48.05621" lon="-1.51739">
        <ele>42.28819</ele>
      </trkpt>
      <trkpt lat="48.05625" lon="-1.51736">
        <ele>42.8538</ele>
      </trkpt>
      <trkpt lat="48.05628" lon="-1.51736">
        <ele>43.13096</ele>
      </trkpt>
      <trkpt lat="48.05632" lon="-1.51737">
        <ele>43.4781</ele>
      </trkpt>
      <trkpt lat="48.05637" lon="-1.5174">
        <ele>43.60939</ele>
      </trkpt>
      <trkpt lat="48.05642" lon="-1.51743">
        <ele>43.7545</ele>
      </trkpt>
      <trkpt lat="48.05646" lon="-1.51746">
        <ele>43.77402</ele>
      </trkpt>
      <trkpt lat="48.0565" lon="-1.51749">
        <ele>43.71905</ele>
      </trkpt>
      <trkpt lat="48.05653" lon="-1.51753">
        <ele>43.7058</ele>
      </trkpt>
      <trkpt lat="48.05656" lon="-1.51757">
        <ele>43.77184</ele>
      </trkpt>
      <trkpt lat="48.05659" lon="-1.51762">
        <ele>43.84037</ele>
      </trkpt>
      <trkpt lat="48.05662" lon="-1.51766">
        <ele>43.93792</ele>
      </trkpt>
      <trkpt lat="48.05665" lon="-1.5177">
        <ele>44.02905</ele>
      </trkpt>
      <trkpt lat="48.05668" lon="-1.51774">
        <ele>44.00646</ele>
      </trkpt>
      <trkpt lat="48.0567" lon="-1.51778">
        <ele>43.91715</ele>
      </trkpt>
      <trkpt lat="48.05674" lon="-1.51782">
        <ele>43.84367</ele>
      </trkpt>
      <trkpt lat="48.05677" lon="-1.51786">
        <ele>43.82113</ele>
      </trkpt>
      <trkpt lat="48.0568" lon="-1.5179">
        <ele>43.79112</ele>
      </trkpt>
      <trkpt lat="48.05683" lon="-1.51795">
        <ele>43.77963</ele>
      </trkpt>
      <trkpt lat="48.05685" lon="-1.51799">
        <ele>43.87624</ele>
      </trkpt>
      <trkpt lat="48.05689" lon="-1.51805">
        <ele>43.93129</ele>
      </trkpt>
      <trkpt lat="48.05691" lon="-1.51809">
        <ele>44.0109</ele>
      </trkpt>
      <trkpt lat="48.05692" lon="-1.51815">
        <ele>43.91815</ele>
      </trkpt>
      <trkpt lat="48.05693" lon="-1.51822">
        <ele>43.64147</ele>
      </trkpt>
      <trkpt lat="48.05694" lon="-1.51829">
        <ele>43.4036</ele>
      </trkpt>
      <trkpt lat="48.05695" lon="-1.51836">
        <ele>43.18426</ele>
      </trkpt>
      <trkpt lat="48.05696" lon="-1.51844">
        <ele>42.96217</ele>
      </trkpt>
      <trkpt lat="48.05697" lon="-1.51851">
        <ele>42.79903</ele>
      </trkpt>
      <trkpt lat="48.05698" lon="-1.51859">
        <ele>42.62841</ele>
      </trkpt>
      <trkpt lat="48.05699" lon="-1.51866">
        <ele>42.57797</ele>
      </trkpt>
      <trkpt lat="48.057" lon="-1.51873">
        <ele>42.55494</ele>
      </trkpt>
      <trkpt lat="48.05702" lon="-1.51879">
        <ele>42.60569</ele>
      </trkpt>
      <trkpt lat="48.05704" lon="-1.51885">
        <ele>42.69945</ele>
      </trkpt>
      <trkpt lat="48.05707" lon="-1.5189">
        <ele>42.86424</ele>
      </trkpt>
      <trkpt lat="48.05709" lon="-1.51893">
        <ele>43.03158</ele>
      </trkpt>
      <trkpt lat="48.05712" lon="-1.51896">
        <ele>43.22312</ele>
      </trkpt>
      <trkpt lat="48.05715" lon="-1.519">
        <ele>43.52897</ele>
      </trkpt>
      <trkpt lat="48.05719" lon="-1.51904">
        <ele>43.86192</ele>
      </trkpt>
      <trkpt lat="48.05723" lon="-1.51909">
        <ele>44.14188</ele>
      </trkpt>
      <trkpt lat="48.05724" lon="-1.51916">
        <ele>44.04113</ele>
      </trkpt>
      <trkpt lat="48.05726" lon="-1.51923">
        <ele>43.94753</ele>
      </trkpt>
      <trkpt lat="48.05727" lon="-1.5193">
        <ele>43.8808</ele>
      </trkpt>
      <trkpt lat="48.0573" lon="-1.51936">
        <ele>43.93535</ele>
      </trkpt>
      <trkpt lat="48.05734" lon="-1.51942">
        <ele>44.02438</ele>
      </trkpt>
      <trkpt lat="48.05738" lon="-1.51945">
        <ele>44.3764</ele>
      </trkpt>
      <trkpt lat="48.05741" lon="-1.51948">
        <ele>44.71223</ele>
      </trkpt>
      <trkpt lat="48.05745" lon="-1.51948">
        <ele>45.47675</ele>
      </trkpt>
      <trkpt lat="48.05748" lon="-1.51947">
        <ele>46.23402</ele>
      </trkpt>
      <trkpt lat="48.05751" lon="-1.51948">
        <ele>46.8074</ele>
      </trkpt>
      <trkpt lat="48.05755" lon="-1.51951">
        <ele>46.93048</ele>
      </trkpt>
      <trkpt lat="48.05758" lon="-1.51956">
        <ele>46.73905</ele>
      </trkpt>
      <trkpt lat="48.0576" lon="-1.51961">
        <ele>46.33796</ele>
      </trkpt>
      <trkpt lat="48.05761" lon="-1.51964">
        <ele>46.07839</ele>
      </trkpt>
      <trkpt lat="48.05763" lon="-1.51967">
        <ele>45.95168</ele>
      </trkpt>
      <trkpt lat="48.05766" lon="-1.5197">
        <ele>46.05783</ele>
      </trkpt>
      <trkpt lat="48.0577" lon="-1.51974">
        <ele>46.11273</ele>
      </trkpt>
      <trkpt lat="48.05773" lon="-1.51976">
        <ele>46.14377</ele>
      </trkpt>
      <trkpt lat="48.05777" lon="-1.51978">
        <ele>46.41755</ele>
      </trkpt>
      <trkpt lat="48.05781" lon="-1.51978">
        <ele>46.77884</ele>
      </trkpt>
      <trkpt lat="48.05784" lon="-1.51978">
        <ele>47.13683</ele>
      </trkpt>
      <trkpt lat="48.05787" lon="-1.51979">
        <ele>47.41423</ele>
      </trkpt>
      <trkpt lat="48.05791" lon="-1.51979">
        <ele>47.83655</ele>
      </trkpt>
      <trkpt lat="48.05795" lon="-1.5198">
        <ele>48.13196</ele>
      </trkpt>
      <trkpt lat="48.058" lon="-1.51981">
        <ele>48.30738</ele>
      </trkpt>
      <trkpt lat="48.05804" lon="-1.51982">
        <ele>48.26238</ele>
      </trkpt>
      <trkpt lat="48.05808" lon="-1.51983">
        <ele>48.23598</ele>
      </trkpt>
      <trkpt lat="48.05813" lon="-1.51984">
        <ele>48.13481</ele>
      </trkpt>
      <trkpt lat="48.05818" lon="-1.51985">
        <ele>48.02568</ele>
      </trkpt>
      <trkpt lat="48.05821" lon="-1.51986">
        <ele>47.92929</ele>
      </trkpt>
      <trkpt lat="48.05825" lon="-1.51986">
        <ele>48.11011</ele>
      </trkpt>
      <trkpt lat="48.05831" lon="-1.51986">
        <ele>48.22675</ele>
      </trkpt>
      <trkpt lat="48.05835" lon="-1.51985">
        <ele>48.60158</ele>
      </trkpt>
      <trkpt lat="48.05838" lon="-1.51984">
        <ele>48.83254</ele>
      </trkpt>
      <trkpt lat="48.05841" lon="-1.51984">
        <ele>49.14597</ele>
      </trkpt>
      <trkpt lat="48.05847" lon="-1.51984">
        <ele>49.56398</ele>
      </trkpt>
      <trkpt lat="48.05852" lon="-1.51985">
        <ele>49.92729</ele>
      </trkpt>
      <trkpt lat="48.05856" lon="-1.51986">
        <ele>50.36175</ele>
      </trkpt>
      <trkpt lat="48.0586" lon="-1.51987">
        <ele>50.58408</ele>
      </trkpt>
      <trkpt lat="48.05864" lon="-1.51988">
        <ele>50.60984</ele>
      </trkpt>
      <trkpt lat="48.05868" lon="-1.51989">
        <ele>50.51678</ele>
      </trkpt>
      <trkpt lat="48.05872" lon="-1.5199">
        <ele>50.35196</ele>
      </trkpt>
      <trkpt lat="48.05876" lon="-1.51991">
        <ele>49.81918</ele>
      </trkpt>
      <trkpt lat="48.0588" lon="-1.51993">
        <ele>49.4778</ele>
      </trkpt>
      <trkpt lat="48.05883" lon="-1.51994">
        <ele>49.16949</ele>
      </trkpt>
      <trkpt lat="48.05886" lon="-1.51996">
        <ele>48.92595</ele>
      </trkpt>
      <trkpt lat="48.05888" lon="-1.51997">
        <ele>48.61174</ele>
      </trkpt>
      <trkpt lat="48.05891" lon="-1.51999">
        <ele>48.39273</ele>
      </trkpt>
      <trkpt lat="48.05893" lon="-1.52005">
        <ele>47.27606</ele>
      </trkpt>
      <trkpt lat="48.05895" lon="-1.5201">
        <ele>46.4541</ele>
      </trkpt>
      <trkpt lat="48.05897" lon="-1.52017">
        <ele>45.78475</ele>
      </trkpt>
      <trkpt lat="48.05901" lon="-1.52023">
        <ele>45.68676</ele>
      </trkpt>
      <trkpt lat="48.05905" lon="-1.52028">
        <ele>45.79608</ele>
      </trkpt>
      <trkpt lat="48.05909" lon="-1.52033">
        <ele>46.03982</ele>
      </trkpt>
      <trkpt lat="48.05912" lon="-1.52035">
        <ele>46.29661</ele>
      </trkpt>
      <trkpt lat="48.05915" lon="-1.52035">
        <ele>46.5193</ele>
      </trkpt>
      <trkpt lat="48.05918" lon="-1.52034">
        <ele>46.77757</ele>
      </trkpt>
      <trkpt lat="48.05918" lon="-1.52034">
        <ele>46.77757</ele>
        <time>2021-12-26T08:38:07.000Z</time>
      </trkpt>
      <trkpt lat="48.05922" lon="-1.52032">
        <ele>47.11564</ele>
        <time>2021-12-26T08:38:08.000Z</time>
      </trkpt>
      <trkpt lat="48.05925" lon="-1.5203">
        <ele>47.48113</ele>
        <time>2021-12-26T08:38:09.000Z</time>
      </trkpt>
      <trkpt lat="48.05929" lon="-1.52029">
        <ele>47.88529</ele>
        <time>2021-12-26T08:38:10.000Z</time>
      </trkpt>
      <trkpt lat="48.05933" lon="-1.52027">
        <ele>48.2349</ele>
        <time>2021-12-26T08:38:11.000Z</time>
      </trkpt>
      <trkpt lat="48.05937" lon="-1.52028">
        <ele>48.62379</ele>
        <time>2021-12-26T08:38:12.000Z</time>
      </trkpt>
      <trkpt lat="48.05941" lon="-1.52028">
        <ele>48.97918</ele>
        <time>2021-12-26T08:38:13.000Z</time>
      </trkpt>
      <trkpt lat="48.05945" lon="-1.52029">
        <ele>49.343</ele>
        <time>2021-12-26T08:38:14.000Z</time>
      </trkpt>
      <trkpt lat="48.05951" lon="-1.52028">
        <ele>49.64685</ele>
        <time>2021-12-26T08:38:15.000Z</time>
      </trkpt>
      <trkpt lat="48.05956" lon="-1.52029">
        <ele>49.72606</ele>
        <time>2021-12-26T08:38:16.000Z</time>
      </trkpt>
      <trkpt lat="48.0596" lon="-1.52028">
        <ele>49.65353</ele>
        <time>2021-12-26T08:38:17.000Z</time>
      </trkpt>
      <trkpt lat="48.05966" lon="-1.52026">
        <ele>49.43237</ele>
        <time>2021-12-26T08:38:18.000Z</time>
      </trkpt>
      <trkpt lat="48.05971" lon="-1.52024">
        <ele>49.24255</ele>
        <time>2021-12-26T08:38:19.000Z</time>
      </trkpt>
      <trkpt lat="48.05975" lon="-1.5202">
        <ele>49.22871</ele>
        <time>2021-12-26T08:38:20.000Z</time>
      </trkpt>
      <trkpt lat="48.05978" lon="-1.52018">
        <ele>49.31576</ele>
        <time>2021-12-26T08:38:21.000Z</time>
      </trkpt>
      <trkpt lat="48.05981" lon="-1.52016">
        <ele>49.36946</ele>
        <time>2021-12-26T08:38:22.000Z</time>
      </trkpt>
      <trkpt lat="48.05984" lon="-1.52015">
        <ele>49.36374</ele>
        <time>2021-12-26T08:38:23.000Z</time>
      </trkpt>
      <trkpt lat="48.05988" lon="-1.52013">
        <ele>49.35886</ele>
        <time>2021-12-26T08:38:24.000Z</time>
      </trkpt>
      <trkpt lat="48.05991" lon="-1.52013">
        <ele>49.22832</ele>
        <time>2021-12-26T08:38:25.000Z</time>
      </trkpt>
      <trkpt lat="48.05994" lon="-1.52011">
        <ele>49.30974</ele>
        <time>2021-12-26T08:38:26.000Z</time>
      </trkpt>
      <trkpt lat="48.05998" lon="-1.5201">
        <ele>49.43988</ele>
        <time>2021-12-26T08:38:27.000Z</time>
      </trkpt>
      <trkpt lat="48.06001" lon="-1.5201">
        <ele>49.34965</ele>
        <time>2021-12-26T08:38:28.000Z</time>
      </trkpt>
      <trkpt lat="48.06005" lon="-1.52009">
        <ele>49.309</ele>
        <time>2021-12-26T08:38:29.000Z</time>
      </trkpt>
      <trkpt lat="48.06008" lon="-1.52009">
        <ele>49.27606</ele>
        <time>2021-12-26T08:38:30.000Z</time>
      </trkpt>
      <trkpt lat="48.06011" lon="-1.52008">
        <ele>49.45142</ele>
        <time>2021-12-26T08:38:31.000Z</time>
      </trkpt>
      <trkpt lat="48.06015" lon="-1.52006">
        <ele>49.81337</ele>
        <time>2021-12-26T08:38:32.000Z</time>
      </trkpt>
      <trkpt lat="48.06019" lon="-1.52004">
        <ele>50.01302</ele>
        <time>2021-12-26T08:38:33.000Z</time>
      </trkpt>
      <trkpt lat="48.06023" lon="-1.52002">
        <ele>50.0002</ele>
        <time>2021-12-26T08:38:34.000Z</time>
      </trkpt>
      <trkpt lat="48.06028" lon="-1.52002">
        <ele>49.62817</ele>
        <time>2021-12-26T08:38:35.000Z</time>
      </trkpt>
      <trkpt lat="48.06032" lon="-1.52002">
        <ele>49.30965</ele>
        <time>2021-12-26T08:38:36.000Z</time>
      </trkpt>
      <trkpt lat="48.06036" lon="-1.52002">
        <ele>48.83364</ele>
        <time>2021-12-26T08:38:37.000Z</time>
      </trkpt>
      <trkpt lat="48.06041" lon="-1.52002">
        <ele>48.49148</ele>
        <time>2021-12-26T08:38:38.000Z</time>
      </trkpt>
      <trkpt lat="48.06046" lon="-1.52001">
        <ele>48.38592</ele>
        <time>2021-12-26T08:38:39.000Z</time>
      </trkpt>
      <trkpt lat="48.06051" lon="-1.51999">
        <ele>48.56857</ele>
        <time>2021-12-26T08:38:40.000Z</time>
      </trkpt>
      <trkpt lat="48.06055" lon="-1.51996">
        <ele>49.08584</ele>
        <time>2021-12-26T08:38:41.000Z</time>
      </trkpt>
      <trkpt lat="48.06056" lon="-1.51991">
        <ele>49.79733</ele>
        <time>2021-12-26T08:38:42.000Z</time>
      </trkpt>
      <trkpt lat="48.06057" lon="-1.51987">
        <ele>50.60189</ele>
        <time>2021-12-26T08:38:43.000Z</time>
      </trkpt>
      <trkpt lat="48.06056" lon="-1.51982">
        <ele>51.74342</ele>
        <time>2021-12-26T08:38:44.000Z</time>
      </trkpt>
      <trkpt lat="48.06056" lon="-1.51979">
        <ele>52.48392</ele>
        <time>2021-12-26T08:38:45.000Z</time>
      </trkpt>
      <trkpt lat="48.06058" lon="-1.51976">
        <ele>53.33649</ele>
        <time>2021-12-26T08:38:47.000Z</time>
      </trkpt>
      <trkpt lat="48.0606" lon="-1.51977">
        <ele>53.18478</ele>
        <time>2021-12-26T08:38:48.000Z</time>
      </trkpt>
      <trkpt lat="48.06063" lon="-1.51978">
        <ele>52.88772</ele>
        <time>2021-12-26T08:38:49.000Z</time>
      </trkpt>
      <trkpt lat="48.06064" lon="-1.51979">
        <ele>52.511</ele>
        <time>2021-12-26T08:38:50.000Z</time>
      </trkpt>
      <trkpt lat="48.06067" lon="-1.5198">
        <ele>52.3107</ele>
        <time>2021-12-26T08:38:51.000Z</time>
      </trkpt>
      <trkpt lat="48.06069" lon="-1.51981">
        <ele>52.02906</ele>
        <time>2021-12-26T08:38:52.000Z</time>
      </trkpt>
      <trkpt lat="48.06072" lon="-1.51983">
        <ele>51.52241</ele>
        <time>2021-12-26T08:38:53.000Z</time>
      </trkpt>
      <trkpt lat="48.06076" lon="-1.51986">
        <ele>50.77116</ele>
        <time>2021-12-26T08:38:54.000Z</time>
      </trkpt>
      <trkpt lat="48.0608" lon="-1.51988">
        <ele>50.12662</ele>
        <time>2021-12-26T08:38:55.000Z</time>
      </trkpt>
      <trkpt lat="48.06084" lon="-1.5199">
        <ele>49.7809</ele>
        <time>2021-12-26T08:38:56.000Z</time>
      </trkpt>
      <trkpt lat="48.06089" lon="-1.51992">
        <ele>49.56877</ele>
        <time>2021-12-26T08:38:57.000Z</time>
      </trkpt>
      <trkpt lat="48.06094" lon="-1.51995">
        <ele>49.73869</ele>
        <time>2021-12-26T08:38:58.000Z</time>
      </trkpt>
      <trkpt lat="48.06098" lon="-1.51999">
        <ele>50.14343</ele>
        <time>2021-12-26T08:38:59.000Z</time>
      </trkpt>
      <trkpt lat="48.06102" lon="-1.52004">
        <ele>50.39921</ele>
        <time>2021-12-26T08:39:00.000Z</time>
      </trkpt>
      <trkpt lat="48.06106" lon="-1.52008">
        <ele>50.36544</ele>
        <time>2021-12-26T08:39:01.000Z</time>
      </trkpt>
      <trkpt lat="48.06108" lon="-1.52013">
        <ele>50.01003</ele>
        <time>2021-12-26T08:39:02.000Z</time>
      </trkpt>
      <trkpt lat="48.0611" lon="-1.52018">
        <ele>49.53363</ele>
        <time>2021-12-26T08:39:03.000Z</time>
      </trkpt>
      <trkpt lat="48.06113" lon="-1.52022">
        <ele>49.153</ele>
        <time>2021-12-26T08:39:04.000Z</time>
      </trkpt>
      <trkpt lat="48.06116" lon="-1.52029">
        <ele>48.61001</ele>
        <time>2021-12-26T08:39:05.000Z</time>
      </trkpt>
      <trkpt lat="48.06119" lon="-1.52035">
        <ele>48.54371</ele>
        <time>2021-12-26T08:39:06.000Z</time>
      </trkpt>
      <trkpt lat="48.06123" lon="-1.52042">
        <ele>48.65426</ele>
        <time>2021-12-26T08:39:07.000Z</time>
      </trkpt>
      <trkpt lat="48.06127" lon="-1.52045">
        <ele>48.90122</ele>
        <time>2021-12-26T08:39:08.000Z</time>
      </trkpt>
      <trkpt lat="48.06131" lon="-1.52049">
        <ele>49.09748</ele>
        <time>2021-12-26T08:39:09.000Z</time>
      </trkpt>
      <trkpt lat="48.06135" lon="-1.52052">
        <ele>49.22253</ele>
        <time>2021-12-26T08:39:10.000Z</time>
      </trkpt>
      <trkpt lat="48.0614" lon="-1.52054">
        <ele>49.31689</ele>
        <time>2021-12-26T08:39:11.000Z</time>
      </trkpt>
      <trkpt lat="48.06144" lon="-1.52055">
        <ele>49.39433</ele>
        <time>2021-12-26T08:39:12.000Z</time>
      </trkpt>
      <trkpt lat="48.06148" lon="-1.52056">
        <ele>49.49616</ele>
        <time>2021-12-26T08:39:13.000Z</time>
      </trkpt>
      <trkpt lat="48.06152" lon="-1.52056">
        <ele>49.57287</ele>
        <time>2021-12-26T08:39:14.000Z</time>
      </trkpt>
      <trkpt lat="48.06156" lon="-1.52058">
        <ele>49.54165</ele>
        <time>2021-12-26T08:39:15.000Z</time>
      </trkpt>
      <trkpt lat="48.0616" lon="-1.5206">
        <ele>49.4514</ele>
        <time>2021-12-26T08:39:16.000Z</time>
      </trkpt>
      <trkpt lat="48.06163" lon="-1.52063">
        <ele>49.31104</ele>
        <time>2021-12-26T08:39:17.000Z</time>
      </trkpt>
      <trkpt lat="48.06166" lon="-1.52067">
        <ele>49.26561</ele>
        <time>2021-12-26T08:39:18.000Z</time>
      </trkpt>
      <trkpt lat="48.06169" lon="-1.52071">
        <ele>49.32707</ele>
        <time>2021-12-26T08:39:19.000Z</time>
      </trkpt>
      <trkpt lat="48.06172" lon="-1.52075">
        <ele>49.51179</ele>
        <time>2021-12-26T08:39:20.000Z</time>
      </trkpt>
      <trkpt lat="48.06176" lon="-1.52077">
        <ele>49.65018</ele>
        <time>2021-12-26T08:39:21.000Z</time>
      </trkpt>
      <trkpt lat="48.0618" lon="-1.52077">
        <ele>49.69131</ele>
        <time>2021-12-26T08:39:22.000Z</time>
      </trkpt>
      <trkpt lat="48.06184" lon="-1.52077">
        <ele>49.66697</ele>
        <time>2021-12-26T08:39:23.000Z</time>
      </trkpt>
      <trkpt lat="48.06187" lon="-1.52077">
        <ele>49.6449</ele>
        <time>2021-12-26T08:39:24.000Z</time>
      </trkpt>
      <trkpt lat="48.06191" lon="-1.52077">
        <ele>49.58937</ele>
        <time>2021-12-26T08:39:25.000Z</time>
      </trkpt>
      <trkpt lat="48.06194" lon="-1.52077">
        <ele>49.567</ele>
        <time>2021-12-26T08:39:26.000Z</time>
      </trkpt>
      <trkpt lat="48.06197" lon="-1.52077">
        <ele>49.57996</ele>
        <time>2021-12-26T08:39:27.000Z</time>
      </trkpt>
      <trkpt lat="48.06201" lon="-1.52078">
        <ele>49.7031</ele>
        <time>2021-12-26T08:39:28.000Z</time>
      </trkpt>
      <trkpt lat="48.06204" lon="-1.52079">
        <ele>49.78106</ele>
        <time>2021-12-26T08:39:29.000Z</time>
      </trkpt>
      <trkpt lat="48.06207" lon="-1.52077">
        <ele>49.6542</ele>
        <time>2021-12-26T08:39:30.000Z</time>
      </trkpt>
      <trkpt lat="48.0621" lon="-1.52075">
        <ele>49.56134</ele>
        <time>2021-12-26T08:39:31.000Z</time>
      </trkpt>
      <trkpt lat="48.06213" lon="-1.52071">
        <ele>49.51294</ele>
        <time>2021-12-26T08:39:32.000Z</time>
      </trkpt>
      <trkpt lat="48.06216" lon="-1.52069">
        <ele>49.54096</ele>
        <time>2021-12-26T08:39:33.000Z</time>
      </trkpt>
      <trkpt lat="48.06219" lon="-1.52067">
        <ele>49.61962</ele>
        <time>2021-12-26T08:39:34.000Z</time>
      </trkpt>
      <trkpt lat="48.06223" lon="-1.52065">
        <ele>49.85153</ele>
        <time>2021-12-26T08:39:35.000Z</time>
      </trkpt>
      <trkpt lat="48.06226" lon="-1.52063">
        <ele>50.20086</ele>
        <time>2021-12-26T08:39:36.000Z</time>
      </trkpt>
      <trkpt lat="48.06228" lon="-1.52059">
        <ele>50.40667</ele>
        <time>2021-12-26T08:39:37.000Z</time>
      </trkpt>
      <trkpt lat="48.06229" lon="-1.52056">
        <ele>50.60339</ele>
        <time>2021-12-26T08:39:38.000Z</time>
      </trkpt>
      <trkpt lat="48.06229" lon="-1.52052">
        <ele>50.68173</ele>
        <time>2021-12-26T08:39:39.000Z</time>
      </trkpt>
      <trkpt lat="48.06227" lon="-1.52049">
        <ele>50.57725</ele>
        <time>2021-12-26T08:39:40.000Z</time>
      </trkpt>
      <trkpt lat="48.06224" lon="-1.52047">
        <ele>50.4689</ele>
        <time>2021-12-26T08:39:41.000Z</time>
      </trkpt>
      <trkpt lat="48.06222" lon="-1.52046">
        <ele>50.46451</ele>
        <time>2021-12-26T08:39:42.000Z</time>
      </trkpt>
      <trkpt lat="48.06219" lon="-1.52045">
        <ele>50.51445</ele>
        <time>2021-12-26T08:39:43.000Z</time>
      </trkpt>
      <trkpt lat="48.06217" lon="-1.52043">
        <ele>50.68236</ele>
        <time>2021-12-26T08:39:44.000Z</time>
      </trkpt>
      <trkpt lat="48.06219" lon="-1.52041">
        <ele>50.86565</ele>
        <time>2021-12-26T08:39:47.000Z</time>
      </trkpt>
      <trkpt lat="48.06223" lon="-1.52041">
        <ele>50.92012</ele>
        <time>2021-12-26T08:39:48.000Z</time>
      </trkpt>
      <trkpt lat="48.06226" lon="-1.52041">
        <ele>51.12447</ele>
        <time>2021-12-26T08:39:49.000Z</time>
      </trkpt>
      <trkpt lat="48.0623" lon="-1.5204">
        <ele>51.41391</ele>
        <time>2021-12-26T08:39:50.000Z</time>
      </trkpt>
      <trkpt lat="48.06233" lon="-1.5204">
        <ele>51.75482</ele>
        <time>2021-12-26T08:39:51.000Z</time>
      </trkpt>
      <trkpt lat="48.06236" lon="-1.5204">
        <ele>52.01009</ele>
        <time>2021-12-26T08:39:52.000Z</time>
      </trkpt>
      <trkpt lat="48.06239" lon="-1.5204">
        <ele>52.25923</ele>
        <time>2021-12-26T08:39:53.000Z</time>
      </trkpt>
      <trkpt lat="48.06241" lon="-1.5204">
        <ele>52.40275</ele>
        <time>2021-12-26T08:39:54.000Z</time>
      </trkpt>
      <trkpt lat="48.06243" lon="-1.5204">
        <ele>52.43312</ele>
        <time>2021-12-26T08:39:55.000Z</time>
      </trkpt>
      <trkpt lat="48.06246" lon="-1.52038">
        <ele>52.39771</ele>
        <time>2021-12-26T08:39:56.000Z</time>
      </trkpt>
      <trkpt lat="48.06248" lon="-1.52037">
        <ele>52.21933</ele>
        <time>2021-12-26T08:39:57.000Z</time>
      </trkpt>
      <trkpt lat="48.0625" lon="-1.52035">
        <ele>52.01736</ele>
        <time>2021-12-26T08:39:58.000Z</time>
      </trkpt>
      <trkpt lat="48.06253" lon="-1.52031">
        <ele>51.76989</ele>
        <time>2021-12-26T08:40:00.000Z</time>
      </trkpt>
      <trkpt lat="48.06256" lon="-1.52029">
        <ele>51.45199</ele>
        <time>2021-12-26T08:40:01.000Z</time>
      </trkpt>
      <trkpt lat="48.06259" lon="-1.52024">
        <ele>51.42002</ele>
        <time>2021-12-26T08:40:02.000Z</time>
      </trkpt>
      <trkpt lat="48.06262" lon="-1.52019">
        <ele>51.67655</ele>
        <time>2021-12-26T08:40:03.000Z</time>
      </trkpt>
      <trkpt lat="48.06266" lon="-1.52014">
        <ele>51.92632</ele>
        <time>2021-12-26T08:40:04.000Z</time>
      </trkpt>
      <trkpt lat="48.0627" lon="-1.5201">
        <ele>52.00536</ele>
        <time>2021-12-26T08:40:05.000Z</time>
      </trkpt>
      <trkpt lat="48.06274" lon="-1.52006">
        <ele>51.74688</ele>
        <time>2021-12-26T08:40:06.000Z</time>
      </trkpt>
      <trkpt lat="48.06278" lon="-1.52003">
        <ele>51.29798</ele>
        <time>2021-12-26T08:40:07.000Z</time>
      </trkpt>
      <trkpt lat="48.06282" lon="-1.52">
        <ele>50.78291</ele>
        <time>2021-12-26T08:40:08.000Z</time>
      </trkpt>
      <trkpt lat="48.06286" lon="-1.51997">
        <ele>50.24623</ele>
        <time>2021-12-26T08:40:09.000Z</time>
      </trkpt>
      <trkpt lat="48.0629" lon="-1.51994">
        <ele>49.75365</ele>
        <time>2021-12-26T08:40:10.000Z</time>
      </trkpt>
      <trkpt lat="48.06295" lon="-1.51992">
        <ele>49.53739</ele>
        <time>2021-12-26T08:40:11.000Z</time>
      </trkpt>
      <trkpt lat="48.06301" lon="-1.5199">
        <ele>49.50085</ele>
        <time>2021-12-26T08:40:12.000Z</time>
      </trkpt>
      <trkpt lat="48.06306" lon="-1.51989">
        <ele>49.59886</ele>
        <time>2021-12-26T08:40:13.000Z</time>
      </trkpt>
      <trkpt lat="48.06312" lon="-1.51988">
        <ele>49.75916</ele>
        <time>2021-12-26T08:40:14.000Z</time>
      </trkpt>
      <trkpt lat="48.06316" lon="-1.51987">
        <ele>50.11642</ele>
        <time>2021-12-26T08:40:15.000Z</time>
      </trkpt>
      <trkpt lat="48.06321" lon="-1.51987">
        <ele>50.49514</ele>
        <time>2021-12-26T08:40:16.000Z</time>
      </trkpt>
      <trkpt lat="48.06326" lon="-1.51988">
        <ele>50.82447</ele>
        <time>2021-12-26T08:40:17.000Z</time>
      </trkpt>
      <trkpt lat="48.06331" lon="-1.51988">
        <ele>51.17789</ele>
        <time>2021-12-26T08:40:18.000Z</time>
      </trkpt>
      <trkpt lat="48.06335" lon="-1.5199">
        <ele>51.37981</ele>
        <time>2021-12-26T08:40:19.000Z</time>
      </trkpt>
      <trkpt lat="48.0634" lon="-1.5199">
        <ele>51.52434</ele>
        <time>2021-12-26T08:40:20.000Z</time>
      </trkpt>
      <trkpt lat="48.06345" lon="-1.51991">
        <ele>51.54782</ele>
        <time>2021-12-26T08:40:21.000Z</time>
      </trkpt>
      <trkpt lat="48.0635" lon="-1.51991">
        <ele>51.50241</ele>
        <time>2021-12-26T08:40:22.000Z</time>
      </trkpt>
      <trkpt lat="48.06354" lon="-1.51991">
        <ele>51.51791</ele>
        <time>2021-12-26T08:40:23.000Z</time>
      </trkpt>
      <trkpt lat="48.06359" lon="-1.51991">
        <ele>51.57261</ele>
        <time>2021-12-26T08:40:24.000Z</time>
      </trkpt>
      <trkpt lat="48.06364" lon="-1.51992">
        <ele>51.74193</ele>
        <time>2021-12-26T08:40:25.000Z</time>
      </trkpt>
      <trkpt lat="48.06368" lon="-1.51993">
        <ele>51.90461</ele>
        <time>2021-12-26T08:40:26.000Z</time>
      </trkpt>
      <trkpt lat="48.06373" lon="-1.51994">
        <ele>52.08151</ele>
        <time>2021-12-26T08:40:27.000Z</time>
      </trkpt>
      <trkpt lat="48.06378" lon="-1.51996">
        <ele>52.11909</ele>
        <time>2021-12-26T08:40:28.000Z</time>
      </trkpt>
      <trkpt lat="48.06382" lon="-1.51999">
        <ele>52.11311</ele>
        <time>2021-12-26T08:40:29.000Z</time>
      </trkpt>
      <trkpt lat="48.06386" lon="-1.52001">
        <ele>52.08266</ele>
        <time>2021-12-26T08:40:30.000Z</time>
      </trkpt>
      <trkpt lat="48.06391" lon="-1.52004">
        <ele>52.04242</ele>
        <time>2021-12-26T08:40:31.000Z</time>
      </trkpt>
      <trkpt lat="48.06395" lon="-1.52007">
        <ele>52.07068</ele>
        <time>2021-12-26T08:40:32.000Z</time>
      </trkpt>
      <trkpt lat="48.064" lon="-1.52009">
        <ele>52.03669</ele>
        <time>2021-12-26T08:40:33.000Z</time>
      </trkpt>
      <trkpt lat="48.06405" lon="-1.52012">
        <ele>52.05948</ele>
        <time>2021-12-26T08:40:34.000Z</time>
      </trkpt>
      <trkpt lat="48.0641" lon="-1.52014">
        <ele>52.13135</ele>
        <time>2021-12-26T08:40:35.000Z</time>
      </trkpt>
      <trkpt lat="48.06415" lon="-1.52016">
        <ele>52.2551</ele>
        <time>2021-12-26T08:40:36.000Z</time>
      </trkpt>
      <trkpt lat="48.06419" lon="-1.52019">
        <ele>52.30357</ele>
        <time>2021-12-26T08:40:37.000Z</time>
      </trkpt>
      <trkpt lat="48.06424" lon="-1.52022">
        <ele>52.36485</ele>
        <time>2021-12-26T08:40:38.000Z</time>
      </trkpt>
      <trkpt lat="48.06429" lon="-1.52024">
        <ele>52.50929</ele>
        <time>2021-12-26T08:40:39.000Z</time>
      </trkpt>
      <trkpt lat="48.06429" lon="-1.52024">
        <ele>52.50929</ele>
        <time>2021-12-26T08:40:39.000Z</time>
      </trkpt>
      <trkpt lat="48.06432" lon="-1.52026">
        <ele>52.74397</ele>
        <time>2021-12-26T08:40:40.000Z</time>
      </trkpt>
      <trkpt lat="48.06435" lon="-1.52028">
        <ele>52.8541</ele>
        <time>2021-12-26T08:40:41.000Z</time>
      </trkpt>
      <trkpt lat="48.06438" lon="-1.5203">
        <ele>52.94052</ele>
        <time>2021-12-26T08:40:42.000Z</time>
      </trkpt>
      <trkpt lat="48.06441" lon="-1.52032">
        <ele>53.1074</ele>
        <time>2021-12-26T08:40:43.000Z</time>
      </trkpt>
      <trkpt lat="48.06444" lon="-1.52035">
        <ele>53.05027</ele>
        <time>2021-12-26T08:40:44.000Z</time>
      </trkpt>
      <trkpt lat="48.06447" lon="-1.52039">
        <ele>52.81202</ele>
        <time>2021-12-26T08:40:45.000Z</time>
      </trkpt>
      <trkpt lat="48.06449" lon="-1.52045">
        <ele>52.36711</ele>
        <time>2021-12-26T08:40:46.000Z</time>
      </trkpt>
      <trkpt lat="48.0645" lon="-1.52052">
        <ele>51.76308</ele>
        <time>2021-12-26T08:40:47.000Z</time>
      </trkpt>
      <trkpt lat="48.06449" lon="-1.52059">
        <ele>51.1793</ele>
        <time>2021-12-26T08:40:48.000Z</time>
      </trkpt>
      <trkpt lat="48.06447" lon="-1.52064">
        <ele>50.70165</ele>
        <time>2021-12-26T08:40:49.000Z</time>
      </trkpt>
      <trkpt lat="48.06444" lon="-1.52069">
        <ele>50.45479</ele>
        <time>2021-12-26T08:40:50.000Z</time>
      </trkpt>
      <trkpt lat="48.06442" lon="-1.52073">
        <ele>50.40004</ele>
        <time>2021-12-26T08:40:51.000Z</time>
      </trkpt>
      <trkpt lat="48.06443" lon="-1.52077">
        <ele>50.47263</ele>
        <time>2021-12-26T08:40:52.000Z</time>
      </trkpt>
      <trkpt lat="48.06445" lon="-1.52083">
        <ele>50.56543</ele>
        <time>2021-12-26T08:40:53.000Z</time>
      </trkpt>
      <trkpt lat="48.06447" lon="-1.5209">
        <ele>50.66316</ele>
        <time>2021-12-26T08:40:54.000Z</time>
      </trkpt>
      <trkpt lat="48.06449" lon="-1.52096">
        <ele>50.75907</ele>
        <time>2021-12-26T08:40:55.000Z</time>
      </trkpt>
      <trkpt lat="48.0645" lon="-1.52101">
        <ele>50.89704</ele>
        <time>2021-12-26T08:40:56.000Z</time>
      </trkpt>
      <trkpt lat="48.0645" lon="-1.52108">
        <ele>51.11243</ele>
        <time>2021-12-26T08:40:57.000Z</time>
      </trkpt>
      <trkpt lat="48.0645" lon="-1.52116">
        <ele>51.4055</ele>
        <time>2021-12-26T08:40:58.000Z</time>
      </trkpt>
      <trkpt lat="48.06452" lon="-1.52123">
        <ele>51.61882</ele>
        <time>2021-12-26T08:40:59.000Z</time>
      </trkpt>
      <trkpt lat="48.06452" lon="-1.52129">
        <ele>51.74475</ele>
        <time>2021-12-26T08:41:00.000Z</time>
      </trkpt>
      <trkpt lat="48.06453" lon="-1.52133">
        <ele>51.80947</ele>
        <time>2021-12-26T08:41:01.000Z</time>
      </trkpt>
      <trkpt lat="48.06453" lon="-1.5214">
        <ele>51.90347</ele>
        <time>2021-12-26T08:41:02.000Z</time>
      </trkpt>
      <trkpt lat="48.06453" lon="-1.52146">
        <ele>51.9613</ele>
        <time>2021-12-26T08:41:03.000Z</time>
      </trkpt>
      <trkpt lat="48.06454" lon="-1.52153">
        <ele>52.00212</ele>
        <time>2021-12-26T08:41:04.000Z</time>
      </trkpt>
      <trkpt lat="48.06454" lon="-1.52159">
        <ele>52.04871</ele>
        <time>2021-12-26T08:41:05.000Z</time>
      </trkpt>
      <trkpt lat="48.06454" lon="-1.52165">
        <ele>52.07291</ele>
        <time>2021-12-26T08:41:06.000Z</time>
      </trkpt>
      <trkpt lat="48.06453" lon="-1.52173">
        <ele>52.10497</ele>
        <time>2021-12-26T08:41:07.000Z</time>
      </trkpt>
      <trkpt lat="48.06453" lon="-1.5218">
        <ele>52.13646</ele>
        <time>2021-12-26T08:41:08.000Z</time>
      </trkpt>
      <trkpt lat="48.06453" lon="-1.52187">
        <ele>52.13579</ele>
        <time>2021-12-26T08:41:09.000Z</time>
      </trkpt>
      <trkpt lat="48.06453" lon="-1.52195">
        <ele>52.10775</ele>
        <time>2021-12-26T08:41:10.000Z</time>
      </trkpt>
      <trkpt lat="48.06453" lon="-1.52202">
        <ele>51.97538</ele>
        <time>2021-12-26T08:41:11.000Z</time>
      </trkpt>
      <trkpt lat="48.06453" lon="-1.5221">
        <ele>51.78577</ele>
        <time>2021-12-26T08:41:12.000Z</time>
      </trkpt>
      <trkpt lat="48.06453" lon="-1.52217">
        <ele>51.60287</ele>
        <time>2021-12-26T08:41:13.000Z</time>
      </trkpt>
      <trkpt lat="48.06454" lon="-1.52225">
        <ele>51.47699</ele>
        <time>2021-12-26T08:41:14.000Z</time>
      </trkpt>
      <trkpt lat="48.06455" lon="-1.52231">
        <ele>51.39463</ele>
        <time>2021-12-26T08:41:15.000Z</time>
      </trkpt>
      <trkpt lat="48.06456" lon="-1.52235">
        <ele>51.33873</ele>
        <time>2021-12-26T08:41:16.000Z</time>
      </trkpt>
      <trkpt lat="48.0646" lon="-1.52238">
        <ele>51.09769</ele>
        <time>2021-12-26T08:41:17.000Z</time>
      </trkpt>
      <trkpt lat="48.06463" lon="-1.5224">
        <ele>50.98272</ele>
        <time>2021-12-26T08:41:18.000Z</time>
      </trkpt>
      <trkpt lat="48.06466" lon="-1.52244">
        <ele>50.92004</ele>
        <time>2021-12-26T08:41:19.000Z</time>
      </trkpt>
      <trkpt lat="48.06468" lon="-1.52249">
        <ele>50.81987</ele>
        <time>2021-12-26T08:41:20.000Z</time>
      </trkpt>
      <trkpt lat="48.06469" lon="-1.52255">
        <ele>50.67607</ele>
        <time>2021-12-26T08:41:21.000Z</time>
      </trkpt>
      <trkpt lat="48.0647" lon="-1.52262">
        <ele>50.62124</ele>
        <time>2021-12-26T08:41:22.000Z</time>
      </trkpt>
      <trkpt lat="48.0647" lon="-1.5227">
        <ele>50.62613</ele>
        <time>2021-12-26T08:41:23.000Z</time>
      </trkpt>
      <trkpt lat="48.06471" lon="-1.52278">
        <ele>50.68986</ele>
        <time>2021-12-26T08:41:24.000Z</time>
      </trkpt>
      <trkpt lat="48.06471" lon="-1.52284">
        <ele>50.75574</ele>
        <time>2021-12-26T08:41:25.000Z</time>
      </trkpt>
      <trkpt lat="48.06472" lon="-1.52291">
        <ele>50.84322</ele>
        <time>2021-12-26T08:41:26.000Z</time>
      </trkpt>
      <trkpt lat="48.06472" lon="-1.52297">
        <ele>50.95273</ele>
        <time>2021-12-26T08:41:27.000Z</time>
      </trkpt>
      <trkpt lat="48.06473" lon="-1.52304">
        <ele>51.03909</ele>
        <time>2021-12-26T08:41:28.000Z</time>
      </trkpt>
      <trkpt lat="48.06475" lon="-1.52309">
        <ele>50.9675</ele>
        <time>2021-12-26T08:41:29.000Z</time>
      </trkpt>
      <trkpt lat="48.06478" lon="-1.52313">
        <ele>50.77722</ele>
        <time>2021-12-26T08:41:30.000Z</time>
      </trkpt>
      <trkpt lat="48.0648" lon="-1.52317">
        <ele>50.64959</ele>
        <time>2021-12-26T08:41:31.000Z</time>
      </trkpt>
      <trkpt lat="48.06483" lon="-1.52321">
        <ele>50.65667</ele>
        <time>2021-12-26T08:41:32.000Z</time>
      </trkpt>
      <trkpt lat="48.06486" lon="-1.52327">
        <ele>50.8118</ele>
        <time>2021-12-26T08:41:33.000Z</time>
      </trkpt>
      <trkpt lat="48.06488" lon="-1.52335">
        <ele>51.03333</ele>
        <time>2021-12-26T08:41:34.000Z</time>
      </trkpt>
      <trkpt lat="48.06489" lon="-1.52343">
        <ele>51.21366</ele>
        <time>2021-12-26T08:41:35.000Z</time>
      </trkpt>
      <trkpt lat="48.06491" lon="-1.5235">
        <ele>51.35307</ele>
        <time>2021-12-26T08:41:36.000Z</time>
      </trkpt>
      <trkpt lat="48.06492" lon="-1.52357">
        <ele>51.41433</ele>
        <time>2021-12-26T08:41:37.000Z</time>
      </trkpt>
      <trkpt lat="48.06493" lon="-1.52365">
        <ele>51.43204</ele>
        <time>2021-12-26T08:41:38.000Z</time>
      </trkpt>
      <trkpt lat="48.06494" lon="-1.52372">
        <ele>51.43404</ele>
        <time>2021-12-26T08:41:39.000Z</time>
      </trkpt>
      <trkpt lat="48.06495" lon="-1.5238">
        <ele>51.38878</ele>
        <time>2021-12-26T08:41:40.000Z</time>
      </trkpt>
      <trkpt lat="48.06496" lon="-1.52386">
        <ele>51.29491</ele>
        <time>2021-12-26T08:41:41.000Z</time>
      </trkpt>
      <trkpt lat="48.06498" lon="-1.52393">
        <ele>51.14344</ele>
        <time>2021-12-26T08:41:42.000Z</time>
      </trkpt>
      <trkpt lat="48.065" lon="-1.52399">
        <ele>50.97491</ele>
        <time>2021-12-26T08:41:43.000Z</time>
      </trkpt>
      <trkpt lat="48.06502" lon="-1.52405">
        <ele>50.94971</ele>
        <time>2021-12-26T08:41:44.000Z</time>
      </trkpt>
      <trkpt lat="48.06504" lon="-1.52411">
        <ele>51.03974</ele>
        <time>2021-12-26T08:41:45.000Z</time>
      </trkpt>
      <trkpt lat="48.06505" lon="-1.52417">
        <ele>51.18401</ele>
        <time>2021-12-26T08:41:46.000Z</time>
      </trkpt>
      <trkpt lat="48.06507" lon="-1.52423">
        <ele>51.33714</ele>
        <time>2021-12-26T08:41:47.000Z</time>
      </trkpt>
      <trkpt lat="48.06508" lon="-1.52429">
        <ele>51.46589</ele>
        <time>2021-12-26T08:41:48.000Z</time>
      </trkpt>
      <trkpt lat="48.06508" lon="-1.52436">
        <ele>51.61827</ele>
        <time>2021-12-26T08:41:49.000Z</time>
      </trkpt>
      <trkpt lat="48.06507" lon="-1.52442">
        <ele>51.81857</ele>
        <time>2021-12-26T08:41:50.000Z</time>
      </trkpt>
      <trkpt lat="48.06509" lon="-1.52447">
        <ele>51.86554</ele>
        <time>2021-12-26T08:41:51.000Z</time>
      </trkpt>
      <trkpt lat="48.06512" lon="-1.52452">
        <ele>51.85047</ele>
        <time>2021-12-26T08:41:52.000Z</time>
      </trkpt>
      <trkpt lat="48.06514" lon="-1.52456">
        <ele>51.81628</ele>
        <time>2021-12-26T08:41:53.000Z</time>
      </trkpt>
      <trkpt lat="48.06517" lon="-1.52461">
        <ele>51.7895</ele>
        <time>2021-12-26T08:41:54.000Z</time>
      </trkpt>
      <trkpt lat="48.06519" lon="-1.52465">
        <ele>51.77232</ele>
        <time>2021-12-26T08:41:55.000Z</time>
      </trkpt>
      <trkpt lat="48.06523" lon="-1.5247">
        <ele>51.80776</ele>
        <time>2021-12-26T08:41:56.000Z</time>
      </trkpt>
      <trkpt lat="48.06526" lon="-1.52474">
        <ele>51.92665</ele>
        <time>2021-12-26T08:41:57.000Z</time>
      </trkpt>
      <trkpt lat="48.06529" lon="-1.52478">
        <ele>52.09117</ele>
        <time>2021-12-26T08:41:58.000Z</time>
      </trkpt>
      <trkpt lat="48.06531" lon="-1.52485">
        <ele>52.25663</ele>
        <time>2021-12-26T08:41:59.000Z</time>
      </trkpt>
      <trkpt lat="48.06532" lon="-1.52491">
        <ele>52.3701</ele>
        <time>2021-12-26T08:42:00.000Z</time>
      </trkpt>
      <trkpt lat="48.06533" lon="-1.52498">
        <ele>52.43924</ele>
        <time>2021-12-26T08:42:01.000Z</time>
      </trkpt>
      <trkpt lat="48.06534" lon="-1.52505">
        <ele>52.48723</ele>
        <time>2021-12-26T08:42:02.000Z</time>
      </trkpt>
      <trkpt lat="48.06534" lon="-1.52511">
        <ele>52.56035</ele>
        <time>2021-12-26T08:42:03.000Z</time>
      </trkpt>
      <trkpt lat="48.06535" lon="-1.52517">
        <ele>52.70914</ele>
        <time>2021-12-26T08:42:04.000Z</time>
      </trkpt>
      <trkpt lat="48.06535" lon="-1.52522">
        <ele>52.89298</ele>
        <time>2021-12-26T08:42:05.000Z</time>
      </trkpt>
      <trkpt lat="48.06536" lon="-1.5253">
        <ele>53.08548</ele>
        <time>2021-12-26T08:42:06.000Z</time>
      </trkpt>
      <trkpt lat="48.06538" lon="-1.52536">
        <ele>53.19107</ele>
        <time>2021-12-26T08:42:07.000Z</time>
      </trkpt>
      <trkpt lat="48.06539" lon="-1.52543">
        <ele>53.19233</ele>
        <time>2021-12-26T08:42:08.000Z</time>
      </trkpt>
      <trkpt lat="48.06541" lon="-1.5255">
        <ele>53.09404</ele>
        <time>2021-12-26T08:42:09.000Z</time>
      </trkpt>
      <trkpt lat="48.06542" lon="-1.52557">
        <ele>52.9148</ele>
        <time>2021-12-26T08:42:10.000Z</time>
      </trkpt>
      <trkpt lat="48.06543" lon="-1.52563">
        <ele>52.74491</ele>
        <time>2021-12-26T08:42:11.000Z</time>
      </trkpt>
      <trkpt lat="48.06544" lon="-1.5257">
        <ele>52.54422</ele>
        <time>2021-12-26T08:42:12.000Z</time>
      </trkpt>
      <trkpt lat="48.06544" lon="-1.52578">
        <ele>52.3285</ele>
        <time>2021-12-26T08:42:13.000Z</time>
      </trkpt>
      <trkpt lat="48.06546" lon="-1.52587">
        <ele>52.01169</ele>
        <time>2021-12-26T08:42:14.000Z</time>
      </trkpt>
      <trkpt lat="48.06548" lon="-1.52597">
        <ele>51.78962</ele>
        <time>2021-12-26T08:42:15.000Z</time>
      </trkpt>
      <trkpt lat="48.0655" lon="-1.52606">
        <ele>51.7466</ele>
        <time>2021-12-26T08:42:16.000Z</time>
      </trkpt>
      <trkpt lat="48.06551" lon="-1.52615">
        <ele>51.82638</ele>
        <time>2021-12-26T08:42:17.000Z</time>
      </trkpt>
      <trkpt lat="48.06551" lon="-1.52623">
        <ele>51.92225</ele>
        <time>2021-12-26T08:42:18.000Z</time>
      </trkpt>
      <trkpt lat="48.06551" lon="-1.52631">
        <ele>52.04034</ele>
        <time>2021-12-26T08:42:19.000Z</time>
      </trkpt>
      <trkpt lat="48.0655" lon="-1.52639">
        <ele>52.17711</ele>
        <time>2021-12-26T08:42:20.000Z</time>
      </trkpt>
      <trkpt lat="48.06552" lon="-1.52646">
        <ele>52.2798</ele>
        <time>2021-12-26T08:42:21.000Z</time>
      </trkpt>
      <trkpt lat="48.06554" lon="-1.52652">
        <ele>52.34649</ele>
        <time>2021-12-26T08:42:22.000Z</time>
      </trkpt>
      <trkpt lat="48.06557" lon="-1.52659">
        <ele>52.37465</ele>
        <time>2021-12-26T08:42:23.000Z</time>
      </trkpt>
      <trkpt lat="48.06559" lon="-1.52665">
        <ele>52.40184</ele>
        <time>2021-12-26T08:42:24.000Z</time>
      </trkpt>
      <trkpt lat="48.06561" lon="-1.5267">
        <ele>52.36373</ele>
        <time>2021-12-26T08:42:25.000Z</time>
      </trkpt>
      <trkpt lat="48.06564" lon="-1.52675">
        <ele>52.31131</ele>
        <time>2021-12-26T08:42:26.000Z</time>
      </trkpt>
      <trkpt lat="48.06567" lon="-1.5268">
        <ele>52.27198</ele>
        <time>2021-12-26T08:42:27.000Z</time>
      </trkpt>
      <trkpt lat="48.06569" lon="-1.52687">
        <ele>52.28437</ele>
        <time>2021-12-26T08:42:28.000Z</time>
      </trkpt>
      <trkpt lat="48.0657" lon="-1.52693">
        <ele>52.33162</ele>
        <time>2021-12-26T08:42:29.000Z</time>
      </trkpt>
      <trkpt lat="48.06572" lon="-1.52699">
        <ele>52.37549</ele>
        <time>2021-12-26T08:42:30.000Z</time>
      </trkpt>
      <trkpt lat="48.06573" lon="-1.52705">
        <ele>52.40421</ele>
        <time>2021-12-26T08:42:31.000Z</time>
      </trkpt>
      <trkpt lat="48.06574" lon="-1.52712">
        <ele>52.42963</ele>
        <time>2021-12-26T08:42:32.000Z</time>
      </trkpt>
      <trkpt lat="48.06575" lon="-1.52718">
        <ele>52.45217</ele>
        <time>2021-12-26T08:42:33.000Z</time>
      </trkpt>
      <trkpt lat="48.06576" lon="-1.52724">
        <ele>52.48102</ele>
        <time>2021-12-26T08:42:34.000Z</time>
      </trkpt>
      <trkpt lat="48.06577" lon="-1.52731">
        <ele>52.50881</ele>
        <time>2021-12-26T08:42:35.000Z</time>
      </trkpt>
      <trkpt lat="48.06577" lon="-1.52737">
        <ele>52.5779</ele>
        <time>2021-12-26T08:42:36.000Z</time>
      </trkpt>
      <trkpt lat="48.06578" lon="-1.52744">
        <ele>52.64633</ele>
        <time>2021-12-26T08:42:37.000Z</time>
      </trkpt>
      <trkpt lat="48.06578" lon="-1.5275">
        <ele>52.72337</ele>
        <time>2021-12-26T08:42:38.000Z</time>
      </trkpt>
      <trkpt lat="48.06579" lon="-1.52757">
        <ele>52.80263</ele>
        <time>2021-12-26T08:42:39.000Z</time>
      </trkpt>
      <trkpt lat="48.06579" lon="-1.52763">
        <ele>52.88866</ele>
        <time>2021-12-26T08:42:40.000Z</time>
      </trkpt>
      <trkpt lat="48.0658" lon="-1.52769">
        <ele>52.98017</ele>
        <time>2021-12-26T08:42:41.000Z</time>
      </trkpt>
      <trkpt lat="48.06581" lon="-1.52776">
        <ele>53.08281</ele>
        <time>2021-12-26T08:42:42.000Z</time>
      </trkpt>
      <trkpt lat="48.06582" lon="-1.52782">
        <ele>53.18718</ele>
        <time>2021-12-26T08:42:43.000Z</time>
      </trkpt>
      <trkpt lat="48.06583" lon="-1.52788">
        <ele>53.29508</ele>
        <time>2021-12-26T08:42:44.000Z</time>
      </trkpt>
      <trkpt lat="48.06585" lon="-1.52793">
        <ele>53.39627</ele>
        <time>2021-12-26T08:42:45.000Z</time>
      </trkpt>
      <trkpt lat="48.06587" lon="-1.52799">
        <ele>53.49219</ele>
        <time>2021-12-26T08:42:46.000Z</time>
      </trkpt>
      <trkpt lat="48.06589" lon="-1.52804">
        <ele>53.58143</ele>
        <time>2021-12-26T08:42:47.000Z</time>
      </trkpt>
      <trkpt lat="48.06591" lon="-1.5281">
        <ele>53.67146</ele>
        <time>2021-12-26T08:42:48.000Z</time>
      </trkpt>
      <trkpt lat="48.06593" lon="-1.52815">
        <ele>53.75429</ele>
        <time>2021-12-26T08:42:49.000Z</time>
      </trkpt>
      <trkpt lat="48.06596" lon="-1.5282">
        <ele>53.83524</ele>
        <time>2021-12-26T08:42:50.000Z</time>
      </trkpt>
      <trkpt lat="48.06599" lon="-1.52825">
        <ele>53.92048</ele>
        <time>2021-12-26T08:42:51.000Z</time>
      </trkpt>
      <trkpt lat="48.06601" lon="-1.5283">
        <ele>53.99426</ele>
        <time>2021-12-26T08:42:52.000Z</time>
      </trkpt>
      <trkpt lat="48.06604" lon="-1.52835">
        <ele>54.06624</ele>
        <time>2021-12-26T08:42:53.000Z</time>
      </trkpt>
      <trkpt lat="48.06606" lon="-1.5284">
        <ele>54.14702</ele>
        <time>2021-12-26T08:42:54.000Z</time>
      </trkpt>
      <trkpt lat="48.06608" lon="-1.52846">
        <ele>54.21026</ele>
        <time>2021-12-26T08:42:55.000Z</time>
      </trkpt>
      <trkpt lat="48.06608" lon="-1.52851">
        <ele>54.28718</ele>
        <time>2021-12-26T08:42:56.000Z</time>
      </trkpt>
      <trkpt lat="48.06606" lon="-1.52855">
        <ele>54.36976</ele>
        <time>2021-12-26T08:42:57.000Z</time>
      </trkpt>
      <trkpt lat="48.06603" lon="-1.52856">
        <ele>54.46682</ele>
        <time>2021-12-26T08:42:58.000Z</time>
      </trkpt>
      <trkpt lat="48.06603" lon="-1.52856">
        <ele>54.46682</ele>
        <time>2021-12-26T08:42:58.000Z</time>
      </trkpt>
      <trkpt lat="48.06599" lon="-1.52856">
        <ele>54.57563</ele>
        <time>2021-12-26T08:42:59.000Z</time>
      </trkpt>
      <trkpt lat="48.06595" lon="-1.52855">
        <ele>54.69071</ele>
        <time>2021-12-26T08:43:00.000Z</time>
      </trkpt>
      <trkpt lat="48.06591" lon="-1.52854">
        <ele>54.80655</ele>
        <time>2021-12-26T08:43:01.000Z</time>
      </trkpt>
      <trkpt lat="48.06587" lon="-1.52853">
        <ele>54.92056</ele>
        <time>2021-12-26T08:43:02.000Z</time>
      </trkpt>
      <trkpt lat="48.06583" lon="-1.52852">
        <ele>55.03488</ele>
        <time>2021-12-26T08:43:03.000Z</time>
      </trkpt>
      <trkpt lat="48.06579" lon="-1.52851">
        <ele>55.15194</ele>
        <time>2021-12-26T08:43:04.000Z</time>
      </trkpt>
      <trkpt lat="48.06575" lon="-1.52849">
        <ele>55.2689</ele>
        <time>2021-12-26T08:43:05.000Z</time>
      </trkpt>
      <trkpt lat="48.06572" lon="-1.52848">
        <ele>55.3857</ele>
        <time>2021-12-26T08:43:06.000Z</time>
      </trkpt>
      <trkpt lat="48.06568" lon="-1.52846">
        <ele>55.49175</ele>
        <time>2021-12-26T08:43:07.000Z</time>
      </trkpt>
      <trkpt lat="48.06564" lon="-1.52843">
        <ele>55.59366</ele>
        <time>2021-12-26T08:43:08.000Z</time>
      </trkpt>
      <trkpt lat="48.06559" lon="-1.52841">
        <ele>55.70731</ele>
        <time>2021-12-26T08:43:09.000Z</time>
      </trkpt>
      <trkpt lat="48.06555" lon="-1.52839">
        <ele>55.83316</ele>
        <time>2021-12-26T08:43:10.000Z</time>
      </trkpt>
      <trkpt lat="48.06552" lon="-1.52836">
        <ele>55.96481</ele>
        <time>2021-12-26T08:43:11.000Z</time>
      </trkpt>
      <trkpt lat="48.06548" lon="-1.52834">
        <ele>56.09216</ele>
        <time>2021-12-26T08:43:12.000Z</time>
      </trkpt>
      <trkpt lat="48.06544" lon="-1.52831">
        <ele>56.24405</ele>
        <time>2021-12-26T08:43:13.000Z</time>
      </trkpt>
      <trkpt lat="48.06541" lon="-1.52829">
        <ele>56.41451</ele>
        <time>2021-12-26T08:43:14.000Z</time>
      </trkpt>
      <trkpt lat="48.06537" lon="-1.52826">
        <ele>56.60275</ele>
        <time>2021-12-26T08:43:15.000Z</time>
      </trkpt>
      <trkpt lat="48.06534" lon="-1.52823">
        <ele>56.8135</ele>
        <time>2021-12-26T08:43:16.000Z</time>
      </trkpt>
      <trkpt lat="48.06531" lon="-1.5282">
        <ele>57.02757</ele>
        <time>2021-12-26T08:43:17.000Z</time>
      </trkpt>
      <trkpt lat="48.06528" lon="-1.52817">
        <ele>57.25216</ele>
        <time>2021-12-26T08:43:18.000Z</time>
      </trkpt>
      <trkpt lat="48.06525" lon="-1.52815">
        <ele>57.46953</ele>
        <time>2021-12-26T08:43:19.000Z</time>
      </trkpt>
      <trkpt lat="48.06523" lon="-1.52811">
        <ele>57.55962</ele>
        <time>2021-12-26T08:43:20.000Z</time>
      </trkpt>
      <trkpt lat="48.06523" lon="-1.52806">
        <ele>57.47484</ele>
        <time>2021-12-26T08:43:21.000Z</time>
      </trkpt>
      <trkpt lat="48.06521" lon="-1.52803">
        <ele>57.57681</ele>
        <time>2021-12-26T08:43:22.000Z</time>
      </trkpt>
      <trkpt lat="48.06519" lon="-1.52799">
        <ele>57.68687</ele>
        <time>2021-12-26T08:43:23.000Z</time>
      </trkpt>
      <trkpt lat="48.06517" lon="-1.52796">
        <ele>57.79681</ele>
        <time>2021-12-26T08:43:24.000Z</time>
      </trkpt>
      <trkpt lat="48.06517" lon="-1.52796">
        <ele>57.79681</ele>
        <time>2021-12-26T08:43:24.000Z</time>
      </trkpt>
      <trkpt lat="48.06515" lon="-1.52795">
        <ele>57.91001</ele>
        <time>2021-12-26T08:43:25.000Z</time>
      </trkpt>
      <trkpt lat="48.06513" lon="-1.52792">
        <ele>58.01347</ele>
        <time>2021-12-26T08:43:26.000Z</time>
      </trkpt>
      <trkpt lat="48.06512" lon="-1.5279">
        <ele>58.08206</ele>
        <time>2021-12-26T08:43:27.000Z</time>
      </trkpt>
      <trkpt lat="48.06511" lon="-1.52786">
        <ele>58.08628</ele>
        <time>2021-12-26T08:43:28.000Z</time>
      </trkpt>
      <trkpt lat="48.06509" lon="-1.52783">
        <ele>58.1643</ele>
        <time>2021-12-26T08:43:29.000Z</time>
      </trkpt>
      <trkpt lat="48.06508" lon="-1.52778">
        <ele>58.15339</ele>
        <time>2021-12-26T08:43:30.000Z</time>
      </trkpt>
      <trkpt lat="48.06507" lon="-1.52772">
        <ele>58.08781</ele>
        <time>2021-12-26T08:43:31.000Z</time>
      </trkpt>
      <trkpt lat="48.06506" lon="-1.52767">
        <ele>57.98182</ele>
        <time>2021-12-26T08:43:32.000Z</time>
      </trkpt>
      <trkpt lat="48.06506" lon="-1.52762">
        <ele>57.83939</ele>
        <time>2021-12-26T08:43:33.000Z</time>
      </trkpt>
      <trkpt lat="48.06505" lon="-1.52757">
        <ele>57.84809</ele>
        <time>2021-12-26T08:43:34.000Z</time>
      </trkpt>
      <trkpt lat="48.06502" lon="-1.52756">
        <ele>58.05371</ele>
        <time>2021-12-26T08:43:35.000Z</time>
      </trkpt>
      <trkpt lat="48.065" lon="-1.52758">
        <ele>58.26388</ele>
        <time>2021-12-26T08:43:36.000Z</time>
      </trkpt>
      <trkpt lat="48.06499" lon="-1.52761">
        <ele>58.51039</ele>
        <time>2021-12-26T08:43:37.000Z</time>
      </trkpt>
      <trkpt lat="48.06497" lon="-1.52765">
        <ele>58.77938</ele>
        <time>2021-12-26T08:43:38.000Z</time>
      </trkpt>
      <trkpt lat="48.06495" lon="-1.52769">
        <ele>59.08258</ele>
        <time>2021-12-26T08:43:39.000Z</time>
      </trkpt>
      <trkpt lat="48.06493" lon="-1.52771">
        <ele>59.34604</ele>
        <time>2021-12-26T08:43:40.000Z</time>
      </trkpt>
      <trkpt lat="48.0649" lon="-1.52774">
        <ele>59.60458</ele>
        <time>2021-12-26T08:43:41.000Z</time>
      </trkpt>
      <trkpt lat="48.06488" lon="-1.52776">
        <ele>59.86534</ele>
        <time>2021-12-26T08:43:42.000Z</time>
      </trkpt>
      <trkpt lat="48.06486" lon="-1.52779">
        <ele>60.09383</ele>
        <time>2021-12-26T08:43:43.000Z</time>
      </trkpt>
      <trkpt lat="48.06485" lon="-1.52782">
        <ele>60.29228</ele>
        <time>2021-12-26T08:43:44.000Z</time>
      </trkpt>
      <trkpt lat="48.06482" lon="-1.52784">
        <ele>60.5979</ele>
        <time>2021-12-26T08:43:45.000Z</time>
      </trkpt>
      <trkpt lat="48.06479" lon="-1.52784">
        <ele>60.84172</ele>
        <time>2021-12-26T08:43:46.000Z</time>
      </trkpt>
      <trkpt lat="48.06477" lon="-1.52783">
        <ele>61.02451</ele>
        <time>2021-12-26T08:43:47.000Z</time>
      </trkpt>
      <trkpt lat="48.06475" lon="-1.52779">
        <ele>61.16744</ele>
        <time>2021-12-26T08:43:49.000Z</time>
      </trkpt>
      <trkpt lat="48.06472" lon="-1.52775">
        <ele>61.25823</ele>
        <time>2021-12-26T08:43:50.000Z</time>
      </trkpt>
      <trkpt lat="48.0647" lon="-1.52772">
        <ele>61.38086</ele>
        <time>2021-12-26T08:43:51.000Z</time>
      </trkpt>
      <trkpt lat="48.06468" lon="-1.52769">
        <ele>61.47358</ele>
        <time>2021-12-26T08:43:52.000Z</time>
      </trkpt>
      <trkpt lat="48.06465" lon="-1.52765">
        <ele>61.58747</ele>
        <time>2021-12-26T08:43:53.000Z</time>
      </trkpt>
      <trkpt lat="48.06463" lon="-1.52759">
        <ele>61.68501</ele>
        <time>2021-12-26T08:43:54.000Z</time>
      </trkpt>
      <trkpt lat="48.06461" lon="-1.52756">
        <ele>61.7938</ele>
        <time>2021-12-26T08:43:55.000Z</time>
      </trkpt>
      <trkpt lat="48.06458" lon="-1.52752">
        <ele>61.93229</ele>
        <time>2021-12-26T08:43:56.000Z</time>
      </trkpt>
      <trkpt lat="48.06456" lon="-1.52751">
        <ele>62.10024</ele>
        <time>2021-12-26T08:43:57.000Z</time>
      </trkpt>
      <trkpt lat="48.06454" lon="-1.5275">
        <ele>62.29733</ele>
        <time>2021-12-26T08:43:58.000Z</time>
      </trkpt>
      <trkpt lat="48.06452" lon="-1.52752">
        <ele>62.48564</ele>
        <time>2021-12-26T08:43:59.000Z</time>
      </trkpt>
      <trkpt lat="48.06451" lon="-1.52755">
        <ele>62.6694</ele>
        <time>2021-12-26T08:44:00.000Z</time>
      </trkpt>
      <trkpt lat="48.06451" lon="-1.52759">
        <ele>62.75276</ele>
        <time>2021-12-26T08:44:01.000Z</time>
      </trkpt>
      <trkpt lat="48.0645" lon="-1.52763">
        <ele>62.91727</ele>
        <time>2021-12-26T08:44:02.000Z</time>
      </trkpt>
      <trkpt lat="48.0645" lon="-1.52767">
        <ele>63.1068</ele>
        <time>2021-12-26T08:44:03.000Z</time>
      </trkpt>
      <trkpt lat="48.06449" lon="-1.52769">
        <ele>63.31477</ele>
        <time>2021-12-26T08:44:04.000Z</time>
      </trkpt>
      <trkpt lat="48.06446" lon="-1.5277">
        <ele>63.5294</ele>
        <time>2021-12-26T08:44:05.000Z</time>
      </trkpt>
      <trkpt lat="48.06444" lon="-1.52769">
        <ele>63.77766</ele>
        <time>2021-12-26T08:44:07.000Z</time>
      </trkpt>
      <trkpt lat="48.06442" lon="-1.52768">
        <ele>63.9184</ele>
        <time>2021-12-26T08:44:08.000Z</time>
      </trkpt>
      <trkpt lat="48.0644" lon="-1.52767">
        <ele>64.05562</ele>
        <time>2021-12-26T08:44:09.000Z</time>
      </trkpt>
      <trkpt lat="48.06438" lon="-1.52766">
        <ele>64.25545</ele>
        <time>2021-12-26T08:44:10.000Z</time>
      </trkpt>
      <trkpt lat="48.06435" lon="-1.52766">
        <ele>64.51034</ele>
        <time>2021-12-26T08:44:11.000Z</time>
      </trkpt>
      <trkpt lat="48.06433" lon="-1.52765">
        <ele>64.73784</ele>
        <time>2021-12-26T08:44:12.000Z</time>
      </trkpt>
      <trkpt lat="48.06431" lon="-1.52764">
        <ele>64.97382</ele>
        <time>2021-12-26T08:44:13.000Z</time>
      </trkpt>
      <trkpt lat="48.06428" lon="-1.52764">
        <ele>65.21638</ele>
        <time>2021-12-26T08:44:14.000Z</time>
      </trkpt>
      <trkpt lat="48.06426" lon="-1.52763">
        <ele>65.44854</ele>
        <time>2021-12-26T08:44:15.000Z</time>
      </trkpt>
      <trkpt lat="48.06423" lon="-1.52763">
        <ele>65.66007</ele>
        <time>2021-12-26T08:44:16.000Z</time>
      </trkpt>
      <trkpt lat="48.06421" lon="-1.52762">
        <ele>65.82925</ele>
        <time>2021-12-26T08:44:17.000Z</time>
      </trkpt>
      <trkpt lat="48.06418" lon="-1.52761">
        <ele>66.02875</ele>
        <time>2021-12-26T08:44:18.000Z</time>
      </trkpt>
      <trkpt lat="48.06415" lon="-1.5276">
        <ele>66.23801</ele>
        <time>2021-12-26T08:44:19.000Z</time>
      </trkpt>
      <trkpt lat="48.06413" lon="-1.52759">
        <ele>66.44022</ele>
        <time>2021-12-26T08:44:20.000Z</time>
      </trkpt>
      <trkpt lat="48.0641" lon="-1.52757">
        <ele>66.60346</ele>
        <time>2021-12-26T08:44:21.000Z</time>
      </trkpt>
      <trkpt lat="48.06407" lon="-1.52757">
        <ele>66.8123</ele>
        <time>2021-12-26T08:44:22.000Z</time>
      </trkpt>
      <trkpt lat="48.06405" lon="-1.52756">
        <ele>66.97871</ele>
        <time>2021-12-26T08:44:23.000Z</time>
      </trkpt>
      <trkpt lat="48.06402" lon="-1.52756">
        <ele>67.18414</ele>
        <time>2021-12-26T08:44:24.000Z</time>
      </trkpt>
      <trkpt lat="48.064" lon="-1.52756">
        <ele>67.38422</ele>
        <time>2021-12-26T08:44:25.000Z</time>
      </trkpt>
      <trkpt lat="48.06397" lon="-1.52758">
        <ele>67.59746</ele>
        <time>2021-12-26T08:44:26.000Z</time>
      </trkpt>
      <trkpt lat="48.06394" lon="-1.5276">
        <ele>67.82354</ele>
        <time>2021-12-26T08:44:27.000Z</time>
      </trkpt>
      <trkpt lat="48.06392" lon="-1.52763">
        <ele>68.03268</ele>
        <time>2021-12-26T08:44:28.000Z</time>
      </trkpt>
      <trkpt lat="48.0639" lon="-1.52765">
        <ele>68.25834</ele>
        <time>2021-12-26T08:44:29.000Z</time>
      </trkpt>
      <trkpt lat="48.06388" lon="-1.52767">
        <ele>68.47909</ele>
        <time>2021-12-26T08:44:30.000Z</time>
      </trkpt>
      <trkpt lat="48.06385" lon="-1.52768">
        <ele>68.69366</ele>
        <time>2021-12-26T08:44:31.000Z</time>
      </trkpt>
      <trkpt lat="48.06383" lon="-1.5277">
        <ele>68.92289</ele>
        <time>2021-12-26T08:44:32.000Z</time>
      </trkpt>
      <trkpt lat="48.0638" lon="-1.52772">
        <ele>69.14765</ele>
        <time>2021-12-26T08:44:33.000Z</time>
      </trkpt>
      <trkpt lat="48.06378" lon="-1.52771">
        <ele>69.30615</ele>
        <time>2021-12-26T08:44:34.000Z</time>
      </trkpt>
      <trkpt lat="48.06375" lon="-1.52769">
        <ele>69.37047</ele>
        <time>2021-12-26T08:44:35.000Z</time>
      </trkpt>
      <trkpt lat="48.06374" lon="-1.52765">
        <ele>69.35081</ele>
        <time>2021-12-26T08:44:36.000Z</time>
      </trkpt>
      <trkpt lat="48.06372" lon="-1.52762">
        <ele>69.33741</ele>
        <time>2021-12-26T08:44:37.000Z</time>
      </trkpt>
      <trkpt lat="48.0637" lon="-1.52758">
        <ele>69.34618</ele>
        <time>2021-12-26T08:44:38.000Z</time>
      </trkpt>
      <trkpt lat="48.06368" lon="-1.52754">
        <ele>69.38115</ele>
        <time>2021-12-26T08:44:39.000Z</time>
      </trkpt>
      <trkpt lat="48.06366" lon="-1.52751">
        <ele>69.4596</ele>
        <time>2021-12-26T08:44:40.000Z</time>
      </trkpt>
      <trkpt lat="48.06364" lon="-1.52747">
        <ele>69.53811</ele>
        <time>2021-12-26T08:44:41.000Z</time>
      </trkpt>
      <trkpt lat="48.06361" lon="-1.52745">
        <ele>69.68665</ele>
        <time>2021-12-26T08:44:42.000Z</time>
      </trkpt>
      <trkpt lat="48.06359" lon="-1.52745">
        <ele>69.87119</ele>
        <time>2021-12-26T08:44:43.000Z</time>
      </trkpt>
      <trkpt lat="48.06356" lon="-1.52746">
        <ele>70.06444</ele>
        <time>2021-12-26T08:44:44.000Z</time>
      </trkpt>
      <trkpt lat="48.06354" lon="-1.52748">
        <ele>70.26128</ele>
        <time>2021-12-26T08:44:45.000Z</time>
      </trkpt>
      <trkpt lat="48.06351" lon="-1.5275">
        <ele>70.49274</ele>
        <time>2021-12-26T08:44:46.000Z</time>
      </trkpt>
      <trkpt lat="48.06349" lon="-1.52752">
        <ele>70.73373</ele>
        <time>2021-12-26T08:44:47.000Z</time>
      </trkpt>
      <trkpt lat="48.06346" lon="-1.52754">
        <ele>70.97246</ele>
        <time>2021-12-26T08:44:48.000Z</time>
      </trkpt>
      <trkpt lat="48.06344" lon="-1.52756">
        <ele>71.20324</ele>
        <time>2021-12-26T08:44:49.000Z</time>
      </trkpt>
      <trkpt lat="48.06341" lon="-1.52758">
        <ele>71.43883</ele>
        <time>2021-12-26T08:44:50.000Z</time>
      </trkpt>
      <trkpt lat="48.06339" lon="-1.5276">
        <ele>71.66425</ele>
        <time>2021-12-26T08:44:51.000Z</time>
      </trkpt>
      <trkpt lat="48.06337" lon="-1.52762">
        <ele>71.8721</ele>
        <time>2021-12-26T08:44:52.000Z</time>
      </trkpt>
      <trkpt lat="48.06334" lon="-1.52763">
        <ele>72.05377</ele>
        <time>2021-12-26T08:44:53.000Z</time>
      </trkpt>
      <trkpt lat="48.06332" lon="-1.52765">
        <ele>72.2219</ele>
        <time>2021-12-26T08:44:54.000Z</time>
      </trkpt>
      <trkpt lat="48.0633" lon="-1.52767">
        <ele>72.38812</ele>
        <time>2021-12-26T08:44:55.000Z</time>
      </trkpt>
      <trkpt lat="48.06327" lon="-1.52768">
        <ele>72.53864</ele>
        <time>2021-12-26T08:44:56.000Z</time>
      </trkpt>
      <trkpt lat="48.06325" lon="-1.5277">
        <ele>72.67715</ele>
        <time>2021-12-26T08:44:57.000Z</time>
      </trkpt>
      <trkpt lat="48.06323" lon="-1.52772">
        <ele>72.79873</ele>
        <time>2021-12-26T08:44:58.000Z</time>
      </trkpt>
      <trkpt lat="48.0632" lon="-1.52773">
        <ele>72.91359</ele>
        <time>2021-12-26T08:44:59.000Z</time>
      </trkpt>
      <trkpt lat="48.06318" lon="-1.52774">
        <ele>73.0305</ele>
        <time>2021-12-26T08:45:00.000Z</time>
      </trkpt>
      <trkpt lat="48.06315" lon="-1.52775">
        <ele>73.14024</ele>
        <time>2021-12-26T08:45:01.000Z</time>
      </trkpt>
      <trkpt lat="48.06313" lon="-1.52777">
        <ele>73.25928</ele>
        <time>2021-12-26T08:45:02.000Z</time>
      </trkpt>
      <trkpt lat="48.0631" lon="-1.52778">
        <ele>73.38261</ele>
        <time>2021-12-26T08:45:03.000Z</time>
      </trkpt>
      <trkpt lat="48.06308" lon="-1.52779">
        <ele>73.51118</ele>
        <time>2021-12-26T08:45:04.000Z</time>
      </trkpt>
      <trkpt lat="48.06305" lon="-1.52781">
        <ele>73.66021</ele>
        <time>2021-12-26T08:45:05.000Z</time>
      </trkpt>
      <trkpt lat="48.06302" lon="-1.52782">
        <ele>73.84428</ele>
        <time>2021-12-26T08:45:06.000Z</time>
      </trkpt>
      <trkpt lat="48.063" lon="-1.52783">
        <ele>73.99068</ele>
        <time>2021-12-26T08:45:07.000Z</time>
      </trkpt>
      <trkpt lat="48.06297" lon="-1.52784">
        <ele>74.14856</ele>
        <time>2021-12-26T08:45:08.000Z</time>
      </trkpt>
      <trkpt lat="48.06295" lon="-1.52785">
        <ele>74.30664</ele>
        <time>2021-12-26T08:45:09.000Z</time>
      </trkpt>
      <trkpt lat="48.06292" lon="-1.52787">
        <ele>74.46722</ele>
        <time>2021-12-26T08:45:10.000Z</time>
      </trkpt>
      <trkpt lat="48.06289" lon="-1.52788">
        <ele>74.62171</ele>
        <time>2021-12-26T08:45:11.000Z</time>
      </trkpt>
      <trkpt lat="48.06287" lon="-1.52789">
        <ele>74.74955</ele>
        <time>2021-12-26T08:45:12.000Z</time>
      </trkpt>
      <trkpt lat="48.06284" lon="-1.52789">
        <ele>74.84979</ele>
        <time>2021-12-26T08:45:13.000Z</time>
      </trkpt>
      <trkpt lat="48.06281" lon="-1.52789">
        <ele>74.9202</ele>
        <time>2021-12-26T08:45:14.000Z</time>
      </trkpt>
      <trkpt lat="48.06278" lon="-1.5279">
        <ele>74.98781</ele>
        <time>2021-12-26T08:45:15.000Z</time>
      </trkpt>
      <trkpt lat="48.06275" lon="-1.5279">
        <ele>75.04586</ele>
        <time>2021-12-26T08:45:16.000Z</time>
      </trkpt>
      <trkpt lat="48.06272" lon="-1.52791">
        <ele>75.08977</ele>
        <time>2021-12-26T08:45:17.000Z</time>
      </trkpt>
      <trkpt lat="48.06269" lon="-1.52791">
        <ele>75.12937</ele>
        <time>2021-12-26T08:45:18.000Z</time>
      </trkpt>
      <trkpt lat="48.06266" lon="-1.52791">
        <ele>75.16163</ele>
        <time>2021-12-26T08:45:19.000Z</time>
      </trkpt>
      <trkpt lat="48.06263" lon="-1.52791">
        <ele>75.20411</ele>
        <time>2021-12-26T08:45:20.000Z</time>
      </trkpt>
      <trkpt lat="48.06259" lon="-1.52792">
        <ele>75.26152</ele>
        <time>2021-12-26T08:45:21.000Z</time>
      </trkpt>
      <trkpt lat="48.06256" lon="-1.52793">
        <ele>75.3333</ele>
        <time>2021-12-26T08:45:22.000Z</time>
      </trkpt>
      <trkpt lat="48.06252" lon="-1.52794">
        <ele>75.3892</ele>
        <time>2021-12-26T08:45:23.000Z</time>
      </trkpt>
      <trkpt lat="48.06249" lon="-1.52795">
        <ele>75.44154</ele>
        <time>2021-12-26T08:45:24.000Z</time>
      </trkpt>
      <trkpt lat="48.06246" lon="-1.52795">
        <ele>75.4883</ele>
        <time>2021-12-26T08:45:25.000Z</time>
      </trkpt>
      <trkpt lat="48.06243" lon="-1.52797">
        <ele>75.55373</ele>
        <time>2021-12-26T08:45:26.000Z</time>
      </trkpt>
      <trkpt lat="48.06239" lon="-1.52799">
        <ele>75.61352</ele>
        <time>2021-12-26T08:45:27.000Z</time>
      </trkpt>
      <trkpt lat="48.06236" lon="-1.52801">
        <ele>75.67757</ele>
        <time>2021-12-26T08:45:28.000Z</time>
      </trkpt>
      <trkpt lat="48.06232" lon="-1.52803">
        <ele>75.74694</ele>
        <time>2021-12-26T08:45:29.000Z</time>
      </trkpt>
      <trkpt lat="48.06231" lon="-1.52808">
        <ele>75.84977</ele>
        <time>2021-12-26T08:45:30.000Z</time>
      </trkpt>
      <trkpt lat="48.0623" lon="-1.52813">
        <ele>75.97998</ele>
        <time>2021-12-26T08:45:31.000Z</time>
      </trkpt>
      <trkpt lat="48.06229" lon="-1.52818">
        <ele>76.13551</ele>
        <time>2021-12-26T08:45:32.000Z</time>
      </trkpt>
      <trkpt lat="48.06228" lon="-1.52823">
        <ele>76.31137</ele>
        <time>2021-12-26T08:45:33.000Z</time>
      </trkpt>
      <trkpt lat="48.06228" lon="-1.52828">
        <ele>76.51148</ele>
        <time>2021-12-26T08:45:34.000Z</time>
      </trkpt>
      <trkpt lat="48.06227" lon="-1.52833">
        <ele>76.71596</ele>
        <time>2021-12-26T08:45:35.000Z</time>
      </trkpt>
      <trkpt lat="48.06225" lon="-1.52837">
        <ele>76.88346</ele>
        <time>2021-12-26T08:45:36.000Z</time>
      </trkpt>
      <trkpt lat="48.06222" lon="-1.5284">
        <ele>76.97762</ele>
        <time>2021-12-26T08:45:37.000Z</time>
      </trkpt>
      <trkpt lat="48.06219" lon="-1.52842">
        <ele>77.00193</ele>
        <time>2021-12-26T08:45:38.000Z</time>
      </trkpt>
      <trkpt lat="48.06216" lon="-1.52843">
        <ele>77.01732</ele>
        <time>2021-12-26T08:45:39.000Z</time>
      </trkpt>
      <trkpt lat="48.06213" lon="-1.52844">
        <ele>77.01488</ele>
        <time>2021-12-26T08:45:40.000Z</time>
      </trkpt>
      <trkpt lat="48.06209" lon="-1.52844">
        <ele>76.98414</ele>
        <time>2021-12-26T08:45:41.000Z</time>
      </trkpt>
      <trkpt lat="48.06205" lon="-1.52844">
        <ele>76.95839</ele>
        <time>2021-12-26T08:45:42.000Z</time>
      </trkpt>
      <trkpt lat="48.06201" lon="-1.52845">
        <ele>76.93334</ele>
        <time>2021-12-26T08:45:43.000Z</time>
      </trkpt>
      <trkpt lat="48.06198" lon="-1.52845">
        <ele>76.89125</ele>
        <time>2021-12-26T08:45:44.000Z</time>
      </trkpt>
      <trkpt lat="48.06195" lon="-1.52845">
        <ele>76.85534</ele>
        <time>2021-12-26T08:45:45.000Z</time>
      </trkpt>
      <trkpt lat="48.06192" lon="-1.52847">
        <ele>76.85831</ele>
        <time>2021-12-26T08:45:46.000Z</time>
      </trkpt>
      <trkpt lat="48.0619" lon="-1.52848">
        <ele>76.84888</ele>
        <time>2021-12-26T08:45:47.000Z</time>
      </trkpt>
      <trkpt lat="48.06187" lon="-1.52847">
        <ele>76.75711</ele>
        <time>2021-12-26T08:45:48.000Z</time>
      </trkpt>
      <trkpt lat="48.06183" lon="-1.52847">
        <ele>76.6596</ele>
        <time>2021-12-26T08:45:49.000Z</time>
      </trkpt>
      <trkpt lat="48.06179" lon="-1.52848">
        <ele>76.56787</ele>
        <time>2021-12-26T08:45:50.000Z</time>
      </trkpt>
      <trkpt lat="48.06176" lon="-1.52847">
        <ele>76.47152</ele>
        <time>2021-12-26T08:45:51.000Z</time>
      </trkpt>
      <trkpt lat="48.06173" lon="-1.52847">
        <ele>76.38244</ele>
        <time>2021-12-26T08:45:52.000Z</time>
      </trkpt>
      <trkpt lat="48.0617" lon="-1.52847">
        <ele>76.32333</ele>
        <time>2021-12-26T08:45:53.000Z</time>
      </trkpt>
      <trkpt lat="48.06166" lon="-1.52847">
        <ele>76.25692</ele>
        <time>2021-12-26T08:45:54.000Z</time>
      </trkpt>
      <trkpt lat="48.06162" lon="-1.52847">
        <ele>76.18361</ele>
        <time>2021-12-26T08:45:55.000Z</time>
      </trkpt>
      <trkpt lat="48.06158" lon="-1.52847">
        <ele>76.12274</ele>
        <time>2021-12-26T08:45:56.000Z</time>
      </trkpt>
      <trkpt lat="48.06153" lon="-1.52847">
        <ele>76.05959</ele>
        <time>2021-12-26T08:45:57.000Z</time>
      </trkpt>
      <trkpt lat="48.06148" lon="-1.52848">
        <ele>75.99543</ele>
        <time>2021-12-26T08:45:58.000Z</time>
      </trkpt>
      <trkpt lat="48.06144" lon="-1.52848">
        <ele>75.93368</ele>
        <time>2021-12-26T08:45:59.000Z</time>
      </trkpt>
      <trkpt lat="48.06139" lon="-1.5285">
        <ele>75.8773</ele>
        <time>2021-12-26T08:46:00.000Z</time>
      </trkpt>
      <trkpt lat="48.06134" lon="-1.52851">
        <ele>75.81557</ele>
        <time>2021-12-26T08:46:01.000Z</time>
      </trkpt>
      <trkpt lat="48.06129" lon="-1.52852">
        <ele>75.75033</ele>
        <time>2021-12-26T08:46:02.000Z</time>
      </trkpt>
      <trkpt lat="48.06124" lon="-1.52852">
        <ele>75.67295</ele>
        <time>2021-12-26T08:46:03.000Z</time>
      </trkpt>
      <trkpt lat="48.06119" lon="-1.52852">
        <ele>75.5903</ele>
        <time>2021-12-26T08:46:04.000Z</time>
      </trkpt>
      <trkpt lat="48.06115" lon="-1.52852">
        <ele>75.52074</ele>
        <time>2021-12-26T08:46:05.000Z</time>
      </trkpt>
      <trkpt lat="48.0611" lon="-1.52851">
        <ele>75.44974</ele>
        <time>2021-12-26T08:46:06.000Z</time>
      </trkpt>
      <trkpt lat="48.0611" lon="-1.52851">
        <ele>75.44974</ele>
        <time>2021-12-26T08:46:06.000Z</time>
      </trkpt>
      <trkpt lat="48.06107" lon="-1.52851">
        <ele>75.40091</ele>
        <time>2021-12-26T08:46:07.000Z</time>
      </trkpt>
      <trkpt lat="48.06106" lon="-1.52853">
        <ele>75.42379</ele>
        <time>2021-12-26T08:46:08.000Z</time>
      </trkpt>
      <trkpt lat="48.06105" lon="-1.52859">
        <ele>75.5764</ele>
        <time>2021-12-26T08:46:09.000Z</time>
      </trkpt>
      <trkpt lat="48.06104" lon="-1.52864">
        <ele>75.67639</ele>
        <time>2021-12-26T08:46:10.000Z</time>
      </trkpt>
      <trkpt lat="48.06102" lon="-1.5287">
        <ele>75.73821</ele>
        <time>2021-12-26T08:46:11.000Z</time>
      </trkpt>
      <trkpt lat="48.06101" lon="-1.52876">
        <ele>75.77322</ele>
        <time>2021-12-26T08:46:12.000Z</time>
      </trkpt>
      <trkpt lat="48.061" lon="-1.52882">
        <ele>75.75515</ele>
        <time>2021-12-26T08:46:13.000Z</time>
      </trkpt>
      <trkpt lat="48.06099" lon="-1.52889">
        <ele>75.75562</ele>
        <time>2021-12-26T08:46:14.000Z</time>
      </trkpt>
      <trkpt lat="48.06099" lon="-1.52896">
        <ele>75.75484</ele>
        <time>2021-12-26T08:46:15.000Z</time>
      </trkpt>
      <trkpt lat="48.06099" lon="-1.52902">
        <ele>75.74669</ele>
        <time>2021-12-26T08:46:16.000Z</time>
      </trkpt>
      <trkpt lat="48.06099" lon="-1.52909">
        <ele>75.73846</ele>
        <time>2021-12-26T08:46:17.000Z</time>
      </trkpt>
      <trkpt lat="48.06098" lon="-1.52916">
        <ele>75.70974</ele>
        <time>2021-12-26T08:46:18.000Z</time>
      </trkpt>
      <trkpt lat="48.06098" lon="-1.52923">
        <ele>75.67972</ele>
        <time>2021-12-26T08:46:19.000Z</time>
      </trkpt>
      <trkpt lat="48.06099" lon="-1.52929">
        <ele>75.64895</ele>
        <time>2021-12-26T08:46:20.000Z</time>
      </trkpt>
      <trkpt lat="48.06099" lon="-1.52936">
        <ele>75.62448</ele>
        <time>2021-12-26T08:46:21.000Z</time>
      </trkpt>
      <trkpt lat="48.06099" lon="-1.52942">
        <ele>75.58044</ele>
        <time>2021-12-26T08:46:22.000Z</time>
      </trkpt>
      <trkpt lat="48.06099" lon="-1.52949">
        <ele>75.5375</ele>
        <time>2021-12-26T08:46:23.000Z</time>
      </trkpt>
      <trkpt lat="48.06099" lon="-1.52955">
        <ele>75.49049</ele>
        <time>2021-12-26T08:46:24.000Z</time>
      </trkpt>
      <trkpt lat="48.06099" lon="-1.52962">
        <ele>75.44278</ele>
        <time>2021-12-26T08:46:25.000Z</time>
      </trkpt>
      <trkpt lat="48.06099" lon="-1.52969">
        <ele>75.40057</ele>
        <time>2021-12-26T08:46:26.000Z</time>
      </trkpt>
      <trkpt lat="48.06099" lon="-1.52976">
        <ele>75.37045</ele>
        <time>2021-12-26T08:46:27.000Z</time>
      </trkpt>
      <trkpt lat="48.06099" lon="-1.52982">
        <ele>75.32636</ele>
        <time>2021-12-26T08:46:28.000Z</time>
      </trkpt>
      <trkpt lat="48.06099" lon="-1.52989">
        <ele>75.28637</ele>
        <time>2021-12-26T08:46:29.000Z</time>
      </trkpt>
      <trkpt lat="48.06099" lon="-1.52996">
        <ele>75.23809</ele>
        <time>2021-12-26T08:46:30.000Z</time>
      </trkpt>
      <trkpt lat="48.06099" lon="-1.53003">
        <ele>75.19049</ele>
        <time>2021-12-26T08:46:31.000Z</time>
      </trkpt>
      <trkpt lat="48.06099" lon="-1.53009">
        <ele>75.13626</ele>
        <time>2021-12-26T08:46:32.000Z</time>
      </trkpt>
      <trkpt lat="48.061" lon="-1.53016">
        <ele>75.07564</ele>
        <time>2021-12-26T08:46:33.000Z</time>
      </trkpt>
      <trkpt lat="48.061" lon="-1.53022">
        <ele>75.01747</ele>
        <time>2021-12-26T08:46:33.999Z</time>
      </trkpt>
      <trkpt lat="48.061" lon="-1.53028">
        <ele>74.95356</ele>
        <time>2021-12-26T08:46:34.999Z</time>
      </trkpt>
      <trkpt lat="48.061" lon="-1.53035">
        <ele>74.89008</ele>
        <time>2021-12-26T08:46:35.999Z</time>
      </trkpt>
      <trkpt lat="48.061" lon="-1.53042">
        <ele>74.83496</ele>
        <time>2021-12-26T08:46:36.999Z</time>
      </trkpt>
      <trkpt lat="48.061" lon="-1.53048">
        <ele>74.8074</ele>
        <time>2021-12-26T08:46:37.999Z</time>
      </trkpt>
      <trkpt lat="48.061" lon="-1.53055">
        <ele>74.78281</ele>
        <time>2021-12-26T08:46:38.999Z</time>
      </trkpt>
      <trkpt lat="48.061" lon="-1.53061">
        <ele>74.75875</ele>
        <time>2021-12-26T08:46:39.999Z</time>
      </trkpt>
      <trkpt lat="48.061" lon="-1.53068">
        <ele>74.71685</ele>
        <time>2021-12-26T08:46:40.999Z</time>
      </trkpt>
      <trkpt lat="48.061" lon="-1.53075">
        <ele>74.63731</ele>
        <time>2021-12-26T08:46:41.999Z</time>
      </trkpt>
      <trkpt lat="48.061" lon="-1.53082">
        <ele>74.53453</ele>
        <time>2021-12-26T08:46:42.999Z</time>
      </trkpt>
      <trkpt lat="48.061" lon="-1.53089">
        <ele>74.40182</ele>
        <time>2021-12-26T08:46:43.999Z</time>
      </trkpt>
      <trkpt lat="48.061" lon="-1.53097">
        <ele>74.2611</ele>
        <time>2021-12-26T08:46:44.999Z</time>
      </trkpt>
      <trkpt lat="48.06101" lon="-1.53104">
        <ele>74.14771</ele>
        <time>2021-12-26T08:46:45.999Z</time>
      </trkpt>
      <trkpt lat="48.06101" lon="-1.53111">
        <ele>74.04605</ele>
        <time>2021-12-26T08:46:46.999Z</time>
      </trkpt>
      <trkpt lat="48.061" lon="-1.53119">
        <ele>73.94521</ele>
        <time>2021-12-26T08:46:47.999Z</time>
      </trkpt>
      <trkpt lat="48.06101" lon="-1.53126">
        <ele>73.86808</ele>
        <time>2021-12-26T08:46:48.999Z</time>
      </trkpt>
      <trkpt lat="48.06101" lon="-1.53134">
        <ele>73.7965</ele>
        <time>2021-12-26T08:46:49.999Z</time>
      </trkpt>
      <trkpt lat="48.06101" lon="-1.53141">
        <ele>73.73643</ele>
        <time>2021-12-26T08:46:50.999Z</time>
      </trkpt>
      <trkpt lat="48.06101" lon="-1.53148">
        <ele>73.69659</ele>
        <time>2021-12-26T08:46:51.999Z</time>
      </trkpt>
      <trkpt lat="48.06101" lon="-1.53156">
        <ele>73.66712</ele>
        <time>2021-12-26T08:46:52.999Z</time>
      </trkpt>
      <trkpt lat="48.06101" lon="-1.53163">
        <ele>73.63918</ele>
        <time>2021-12-26T08:46:53.999Z</time>
      </trkpt>
      <trkpt lat="48.06101" lon="-1.5317">
        <ele>73.61686</ele>
        <time>2021-12-26T08:46:54.999Z</time>
      </trkpt>
      <trkpt lat="48.06101" lon="-1.53177">
        <ele>73.60098</ele>
        <time>2021-12-26T08:46:55.999Z</time>
      </trkpt>
      <trkpt lat="48.06101" lon="-1.53184">
        <ele>73.59168</ele>
        <time>2021-12-26T08:46:56.999Z</time>
      </trkpt>
      <trkpt lat="48.06101" lon="-1.53191">
        <ele>73.60108</ele>
        <time>2021-12-26T08:46:57.999Z</time>
      </trkpt>
      <trkpt lat="48.06101" lon="-1.53197">
        <ele>73.5965</ele>
        <time>2021-12-26T08:46:58.999Z</time>
      </trkpt>
      <trkpt lat="48.06101" lon="-1.53203">
        <ele>73.59759</ele>
        <time>2021-12-26T08:46:59.999Z</time>
      </trkpt>
      <trkpt lat="48.06101" lon="-1.5321">
        <ele>73.58325</ele>
        <time>2021-12-26T08:47:00.999Z</time>
      </trkpt>
      <trkpt lat="48.06101" lon="-1.53217">
        <ele>73.56898</ele>
        <time>2021-12-26T08:47:01.999Z</time>
      </trkpt>
      <trkpt lat="48.06102" lon="-1.53224">
        <ele>73.55938</ele>
        <time>2021-12-26T08:47:02.999Z</time>
      </trkpt>
      <trkpt lat="48.06102" lon="-1.53231">
        <ele>73.54403</ele>
        <time>2021-12-26T08:47:03.999Z</time>
      </trkpt>
      <trkpt lat="48.06102" lon="-1.53238">
        <ele>73.51624</ele>
        <time>2021-12-26T08:47:04.999Z</time>
      </trkpt>
      <trkpt lat="48.06102" lon="-1.53244">
        <ele>73.48153</ele>
        <time>2021-12-26T08:47:05.999Z</time>
      </trkpt>
      <trkpt lat="48.06102" lon="-1.53251">
        <ele>73.45552</ele>
        <time>2021-12-26T08:47:06.999Z</time>
      </trkpt>
      <trkpt lat="48.06102" lon="-1.53258">
        <ele>73.4479</ele>
        <time>2021-12-26T08:47:07.999Z</time>
      </trkpt>
      <trkpt lat="48.06102" lon="-1.53265">
        <ele>73.42876</ele>
        <time>2021-12-26T08:47:08.999Z</time>
      </trkpt>
      <trkpt lat="48.06102" lon="-1.53271">
        <ele>73.40822</ele>
        <time>2021-12-26T08:47:09.999Z</time>
      </trkpt>
      <trkpt lat="48.06102" lon="-1.53277">
        <ele>73.37446</ele>
        <time>2021-12-26T08:47:10.999Z</time>
      </trkpt>
      <trkpt lat="48.06102" lon="-1.53284">
        <ele>73.33033</ele>
        <time>2021-12-26T08:47:11.999Z</time>
      </trkpt>
      <trkpt lat="48.06102" lon="-1.5329">
        <ele>73.27763</ele>
        <time>2021-12-26T08:47:12.999Z</time>
      </trkpt>
      <trkpt lat="48.06102" lon="-1.53296">
        <ele>73.23384</ele>
        <time>2021-12-26T08:47:13.999Z</time>
      </trkpt>
      <trkpt lat="48.06103" lon="-1.53303">
        <ele>73.19564</ele>
        <time>2021-12-26T08:47:14.999Z</time>
      </trkpt>
      <trkpt lat="48.06103" lon="-1.53309">
        <ele>73.16279</ele>
        <time>2021-12-26T08:47:15.999Z</time>
      </trkpt>
      <trkpt lat="48.06103" lon="-1.53316">
        <ele>73.13293</ele>
        <time>2021-12-26T08:47:16.999Z</time>
      </trkpt>
      <trkpt lat="48.06102" lon="-1.53322">
        <ele>73.09827</ele>
        <time>2021-12-26T08:47:17.999Z</time>
      </trkpt>
      <trkpt lat="48.06102" lon="-1.53328">
        <ele>73.07076</ele>
        <time>2021-12-26T08:47:18.999Z</time>
      </trkpt>
      <trkpt lat="48.06102" lon="-1.53335">
        <ele>73.03812</ele>
        <time>2021-12-26T08:47:19.999Z</time>
      </trkpt>
      <trkpt lat="48.06102" lon="-1.53342">
        <ele>73.00598</ele>
        <time>2021-12-26T08:47:20.999Z</time>
      </trkpt>
      <trkpt lat="48.06101" lon="-1.53349">
        <ele>72.97185</ele>
        <time>2021-12-26T08:47:21.999Z</time>
      </trkpt>
      <trkpt lat="48.06101" lon="-1.53355">
        <ele>72.93547</ele>
        <time>2021-12-26T08:47:22.999Z</time>
      </trkpt>
      <trkpt lat="48.06101" lon="-1.53362">
        <ele>72.90024</ele>
        <time>2021-12-26T08:47:23.999Z</time>
      </trkpt>
      <trkpt lat="48.06101" lon="-1.53369">
        <ele>72.86284</ele>
        <time>2021-12-26T08:47:24.999Z</time>
      </trkpt>
      <trkpt lat="48.061" lon="-1.53376">
        <ele>72.81199</ele>
        <time>2021-12-26T08:47:25.999Z</time>
      </trkpt>
      <trkpt lat="48.06099" lon="-1.53383">
        <ele>72.76249</ele>
        <time>2021-12-26T08:47:26.999Z</time>
      </trkpt>
      <trkpt lat="48.06099" lon="-1.5339">
        <ele>72.71476</ele>
        <time>2021-12-26T08:47:27.999Z</time>
      </trkpt>
      <trkpt lat="48.06098" lon="-1.53396">
        <ele>72.65868</ele>
        <time>2021-12-26T08:47:28.999Z</time>
      </trkpt>
      <trkpt lat="48.06098" lon="-1.53403">
        <ele>72.58971</ele>
        <time>2021-12-26T08:47:29.999Z</time>
      </trkpt>
      <trkpt lat="48.06098" lon="-1.5341">
        <ele>72.49748</ele>
        <time>2021-12-26T08:47:30.999Z</time>
      </trkpt>
      <trkpt lat="48.06098" lon="-1.53417">
        <ele>72.37004</ele>
        <time>2021-12-26T08:47:31.999Z</time>
      </trkpt>
      <trkpt lat="48.06097" lon="-1.53424">
        <ele>72.21314</ele>
        <time>2021-12-26T08:47:32.999Z</time>
      </trkpt>
      <trkpt lat="48.06098" lon="-1.53432">
        <ele>72.06805</ele>
        <time>2021-12-26T08:47:33.999Z</time>
      </trkpt>
      <trkpt lat="48.06098" lon="-1.53438">
        <ele>71.95794</ele>
        <time>2021-12-26T08:47:34.999Z</time>
      </trkpt>
      <trkpt lat="48.06098" lon="-1.53445">
        <ele>71.88786</ele>
        <time>2021-12-26T08:47:35.999Z</time>
      </trkpt>
      <trkpt lat="48.06098" lon="-1.53452">
        <ele>71.84935</ele>
        <time>2021-12-26T08:47:36.999Z</time>
      </trkpt>
      <trkpt lat="48.06098" lon="-1.53459">
        <ele>71.83746</ele>
        <time>2021-12-26T08:47:37.999Z</time>
      </trkpt>
      <trkpt lat="48.06099" lon="-1.53465">
        <ele>71.82478</ele>
        <time>2021-12-26T08:47:38.999Z</time>
      </trkpt>
      <trkpt lat="48.06099" lon="-1.53472">
        <ele>71.8036</ele>
        <time>2021-12-26T08:47:39.999Z</time>
      </trkpt>
      <trkpt lat="48.06099" lon="-1.53479">
        <ele>71.76528</ele>
        <time>2021-12-26T08:47:40.999Z</time>
      </trkpt>
      <trkpt lat="48.061" lon="-1.53485">
        <ele>71.71434</ele>
        <time>2021-12-26T08:47:41.999Z</time>
      </trkpt>
      <trkpt lat="48.061" lon="-1.53492">
        <ele>71.65862</ele>
        <time>2021-12-26T08:47:42.999Z</time>
      </trkpt>
      <trkpt lat="48.06101" lon="-1.53498">
        <ele>71.60024</ele>
        <time>2021-12-26T08:47:43.999Z</time>
      </trkpt>
      <trkpt lat="48.06101" lon="-1.53504">
        <ele>71.54284</ele>
        <time>2021-12-26T08:47:44.999Z</time>
      </trkpt>
      <trkpt lat="48.06102" lon="-1.53511">
        <ele>71.49474</ele>
        <time>2021-12-26T08:47:45.999Z</time>
      </trkpt>
      <trkpt lat="48.06102" lon="-1.53517">
        <ele>71.44882</ele>
        <time>2021-12-26T08:47:46.999Z</time>
      </trkpt>
      <trkpt lat="48.06103" lon="-1.53524">
        <ele>71.40456</ele>
        <time>2021-12-26T08:47:47.999Z</time>
      </trkpt>
      <trkpt lat="48.06104" lon="-1.5353">
        <ele>71.36692</ele>
        <time>2021-12-26T08:47:48.999Z</time>
      </trkpt>
      <trkpt lat="48.06104" lon="-1.53537">
        <ele>71.33418</ele>
        <time>2021-12-26T08:47:49.999Z</time>
      </trkpt>
      <trkpt lat="48.06104" lon="-1.53543">
        <ele>71.30591</ele>
        <time>2021-12-26T08:47:50.999Z</time>
      </trkpt>
      <trkpt lat="48.06104" lon="-1.53549">
        <ele>71.2865</ele>
        <time>2021-12-26T08:47:51.999Z</time>
      </trkpt>
      <trkpt lat="48.06104" lon="-1.53556">
        <ele>71.27307</ele>
        <time>2021-12-26T08:47:52.999Z</time>
      </trkpt>
      <trkpt lat="48.06104" lon="-1.53562">
        <ele>71.26495</ele>
        <time>2021-12-26T08:47:53.999Z</time>
      </trkpt>
      <trkpt lat="48.06104" lon="-1.53562">
        <ele>71.26495</ele>
        <time>2021-12-26T08:47:53.999Z</time>
      </trkpt>
      <trkpt lat="48.06103" lon="-1.53568">
        <ele>71.26593</ele>
        <time>2021-12-26T08:47:54.999Z</time>
      </trkpt>
      <trkpt lat="48.06101" lon="-1.53574">
        <ele>71.29429</ele>
        <time>2021-12-26T08:47:55.999Z</time>
      </trkpt>
      <trkpt lat="48.061" lon="-1.53579">
        <ele>71.32554</ele>
        <time>2021-12-26T08:47:56.999Z</time>
      </trkpt>
      <trkpt lat="48.06096" lon="-1.53582">
        <ele>71.39907</ele>
        <time>2021-12-26T08:47:57.999Z</time>
      </trkpt>
      <trkpt lat="48.06092" lon="-1.53584">
        <ele>71.45637</ele>
        <time>2021-12-26T08:47:58.999Z</time>
      </trkpt>
      <trkpt lat="48.06089" lon="-1.53583">
        <ele>71.52851</ele>
        <time>2021-12-26T08:47:59.999Z</time>
      </trkpt>
      <trkpt lat="48.06085" lon="-1.53581">
        <ele>71.60369</ele>
        <time>2021-12-26T08:48:00.999Z</time>
      </trkpt>
      <trkpt lat="48.0608" lon="-1.53579">
        <ele>71.68215</ele>
        <time>2021-12-26T08:48:01.999Z</time>
      </trkpt>
      <trkpt lat="48.06076" lon="-1.53579">
        <ele>71.74025</ele>
        <time>2021-12-26T08:48:02.999Z</time>
      </trkpt>
      <trkpt lat="48.06071" lon="-1.53577">
        <ele>71.78146</ele>
        <time>2021-12-26T08:48:03.999Z</time>
      </trkpt>
      <trkpt lat="48.06067" lon="-1.53576">
        <ele>71.79701</ele>
        <time>2021-12-26T08:48:04.999Z</time>
      </trkpt>
      <trkpt lat="48.06063" lon="-1.53575">
        <ele>71.78607</ele>
        <time>2021-12-26T08:48:05.999Z</time>
      </trkpt>
      <trkpt lat="48.06058" lon="-1.53573">
        <ele>71.75566</ele>
        <time>2021-12-26T08:48:06.999Z</time>
      </trkpt>
      <trkpt lat="48.06054" lon="-1.53572">
        <ele>71.71499</ele>
        <time>2021-12-26T08:48:07.999Z</time>
      </trkpt>
      <trkpt lat="48.06049" lon="-1.53571">
        <ele>71.67936</ele>
        <time>2021-12-26T08:48:08.999Z</time>
      </trkpt>
      <trkpt lat="48.06044" lon="-1.5357">
        <ele>71.64122</ele>
        <time>2021-12-26T08:48:09.999Z</time>
      </trkpt>
      <trkpt lat="48.0604" lon="-1.5357">
        <ele>71.60155</ele>
        <time>2021-12-26T08:48:10.999Z</time>
      </trkpt>
      <trkpt lat="48.06035" lon="-1.53569">
        <ele>71.55736</ele>
        <time>2021-12-26T08:48:11.999Z</time>
      </trkpt>
      <trkpt lat="48.06031" lon="-1.53569">
        <ele>71.51158</ele>
        <time>2021-12-26T08:48:12.999Z</time>
      </trkpt>
      <trkpt lat="48.06026" lon="-1.53569">
        <ele>71.45562</ele>
        <time>2021-12-26T08:48:13.999Z</time>
      </trkpt>
      <trkpt lat="48.06022" lon="-1.53568">
        <ele>71.3682</ele>
        <time>2021-12-26T08:48:14.999Z</time>
      </trkpt>
      <trkpt lat="48.06017" lon="-1.53568">
        <ele>71.28276</ele>
        <time>2021-12-26T08:48:15.999Z</time>
      </trkpt>
      <trkpt lat="48.06013" lon="-1.53568">
        <ele>71.20084</ele>
        <time>2021-12-26T08:48:16.999Z</time>
      </trkpt>
      <trkpt lat="48.06009" lon="-1.53568">
        <ele>71.12328</ele>
        <time>2021-12-26T08:48:17.999Z</time>
      </trkpt>
      <trkpt lat="48.06004" lon="-1.53567">
        <ele>71.05465</ele>
        <time>2021-12-26T08:48:18.999Z</time>
      </trkpt>
      <trkpt lat="48.05999" lon="-1.53567">
        <ele>71.00014</ele>
        <time>2021-12-26T08:48:19.999Z</time>
      </trkpt>
      <trkpt lat="48.05995" lon="-1.53568">
        <ele>70.96516</ele>
        <time>2021-12-26T08:48:20.999Z</time>
      </trkpt>
      <trkpt lat="48.05991" lon="-1.53569">
        <ele>70.9247</ele>
        <time>2021-12-26T08:48:21.999Z</time>
      </trkpt>
      <trkpt lat="48.05986" lon="-1.5357">
        <ele>70.88477</ele>
        <time>2021-12-26T08:48:22.999Z</time>
      </trkpt>
      <trkpt lat="48.05982" lon="-1.53571">
        <ele>70.83444</ele>
        <time>2021-12-26T08:48:23.999Z</time>
      </trkpt>
      <trkpt lat="48.05977" lon="-1.53571">
        <ele>70.76439</ele>
        <time>2021-12-26T08:48:24.999Z</time>
      </trkpt>
      <trkpt lat="48.05972" lon="-1.53571">
        <ele>70.68211</ele>
        <time>2021-12-26T08:48:25.999Z</time>
      </trkpt>
      <trkpt lat="48.05967" lon="-1.53572">
        <ele>70.59926</ele>
        <time>2021-12-26T08:48:26.999Z</time>
      </trkpt>
      <trkpt lat="48.05963" lon="-1.53572">
        <ele>70.53064</ele>
        <time>2021-12-26T08:48:27.999Z</time>
      </trkpt>
      <trkpt lat="48.05958" lon="-1.53572">
        <ele>70.48154</ele>
        <time>2021-12-26T08:48:28.999Z</time>
      </trkpt>
      <trkpt lat="48.05953" lon="-1.53573">
        <ele>70.44704</ele>
        <time>2021-12-26T08:48:29.999Z</time>
      </trkpt>
      <trkpt lat="48.05949" lon="-1.53574">
        <ele>70.41833</ele>
        <time>2021-12-26T08:48:30.999Z</time>
      </trkpt>
      <trkpt lat="48.05944" lon="-1.53575">
        <ele>70.39229</ele>
        <time>2021-12-26T08:48:31.999Z</time>
      </trkpt>
      <trkpt lat="48.05939" lon="-1.53576">
        <ele>70.35885</ele>
        <time>2021-12-26T08:48:32.999Z</time>
      </trkpt>
      <trkpt lat="48.05934" lon="-1.53577">
        <ele>70.31444</ele>
        <time>2021-12-26T08:48:33.999Z</time>
      </trkpt>
      <trkpt lat="48.05929" lon="-1.53577">
        <ele>70.26396</ele>
        <time>2021-12-26T08:48:34.999Z</time>
      </trkpt>
      <trkpt lat="48.05924" lon="-1.53577">
        <ele>70.2087</ele>
        <time>2021-12-26T08:48:35.999Z</time>
      </trkpt>
      <trkpt lat="48.05919" lon="-1.53578">
        <ele>70.15868</ele>
        <time>2021-12-26T08:48:36.999Z</time>
      </trkpt>
      <trkpt lat="48.05914" lon="-1.53579">
        <ele>70.11406</ele>
        <time>2021-12-26T08:48:37.999Z</time>
      </trkpt>
      <trkpt lat="48.05909" lon="-1.53579">
        <ele>70.07534</ele>
        <time>2021-12-26T08:48:38.999Z</time>
      </trkpt>
      <trkpt lat="48.05903" lon="-1.53579">
        <ele>70.04093</ele>
        <time>2021-12-26T08:48:39.999Z</time>
      </trkpt>
      <trkpt lat="48.05898" lon="-1.53579">
        <ele>70.00828</ele>
        <time>2021-12-26T08:48:40.999Z</time>
      </trkpt>
      <trkpt lat="48.05893" lon="-1.53579">
        <ele>69.97204</ele>
        <time>2021-12-26T08:48:41.999Z</time>
      </trkpt>
      <trkpt lat="48.05888" lon="-1.5358">
        <ele>69.93293</ele>
        <time>2021-12-26T08:48:42.999Z</time>
      </trkpt>
      <trkpt lat="48.05882" lon="-1.5358">
        <ele>69.89206</ele>
        <time>2021-12-26T08:48:43.999Z</time>
      </trkpt>
      <trkpt lat="48.05877" lon="-1.53581">
        <ele>69.8475</ele>
        <time>2021-12-26T08:48:44.999Z</time>
      </trkpt>
      <trkpt lat="48.05872" lon="-1.53581">
        <ele>69.79825</ele>
        <time>2021-12-26T08:48:45.999Z</time>
      </trkpt>
      <trkpt lat="48.05867" lon="-1.53581">
        <ele>69.74361</ele>
        <time>2021-12-26T08:48:46.999Z</time>
      </trkpt>
      <trkpt lat="48.05861" lon="-1.53582">
        <ele>69.68615</ele>
        <time>2021-12-26T08:48:47.999Z</time>
      </trkpt>
      <trkpt lat="48.05856" lon="-1.53582">
        <ele>69.62862</ele>
        <time>2021-12-26T08:48:48.999Z</time>
      </trkpt>
      <trkpt lat="48.05851" lon="-1.53582">
        <ele>69.57783</ele>
        <time>2021-12-26T08:48:49.999Z</time>
      </trkpt>
      <trkpt lat="48.05845" lon="-1.53582">
        <ele>69.53713</ele>
        <time>2021-12-26T08:48:50.999Z</time>
      </trkpt>
      <trkpt lat="48.0584" lon="-1.53582">
        <ele>69.50028</ele>
        <time>2021-12-26T08:48:51.999Z</time>
      </trkpt>
      <trkpt lat="48.05834" lon="-1.53582">
        <ele>69.46972</ele>
        <time>2021-12-26T08:48:52.999Z</time>
      </trkpt>
      <trkpt lat="48.05828" lon="-1.53582">
        <ele>69.45089</ele>
        <time>2021-12-26T08:48:53.999Z</time>
      </trkpt>
      <trkpt lat="48.05823" lon="-1.53581">
        <ele>69.4139</ele>
        <time>2021-12-26T08:48:54.999Z</time>
      </trkpt>
      <trkpt lat="48.05817" lon="-1.5358">
        <ele>69.38693</ele>
        <time>2021-12-26T08:48:55.999Z</time>
      </trkpt>
      <trkpt lat="48.05812" lon="-1.5358">
        <ele>69.39056</ele>
        <time>2021-12-26T08:48:56.999Z</time>
      </trkpt>
      <trkpt lat="48.05807" lon="-1.53582">
        <ele>69.42928</ele>
        <time>2021-12-26T08:48:57.999Z</time>
      </trkpt>
      <trkpt lat="48.05802" lon="-1.53583">
        <ele>69.51072</ele>
        <time>2021-12-26T08:48:58.999Z</time>
      </trkpt>
      <trkpt lat="48.05797" lon="-1.53585">
        <ele>69.64609</ele>
        <time>2021-12-26T08:48:59.999Z</time>
      </trkpt>
      <trkpt lat="48.05792" lon="-1.53587">
        <ele>69.80454</ele>
        <time>2021-12-26T08:49:00.999Z</time>
      </trkpt>
      <trkpt lat="48.05788" lon="-1.53589">
        <ele>69.97409</ele>
        <time>2021-12-26T08:49:01.999Z</time>
      </trkpt>
      <trkpt lat="48.05784" lon="-1.53591">
        <ele>70.13617</ele>
        <time>2021-12-26T08:49:02.999Z</time>
      </trkpt>
      <trkpt lat="48.0578" lon="-1.53593">
        <ele>70.29483</ele>
        <time>2021-12-26T08:49:03.999Z</time>
      </trkpt>
      <trkpt lat="48.05776" lon="-1.53596">
        <ele>70.44061</ele>
        <time>2021-12-26T08:49:04.999Z</time>
      </trkpt>
      <trkpt lat="48.05774" lon="-1.53602">
        <ele>70.58578</ele>
        <time>2021-12-26T08:49:05.999Z</time>
      </trkpt>
      <trkpt lat="48.05774" lon="-1.53602">
        <ele>70.58578</ele>
        <time>2021-12-26T08:49:05.999Z</time>
      </trkpt>
      <trkpt lat="48.05773" lon="-1.53608">
        <ele>70.6881</ele>
        <time>2021-12-26T08:49:06.999Z</time>
      </trkpt>
      <trkpt lat="48.05774" lon="-1.53615">
        <ele>70.76341</ele>
        <time>2021-12-26T08:49:07.999Z</time>
      </trkpt>
      <trkpt lat="48.05774" lon="-1.53621">
        <ele>70.83368</ele>
        <time>2021-12-26T08:49:08.999Z</time>
      </trkpt>
      <trkpt lat="48.05775" lon="-1.53628">
        <ele>70.90207</ele>
        <time>2021-12-26T08:49:09.999Z</time>
      </trkpt>
      <trkpt lat="48.05776" lon="-1.53635">
        <ele>70.97974</ele>
        <time>2021-12-26T08:49:10.999Z</time>
      </trkpt>
      <trkpt lat="48.05777" lon="-1.53643">
        <ele>71.05591</ele>
        <time>2021-12-26T08:49:11.999Z</time>
      </trkpt>
      <trkpt lat="48.05778" lon="-1.5365">
        <ele>71.11564</ele>
        <time>2021-12-26T08:49:12.999Z</time>
      </trkpt>
      <trkpt lat="48.05778" lon="-1.53657">
        <ele>71.16445</ele>
        <time>2021-12-26T08:49:13.999Z</time>
      </trkpt>
      <trkpt lat="48.05779" lon="-1.53664">
        <ele>71.20723</ele>
        <time>2021-12-26T08:49:14.999Z</time>
      </trkpt>
      <trkpt lat="48.0578" lon="-1.53671">
        <ele>71.25589</ele>
        <time>2021-12-26T08:49:15.999Z</time>
      </trkpt>
      <trkpt lat="48.0578" lon="-1.53679">
        <ele>71.31279</ele>
        <time>2021-12-26T08:49:16.999Z</time>
      </trkpt>
      <trkpt lat="48.05781" lon="-1.53686">
        <ele>71.3853</ele>
        <time>2021-12-26T08:49:17.999Z</time>
      </trkpt>
      <trkpt lat="48.05782" lon="-1.53693">
        <ele>71.46568</ele>
        <time>2021-12-26T08:49:18.999Z</time>
      </trkpt>
      <trkpt lat="48.05783" lon="-1.537">
        <ele>71.54698</ele>
        <time>2021-12-26T08:49:19.999Z</time>
      </trkpt>
      <trkpt lat="48.05784" lon="-1.53708">
        <ele>71.62656</ele>
        <time>2021-12-26T08:49:20.999Z</time>
      </trkpt>
      <trkpt lat="48.05785" lon="-1.53715">
        <ele>71.70673</ele>
        <time>2021-12-26T08:49:21.999Z</time>
      </trkpt>
      <trkpt lat="48.05785" lon="-1.53722">
        <ele>71.77923</ele>
        <time>2021-12-26T08:49:22.999Z</time>
      </trkpt>
      <trkpt lat="48.05786" lon="-1.5373">
        <ele>71.85038</ele>
        <time>2021-12-26T08:49:23.999Z</time>
      </trkpt>
      <trkpt lat="48.05787" lon="-1.53737">
        <ele>71.91526</ele>
        <time>2021-12-26T08:49:24.999Z</time>
      </trkpt>
      <trkpt lat="48.05788" lon="-1.53745">
        <ele>71.97768</ele>
        <time>2021-12-26T08:49:25.999Z</time>
      </trkpt>
      <trkpt lat="48.05789" lon="-1.53752">
        <ele>72.03473</ele>
        <time>2021-12-26T08:49:26.999Z</time>
      </trkpt>
      <trkpt lat="48.05791" lon="-1.5376">
        <ele>72.08113</ele>
        <time>2021-12-26T08:49:27.999Z</time>
      </trkpt>
      <trkpt lat="48.05792" lon="-1.53767">
        <ele>72.11493</ele>
        <time>2021-12-26T08:49:28.999Z</time>
      </trkpt>
      <trkpt lat="48.05793" lon="-1.53775">
        <ele>72.14331</ele>
        <time>2021-12-26T08:49:29.999Z</time>
      </trkpt>
      <trkpt lat="48.05795" lon="-1.53782">
        <ele>72.18037</ele>
        <time>2021-12-26T08:49:30.999Z</time>
      </trkpt>
      <trkpt lat="48.05797" lon="-1.5379">
        <ele>72.24265</ele>
        <time>2021-12-26T08:49:31.999Z</time>
      </trkpt>
      <trkpt lat="48.05799" lon="-1.53797">
        <ele>72.33623</ele>
        <time>2021-12-26T08:49:32.999Z</time>
      </trkpt>
      <trkpt lat="48.05801" lon="-1.53804">
        <ele>72.43877</ele>
        <time>2021-12-26T08:49:33.999Z</time>
      </trkpt>
      <trkpt lat="48.05803" lon="-1.53812">
        <ele>72.52212</ele>
        <time>2021-12-26T08:49:34.999Z</time>
      </trkpt>
      <trkpt lat="48.05805" lon="-1.53819">
        <ele>72.56646</ele>
        <time>2021-12-26T08:49:35.999Z</time>
      </trkpt>
      <trkpt lat="48.05807" lon="-1.53826">
        <ele>72.56397</ele>
        <time>2021-12-26T08:49:36.999Z</time>
      </trkpt>
      <trkpt lat="48.0581" lon="-1.53833">
        <ele>72.51015</ele>
        <time>2021-12-26T08:49:37.999Z</time>
      </trkpt>
      <trkpt lat="48.05812" lon="-1.5384">
        <ele>72.41039</ele>
        <time>2021-12-26T08:49:38.999Z</time>
      </trkpt>
      <trkpt lat="48.05815" lon="-1.53846">
        <ele>72.29261</ele>
        <time>2021-12-26T08:49:39.999Z</time>
      </trkpt>
      <trkpt lat="48.05818" lon="-1.53853">
        <ele>72.19071</ele>
        <time>2021-12-26T08:49:40.999Z</time>
      </trkpt>
      <trkpt lat="48.05821" lon="-1.53859">
        <ele>72.11848</ele>
        <time>2021-12-26T08:49:41.999Z</time>
      </trkpt>
      <trkpt lat="48.05824" lon="-1.53866">
        <ele>72.07269</ele>
        <time>2021-12-26T08:49:42.999Z</time>
      </trkpt>
      <trkpt lat="48.05827" lon="-1.53872">
        <ele>72.02427</ele>
        <time>2021-12-26T08:49:43.999Z</time>
      </trkpt>
      <trkpt lat="48.0583" lon="-1.53879">
        <ele>71.95577</ele>
        <time>2021-12-26T08:49:44.999Z</time>
      </trkpt>
      <trkpt lat="48.05834" lon="-1.53885">
        <ele>71.86619</ele>
        <time>2021-12-26T08:49:45.999Z</time>
      </trkpt>
      <trkpt lat="48.05838" lon="-1.53891">
        <ele>71.77536</ele>
        <time>2021-12-26T08:49:46.999Z</time>
      </trkpt>
      <trkpt lat="48.05841" lon="-1.53898">
        <ele>71.6937</ele>
        <time>2021-12-26T08:49:47.999Z</time>
      </trkpt>
      <trkpt lat="48.05845" lon="-1.53904">
        <ele>71.64018</ele>
        <time>2021-12-26T08:49:48.999Z</time>
      </trkpt>
      <trkpt lat="48.05848" lon="-1.53911">
        <ele>71.5921</ele>
        <time>2021-12-26T08:49:49.999Z</time>
      </trkpt>
      <trkpt lat="48.05852" lon="-1.53917">
        <ele>71.55043</ele>
        <time>2021-12-26T08:49:50.999Z</time>
      </trkpt>
      <trkpt lat="48.05856" lon="-1.53924">
        <ele>71.48752</ele>
        <time>2021-12-26T08:49:51.999Z</time>
      </trkpt>
      <trkpt lat="48.0586" lon="-1.53931">
        <ele>71.38041</ele>
        <time>2021-12-26T08:49:52.999Z</time>
      </trkpt>
      <trkpt lat="48.05864" lon="-1.53938">
        <ele>71.26759</ele>
        <time>2021-12-26T08:49:53.999Z</time>
      </trkpt>
      <trkpt lat="48.05868" lon="-1.53945">
        <ele>71.15619</ele>
        <time>2021-12-26T08:49:54.999Z</time>
      </trkpt>
      <trkpt lat="48.05872" lon="-1.53952">
        <ele>71.06609</ele>
        <time>2021-12-26T08:49:55.999Z</time>
      </trkpt>
      <trkpt lat="48.05876" lon="-1.53959">
        <ele>70.9883</ele>
        <time>2021-12-26T08:49:56.999Z</time>
      </trkpt>
      <trkpt lat="48.0588" lon="-1.53966">
        <ele>70.90718</ele>
        <time>2021-12-26T08:49:57.999Z</time>
      </trkpt>
      <trkpt lat="48.05884" lon="-1.53973">
        <ele>70.79617</ele>
        <time>2021-12-26T08:49:58.999Z</time>
      </trkpt>
      <trkpt lat="48.05888" lon="-1.53979">
        <ele>70.65155</ele>
        <time>2021-12-26T08:49:59.999Z</time>
      </trkpt>
      <trkpt lat="48.05892" lon="-1.53987">
        <ele>70.48559</ele>
        <time>2021-12-26T08:50:00.999Z</time>
      </trkpt>
      <trkpt lat="48.05896" lon="-1.53994">
        <ele>70.34528</ele>
        <time>2021-12-26T08:50:01.999Z</time>
      </trkpt>
      <trkpt lat="48.05901" lon="-1.54001">
        <ele>70.26159</ele>
        <time>2021-12-26T08:50:02.999Z</time>
      </trkpt>
      <trkpt lat="48.05905" lon="-1.54008">
        <ele>70.21104</ele>
        <time>2021-12-26T08:50:03.999Z</time>
      </trkpt>
      <trkpt lat="48.05909" lon="-1.54015">
        <ele>70.11232</ele>
        <time>2021-12-26T08:50:04.999Z</time>
      </trkpt>
      <trkpt lat="48.05914" lon="-1.54022">
        <ele>69.94206</ele>
        <time>2021-12-26T08:50:05.999Z</time>
      </trkpt>
      <trkpt lat="48.05918" lon="-1.54029">
        <ele>69.76793</ele>
        <time>2021-12-26T08:50:06.999Z</time>
      </trkpt>
      <trkpt lat="48.05922" lon="-1.54036">
        <ele>69.73576</ele>
        <time>2021-12-26T08:50:07.999Z</time>
      </trkpt>
      <trkpt lat="48.05927" lon="-1.54044">
        <ele>69.85229</ele>
        <time>2021-12-26T08:50:08.999Z</time>
      </trkpt>
      <trkpt lat="48.05931" lon="-1.54051">
        <ele>69.82759</ele>
        <time>2021-12-26T08:50:09.999Z</time>
      </trkpt>
      <trkpt lat="48.05935" lon="-1.54059">
        <ele>69.50444</ele>
        <time>2021-12-26T08:50:10.999Z</time>
      </trkpt>
      <trkpt lat="48.05939" lon="-1.54066">
        <ele>68.94361</ele>
        <time>2021-12-26T08:50:11.999Z</time>
      </trkpt>
      <trkpt lat="48.05943" lon="-1.54073">
        <ele>68.33633</ele>
        <time>2021-12-26T08:50:12.999Z</time>
      </trkpt>
      <trkpt lat="48.05947" lon="-1.54081">
        <ele>67.82729</ele>
        <time>2021-12-26T08:50:13.999Z</time>
      </trkpt>
      <trkpt lat="48.0595" lon="-1.54088">
        <ele>67.58043</ele>
        <time>2021-12-26T08:50:14.999Z</time>
      </trkpt>
      <trkpt lat="48.05953" lon="-1.54096">
        <ele>67.60359</ele>
        <time>2021-12-26T08:50:15.999Z</time>
      </trkpt>
      <trkpt lat="48.05956" lon="-1.54105">
        <ele>67.82793</ele>
        <time>2021-12-26T08:50:16.999Z</time>
      </trkpt>
      <trkpt lat="48.05959" lon="-1.54113">
        <ele>68.1703</ele>
        <time>2021-12-26T08:50:17.999Z</time>
      </trkpt>
      <trkpt lat="48.05961" lon="-1.54121">
        <ele>68.53354</ele>
        <time>2021-12-26T08:50:18.999Z</time>
      </trkpt>
      <trkpt lat="48.05963" lon="-1.5413">
        <ele>68.82645</ele>
        <time>2021-12-26T08:50:19.999Z</time>
      </trkpt>
      <trkpt lat="48.05965" lon="-1.54138">
        <ele>68.99684</ele>
        <time>2021-12-26T08:50:20.999Z</time>
      </trkpt>
      <trkpt lat="48.05966" lon="-1.54147">
        <ele>69.06517</ele>
        <time>2021-12-26T08:50:21.999Z</time>
      </trkpt>
      <trkpt lat="48.05967" lon="-1.54156">
        <ele>69.09191</ele>
        <time>2021-12-26T08:50:22.999Z</time>
      </trkpt>
      <trkpt lat="48.05968" lon="-1.54164">
        <ele>69.13368</ele>
        <time>2021-12-26T08:50:23.999Z</time>
      </trkpt>
      <trkpt lat="48.05969" lon="-1.54173">
        <ele>69.20357</ele>
        <time>2021-12-26T08:50:24.999Z</time>
      </trkpt>
      <trkpt lat="48.0597" lon="-1.54182">
        <ele>69.27833</ele>
        <time>2021-12-26T08:50:25.999Z</time>
      </trkpt>
      <trkpt lat="48.05971" lon="-1.5419">
        <ele>69.32855</ele>
        <time>2021-12-26T08:50:26.999Z</time>
      </trkpt>
      <trkpt lat="48.05972" lon="-1.54199">
        <ele>69.39088</ele>
        <time>2021-12-26T08:50:27.999Z</time>
      </trkpt>
      <trkpt lat="48.05972" lon="-1.54207">
        <ele>69.46037</ele>
        <time>2021-12-26T08:50:28.999Z</time>
      </trkpt>
      <trkpt lat="48.05973" lon="-1.54216">
        <ele>69.52724</ele>
        <time>2021-12-26T08:50:29.999Z</time>
      </trkpt>
      <trkpt lat="48.05973" lon="-1.54224">
        <ele>69.59312</ele>
        <time>2021-12-26T08:50:30.999Z</time>
      </trkpt>
      <trkpt lat="48.05974" lon="-1.54233">
        <ele>69.65822</ele>
        <time>2021-12-26T08:50:31.999Z</time>
      </trkpt>
      <trkpt lat="48.05974" lon="-1.54241">
        <ele>69.73024</ele>
        <time>2021-12-26T08:50:32.999Z</time>
      </trkpt>
      <trkpt lat="48.05974" lon="-1.54249">
        <ele>69.81229</ele>
        <time>2021-12-26T08:50:33.999Z</time>
      </trkpt>
      <trkpt lat="48.05974" lon="-1.54258">
        <ele>69.89242</ele>
        <time>2021-12-26T08:50:34.999Z</time>
      </trkpt>
      <trkpt lat="48.05974" lon="-1.54266">
        <ele>69.98879</ele>
        <time>2021-12-26T08:50:35.999Z</time>
      </trkpt>
      <trkpt lat="48.05974" lon="-1.54274">
        <ele>70.08103</ele>
        <time>2021-12-26T08:50:36.999Z</time>
      </trkpt>
      <trkpt lat="48.05973" lon="-1.54283">
        <ele>70.1631</ele>
        <time>2021-12-26T08:50:37.999Z</time>
      </trkpt>
      <trkpt lat="48.05973" lon="-1.54291">
        <ele>70.24202</ele>
        <time>2021-12-26T08:50:38.999Z</time>
      </trkpt>
      <trkpt lat="48.05973" lon="-1.54299">
        <ele>70.34886</ele>
        <time>2021-12-26T08:50:39.999Z</time>
      </trkpt>
      <trkpt lat="48.05972" lon="-1.54306">
        <ele>70.49311</ele>
        <time>2021-12-26T08:50:40.999Z</time>
      </trkpt>
      <trkpt lat="48.05972" lon="-1.54314">
        <ele>70.70268</ele>
        <time>2021-12-26T08:50:41.999Z</time>
      </trkpt>
      <trkpt lat="48.05972" lon="-1.54322">
        <ele>70.94315</ele>
        <time>2021-12-26T08:50:42.999Z</time>
      </trkpt>
      <trkpt lat="48.05971" lon="-1.5433">
        <ele>71.17005</ele>
        <time>2021-12-26T08:50:43.999Z</time>
      </trkpt>
      <trkpt lat="48.05971" lon="-1.54338">
        <ele>71.34666</ele>
        <time>2021-12-26T08:50:44.999Z</time>
      </trkpt>
      <trkpt lat="48.05971" lon="-1.54346">
        <ele>71.45553</ele>
        <time>2021-12-26T08:50:45.999Z</time>
      </trkpt>
      <trkpt lat="48.05971" lon="-1.54354">
        <ele>71.51218</ele>
        <time>2021-12-26T08:50:46.999Z</time>
      </trkpt>
      <trkpt lat="48.0597" lon="-1.54361">
        <ele>71.55363</ele>
        <time>2021-12-26T08:50:47.999Z</time>
      </trkpt>
      <trkpt lat="48.0597" lon="-1.54369">
        <ele>71.60653</ele>
        <time>2021-12-26T08:50:48.999Z</time>
      </trkpt>
      <trkpt lat="48.0597" lon="-1.54377">
        <ele>71.69778</ele>
        <time>2021-12-26T08:50:49.999Z</time>
      </trkpt>
      <trkpt lat="48.0597" lon="-1.54384">
        <ele>71.81438</ele>
        <time>2021-12-26T08:50:50.999Z</time>
      </trkpt>
      <trkpt lat="48.05969" lon="-1.54392">
        <ele>71.93721</ele>
        <time>2021-12-26T08:50:51.999Z</time>
      </trkpt>
      <trkpt lat="48.05969" lon="-1.544">
        <ele>72.04884</ele>
        <time>2021-12-26T08:50:52.999Z</time>
      </trkpt>
      <trkpt lat="48.05969" lon="-1.54407">
        <ele>72.13673</ele>
        <time>2021-12-26T08:50:53.999Z</time>
      </trkpt>
      <trkpt lat="48.05968" lon="-1.54414">
        <ele>72.18966</ele>
        <time>2021-12-26T08:50:54.999Z</time>
      </trkpt>
      <trkpt lat="48.05968" lon="-1.54422">
        <ele>72.22213</ele>
        <time>2021-12-26T08:50:55.999Z</time>
      </trkpt>
      <trkpt lat="48.05968" lon="-1.54429">
        <ele>72.25851</ele>
        <time>2021-12-26T08:50:56.999Z</time>
      </trkpt>
      <trkpt lat="48.05967" lon="-1.54436">
        <ele>72.31035</ele>
        <time>2021-12-26T08:50:57.999Z</time>
      </trkpt>
      <trkpt lat="48.05967" lon="-1.54444">
        <ele>72.39985</ele>
        <time>2021-12-26T08:50:58.999Z</time>
      </trkpt>
      <trkpt lat="48.05967" lon="-1.54451">
        <ele>72.5157</ele>
        <time>2021-12-26T08:50:59.999Z</time>
      </trkpt>
      <trkpt lat="48.05966" lon="-1.54458">
        <ele>72.64218</ele>
        <time>2021-12-26T08:51:00.999Z</time>
      </trkpt>
      <trkpt lat="48.05966" lon="-1.54465">
        <ele>72.76787</ele>
        <time>2021-12-26T08:51:01.999Z</time>
      </trkpt>
      <trkpt lat="48.05966" lon="-1.54473">
        <ele>72.88952</ele>
        <time>2021-12-26T08:51:02.999Z</time>
      </trkpt>
      <trkpt lat="48.05966" lon="-1.5448">
        <ele>72.99791</ele>
        <time>2021-12-26T08:51:03.999Z</time>
      </trkpt>
      <trkpt lat="48.05965" lon="-1.54486">
        <ele>73.10364</ele>
        <time>2021-12-26T08:51:04.999Z</time>
      </trkpt>
      <trkpt lat="48.05965" lon="-1.54493">
        <ele>73.20832</ele>
        <time>2021-12-26T08:51:05.999Z</time>
      </trkpt>
      <trkpt lat="48.05965" lon="-1.545">
        <ele>73.31743</ele>
        <time>2021-12-26T08:51:06.999Z</time>
      </trkpt>
      <trkpt lat="48.05965" lon="-1.54506">
        <ele>73.44095</ele>
        <time>2021-12-26T08:51:07.999Z</time>
      </trkpt>
      <trkpt lat="48.05964" lon="-1.54512">
        <ele>73.57719</ele>
        <time>2021-12-26T08:51:08.999Z</time>
      </trkpt>
      <trkpt lat="48.05964" lon="-1.54518">
        <ele>73.72446</ele>
        <time>2021-12-26T08:51:09.999Z</time>
      </trkpt>
      <trkpt lat="48.05965" lon="-1.54524">
        <ele>73.87142</ele>
        <time>2021-12-26T08:51:10.999Z</time>
      </trkpt>
      <trkpt lat="48.05964" lon="-1.5453">
        <ele>74.0223</ele>
        <time>2021-12-26T08:51:11.999Z</time>
      </trkpt>
      <trkpt lat="48.05963" lon="-1.54535">
        <ele>74.16145</ele>
        <time>2021-12-26T08:51:12.999Z</time>
      </trkpt>
      <trkpt lat="48.0596" lon="-1.54537">
        <ele>74.26949</ele>
        <time>2021-12-26T08:51:13.999Z</time>
      </trkpt>
      <trkpt lat="48.05957" lon="-1.54537">
        <ele>74.31977</ele>
        <time>2021-12-26T08:51:14.999Z</time>
      </trkpt>
      <trkpt lat="48.05953" lon="-1.54536">
        <ele>74.35876</ele>
        <time>2021-12-26T08:51:15.999Z</time>
      </trkpt>
      <trkpt lat="48.05952" lon="-1.54532">
        <ele>74.27269</ele>
        <time>2021-12-26T08:51:16.999Z</time>
      </trkpt>
      <trkpt lat="48.05952" lon="-1.54527">
        <ele>74.16401</ele>
        <time>2021-12-26T08:51:17.999Z</time>
      </trkpt>
      <trkpt lat="48.05952" lon="-1.54527">
        <ele>74.16401</ele>
      </trkpt>
      <trkpt lat="48.05951" lon="-1.54521">
        <ele>74.03999</ele>
      </trkpt>
      <trkpt lat="48.05949" lon="-1.54515">
        <ele>73.92515</ele>
      </trkpt>
      <trkpt lat="48.05948" lon="-1.54509">
        <ele>73.79899</ele>
      </trkpt>
      <trkpt lat="48.05948" lon="-1.54503">
        <ele>73.68327</ele>
      </trkpt>
      <trkpt lat="48.05947" lon="-1.54497">
        <ele>73.58721</ele>
      </trkpt>
      <trkpt lat="48.05946" lon="-1.54491">
        <ele>73.49457</ele>
      </trkpt>
      <trkpt lat="48.05944" lon="-1.54487">
        <ele>73.41949</ele>
      </trkpt>
      <trkpt lat="48.05941" lon="-1.54484">
        <ele>73.36461</ele>
      </trkpt>
      <trkpt lat="48.05939" lon="-1.54482">
        <ele>73.32132</ele>
      </trkpt>
      <trkpt lat="48.05935" lon="-1.54485">
        <ele>73.35415</ele>
      </trkpt>
      <trkpt lat="48.05932" lon="-1.54487">
        <ele>73.39298</ele>
      </trkpt>
      <trkpt lat="48.05929" lon="-1.54488">
        <ele>73.4154</ele>
      </trkpt>
      <trkpt lat="48.05925" lon="-1.54489">
        <ele>73.45206</ele>
      </trkpt>
      <trkpt lat="48.05922" lon="-1.54491">
        <ele>73.50137</ele>
      </trkpt>
      <trkpt lat="48.05918" lon="-1.54492">
        <ele>73.54562</ele>
      </trkpt>
      <trkpt lat="48.05914" lon="-1.54493">
        <ele>73.56893</ele>
      </trkpt>
      <trkpt lat="48.0591" lon="-1.54492">
        <ele>73.5772</ele>
      </trkpt>
      <trkpt lat="48.05905" lon="-1.54491">
        <ele>73.55856</ele>
      </trkpt>
      <trkpt lat="48.05901" lon="-1.54488">
        <ele>73.55175</ele>
      </trkpt>
      <trkpt lat="48.05897" lon="-1.54487">
        <ele>73.58151</ele>
      </trkpt>
      <trkpt lat="48.05892" lon="-1.54485">
        <ele>73.61879</ele>
      </trkpt>
      <trkpt lat="48.05887" lon="-1.54483">
        <ele>73.65638</ele>
      </trkpt>
      <trkpt lat="48.05883" lon="-1.54481">
        <ele>73.66695</ele>
      </trkpt>
      <trkpt lat="48.05878" lon="-1.54479">
        <ele>73.64869</ele>
      </trkpt>
      <trkpt lat="48.05873" lon="-1.54477">
        <ele>73.6078</ele>
      </trkpt>
      <trkpt lat="48.05868" lon="-1.54475">
        <ele>73.54292</ele>
      </trkpt>
      <trkpt lat="48.05863" lon="-1.54473">
        <ele>73.44061</ele>
      </trkpt>
      <trkpt lat="48.05858" lon="-1.54471">
        <ele>73.29814</ele>
      </trkpt>
      <trkpt lat="48.05852" lon="-1.54469">
        <ele>73.10182</ele>
      </trkpt>
      <trkpt lat="48.05847" lon="-1.54467">
        <ele>72.86682</ele>
      </trkpt>
      <trkpt lat="48.05841" lon="-1.54465">
        <ele>72.607</ele>
      </trkpt>
      <trkpt lat="48.05835" lon="-1.54463">
        <ele>72.35314</ele>
      </trkpt>
      <trkpt lat="48.05829" lon="-1.54462">
        <ele>72.07327</ele>
      </trkpt>
      <trkpt lat="48.05823" lon="-1.5446">
        <ele>71.77194</ele>
      </trkpt>
      <trkpt lat="48.05817" lon="-1.54458">
        <ele>71.49236</ele>
      </trkpt>
      <trkpt lat="48.05811" lon="-1.54457">
        <ele>71.25141</ele>
      </trkpt>
      <trkpt lat="48.05804" lon="-1.54455">
        <ele>71.04895</ele>
      </trkpt>
      <trkpt lat="48.05798" lon="-1.54453">
        <ele>70.87043</ele>
      </trkpt>
      <trkpt lat="48.05792" lon="-1.54452">
        <ele>70.67934</ele>
      </trkpt>
      <trkpt lat="48.05785" lon="-1.5445">
        <ele>70.46567</ele>
      </trkpt>
      <trkpt lat="48.05779" lon="-1.54447">
        <ele>70.2459</ele>
      </trkpt>
      <trkpt lat="48.05772" lon="-1.54444">
        <ele>70.05433</ele>
      </trkpt>
      <trkpt lat="48.05766" lon="-1.54441">
        <ele>69.90609</ele>
      </trkpt>
      <trkpt lat="48.0576" lon="-1.54437">
        <ele>69.7883</ele>
      </trkpt>
      <trkpt lat="48.05755" lon="-1.54433">
        <ele>69.68093</ele>
      </trkpt>
      <trkpt lat="48.05749" lon="-1.54429">
        <ele>69.56346</ele>
      </trkpt>
      <trkpt lat="48.05743" lon="-1.54425">
        <ele>69.42206</ele>
      </trkpt>
      <trkpt lat="48.05738" lon="-1.54422">
        <ele>69.26158</ele>
      </trkpt>
      <trkpt lat="48.05731" lon="-1.54419">
        <ele>69.09718</ele>
      </trkpt>
      <trkpt lat="48.05725" lon="-1.54417">
        <ele>68.97515</ele>
      </trkpt>
      <trkpt lat="48.05719" lon="-1.54416">
        <ele>68.92533</ele>
      </trkpt>
      <trkpt lat="48.05713" lon="-1.54418">
        <ele>68.93058</ele>
      </trkpt>
      <trkpt lat="48.05707" lon="-1.5442">
        <ele>68.94813</ele>
      </trkpt>
      <trkpt lat="48.05702" lon="-1.54422">
        <ele>68.95645</ele>
      </trkpt>
      <trkpt lat="48.05696" lon="-1.54425">
        <ele>68.95443</ele>
      </trkpt>
      <trkpt lat="48.0569" lon="-1.54427">
        <ele>68.93734</ele>
      </trkpt>
      <trkpt lat="48.05685" lon="-1.54428">
        <ele>68.90508</ele>
      </trkpt>
      <trkpt lat="48.05679" lon="-1.54429">
        <ele>68.87108</ele>
      </trkpt>
      <trkpt lat="48.05674" lon="-1.54431">
        <ele>68.85266</ele>
      </trkpt>
      <trkpt lat="48.05669" lon="-1.54432">
        <ele>68.83402</ele>
      </trkpt>
      <trkpt lat="48.05663" lon="-1.54433">
        <ele>68.78805</ele>
      </trkpt>
      <trkpt lat="48.05658" lon="-1.54433">
        <ele>68.69932</ele>
      </trkpt>
      <trkpt lat="48.05652" lon="-1.54434">
        <ele>68.54629</ele>
      </trkpt>
      <trkpt lat="48.05647" lon="-1.54435">
        <ele>68.36754</ele>
      </trkpt>
      <trkpt lat="48.05641" lon="-1.54436">
        <ele>68.17241</ele>
      </trkpt>
      <trkpt lat="48.05636" lon="-1.54437">
        <ele>67.97294</ele>
      </trkpt>
      <trkpt lat="48.05632" lon="-1.54438">
        <ele>67.78698</ele>
      </trkpt>
      <trkpt lat="48.05629" lon="-1.54439">
        <ele>67.66565</ele>
      </trkpt>
      <trkpt lat="48.05629" lon="-1.54439">
        <ele>67.66565</ele>
      </trkpt>
      <trkpt lat="48.0563" lon="-1.54442">
        <ele>67.71147</ele>
      </trkpt>
      <trkpt lat="48.05632" lon="-1.54444">
        <ele>67.7982</ele>
      </trkpt>
      <trkpt lat="48.05635" lon="-1.54447">
        <ele>67.9042</ele>
      </trkpt>
      <trkpt lat="48.05637" lon="-1.54449">
        <ele>67.97352</ele>
      </trkpt>
      <trkpt lat="48.05639" lon="-1.54451">
        <ele>68.04812</ele>
      </trkpt>
      <trkpt lat="48.05639" lon="-1.54454">
        <ele>68.06398</ele>
      </trkpt>
      <trkpt lat="48.0564" lon="-1.54459">
        <ele>68.05953</ele>
      </trkpt>
      <trkpt lat="48.05639" lon="-1.54463">
        <ele>68.03293</ele>
      </trkpt>
      <trkpt lat="48.05639" lon="-1.54467">
        <ele>67.99562</ele>
      </trkpt>
      <trkpt lat="48.05639" lon="-1.54472">
        <ele>67.93313</ele>
      </trkpt>
      <trkpt lat="48.05638" lon="-1.54476">
        <ele>67.85123</ele>
      </trkpt>
      <trkpt lat="48.05637" lon="-1.5448">
        <ele>67.76707</ele>
      </trkpt>
      <trkpt lat="48.05636" lon="-1.54484">
        <ele>67.64735</ele>
      </trkpt>
      <trkpt lat="48.05634" lon="-1.54487">
        <ele>67.52487</ele>
      </trkpt>
      <trkpt lat="48.05632" lon="-1.54489">
        <ele>67.35426</ele>
      </trkpt>
      <trkpt lat="48.0563" lon="-1.54493">
        <ele>67.20437</ele>
      </trkpt>
      <trkpt lat="48.05631" lon="-1.54498">
        <ele>67.13559</ele>
      </trkpt>
      <trkpt lat="48.0563" lon="-1.54503">
        <ele>67.01564</ele>
      </trkpt>
      <trkpt lat="48.0563" lon="-1.54508">
        <ele>66.91124</ele>
      </trkpt>
      <trkpt lat="48.05629" lon="-1.54512">
        <ele>66.80251</ele>
      </trkpt>
      <trkpt lat="48.05629" lon="-1.54517">
        <ele>66.70879</ele>
      </trkpt>
      <trkpt lat="48.05629" lon="-1.54522">
        <ele>66.60923</ele>
      </trkpt>
      <trkpt lat="48.05629" lon="-1.54526">
        <ele>66.52712</ele>
      </trkpt>
      <trkpt lat="48.05629" lon="-1.54531">
        <ele>66.42546</ele>
      </trkpt>
      <trkpt lat="48.05629" lon="-1.54535">
        <ele>66.31615</ele>
      </trkpt>
      <trkpt lat="48.05629" lon="-1.5454">
        <ele>66.19092</ele>
      </trkpt>
      <trkpt lat="48.05628" lon="-1.54545">
        <ele>66.04381</ele>
      </trkpt>
      <trkpt lat="48.05628" lon="-1.5455">
        <ele>65.89064</ele>
      </trkpt>
      <trkpt lat="48.05628" lon="-1.54554">
        <ele>65.7673</ele>
      </trkpt>
      <trkpt lat="48.05627" lon="-1.54559">
        <ele>65.6326</ele>
      </trkpt>
      <trkpt lat="48.05627" lon="-1.54562">
        <ele>65.54569</ele>
      </trkpt>
      <trkpt lat="48.05627" lon="-1.54567">
        <ele>65.3916</ele>
      </trkpt>
      <trkpt lat="48.05627" lon="-1.54572">
        <ele>65.23919</ele>
      </trkpt>
      <trkpt lat="48.05626" lon="-1.54576">
        <ele>65.07691</ele>
      </trkpt>
      <trkpt lat="48.05625" lon="-1.54581">
        <ele>64.8871</ele>
      </trkpt>
      <trkpt lat="48.05624" lon="-1.54585">
        <ele>64.69615</ele>
      </trkpt>
      <trkpt lat="48.05624" lon="-1.54589">
        <ele>64.52561</ele>
      </trkpt>
      <trkpt lat="48.05623" lon="-1.54593">
        <ele>64.36765</ele>
      </trkpt>
      <trkpt lat="48.05622" lon="-1.54597">
        <ele>64.18211</ele>
      </trkpt>
      <trkpt lat="48.05621" lon="-1.54601">
        <ele>64.00582</ele>
      </trkpt>
      <trkpt lat="48.05621" lon="-1.54606">
        <ele>63.8425</ele>
      </trkpt>
      <trkpt lat="48.05619" lon="-1.5461">
        <ele>63.68486</ele>
      </trkpt>
      <trkpt lat="48.05619" lon="-1.54614">
        <ele>63.52965</ele>
      </trkpt>
      <trkpt lat="48.05618" lon="-1.54619">
        <ele>63.39022</ele>
      </trkpt>
      <trkpt lat="48.05617" lon="-1.54622">
        <ele>63.27269</ele>
      </trkpt>
      <trkpt lat="48.05617" lon="-1.54625">
        <ele>63.17613</ele>
      </trkpt>
      <trkpt lat="48.05616" lon="-1.54629">
        <ele>63.07855</ele>
      </trkpt>
      <trkpt lat="48.05616" lon="-1.54632">
        <ele>62.9816</ele>
      </trkpt>
      <trkpt lat="48.05615" lon="-1.54636">
        <ele>62.88254</ele>
      </trkpt>
      <trkpt lat="48.05614" lon="-1.54639">
        <ele>62.79982</ele>
      </trkpt>
      <trkpt lat="48.05614" lon="-1.54642">
        <ele>62.73143</ele>
      </trkpt>
      <trkpt lat="48.05612" lon="-1.54645">
        <ele>62.68163</ele>
      </trkpt>
      <trkpt lat="48.05611" lon="-1.54648">
        <ele>62.62923</ele>
      </trkpt>
      <trkpt lat="48.05609" lon="-1.5465">
        <ele>62.58081</ele>
      </trkpt>
      <trkpt lat="48.05606" lon="-1.54651">
        <ele>62.55518</ele>
      </trkpt>
      <trkpt lat="48.05602" lon="-1.54651">
        <ele>62.5237</ele>
      </trkpt>
      <trkpt lat="48.05599" lon="-1.54651">
        <ele>62.51015</ele>
      </trkpt>
      <trkpt lat="48.05597" lon="-1.5465">
        <ele>62.50699</ele>
      </trkpt>
      <trkpt lat="48.05595" lon="-1.54649">
        <ele>62.50623</ele>
      </trkpt>
      <trkpt lat="48.05593" lon="-1.54649">
        <ele>62.47519</ele>
      </trkpt>
      <trkpt lat="48.05591" lon="-1.5465">
        <ele>62.44205</ele>
      </trkpt>
      <trkpt lat="48.05591" lon="-1.5465">
        <ele>62.44205</ele>
        <time>2021-12-26T08:54:11.999Z</time>
      </trkpt>
      <trkpt lat="48.05589" lon="-1.54651">
        <ele>62.39661</ele>
        <time>2021-12-26T08:54:12.999Z</time>
      </trkpt>
      <trkpt lat="48.05587" lon="-1.54653">
        <ele>62.33458</ele>
        <time>2021-12-26T08:54:13.999Z</time>
      </trkpt>
      <trkpt lat="48.05585" lon="-1.54654">
        <ele>62.27589</ele>
        <time>2021-12-26T08:54:14.999Z</time>
      </trkpt>
      <trkpt lat="48.05582" lon="-1.54655">
        <ele>62.22372</ele>
        <time>2021-12-26T08:54:15.999Z</time>
      </trkpt>
      <trkpt lat="48.05579" lon="-1.54656">
        <ele>62.16195</ele>
        <time>2021-12-26T08:54:16.999Z</time>
      </trkpt>
      <trkpt lat="48.05577" lon="-1.54654">
        <ele>62.14893</ele>
        <time>2021-12-26T08:54:17.999Z</time>
      </trkpt>
      <trkpt lat="48.05575" lon="-1.54652">
        <ele>62.12974</ele>
        <time>2021-12-26T08:54:18.999Z</time>
      </trkpt>
      <trkpt lat="48.05572" lon="-1.54651">
        <ele>62.10296</ele>
        <time>2021-12-26T08:54:19.999Z</time>
      </trkpt>
      <trkpt lat="48.0557" lon="-1.54648">
        <ele>62.08061</ele>
        <time>2021-12-26T08:54:20.999Z</time>
      </trkpt>
      <trkpt lat="48.05567" lon="-1.54646">
        <ele>62.05199</ele>
        <time>2021-12-26T08:54:21.999Z</time>
      </trkpt>
      <trkpt lat="48.05564" lon="-1.54643">
        <ele>62.03723</ele>
        <time>2021-12-26T08:54:22.999Z</time>
      </trkpt>
      <trkpt lat="48.05562" lon="-1.5464">
        <ele>62.03016</ele>
        <time>2021-12-26T08:54:23.999Z</time>
      </trkpt>
      <trkpt lat="48.0556" lon="-1.54637">
        <ele>62.03192</ele>
        <time>2021-12-26T08:54:24.999Z</time>
      </trkpt>
      <trkpt lat="48.05562" lon="-1.54627">
        <ele>62.20785</ele>
        <time>2021-12-26T08:54:37.999Z</time>
      </trkpt>
      <trkpt lat="48.05563" lon="-1.54625">
        <ele>62.27695</ele>
        <time>2021-12-26T08:54:38.999Z</time>
      </trkpt>
      <trkpt lat="48.05565" lon="-1.54618">
        <ele>62.41221</ele>
        <time>2021-12-26T08:54:50.999Z</time>
      </trkpt>
      <trkpt lat="48.05562" lon="-1.54615">
        <ele>62.40022</ele>
        <time>2021-12-26T08:54:52.999Z</time>
      </trkpt>
      <trkpt lat="48.05561" lon="-1.54613">
        <ele>62.39058</ele>
        <time>2021-12-26T08:54:53.999Z</time>
      </trkpt>
      <trkpt lat="48.05559" lon="-1.54611">
        <ele>62.38248</ele>
        <time>2021-12-26T08:54:54.999Z</time>
      </trkpt>
      <trkpt lat="48.05557" lon="-1.54609">
        <ele>62.34986</ele>
        <time>2021-12-26T08:54:55.999Z</time>
      </trkpt>
      <trkpt lat="48.05554" lon="-1.54608">
        <ele>62.26252</ele>
        <time>2021-12-26T08:54:56.999Z</time>
      </trkpt>
      <trkpt lat="48.05551" lon="-1.54607">
        <ele>62.1729</ele>
        <time>2021-12-26T08:54:57.999Z</time>
      </trkpt>
      <trkpt lat="48.05549" lon="-1.54605">
        <ele>62.11453</ele>
        <time>2021-12-26T08:54:58.999Z</time>
      </trkpt>
      <trkpt lat="48.05546" lon="-1.54602">
        <ele>62.05784</ele>
        <time>2021-12-26T08:54:59.999Z</time>
      </trkpt>
      <trkpt lat="48.05543" lon="-1.54599">
        <ele>61.99654</ele>
        <time>2021-12-26T08:55:00.999Z</time>
      </trkpt>
      <trkpt lat="48.05539" lon="-1.54601">
        <ele>61.82733</ele>
        <time>2021-12-26T08:55:01.999Z</time>
      </trkpt>
      <trkpt lat="48.05534" lon="-1.54602">
        <ele>61.68788</ele>
        <time>2021-12-26T08:55:02.999Z</time>
      </trkpt>
      <trkpt lat="48.0553" lon="-1.54604">
        <ele>61.57116</ele>
        <time>2021-12-26T08:55:03.999Z</time>
      </trkpt>
      <trkpt lat="48.05527" lon="-1.54605">
        <ele>61.4861</ele>
        <time>2021-12-26T08:55:04.999Z</time>
      </trkpt>
      <trkpt lat="48.05525" lon="-1.54608">
        <ele>61.44137</ele>
        <time>2021-12-26T08:55:05.999Z</time>
      </trkpt>
      <trkpt lat="48.05523" lon="-1.5461">
        <ele>61.4031</ele>
        <time>2021-12-26T08:55:06.999Z</time>
      </trkpt>
      <trkpt lat="48.0552" lon="-1.5461">
        <ele>61.33791</ele>
        <time>2021-12-26T08:55:07.999Z</time>
      </trkpt>
      <trkpt lat="48.05518" lon="-1.54608">
        <ele>61.28612</ele>
        <time>2021-12-26T08:55:08.999Z</time>
      </trkpt>
      <trkpt lat="48.05515" lon="-1.54606">
        <ele>61.19358</ele>
        <time>2021-12-26T08:55:10.999Z</time>
      </trkpt>
      <trkpt lat="48.05513" lon="-1.54607">
        <ele>61.14566</ele>
        <time>2021-12-26T08:55:11.999Z</time>
      </trkpt>
      <trkpt lat="48.05511" lon="-1.54611">
        <ele>61.10145</ele>
        <time>2021-12-26T08:55:13.999Z</time>
      </trkpt>
      <trkpt lat="48.0551" lon="-1.54613">
        <ele>61.0941</ele>
        <time>2021-12-26T08:55:14.999Z</time>
      </trkpt>
      <trkpt lat="48.05509" lon="-1.54618">
        <ele>61.10792</ele>
        <time>2021-12-26T08:55:15.999Z</time>
      </trkpt>
      <trkpt lat="48.05508" lon="-1.54621">
        <ele>61.13481</ele>
        <time>2021-12-26T08:55:16.999Z</time>
      </trkpt>
      <trkpt lat="48.05509" lon="-1.54624">
        <ele>61.18023</ele>
        <time>2021-12-26T08:55:17.999Z</time>
      </trkpt>
      <trkpt lat="48.0551" lon="-1.54629">
        <ele>61.24626</ele>
        <time>2021-12-26T08:55:18.999Z</time>
      </trkpt>
      <trkpt lat="48.0551" lon="-1.54632">
        <ele>61.2823</ele>
        <time>2021-12-26T08:55:19.999Z</time>
      </trkpt>
      <trkpt lat="48.05509" lon="-1.54634">
        <ele>61.29042</ele>
        <time>2021-12-26T08:55:20.999Z</time>
      </trkpt>
      <trkpt lat="48.05507" lon="-1.54638">
        <ele>61.26536</ele>
        <time>2021-12-26T08:55:22.999Z</time>
      </trkpt>
      <trkpt lat="48.05504" lon="-1.54638">
        <ele>61.21064</ele>
        <time>2021-12-26T08:55:23.999Z</time>
      </trkpt>
      <trkpt lat="48.05501" lon="-1.54636">
        <ele>61.14053</ele>
        <time>2021-12-26T08:55:24.999Z</time>
      </trkpt>
      <trkpt lat="48.05499" lon="-1.54635">
        <ele>61.05593</ele>
        <time>2021-12-26T08:55:25.999Z</time>
      </trkpt>
      <trkpt lat="48.05496" lon="-1.54633">
        <ele>60.97708</ele>
        <time>2021-12-26T08:55:26.999Z</time>
      </trkpt>
      <trkpt lat="48.05493" lon="-1.54633">
        <ele>60.91419</ele>
        <time>2021-12-26T08:55:27.999Z</time>
      </trkpt>
      <trkpt lat="48.0549" lon="-1.54632">
        <ele>60.84947</ele>
        <time>2021-12-26T08:55:28.999Z</time>
      </trkpt>
      <trkpt lat="48.05488" lon="-1.54631">
        <ele>60.78491</ele>
        <time>2021-12-26T08:55:29.999Z</time>
      </trkpt>
      <trkpt lat="48.05485" lon="-1.5463">
        <ele>60.68609</ele>
        <time>2021-12-26T08:55:32.999Z</time>
      </trkpt>
      <trkpt lat="48.05481" lon="-1.54632">
        <ele>60.6426</ele>
        <time>2021-12-26T08:55:34.999Z</time>
      </trkpt>
      <trkpt lat="48.05478" lon="-1.54633">
        <ele>60.59274</ele>
        <time>2021-12-26T08:55:35.999Z</time>
      </trkpt>
      <trkpt lat="48.05476" lon="-1.54633">
        <ele>60.54879</ele>
        <time>2021-12-26T08:55:36.999Z</time>
      </trkpt>
      <trkpt lat="48.05474" lon="-1.54632">
        <ele>60.49658</ele>
        <time>2021-12-26T08:55:37.999Z</time>
      </trkpt>
      <trkpt lat="48.05472" lon="-1.5463">
        <ele>60.42822</ele>
        <time>2021-12-26T08:55:38.999Z</time>
      </trkpt>
      <trkpt lat="48.05471" lon="-1.54628">
        <ele>60.36676</ele>
        <time>2021-12-26T08:55:39.999Z</time>
      </trkpt>
      <trkpt lat="48.05468" lon="-1.54626">
        <ele>60.28711</ele>
        <time>2021-12-26T08:55:40.999Z</time>
      </trkpt>
      <trkpt lat="48.05466" lon="-1.54624">
        <ele>60.19626</ele>
        <time>2021-12-26T08:55:41.999Z</time>
      </trkpt>
      <trkpt lat="48.05463" lon="-1.54623">
        <ele>60.11526</ele>
        <time>2021-12-26T08:55:42.999Z</time>
      </trkpt>
      <trkpt lat="48.05462" lon="-1.54622">
        <ele>60.0644</ele>
        <time>2021-12-26T08:55:43.999Z</time>
      </trkpt>
      <trkpt lat="48.05459" lon="-1.54622">
        <ele>60.01093</ele>
        <time>2021-12-26T08:55:44.999Z</time>
      </trkpt>
      <trkpt lat="48.05457" lon="-1.54622">
        <ele>59.9684</ele>
        <time>2021-12-26T08:55:45.999Z</time>
      </trkpt>
      <trkpt lat="48.05455" lon="-1.54621">
        <ele>59.91419</ele>
        <time>2021-12-26T08:55:46.999Z</time>
      </trkpt>
      <trkpt lat="48.05452" lon="-1.54621">
        <ele>59.87495</ele>
        <time>2021-12-26T08:55:47.999Z</time>
      </trkpt>
      <trkpt lat="48.05449" lon="-1.5462">
        <ele>59.85167</ele>
        <time>2021-12-26T08:55:48.999Z</time>
      </trkpt>
      <trkpt lat="48.05447" lon="-1.5462">
        <ele>59.85086</ele>
        <time>2021-12-26T08:55:49.999Z</time>
      </trkpt>
      <trkpt lat="48.05444" lon="-1.54619">
        <ele>59.8804</ele>
        <time>2021-12-26T08:55:50.999Z</time>
      </trkpt>
      <trkpt lat="48.0544" lon="-1.54619">
        <ele>59.95694</ele>
        <time>2021-12-26T08:55:51.999Z</time>
      </trkpt>
      <trkpt lat="48.05437" lon="-1.54619">
        <ele>60.03498</ele>
        <time>2021-12-26T08:55:52.999Z</time>
      </trkpt>
      <trkpt lat="48.05434" lon="-1.54619">
        <ele>60.09523</ele>
        <time>2021-12-26T08:55:53.999Z</time>
      </trkpt>
      <trkpt lat="48.05432" lon="-1.54618">
        <ele>60.15793</ele>
        <time>2021-12-26T08:55:54.999Z</time>
      </trkpt>
      <trkpt lat="48.05429" lon="-1.54618">
        <ele>60.21821</ele>
        <time>2021-12-26T08:55:55.999Z</time>
      </trkpt>
      <trkpt lat="48.05427" lon="-1.54617">
        <ele>60.25377</ele>
        <time>2021-12-26T08:55:56.999Z</time>
      </trkpt>
      <trkpt lat="48.05425" lon="-1.54615">
        <ele>60.26379</ele>
        <time>2021-12-26T08:55:57.999Z</time>
      </trkpt>
      <trkpt lat="48.05423" lon="-1.54613">
        <ele>60.26492</ele>
        <time>2021-12-26T08:55:58.999Z</time>
      </trkpt>
      <trkpt lat="48.05421" lon="-1.54612">
        <ele>60.2714</ele>
        <time>2021-12-26T08:55:59.999Z</time>
      </trkpt>
      <trkpt lat="48.05419" lon="-1.54613">
        <ele>60.30211</ele>
        <time>2021-12-26T08:56:00.999Z</time>
      </trkpt>
      <trkpt lat="48.05418" lon="-1.54616">
        <ele>60.34224</ele>
        <time>2021-12-26T08:56:01.999Z</time>
      </trkpt>
      <trkpt lat="48.05417" lon="-1.54618">
        <ele>60.37702</ele>
        <time>2021-12-26T08:56:02.999Z</time>
      </trkpt>
      <trkpt lat="48.05415" lon="-1.5462">
        <ele>60.40276</ele>
        <time>2021-12-26T08:56:03.999Z</time>
      </trkpt>
      <trkpt lat="48.05412" lon="-1.54619">
        <ele>60.41417</ele>
        <time>2021-12-26T08:56:04.999Z</time>
      </trkpt>
      <trkpt lat="48.05409" lon="-1.54619">
        <ele>60.42526</ele>
        <time>2021-12-26T08:56:05.999Z</time>
      </trkpt>
      <trkpt lat="48.05406" lon="-1.5462">
        <ele>60.43986</ele>
        <time>2021-12-26T08:56:06.999Z</time>
      </trkpt>
      <trkpt lat="48.05403" lon="-1.54621">
        <ele>60.45846</ele>
        <time>2021-12-26T08:56:07.999Z</time>
      </trkpt>
      <trkpt lat="48.054" lon="-1.54621">
        <ele>60.47137</ele>
        <time>2021-12-26T08:56:08.999Z</time>
      </trkpt>
      <trkpt lat="48.05397" lon="-1.54621">
        <ele>60.48163</ele>
        <time>2021-12-26T08:56:09.999Z</time>
      </trkpt>
      <trkpt lat="48.05393" lon="-1.54622">
        <ele>60.48802</ele>
        <time>2021-12-26T08:56:10.999Z</time>
      </trkpt>
      <trkpt lat="48.05391" lon="-1.54621">
        <ele>60.48616</ele>
        <time>2021-12-26T08:56:11.999Z</time>
      </trkpt>
      <trkpt lat="48.05388" lon="-1.5462">
        <ele>60.47704</ele>
        <time>2021-12-26T08:56:12.999Z</time>
      </trkpt>
      <trkpt lat="48.05386" lon="-1.54619">
        <ele>60.46539</ele>
        <time>2021-12-26T08:56:13.999Z</time>
      </trkpt>
      <trkpt lat="48.05384" lon="-1.54617">
        <ele>60.44869</ele>
        <time>2021-12-26T08:56:14.999Z</time>
      </trkpt>
      <trkpt lat="48.05382" lon="-1.54616">
        <ele>60.44043</ele>
        <time>2021-12-26T08:56:15.999Z</time>
      </trkpt>
      <trkpt lat="48.05379" lon="-1.54617">
        <ele>60.44904</ele>
        <time>2021-12-26T08:56:17.999Z</time>
      </trkpt>
      <trkpt lat="48.05376" lon="-1.54616">
        <ele>60.44647</ele>
        <time>2021-12-26T08:56:19.999Z</time>
      </trkpt>
      <trkpt lat="48.05374" lon="-1.54615">
        <ele>60.44438</ele>
        <time>2021-12-26T08:56:20.999Z</time>
      </trkpt>
      <trkpt lat="48.05371" lon="-1.54616">
        <ele>60.45786</ele>
        <time>2021-12-26T08:56:21.999Z</time>
      </trkpt>
      <trkpt lat="48.05369" lon="-1.54617">
        <ele>60.46944</ele>
        <time>2021-12-26T08:56:22.999Z</time>
      </trkpt>
      <trkpt lat="48.05366" lon="-1.54618">
        <ele>60.46619</ele>
        <time>2021-12-26T08:56:23.999Z</time>
      </trkpt>
      <trkpt lat="48.05362" lon="-1.54617">
        <ele>60.44618</ele>
        <time>2021-12-26T08:56:24.999Z</time>
      </trkpt>
      <trkpt lat="48.05359" lon="-1.54617">
        <ele>60.4057</ele>
        <time>2021-12-26T08:56:25.999Z</time>
      </trkpt>
      <trkpt lat="48.05355" lon="-1.54618">
        <ele>60.34779</ele>
        <time>2021-12-26T08:56:26.999Z</time>
      </trkpt>
      <trkpt lat="48.05353" lon="-1.54618">
        <ele>60.28971</ele>
        <time>2021-12-26T08:56:27.999Z</time>
      </trkpt>
      <trkpt lat="48.05351" lon="-1.54619">
        <ele>60.23386</ele>
        <time>2021-12-26T08:56:28.999Z</time>
      </trkpt>
      <trkpt lat="48.05349" lon="-1.54621">
        <ele>60.18885</ele>
        <time>2021-12-26T08:56:29.999Z</time>
      </trkpt>
      <trkpt lat="48.05348" lon="-1.54623">
        <ele>60.13594</ele>
        <time>2021-12-26T08:56:30.999Z</time>
      </trkpt>
      <trkpt lat="48.05348" lon="-1.54623">
        <ele>60.13594</ele>
        <time>2021-12-26T08:56:30.999Z</time>
      </trkpt>
      <trkpt lat="48.05345" lon="-1.54624">
        <ele>60.04768</ele>
        <time>2021-12-26T08:56:31.999Z</time>
      </trkpt>
      <trkpt lat="48.05342" lon="-1.54625">
        <ele>59.9454</ele>
        <time>2021-12-26T08:56:32.999Z</time>
      </trkpt>
      <trkpt lat="48.05341" lon="-1.54628">
        <ele>59.90459</ele>
        <time>2021-12-26T08:56:33.999Z</time>
      </trkpt>
      <trkpt lat="48.05341" lon="-1.54633">
        <ele>59.90478</ele>
        <time>2021-12-26T08:56:35.999Z</time>
      </trkpt>
      <trkpt lat="48.05341" lon="-1.54636">
        <ele>59.91671</ele>
        <time>2021-12-26T08:56:37.000Z</time>
      </trkpt>
      <trkpt lat="48.05338" lon="-1.54641">
        <ele>59.81317</ele>
        <time>2021-12-26T08:56:38.000Z</time>
      </trkpt>
      <trkpt lat="48.05337" lon="-1.54645">
        <ele>59.79896</ele>
        <time>2021-12-26T08:56:39.000Z</time>
      </trkpt>
      <trkpt lat="48.05335" lon="-1.54651">
        <ele>59.73859</ele>
        <time>2021-12-26T08:56:40.000Z</time>
      </trkpt>
      <trkpt lat="48.05334" lon="-1.54656">
        <ele>59.71055</ele>
        <time>2021-12-26T08:56:41.000Z</time>
      </trkpt>
      <trkpt lat="48.05333" lon="-1.54661">
        <ele>59.67158</ele>
        <time>2021-12-26T08:56:42.000Z</time>
      </trkpt>
      <trkpt lat="48.05333" lon="-1.54666">
        <ele>59.64184</ele>
        <time>2021-12-26T08:56:43.000Z</time>
      </trkpt>
      <trkpt lat="48.05332" lon="-1.54671">
        <ele>59.60766</ele>
        <time>2021-12-26T08:56:44.000Z</time>
      </trkpt>
      <trkpt lat="48.05332" lon="-1.54675">
        <ele>59.56849</ele>
        <time>2021-12-26T08:56:45.000Z</time>
      </trkpt>
      <trkpt lat="48.05331" lon="-1.5468">
        <ele>59.49089</ele>
        <time>2021-12-26T08:56:46.000Z</time>
      </trkpt>
      <trkpt lat="48.0533" lon="-1.54685">
        <ele>59.41926</ele>
        <time>2021-12-26T08:56:47.000Z</time>
      </trkpt>
      <trkpt lat="48.05329" lon="-1.5469">
        <ele>59.34541</ele>
        <time>2021-12-26T08:56:48.000Z</time>
      </trkpt>
      <trkpt lat="48.05328" lon="-1.54695">
        <ele>59.24383</ele>
        <time>2021-12-26T08:56:49.000Z</time>
      </trkpt>
      <trkpt lat="48.05327" lon="-1.547">
        <ele>59.15273</ele>
        <time>2021-12-26T08:56:50.000Z</time>
      </trkpt>
      <trkpt lat="48.05326" lon="-1.54705">
        <ele>59.05832</ele>
        <time>2021-12-26T08:56:51.000Z</time>
      </trkpt>
      <trkpt lat="48.05325" lon="-1.54709">
        <ele>58.96377</ele>
        <time>2021-12-26T08:56:52.000Z</time>
      </trkpt>
      <trkpt lat="48.05324" lon="-1.54714">
        <ele>58.8551</ele>
        <time>2021-12-26T08:56:53.000Z</time>
      </trkpt>
      <trkpt lat="48.05323" lon="-1.54719">
        <ele>58.73961</ele>
        <time>2021-12-26T08:56:54.000Z</time>
      </trkpt>
      <trkpt lat="48.05323" lon="-1.54724">
        <ele>58.62805</ele>
        <time>2021-12-26T08:56:55.000Z</time>
      </trkpt>
      <trkpt lat="48.05322" lon="-1.54729">
        <ele>58.50209</ele>
        <time>2021-12-26T08:56:56.000Z</time>
      </trkpt>
      <trkpt lat="48.05322" lon="-1.54734">
        <ele>58.38135</ele>
        <time>2021-12-26T08:56:57.000Z</time>
      </trkpt>
      <trkpt lat="48.05321" lon="-1.54739">
        <ele>58.25406</ele>
        <time>2021-12-26T08:56:58.000Z</time>
      </trkpt>
      <trkpt lat="48.05321" lon="-1.54744">
        <ele>58.12007</ele>
        <time>2021-12-26T08:56:59.000Z</time>
      </trkpt>
      <trkpt lat="48.0532" lon="-1.54749">
        <ele>57.98794</ele>
        <time>2021-12-26T08:57:00.000Z</time>
      </trkpt>
      <trkpt lat="48.05319" lon="-1.54754">
        <ele>57.84787</ele>
        <time>2021-12-26T08:57:01.000Z</time>
      </trkpt>
      <trkpt lat="48.05319" lon="-1.54759">
        <ele>57.70419</ele>
        <time>2021-12-26T08:57:02.000Z</time>
      </trkpt>
      <trkpt lat="48.05318" lon="-1.54764">
        <ele>57.54256</ele>
        <time>2021-12-26T08:57:03.000Z</time>
      </trkpt>
      <trkpt lat="48.05318" lon="-1.54769">
        <ele>57.39032</ele>
        <time>2021-12-26T08:57:04.000Z</time>
      </trkpt>
      <trkpt lat="48.05318" lon="-1.54775">
        <ele>57.26918</ele>
        <time>2021-12-26T08:57:05.000Z</time>
      </trkpt>
      <trkpt lat="48.05318" lon="-1.54779">
        <ele>57.19448</ele>
        <time>2021-12-26T08:57:06.000Z</time>
      </trkpt>
      <trkpt lat="48.05319" lon="-1.54783">
        <ele>57.15558</ele>
        <time>2021-12-26T08:57:07.000Z</time>
      </trkpt>
      <trkpt lat="48.05319" lon="-1.54787">
        <ele>57.13716</ele>
        <time>2021-12-26T08:57:08.000Z</time>
      </trkpt>
      <trkpt lat="48.05318" lon="-1.54792">
        <ele>57.12684</ele>
        <time>2021-12-26T08:57:09.000Z</time>
      </trkpt>
      <trkpt lat="48.05317" lon="-1.54797">
        <ele>57.1539</ele>
        <time>2021-12-26T08:57:10.000Z</time>
      </trkpt>
      <trkpt lat="48.05316" lon="-1.54802">
        <ele>57.21682</ele>
        <time>2021-12-26T08:57:11.000Z</time>
      </trkpt>
      <trkpt lat="48.05315" lon="-1.54807">
        <ele>57.29585</ele>
        <time>2021-12-26T08:57:12.000Z</time>
      </trkpt>
      <trkpt lat="48.05314" lon="-1.54812">
        <ele>57.38102</ele>
        <time>2021-12-26T08:57:13.000Z</time>
      </trkpt>
      <trkpt lat="48.05313" lon="-1.54817">
        <ele>57.45844</ele>
        <time>2021-12-26T08:57:14.000Z</time>
      </trkpt>
      <trkpt lat="48.05313" lon="-1.54822">
        <ele>57.52549</ele>
        <time>2021-12-26T08:57:15.000Z</time>
      </trkpt>
      <trkpt lat="48.05311" lon="-1.54828">
        <ele>57.60267</ele>
        <time>2021-12-26T08:57:16.000Z</time>
      </trkpt>
      <trkpt lat="48.0531" lon="-1.54834">
        <ele>57.67044</ele>
        <time>2021-12-26T08:57:17.000Z</time>
      </trkpt>
      <trkpt lat="48.05309" lon="-1.54839">
        <ele>57.73393</ele>
        <time>2021-12-26T08:57:18.000Z</time>
      </trkpt>
      <trkpt lat="48.05309" lon="-1.54844">
        <ele>57.81291</ele>
        <time>2021-12-26T08:57:19.000Z</time>
      </trkpt>
      <trkpt lat="48.05308" lon="-1.54848">
        <ele>57.8981</ele>
        <time>2021-12-26T08:57:20.000Z</time>
      </trkpt>
      <trkpt lat="48.05309" lon="-1.54853">
        <ele>57.99915</ele>
        <time>2021-12-26T08:57:21.000Z</time>
      </trkpt>
      <trkpt lat="48.05309" lon="-1.54857">
        <ele>58.10423</ele>
        <time>2021-12-26T08:57:22.000Z</time>
      </trkpt>
      <trkpt lat="48.05309" lon="-1.54861">
        <ele>58.21414</ele>
        <time>2021-12-26T08:57:23.000Z</time>
      </trkpt>
      <trkpt lat="48.05308" lon="-1.54867">
        <ele>58.35935</ele>
        <time>2021-12-26T08:57:24.000Z</time>
      </trkpt>
      <trkpt lat="48.05308" lon="-1.54872">
        <ele>58.48072</ele>
        <time>2021-12-26T08:57:25.000Z</time>
      </trkpt>
      <trkpt lat="48.05307" lon="-1.54875">
        <ele>58.56935</ele>
        <time>2021-12-26T08:57:26.000Z</time>
      </trkpt>
      <trkpt lat="48.05307" lon="-1.54883">
        <ele>58.7254</ele>
        <time>2021-12-26T08:57:28.000Z</time>
      </trkpt>
      <trkpt lat="48.05307" lon="-1.54888">
        <ele>58.78918</ele>
        <time>2021-12-26T08:57:29.000Z</time>
      </trkpt>
      <trkpt lat="48.05307" lon="-1.54892">
        <ele>58.8297</ele>
        <time>2021-12-26T08:57:30.000Z</time>
      </trkpt>
      <trkpt lat="48.05307" lon="-1.54897">
        <ele>58.84752</ele>
        <time>2021-12-26T08:57:31.000Z</time>
      </trkpt>
      <trkpt lat="48.05307" lon="-1.54902">
        <ele>58.84532</ele>
        <time>2021-12-26T08:57:32.000Z</time>
      </trkpt>
      <trkpt lat="48.05306" lon="-1.54907">
        <ele>58.82043</ele>
        <time>2021-12-26T08:57:33.000Z</time>
      </trkpt>
      <trkpt lat="48.05305" lon="-1.54912">
        <ele>58.79057</ele>
        <time>2021-12-26T08:57:34.000Z</time>
      </trkpt>
      <trkpt lat="48.05303" lon="-1.54918">
        <ele>58.75017</ele>
        <time>2021-12-26T08:57:35.000Z</time>
      </trkpt>
      <trkpt lat="48.05302" lon="-1.54923">
        <ele>58.72257</ele>
        <time>2021-12-26T08:57:36.000Z</time>
      </trkpt>
      <trkpt lat="48.05301" lon="-1.54928">
        <ele>58.70102</ele>
        <time>2021-12-26T08:57:37.000Z</time>
      </trkpt>
      <trkpt lat="48.053" lon="-1.54933">
        <ele>58.67565</ele>
        <time>2021-12-26T08:57:38.000Z</time>
      </trkpt>
      <trkpt lat="48.05299" lon="-1.54936">
        <ele>58.64513</ele>
        <time>2021-12-26T08:57:39.000Z</time>
      </trkpt>
      <trkpt lat="48.05298" lon="-1.54941">
        <ele>58.61132</ele>
        <time>2021-12-26T08:57:40.000Z</time>
      </trkpt>
      <trkpt lat="48.05297" lon="-1.54945">
        <ele>58.57027</ele>
        <time>2021-12-26T08:57:41.000Z</time>
      </trkpt>
      <trkpt lat="48.05295" lon="-1.54949">
        <ele>58.52</ele>
        <time>2021-12-26T08:57:42.000Z</time>
      </trkpt>
      <trkpt lat="48.05293" lon="-1.54956">
        <ele>58.41807</ele>
        <time>2021-12-26T08:57:43.000Z</time>
      </trkpt>
      <trkpt lat="48.05292" lon="-1.54962">
        <ele>58.32036</ele>
        <time>2021-12-26T08:57:44.000Z</time>
      </trkpt>
      <trkpt lat="48.0529" lon="-1.54966">
        <ele>58.21538</ele>
        <time>2021-12-26T08:57:45.000Z</time>
      </trkpt>
      <trkpt lat="48.05288" lon="-1.54971">
        <ele>58.11241</ele>
        <time>2021-12-26T08:57:46.000Z</time>
      </trkpt>
      <trkpt lat="48.05285" lon="-1.54976">
        <ele>57.98107</ele>
        <time>2021-12-26T08:57:47.000Z</time>
      </trkpt>
      <trkpt lat="48.05283" lon="-1.54981">
        <ele>57.86656</ele>
        <time>2021-12-26T08:57:48.000Z</time>
      </trkpt>
      <trkpt lat="48.05282" lon="-1.54986">
        <ele>57.77314</ele>
        <time>2021-12-26T08:57:49.000Z</time>
      </trkpt>
      <trkpt lat="48.0528" lon="-1.54992">
        <ele>57.66293</ele>
        <time>2021-12-26T08:57:50.000Z</time>
      </trkpt>
      <trkpt lat="48.05278" lon="-1.54998">
        <ele>57.55934</ele>
        <time>2021-12-26T08:57:51.000Z</time>
      </trkpt>
      <trkpt lat="48.05277" lon="-1.55004">
        <ele>57.46915</ele>
        <time>2021-12-26T08:57:52.000Z</time>
      </trkpt>
      <trkpt lat="48.05275" lon="-1.5501">
        <ele>57.35261</ele>
        <time>2021-12-26T08:57:53.000Z</time>
      </trkpt>
      <trkpt lat="48.05274" lon="-1.55018">
        <ele>57.19426</ele>
        <time>2021-12-26T08:57:54.000Z</time>
      </trkpt>
      <trkpt lat="48.05273" lon="-1.55025">
        <ele>57.01262</ele>
        <time>2021-12-26T08:57:55.000Z</time>
      </trkpt>
      <trkpt lat="48.05272" lon="-1.55033">
        <ele>56.77491</ele>
        <time>2021-12-26T08:57:56.000Z</time>
      </trkpt>
      <trkpt lat="48.05271" lon="-1.5504">
        <ele>56.52101</ele>
        <time>2021-12-26T08:57:57.000Z</time>
      </trkpt>
      <trkpt lat="48.0527" lon="-1.55048">
        <ele>56.27402</ele>
        <time>2021-12-26T08:57:58.000Z</time>
      </trkpt>
      <trkpt lat="48.05269" lon="-1.55055">
        <ele>56.01096</ele>
        <time>2021-12-26T08:57:59.000Z</time>
      </trkpt>
      <trkpt lat="48.05269" lon="-1.55062">
        <ele>55.74261</ele>
        <time>2021-12-26T08:58:00.000Z</time>
      </trkpt>
      <trkpt lat="48.05268" lon="-1.55069">
        <ele>55.44893</ele>
        <time>2021-12-26T08:58:01.000Z</time>
      </trkpt>
      <trkpt lat="48.05267" lon="-1.55075">
        <ele>55.16604</ele>
        <time>2021-12-26T08:58:02.000Z</time>
      </trkpt>
      <trkpt lat="48.05267" lon="-1.55082">
        <ele>54.88282</ele>
        <time>2021-12-26T08:58:03.000Z</time>
      </trkpt>
      <trkpt lat="48.05267" lon="-1.55089">
        <ele>54.56535</ele>
        <time>2021-12-26T08:58:04.000Z</time>
      </trkpt>
      <trkpt lat="48.05265" lon="-1.551">
        <ele>53.98315</ele>
        <time>2021-12-26T08:58:05.000Z</time>
      </trkpt>
      <trkpt lat="48.05263" lon="-1.55109">
        <ele>53.48081</ele>
        <time>2021-12-26T08:58:06.000Z</time>
      </trkpt>
      <trkpt lat="48.05262" lon="-1.55118">
        <ele>52.95399</ele>
        <time>2021-12-26T08:58:07.000Z</time>
      </trkpt>
      <trkpt lat="48.0526" lon="-1.55126">
        <ele>52.37611</ele>
        <time>2021-12-26T08:58:08.000Z</time>
      </trkpt>
      <trkpt lat="48.05259" lon="-1.55133">
        <ele>51.78039</ele>
        <time>2021-12-26T08:58:09.000Z</time>
      </trkpt>
      <trkpt lat="48.05258" lon="-1.55143">
        <ele>51.05547</ele>
        <time>2021-12-26T08:58:10.000Z</time>
      </trkpt>
      <trkpt lat="48.05257" lon="-1.55152">
        <ele>50.2741</ele>
        <time>2021-12-26T08:58:11.000Z</time>
      </trkpt>
      <trkpt lat="48.05257" lon="-1.55163">
        <ele>49.39855</ele>
        <time>2021-12-26T08:58:12.000Z</time>
      </trkpt>
      <trkpt lat="48.05258" lon="-1.55173">
        <ele>48.48981</ele>
        <time>2021-12-26T08:58:13.000Z</time>
      </trkpt>
      <trkpt lat="48.05257" lon="-1.55184">
        <ele>47.58089</ele>
        <time>2021-12-26T08:58:14.000Z</time>
      </trkpt>
      <trkpt lat="48.05257" lon="-1.55194">
        <ele>46.68199</ele>
        <time>2021-12-26T08:58:15.000Z</time>
      </trkpt>
      <trkpt lat="48.05257" lon="-1.55205">
        <ele>45.59728</ele>
        <time>2021-12-26T08:58:16.000Z</time>
      </trkpt>
      <trkpt lat="48.05257" lon="-1.55215">
        <ele>44.70605</ele>
        <time>2021-12-26T08:58:17.000Z</time>
      </trkpt>
      <trkpt lat="48.05256" lon="-1.55223">
        <ele>44.13197</ele>
        <time>2021-12-26T08:58:18.000Z</time>
      </trkpt>
      <trkpt lat="48.05256" lon="-1.55232">
        <ele>43.56677</ele>
        <time>2021-12-26T08:58:19.000Z</time>
      </trkpt>
      <trkpt lat="48.05254" lon="-1.55239">
        <ele>43.11065</ele>
        <time>2021-12-26T08:58:20.000Z</time>
      </trkpt>
      <trkpt lat="48.05251" lon="-1.55248">
        <ele>42.50394</ele>
        <time>2021-12-26T08:58:21.000Z</time>
      </trkpt>
      <trkpt lat="48.05247" lon="-1.55256">
        <ele>41.98558</ele>
        <time>2021-12-26T08:58:22.000Z</time>
      </trkpt>
      <trkpt lat="48.05244" lon="-1.55263">
        <ele>41.46488</ele>
        <time>2021-12-26T08:58:23.000Z</time>
      </trkpt>
      <trkpt lat="48.05241" lon="-1.55271">
        <ele>40.97415</ele>
        <time>2021-12-26T08:58:24.000Z</time>
      </trkpt>
      <trkpt lat="48.05239" lon="-1.55277">
        <ele>40.60173</ele>
        <time>2021-12-26T08:58:25.000Z</time>
      </trkpt>
      <trkpt lat="48.05236" lon="-1.55284">
        <ele>40.32946</ele>
        <time>2021-12-26T08:58:26.000Z</time>
      </trkpt>
      <trkpt lat="48.05233" lon="-1.55289">
        <ele>40.14453</ele>
        <time>2021-12-26T08:58:27.000Z</time>
      </trkpt>
      <trkpt lat="48.0523" lon="-1.55293">
        <ele>40.0446</ele>
        <time>2021-12-26T08:58:28.000Z</time>
      </trkpt>
      <trkpt lat="48.05225" lon="-1.553">
        <ele>40.019</ele>
        <time>2021-12-26T08:58:29.000Z</time>
      </trkpt>
      <trkpt lat="48.05222" lon="-1.55304">
        <ele>40.09868</ele>
        <time>2021-12-26T08:58:30.000Z</time>
      </trkpt>
      <trkpt lat="48.05219" lon="-1.55309">
        <ele>40.21968</ele>
        <time>2021-12-26T08:58:31.000Z</time>
      </trkpt>
      <trkpt lat="48.05215" lon="-1.55313">
        <ele>40.36083</ele>
        <time>2021-12-26T08:58:32.000Z</time>
      </trkpt>
      <trkpt lat="48.05212" lon="-1.55317">
        <ele>40.46587</ele>
        <time>2021-12-26T08:58:33.000Z</time>
      </trkpt>
      <trkpt lat="48.05209" lon="-1.55322">
        <ele>40.5964</ele>
        <time>2021-12-26T08:58:34.000Z</time>
      </trkpt>
      <trkpt lat="48.05207" lon="-1.55327">
        <ele>40.7104</ele>
        <time>2021-12-26T08:58:35.000Z</time>
      </trkpt>
      <trkpt lat="48.05204" lon="-1.55331">
        <ele>40.79614</ele>
        <time>2021-12-26T08:58:36.000Z</time>
      </trkpt>
      <trkpt lat="48.05202" lon="-1.55335">
        <ele>40.85759</ele>
        <time>2021-12-26T08:58:37.000Z</time>
      </trkpt>
      <trkpt lat="48.052" lon="-1.55338">
        <ele>40.90212</ele>
        <time>2021-12-26T08:58:38.000Z</time>
      </trkpt>
      <trkpt lat="48.05197" lon="-1.55341">
        <ele>40.93935</ele>
        <time>2021-12-26T08:58:39.000Z</time>
      </trkpt>
      <trkpt lat="48.05194" lon="-1.55343">
        <ele>40.97911</ele>
        <time>2021-12-26T08:58:40.000Z</time>
      </trkpt>
      <trkpt lat="48.05191" lon="-1.55343">
        <ele>41.02213</ele>
        <time>2021-12-26T08:58:41.000Z</time>
      </trkpt>
      <trkpt lat="48.05191" lon="-1.55343">
        <ele>41.02213</ele>
      </trkpt>
      <trkpt lat="48.05187" lon="-1.55344">
        <ele>41.07378</ele>
      </trkpt>
      <trkpt lat="48.05185" lon="-1.55344">
        <ele>41.13189</ele>
      </trkpt>
      <trkpt lat="48.05182" lon="-1.55344">
        <ele>41.20941</ele>
      </trkpt>
      <trkpt lat="48.05179" lon="-1.55344">
        <ele>41.30468</ele>
      </trkpt>
      <trkpt lat="48.05176" lon="-1.55345">
        <ele>41.39403</ele>
      </trkpt>
      <trkpt lat="48.05174" lon="-1.55345">
        <ele>41.50673</ele>
      </trkpt>
      <trkpt lat="48.05171" lon="-1.55345">
        <ele>41.63517</ele>
      </trkpt>
      <trkpt lat="48.05167" lon="-1.55342">
        <ele>41.8978</ele>
      </trkpt>
      <trkpt lat="48.05164" lon="-1.55341">
        <ele>42.12502</ele>
      </trkpt>
      <trkpt lat="48.05162" lon="-1.5534">
        <ele>42.33041</ele>
      </trkpt>
      <trkpt lat="48.05158" lon="-1.55337">
        <ele>42.61863</ele>
      </trkpt>
      <trkpt lat="48.05156" lon="-1.55334">
        <ele>42.8767</ele>
      </trkpt>
      <trkpt lat="48.05153" lon="-1.55332">
        <ele>43.11431</ele>
      </trkpt>
      <trkpt lat="48.0515" lon="-1.5533">
        <ele>43.33305</ele>
      </trkpt>
      <trkpt lat="48.05148" lon="-1.55328">
        <ele>43.51961</ele>
      </trkpt>
      <trkpt lat="48.05145" lon="-1.55326">
        <ele>43.67508</ele>
      </trkpt>
      <trkpt lat="48.05143" lon="-1.55323">
        <ele>43.80762</ele>
      </trkpt>
      <trkpt lat="48.0514" lon="-1.5532">
        <ele>43.90349</ele>
      </trkpt>
      <trkpt lat="48.05138" lon="-1.55317">
        <ele>43.96448</ele>
      </trkpt>
      <trkpt lat="48.05135" lon="-1.55315">
        <ele>43.99438</ele>
      </trkpt>
      <trkpt lat="48.05133" lon="-1.55312">
        <ele>43.99315</ele>
      </trkpt>
      <trkpt lat="48.05131" lon="-1.55309">
        <ele>43.99089</ele>
      </trkpt>
      <trkpt lat="48.05128" lon="-1.55306">
        <ele>43.98269</ele>
      </trkpt>
      <trkpt lat="48.05125" lon="-1.55303">
        <ele>43.9705</ele>
      </trkpt>
      <trkpt lat="48.05123" lon="-1.553">
        <ele>43.94062</ele>
      </trkpt>
      <trkpt lat="48.0512" lon="-1.55296">
        <ele>43.88065</ele>
      </trkpt>
      <trkpt lat="48.05116" lon="-1.55293">
        <ele>43.78132</ele>
      </trkpt>
      <trkpt lat="48.05113" lon="-1.5529">
        <ele>43.62595</ele>
      </trkpt>
      <trkpt lat="48.0511" lon="-1.55286">
        <ele>43.41588</ele>
      </trkpt>
      <trkpt lat="48.05107" lon="-1.55281">
        <ele>43.16812</ele>
      </trkpt>
      <trkpt lat="48.05103" lon="-1.55277">
        <ele>42.90117</ele>
      </trkpt>
      <trkpt lat="48.051" lon="-1.55271">
        <ele>42.55497</ele>
      </trkpt>
      <trkpt lat="48.05096" lon="-1.55267">
        <ele>42.26822</ele>
      </trkpt>
      <trkpt lat="48.05093" lon="-1.55262">
        <ele>41.98148</ele>
      </trkpt>
      <trkpt lat="48.0509" lon="-1.55258">
        <ele>41.7633</ele>
      </trkpt>
      <trkpt lat="48.05086" lon="-1.55254">
        <ele>41.61792</ele>
      </trkpt>
      <trkpt lat="48.05084" lon="-1.5525">
        <ele>41.52845</ele>
      </trkpt>
      <trkpt lat="48.05081" lon="-1.55247">
        <ele>41.49857</ele>
      </trkpt>
      <trkpt lat="48.05077" lon="-1.55243">
        <ele>41.5452</ele>
      </trkpt>
      <trkpt lat="48.05074" lon="-1.55239">
        <ele>41.63955</ele>
      </trkpt>
      <trkpt lat="48.05071" lon="-1.55236">
        <ele>41.73643</ele>
      </trkpt>
      <trkpt lat="48.05068" lon="-1.55231">
        <ele>41.82694</ele>
      </trkpt>
      <trkpt lat="48.05066" lon="-1.55227">
        <ele>41.91952</ele>
      </trkpt>
      <trkpt lat="48.05063" lon="-1.55223">
        <ele>42.034</ele>
      </trkpt>
      <trkpt lat="48.0506" lon="-1.55219">
        <ele>42.12067</ele>
      </trkpt>
      <trkpt lat="48.05058" lon="-1.55215">
        <ele>42.19728</ele>
      </trkpt>
      <trkpt lat="48.05056" lon="-1.55211">
        <ele>42.26657</ele>
      </trkpt>
      <trkpt lat="48.05053" lon="-1.55207">
        <ele>42.34781</ele>
      </trkpt>
      <trkpt lat="48.05051" lon="-1.55203">
        <ele>42.37342</ele>
      </trkpt>
      <trkpt lat="48.05048" lon="-1.55199">
        <ele>42.40791</ele>
      </trkpt>
      <trkpt lat="48.05046" lon="-1.55194">
        <ele>42.45056</ele>
      </trkpt>
      <trkpt lat="48.05044" lon="-1.55189">
        <ele>42.51193</ele>
      </trkpt>
      <trkpt lat="48.05042" lon="-1.55185">
        <ele>42.59468</ele>
      </trkpt>
      <trkpt lat="48.05039" lon="-1.5518">
        <ele>42.7053</ele>
      </trkpt>
      <trkpt lat="48.05038" lon="-1.55176">
        <ele>42.80371</ele>
      </trkpt>
      <trkpt lat="48.05036" lon="-1.5517">
        <ele>42.86771</ele>
      </trkpt>
      <trkpt lat="48.05034" lon="-1.55166">
        <ele>42.91786</ele>
      </trkpt>
      <trkpt lat="48.05033" lon="-1.55161">
        <ele>42.93387</ele>
      </trkpt>
      <trkpt lat="48.05032" lon="-1.55158">
        <ele>42.89121</ele>
      </trkpt>
      <trkpt lat="48.05031" lon="-1.55154">
        <ele>42.81895</ele>
      </trkpt>
      <trkpt lat="48.0503" lon="-1.5515">
        <ele>42.74595</ele>
      </trkpt>
      <trkpt lat="48.05028" lon="-1.55145">
        <ele>42.62553</ele>
      </trkpt>
      <trkpt lat="48.05027" lon="-1.5514">
        <ele>42.54358</ele>
      </trkpt>
      <trkpt lat="48.05026" lon="-1.55135">
        <ele>42.49251</ele>
      </trkpt>
      <trkpt lat="48.05024" lon="-1.55129">
        <ele>42.51715</ele>
      </trkpt>
      <trkpt lat="48.05023" lon="-1.55124">
        <ele>42.59737</ele>
      </trkpt>
      <trkpt lat="48.05022" lon="-1.5512">
        <ele>42.70927</ele>
      </trkpt>
      <trkpt lat="48.05021" lon="-1.55115">
        <ele>42.84367</ele>
      </trkpt>
      <trkpt lat="48.0502" lon="-1.5511">
        <ele>43.00449</ele>
      </trkpt>
      <trkpt lat="48.05019" lon="-1.55105">
        <ele>43.1712</ele>
      </trkpt>
      <trkpt lat="48.05018" lon="-1.55101">
        <ele>43.40168</ele>
      </trkpt>
      <trkpt lat="48.05017" lon="-1.55096">
        <ele>43.5622</ele>
      </trkpt>
      <trkpt lat="48.05016" lon="-1.55091">
        <ele>43.69952</ele>
      </trkpt>
      <trkpt lat="48.05015" lon="-1.55087">
        <ele>43.83292</ele>
      </trkpt>
      <trkpt lat="48.05013" lon="-1.55083">
        <ele>43.91397</ele>
      </trkpt>
      <trkpt lat="48.05012" lon="-1.55078">
        <ele>43.9552</ele>
      </trkpt>
      <trkpt lat="48.05011" lon="-1.55073">
        <ele>43.95717</ele>
      </trkpt>
      <trkpt lat="48.05009" lon="-1.55068">
        <ele>43.94018</ele>
      </trkpt>
      <trkpt lat="48.05008" lon="-1.55063">
        <ele>43.91272</ele>
      </trkpt>
      <trkpt lat="48.05007" lon="-1.55059">
        <ele>43.92119</ele>
      </trkpt>
      <trkpt lat="48.05005" lon="-1.55055">
        <ele>43.97421</ele>
      </trkpt>
      <trkpt lat="48.05003" lon="-1.5505">
        <ele>44.06254</ele>
      </trkpt>
      <trkpt lat="48.05002" lon="-1.55046">
        <ele>44.19784</ele>
      </trkpt>
      <trkpt lat="48.05" lon="-1.55042">
        <ele>44.34405</ele>
      </trkpt>
      <trkpt lat="48.04999" lon="-1.55037">
        <ele>44.46366</ele>
      </trkpt>
      <trkpt lat="48.04997" lon="-1.55033">
        <ele>44.56867</ele>
      </trkpt>
      <trkpt lat="48.04996" lon="-1.55029">
        <ele>44.63795</ele>
      </trkpt>
      <trkpt lat="48.04994" lon="-1.55025">
        <ele>44.64374</ele>
      </trkpt>
      <trkpt lat="48.04992" lon="-1.5502">
        <ele>44.59319</ele>
      </trkpt>
      <trkpt lat="48.04991" lon="-1.55016">
        <ele>44.45379</ele>
      </trkpt>
      <trkpt lat="48.0499" lon="-1.5501">
        <ele>44.21681</ele>
      </trkpt>
      <trkpt lat="48.04988" lon="-1.55005">
        <ele>43.92517</ele>
      </trkpt>
      <trkpt lat="48.04986" lon="-1.54999">
        <ele>43.62801</ele>
      </trkpt>
      <trkpt lat="48.04984" lon="-1.54993">
        <ele>43.37424</ele>
      </trkpt>
      <trkpt lat="48.04982" lon="-1.54986">
        <ele>43.21105</ele>
      </trkpt>
      <trkpt lat="48.0498" lon="-1.5498">
        <ele>43.0481</ele>
      </trkpt>
      <trkpt lat="48.04977" lon="-1.54972">
        <ele>42.71891</ele>
      </trkpt>
      <trkpt lat="48.04975" lon="-1.54962">
        <ele>42.08301</ele>
      </trkpt>
      <trkpt lat="48.04972" lon="-1.54954">
        <ele>41.2953</ele>
      </trkpt>
      <trkpt lat="48.04969" lon="-1.54946">
        <ele>40.61062</ele>
      </trkpt>
      <trkpt lat="48.04966" lon="-1.54939">
        <ele>40.03357</ele>
      </trkpt>
      <trkpt lat="48.04963" lon="-1.5493">
        <ele>39.49925</ele>
      </trkpt>
      <trkpt lat="48.0496" lon="-1.5492">
        <ele>38.94733</ele>
      </trkpt>
      <trkpt lat="48.04957" lon="-1.54912">
        <ele>38.30936</ele>
      </trkpt>
      <trkpt lat="48.04953" lon="-1.54906">
        <ele>37.66784</ele>
      </trkpt>
      <trkpt lat="48.04949" lon="-1.54899">
        <ele>36.80814</ele>
      </trkpt>
      <trkpt lat="48.04946" lon="-1.54893">
        <ele>36.04922</ele>
      </trkpt>
      <trkpt lat="48.04942" lon="-1.54886">
        <ele>35.36459</ele>
      </trkpt>
      <trkpt lat="48.04938" lon="-1.5488">
        <ele>34.88565</ele>
      </trkpt>
      <trkpt lat="48.04934" lon="-1.54873">
        <ele>34.56705</ele>
      </trkpt>
      <trkpt lat="48.04931" lon="-1.54867">
        <ele>34.26726</ele>
      </trkpt>
      <trkpt lat="48.04928" lon="-1.54862">
        <ele>34.02147</ele>
      </trkpt>
      <trkpt lat="48.04926" lon="-1.54858">
        <ele>33.775</ele>
      </trkpt>
      <trkpt lat="48.04925" lon="-1.54854">
        <ele>33.61057</ele>
      </trkpt>
      <trkpt lat="48.04923" lon="-1.54851">
        <ele>33.47818</ele>
      </trkpt>
      <trkpt lat="48.04922" lon="-1.54848">
        <ele>33.37649</ele>
      </trkpt>
      <trkpt lat="48.04921" lon="-1.54844">
        <ele>33.29597</ele>
      </trkpt>
      <trkpt lat="48.04919" lon="-1.54841">
        <ele>33.24397</ele>
      </trkpt>
      <trkpt lat="48.04917" lon="-1.54836">
        <ele>33.22165</ele>
      </trkpt>
      <trkpt lat="48.04915" lon="-1.54833">
        <ele>33.22583</ele>
      </trkpt>
      <trkpt lat="48.04912" lon="-1.54828">
        <ele>33.24495</ele>
      </trkpt>
      <trkpt lat="48.04909" lon="-1.54823">
        <ele>33.27457</ele>
      </trkpt>
      <trkpt lat="48.04907" lon="-1.54818">
        <ele>33.3115</ele>
      </trkpt>
      <trkpt lat="48.04905" lon="-1.54812">
        <ele>33.3904</ele>
      </trkpt>
      <trkpt lat="48.04903" lon="-1.54809">
        <ele>33.46714</ele>
      </trkpt>
      <trkpt lat="48.04902" lon="-1.54805">
        <ele>33.57563</ele>
      </trkpt>
      <trkpt lat="48.04899" lon="-1.54799">
        <ele>33.75839</ele>
      </trkpt>
      <trkpt lat="48.04898" lon="-1.54795">
        <ele>33.88682</ele>
      </trkpt>
      <trkpt lat="48.04897" lon="-1.5479">
        <ele>34.0223</ele>
      </trkpt>
      <trkpt lat="48.04895" lon="-1.54786">
        <ele>34.12793</ele>
      </trkpt>
      <trkpt lat="48.04893" lon="-1.54782">
        <ele>34.21264</ele>
      </trkpt>
      <trkpt lat="48.04892" lon="-1.54778">
        <ele>34.29715</ele>
      </trkpt>
      <trkpt lat="48.04891" lon="-1.54773">
        <ele>34.41124</ele>
      </trkpt>
      <trkpt lat="48.0489" lon="-1.5477">
        <ele>34.50131</ele>
      </trkpt>
      <trkpt lat="48.0489" lon="-1.54769">
        <ele>34.53877</ele>
      </trkpt>
      <trkpt lat="48.0489" lon="-1.54769">
        <ele>34.53877</ele>
      </trkpt>
      <trkpt lat="48.04889" lon="-1.54773">
        <ele>34.39839</ele>
      </trkpt>
      <trkpt lat="48.04887" lon="-1.54776">
        <ele>34.26405</ele>
      </trkpt>
      <trkpt lat="48.04886" lon="-1.54778">
        <ele>34.1785</ele>
      </trkpt>
      <trkpt lat="48.04885" lon="-1.54781">
        <ele>34.07983</ele>
      </trkpt>
      <trkpt lat="48.04883" lon="-1.54779">
        <ele>34.07953</ele>
      </trkpt>
      <trkpt lat="48.0488" lon="-1.54777">
        <ele>34.08939</ele>
      </trkpt>
      <trkpt lat="48.04878" lon="-1.54775">
        <ele>34.1091</ele>
      </trkpt>
      <trkpt lat="48.04876" lon="-1.54773">
        <ele>34.1468</ele>
      </trkpt>
      <trkpt lat="48.04874" lon="-1.5477">
        <ele>34.18546</ele>
      </trkpt>
      <trkpt lat="48.04872" lon="-1.54767">
        <ele>34.21989</ele>
      </trkpt>
      <trkpt lat="48.0487" lon="-1.54764">
        <ele>34.22068</ele>
      </trkpt>
      <trkpt lat="48.04868" lon="-1.54761">
        <ele>34.259</ele>
      </trkpt>
      <trkpt lat="48.04868" lon="-1.54757">
        <ele>34.3398</ele>
      </trkpt>
      <trkpt lat="48.04868" lon="-1.54754">
        <ele>34.44732</ele>
      </trkpt>
      <trkpt lat="48.04868" lon="-1.5475">
        <ele>34.51649</ele>
      </trkpt>
      <trkpt lat="48.04866" lon="-1.54747">
        <ele>34.52316</ele>
      </trkpt>
      <trkpt lat="48.04865" lon="-1.54744">
        <ele>34.56354</ele>
      </trkpt>
      <trkpt lat="48.04863" lon="-1.54741">
        <ele>34.57815</ele>
      </trkpt>
      <trkpt lat="48.04861" lon="-1.54739">
        <ele>34.5772</ele>
      </trkpt>
      <trkpt lat="48.04859" lon="-1.54736">
        <ele>34.60899</ele>
      </trkpt>
      <trkpt lat="48.04857" lon="-1.54734">
        <ele>34.62533</ele>
      </trkpt>
      <trkpt lat="48.04855" lon="-1.54732">
        <ele>34.69364</ele>
      </trkpt>
      <trkpt lat="48.04853" lon="-1.5473">
        <ele>34.75644</ele>
      </trkpt>
      <trkpt lat="48.0485" lon="-1.54728">
        <ele>34.80288</ele>
      </trkpt>
      <trkpt lat="48.04847" lon="-1.54726">
        <ele>34.83414</ele>
      </trkpt>
      <trkpt lat="48.04844" lon="-1.54724">
        <ele>34.85603</ele>
      </trkpt>
      <trkpt lat="48.04841" lon="-1.54722">
        <ele>34.87239</ele>
      </trkpt>
      <trkpt lat="48.04838" lon="-1.5472">
        <ele>34.8805</ele>
      </trkpt>
      <trkpt lat="48.04836" lon="-1.54719">
        <ele>34.8709</ele>
      </trkpt>
      <trkpt lat="48.04833" lon="-1.54717">
        <ele>34.89268</ele>
      </trkpt>
      <trkpt lat="48.04831" lon="-1.54715">
        <ele>34.86922</ele>
      </trkpt>
      <trkpt lat="48.04828" lon="-1.54713">
        <ele>34.84847</ele>
      </trkpt>
      <trkpt lat="48.04826" lon="-1.54711">
        <ele>34.80854</ele>
      </trkpt>
      <trkpt lat="48.04823" lon="-1.54709">
        <ele>34.78221</ele>
      </trkpt>
      <trkpt lat="48.04821" lon="-1.54707">
        <ele>34.80735</ele>
      </trkpt>
      <trkpt lat="48.04818" lon="-1.54705">
        <ele>34.83002</ele>
      </trkpt>
      <trkpt lat="48.04816" lon="-1.54703">
        <ele>34.86404</ele>
      </trkpt>
      <trkpt lat="48.04813" lon="-1.54702">
        <ele>34.90678</ele>
      </trkpt>
      <trkpt lat="48.04811" lon="-1.547">
        <ele>34.91332</ele>
      </trkpt>
      <trkpt lat="48.04808" lon="-1.547">
        <ele>34.87633</ele>
      </trkpt>
      <trkpt lat="48.04805" lon="-1.54698">
        <ele>34.93484</ele>
      </trkpt>
      <trkpt lat="48.04803" lon="-1.54696">
        <ele>34.9886</ele>
      </trkpt>
      <trkpt lat="48.048" lon="-1.54695">
        <ele>35.05334</ele>
      </trkpt>
      <trkpt lat="48.04797" lon="-1.54693">
        <ele>35.11102</ele>
      </trkpt>
      <trkpt lat="48.04794" lon="-1.54692">
        <ele>35.1293</ele>
      </trkpt>
      <trkpt lat="48.04792" lon="-1.54691">
        <ele>35.10719</ele>
      </trkpt>
      <trkpt lat="48.04789" lon="-1.5469">
        <ele>35.0616</ele>
      </trkpt>
      <trkpt lat="48.04786" lon="-1.5469">
        <ele>34.96269</ele>
      </trkpt>
      <trkpt lat="48.04783" lon="-1.54689">
        <ele>34.90213</ele>
      </trkpt>
      <trkpt lat="48.04781" lon="-1.54688">
        <ele>34.8522</ele>
      </trkpt>
      <trkpt lat="48.04778" lon="-1.54686">
        <ele>34.8235</ele>
      </trkpt>
      <trkpt lat="48.04776" lon="-1.54685">
        <ele>34.8051</ele>
      </trkpt>
      <trkpt lat="48.04775" lon="-1.54684">
        <ele>34.81075</ele>
      </trkpt>
      <trkpt lat="48.04773" lon="-1.54682">
        <ele>34.80987</ele>
      </trkpt>
      <trkpt lat="48.04771" lon="-1.54681">
        <ele>34.8267</ele>
      </trkpt>
      <trkpt lat="48.04769" lon="-1.54679">
        <ele>34.90796</ele>
      </trkpt>
      <trkpt lat="48.04767" lon="-1.54677">
        <ele>35.00751</ele>
      </trkpt>
      <trkpt lat="48.04765" lon="-1.54675">
        <ele>35.18969</ele>
      </trkpt>
      <trkpt lat="48.04763" lon="-1.54671">
        <ele>35.527</ele>
      </trkpt>
      <trkpt lat="48.04761" lon="-1.5467">
        <ele>35.67707</ele>
      </trkpt>
      <trkpt lat="48.04759" lon="-1.54669">
        <ele>35.84701</ele>
      </trkpt>
      <trkpt lat="48.04757" lon="-1.54668">
        <ele>35.99772</ele>
      </trkpt>
      <trkpt lat="48.04755" lon="-1.54667">
        <ele>36.05804</ele>
      </trkpt>
      <trkpt lat="48.04754" lon="-1.54666">
        <ele>36.15378</ele>
      </trkpt>
      <trkpt lat="48.04752" lon="-1.54666">
        <ele>36.22235</ele>
      </trkpt>
      <trkpt lat="48.04749" lon="-1.54665">
        <ele>36.31432</ele>
      </trkpt>
      <trkpt lat="48.04747" lon="-1.54665">
        <ele>36.26772</ele>
      </trkpt>
      <trkpt lat="48.04744" lon="-1.54665">
        <ele>35.94802</ele>
      </trkpt>
      <trkpt lat="48.0474" lon="-1.54665">
        <ele>35.75116</ele>
      </trkpt>
      <trkpt lat="48.04735" lon="-1.54665">
        <ele>35.5816</ele>
      </trkpt>
      <trkpt lat="48.04732" lon="-1.54665">
        <ele>35.37662</ele>
      </trkpt>
      <trkpt lat="48.04727" lon="-1.54665">
        <ele>35.31058</ele>
      </trkpt>
      <trkpt lat="48.04723" lon="-1.54664">
        <ele>35.47219</ele>
      </trkpt>
      <trkpt lat="48.04719" lon="-1.54665">
        <ele>35.01231</ele>
      </trkpt>
      <trkpt lat="48.04716" lon="-1.54665">
        <ele>34.73877</ele>
      </trkpt>
      <trkpt lat="48.04713" lon="-1.54666">
        <ele>34.41472</ele>
      </trkpt>
      <trkpt lat="48.0471" lon="-1.54667">
        <ele>34.13769</ele>
      </trkpt>
      <trkpt lat="48.04706" lon="-1.54667">
        <ele>34.03977</ele>
      </trkpt>
      <trkpt lat="48.04703" lon="-1.54667">
        <ele>34.03275</ele>
      </trkpt>
      <trkpt lat="48.047" lon="-1.54668">
        <ele>33.99012</ele>
      </trkpt>
      <trkpt lat="48.04698" lon="-1.54669">
        <ele>33.98071</ele>
      </trkpt>
      <trkpt lat="48.04695" lon="-1.5467">
        <ele>34.08344</ele>
      </trkpt>
      <trkpt lat="48.04692" lon="-1.5467">
        <ele>34.28348</ele>
      </trkpt>
      <trkpt lat="48.04688" lon="-1.54671">
        <ele>34.48452</ele>
      </trkpt>
      <trkpt lat="48.04685" lon="-1.54671">
        <ele>34.78467</ele>
      </trkpt>
      <trkpt lat="48.04682" lon="-1.54671">
        <ele>35.0613</ele>
      </trkpt>
      <trkpt lat="48.04678" lon="-1.54671">
        <ele>35.30775</ele>
      </trkpt>
      <trkpt lat="48.04675" lon="-1.54671">
        <ele>35.65081</ele>
      </trkpt>
      <trkpt lat="48.04672" lon="-1.5467">
        <ele>35.97519</ele>
      </trkpt>
      <trkpt lat="48.04669" lon="-1.5467">
        <ele>36.21083</ele>
      </trkpt>
      <trkpt lat="48.04666" lon="-1.5467">
        <ele>36.50235</ele>
      </trkpt>
      <trkpt lat="48.04663" lon="-1.5467">
        <ele>36.72357</ele>
      </trkpt>
      <trkpt lat="48.04661" lon="-1.5467">
        <ele>36.97139</ele>
      </trkpt>
      <trkpt lat="48.04658" lon="-1.54669">
        <ele>37.19255</ele>
      </trkpt>
      <trkpt lat="48.04655" lon="-1.5467">
        <ele>37.28988</ele>
      </trkpt>
      <trkpt lat="48.04652" lon="-1.54671">
        <ele>37.15431</ele>
      </trkpt>
      <trkpt lat="48.04649" lon="-1.54672">
        <ele>36.95208</ele>
      </trkpt>
      <trkpt lat="48.04646" lon="-1.54673">
        <ele>36.75962</ele>
      </trkpt>
      <trkpt lat="48.04643" lon="-1.54674">
        <ele>36.67063</ele>
      </trkpt>
      <trkpt lat="48.0464" lon="-1.54674">
        <ele>36.59948</ele>
      </trkpt>
      <trkpt lat="48.04637" lon="-1.54675">
        <ele>36.58087</ele>
      </trkpt>
      <trkpt lat="48.04634" lon="-1.54675">
        <ele>36.63659</ele>
      </trkpt>
      <trkpt lat="48.04631" lon="-1.54676">
        <ele>36.49827</ele>
      </trkpt>
      <trkpt lat="48.04627" lon="-1.54677">
        <ele>36.32958</ele>
      </trkpt>
      <trkpt lat="48.04624" lon="-1.54678">
        <ele>36.131</ele>
      </trkpt>
      <trkpt lat="48.04622" lon="-1.54679">
        <ele>35.95334</ele>
      </trkpt>
      <trkpt lat="48.04619" lon="-1.5468">
        <ele>35.77885</ele>
      </trkpt>
      <trkpt lat="48.04616" lon="-1.54681">
        <ele>35.583</ele>
      </trkpt>
      <trkpt lat="48.04613" lon="-1.54682">
        <ele>35.4233</ele>
      </trkpt>
      <trkpt lat="48.0461" lon="-1.54682">
        <ele>35.33952</ele>
      </trkpt>
      <trkpt lat="48.04607" lon="-1.54683">
        <ele>35.25518</ele>
      </trkpt>
      <trkpt lat="48.04605" lon="-1.54684">
        <ele>35.29124</ele>
      </trkpt>
      <trkpt lat="48.04602" lon="-1.54685">
        <ele>35.30231</ele>
      </trkpt>
      <trkpt lat="48.046" lon="-1.54685">
        <ele>35.26945</ele>
      </trkpt>
      <trkpt lat="48.04597" lon="-1.54687">
        <ele>35.32638</ele>
      </trkpt>
      <trkpt lat="48.04594" lon="-1.54688">
        <ele>35.41782</ele>
      </trkpt>
      <trkpt lat="48.04591" lon="-1.54688">
        <ele>35.7825</ele>
      </trkpt>
      <trkpt lat="48.04588" lon="-1.54689">
        <ele>36.09932</ele>
      </trkpt>
      <trkpt lat="48.04586" lon="-1.54689">
        <ele>36.41499</ele>
      </trkpt>
      <trkpt lat="48.04584" lon="-1.5469">
        <ele>36.84256</ele>
      </trkpt>
      <trkpt lat="48.04581" lon="-1.54692">
        <ele>37.20044</ele>
      </trkpt>
      <trkpt lat="48.04579" lon="-1.54693">
        <ele>37.49137</ele>
      </trkpt>
      <trkpt lat="48.04577" lon="-1.54695">
        <ele>37.73752</ele>
      </trkpt>
      <trkpt lat="48.04574" lon="-1.54697">
        <ele>37.94781</ele>
      </trkpt>
      <trkpt lat="48.0457" lon="-1.54701">
        <ele>38.0366</ele>
      </trkpt>
      <trkpt lat="48.04569" lon="-1.54703">
        <ele>37.94045</ele>
      </trkpt>
      <trkpt lat="48.04567" lon="-1.54705">
        <ele>37.61935</ele>
      </trkpt>
      <trkpt lat="48.04565" lon="-1.54709">
        <ele>37.19444</ele>
      </trkpt>
      <trkpt lat="48.04565" lon="-1.54709">
        <ele>37.19444</ele>
      </trkpt>
      <trkpt lat="48.04564" lon="-1.54712">
        <ele>36.89626</ele>
      </trkpt>
      <trkpt lat="48.04562" lon="-1.54714">
        <ele>36.70201</ele>
      </trkpt>
      <trkpt lat="48.04561" lon="-1.54717">
        <ele>36.52973</ele>
      </trkpt>
      <trkpt lat="48.0456" lon="-1.54721">
        <ele>36.21053</ele>
      </trkpt>
      <trkpt lat="48.0456" lon="-1.54727">
        <ele>35.4285</ele>
      </trkpt>
      <trkpt lat="48.0456" lon="-1.54732">
        <ele>35.14092</ele>
      </trkpt>
      <trkpt lat="48.04559" lon="-1.54737">
        <ele>34.97687</ele>
      </trkpt>
      <trkpt lat="48.04558" lon="-1.54743">
        <ele>34.85693</ele>
      </trkpt>
      <trkpt lat="48.04556" lon="-1.5475">
        <ele>34.77801</ele>
      </trkpt>
      <trkpt lat="48.04555" lon="-1.54756">
        <ele>34.73182</ele>
      </trkpt>
      <trkpt lat="48.04553" lon="-1.54763">
        <ele>34.86938</ele>
      </trkpt>
      <trkpt lat="48.04552" lon="-1.54767">
        <ele>34.92471</ele>
      </trkpt>
      <trkpt lat="48.04551" lon="-1.54771">
        <ele>34.93553</ele>
      </trkpt>
      <trkpt lat="48.0455" lon="-1.54776">
        <ele>34.94297</ele>
      </trkpt>
      <trkpt lat="48.04548" lon="-1.54781">
        <ele>34.96493</ele>
      </trkpt>
      <trkpt lat="48.04547" lon="-1.54785">
        <ele>34.89804</ele>
      </trkpt>
      <trkpt lat="48.04547" lon="-1.5479">
        <ele>34.79903</ele>
      </trkpt>
      <trkpt lat="48.04546" lon="-1.54794">
        <ele>34.70235</ele>
      </trkpt>
      <trkpt lat="48.04545" lon="-1.54798">
        <ele>34.56848</ele>
      </trkpt>
      <trkpt lat="48.04545" lon="-1.54802">
        <ele>34.38195</ele>
      </trkpt>
      <trkpt lat="48.04545" lon="-1.54806">
        <ele>34.18433</ele>
      </trkpt>
      <trkpt lat="48.04546" lon="-1.5481">
        <ele>34.00298</ele>
      </trkpt>
      <trkpt lat="48.04546" lon="-1.54814">
        <ele>33.83052</ele>
      </trkpt>
      <trkpt lat="48.04547" lon="-1.54819">
        <ele>33.59551</ele>
      </trkpt>
      <trkpt lat="48.04547" lon="-1.54824">
        <ele>33.45181</ele>
      </trkpt>
      <trkpt lat="48.04547" lon="-1.5483">
        <ele>33.33931</ele>
      </trkpt>
      <trkpt lat="48.04547" lon="-1.54835">
        <ele>33.22701</ele>
      </trkpt>
      <trkpt lat="48.04547" lon="-1.5484">
        <ele>33.14312</ele>
      </trkpt>
      <trkpt lat="48.04548" lon="-1.54845">
        <ele>33.09377</ele>
      </trkpt>
      <trkpt lat="48.04547" lon="-1.54851">
        <ele>33.11474</ele>
      </trkpt>
      <trkpt lat="48.04543" lon="-1.54858">
        <ele>33.51219</ele>
      </trkpt>
      <trkpt lat="48.04542" lon="-1.54863">
        <ele>33.71989</ele>
      </trkpt>
      <trkpt lat="48.04541" lon="-1.54867">
        <ele>33.84712</ele>
      </trkpt>
      <trkpt lat="48.04541" lon="-1.5487">
        <ele>33.90515</ele>
      </trkpt>
      <trkpt lat="48.04542" lon="-1.54872">
        <ele>33.88124</ele>
      </trkpt>
      <trkpt lat="48.04544" lon="-1.54877">
        <ele>33.68239</ele>
      </trkpt>
      <trkpt lat="48.04542" lon="-1.54876">
        <ele>34.00304</ele>
      </trkpt>
      <trkpt lat="48.0454" lon="-1.54878">
        <ele>34.34937</ele>
      </trkpt>
      <trkpt lat="48.04537" lon="-1.54876">
        <ele>34.73324</ele>
      </trkpt>
      <trkpt lat="48.04535" lon="-1.54876">
        <ele>35.17589</ele>
      </trkpt>
      <trkpt lat="48.04531" lon="-1.54876">
        <ele>36.25157</ele>
      </trkpt>
      <trkpt lat="48.04532" lon="-1.54879">
        <ele>35.88088</ele>
      </trkpt>
      <trkpt lat="48.04534" lon="-1.54884">
        <ele>35.53015</ele>
      </trkpt>
      <trkpt lat="48.04535" lon="-1.54886">
        <ele>35.31104</ele>
      </trkpt>
      <trkpt lat="48.04537" lon="-1.5489">
        <ele>35.01108</ele>
      </trkpt>
      <trkpt lat="48.04539" lon="-1.54893">
        <ele>34.78639</ele>
      </trkpt>
      <trkpt lat="48.0454" lon="-1.54897">
        <ele>34.73401</ele>
      </trkpt>
      <trkpt lat="48.04542" lon="-1.54899">
        <ele>34.48432</ele>
      </trkpt>
      <trkpt lat="48.0454" lon="-1.54894">
        <ele>34.61605</ele>
      </trkpt>
      <trkpt lat="48.04538" lon="-1.54891">
        <ele>34.80389</ele>
      </trkpt>
      <trkpt lat="48.04536" lon="-1.54888">
        <ele>35.16462</ele>
      </trkpt>
      <trkpt lat="48.04533" lon="-1.54886">
        <ele>35.58924</ele>
      </trkpt>
      <trkpt lat="48.04531" lon="-1.54884">
        <ele>36.12767</ele>
      </trkpt>
      <trkpt lat="48.04533" lon="-1.54881">
        <ele>35.5615</ele>
      </trkpt>
      <trkpt lat="48.04535" lon="-1.54882">
        <ele>35.12332</ele>
      </trkpt>
      <trkpt lat="48.04537" lon="-1.54885">
        <ele>34.87011</ele>
      </trkpt>
      <trkpt lat="48.04537" lon="-1.5489">
        <ele>35.03893</ele>
      </trkpt>
      <trkpt lat="48.04537" lon="-1.54894">
        <ele>35.05346</ele>
      </trkpt>
      <trkpt lat="48.04539" lon="-1.54897">
        <ele>34.82152</ele>
      </trkpt>
      <trkpt lat="48.04541" lon="-1.549">
        <ele>34.69184</ele>
      </trkpt>
      <trkpt lat="48.04542" lon="-1.54904">
        <ele>34.62039</ele>
      </trkpt>
      <trkpt lat="48.04544" lon="-1.54901">
        <ele>34.2761</ele>
      </trkpt>
      <trkpt lat="48.04543" lon="-1.54898">
        <ele>34.37329</ele>
      </trkpt>
      <trkpt lat="48.04543" lon="-1.54898">
        <ele>34.37329</ele>
        <time>2021-12-26T09:08:31.999Z</time>
      </trkpt>
      <trkpt lat="48.04541" lon="-1.54894">
        <ele>34.51603</ele>
        <time>2021-12-26T09:08:32.999Z</time>
      </trkpt>
      <trkpt lat="48.04539" lon="-1.54891">
        <ele>34.67737</ele>
        <time>2021-12-26T09:08:33.999Z</time>
      </trkpt>
      <trkpt lat="48.04537" lon="-1.54888">
        <ele>35.01058</ele>
        <time>2021-12-26T09:08:34.999Z</time>
      </trkpt>
      <trkpt lat="48.04534" lon="-1.54885">
        <ele>35.47353</ele>
        <time>2021-12-26T09:08:35.999Z</time>
      </trkpt>
      <trkpt lat="48.04531" lon="-1.54883">
        <ele>36.08541</ele>
        <time>2021-12-26T09:08:36.999Z</time>
      </trkpt>
      <trkpt lat="48.04529" lon="-1.54883">
        <ele>36.62759</ele>
        <time>2021-12-26T09:08:37.999Z</time>
      </trkpt>
      <trkpt lat="48.04527" lon="-1.54882">
        <ele>37.18206</ele>
        <time>2021-12-26T09:08:39.999Z</time>
      </trkpt>
      <trkpt lat="48.04525" lon="-1.54881">
        <ele>37.859</ele>
        <time>2021-12-26T09:08:41.999Z</time>
      </trkpt>
      <trkpt lat="48.04524" lon="-1.54879">
        <ele>38.37203</ele>
        <time>2021-12-26T09:08:44.999Z</time>
      </trkpt>
      <trkpt lat="48.04522" lon="-1.54878">
        <ele>38.99432</ele>
        <time>2021-12-26T09:08:46.999Z</time>
      </trkpt>
      <trkpt lat="48.0452" lon="-1.54879">
        <ele>39.4828</ele>
        <time>2021-12-26T09:08:48.999Z</time>
      </trkpt>
      <trkpt lat="48.04516" lon="-1.5488">
        <ele>40.20043</ele>
        <time>2021-12-26T09:08:50.999Z</time>
      </trkpt>
      <trkpt lat="48.04513" lon="-1.54881">
        <ele>40.58639</ele>
        <time>2021-12-26T09:08:52.999Z</time>
      </trkpt>
      <trkpt lat="48.04511" lon="-1.54881">
        <ele>40.86377</ele>
        <time>2021-12-26T09:08:53.999Z</time>
      </trkpt>
      <trkpt lat="48.04508" lon="-1.54881">
        <ele>41.14221</ele>
        <time>2021-12-26T09:08:55.999Z</time>
      </trkpt>
      <trkpt lat="48.04506" lon="-1.54881">
        <ele>41.26164</ele>
        <time>2021-12-26T09:08:56.999Z</time>
      </trkpt>
      <trkpt lat="48.04503" lon="-1.54881">
        <ele>41.45947</ele>
        <time>2021-12-26T09:08:58.999Z</time>
      </trkpt>
      <trkpt lat="48.045" lon="-1.54882">
        <ele>41.4801</ele>
        <time>2021-12-26T09:09:00.999Z</time>
      </trkpt>
      <trkpt lat="48.04497" lon="-1.54882">
        <ele>41.56826</ele>
        <time>2021-12-26T09:09:02.999Z</time>
      </trkpt>
      <trkpt lat="48.04494" lon="-1.54884">
        <ele>41.62537</ele>
        <time>2021-12-26T09:09:04.999Z</time>
      </trkpt>
      <trkpt lat="48.04491" lon="-1.54882">
        <ele>41.95993</ele>
        <time>2021-12-26T09:09:57.999Z</time>
      </trkpt>
      <trkpt lat="48.04489" lon="-1.54882">
        <ele>42.15354</ele>
        <time>2021-12-26T09:09:58.999Z</time>
      </trkpt>
      <trkpt lat="48.04486" lon="-1.54881">
        <ele>42.52892</ele>
        <time>2021-12-26T09:10:00.999Z</time>
      </trkpt>
      <trkpt lat="48.04484" lon="-1.54879">
        <ele>43.09758</ele>
        <time>2021-12-26T09:10:02.999Z</time>
      </trkpt>
      <trkpt lat="48.04482" lon="-1.54877">
        <ele>43.48873</ele>
        <time>2021-12-26T09:10:03.999Z</time>
      </trkpt>
      <trkpt lat="48.0448" lon="-1.54875">
        <ele>43.93144</ele>
        <time>2021-12-26T09:10:04.999Z</time>
      </trkpt>
      <trkpt lat="48.04478" lon="-1.54874">
        <ele>44.30981</ele>
        <time>2021-12-26T09:10:05.999Z</time>
      </trkpt>
      <trkpt lat="48.04476" lon="-1.54872">
        <ele>44.76835</ele>
        <time>2021-12-26T09:10:06.999Z</time>
      </trkpt>
      <trkpt lat="48.04474" lon="-1.5487">
        <ele>45.28609</ele>
        <time>2021-12-26T09:10:08.999Z</time>
      </trkpt>
      <trkpt lat="48.0447" lon="-1.54868">
        <ele>45.99619</ele>
        <time>2021-12-26T09:10:10.999Z</time>
      </trkpt>
      <trkpt lat="48.04468" lon="-1.54866">
        <ele>46.36601</ele>
        <time>2021-12-26T09:10:12.999Z</time>
      </trkpt>
      <trkpt lat="48.04465" lon="-1.54865">
        <ele>46.79443</ele>
        <time>2021-12-26T09:10:14.999Z</time>
      </trkpt>
      <trkpt lat="48.04463" lon="-1.54865">
        <ele>46.95</ele>
        <time>2021-12-26T09:10:15.999Z</time>
      </trkpt>
      <trkpt lat="48.0446" lon="-1.54864">
        <ele>47.23517</ele>
        <time>2021-12-26T09:10:16.999Z</time>
      </trkpt>
      <trkpt lat="48.04458" lon="-1.54863">
        <ele>47.49292</ele>
        <time>2021-12-26T09:10:17.999Z</time>
      </trkpt>
      <trkpt lat="48.04456" lon="-1.54862">
        <ele>47.6933</ele>
        <time>2021-12-26T09:10:18.999Z</time>
      </trkpt>
      <trkpt lat="48.04452" lon="-1.54862">
        <ele>47.92736</ele>
        <time>2021-12-26T09:10:20.999Z</time>
      </trkpt>
      <trkpt lat="48.0445" lon="-1.54863">
        <ele>48.00451</ele>
        <time>2021-12-26T09:10:21.999Z</time>
      </trkpt>
      <trkpt lat="48.04448" lon="-1.54863">
        <ele>48.11511</ele>
        <time>2021-12-26T09:10:22.999Z</time>
      </trkpt>
      <trkpt lat="48.04446" lon="-1.54863">
        <ele>48.26536</ele>
        <time>2021-12-26T09:10:23.999Z</time>
      </trkpt>
      <trkpt lat="48.04443" lon="-1.54863">
        <ele>48.427</ele>
        <time>2021-12-26T09:10:24.999Z</time>
      </trkpt>
      <trkpt lat="48.04441" lon="-1.54864">
        <ele>48.57473</ele>
        <time>2021-12-26T09:10:25.999Z</time>
      </trkpt>
      <trkpt lat="48.04439" lon="-1.54864">
        <ele>48.75998</ele>
        <time>2021-12-26T09:10:26.999Z</time>
      </trkpt>
      <trkpt lat="48.04437" lon="-1.54864">
        <ele>48.92805</ele>
        <time>2021-12-26T09:10:27.999Z</time>
      </trkpt>
      <trkpt lat="48.04435" lon="-1.54864">
        <ele>49.0558</ele>
        <time>2021-12-26T09:10:28.999Z</time>
      </trkpt>
      <trkpt lat="48.04433" lon="-1.54864">
        <ele>49.18712</ele>
        <time>2021-12-26T09:10:29.999Z</time>
      </trkpt>
      <trkpt lat="48.04433" lon="-1.54864">
        <ele>49.18712</ele>
      </trkpt>
      <trkpt lat="48.04431" lon="-1.54865">
        <ele>49.31264</ele>
      </trkpt>
      <trkpt lat="48.04429" lon="-1.54865">
        <ele>49.42846</ele>
      </trkpt>
      <trkpt lat="48.04427" lon="-1.54865">
        <ele>49.5648</ele>
      </trkpt>
      <trkpt lat="48.04425" lon="-1.54865">
        <ele>49.66154</ele>
      </trkpt>
      <trkpt lat="48.04423" lon="-1.54866">
        <ele>49.68321</ele>
      </trkpt>
      <trkpt lat="48.04421" lon="-1.54866">
        <ele>49.69579</ele>
      </trkpt>
      <trkpt lat="48.04419" lon="-1.54867">
        <ele>49.64761</ele>
      </trkpt>
      <trkpt lat="48.04417" lon="-1.54869">
        <ele>49.55285</ele>
      </trkpt>
      <trkpt lat="48.04415" lon="-1.5487">
        <ele>49.46368</ele>
      </trkpt>
      <trkpt lat="48.04412" lon="-1.54873">
        <ele>49.27451</ele>
      </trkpt>
      <trkpt lat="48.04412" lon="-1.54879">
        <ele>49.06704</ele>
      </trkpt>
      <trkpt lat="48.04412" lon="-1.54883">
        <ele>48.97203</ele>
      </trkpt>
      <trkpt lat="48.04412" lon="-1.54887">
        <ele>48.87616</ele>
      </trkpt>
      <trkpt lat="48.04412" lon="-1.54892">
        <ele>48.8109</ele>
      </trkpt>
      <trkpt lat="48.04412" lon="-1.54898">
        <ele>48.74335</ele>
      </trkpt>
      <trkpt lat="48.04413" lon="-1.54903">
        <ele>48.70264</ele>
      </trkpt>
      <trkpt lat="48.04413" lon="-1.54909">
        <ele>48.67206</ele>
      </trkpt>
      <trkpt lat="48.04413" lon="-1.54915">
        <ele>48.60476</ele>
      </trkpt>
      <trkpt lat="48.04414" lon="-1.54921">
        <ele>48.53972</ele>
      </trkpt>
      <trkpt lat="48.04414" lon="-1.54927">
        <ele>48.4919</ele>
      </trkpt>
      <trkpt lat="48.04414" lon="-1.54934">
        <ele>48.42293</ele>
      </trkpt>
      <trkpt lat="48.04415" lon="-1.5494">
        <ele>48.34035</ele>
      </trkpt>
      <trkpt lat="48.04415" lon="-1.54947">
        <ele>48.21845</ele>
      </trkpt>
      <trkpt lat="48.04415" lon="-1.54955">
        <ele>48.07556</ele>
      </trkpt>
      <trkpt lat="48.04416" lon="-1.54962">
        <ele>47.88271</ele>
      </trkpt>
      <trkpt lat="48.04416" lon="-1.54969">
        <ele>47.65461</ele>
      </trkpt>
      <trkpt lat="48.04417" lon="-1.54977">
        <ele>47.3867</ele>
      </trkpt>
      <trkpt lat="48.04417" lon="-1.54984">
        <ele>47.10418</ele>
      </trkpt>
      <trkpt lat="48.04417" lon="-1.54991">
        <ele>46.79296</ele>
      </trkpt>
      <trkpt lat="48.04418" lon="-1.54999">
        <ele>46.43905</ele>
      </trkpt>
      <trkpt lat="48.04418" lon="-1.55007">
        <ele>46.05622</ele>
      </trkpt>
      <trkpt lat="48.04418" lon="-1.55015">
        <ele>45.67314</ele>
      </trkpt>
      <trkpt lat="48.04419" lon="-1.55023">
        <ele>45.33683</ele>
      </trkpt>
      <trkpt lat="48.04419" lon="-1.55031">
        <ele>44.98752</ele>
      </trkpt>
      <trkpt lat="48.04419" lon="-1.55039">
        <ele>44.63807</ele>
      </trkpt>
      <trkpt lat="48.0442" lon="-1.55047">
        <ele>44.27889</ele>
      </trkpt>
      <trkpt lat="48.0442" lon="-1.55055">
        <ele>43.92185</ele>
      </trkpt>
      <trkpt lat="48.04421" lon="-1.55063">
        <ele>43.56477</ele>
      </trkpt>
      <trkpt lat="48.04422" lon="-1.55071">
        <ele>43.24483</ele>
      </trkpt>
      <trkpt lat="48.04422" lon="-1.5508">
        <ele>42.99475</ele>
      </trkpt>
      <trkpt lat="48.04423" lon="-1.55088">
        <ele>42.84938</ele>
      </trkpt>
      <trkpt lat="48.04423" lon="-1.55096">
        <ele>42.77341</ele>
      </trkpt>
      <trkpt lat="48.04424" lon="-1.55104">
        <ele>42.73466</ele>
      </trkpt>
      <trkpt lat="48.04424" lon="-1.55112">
        <ele>42.62384</ele>
      </trkpt>
      <trkpt lat="48.04424" lon="-1.55119">
        <ele>42.40142</ele>
      </trkpt>
      <trkpt lat="48.04425" lon="-1.55125">
        <ele>42.06902</ele>
      </trkpt>
      <trkpt lat="48.04425" lon="-1.55131">
        <ele>41.67264</ele>
      </trkpt>
      <trkpt lat="48.04426" lon="-1.55136">
        <ele>41.35446</ele>
      </trkpt>
      <trkpt lat="48.04428" lon="-1.5514">
        <ele>41.05789</ele>
      </trkpt>
      <trkpt lat="48.04429" lon="-1.55142">
        <ele>40.87604</ele>
      </trkpt>
      <trkpt lat="48.0443" lon="-1.55145">
        <ele>40.5022</ele>
      </trkpt>
      <trkpt lat="48.0443" lon="-1.55149">
        <ele>40.12867</ele>
      </trkpt>
      <trkpt lat="48.04431" lon="-1.55153">
        <ele>39.6651</ele>
      </trkpt>
      <trkpt lat="48.04432" lon="-1.55156">
        <ele>39.17834</ele>
      </trkpt>
      <trkpt lat="48.04432" lon="-1.5516">
        <ele>38.67343</ele>
      </trkpt>
      <trkpt lat="48.04433" lon="-1.55166">
        <ele>37.88188</ele>
      </trkpt>
      <trkpt lat="48.04435" lon="-1.55171">
        <ele>37.25146</ele>
      </trkpt>
      <trkpt lat="48.04436" lon="-1.55176">
        <ele>36.64326</ele>
      </trkpt>
      <trkpt lat="48.04437" lon="-1.55181">
        <ele>36.07168</ele>
      </trkpt>
      <trkpt lat="48.04439" lon="-1.55188">
        <ele>35.50205</ele>
      </trkpt>
      <trkpt lat="48.04441" lon="-1.55195">
        <ele>34.99844</ele>
      </trkpt>
      <trkpt lat="48.04443" lon="-1.55202">
        <ele>34.5657</ele>
      </trkpt>
      <trkpt lat="48.04443" lon="-1.55206">
        <ele>34.44212</ele>
      </trkpt>
      <trkpt lat="48.04443" lon="-1.5521">
        <ele>34.38423</ele>
      </trkpt>
      <trkpt lat="48.04444" lon="-1.55214">
        <ele>34.1872</ele>
      </trkpt>
      <trkpt lat="48.04444" lon="-1.55219">
        <ele>34.14346</ele>
      </trkpt>
      <trkpt lat="48.04443" lon="-1.55222">
        <ele>34.34434</ele>
      </trkpt>
      <trkpt lat="48.04443" lon="-1.55226">
        <ele>34.51344</ele>
      </trkpt>
      <trkpt lat="48.04442" lon="-1.5523">
        <ele>34.77617</ele>
      </trkpt>
      <trkpt lat="48.04442" lon="-1.55233">
        <ele>35.00383</ele>
      </trkpt>
      <trkpt lat="48.04441" lon="-1.55241">
        <ele>35.49854</ele>
      </trkpt>
      <trkpt lat="48.04442" lon="-1.55245">
        <ele>35.5673</ele>
      </trkpt>
      <trkpt lat="48.04443" lon="-1.55248">
        <ele>35.47036</ele>
      </trkpt>
      <trkpt lat="48.04445" lon="-1.55249">
        <ele>35.22613</ele>
      </trkpt>
      <trkpt lat="48.04447" lon="-1.55248">
        <ele>34.96495</ele>
      </trkpt>
      <trkpt lat="48.04451" lon="-1.55248">
        <ele>34.53416</ele>
      </trkpt>
      <trkpt lat="48.04454" lon="-1.55247">
        <ele>34.16571</ele>
      </trkpt>
      <trkpt lat="48.04457" lon="-1.55246">
        <ele>33.98913</ele>
      </trkpt>
      <trkpt lat="48.04459" lon="-1.55245">
        <ele>33.77222</ele>
      </trkpt>
      <trkpt lat="48.04462" lon="-1.55243">
        <ele>33.5129</ele>
      </trkpt>
      <trkpt lat="48.04465" lon="-1.55242">
        <ele>33.27538</ele>
      </trkpt>
      <trkpt lat="48.04467" lon="-1.55241">
        <ele>33.11077</ele>
      </trkpt>
      <trkpt lat="48.0447" lon="-1.55241">
        <ele>33.05226</ele>
      </trkpt>
      <trkpt lat="48.04472" lon="-1.55242">
        <ele>33.05812</ele>
      </trkpt>
      <trkpt lat="48.04474" lon="-1.55243">
        <ele>33.05356</ele>
      </trkpt>
      <trkpt lat="48.04474" lon="-1.55245">
        <ele>33.27848</ele>
      </trkpt>
      <trkpt lat="48.04473" lon="-1.55249">
        <ele>33.66216</ele>
      </trkpt>
      <trkpt lat="48.04472" lon="-1.55252">
        <ele>34.0705</ele>
      </trkpt>
      <trkpt lat="48.04471" lon="-1.55256">
        <ele>34.53993</ele>
      </trkpt>
      <trkpt lat="48.0447" lon="-1.55258">
        <ele>34.91036</ele>
      </trkpt>
      <trkpt lat="48.04468" lon="-1.55261">
        <ele>35.20526</ele>
      </trkpt>
      <trkpt lat="48.04466" lon="-1.55263">
        <ele>35.4335</ele>
      </trkpt>
      <trkpt lat="48.04465" lon="-1.55265">
        <ele>35.52031</ele>
      </trkpt>
      <trkpt lat="48.04463" lon="-1.55268">
        <ele>35.67839</ele>
      </trkpt>
      <trkpt lat="48.04461" lon="-1.55273">
        <ele>35.82837</ele>
      </trkpt>
      <trkpt lat="48.0446" lon="-1.55277">
        <ele>35.95724</ele>
      </trkpt>
      <trkpt lat="48.04459" lon="-1.55281">
        <ele>36.10525</ele>
      </trkpt>
      <trkpt lat="48.04459" lon="-1.55285">
        <ele>36.19113</ele>
      </trkpt>
      <trkpt lat="48.04458" lon="-1.55289">
        <ele>36.33134</ele>
      </trkpt>
      <trkpt lat="48.04457" lon="-1.55293">
        <ele>36.42447</ele>
      </trkpt>
      <trkpt lat="48.04456" lon="-1.55297">
        <ele>36.55569</ele>
      </trkpt>
      <trkpt lat="48.04455" lon="-1.553">
        <ele>36.69335</ele>
      </trkpt>
      <trkpt lat="48.04454" lon="-1.55304">
        <ele>36.82786</ele>
      </trkpt>
      <trkpt lat="48.04453" lon="-1.55307">
        <ele>36.97188</ele>
      </trkpt>
      <trkpt lat="48.04452" lon="-1.55311">
        <ele>37.0753</ele>
      </trkpt>
      <trkpt lat="48.04451" lon="-1.55315">
        <ele>37.17447</ele>
      </trkpt>
      <trkpt lat="48.04449" lon="-1.5532">
        <ele>37.23776</ele>
      </trkpt>
      <trkpt lat="48.04448" lon="-1.55324">
        <ele>37.24644</ele>
      </trkpt>
      <trkpt lat="48.04448" lon="-1.55329">
        <ele>37.27231</ele>
      </trkpt>
      <trkpt lat="48.04447" lon="-1.55334">
        <ele>37.29831</ele>
      </trkpt>
      <trkpt lat="48.04447" lon="-1.5534">
        <ele>37.27264</ele>
      </trkpt>
      <trkpt lat="48.04446" lon="-1.55346">
        <ele>37.23965</ele>
      </trkpt>
      <trkpt lat="48.04445" lon="-1.55351">
        <ele>37.16233</ele>
      </trkpt>
      <trkpt lat="48.04445" lon="-1.55356">
        <ele>37.06882</ele>
      </trkpt>
      <trkpt lat="48.04444" lon="-1.55361">
        <ele>36.97983</ele>
      </trkpt>
      <trkpt lat="48.04444" lon="-1.55366">
        <ele>36.90167</ele>
      </trkpt>
      <trkpt lat="48.04443" lon="-1.55371">
        <ele>36.73518</ele>
      </trkpt>
      <trkpt lat="48.04442" lon="-1.55376">
        <ele>36.56295</ele>
      </trkpt>
      <trkpt lat="48.04442" lon="-1.55382">
        <ele>36.47766</ele>
      </trkpt>
      <trkpt lat="48.04441" lon="-1.55388">
        <ele>36.3534</ele>
      </trkpt>
      <trkpt lat="48.04441" lon="-1.55393">
        <ele>36.24602</ele>
      </trkpt>
      <trkpt lat="48.04441" lon="-1.55399">
        <ele>36.16086</ele>
      </trkpt>
      <trkpt lat="48.04442" lon="-1.55405">
        <ele>36.09812</ele>
      </trkpt>
      <trkpt lat="48.04442" lon="-1.55411">
        <ele>36.04552</ele>
      </trkpt>
      <trkpt lat="48.04443" lon="-1.55417">
        <ele>36.00162</ele>
      </trkpt>
      <trkpt lat="48.04443" lon="-1.55423">
        <ele>35.94679</ele>
      </trkpt>
      <trkpt lat="48.04444" lon="-1.55429">
        <ele>35.97697</ele>
      </trkpt>
      <trkpt lat="48.04445" lon="-1.55435">
        <ele>35.92802</ele>
      </trkpt>
      <trkpt lat="48.04446" lon="-1.5544">
        <ele>35.80701</ele>
      </trkpt>
      <trkpt lat="48.04446" lon="-1.55447">
        <ele>35.72822</ele>
      </trkpt>
      <trkpt lat="48.04447" lon="-1.55452">
        <ele>35.67799</ele>
      </trkpt>
      <trkpt lat="48.04447" lon="-1.55458">
        <ele>35.65615</ele>
      </trkpt>
      <trkpt lat="48.04447" lon="-1.55464">
        <ele>35.63645</ele>
      </trkpt>
      <trkpt lat="48.04448" lon="-1.5547">
        <ele>35.67976</ele>
      </trkpt>
      <trkpt lat="48.04448" lon="-1.55476">
        <ele>35.74082</ele>
      </trkpt>
      <trkpt lat="48.04449" lon="-1.55481">
        <ele>35.8129</ele>
      </trkpt>
      <trkpt lat="48.04449" lon="-1.55488">
        <ele>35.90897</ele>
      </trkpt>
      <trkpt lat="48.0445" lon="-1.55494">
        <ele>36.02537</ele>
      </trkpt>
      <trkpt lat="48.04451" lon="-1.555">
        <ele>36.07007</ele>
      </trkpt>
      <trkpt lat="48.04451" lon="-1.55506">
        <ele>36.08874</ele>
      </trkpt>
      <trkpt lat="48.04452" lon="-1.55512">
        <ele>36.1652</ele>
      </trkpt>
      <trkpt lat="48.04452" lon="-1.55517">
        <ele>36.21031</ele>
      </trkpt>
      <trkpt lat="48.04452" lon="-1.55523">
        <ele>36.20587</ele>
      </trkpt>
      <trkpt lat="48.04453" lon="-1.55529">
        <ele>36.18548</ele>
      </trkpt>
      <trkpt lat="48.04453" lon="-1.55534">
        <ele>36.15015</ele>
      </trkpt>
      <trkpt lat="48.04453" lon="-1.55539">
        <ele>36.13276</ele>
      </trkpt>
      <trkpt lat="48.04453" lon="-1.55544">
        <ele>36.11291</ele>
      </trkpt>
      <trkpt lat="48.04453" lon="-1.5555">
        <ele>36.09094</ele>
      </trkpt>
      <trkpt lat="48.04453" lon="-1.55555">
        <ele>36.07179</ele>
      </trkpt>
      <trkpt lat="48.04454" lon="-1.55561">
        <ele>36.05022</ele>
      </trkpt>
      <trkpt lat="48.04454" lon="-1.55566">
        <ele>36.03584</ele>
      </trkpt>
      <trkpt lat="48.04454" lon="-1.55572">
        <ele>36.0359</ele>
      </trkpt>
      <trkpt lat="48.04454" lon="-1.55577">
        <ele>36.05347</ele>
      </trkpt>
      <trkpt lat="48.04454" lon="-1.55582">
        <ele>36.09234</ele>
      </trkpt>
      <trkpt lat="48.04454" lon="-1.55586">
        <ele>36.15578</ele>
      </trkpt>
      <trkpt lat="48.04455" lon="-1.5559">
        <ele>36.25586</ele>
      </trkpt>
      <trkpt lat="48.04457" lon="-1.55593">
        <ele>36.3751</ele>
      </trkpt>
      <trkpt lat="48.04457" lon="-1.55593">
        <ele>36.3751</ele>
        <time>2021-12-26T09:14:24.999Z</time>
      </trkpt>
      <trkpt lat="48.0446" lon="-1.55595">
        <ele>36.46839</ele>
        <time>2021-12-26T09:14:25.999Z</time>
      </trkpt>
      <trkpt lat="48.04462" lon="-1.55596">
        <ele>36.58335</ele>
        <time>2021-12-26T09:14:26.999Z</time>
      </trkpt>
      <trkpt lat="48.04465" lon="-1.55594">
        <ele>36.57074</ele>
        <time>2021-12-26T09:14:27.999Z</time>
      </trkpt>
      <trkpt lat="48.04469" lon="-1.55593">
        <ele>36.57961</ele>
        <time>2021-12-26T09:14:28.999Z</time>
      </trkpt>
      <trkpt lat="48.04472" lon="-1.55592">
        <ele>36.59793</ele>
        <time>2021-12-26T09:14:29.999Z</time>
      </trkpt>
      <trkpt lat="48.04476" lon="-1.55591">
        <ele>36.63081</ele>
        <time>2021-12-26T09:14:30.999Z</time>
      </trkpt>
      <trkpt lat="48.0448" lon="-1.55592">
        <ele>36.73667</ele>
        <time>2021-12-26T09:14:31.999Z</time>
      </trkpt>
      <trkpt lat="48.04483" lon="-1.55593">
        <ele>36.82927</ele>
        <time>2021-12-26T09:14:32.999Z</time>
      </trkpt>
      <trkpt lat="48.04487" lon="-1.55593">
        <ele>36.92527</ele>
        <time>2021-12-26T09:14:33.999Z</time>
      </trkpt>
      <trkpt lat="48.0449" lon="-1.55594">
        <ele>37.0113</ele>
        <time>2021-12-26T09:14:34.999Z</time>
      </trkpt>
      <trkpt lat="48.04494" lon="-1.55594">
        <ele>37.1037</ele>
        <time>2021-12-26T09:14:35.999Z</time>
      </trkpt>
      <trkpt lat="48.04497" lon="-1.55595">
        <ele>37.19392</ele>
        <time>2021-12-26T09:14:36.999Z</time>
      </trkpt>
      <trkpt lat="48.04501" lon="-1.55595">
        <ele>37.29997</ele>
        <time>2021-12-26T09:14:37.999Z</time>
      </trkpt>
      <trkpt lat="48.04504" lon="-1.55595">
        <ele>37.40494</ele>
        <time>2021-12-26T09:14:38.999Z</time>
      </trkpt>
      <trkpt lat="48.04508" lon="-1.55596">
        <ele>37.51811</ele>
        <time>2021-12-26T09:14:39.999Z</time>
      </trkpt>
      <trkpt lat="48.04511" lon="-1.55596">
        <ele>37.65988</ele>
        <time>2021-12-26T09:14:40.999Z</time>
      </trkpt>
      <trkpt lat="48.04514" lon="-1.55597">
        <ele>37.83223</ele>
        <time>2021-12-26T09:14:41.999Z</time>
      </trkpt>
      <trkpt lat="48.04517" lon="-1.55599">
        <ele>38.01922</ele>
        <time>2021-12-26T09:14:42.999Z</time>
      </trkpt>
      <trkpt lat="48.0452" lon="-1.556">
        <ele>38.18926</ele>
        <time>2021-12-26T09:14:43.999Z</time>
      </trkpt>
      <trkpt lat="48.04522" lon="-1.55601">
        <ele>38.32432</ele>
        <time>2021-12-26T09:14:44.999Z</time>
      </trkpt>
      <trkpt lat="48.04525" lon="-1.55602">
        <ele>38.48838</ele>
        <time>2021-12-26T09:14:45.999Z</time>
      </trkpt>
      <trkpt lat="48.04527" lon="-1.55604">
        <ele>38.64095</ele>
        <time>2021-12-26T09:14:46.999Z</time>
      </trkpt>
      <trkpt lat="48.0453" lon="-1.55604">
        <ele>38.73047</ele>
        <time>2021-12-26T09:14:47.999Z</time>
      </trkpt>
      <trkpt lat="48.04532" lon="-1.55604">
        <ele>38.80999</ele>
        <time>2021-12-26T09:14:48.999Z</time>
      </trkpt>
      <trkpt lat="48.04534" lon="-1.55605">
        <ele>38.88811</ele>
        <time>2021-12-26T09:14:49.999Z</time>
      </trkpt>
      <trkpt lat="48.04536" lon="-1.55605">
        <ele>38.94634</ele>
        <time>2021-12-26T09:14:50.999Z</time>
      </trkpt>
      <trkpt lat="48.04539" lon="-1.55606">
        <ele>39.01447</ele>
        <time>2021-12-26T09:14:52.999Z</time>
      </trkpt>
      <trkpt lat="48.04542" lon="-1.55606">
        <ele>39.07013</ele>
        <time>2021-12-26T09:14:54.999Z</time>
      </trkpt>
      <trkpt lat="48.04545" lon="-1.55608">
        <ele>39.18263</ele>
        <time>2021-12-26T09:14:56.999Z</time>
      </trkpt>
      <trkpt lat="48.04547" lon="-1.55608">
        <ele>39.2345</ele>
        <time>2021-12-26T09:14:57.999Z</time>
      </trkpt>
      <trkpt lat="48.0455" lon="-1.5561">
        <ele>39.36319</ele>
        <time>2021-12-26T09:14:59.999Z</time>
      </trkpt>
      <trkpt lat="48.04552" lon="-1.55613">
        <ele>39.48769</ele>
        <time>2021-12-26T09:15:00.999Z</time>
      </trkpt>
      <trkpt lat="48.04555" lon="-1.55615">
        <ele>39.61591</ele>
        <time>2021-12-26T09:15:01.999Z</time>
      </trkpt>
      <trkpt lat="48.04557" lon="-1.55618">
        <ele>39.72935</ele>
        <time>2021-12-26T09:15:02.999Z</time>
      </trkpt>
      <trkpt lat="48.0456" lon="-1.5562">
        <ele>39.8686</ele>
        <time>2021-12-26T09:15:03.999Z</time>
      </trkpt>
      <trkpt lat="48.04562" lon="-1.55623">
        <ele>39.98793</ele>
        <time>2021-12-26T09:15:04.999Z</time>
      </trkpt>
      <trkpt lat="48.04564" lon="-1.55624">
        <ele>40.07442</ele>
        <time>2021-12-26T09:15:05.999Z</time>
      </trkpt>
      <trkpt lat="48.04566" lon="-1.55626">
        <ele>40.16367</ele>
        <time>2021-12-26T09:15:06.999Z</time>
      </trkpt>
      <trkpt lat="48.04568" lon="-1.55631">
        <ele>40.32736</ele>
        <time>2021-12-26T09:15:10.999Z</time>
      </trkpt>
      <trkpt lat="48.04569" lon="-1.55634">
        <ele>40.42499</ele>
        <time>2021-12-26T09:15:12.999Z</time>
      </trkpt>
      <trkpt lat="48.0457" lon="-1.5564">
        <ele>40.55434</ele>
        <time>2021-12-26T09:15:14.999Z</time>
      </trkpt>
      <trkpt lat="48.04571" lon="-1.55643">
        <ele>40.64021</ele>
        <time>2021-12-26T09:15:15.999Z</time>
      </trkpt>
      <trkpt lat="48.04571" lon="-1.55647">
        <ele>40.72887</ele>
        <time>2021-12-26T09:15:16.999Z</time>
      </trkpt>
      <trkpt lat="48.04572" lon="-1.5565">
        <ele>40.81472</ele>
        <time>2021-12-26T09:15:17.999Z</time>
      </trkpt>
      <trkpt lat="48.04572" lon="-1.55653">
        <ele>40.88464</ele>
        <time>2021-12-26T09:15:18.999Z</time>
      </trkpt>
      <trkpt lat="48.04572" lon="-1.55656">
        <ele>40.9439</ele>
        <time>2021-12-26T09:15:19.999Z</time>
      </trkpt>
      <trkpt lat="48.04572" lon="-1.55659">
        <ele>41.00339</ele>
        <time>2021-12-26T09:15:20.999Z</time>
      </trkpt>
      <trkpt lat="48.04572" lon="-1.55662">
        <ele>41.04434</ele>
        <time>2021-12-26T09:15:21.999Z</time>
      </trkpt>
      <trkpt lat="48.04572" lon="-1.55666">
        <ele>41.09648</ele>
        <time>2021-12-26T09:15:22.999Z</time>
      </trkpt>
      <trkpt lat="48.04572" lon="-1.55669">
        <ele>41.14252</ele>
        <time>2021-12-26T09:15:23.999Z</time>
      </trkpt>
      <trkpt lat="48.04574" lon="-1.5568">
        <ele>41.32722</ele>
        <time>2021-12-26T09:16:43.000Z</time>
      </trkpt>
      <trkpt lat="48.04575" lon="-1.55684">
        <ele>41.39095</ele>
        <time>2021-12-26T09:17:11.000Z</time>
      </trkpt>
      <trkpt lat="48.04575" lon="-1.55687">
        <ele>41.42059</ele>
        <time>2021-12-26T09:17:12.000Z</time>
      </trkpt>
      <trkpt lat="48.04575" lon="-1.5569">
        <ele>41.45852</ele>
        <time>2021-12-26T09:17:14.000Z</time>
      </trkpt>
      <trkpt lat="48.04575" lon="-1.55693">
        <ele>41.48245</ele>
        <time>2021-12-26T09:17:18.000Z</time>
      </trkpt>
      <trkpt lat="48.04575" lon="-1.55696">
        <ele>41.53739</ele>
        <time>2021-12-26T09:17:22.000Z</time>
      </trkpt>
      <trkpt lat="48.04576" lon="-1.55699">
        <ele>41.60641</ele>
        <time>2021-12-26T09:17:23.000Z</time>
      </trkpt>
      <trkpt lat="48.04577" lon="-1.55702">
        <ele>41.67266</ele>
        <time>2021-12-26T09:17:24.000Z</time>
      </trkpt>
      <trkpt lat="48.04578" lon="-1.55705">
        <ele>41.75143</ele>
        <time>2021-12-26T09:17:25.000Z</time>
      </trkpt>
      <trkpt lat="48.04578" lon="-1.55708">
        <ele>41.80179</ele>
        <time>2021-12-26T09:17:26.000Z</time>
      </trkpt>
      <trkpt lat="48.04578" lon="-1.55713">
        <ele>41.90019</ele>
        <time>2021-12-26T09:17:28.000Z</time>
      </trkpt>
      <trkpt lat="48.04579" lon="-1.55717">
        <ele>41.97516</ele>
        <time>2021-12-26T09:17:29.000Z</time>
      </trkpt>
      <trkpt lat="48.04579" lon="-1.5572">
        <ele>42.05318</ele>
        <time>2021-12-26T09:17:30.000Z</time>
      </trkpt>
      <trkpt lat="48.0458" lon="-1.55724">
        <ele>42.15621</ele>
        <time>2021-12-26T09:17:32.000Z</time>
      </trkpt>
      <trkpt lat="48.04582" lon="-1.55728">
        <ele>42.24547</ele>
        <time>2021-12-26T09:17:33.000Z</time>
      </trkpt>
      <trkpt lat="48.04583" lon="-1.55732">
        <ele>42.33346</ele>
        <time>2021-12-26T09:17:34.000Z</time>
      </trkpt>
      <trkpt lat="48.04584" lon="-1.55736">
        <ele>42.43165</ele>
        <time>2021-12-26T09:17:35.000Z</time>
      </trkpt>
      <trkpt lat="48.04586" lon="-1.5574">
        <ele>42.51596</ele>
        <time>2021-12-26T09:17:36.000Z</time>
      </trkpt>
      <trkpt lat="48.04587" lon="-1.55743">
        <ele>42.58579</ele>
        <time>2021-12-26T09:17:37.000Z</time>
      </trkpt>
      <trkpt lat="48.0459" lon="-1.55749">
        <ele>42.69579</ele>
        <time>2021-12-26T09:17:38.000Z</time>
      </trkpt>
      <trkpt lat="48.04592" lon="-1.55752">
        <ele>42.75382</ele>
        <time>2021-12-26T09:17:39.000Z</time>
      </trkpt>
      <trkpt lat="48.04594" lon="-1.55755">
        <ele>42.79944</ele>
        <time>2021-12-26T09:17:40.000Z</time>
      </trkpt>
      <trkpt lat="48.04597" lon="-1.55757">
        <ele>42.84209</ele>
        <time>2021-12-26T09:17:41.000Z</time>
      </trkpt>
      <trkpt lat="48.046" lon="-1.5576">
        <ele>42.88758</ele>
        <time>2021-12-26T09:17:42.000Z</time>
      </trkpt>
      <trkpt lat="48.04602" lon="-1.55762">
        <ele>42.92402</ele>
        <time>2021-12-26T09:17:43.000Z</time>
      </trkpt>
      <trkpt lat="48.04605" lon="-1.55764">
        <ele>42.95639</ele>
        <time>2021-12-26T09:17:44.000Z</time>
      </trkpt>
      <trkpt lat="48.04607" lon="-1.55767">
        <ele>42.98316</ele>
        <time>2021-12-26T09:17:45.000Z</time>
      </trkpt>
      <trkpt lat="48.0461" lon="-1.55769">
        <ele>43.00474</ele>
        <time>2021-12-26T09:17:46.000Z</time>
      </trkpt>
      <trkpt lat="48.04612" lon="-1.55771">
        <ele>43.0311</ele>
        <time>2021-12-26T09:17:47.000Z</time>
      </trkpt>
      <trkpt lat="48.04614" lon="-1.55772">
        <ele>43.06397</ele>
        <time>2021-12-26T09:17:48.000Z</time>
      </trkpt>
      <trkpt lat="48.04617" lon="-1.55774">
        <ele>43.10381</ele>
        <time>2021-12-26T09:17:49.000Z</time>
      </trkpt>
      <trkpt lat="48.04619" lon="-1.55775">
        <ele>43.14216</ele>
        <time>2021-12-26T09:17:50.000Z</time>
      </trkpt>
      <trkpt lat="48.04621" lon="-1.55777">
        <ele>43.16858</ele>
        <time>2021-12-26T09:17:51.000Z</time>
      </trkpt>
      <trkpt lat="48.04623" lon="-1.55779">
        <ele>43.19773</ele>
        <time>2021-12-26T09:17:52.000Z</time>
      </trkpt>
      <trkpt lat="48.04626" lon="-1.55781">
        <ele>43.22687</ele>
        <time>2021-12-26T09:17:53.000Z</time>
      </trkpt>
      <trkpt lat="48.04628" lon="-1.55782">
        <ele>43.26127</ele>
        <time>2021-12-26T09:17:54.000Z</time>
      </trkpt>
      <trkpt lat="48.0463" lon="-1.55784">
        <ele>43.2871</ele>
        <time>2021-12-26T09:17:55.000Z</time>
      </trkpt>
      <trkpt lat="48.04632" lon="-1.55787">
        <ele>43.30511</ele>
        <time>2021-12-26T09:17:56.000Z</time>
      </trkpt>
      <trkpt lat="48.04635" lon="-1.55789">
        <ele>43.3362</ele>
        <time>2021-12-26T09:17:57.000Z</time>
      </trkpt>
      <trkpt lat="48.04637" lon="-1.55791">
        <ele>43.36475</ele>
        <time>2021-12-26T09:17:58.000Z</time>
      </trkpt>
      <trkpt lat="48.0464" lon="-1.55793">
        <ele>43.40181</ele>
        <time>2021-12-26T09:17:59.000Z</time>
      </trkpt>
      <trkpt lat="48.04642" lon="-1.55796">
        <ele>43.43718</ele>
        <time>2021-12-26T09:18:00.000Z</time>
      </trkpt>
      <trkpt lat="48.04645" lon="-1.55798">
        <ele>43.47961</ele>
        <time>2021-12-26T09:18:01.000Z</time>
      </trkpt>
      <trkpt lat="48.04647" lon="-1.558">
        <ele>43.52266</ele>
        <time>2021-12-26T09:18:02.000Z</time>
      </trkpt>
      <trkpt lat="48.04649" lon="-1.55802">
        <ele>43.57912</ele>
        <time>2021-12-26T09:18:03.000Z</time>
      </trkpt>
      <trkpt lat="48.04651" lon="-1.55805">
        <ele>43.63086</ele>
        <time>2021-12-26T09:18:04.000Z</time>
      </trkpt>
      <trkpt lat="48.04654" lon="-1.55807">
        <ele>43.69725</ele>
        <time>2021-12-26T09:18:05.000Z</time>
      </trkpt>
      <trkpt lat="48.04656" lon="-1.55809">
        <ele>43.74935</ele>
        <time>2021-12-26T09:18:06.000Z</time>
      </trkpt>
      <trkpt lat="48.04658" lon="-1.55811">
        <ele>43.79932</ele>
        <time>2021-12-26T09:18:07.000Z</time>
      </trkpt>
      <trkpt lat="48.04661" lon="-1.55813">
        <ele>43.84895</ele>
        <time>2021-12-26T09:18:08.000Z</time>
      </trkpt>
      <trkpt lat="48.04663" lon="-1.55816">
        <ele>43.89039</ele>
        <time>2021-12-26T09:18:09.000Z</time>
      </trkpt>
      <trkpt lat="48.04665" lon="-1.55818">
        <ele>43.93536</ele>
        <time>2021-12-26T09:18:10.000Z</time>
      </trkpt>
      <trkpt lat="48.04667" lon="-1.5582">
        <ele>43.96535</ele>
        <time>2021-12-26T09:18:11.000Z</time>
      </trkpt>
      <trkpt lat="48.04669" lon="-1.55822">
        <ele>44.00262</ele>
        <time>2021-12-26T09:18:12.000Z</time>
      </trkpt>
      <trkpt lat="48.04673" lon="-1.55825">
        <ele>44.07173</ele>
        <time>2021-12-26T09:18:14.000Z</time>
      </trkpt>
      <trkpt lat="48.04675" lon="-1.55827">
        <ele>44.09898</ele>
        <time>2021-12-26T09:18:15.000Z</time>
      </trkpt>
      <trkpt lat="48.04677" lon="-1.5583">
        <ele>44.12433</ele>
        <time>2021-12-26T09:18:16.000Z</time>
      </trkpt>
      <trkpt lat="48.04679" lon="-1.55831">
        <ele>44.16563</ele>
        <time>2021-12-26T09:18:17.000Z</time>
      </trkpt>
      <trkpt lat="48.04682" lon="-1.55832">
        <ele>44.20872</ele>
        <time>2021-12-26T09:18:18.000Z</time>
      </trkpt>
      <trkpt lat="48.04684" lon="-1.55833">
        <ele>44.24785</ele>
        <time>2021-12-26T09:18:19.000Z</time>
      </trkpt>
      <trkpt lat="48.04687" lon="-1.55834">
        <ele>44.28309</ele>
        <time>2021-12-26T09:18:20.000Z</time>
      </trkpt>
      <trkpt lat="48.04689" lon="-1.55836">
        <ele>44.31487</ele>
        <time>2021-12-26T09:18:21.000Z</time>
      </trkpt>
      <trkpt lat="48.04692" lon="-1.55837">
        <ele>44.34206</ele>
        <time>2021-12-26T09:18:22.000Z</time>
      </trkpt>
      <trkpt lat="48.04693" lon="-1.55838">
        <ele>44.3599</ele>
        <time>2021-12-26T09:18:23.000Z</time>
      </trkpt>
      <trkpt lat="48.04695" lon="-1.5584">
        <ele>44.38319</ele>
        <time>2021-12-26T09:18:24.000Z</time>
      </trkpt>
      <trkpt lat="48.04697" lon="-1.55841">
        <ele>44.40748</ele>
        <time>2021-12-26T09:18:25.000Z</time>
      </trkpt>
      <trkpt lat="48.047" lon="-1.55843">
        <ele>44.43567</ele>
        <time>2021-12-26T09:18:26.000Z</time>
      </trkpt>
      <trkpt lat="48.04702" lon="-1.55845">
        <ele>44.46663</ele>
        <time>2021-12-26T09:18:27.000Z</time>
      </trkpt>
      <trkpt lat="48.04704" lon="-1.55847">
        <ele>44.50693</ele>
        <time>2021-12-26T09:18:28.000Z</time>
      </trkpt>
      <trkpt lat="48.04706" lon="-1.55849">
        <ele>44.54432</ele>
        <time>2021-12-26T09:18:29.000Z</time>
      </trkpt>
      <trkpt lat="48.04709" lon="-1.55851">
        <ele>44.5945</ele>
        <time>2021-12-26T09:18:30.000Z</time>
      </trkpt>
      <trkpt lat="48.04711" lon="-1.55853">
        <ele>44.64523</ele>
        <time>2021-12-26T09:18:31.000Z</time>
      </trkpt>
      <trkpt lat="48.04713" lon="-1.55855">
        <ele>44.69542</ele>
        <time>2021-12-26T09:18:32.000Z</time>
      </trkpt>
      <trkpt lat="48.04716" lon="-1.55857">
        <ele>44.74775</ele>
        <time>2021-12-26T09:18:33.000Z</time>
      </trkpt>
      <trkpt lat="48.04718" lon="-1.5586">
        <ele>44.78882</ele>
        <time>2021-12-26T09:18:34.000Z</time>
      </trkpt>
      <trkpt lat="48.0472" lon="-1.55862">
        <ele>44.82178</ele>
        <time>2021-12-26T09:18:35.000Z</time>
      </trkpt>
      <trkpt lat="48.04723" lon="-1.55864">
        <ele>44.85225</ele>
        <time>2021-12-26T09:18:36.000Z</time>
      </trkpt>
      <trkpt lat="48.04725" lon="-1.55866">
        <ele>44.87459</ele>
        <time>2021-12-26T09:18:37.000Z</time>
      </trkpt>
      <trkpt lat="48.04727" lon="-1.55868">
        <ele>44.8904</ele>
        <time>2021-12-26T09:18:38.000Z</time>
      </trkpt>
      <trkpt lat="48.04729" lon="-1.55871">
        <ele>44.89837</ele>
        <time>2021-12-26T09:18:39.000Z</time>
      </trkpt>
      <trkpt lat="48.04731" lon="-1.55873">
        <ele>44.90564</ele>
        <time>2021-12-26T09:18:40.000Z</time>
      </trkpt>
      <trkpt lat="48.04733" lon="-1.55876">
        <ele>44.90959</ele>
        <time>2021-12-26T09:18:41.000Z</time>
      </trkpt>
      <trkpt lat="48.04735" lon="-1.55878">
        <ele>44.91413</ele>
        <time>2021-12-26T09:18:42.000Z</time>
      </trkpt>
      <trkpt lat="48.04737" lon="-1.55881">
        <ele>44.91884</ele>
        <time>2021-12-26T09:18:43.000Z</time>
      </trkpt>
      <trkpt lat="48.04739" lon="-1.55883">
        <ele>44.92607</ele>
        <time>2021-12-26T09:18:44.000Z</time>
      </trkpt>
      <trkpt lat="48.04741" lon="-1.55886">
        <ele>44.93506</ele>
        <time>2021-12-26T09:18:45.000Z</time>
      </trkpt>
      <trkpt lat="48.04743" lon="-1.55889">
        <ele>44.95187</ele>
        <time>2021-12-26T09:18:46.000Z</time>
      </trkpt>
      <trkpt lat="48.04745" lon="-1.55892">
        <ele>44.97609</ele>
        <time>2021-12-26T09:18:47.000Z</time>
      </trkpt>
      <trkpt lat="48.04747" lon="-1.55895">
        <ele>45.00569</ele>
        <time>2021-12-26T09:18:48.000Z</time>
      </trkpt>
      <trkpt lat="48.04749" lon="-1.55898">
        <ele>45.04385</ele>
        <time>2021-12-26T09:18:49.000Z</time>
      </trkpt>
      <trkpt lat="48.0475" lon="-1.55902">
        <ele>45.09567</ele>
        <time>2021-12-26T09:18:50.000Z</time>
      </trkpt>
      <trkpt lat="48.04752" lon="-1.55905">
        <ele>45.14649</ele>
        <time>2021-12-26T09:18:51.000Z</time>
      </trkpt>
      <trkpt lat="48.04753" lon="-1.55909">
        <ele>45.20084</ele>
        <time>2021-12-26T09:18:52.000Z</time>
      </trkpt>
      <trkpt lat="48.04755" lon="-1.55912">
        <ele>45.24951</ele>
        <time>2021-12-26T09:18:53.000Z</time>
      </trkpt>
      <trkpt lat="48.04756" lon="-1.55915">
        <ele>45.29436</ele>
        <time>2021-12-26T09:18:54.000Z</time>
      </trkpt>
      <trkpt lat="48.04757" lon="-1.55919">
        <ele>45.33696</ele>
        <time>2021-12-26T09:18:55.000Z</time>
      </trkpt>
      <trkpt lat="48.04757" lon="-1.55919">
        <ele>45.33696</ele>
        <time>2021-12-26T09:18:55.000Z</time>
      </trkpt>
      <trkpt lat="48.04759" lon="-1.55923">
        <ele>45.36781</ele>
        <time>2021-12-26T09:18:56.000Z</time>
      </trkpt>
      <trkpt lat="48.0476" lon="-1.55927">
        <ele>45.38212</ele>
        <time>2021-12-26T09:18:57.000Z</time>
      </trkpt>
      <trkpt lat="48.04761" lon="-1.55931">
        <ele>45.38066</ele>
        <time>2021-12-26T09:18:58.000Z</time>
      </trkpt>
      <trkpt lat="48.04762" lon="-1.55934">
        <ele>45.36549</ele>
        <time>2021-12-26T09:18:59.000Z</time>
      </trkpt>
      <trkpt lat="48.04764" lon="-1.55938">
        <ele>45.34398</ele>
        <time>2021-12-26T09:19:00.000Z</time>
      </trkpt>
      <trkpt lat="48.04765" lon="-1.55942">
        <ele>45.32391</ele>
        <time>2021-12-26T09:19:01.000Z</time>
      </trkpt>
      <trkpt lat="48.04766" lon="-1.55945">
        <ele>45.31184</ele>
        <time>2021-12-26T09:19:02.000Z</time>
      </trkpt>
      <trkpt lat="48.04767" lon="-1.55949">
        <ele>45.31209</ele>
        <time>2021-12-26T09:19:03.000Z</time>
      </trkpt>
      <trkpt lat="48.04769" lon="-1.55952">
        <ele>45.32677</ele>
        <time>2021-12-26T09:19:04.000Z</time>
      </trkpt>
      <trkpt lat="48.0477" lon="-1.55956">
        <ele>45.35385</ele>
        <time>2021-12-26T09:19:05.000Z</time>
      </trkpt>
      <trkpt lat="48.04771" lon="-1.5596">
        <ele>45.38292</ele>
        <time>2021-12-26T09:19:06.000Z</time>
      </trkpt>
      <trkpt lat="48.04772" lon="-1.55964">
        <ele>45.4079</ele>
        <time>2021-12-26T09:19:07.000Z</time>
      </trkpt>
      <trkpt lat="48.04773" lon="-1.55969">
        <ele>45.42665</ele>
        <time>2021-12-26T09:19:08.000Z</time>
      </trkpt>
      <trkpt lat="48.04774" lon="-1.55973">
        <ele>45.43812</ele>
        <time>2021-12-26T09:19:09.000Z</time>
      </trkpt>
      <trkpt lat="48.04775" lon="-1.55977">
        <ele>45.42741</ele>
        <time>2021-12-26T09:19:10.000Z</time>
      </trkpt>
      <trkpt lat="48.04775" lon="-1.55982">
        <ele>45.40477</ele>
        <time>2021-12-26T09:19:11.000Z</time>
      </trkpt>
      <trkpt lat="48.04777" lon="-1.55986">
        <ele>45.36669</ele>
        <time>2021-12-26T09:19:12.000Z</time>
      </trkpt>
      <trkpt lat="48.04778" lon="-1.5599">
        <ele>45.29587</ele>
        <time>2021-12-26T09:19:13.000Z</time>
      </trkpt>
      <trkpt lat="48.04779" lon="-1.55994">
        <ele>45.2035</ele>
        <time>2021-12-26T09:19:14.000Z</time>
      </trkpt>
      <trkpt lat="48.0478" lon="-1.55998">
        <ele>45.10073</ele>
        <time>2021-12-26T09:19:15.000Z</time>
      </trkpt>
      <trkpt lat="48.04781" lon="-1.56001">
        <ele>44.99891</ele>
        <time>2021-12-26T09:19:16.000Z</time>
      </trkpt>
      <trkpt lat="48.04782" lon="-1.56006">
        <ele>44.90015</ele>
        <time>2021-12-26T09:19:17.000Z</time>
      </trkpt>
      <trkpt lat="48.04783" lon="-1.56009">
        <ele>44.8288</ele>
        <time>2021-12-26T09:19:18.000Z</time>
      </trkpt>
      <trkpt lat="48.04784" lon="-1.56013">
        <ele>44.79314</ele>
        <time>2021-12-26T09:19:19.000Z</time>
      </trkpt>
      <trkpt lat="48.04786" lon="-1.56016">
        <ele>44.81366</ele>
        <time>2021-12-26T09:19:20.000Z</time>
      </trkpt>
      <trkpt lat="48.04788" lon="-1.56019">
        <ele>44.87664</ele>
        <time>2021-12-26T09:19:21.000Z</time>
      </trkpt>
      <trkpt lat="48.0479" lon="-1.56023">
        <ele>44.9826</ele>
        <time>2021-12-26T09:19:22.000Z</time>
      </trkpt>
      <trkpt lat="48.04792" lon="-1.56026">
        <ele>45.12191</ele>
        <time>2021-12-26T09:19:23.000Z</time>
      </trkpt>
      <trkpt lat="48.04793" lon="-1.5603">
        <ele>45.28397</ele>
        <time>2021-12-26T09:19:24.000Z</time>
      </trkpt>
      <trkpt lat="48.04795" lon="-1.56034">
        <ele>45.45037</ele>
        <time>2021-12-26T09:19:25.000Z</time>
      </trkpt>
      <trkpt lat="48.04797" lon="-1.56038">
        <ele>45.61655</ele>
        <time>2021-12-26T09:19:26.000Z</time>
      </trkpt>
      <trkpt lat="48.04798" lon="-1.56042">
        <ele>45.76119</ele>
        <time>2021-12-26T09:19:27.000Z</time>
      </trkpt>
      <trkpt lat="48.04799" lon="-1.56045">
        <ele>45.88035</ele>
        <time>2021-12-26T09:19:28.000Z</time>
      </trkpt>
      <trkpt lat="48.04801" lon="-1.56049">
        <ele>45.98171</ele>
        <time>2021-12-26T09:19:29.000Z</time>
      </trkpt>
      <trkpt lat="48.04801" lon="-1.56053">
        <ele>46.06537</ele>
        <time>2021-12-26T09:19:30.000Z</time>
      </trkpt>
      <trkpt lat="48.04802" lon="-1.56057">
        <ele>46.1333</ele>
        <time>2021-12-26T09:19:31.000Z</time>
      </trkpt>
      <trkpt lat="48.04803" lon="-1.56061">
        <ele>46.19745</ele>
        <time>2021-12-26T09:19:32.000Z</time>
      </trkpt>
      <trkpt lat="48.04803" lon="-1.56065">
        <ele>46.25835</ele>
        <time>2021-12-26T09:19:33.000Z</time>
      </trkpt>
      <trkpt lat="48.04804" lon="-1.5607">
        <ele>46.32886</ele>
        <time>2021-12-26T09:19:34.000Z</time>
      </trkpt>
      <trkpt lat="48.04806" lon="-1.56073">
        <ele>46.41298</ele>
        <time>2021-12-26T09:19:35.000Z</time>
      </trkpt>
      <trkpt lat="48.04807" lon="-1.56076">
        <ele>46.52473</ele>
        <time>2021-12-26T09:19:36.000Z</time>
      </trkpt>
      <trkpt lat="48.04809" lon="-1.5608">
        <ele>46.64976</ele>
        <time>2021-12-26T09:19:37.000Z</time>
      </trkpt>
      <trkpt lat="48.0481" lon="-1.56083">
        <ele>46.80764</ele>
        <time>2021-12-26T09:19:38.000Z</time>
      </trkpt>
      <trkpt lat="48.04812" lon="-1.56087">
        <ele>46.99093</ele>
        <time>2021-12-26T09:19:39.000Z</time>
      </trkpt>
      <trkpt lat="48.04813" lon="-1.5609">
        <ele>47.16172</ele>
        <time>2021-12-26T09:19:40.000Z</time>
      </trkpt>
      <trkpt lat="48.04814" lon="-1.56094">
        <ele>47.3162</ele>
        <time>2021-12-26T09:19:41.000Z</time>
      </trkpt>
      <trkpt lat="48.04815" lon="-1.56097">
        <ele>47.45773</ele>
        <time>2021-12-26T09:19:42.000Z</time>
      </trkpt>
      <trkpt lat="48.04816" lon="-1.56102">
        <ele>47.57049</ele>
        <time>2021-12-26T09:19:43.000Z</time>
      </trkpt>
      <trkpt lat="48.04817" lon="-1.56106">
        <ele>47.65269</ele>
        <time>2021-12-26T09:19:44.000Z</time>
      </trkpt>
      <trkpt lat="48.04817" lon="-1.5611">
        <ele>47.72156</ele>
        <time>2021-12-26T09:19:45.000Z</time>
      </trkpt>
      <trkpt lat="48.04818" lon="-1.56114">
        <ele>47.76253</ele>
        <time>2021-12-26T09:19:46.000Z</time>
      </trkpt>
      <trkpt lat="48.04819" lon="-1.56119">
        <ele>47.79016</ele>
        <time>2021-12-26T09:19:47.000Z</time>
      </trkpt>
      <trkpt lat="48.0482" lon="-1.56123">
        <ele>47.80502</ele>
        <time>2021-12-26T09:19:48.000Z</time>
      </trkpt>
      <trkpt lat="48.04821" lon="-1.56128">
        <ele>47.80207</ele>
        <time>2021-12-26T09:19:49.000Z</time>
      </trkpt>
      <trkpt lat="48.04822" lon="-1.56132">
        <ele>47.78763</ele>
        <time>2021-12-26T09:19:50.000Z</time>
      </trkpt>
      <trkpt lat="48.04823" lon="-1.56137">
        <ele>47.76213</ele>
        <time>2021-12-26T09:19:51.000Z</time>
      </trkpt>
      <trkpt lat="48.04824" lon="-1.56141">
        <ele>47.74682</ele>
        <time>2021-12-26T09:19:52.000Z</time>
      </trkpt>
      <trkpt lat="48.04825" lon="-1.56145">
        <ele>47.75896</ele>
        <time>2021-12-26T09:19:53.000Z</time>
      </trkpt>
      <trkpt lat="48.04826" lon="-1.5615">
        <ele>47.80406</ele>
        <time>2021-12-26T09:19:54.000Z</time>
      </trkpt>
      <trkpt lat="48.04827" lon="-1.56154">
        <ele>47.88401</ele>
        <time>2021-12-26T09:19:55.000Z</time>
      </trkpt>
      <trkpt lat="48.04828" lon="-1.56158">
        <ele>48.00013</ele>
        <time>2021-12-26T09:19:56.000Z</time>
      </trkpt>
      <trkpt lat="48.04829" lon="-1.56163">
        <ele>48.15466</ele>
        <time>2021-12-26T09:19:57.000Z</time>
      </trkpt>
      <trkpt lat="48.0483" lon="-1.56167">
        <ele>48.34126</ele>
        <time>2021-12-26T09:19:58.000Z</time>
      </trkpt>
      <trkpt lat="48.04831" lon="-1.56171">
        <ele>48.52636</ele>
        <time>2021-12-26T09:19:59.000Z</time>
      </trkpt>
      <trkpt lat="48.04832" lon="-1.56176">
        <ele>48.70285</ele>
        <time>2021-12-26T09:20:00.000Z</time>
      </trkpt>
      <trkpt lat="48.04833" lon="-1.5618">
        <ele>48.87689</ele>
        <time>2021-12-26T09:20:01.000Z</time>
      </trkpt>
      <trkpt lat="48.04834" lon="-1.56184">
        <ele>49.01092</ele>
        <time>2021-12-26T09:20:02.000Z</time>
      </trkpt>
      <trkpt lat="48.04836" lon="-1.56189">
        <ele>49.11531</ele>
        <time>2021-12-26T09:20:03.000Z</time>
      </trkpt>
      <trkpt lat="48.04837" lon="-1.56193">
        <ele>49.18255</ele>
        <time>2021-12-26T09:20:04.000Z</time>
      </trkpt>
      <trkpt lat="48.04838" lon="-1.56198">
        <ele>49.22296</ele>
        <time>2021-12-26T09:20:05.000Z</time>
      </trkpt>
      <trkpt lat="48.04839" lon="-1.56202">
        <ele>49.2493</ele>
        <time>2021-12-26T09:20:06.000Z</time>
      </trkpt>
      <trkpt lat="48.0484" lon="-1.56206">
        <ele>49.27064</ele>
        <time>2021-12-26T09:20:07.000Z</time>
      </trkpt>
      <trkpt lat="48.04841" lon="-1.5621">
        <ele>49.28833</ele>
        <time>2021-12-26T09:20:08.000Z</time>
      </trkpt>
      <trkpt lat="48.04842" lon="-1.56214">
        <ele>49.32059</ele>
        <time>2021-12-26T09:20:09.000Z</time>
      </trkpt>
      <trkpt lat="48.04843" lon="-1.56218">
        <ele>49.37316</ele>
        <time>2021-12-26T09:20:10.000Z</time>
      </trkpt>
      <trkpt lat="48.04844" lon="-1.56222">
        <ele>49.43542</ele>
        <time>2021-12-26T09:20:11.000Z</time>
      </trkpt>
      <trkpt lat="48.04845" lon="-1.56227">
        <ele>49.54791</ele>
        <time>2021-12-26T09:20:12.000Z</time>
      </trkpt>
      <trkpt lat="48.04846" lon="-1.56231">
        <ele>49.69153</ele>
        <time>2021-12-26T09:20:13.000Z</time>
      </trkpt>
      <trkpt lat="48.04847" lon="-1.56235">
        <ele>49.86173</ele>
        <time>2021-12-26T09:20:14.000Z</time>
      </trkpt>
      <trkpt lat="48.04848" lon="-1.56239">
        <ele>50.03947</ele>
        <time>2021-12-26T09:20:15.000Z</time>
      </trkpt>
      <trkpt lat="48.04849" lon="-1.56243">
        <ele>50.21079</ele>
        <time>2021-12-26T09:20:16.000Z</time>
      </trkpt>
      <trkpt lat="48.04849" lon="-1.56248">
        <ele>50.38282</ele>
        <time>2021-12-26T09:20:17.000Z</time>
      </trkpt>
      <trkpt lat="48.04851" lon="-1.56252">
        <ele>50.55986</ele>
        <time>2021-12-26T09:20:18.000Z</time>
      </trkpt>
      <trkpt lat="48.04852" lon="-1.56256">
        <ele>50.72148</ele>
        <time>2021-12-26T09:20:19.000Z</time>
      </trkpt>
      <trkpt lat="48.04853" lon="-1.5626">
        <ele>50.86134</ele>
        <time>2021-12-26T09:20:20.000Z</time>
      </trkpt>
      <trkpt lat="48.04854" lon="-1.56264">
        <ele>50.98311</ele>
        <time>2021-12-26T09:20:21.000Z</time>
      </trkpt>
      <trkpt lat="48.04855" lon="-1.56268">
        <ele>51.07956</ele>
        <time>2021-12-26T09:20:22.000Z</time>
      </trkpt>
      <trkpt lat="48.04856" lon="-1.56273">
        <ele>51.15131</ele>
        <time>2021-12-26T09:20:23.000Z</time>
      </trkpt>
      <trkpt lat="48.04857" lon="-1.56277">
        <ele>51.20328</ele>
        <time>2021-12-26T09:20:24.000Z</time>
      </trkpt>
      <trkpt lat="48.04858" lon="-1.56281">
        <ele>51.23334</ele>
        <time>2021-12-26T09:20:25.000Z</time>
      </trkpt>
      <trkpt lat="48.04859" lon="-1.56285">
        <ele>51.26081</ele>
        <time>2021-12-26T09:20:26.000Z</time>
      </trkpt>
      <trkpt lat="48.0486" lon="-1.56289">
        <ele>51.28847</ele>
        <time>2021-12-26T09:20:27.000Z</time>
      </trkpt>
      <trkpt lat="48.04861" lon="-1.56293">
        <ele>51.33149</ele>
        <time>2021-12-26T09:20:28.000Z</time>
      </trkpt>
      <trkpt lat="48.04862" lon="-1.56297">
        <ele>51.39574</ele>
        <time>2021-12-26T09:20:29.000Z</time>
      </trkpt>
      <trkpt lat="48.04863" lon="-1.56301">
        <ele>51.49104</ele>
        <time>2021-12-26T09:20:30.000Z</time>
      </trkpt>
      <trkpt lat="48.04863" lon="-1.56306">
        <ele>51.61326</ele>
        <time>2021-12-26T09:20:31.000Z</time>
      </trkpt>
      <trkpt lat="48.04864" lon="-1.5631">
        <ele>51.75773</ele>
        <time>2021-12-26T09:20:32.000Z</time>
      </trkpt>
      <trkpt lat="48.04865" lon="-1.56314">
        <ele>51.93858</ele>
        <time>2021-12-26T09:20:33.000Z</time>
      </trkpt>
      <trkpt lat="48.04867" lon="-1.56317">
        <ele>52.13221</ele>
        <time>2021-12-26T09:20:34.000Z</time>
      </trkpt>
      <trkpt lat="48.04868" lon="-1.56321">
        <ele>52.31833</ele>
        <time>2021-12-26T09:20:35.000Z</time>
      </trkpt>
      <trkpt lat="48.04869" lon="-1.56325">
        <ele>52.52129</ele>
        <time>2021-12-26T09:20:36.000Z</time>
      </trkpt>
      <trkpt lat="48.0487" lon="-1.56329">
        <ele>52.70605</ele>
        <time>2021-12-26T09:20:37.000Z</time>
      </trkpt>
      <trkpt lat="48.04871" lon="-1.56333">
        <ele>52.88252</ele>
        <time>2021-12-26T09:20:38.000Z</time>
      </trkpt>
      <trkpt lat="48.04872" lon="-1.56337">
        <ele>53.03046</ele>
        <time>2021-12-26T09:20:39.000Z</time>
      </trkpt>
      <trkpt lat="48.04873" lon="-1.5634">
        <ele>53.17338</ele>
        <time>2021-12-26T09:20:40.000Z</time>
      </trkpt>
      <trkpt lat="48.04874" lon="-1.56344">
        <ele>53.27286</ele>
        <time>2021-12-26T09:20:41.000Z</time>
      </trkpt>
      <trkpt lat="48.04875" lon="-1.56348">
        <ele>53.34916</ele>
        <time>2021-12-26T09:20:42.000Z</time>
      </trkpt>
      <trkpt lat="48.04876" lon="-1.56352">
        <ele>53.4063</ele>
        <time>2021-12-26T09:20:43.000Z</time>
      </trkpt>
      <trkpt lat="48.04878" lon="-1.56356">
        <ele>53.45587</ele>
        <time>2021-12-26T09:20:44.000Z</time>
      </trkpt>
      <trkpt lat="48.04879" lon="-1.5636">
        <ele>53.49844</ele>
        <time>2021-12-26T09:20:45.000Z</time>
      </trkpt>
      <trkpt lat="48.04879" lon="-1.56364">
        <ele>53.52758</ele>
        <time>2021-12-26T09:20:46.000Z</time>
      </trkpt>
      <trkpt lat="48.0488" lon="-1.56369">
        <ele>53.55255</ele>
        <time>2021-12-26T09:20:47.000Z</time>
      </trkpt>
      <trkpt lat="48.04881" lon="-1.56373">
        <ele>53.58168</ele>
        <time>2021-12-26T09:20:48.000Z</time>
      </trkpt>
      <trkpt lat="48.04881" lon="-1.56377">
        <ele>53.61366</ele>
        <time>2021-12-26T09:20:49.000Z</time>
      </trkpt>
      <trkpt lat="48.04882" lon="-1.56381">
        <ele>53.65503</ele>
        <time>2021-12-26T09:20:50.000Z</time>
      </trkpt>
      <trkpt lat="48.04883" lon="-1.56385">
        <ele>53.71518</ele>
        <time>2021-12-26T09:20:51.000Z</time>
      </trkpt>
      <trkpt lat="48.04883" lon="-1.5639">
        <ele>53.79218</ele>
        <time>2021-12-26T09:20:52.000Z</time>
      </trkpt>
      <trkpt lat="48.04884" lon="-1.56394">
        <ele>53.9047</ele>
        <time>2021-12-26T09:20:53.000Z</time>
      </trkpt>
      <trkpt lat="48.04884" lon="-1.56398">
        <ele>54.042</ele>
        <time>2021-12-26T09:20:54.000Z</time>
      </trkpt>
      <trkpt lat="48.04885" lon="-1.56403">
        <ele>54.20785</ele>
        <time>2021-12-26T09:20:55.000Z</time>
      </trkpt>
      <trkpt lat="48.04885" lon="-1.56407">
        <ele>54.42003</ele>
        <time>2021-12-26T09:20:56.000Z</time>
      </trkpt>
      <trkpt lat="48.04886" lon="-1.56411">
        <ele>54.64986</ele>
        <time>2021-12-26T09:20:57.000Z</time>
      </trkpt>
      <trkpt lat="48.04887" lon="-1.56415">
        <ele>54.86946</ele>
        <time>2021-12-26T09:20:58.000Z</time>
      </trkpt>
      <trkpt lat="48.04887" lon="-1.56419">
        <ele>55.07141</ele>
        <time>2021-12-26T09:20:59.000Z</time>
      </trkpt>
      <trkpt lat="48.04888" lon="-1.56423">
        <ele>55.28141</ele>
        <time>2021-12-26T09:21:00.000Z</time>
      </trkpt>
      <trkpt lat="48.04888" lon="-1.56427">
        <ele>55.4847</ele>
        <time>2021-12-26T09:21:01.000Z</time>
      </trkpt>
      <trkpt lat="48.04889" lon="-1.56431">
        <ele>55.66213</ele>
        <time>2021-12-26T09:21:02.000Z</time>
      </trkpt>
      <trkpt lat="48.04889" lon="-1.56436">
        <ele>55.84779</ele>
        <time>2021-12-26T09:21:03.000Z</time>
      </trkpt>
      <trkpt lat="48.0489" lon="-1.5644">
        <ele>56.02956</ele>
        <time>2021-12-26T09:21:04.000Z</time>
      </trkpt>
      <trkpt lat="48.04891" lon="-1.56445">
        <ele>56.24438</ele>
        <time>2021-12-26T09:21:05.000Z</time>
      </trkpt>
      <trkpt lat="48.04891" lon="-1.56449">
        <ele>56.42543</ele>
        <time>2021-12-26T09:21:06.000Z</time>
      </trkpt>
      <trkpt lat="48.04891" lon="-1.56454">
        <ele>56.60058</ele>
        <time>2021-12-26T09:21:07.000Z</time>
      </trkpt>
      <trkpt lat="48.04892" lon="-1.56458">
        <ele>56.7428</ele>
        <time>2021-12-26T09:21:08.000Z</time>
      </trkpt>
      <trkpt lat="48.04892" lon="-1.56463">
        <ele>56.88449</ele>
        <time>2021-12-26T09:21:09.000Z</time>
      </trkpt>
      <trkpt lat="48.04893" lon="-1.56467">
        <ele>56.99674</ele>
        <time>2021-12-26T09:21:10.000Z</time>
      </trkpt>
      <trkpt lat="48.04893" lon="-1.56471">
        <ele>57.06791</ele>
        <time>2021-12-26T09:21:11.000Z</time>
      </trkpt>
      <trkpt lat="48.04894" lon="-1.56476">
        <ele>57.13115</ele>
        <time>2021-12-26T09:21:12.000Z</time>
      </trkpt>
      <trkpt lat="48.04894" lon="-1.5648">
        <ele>57.14786</ele>
        <time>2021-12-26T09:21:13.000Z</time>
      </trkpt>
      <trkpt lat="48.04894" lon="-1.56485">
        <ele>57.12895</ele>
        <time>2021-12-26T09:21:14.000Z</time>
      </trkpt>
      <trkpt lat="48.04894" lon="-1.56489">
        <ele>57.10161</ele>
        <time>2021-12-26T09:21:15.000Z</time>
      </trkpt>
      <trkpt lat="48.04894" lon="-1.56494">
        <ele>57.06044</ele>
        <time>2021-12-26T09:21:16.000Z</time>
      </trkpt>
      <trkpt lat="48.04895" lon="-1.56498">
        <ele>57.06303</ele>
        <time>2021-12-26T09:21:17.000Z</time>
      </trkpt>
      <trkpt lat="48.04895" lon="-1.56502">
        <ele>57.07279</ele>
        <time>2021-12-26T09:21:18.000Z</time>
      </trkpt>
      <trkpt lat="48.04896" lon="-1.56506">
        <ele>57.08763</ele>
        <time>2021-12-26T09:21:19.000Z</time>
      </trkpt>
      <trkpt lat="48.04896" lon="-1.56511">
        <ele>57.09215</ele>
        <time>2021-12-26T09:21:20.000Z</time>
      </trkpt>
      <trkpt lat="48.04896" lon="-1.56515">
        <ele>57.1184</ele>
        <time>2021-12-26T09:21:21.000Z</time>
      </trkpt>
      <trkpt lat="48.04896" lon="-1.5652">
        <ele>57.09779</ele>
        <time>2021-12-26T09:21:22.000Z</time>
      </trkpt>
      <trkpt lat="48.04896" lon="-1.56525">
        <ele>57.11242</ele>
        <time>2021-12-26T09:21:23.000Z</time>
      </trkpt>
      <trkpt lat="48.04896" lon="-1.56529">
        <ele>57.10779</ele>
        <time>2021-12-26T09:21:24.000Z</time>
      </trkpt>
      <trkpt lat="48.04896" lon="-1.56534">
        <ele>57.10786</ele>
        <time>2021-12-26T09:21:25.000Z</time>
      </trkpt>
      <trkpt lat="48.04896" lon="-1.56539">
        <ele>57.0837</ele>
        <time>2021-12-26T09:21:26.000Z</time>
      </trkpt>
      <trkpt lat="48.04896" lon="-1.56544">
        <ele>57.04649</ele>
        <time>2021-12-26T09:21:27.000Z</time>
      </trkpt>
      <trkpt lat="48.04896" lon="-1.5655">
        <ele>57.00881</ele>
        <time>2021-12-26T09:21:28.000Z</time>
      </trkpt>
      <trkpt lat="48.04896" lon="-1.56555">
        <ele>56.9838</ele>
        <time>2021-12-26T09:21:29.000Z</time>
      </trkpt>
      <trkpt lat="48.04896" lon="-1.56561">
        <ele>56.97449</ele>
        <time>2021-12-26T09:21:30.000Z</time>
      </trkpt>
      <trkpt lat="48.04896" lon="-1.56566">
        <ele>56.97507</ele>
        <time>2021-12-26T09:21:31.000Z</time>
      </trkpt>
      <trkpt lat="48.04896" lon="-1.56572">
        <ele>56.98745</ele>
        <time>2021-12-26T09:21:32.000Z</time>
      </trkpt>
      <trkpt lat="48.04896" lon="-1.56577">
        <ele>57.01778</ele>
        <time>2021-12-26T09:21:33.000Z</time>
      </trkpt>
      <trkpt lat="48.04896" lon="-1.56583">
        <ele>57.06248</ele>
        <time>2021-12-26T09:21:34.000Z</time>
      </trkpt>
      <trkpt lat="48.04896" lon="-1.56588">
        <ele>57.09849</ele>
        <time>2021-12-26T09:21:35.000Z</time>
      </trkpt>
      <trkpt lat="48.04896" lon="-1.56594">
        <ele>57.15069</ele>
        <time>2021-12-26T09:21:36.000Z</time>
      </trkpt>
      <trkpt lat="48.04897" lon="-1.56599">
        <ele>57.18595</ele>
        <time>2021-12-26T09:21:37.000Z</time>
      </trkpt>
      <trkpt lat="48.04897" lon="-1.56605">
        <ele>57.22959</ele>
        <time>2021-12-26T09:21:38.000Z</time>
      </trkpt>
      <trkpt lat="48.04897" lon="-1.56611">
        <ele>57.26448</ele>
        <time>2021-12-26T09:21:39.000Z</time>
      </trkpt>
      <trkpt lat="48.04897" lon="-1.56616">
        <ele>57.29667</ele>
        <time>2021-12-26T09:21:40.000Z</time>
      </trkpt>
      <trkpt lat="48.04897" lon="-1.56622">
        <ele>57.31185</ele>
        <time>2021-12-26T09:21:41.000Z</time>
      </trkpt>
      <trkpt lat="48.04898" lon="-1.56628">
        <ele>57.35558</ele>
        <time>2021-12-26T09:21:42.000Z</time>
      </trkpt>
      <trkpt lat="48.04898" lon="-1.56634">
        <ele>57.3726</ele>
        <time>2021-12-26T09:21:43.000Z</time>
      </trkpt>
      <trkpt lat="48.04899" lon="-1.56639">
        <ele>57.34844</ele>
        <time>2021-12-26T09:21:44.000Z</time>
      </trkpt>
      <trkpt lat="48.04899" lon="-1.56645">
        <ele>57.30504</ele>
        <time>2021-12-26T09:21:45.000Z</time>
      </trkpt>
      <trkpt lat="48.04899" lon="-1.56651">
        <ele>57.2359</ele>
        <time>2021-12-26T09:21:46.000Z</time>
      </trkpt>
      <trkpt lat="48.04899" lon="-1.56657">
        <ele>57.17881</ele>
        <time>2021-12-26T09:21:47.000Z</time>
      </trkpt>
      <trkpt lat="48.049" lon="-1.56663">
        <ele>57.12647</ele>
        <time>2021-12-26T09:21:48.000Z</time>
      </trkpt>
      <trkpt lat="48.049" lon="-1.56669">
        <ele>57.06814</ele>
        <time>2021-12-26T09:21:49.000Z</time>
      </trkpt>
      <trkpt lat="48.049" lon="-1.56676">
        <ele>57.00851</ele>
        <time>2021-12-26T09:21:50.000Z</time>
      </trkpt>
      <trkpt lat="48.04901" lon="-1.56682">
        <ele>56.95699</ele>
        <time>2021-12-26T09:21:51.000Z</time>
      </trkpt>
      <trkpt lat="48.04901" lon="-1.56689">
        <ele>56.90776</ele>
        <time>2021-12-26T09:21:52.000Z</time>
      </trkpt>
      <trkpt lat="48.04901" lon="-1.56695">
        <ele>56.87051</ele>
        <time>2021-12-26T09:21:53.000Z</time>
      </trkpt>
      <trkpt lat="48.04902" lon="-1.56702">
        <ele>56.86505</ele>
        <time>2021-12-26T09:21:54.000Z</time>
      </trkpt>
      <trkpt lat="48.04902" lon="-1.56709">
        <ele>56.88575</ele>
        <time>2021-12-26T09:21:55.000Z</time>
      </trkpt>
      <trkpt lat="48.04902" lon="-1.56715">
        <ele>56.93962</ele>
        <time>2021-12-26T09:21:56.000Z</time>
      </trkpt>
      <trkpt lat="48.04903" lon="-1.56722">
        <ele>56.98541</ele>
        <time>2021-12-26T09:21:57.000Z</time>
      </trkpt>
      <trkpt lat="48.04903" lon="-1.56729">
        <ele>57.05933</ele>
        <time>2021-12-26T09:21:58.000Z</time>
      </trkpt>
      <trkpt lat="48.04903" lon="-1.56736">
        <ele>57.15786</ele>
        <time>2021-12-26T09:21:59.000Z</time>
      </trkpt>
      <trkpt lat="48.04903" lon="-1.56743">
        <ele>57.28401</ele>
        <time>2021-12-26T09:22:00.000Z</time>
      </trkpt>
      <trkpt lat="48.04904" lon="-1.5675">
        <ele>57.43712</ele>
        <time>2021-12-26T09:22:01.000Z</time>
      </trkpt>
      <trkpt lat="48.04904" lon="-1.56757">
        <ele>57.56128</ele>
        <time>2021-12-26T09:22:02.000Z</time>
      </trkpt>
      <trkpt lat="48.04904" lon="-1.56763">
        <ele>57.67526</ele>
        <time>2021-12-26T09:22:03.000Z</time>
      </trkpt>
      <trkpt lat="48.04904" lon="-1.5677">
        <ele>57.77996</ele>
        <time>2021-12-26T09:22:04.000Z</time>
      </trkpt>
      <trkpt lat="48.04906" lon="-1.56776">
        <ele>57.90503</ele>
        <time>2021-12-26T09:22:05.000Z</time>
      </trkpt>
      <trkpt lat="48.04907" lon="-1.56782">
        <ele>57.99616</ele>
        <time>2021-12-26T09:22:06.000Z</time>
      </trkpt>
      <trkpt lat="48.04908" lon="-1.56788">
        <ele>58.0677</ele>
        <time>2021-12-26T09:22:07.000Z</time>
      </trkpt>
      <trkpt lat="48.04909" lon="-1.56793">
        <ele>58.16198</ele>
        <time>2021-12-26T09:22:08.000Z</time>
      </trkpt>
      <trkpt lat="48.04911" lon="-1.56799">
        <ele>58.28274</ele>
        <time>2021-12-26T09:22:09.000Z</time>
      </trkpt>
      <trkpt lat="48.04913" lon="-1.56804">
        <ele>58.42781</ele>
        <time>2021-12-26T09:22:10.000Z</time>
      </trkpt>
      <trkpt lat="48.04914" lon="-1.56809">
        <ele>58.61464</ele>
        <time>2021-12-26T09:22:11.000Z</time>
      </trkpt>
      <trkpt lat="48.04916" lon="-1.56814">
        <ele>58.84013</ele>
        <time>2021-12-26T09:22:12.000Z</time>
      </trkpt>
      <trkpt lat="48.04918" lon="-1.56819">
        <ele>59.07509</ele>
        <time>2021-12-26T09:22:13.000Z</time>
      </trkpt>
      <trkpt lat="48.0492" lon="-1.56824">
        <ele>59.27843</ele>
        <time>2021-12-26T09:22:14.000Z</time>
      </trkpt>
      <trkpt lat="48.04922" lon="-1.56829">
        <ele>59.45201</ele>
        <time>2021-12-26T09:22:15.000Z</time>
      </trkpt>
      <trkpt lat="48.04924" lon="-1.56834">
        <ele>59.60079</ele>
        <time>2021-12-26T09:22:16.000Z</time>
      </trkpt>
      <trkpt lat="48.04926" lon="-1.56838">
        <ele>59.72901</ele>
        <time>2021-12-26T09:22:17.000Z</time>
      </trkpt>
      <trkpt lat="48.04928" lon="-1.56843">
        <ele>59.84866</ele>
        <time>2021-12-26T09:22:18.000Z</time>
      </trkpt>
      <trkpt lat="48.0493" lon="-1.56848">
        <ele>59.96778</ele>
        <time>2021-12-26T09:22:19.000Z</time>
      </trkpt>
      <trkpt lat="48.04932" lon="-1.56852">
        <ele>60.09181</ele>
        <time>2021-12-26T09:22:20.000Z</time>
      </trkpt>
      <trkpt lat="48.04934" lon="-1.56857">
        <ele>60.20785</ele>
        <time>2021-12-26T09:22:21.000Z</time>
      </trkpt>
      <trkpt lat="48.04936" lon="-1.56861">
        <ele>60.32091</ele>
        <time>2021-12-26T09:22:22.000Z</time>
      </trkpt>
      <trkpt lat="48.04938" lon="-1.56866">
        <ele>60.41067</ele>
        <time>2021-12-26T09:22:23.000Z</time>
      </trkpt>
      <trkpt lat="48.0494" lon="-1.5687">
        <ele>60.48765</ele>
        <time>2021-12-26T09:22:24.000Z</time>
      </trkpt>
      <trkpt lat="48.04942" lon="-1.56875">
        <ele>60.56053</ele>
        <time>2021-12-26T09:22:25.000Z</time>
      </trkpt>
      <trkpt lat="48.04944" lon="-1.5688">
        <ele>60.64512</ele>
        <time>2021-12-26T09:22:26.000Z</time>
      </trkpt>
      <trkpt lat="48.04946" lon="-1.56884">
        <ele>60.74175</ele>
        <time>2021-12-26T09:22:27.000Z</time>
      </trkpt>
      <trkpt lat="48.04948" lon="-1.56889">
        <ele>60.84995</ele>
        <time>2021-12-26T09:22:28.000Z</time>
      </trkpt>
      <trkpt lat="48.0495" lon="-1.56893">
        <ele>60.963</ele>
        <time>2021-12-26T09:22:29.000Z</time>
      </trkpt>
      <trkpt lat="48.04952" lon="-1.56898">
        <ele>61.07921</ele>
        <time>2021-12-26T09:22:30.000Z</time>
      </trkpt>
      <trkpt lat="48.04954" lon="-1.56902">
        <ele>61.17939</ele>
        <time>2021-12-26T09:22:31.000Z</time>
      </trkpt>
      <trkpt lat="48.04957" lon="-1.56907">
        <ele>61.25803</ele>
        <time>2021-12-26T09:22:32.000Z</time>
      </trkpt>
      <trkpt lat="48.04959" lon="-1.56911">
        <ele>61.31432</ele>
        <time>2021-12-26T09:22:33.000Z</time>
      </trkpt>
      <trkpt lat="48.04961" lon="-1.56916">
        <ele>61.37495</ele>
        <time>2021-12-26T09:22:34.000Z</time>
      </trkpt>
      <trkpt lat="48.04963" lon="-1.5692">
        <ele>61.44442</ele>
        <time>2021-12-26T09:22:35.000Z</time>
      </trkpt>
      <trkpt lat="48.04966" lon="-1.56924">
        <ele>61.52851</ele>
        <time>2021-12-26T09:22:36.000Z</time>
      </trkpt>
      <trkpt lat="48.04968" lon="-1.56927">
        <ele>61.63594</ele>
        <time>2021-12-26T09:22:37.000Z</time>
      </trkpt>
      <trkpt lat="48.04971" lon="-1.56931">
        <ele>61.75111</ele>
        <time>2021-12-26T09:22:38.000Z</time>
      </trkpt>
      <trkpt lat="48.04974" lon="-1.56935">
        <ele>61.86645</ele>
        <time>2021-12-26T09:22:39.000Z</time>
      </trkpt>
      <trkpt lat="48.04976" lon="-1.56938">
        <ele>61.95868</ele>
        <time>2021-12-26T09:22:40.000Z</time>
      </trkpt>
      <trkpt lat="48.0498" lon="-1.56941">
        <ele>62.02862</ele>
        <time>2021-12-26T09:22:41.000Z</time>
      </trkpt>
      <trkpt lat="48.04983" lon="-1.56944">
        <ele>62.07338</ele>
        <time>2021-12-26T09:22:42.000Z</time>
      </trkpt>
      <trkpt lat="48.04986" lon="-1.56946">
        <ele>62.10091</ele>
        <time>2021-12-26T09:22:43.000Z</time>
      </trkpt>
      <trkpt lat="48.04989" lon="-1.56949">
        <ele>62.13276</ele>
        <time>2021-12-26T09:22:44.000Z</time>
      </trkpt>
      <trkpt lat="48.04993" lon="-1.56952">
        <ele>62.17439</ele>
        <time>2021-12-26T09:22:45.000Z</time>
      </trkpt>
      <trkpt lat="48.04996" lon="-1.56955">
        <ele>62.22872</ele>
        <time>2021-12-26T09:22:46.000Z</time>
      </trkpt>
      <trkpt lat="48.04999" lon="-1.56957">
        <ele>62.28412</ele>
        <time>2021-12-26T09:22:47.000Z</time>
      </trkpt>
      <trkpt lat="48.05003" lon="-1.5696">
        <ele>62.30554</ele>
        <time>2021-12-26T09:22:48.000Z</time>
      </trkpt>
      <trkpt lat="48.05006" lon="-1.56963">
        <ele>62.30945</ele>
        <time>2021-12-26T09:22:49.000Z</time>
      </trkpt>
      <trkpt lat="48.0501" lon="-1.56965">
        <ele>62.29245</ele>
        <time>2021-12-26T09:22:50.000Z</time>
      </trkpt>
      <trkpt lat="48.05013" lon="-1.56968">
        <ele>62.28265</ele>
        <time>2021-12-26T09:22:51.000Z</time>
      </trkpt>
      <trkpt lat="48.05016" lon="-1.56972">
        <ele>62.29089</ele>
        <time>2021-12-26T09:22:52.000Z</time>
      </trkpt>
      <trkpt lat="48.0502" lon="-1.56975">
        <ele>62.34621</ele>
        <time>2021-12-26T09:22:53.000Z</time>
      </trkpt>
      <trkpt lat="48.05023" lon="-1.56978">
        <ele>62.44729</ele>
        <time>2021-12-26T09:22:54.000Z</time>
      </trkpt>
      <trkpt lat="48.05026" lon="-1.56982">
        <ele>62.5812</ele>
        <time>2021-12-26T09:22:55.000Z</time>
      </trkpt>
      <trkpt lat="48.05029" lon="-1.56986">
        <ele>62.71523</ele>
        <time>2021-12-26T09:22:56.000Z</time>
      </trkpt>
      <trkpt lat="48.05032" lon="-1.56989">
        <ele>62.81782</ele>
        <time>2021-12-26T09:22:57.000Z</time>
      </trkpt>
      <trkpt lat="48.05036" lon="-1.56993">
        <ele>62.87735</ele>
        <time>2021-12-26T09:22:58.000Z</time>
      </trkpt>
      <trkpt lat="48.05039" lon="-1.56996">
        <ele>62.89409</ele>
        <time>2021-12-26T09:22:59.000Z</time>
      </trkpt>
      <trkpt lat="48.05042" lon="-1.57">
        <ele>62.88944</ele>
        <time>2021-12-26T09:23:00.000Z</time>
      </trkpt>
      <trkpt lat="48.05045" lon="-1.57004">
        <ele>62.88936</ele>
        <time>2021-12-26T09:23:01.000Z</time>
      </trkpt>
      <trkpt lat="48.05048" lon="-1.57008">
        <ele>62.90176</ele>
        <time>2021-12-26T09:23:02.000Z</time>
      </trkpt>
      <trkpt lat="48.05051" lon="-1.57013">
        <ele>62.92483</ele>
        <time>2021-12-26T09:23:03.000Z</time>
      </trkpt>
      <trkpt lat="48.05053" lon="-1.57017">
        <ele>62.94824</ele>
        <time>2021-12-26T09:23:04.000Z</time>
      </trkpt>
      <trkpt lat="48.05056" lon="-1.57022">
        <ele>62.94294</ele>
        <time>2021-12-26T09:23:05.000Z</time>
      </trkpt>
      <trkpt lat="48.05058" lon="-1.57027">
        <ele>62.90216</ele>
        <time>2021-12-26T09:23:06.000Z</time>
      </trkpt>
      <trkpt lat="48.0506" lon="-1.57032">
        <ele>62.84025</ele>
        <time>2021-12-26T09:23:07.000Z</time>
      </trkpt>
      <trkpt lat="48.05063" lon="-1.57036">
        <ele>62.79002</ele>
        <time>2021-12-26T09:23:08.000Z</time>
      </trkpt>
      <trkpt lat="48.05065" lon="-1.57041">
        <ele>62.78449</ele>
        <time>2021-12-26T09:23:09.000Z</time>
      </trkpt>
      <trkpt lat="48.05067" lon="-1.57047">
        <ele>62.82371</ele>
        <time>2021-12-26T09:23:10.000Z</time>
      </trkpt>
      <trkpt lat="48.05068" lon="-1.57052">
        <ele>62.89409</ele>
        <time>2021-12-26T09:23:11.000Z</time>
      </trkpt>
      <trkpt lat="48.0507" lon="-1.57058">
        <ele>62.96724</ele>
        <time>2021-12-26T09:23:12.000Z</time>
      </trkpt>
      <trkpt lat="48.05071" lon="-1.57063">
        <ele>63.02085</ele>
        <time>2021-12-26T09:23:13.000Z</time>
      </trkpt>
      <trkpt lat="48.05073" lon="-1.57069">
        <ele>63.02306</ele>
        <time>2021-12-26T09:23:14.000Z</time>
      </trkpt>
      <trkpt lat="48.05074" lon="-1.57075">
        <ele>62.98079</ele>
        <time>2021-12-26T09:23:15.000Z</time>
      </trkpt>
      <trkpt lat="48.05076" lon="-1.5708">
        <ele>62.90604</ele>
        <time>2021-12-26T09:23:16.000Z</time>
      </trkpt>
      <trkpt lat="48.05077" lon="-1.57086">
        <ele>62.82882</ele>
        <time>2021-12-26T09:23:17.000Z</time>
      </trkpt>
      <trkpt lat="48.05079" lon="-1.57091">
        <ele>62.75234</ele>
        <time>2021-12-26T09:23:18.000Z</time>
      </trkpt>
      <trkpt lat="48.0508" lon="-1.57097">
        <ele>62.68688</ele>
        <time>2021-12-26T09:23:19.000Z</time>
      </trkpt>
      <trkpt lat="48.05082" lon="-1.57103">
        <ele>62.65469</ele>
        <time>2021-12-26T09:23:20.000Z</time>
      </trkpt>
      <trkpt lat="48.05084" lon="-1.57109">
        <ele>62.67613</ele>
        <time>2021-12-26T09:23:21.000Z</time>
      </trkpt>
      <trkpt lat="48.05085" lon="-1.57115">
        <ele>62.74938</ele>
        <time>2021-12-26T09:23:22.000Z</time>
      </trkpt>
      <trkpt lat="48.05087" lon="-1.5712">
        <ele>62.85656</ele>
        <time>2021-12-26T09:23:23.000Z</time>
      </trkpt>
      <trkpt lat="48.05088" lon="-1.57126">
        <ele>62.96432</ele>
        <time>2021-12-26T09:23:24.000Z</time>
      </trkpt>
      <trkpt lat="48.0509" lon="-1.57132">
        <ele>63.02422</ele>
        <time>2021-12-26T09:23:25.000Z</time>
      </trkpt>
      <trkpt lat="48.05091" lon="-1.57137">
        <ele>63.02082</ele>
        <time>2021-12-26T09:23:26.000Z</time>
      </trkpt>
      <trkpt lat="48.05093" lon="-1.57142">
        <ele>62.9476</ele>
        <time>2021-12-26T09:23:27.000Z</time>
      </trkpt>
      <trkpt lat="48.05095" lon="-1.57147">
        <ele>62.83093</ele>
        <time>2021-12-26T09:23:28.000Z</time>
      </trkpt>
      <trkpt lat="48.05095" lon="-1.57147">
        <ele>62.83093</ele>
        <time>2021-12-26T09:23:28.000Z</time>
      </trkpt>
      <trkpt lat="48.05095" lon="-1.57152">
        <ele>62.79396</ele>
        <time>2021-12-26T09:23:29.000Z</time>
      </trkpt>
      <trkpt lat="48.05093" lon="-1.57157">
        <ele>62.89845</ele>
        <time>2021-12-26T09:23:30.000Z</time>
      </trkpt>
      <trkpt lat="48.05091" lon="-1.57161">
        <ele>63.06099</ele>
        <time>2021-12-26T09:23:31.000Z</time>
      </trkpt>
      <trkpt lat="48.05088" lon="-1.57162">
        <ele>63.27766</ele>
        <time>2021-12-26T09:23:32.000Z</time>
      </trkpt>
      <trkpt lat="48.05084" lon="-1.57162">
        <ele>63.49474</ele>
        <time>2021-12-26T09:23:33.000Z</time>
      </trkpt>
      <trkpt lat="48.0508" lon="-1.57161">
        <ele>63.67679</ele>
        <time>2021-12-26T09:23:34.000Z</time>
      </trkpt>
      <trkpt lat="48.05076" lon="-1.57161">
        <ele>63.80988</ele>
        <time>2021-12-26T09:23:35.000Z</time>
      </trkpt>
      <trkpt lat="48.05072" lon="-1.57161">
        <ele>63.91742</ele>
        <time>2021-12-26T09:23:36.000Z</time>
      </trkpt>
      <trkpt lat="48.05068" lon="-1.57161">
        <ele>64.01359</ele>
        <time>2021-12-26T09:23:37.000Z</time>
      </trkpt>
      <trkpt lat="48.05063" lon="-1.57161">
        <ele>64.10496</ele>
        <time>2021-12-26T09:23:38.000Z</time>
      </trkpt>
      <trkpt lat="48.05059" lon="-1.57161">
        <ele>64.19799</ele>
        <time>2021-12-26T09:23:39.000Z</time>
      </trkpt>
      <trkpt lat="48.05054" lon="-1.5716">
        <ele>64.29323</ele>
        <time>2021-12-26T09:23:40.000Z</time>
      </trkpt>
      <trkpt lat="48.0505" lon="-1.5716">
        <ele>64.38598</ele>
        <time>2021-12-26T09:23:41.000Z</time>
      </trkpt>
      <trkpt lat="48.05046" lon="-1.57159">
        <ele>64.47873</ele>
        <time>2021-12-26T09:23:42.000Z</time>
      </trkpt>
      <trkpt lat="48.05042" lon="-1.57159">
        <ele>64.55998</ele>
        <time>2021-12-26T09:23:43.000Z</time>
      </trkpt>
      <trkpt lat="48.05039" lon="-1.57158">
        <ele>64.62017</ele>
        <time>2021-12-26T09:23:44.000Z</time>
      </trkpt>
      <trkpt lat="48.05035" lon="-1.57158">
        <ele>64.66834</ele>
        <time>2021-12-26T09:23:45.000Z</time>
      </trkpt>
      <trkpt lat="48.05032" lon="-1.57157">
        <ele>64.70054</ele>
        <time>2021-12-26T09:23:46.000Z</time>
      </trkpt>
      <trkpt lat="48.05029" lon="-1.57156">
        <ele>64.72359</ele>
        <time>2021-12-26T09:23:47.000Z</time>
      </trkpt>
      <trkpt lat="48.05025" lon="-1.57156">
        <ele>64.73817</ele>
        <time>2021-12-26T09:23:48.000Z</time>
      </trkpt>
      <trkpt lat="48.05021" lon="-1.57155">
        <ele>64.7376</ele>
        <time>2021-12-26T09:23:49.000Z</time>
      </trkpt>
      <trkpt lat="48.05018" lon="-1.57154">
        <ele>64.72392</ele>
        <time>2021-12-26T09:23:50.000Z</time>
      </trkpt>
      <trkpt lat="48.05014" lon="-1.57153">
        <ele>64.69534</ele>
        <time>2021-12-26T09:23:51.000Z</time>
      </trkpt>
      <trkpt lat="48.05011" lon="-1.57152">
        <ele>64.6548</ele>
        <time>2021-12-26T09:23:52.000Z</time>
      </trkpt>
      <trkpt lat="48.05007" lon="-1.57151">
        <ele>64.60643</ele>
        <time>2021-12-26T09:23:53.000Z</time>
      </trkpt>
      <trkpt lat="48.05003" lon="-1.5715">
        <ele>64.54901</ele>
        <time>2021-12-26T09:23:54.000Z</time>
      </trkpt>
      <trkpt lat="48.04999" lon="-1.57149">
        <ele>64.48185</ele>
        <time>2021-12-26T09:23:55.000Z</time>
      </trkpt>
      <trkpt lat="48.04996" lon="-1.57148">
        <ele>64.39424</ele>
        <time>2021-12-26T09:23:56.000Z</time>
      </trkpt>
      <trkpt lat="48.04992" lon="-1.57146">
        <ele>64.28397</ele>
        <time>2021-12-26T09:23:57.000Z</time>
      </trkpt>
      <trkpt lat="48.04987" lon="-1.57145">
        <ele>64.13047</ele>
        <time>2021-12-26T09:23:58.000Z</time>
      </trkpt>
      <trkpt lat="48.04983" lon="-1.57143">
        <ele>63.9322</ele>
        <time>2021-12-26T09:23:59.000Z</time>
      </trkpt>
      <trkpt lat="48.04979" lon="-1.57142">
        <ele>63.70386</ele>
        <time>2021-12-26T09:24:00.000Z</time>
      </trkpt>
      <trkpt lat="48.04975" lon="-1.57141">
        <ele>63.47738</ele>
        <time>2021-12-26T09:24:01.000Z</time>
      </trkpt>
      <trkpt lat="48.04971" lon="-1.57139">
        <ele>63.26323</ele>
        <time>2021-12-26T09:24:02.000Z</time>
      </trkpt>
      <trkpt lat="48.04968" lon="-1.57138">
        <ele>63.07956</ele>
        <time>2021-12-26T09:24:03.000Z</time>
      </trkpt>
      <trkpt lat="48.04964" lon="-1.57136">
        <ele>62.92527</ele>
        <time>2021-12-26T09:24:04.000Z</time>
      </trkpt>
      <trkpt lat="48.04961" lon="-1.57135">
        <ele>62.79353</ele>
        <time>2021-12-26T09:24:05.000Z</time>
      </trkpt>
      <trkpt lat="48.04958" lon="-1.57134">
        <ele>62.67825</ele>
        <time>2021-12-26T09:24:06.000Z</time>
      </trkpt>
      <trkpt lat="48.04954" lon="-1.57132">
        <ele>62.55936</ele>
        <time>2021-12-26T09:24:07.000Z</time>
      </trkpt>
      <trkpt lat="48.04951" lon="-1.5713">
        <ele>62.46366</ele>
        <time>2021-12-26T09:24:08.000Z</time>
      </trkpt>
      <trkpt lat="48.04948" lon="-1.57128">
        <ele>62.38294</ele>
        <time>2021-12-26T09:24:09.000Z</time>
      </trkpt>
      <trkpt lat="48.04945" lon="-1.57127">
        <ele>62.31578</ele>
        <time>2021-12-26T09:24:10.000Z</time>
      </trkpt>
      <trkpt lat="48.04941" lon="-1.57126">
        <ele>62.25374</ele>
        <time>2021-12-26T09:24:11.000Z</time>
      </trkpt>
      <trkpt lat="48.04938" lon="-1.57125">
        <ele>62.20738</ele>
        <time>2021-12-26T09:24:12.000Z</time>
      </trkpt>
      <trkpt lat="48.04934" lon="-1.57124">
        <ele>62.16099</ele>
        <time>2021-12-26T09:24:13.000Z</time>
      </trkpt>
      <trkpt lat="48.04931" lon="-1.57123">
        <ele>62.11976</ele>
        <time>2021-12-26T09:24:14.000Z</time>
      </trkpt>
      <trkpt lat="48.04928" lon="-1.57121">
        <ele>62.07595</ele>
        <time>2021-12-26T09:24:15.000Z</time>
      </trkpt>
      <trkpt lat="48.04925" lon="-1.57119">
        <ele>62.01786</ele>
        <time>2021-12-26T09:24:16.000Z</time>
      </trkpt>
      <trkpt lat="48.04925" lon="-1.57119">
        <ele>62.01786</ele>
        <time>2021-12-26T09:24:16.000Z</time>
      </trkpt>
      <trkpt lat="48.04922" lon="-1.57118">
        <ele>61.95974</ele>
        <time>2021-12-26T09:24:17.000Z</time>
      </trkpt>
      <trkpt lat="48.0492" lon="-1.57116">
        <ele>61.90333</ele>
        <time>2021-12-26T09:24:19.000Z</time>
      </trkpt>
      <trkpt lat="48.04918" lon="-1.57116">
        <ele>61.87126</ele>
        <time>2021-12-26T09:24:23.000Z</time>
      </trkpt>
      <trkpt lat="48.04915" lon="-1.57116">
        <ele>61.82406</ele>
        <time>2021-12-26T09:24:25.000Z</time>
      </trkpt>
      <trkpt lat="48.04911" lon="-1.57115">
        <ele>61.73624</ele>
        <time>2021-12-26T09:24:27.000Z</time>
      </trkpt>
      <trkpt lat="48.04908" lon="-1.57114">
        <ele>61.65884</ele>
        <time>2021-12-26T09:24:28.000Z</time>
      </trkpt>
      <trkpt lat="48.04905" lon="-1.57112">
        <ele>61.56966</ele>
        <time>2021-12-26T09:24:29.000Z</time>
      </trkpt>
      <trkpt lat="48.04901" lon="-1.57111">
        <ele>61.47535</ele>
        <time>2021-12-26T09:24:30.000Z</time>
      </trkpt>
      <trkpt lat="48.04897" lon="-1.57109">
        <ele>61.36757</ele>
        <time>2021-12-26T09:24:31.000Z</time>
      </trkpt>
      <trkpt lat="48.04892" lon="-1.57107">
        <ele>61.24224</ele>
        <time>2021-12-26T09:24:32.000Z</time>
      </trkpt>
      <trkpt lat="48.04888" lon="-1.57106">
        <ele>61.12686</ele>
        <time>2021-12-26T09:24:33.000Z</time>
      </trkpt>
      <trkpt lat="48.04884" lon="-1.57104">
        <ele>61.00363</ele>
        <time>2021-12-26T09:24:34.000Z</time>
      </trkpt>
      <trkpt lat="48.04879" lon="-1.57103">
        <ele>60.8774</ele>
        <time>2021-12-26T09:24:35.000Z</time>
      </trkpt>
      <trkpt lat="48.04875" lon="-1.57102">
        <ele>60.76187</ele>
        <time>2021-12-26T09:24:36.000Z</time>
      </trkpt>
      <trkpt lat="48.04871" lon="-1.571">
        <ele>60.66657</ele>
        <time>2021-12-26T09:24:37.000Z</time>
      </trkpt>
      <trkpt lat="48.04866" lon="-1.57099">
        <ele>60.56642</ele>
        <time>2021-12-26T09:24:38.000Z</time>
      </trkpt>
      <trkpt lat="48.04862" lon="-1.57097">
        <ele>60.45288</ele>
        <time>2021-12-26T09:24:39.000Z</time>
      </trkpt>
      <trkpt lat="48.04859" lon="-1.57095">
        <ele>60.33013</ele>
        <time>2021-12-26T09:24:40.000Z</time>
      </trkpt>
      <trkpt lat="48.04856" lon="-1.57095">
        <ele>60.25769</ele>
        <time>2021-12-26T09:24:41.000Z</time>
      </trkpt>
      <trkpt lat="48.04855" lon="-1.57094">
        <ele>60.18035</ele>
        <time>2021-12-26T09:24:42.000Z</time>
      </trkpt>
      <trkpt lat="48.04853" lon="-1.57092">
        <ele>60.07107</ele>
        <time>2021-12-26T09:24:43.000Z</time>
      </trkpt>
      <trkpt lat="48.04851" lon="-1.5709">
        <ele>59.96762</ele>
        <time>2021-12-26T09:24:44.000Z</time>
      </trkpt>
      <trkpt lat="48.04849" lon="-1.57088">
        <ele>59.8302</ele>
        <time>2021-12-26T09:24:45.000Z</time>
      </trkpt>
      <trkpt lat="48.04847" lon="-1.57087">
        <ele>59.75959</ele>
        <time>2021-12-26T09:24:46.000Z</time>
      </trkpt>
      <trkpt lat="48.04844" lon="-1.57086">
        <ele>59.64902</ele>
        <time>2021-12-26T09:24:48.000Z</time>
      </trkpt>
      <trkpt lat="48.04841" lon="-1.57086">
        <ele>59.57431</ele>
        <time>2021-12-26T09:24:50.000Z</time>
      </trkpt>
      <trkpt lat="48.04838" lon="-1.57085">
        <ele>59.49717</ele>
        <time>2021-12-26T09:24:51.000Z</time>
      </trkpt>
      <trkpt lat="48.04836" lon="-1.57085">
        <ele>59.4292</ele>
        <time>2021-12-26T09:24:52.000Z</time>
      </trkpt>
      <trkpt lat="48.04833" lon="-1.57086">
        <ele>59.40427</ele>
        <time>2021-12-26T09:24:53.000Z</time>
      </trkpt>
      <trkpt lat="48.04831" lon="-1.57087">
        <ele>59.37001</ele>
        <time>2021-12-26T09:24:54.000Z</time>
      </trkpt>
      <trkpt lat="48.04829" lon="-1.57087">
        <ele>59.29328</ele>
        <time>2021-12-26T09:24:55.000Z</time>
      </trkpt>
      <trkpt lat="48.04826" lon="-1.57086">
        <ele>59.19212</ele>
        <time>2021-12-26T09:24:56.000Z</time>
      </trkpt>
      <trkpt lat="48.04823" lon="-1.57085">
        <ele>59.07029</ele>
        <time>2021-12-26T09:24:57.000Z</time>
      </trkpt>
      <trkpt lat="48.04819" lon="-1.57084">
        <ele>58.94909</ele>
        <time>2021-12-26T09:24:58.000Z</time>
      </trkpt>
      <trkpt lat="48.04816" lon="-1.57083">
        <ele>58.82593</ele>
        <time>2021-12-26T09:24:59.000Z</time>
      </trkpt>
      <trkpt lat="48.04812" lon="-1.57083">
        <ele>58.71272</ele>
        <time>2021-12-26T09:25:00.000Z</time>
      </trkpt>
      <trkpt lat="48.04809" lon="-1.57082">
        <ele>58.61027</ele>
        <time>2021-12-26T09:25:01.000Z</time>
      </trkpt>
      <trkpt lat="48.04805" lon="-1.57082">
        <ele>58.51357</ele>
        <time>2021-12-26T09:25:02.000Z</time>
      </trkpt>
      <trkpt lat="48.04802" lon="-1.57082">
        <ele>58.43288</ele>
        <time>2021-12-26T09:25:03.000Z</time>
      </trkpt>
      <trkpt lat="48.04798" lon="-1.57082">
        <ele>58.34823</ele>
        <time>2021-12-26T09:25:04.000Z</time>
      </trkpt>
      <trkpt lat="48.04795" lon="-1.57081">
        <ele>58.24155</ele>
        <time>2021-12-26T09:25:05.000Z</time>
      </trkpt>
      <trkpt lat="48.04791" lon="-1.57079">
        <ele>58.12545</ele>
        <time>2021-12-26T09:25:06.000Z</time>
      </trkpt>
      <trkpt lat="48.04788" lon="-1.57078">
        <ele>58.00222</ele>
        <time>2021-12-26T09:25:07.000Z</time>
      </trkpt>
      <trkpt lat="48.04784" lon="-1.57077">
        <ele>57.86833</ele>
        <time>2021-12-26T09:25:08.000Z</time>
      </trkpt>
      <trkpt lat="48.0478" lon="-1.57076">
        <ele>57.72653</ele>
        <time>2021-12-26T09:25:09.000Z</time>
      </trkpt>
      <trkpt lat="48.04776" lon="-1.57075">
        <ele>57.5735</ele>
        <time>2021-12-26T09:25:10.000Z</time>
      </trkpt>
      <trkpt lat="48.04772" lon="-1.57073">
        <ele>57.41468</ele>
        <time>2021-12-26T09:25:11.000Z</time>
      </trkpt>
      <trkpt lat="48.04768" lon="-1.57071">
        <ele>57.2506</ele>
        <time>2021-12-26T09:25:12.000Z</time>
      </trkpt>
      <trkpt lat="48.04764" lon="-1.57069">
        <ele>57.09981</ele>
        <time>2021-12-26T09:25:13.000Z</time>
      </trkpt>
      <trkpt lat="48.0476" lon="-1.57067">
        <ele>56.95092</ele>
        <time>2021-12-26T09:25:14.000Z</time>
      </trkpt>
      <trkpt lat="48.04756" lon="-1.57067">
        <ele>56.81234</ele>
        <time>2021-12-26T09:25:15.000Z</time>
      </trkpt>
      <trkpt lat="48.04751" lon="-1.57066">
        <ele>56.65753</ele>
        <time>2021-12-26T09:25:16.000Z</time>
      </trkpt>
      <trkpt lat="48.04747" lon="-1.57065">
        <ele>56.51051</ele>
        <time>2021-12-26T09:25:17.000Z</time>
      </trkpt>
      <trkpt lat="48.04743" lon="-1.57064">
        <ele>56.36407</ele>
        <time>2021-12-26T09:25:18.000Z</time>
      </trkpt>
      <trkpt lat="48.04738" lon="-1.57063">
        <ele>56.22538</ele>
        <time>2021-12-26T09:25:19.000Z</time>
      </trkpt>
      <trkpt lat="48.04734" lon="-1.57062">
        <ele>56.07573</ele>
        <time>2021-12-26T09:25:20.000Z</time>
      </trkpt>
      <trkpt lat="48.04729" lon="-1.57061">
        <ele>55.93389</ele>
        <time>2021-12-26T09:25:21.000Z</time>
      </trkpt>
      <trkpt lat="48.04725" lon="-1.57059">
        <ele>55.79394</ele>
        <time>2021-12-26T09:25:22.000Z</time>
      </trkpt>
      <trkpt lat="48.0472" lon="-1.57058">
        <ele>55.65087</ele>
        <time>2021-12-26T09:25:23.000Z</time>
      </trkpt>
      <trkpt lat="48.04717" lon="-1.57057">
        <ele>55.53985</ele>
        <time>2021-12-26T09:25:24.000Z</time>
      </trkpt>
      <trkpt lat="48.04713" lon="-1.57056">
        <ele>55.43778</ele>
        <time>2021-12-26T09:25:25.000Z</time>
      </trkpt>
      <trkpt lat="48.04709" lon="-1.57056">
        <ele>55.36326</ele>
        <time>2021-12-26T09:25:26.000Z</time>
      </trkpt>
      <trkpt lat="48.04704" lon="-1.57056">
        <ele>55.27831</ele>
        <time>2021-12-26T09:25:27.000Z</time>
      </trkpt>
      <trkpt lat="48.047" lon="-1.57056">
        <ele>55.21113</ele>
        <time>2021-12-26T09:25:28.000Z</time>
      </trkpt>
      <trkpt lat="48.04696" lon="-1.57056">
        <ele>55.15757</ele>
        <time>2021-12-26T09:25:29.000Z</time>
      </trkpt>
      <trkpt lat="48.04691" lon="-1.57056">
        <ele>55.0983</ele>
        <time>2021-12-26T09:25:30.000Z</time>
      </trkpt>
      <trkpt lat="48.04687" lon="-1.57055">
        <ele>55.05747</ele>
        <time>2021-12-26T09:25:31.000Z</time>
      </trkpt>
      <trkpt lat="48.04683" lon="-1.57055">
        <ele>55.025</ele>
        <time>2021-12-26T09:25:32.000Z</time>
      </trkpt>
      <trkpt lat="48.04679" lon="-1.57054">
        <ele>54.99138</ele>
        <time>2021-12-26T09:25:33.000Z</time>
      </trkpt>
      <trkpt lat="48.04675" lon="-1.57053">
        <ele>54.97488</ele>
        <time>2021-12-26T09:25:34.000Z</time>
      </trkpt>
      <trkpt lat="48.04671" lon="-1.57053">
        <ele>55.00039</ele>
        <time>2021-12-26T09:25:35.000Z</time>
      </trkpt>
      <trkpt lat="48.04667" lon="-1.57054">
        <ele>55.04801</ele>
        <time>2021-12-26T09:25:36.000Z</time>
      </trkpt>
      <trkpt lat="48.04663" lon="-1.57053">
        <ele>55.07915</ele>
        <time>2021-12-26T09:25:37.000Z</time>
      </trkpt>
      <trkpt lat="48.04659" lon="-1.57053">
        <ele>55.1029</ele>
        <time>2021-12-26T09:25:38.000Z</time>
      </trkpt>
      <trkpt lat="48.04655" lon="-1.57053">
        <ele>55.10926</ele>
        <time>2021-12-26T09:25:39.000Z</time>
      </trkpt>
      <trkpt lat="48.04651" lon="-1.57052">
        <ele>55.09537</ele>
        <time>2021-12-26T09:25:40.000Z</time>
      </trkpt>
      <trkpt lat="48.04647" lon="-1.57051">
        <ele>55.07623</ele>
        <time>2021-12-26T09:25:41.000Z</time>
      </trkpt>
      <trkpt lat="48.04643" lon="-1.5705">
        <ele>55.05321</ele>
        <time>2021-12-26T09:25:42.000Z</time>
      </trkpt>
      <trkpt lat="48.04639" lon="-1.57049">
        <ele>55.01412</ele>
        <time>2021-12-26T09:25:43.000Z</time>
      </trkpt>
      <trkpt lat="48.04635" lon="-1.57048">
        <ele>54.96186</ele>
        <time>2021-12-26T09:25:44.000Z</time>
      </trkpt>
      <trkpt lat="48.04631" lon="-1.57047">
        <ele>54.88771</ele>
        <time>2021-12-26T09:25:45.000Z</time>
      </trkpt>
      <trkpt lat="48.04626" lon="-1.57046">
        <ele>54.80515</ele>
        <time>2021-12-26T09:25:46.000Z</time>
      </trkpt>
      <trkpt lat="48.04622" lon="-1.57046">
        <ele>54.70669</ele>
        <time>2021-12-26T09:25:47.000Z</time>
      </trkpt>
      <trkpt lat="48.04617" lon="-1.57045">
        <ele>54.57267</ele>
        <time>2021-12-26T09:25:48.000Z</time>
      </trkpt>
      <trkpt lat="48.04613" lon="-1.57044">
        <ele>54.40134</ele>
        <time>2021-12-26T09:25:49.000Z</time>
      </trkpt>
      <trkpt lat="48.04608" lon="-1.57044">
        <ele>54.20246</ele>
        <time>2021-12-26T09:25:50.000Z</time>
      </trkpt>
      <trkpt lat="48.04604" lon="-1.57043">
        <ele>53.98438</ele>
        <time>2021-12-26T09:25:51.000Z</time>
      </trkpt>
      <trkpt lat="48.04599" lon="-1.57042">
        <ele>53.71292</ele>
        <time>2021-12-26T09:25:52.000Z</time>
      </trkpt>
      <trkpt lat="48.04595" lon="-1.5704">
        <ele>53.40848</ele>
        <time>2021-12-26T09:25:53.000Z</time>
      </trkpt>
      <trkpt lat="48.0459" lon="-1.57038">
        <ele>53.09106</ele>
        <time>2021-12-26T09:25:54.000Z</time>
      </trkpt>
      <trkpt lat="48.04586" lon="-1.57037">
        <ele>52.76045</ele>
        <time>2021-12-26T09:25:55.000Z</time>
      </trkpt>
      <trkpt lat="48.04583" lon="-1.57036">
        <ele>52.40909</ele>
        <time>2021-12-26T09:25:56.000Z</time>
      </trkpt>
      <trkpt lat="48.04579" lon="-1.57034">
        <ele>52.01747</ele>
        <time>2021-12-26T09:25:57.000Z</time>
      </trkpt>
      <trkpt lat="48.04576" lon="-1.57033">
        <ele>51.62131</ele>
        <time>2021-12-26T09:25:58.000Z</time>
      </trkpt>
      <trkpt lat="48.04573" lon="-1.57032">
        <ele>51.3095</ele>
        <time>2021-12-26T09:25:59.000Z</time>
      </trkpt>
      <trkpt lat="48.04571" lon="-1.57032">
        <ele>51.08769</ele>
        <time>2021-12-26T09:26:44.999Z</time>
      </trkpt>
      <trkpt lat="48.04568" lon="-1.57032">
        <ele>50.84037</ele>
        <time>2021-12-26T09:26:46.999Z</time>
      </trkpt>
      <trkpt lat="48.04566" lon="-1.57031">
        <ele>50.62552</ele>
        <time>2021-12-26T09:26:47.999Z</time>
      </trkpt>
      <trkpt lat="48.04563" lon="-1.57029">
        <ele>50.41197</ele>
        <time>2021-12-26T09:26:48.999Z</time>
      </trkpt>
      <trkpt lat="48.04561" lon="-1.57026">
        <ele>50.23923</ele>
        <time>2021-12-26T09:26:49.999Z</time>
      </trkpt>
      <trkpt lat="48.04558" lon="-1.57022">
        <ele>50.08129</ele>
        <time>2021-12-26T09:26:50.999Z</time>
      </trkpt>
      <trkpt lat="48.04556" lon="-1.57017">
        <ele>49.95746</ele>
        <time>2021-12-26T09:26:51.999Z</time>
      </trkpt>
      <trkpt lat="48.04555" lon="-1.57011">
        <ele>49.85491</ele>
        <time>2021-12-26T09:26:52.999Z</time>
      </trkpt>
      <trkpt lat="48.04554" lon="-1.57004">
        <ele>49.77388</ele>
        <time>2021-12-26T09:26:53.999Z</time>
      </trkpt>
      <trkpt lat="48.04553" lon="-1.56998">
        <ele>49.67077</ele>
        <time>2021-12-26T09:26:54.999Z</time>
      </trkpt>
      <trkpt lat="48.04552" lon="-1.56992">
        <ele>49.54829</ele>
        <time>2021-12-26T09:26:55.999Z</time>
      </trkpt>
      <trkpt lat="48.04551" lon="-1.56985">
        <ele>49.38947</ele>
        <time>2021-12-26T09:26:56.999Z</time>
      </trkpt>
      <trkpt lat="48.04549" lon="-1.56979">
        <ele>49.19885</ele>
        <time>2021-12-26T09:26:57.999Z</time>
      </trkpt>
      <trkpt lat="48.04548" lon="-1.56972">
        <ele>48.99096</ele>
        <time>2021-12-26T09:26:58.999Z</time>
      </trkpt>
      <trkpt lat="48.04546" lon="-1.56966">
        <ele>48.79715</ele>
        <time>2021-12-26T09:26:59.999Z</time>
      </trkpt>
      <trkpt lat="48.04544" lon="-1.5696">
        <ele>48.59451</ele>
        <time>2021-12-26T09:27:00.999Z</time>
      </trkpt>
      <trkpt lat="48.0454" lon="-1.56956">
        <ele>48.45315</ele>
        <time>2021-12-26T09:27:01.999Z</time>
      </trkpt>
      <trkpt lat="48.04536" lon="-1.56953">
        <ele>48.38839</ele>
        <time>2021-12-26T09:27:02.999Z</time>
      </trkpt>
      <trkpt lat="48.04531" lon="-1.56951">
        <ele>48.36909</ele>
        <time>2021-12-26T09:27:03.999Z</time>
      </trkpt>
      <trkpt lat="48.04527" lon="-1.5695">
        <ele>48.35422</ele>
        <time>2021-12-26T09:27:04.999Z</time>
      </trkpt>
      <trkpt lat="48.04523" lon="-1.56948">
        <ele>48.3031</ele>
        <time>2021-12-26T09:27:05.999Z</time>
      </trkpt>
      <trkpt lat="48.04518" lon="-1.56946">
        <ele>48.24097</ele>
        <time>2021-12-26T09:27:06.999Z</time>
      </trkpt>
      <trkpt lat="48.04513" lon="-1.56945">
        <ele>48.17328</ele>
        <time>2021-12-26T09:27:07.999Z</time>
      </trkpt>
      <trkpt lat="48.04508" lon="-1.56944">
        <ele>48.07573</ele>
        <time>2021-12-26T09:27:08.999Z</time>
      </trkpt>
      <trkpt lat="48.04502" lon="-1.56942">
        <ele>47.9254</ele>
        <time>2021-12-26T09:27:09.999Z</time>
      </trkpt>
      <trkpt lat="48.04496" lon="-1.56941">
        <ele>47.67093</ele>
        <time>2021-12-26T09:27:10.999Z</time>
      </trkpt>
      <trkpt lat="48.0449" lon="-1.5694">
        <ele>47.33767</ele>
        <time>2021-12-26T09:27:11.999Z</time>
      </trkpt>
      <trkpt lat="48.04484" lon="-1.5694">
        <ele>46.99563</ele>
        <time>2021-12-26T09:27:12.999Z</time>
      </trkpt>
      <trkpt lat="48.04479" lon="-1.5694">
        <ele>46.72151</ele>
        <time>2021-12-26T09:27:13.999Z</time>
      </trkpt>
      <trkpt lat="48.04473" lon="-1.5694">
        <ele>46.49716</ele>
        <time>2021-12-26T09:27:14.999Z</time>
      </trkpt>
      <trkpt lat="48.04467" lon="-1.5694">
        <ele>46.30849</ele>
        <time>2021-12-26T09:27:15.999Z</time>
      </trkpt>
      <trkpt lat="48.04462" lon="-1.5694">
        <ele>46.14807</ele>
        <time>2021-12-26T09:27:16.999Z</time>
      </trkpt>
      <trkpt lat="48.04457" lon="-1.56939">
        <ele>46.00702</ele>
        <time>2021-12-26T09:27:17.999Z</time>
      </trkpt>
      <trkpt lat="48.04452" lon="-1.56938">
        <ele>45.8751</ele>
        <time>2021-12-26T09:27:18.999Z</time>
      </trkpt>
      <trkpt lat="48.04446" lon="-1.56937">
        <ele>45.74291</ele>
        <time>2021-12-26T09:27:19.999Z</time>
      </trkpt>
      <trkpt lat="48.04441" lon="-1.56936">
        <ele>45.6096</ele>
        <time>2021-12-26T09:27:20.999Z</time>
      </trkpt>
      <trkpt lat="48.04435" lon="-1.56935">
        <ele>45.47678</ele>
        <time>2021-12-26T09:27:21.999Z</time>
      </trkpt>
      <trkpt lat="48.0443" lon="-1.56933">
        <ele>45.3298</ele>
        <time>2021-12-26T09:27:22.999Z</time>
      </trkpt>
      <trkpt lat="48.04425" lon="-1.56932">
        <ele>45.14289</ele>
        <time>2021-12-26T09:27:23.999Z</time>
      </trkpt>
      <trkpt lat="48.04419" lon="-1.56931">
        <ele>44.95473</ele>
        <time>2021-12-26T09:27:24.999Z</time>
      </trkpt>
      <trkpt lat="48.04414" lon="-1.5693">
        <ele>44.8088</ele>
        <time>2021-12-26T09:27:25.999Z</time>
      </trkpt>
      <trkpt lat="48.04408" lon="-1.56928">
        <ele>44.73609</ele>
        <time>2021-12-26T09:27:26.999Z</time>
      </trkpt>
      <trkpt lat="48.04403" lon="-1.56927">
        <ele>44.7469</ele>
        <time>2021-12-26T09:27:27.999Z</time>
      </trkpt>
      <trkpt lat="48.04397" lon="-1.56925">
        <ele>44.77442</ele>
        <time>2021-12-26T09:27:28.999Z</time>
      </trkpt>
      <trkpt lat="48.04392" lon="-1.56924">
        <ele>44.75855</ele>
        <time>2021-12-26T09:27:29.999Z</time>
      </trkpt>
      <trkpt lat="48.04387" lon="-1.56923">
        <ele>44.6506</ele>
        <time>2021-12-26T09:27:30.999Z</time>
      </trkpt>
      <trkpt lat="48.04383" lon="-1.56921">
        <ele>44.4642</ele>
        <time>2021-12-26T09:27:31.999Z</time>
      </trkpt>
      <trkpt lat="48.04378" lon="-1.56919">
        <ele>44.21248</ele>
        <time>2021-12-26T09:27:32.999Z</time>
      </trkpt>
      <trkpt lat="48.04374" lon="-1.56917">
        <ele>43.98656</ele>
        <time>2021-12-26T09:27:33.999Z</time>
      </trkpt>
      <trkpt lat="48.04369" lon="-1.56917">
        <ele>43.75504</ele>
        <time>2021-12-26T09:27:34.999Z</time>
      </trkpt>
      <trkpt lat="48.04364" lon="-1.56917">
        <ele>43.59871</ele>
        <time>2021-12-26T09:27:35.999Z</time>
      </trkpt>
      <trkpt lat="48.04359" lon="-1.56919">
        <ele>43.45297</ele>
        <time>2021-12-26T09:27:36.999Z</time>
      </trkpt>
      <trkpt lat="48.04354" lon="-1.5692">
        <ele>43.33264</ele>
        <time>2021-12-26T09:27:37.999Z</time>
      </trkpt>
      <trkpt lat="48.04349" lon="-1.56921">
        <ele>43.25223</ele>
        <time>2021-12-26T09:27:38.999Z</time>
      </trkpt>
      <trkpt lat="48.04344" lon="-1.56922">
        <ele>43.19904</ele>
        <time>2021-12-26T09:27:39.999Z</time>
      </trkpt>
      <trkpt lat="48.04339" lon="-1.56922">
        <ele>43.18491</ele>
        <time>2021-12-26T09:27:40.999Z</time>
      </trkpt>
      <trkpt lat="48.04334" lon="-1.56923">
        <ele>43.20521</ele>
        <time>2021-12-26T09:27:41.999Z</time>
      </trkpt>
      <trkpt lat="48.0433" lon="-1.56924">
        <ele>43.24458</ele>
        <time>2021-12-26T09:27:42.999Z</time>
      </trkpt>
      <trkpt lat="48.04325" lon="-1.56924">
        <ele>43.2854</ele>
        <time>2021-12-26T09:27:43.999Z</time>
      </trkpt>
      <trkpt lat="48.04321" lon="-1.56925">
        <ele>43.31791</ele>
        <time>2021-12-26T09:27:44.999Z</time>
      </trkpt>
      <trkpt lat="48.04317" lon="-1.56926">
        <ele>43.3275</ele>
        <time>2021-12-26T09:27:45.999Z</time>
      </trkpt>
      <trkpt lat="48.04312" lon="-1.56926">
        <ele>43.32657</ele>
        <time>2021-12-26T09:27:46.999Z</time>
      </trkpt>
      <trkpt lat="48.04308" lon="-1.56927">
        <ele>43.33458</ele>
        <time>2021-12-26T09:27:47.999Z</time>
      </trkpt>
      <trkpt lat="48.04304" lon="-1.56928">
        <ele>43.37268</ele>
        <time>2021-12-26T09:27:48.999Z</time>
      </trkpt>
      <trkpt lat="48.043" lon="-1.56929">
        <ele>43.45189</ele>
        <time>2021-12-26T09:27:49.999Z</time>
      </trkpt>
      <trkpt lat="48.04295" lon="-1.56929">
        <ele>43.61511</ele>
        <time>2021-12-26T09:27:50.999Z</time>
      </trkpt>
      <trkpt lat="48.04291" lon="-1.5693">
        <ele>43.83227</ele>
        <time>2021-12-26T09:27:51.999Z</time>
      </trkpt>
      <trkpt lat="48.04287" lon="-1.5693">
        <ele>44.07365</ele>
        <time>2021-12-26T09:27:52.999Z</time>
      </trkpt>
      <trkpt lat="48.04283" lon="-1.5693">
        <ele>44.32345</ele>
        <time>2021-12-26T09:27:53.999Z</time>
      </trkpt>
      <trkpt lat="48.04279" lon="-1.5693">
        <ele>44.57526</ele>
        <time>2021-12-26T09:27:54.999Z</time>
      </trkpt>
      <trkpt lat="48.04275" lon="-1.5693">
        <ele>44.80699</ele>
        <time>2021-12-26T09:27:55.999Z</time>
      </trkpt>
      <trkpt lat="48.04271" lon="-1.5693">
        <ele>45.02109</ele>
        <time>2021-12-26T09:27:56.999Z</time>
      </trkpt>
      <trkpt lat="48.04267" lon="-1.5693">
        <ele>45.23052</ele>
        <time>2021-12-26T09:27:57.999Z</time>
      </trkpt>
      <trkpt lat="48.04263" lon="-1.5693">
        <ele>45.44322</ele>
        <time>2021-12-26T09:27:58.999Z</time>
      </trkpt>
      <trkpt lat="48.0426" lon="-1.5693">
        <ele>45.65455</ele>
        <time>2021-12-26T09:27:59.999Z</time>
      </trkpt>
      <trkpt lat="48.04257" lon="-1.56931">
        <ele>45.82956</ele>
        <time>2021-12-26T09:28:00.999Z</time>
      </trkpt>
      <trkpt lat="48.04253" lon="-1.56931">
        <ele>46.06753</ele>
        <time>2021-12-26T09:28:01.999Z</time>
      </trkpt>
      <trkpt lat="48.04249" lon="-1.56931">
        <ele>46.28598</ele>
        <time>2021-12-26T09:28:02.999Z</time>
      </trkpt>
      <trkpt lat="48.04246" lon="-1.56931">
        <ele>46.51021</ele>
        <time>2021-12-26T09:28:03.999Z</time>
      </trkpt>
      <trkpt lat="48.04243" lon="-1.56931">
        <ele>46.70304</ele>
        <time>2021-12-26T09:28:04.999Z</time>
      </trkpt>
      <trkpt lat="48.0424" lon="-1.5693">
        <ele>46.86663</ele>
        <time>2021-12-26T09:28:05.999Z</time>
      </trkpt>
      <trkpt lat="48.04237" lon="-1.5693">
        <ele>47.02731</ele>
        <time>2021-12-26T09:28:06.999Z</time>
      </trkpt>
      <trkpt lat="48.04233" lon="-1.56931">
        <ele>47.26667</ele>
        <time>2021-12-26T09:28:07.999Z</time>
      </trkpt>
      <trkpt lat="48.04231" lon="-1.56932">
        <ele>47.41976</ele>
        <time>2021-12-26T09:28:08.999Z</time>
      </trkpt>
      <trkpt lat="48.04228" lon="-1.56932">
        <ele>47.55096</ele>
        <time>2021-12-26T09:28:09.999Z</time>
      </trkpt>
      <trkpt lat="48.04226" lon="-1.56933">
        <ele>47.66216</ele>
        <time>2021-12-26T09:28:10.999Z</time>
      </trkpt>
      <trkpt lat="48.04223" lon="-1.56933">
        <ele>47.77058</ele>
        <time>2021-12-26T09:28:11.999Z</time>
      </trkpt>
      <trkpt lat="48.04221" lon="-1.56934">
        <ele>47.87731</ele>
        <time>2021-12-26T09:28:12.999Z</time>
      </trkpt>
      <trkpt lat="48.04218" lon="-1.56935">
        <ele>47.98796</ele>
        <time>2021-12-26T09:28:13.999Z</time>
      </trkpt>
      <trkpt lat="48.04216" lon="-1.56937">
        <ele>48.0806</ele>
        <time>2021-12-26T09:28:14.999Z</time>
      </trkpt>
      <trkpt lat="48.04213" lon="-1.56938">
        <ele>48.19239</ele>
        <time>2021-12-26T09:28:15.999Z</time>
      </trkpt>
      <trkpt lat="48.04211" lon="-1.56939">
        <ele>48.29028</ele>
        <time>2021-12-26T09:28:16.999Z</time>
      </trkpt>
      <trkpt lat="48.04208" lon="-1.5694">
        <ele>48.39262</ele>
        <time>2021-12-26T09:28:17.999Z</time>
      </trkpt>
      <trkpt lat="48.04206" lon="-1.5694">
        <ele>48.48877</ele>
        <time>2021-12-26T09:28:18.999Z</time>
      </trkpt>
      <trkpt lat="48.04203" lon="-1.5694">
        <ele>48.6078</ele>
        <time>2021-12-26T09:28:19.999Z</time>
      </trkpt>
      <trkpt lat="48.042" lon="-1.56941">
        <ele>48.7155</ele>
        <time>2021-12-26T09:28:20.999Z</time>
      </trkpt>
      <trkpt lat="48.04197" lon="-1.56941">
        <ele>48.83334</ele>
        <time>2021-12-26T09:28:21.999Z</time>
      </trkpt>
      <trkpt lat="48.04194" lon="-1.56942">
        <ele>48.93721</ele>
        <time>2021-12-26T09:28:22.999Z</time>
      </trkpt>
      <trkpt lat="48.04192" lon="-1.56943">
        <ele>49.03719</ele>
        <time>2021-12-26T09:28:23.999Z</time>
      </trkpt>
      <trkpt lat="48.04189" lon="-1.56943">
        <ele>49.15036</ele>
        <time>2021-12-26T09:28:24.999Z</time>
      </trkpt>
      <trkpt lat="48.04186" lon="-1.56944">
        <ele>49.26175</ele>
        <time>2021-12-26T09:28:25.999Z</time>
      </trkpt>
      <trkpt lat="48.04183" lon="-1.56944">
        <ele>49.3748</ele>
        <time>2021-12-26T09:28:26.999Z</time>
      </trkpt>
      <trkpt lat="48.0418" lon="-1.56945">
        <ele>49.47517</ele>
        <time>2021-12-26T09:28:27.999Z</time>
      </trkpt>
      <trkpt lat="48.04178" lon="-1.56945">
        <ele>49.57311</ele>
        <time>2021-12-26T09:28:28.999Z</time>
      </trkpt>
      <trkpt lat="48.04176" lon="-1.56945">
        <ele>49.64515</ele>
        <time>2021-12-26T09:28:29.999Z</time>
      </trkpt>
      <trkpt lat="48.04173" lon="-1.56946">
        <ele>49.71969</ele>
        <time>2021-12-26T09:28:30.999Z</time>
      </trkpt>
      <trkpt lat="48.04171" lon="-1.56946">
        <ele>49.79813</ele>
        <time>2021-12-26T09:28:31.999Z</time>
      </trkpt>
      <trkpt lat="48.04169" lon="-1.56946">
        <ele>49.87532</ele>
        <time>2021-12-26T09:28:32.999Z</time>
      </trkpt>
      <trkpt lat="48.04166" lon="-1.56946">
        <ele>49.94263</ele>
        <time>2021-12-26T09:28:33.999Z</time>
      </trkpt>
      <trkpt lat="48.04163" lon="-1.56948">
        <ele>50.04885</ele>
        <time>2021-12-26T09:28:34.999Z</time>
      </trkpt>
      <trkpt lat="48.04159" lon="-1.56948">
        <ele>50.17235</ele>
        <time>2021-12-26T09:28:35.999Z</time>
      </trkpt>
      <trkpt lat="48.04156" lon="-1.56949">
        <ele>50.26949</ele>
        <time>2021-12-26T09:28:36.999Z</time>
      </trkpt>
      <trkpt lat="48.04152" lon="-1.5695">
        <ele>50.35284</ele>
        <time>2021-12-26T09:28:37.999Z</time>
      </trkpt>
      <trkpt lat="48.04149" lon="-1.56951">
        <ele>50.42737</ele>
        <time>2021-12-26T09:28:38.999Z</time>
      </trkpt>
      <trkpt lat="48.04146" lon="-1.56952">
        <ele>50.48276</ele>
        <time>2021-12-26T09:28:39.999Z</time>
      </trkpt>
      <trkpt lat="48.04143" lon="-1.56953">
        <ele>50.53063</ele>
        <time>2021-12-26T09:28:40.999Z</time>
      </trkpt>
      <trkpt lat="48.04141" lon="-1.56954">
        <ele>50.56082</ele>
        <time>2021-12-26T09:28:41.999Z</time>
      </trkpt>
      <trkpt lat="48.04139" lon="-1.56955">
        <ele>50.5834</ele>
        <time>2021-12-26T09:28:42.999Z</time>
      </trkpt>
      <trkpt lat="48.04135" lon="-1.56957">
        <ele>50.60578</ele>
        <time>2021-12-26T09:28:43.999Z</time>
      </trkpt>
      <trkpt lat="48.04133" lon="-1.56958">
        <ele>50.61383</ele>
        <time>2021-12-26T09:28:44.999Z</time>
      </trkpt>
      <trkpt lat="48.0413" lon="-1.5696">
        <ele>50.61514</ele>
        <time>2021-12-26T09:28:45.999Z</time>
      </trkpt>
      <trkpt lat="48.04128" lon="-1.56962">
        <ele>50.61201</ele>
        <time>2021-12-26T09:28:46.999Z</time>
      </trkpt>
      <trkpt lat="48.04125" lon="-1.56964">
        <ele>50.60362</ele>
        <time>2021-12-26T09:28:47.999Z</time>
      </trkpt>
      <trkpt lat="48.04121" lon="-1.56966">
        <ele>50.59776</ele>
        <time>2021-12-26T09:28:48.999Z</time>
      </trkpt>
      <trkpt lat="48.04118" lon="-1.56968">
        <ele>50.59804</ele>
        <time>2021-12-26T09:28:49.999Z</time>
      </trkpt>
      <trkpt lat="48.04116" lon="-1.5697">
        <ele>50.60568</ele>
        <time>2021-12-26T09:28:51.999Z</time>
      </trkpt>
      <trkpt lat="48.04112" lon="-1.56972">
        <ele>50.61858</ele>
        <time>2021-12-26T09:28:53.999Z</time>
      </trkpt>
      <trkpt lat="48.04109" lon="-1.56973">
        <ele>50.63359</ele>
        <time>2021-12-26T09:28:54.999Z</time>
      </trkpt>
      <trkpt lat="48.04105" lon="-1.56974">
        <ele>50.65087</ele>
        <time>2021-12-26T09:28:55.999Z</time>
      </trkpt>
      <trkpt lat="48.04102" lon="-1.56974">
        <ele>50.6667</ele>
        <time>2021-12-26T09:28:56.999Z</time>
      </trkpt>
      <trkpt lat="48.04098" lon="-1.56976">
        <ele>50.69811</ele>
        <time>2021-12-26T09:28:57.999Z</time>
      </trkpt>
      <trkpt lat="48.04095" lon="-1.56977">
        <ele>50.73152</ele>
        <time>2021-12-26T09:28:58.999Z</time>
      </trkpt>
      <trkpt lat="48.04092" lon="-1.56978">
        <ele>50.76767</ele>
        <time>2021-12-26T09:28:59.999Z</time>
      </trkpt>
      <trkpt lat="48.0409" lon="-1.5698">
        <ele>50.80318</ele>
        <time>2021-12-26T09:29:00.999Z</time>
      </trkpt>
      <trkpt lat="48.0409" lon="-1.5698">
        <ele>50.80318</ele>
        <time>2021-12-26T09:29:00.999Z</time>
      </trkpt>
      <trkpt lat="48.04088" lon="-1.56983">
        <ele>50.84304</ele>
        <time>2021-12-26T09:29:01.999Z</time>
      </trkpt>
      <trkpt lat="48.04087" lon="-1.56986">
        <ele>50.87187</ele>
        <time>2021-12-26T09:29:02.999Z</time>
      </trkpt>
      <trkpt lat="48.04087" lon="-1.5699">
        <ele>50.89243</ele>
        <time>2021-12-26T09:29:03.999Z</time>
      </trkpt>
      <trkpt lat="48.04087" lon="-1.56993">
        <ele>50.90475</ele>
        <time>2021-12-26T09:29:04.999Z</time>
      </trkpt>
      <trkpt lat="48.04086" lon="-1.56997">
        <ele>50.92825</ele>
        <time>2021-12-26T09:29:14.999Z</time>
      </trkpt>
      <trkpt lat="48.04085" lon="-1.56999">
        <ele>50.95269</ele>
        <time>2021-12-26T09:29:15.999Z</time>
      </trkpt>
      <trkpt lat="48.04084" lon="-1.57003">
        <ele>50.97119</ele>
        <time>2021-12-26T09:29:16.999Z</time>
      </trkpt>
      <trkpt lat="48.04083" lon="-1.57007">
        <ele>50.98773</ele>
        <time>2021-12-26T09:29:17.999Z</time>
      </trkpt>
      <trkpt lat="48.04083" lon="-1.57011">
        <ele>50.99701</ele>
        <time>2021-12-26T09:29:18.999Z</time>
      </trkpt>
      <trkpt lat="48.04081" lon="-1.57016">
        <ele>51.01104</ele>
        <time>2021-12-26T09:29:19.999Z</time>
      </trkpt>
      <trkpt lat="48.0408" lon="-1.57021">
        <ele>51.04208</ele>
        <time>2021-12-26T09:29:20.999Z</time>
      </trkpt>
      <trkpt lat="48.04078" lon="-1.57025">
        <ele>51.09014</ele>
        <time>2021-12-26T09:29:21.999Z</time>
      </trkpt>
      <trkpt lat="48.04076" lon="-1.57029">
        <ele>51.15799</ele>
        <time>2021-12-26T09:29:22.999Z</time>
      </trkpt>
      <trkpt lat="48.04074" lon="-1.57032">
        <ele>51.23295</ele>
        <time>2021-12-26T09:29:23.999Z</time>
      </trkpt>
      <trkpt lat="48.04071" lon="-1.57035">
        <ele>51.32882</ele>
        <time>2021-12-26T09:29:24.999Z</time>
      </trkpt>
      <trkpt lat="48.04068" lon="-1.57037">
        <ele>51.45104</ele>
        <time>2021-12-26T09:29:25.999Z</time>
      </trkpt>
      <trkpt lat="48.04065" lon="-1.57039">
        <ele>51.58505</ele>
        <time>2021-12-26T09:29:26.999Z</time>
      </trkpt>
      <trkpt lat="48.04062" lon="-1.57041">
        <ele>51.71428</ele>
        <time>2021-12-26T09:29:27.999Z</time>
      </trkpt>
      <trkpt lat="48.04059" lon="-1.57043">
        <ele>51.82508</ele>
        <time>2021-12-26T09:29:28.999Z</time>
      </trkpt>
      <trkpt lat="48.04057" lon="-1.57046">
        <ele>51.904</ele>
        <time>2021-12-26T09:29:29.999Z</time>
      </trkpt>
      <trkpt lat="48.04054" lon="-1.57049">
        <ele>51.95082</ele>
        <time>2021-12-26T09:29:30.999Z</time>
      </trkpt>
      <trkpt lat="48.04051" lon="-1.57052">
        <ele>51.96072</ele>
        <time>2021-12-26T09:29:31.999Z</time>
      </trkpt>
      <trkpt lat="48.04048" lon="-1.57055">
        <ele>51.97133</ele>
        <time>2021-12-26T09:29:32.999Z</time>
      </trkpt>
      <trkpt lat="48.04045" lon="-1.57058">
        <ele>51.97767</ele>
        <time>2021-12-26T09:29:33.999Z</time>
      </trkpt>
      <trkpt lat="48.04042" lon="-1.57061">
        <ele>52.00416</ele>
        <time>2021-12-26T09:29:34.999Z</time>
      </trkpt>
      <trkpt lat="48.04039" lon="-1.57064">
        <ele>52.02781</ele>
        <time>2021-12-26T09:29:35.999Z</time>
      </trkpt>
      <trkpt lat="48.04036" lon="-1.57068">
        <ele>52.05062</ele>
        <time>2021-12-26T09:29:36.999Z</time>
      </trkpt>
      <trkpt lat="48.04033" lon="-1.57071">
        <ele>52.06959</ele>
        <time>2021-12-26T09:29:37.999Z</time>
      </trkpt>
      <trkpt lat="48.0403" lon="-1.57074">
        <ele>52.08799</ele>
        <time>2021-12-26T09:29:38.999Z</time>
      </trkpt>
      <trkpt lat="48.04027" lon="-1.57078">
        <ele>52.06982</ele>
        <time>2021-12-26T09:29:39.999Z</time>
      </trkpt>
      <trkpt lat="48.04024" lon="-1.57081">
        <ele>52.04294</ele>
        <time>2021-12-26T09:29:40.999Z</time>
      </trkpt>
      <trkpt lat="48.04021" lon="-1.57084">
        <ele>51.99512</ele>
        <time>2021-12-26T09:29:41.999Z</time>
      </trkpt>
      <trkpt lat="48.04018" lon="-1.57088">
        <ele>51.9395</ele>
        <time>2021-12-26T09:29:42.999Z</time>
      </trkpt>
      <trkpt lat="48.04015" lon="-1.57091">
        <ele>51.8831</ele>
        <time>2021-12-26T09:29:43.999Z</time>
      </trkpt>
      <trkpt lat="48.04012" lon="-1.57094">
        <ele>51.84169</ele>
        <time>2021-12-26T09:29:44.999Z</time>
      </trkpt>
      <trkpt lat="48.04009" lon="-1.57098">
        <ele>51.80805</ele>
        <time>2021-12-26T09:29:45.999Z</time>
      </trkpt>
      <trkpt lat="48.04006" lon="-1.57101">
        <ele>51.78444</ele>
        <time>2021-12-26T09:29:46.999Z</time>
      </trkpt>
      <trkpt lat="48.04003" lon="-1.57104">
        <ele>51.77777</ele>
        <time>2021-12-26T09:29:47.999Z</time>
      </trkpt>
      <trkpt lat="48.04" lon="-1.57108">
        <ele>51.77538</ele>
        <time>2021-12-26T09:29:48.999Z</time>
      </trkpt>
      <trkpt lat="48.03997" lon="-1.57111">
        <ele>51.77188</ele>
        <time>2021-12-26T09:29:49.999Z</time>
      </trkpt>
      <trkpt lat="48.03994" lon="-1.57115">
        <ele>51.76712</ele>
        <time>2021-12-26T09:29:50.999Z</time>
      </trkpt>
      <trkpt lat="48.0399" lon="-1.57118">
        <ele>51.75503</ele>
        <time>2021-12-26T09:29:51.999Z</time>
      </trkpt>
      <trkpt lat="48.03987" lon="-1.57121">
        <ele>51.73331</ele>
        <time>2021-12-26T09:29:52.999Z</time>
      </trkpt>
      <trkpt lat="48.03984" lon="-1.57125">
        <ele>51.70603</ele>
        <time>2021-12-26T09:29:53.999Z</time>
      </trkpt>
      <trkpt lat="48.03981" lon="-1.57128">
        <ele>51.69409</ele>
        <time>2021-12-26T09:29:54.999Z</time>
      </trkpt>
      <trkpt lat="48.03977" lon="-1.57131">
        <ele>51.7063</ele>
        <time>2021-12-26T09:29:55.999Z</time>
      </trkpt>
      <trkpt lat="48.03974" lon="-1.57135">
        <ele>51.73629</ele>
        <time>2021-12-26T09:29:56.999Z</time>
      </trkpt>
      <trkpt lat="48.03971" lon="-1.57138">
        <ele>51.77651</ele>
        <time>2021-12-26T09:29:57.999Z</time>
      </trkpt>
      <trkpt lat="48.03968" lon="-1.57141">
        <ele>51.81463</ele>
        <time>2021-12-26T09:29:58.999Z</time>
      </trkpt>
      <trkpt lat="48.03965" lon="-1.57145">
        <ele>51.84501</ele>
        <time>2021-12-26T09:29:59.999Z</time>
      </trkpt>
      <trkpt lat="48.03962" lon="-1.57148">
        <ele>51.85972</ele>
        <time>2021-12-26T09:30:00.999Z</time>
      </trkpt>
      <trkpt lat="48.03959" lon="-1.57151">
        <ele>51.85302</ele>
        <time>2021-12-26T09:30:01.999Z</time>
      </trkpt>
      <trkpt lat="48.03955" lon="-1.57154">
        <ele>51.82121</ele>
        <time>2021-12-26T09:30:02.999Z</time>
      </trkpt>
      <trkpt lat="48.03951" lon="-1.57158">
        <ele>51.77001</ele>
        <time>2021-12-26T09:30:03.999Z</time>
      </trkpt>
      <trkpt lat="48.03947" lon="-1.57161">
        <ele>51.69881</ele>
        <time>2021-12-26T09:30:04.999Z</time>
      </trkpt>
      <trkpt lat="48.03943" lon="-1.57164">
        <ele>51.60963</ele>
        <time>2021-12-26T09:30:05.999Z</time>
      </trkpt>
      <trkpt lat="48.03939" lon="-1.57167">
        <ele>51.5116</ele>
        <time>2021-12-26T09:30:06.999Z</time>
      </trkpt>
      <trkpt lat="48.03935" lon="-1.5717">
        <ele>51.4096</ele>
        <time>2021-12-26T09:30:07.999Z</time>
      </trkpt>
      <trkpt lat="48.03931" lon="-1.57172">
        <ele>51.31041</ele>
        <time>2021-12-26T09:30:08.999Z</time>
      </trkpt>
      <trkpt lat="48.03926" lon="-1.57175">
        <ele>51.21309</ele>
        <time>2021-12-26T09:30:09.999Z</time>
      </trkpt>
      <trkpt lat="48.03922" lon="-1.57177">
        <ele>51.11521</ele>
        <time>2021-12-26T09:30:10.999Z</time>
      </trkpt>
      <trkpt lat="48.03917" lon="-1.57179">
        <ele>51.0102</ele>
        <time>2021-12-26T09:30:11.999Z</time>
      </trkpt>
      <trkpt lat="48.03912" lon="-1.57181">
        <ele>50.88808</ele>
        <time>2021-12-26T09:30:12.999Z</time>
      </trkpt>
      <trkpt lat="48.03907" lon="-1.57183">
        <ele>50.75346</ele>
        <time>2021-12-26T09:30:13.999Z</time>
      </trkpt>
      <trkpt lat="48.03902" lon="-1.57185">
        <ele>50.60468</ele>
        <time>2021-12-26T09:30:14.999Z</time>
      </trkpt>
      <trkpt lat="48.03897" lon="-1.57187">
        <ele>50.44903</ele>
        <time>2021-12-26T09:30:15.999Z</time>
      </trkpt>
      <trkpt lat="48.03892" lon="-1.57189">
        <ele>50.29216</ele>
        <time>2021-12-26T09:30:16.999Z</time>
      </trkpt>
      <trkpt lat="48.03887" lon="-1.57191">
        <ele>50.12755</ele>
        <time>2021-12-26T09:30:17.999Z</time>
      </trkpt>
      <trkpt lat="48.03882" lon="-1.57192">
        <ele>49.94227</ele>
        <time>2021-12-26T09:30:18.999Z</time>
      </trkpt>
      <trkpt lat="48.03876" lon="-1.57192">
        <ele>49.71223</ele>
        <time>2021-12-26T09:30:19.999Z</time>
      </trkpt>
      <trkpt lat="48.03871" lon="-1.57192">
        <ele>49.43458</ele>
        <time>2021-12-26T09:30:20.999Z</time>
      </trkpt>
      <trkpt lat="48.03865" lon="-1.57192">
        <ele>49.13502</ele>
        <time>2021-12-26T09:30:21.999Z</time>
      </trkpt>
      <trkpt lat="48.0386" lon="-1.57192">
        <ele>48.81318</ele>
        <time>2021-12-26T09:30:22.999Z</time>
      </trkpt>
      <trkpt lat="48.03854" lon="-1.57191">
        <ele>48.4285</ele>
        <time>2021-12-26T09:30:23.999Z</time>
      </trkpt>
      <trkpt lat="48.03848" lon="-1.57189">
        <ele>48.00862</ele>
        <time>2021-12-26T09:30:24.999Z</time>
      </trkpt>
      <trkpt lat="48.03841" lon="-1.57187">
        <ele>47.58209</ele>
        <time>2021-12-26T09:30:25.999Z</time>
      </trkpt>
      <trkpt lat="48.03835" lon="-1.57184">
        <ele>47.20022</ele>
        <time>2021-12-26T09:30:26.999Z</time>
      </trkpt>
      <trkpt lat="48.03828" lon="-1.5718">
        <ele>46.85238</ele>
        <time>2021-12-26T09:30:27.999Z</time>
      </trkpt>
      <trkpt lat="48.0382" lon="-1.57177">
        <ele>46.46878</ele>
        <time>2021-12-26T09:30:28.999Z</time>
      </trkpt>
      <trkpt lat="48.03813" lon="-1.57174">
        <ele>45.97896</ele>
        <time>2021-12-26T09:30:29.999Z</time>
      </trkpt>
      <trkpt lat="48.03804" lon="-1.57171">
        <ele>45.39194</ele>
        <time>2021-12-26T09:30:30.999Z</time>
      </trkpt>
      <trkpt lat="48.03796" lon="-1.57168">
        <ele>44.77953</ele>
        <time>2021-12-26T09:30:31.999Z</time>
      </trkpt>
      <trkpt lat="48.03787" lon="-1.57165">
        <ele>44.21625</ele>
        <time>2021-12-26T09:30:32.999Z</time>
      </trkpt>
      <trkpt lat="48.03778" lon="-1.57164">
        <ele>43.62015</ele>
        <time>2021-12-26T09:30:33.999Z</time>
      </trkpt>
      <trkpt lat="48.03769" lon="-1.57163">
        <ele>42.91276</ele>
        <time>2021-12-26T09:30:34.999Z</time>
      </trkpt>
      <trkpt lat="48.03759" lon="-1.57162">
        <ele>42.04025</ele>
        <time>2021-12-26T09:30:35.999Z</time>
      </trkpt>
      <trkpt lat="48.03749" lon="-1.57163">
        <ele>41.13597</ele>
        <time>2021-12-26T09:30:36.999Z</time>
      </trkpt>
      <trkpt lat="48.03739" lon="-1.57164">
        <ele>40.24605</ele>
        <time>2021-12-26T09:30:37.999Z</time>
      </trkpt>
      <trkpt lat="48.03729" lon="-1.57166">
        <ele>39.3228</ele>
        <time>2021-12-26T09:30:38.999Z</time>
      </trkpt>
      <trkpt lat="48.03718" lon="-1.57168">
        <ele>38.33677</ele>
        <time>2021-12-26T09:30:39.999Z</time>
      </trkpt>
      <trkpt lat="48.03707" lon="-1.57171">
        <ele>37.36669</ele>
        <time>2021-12-26T09:30:40.999Z</time>
      </trkpt>
      <trkpt lat="48.03696" lon="-1.57173">
        <ele>36.42354</ele>
        <time>2021-12-26T09:30:41.999Z</time>
      </trkpt>
      <trkpt lat="48.03685" lon="-1.57176">
        <ele>35.45322</ele>
        <time>2021-12-26T09:30:42.999Z</time>
      </trkpt>
      <trkpt lat="48.03673" lon="-1.57179">
        <ele>34.43743</ele>
        <time>2021-12-26T09:30:43.999Z</time>
      </trkpt>
      <trkpt lat="48.03662" lon="-1.57183">
        <ele>33.48312</ele>
        <time>2021-12-26T09:30:44.999Z</time>
      </trkpt>
      <trkpt lat="48.03651" lon="-1.57187">
        <ele>32.83412</ele>
        <time>2021-12-26T09:30:45.999Z</time>
      </trkpt>
      <trkpt lat="48.0364" lon="-1.57191">
        <ele>32.58222</ele>
        <time>2021-12-26T09:30:46.999Z</time>
      </trkpt>
      <trkpt lat="48.03629" lon="-1.57196">
        <ele>32.56605</ele>
        <time>2021-12-26T09:30:47.999Z</time>
      </trkpt>
      <trkpt lat="48.03619" lon="-1.57201">
        <ele>32.7483</ele>
        <time>2021-12-26T09:30:48.999Z</time>
      </trkpt>
      <trkpt lat="48.0361" lon="-1.57207">
        <ele>32.98172</ele>
        <time>2021-12-26T09:30:49.999Z</time>
      </trkpt>
      <trkpt lat="48.03601" lon="-1.57212">
        <ele>33.03925</ele>
        <time>2021-12-26T09:30:50.999Z</time>
      </trkpt>
      <trkpt lat="48.03592" lon="-1.57219">
        <ele>33.09421</ele>
        <time>2021-12-26T09:30:51.999Z</time>
      </trkpt>
      <trkpt lat="48.03585" lon="-1.57225">
        <ele>33.45872</ele>
        <time>2021-12-26T09:30:52.999Z</time>
      </trkpt>
      <trkpt lat="48.03578" lon="-1.57232">
        <ele>34.05768</ele>
        <time>2021-12-26T09:30:53.999Z</time>
      </trkpt>
      <trkpt lat="48.03571" lon="-1.57238">
        <ele>34.60967</ele>
        <time>2021-12-26T09:30:54.999Z</time>
      </trkpt>
      <trkpt lat="48.03565" lon="-1.57244">
        <ele>34.9617</ele>
        <time>2021-12-26T09:30:55.999Z</time>
      </trkpt>
      <trkpt lat="48.03559" lon="-1.5725">
        <ele>35.13906</ele>
        <time>2021-12-26T09:30:56.999Z</time>
      </trkpt>
      <trkpt lat="48.03553" lon="-1.57255">
        <ele>35.31205</ele>
        <time>2021-12-26T09:30:57.999Z</time>
      </trkpt>
      <trkpt lat="48.03547" lon="-1.5726">
        <ele>35.62154</ele>
        <time>2021-12-26T09:30:58.999Z</time>
      </trkpt>
      <trkpt lat="48.03542" lon="-1.57263">
        <ele>36.04851</ele>
        <time>2021-12-26T09:30:59.999Z</time>
      </trkpt>
      <trkpt lat="48.03537" lon="-1.57266">
        <ele>36.51095</ele>
        <time>2021-12-26T09:31:00.999Z</time>
      </trkpt>
      <trkpt lat="48.03533" lon="-1.57268">
        <ele>36.95404</ele>
        <time>2021-12-26T09:31:01.999Z</time>
      </trkpt>
      <trkpt lat="48.03529" lon="-1.5727">
        <ele>37.33122</ele>
        <time>2021-12-26T09:31:02.999Z</time>
      </trkpt>
      <trkpt lat="48.03525" lon="-1.57272">
        <ele>37.64792</ele>
        <time>2021-12-26T09:31:03.999Z</time>
      </trkpt>
      <trkpt lat="48.03521" lon="-1.57273">
        <ele>37.89118</ele>
        <time>2021-12-26T09:31:04.999Z</time>
      </trkpt>
      <trkpt lat="48.03518" lon="-1.57275">
        <ele>38.10968</ele>
        <time>2021-12-26T09:31:05.999Z</time>
      </trkpt>
      <trkpt lat="48.03515" lon="-1.57276">
        <ele>38.30723</ele>
        <time>2021-12-26T09:31:06.999Z</time>
      </trkpt>
      <trkpt lat="48.03512" lon="-1.57277">
        <ele>38.48417</ele>
        <time>2021-12-26T09:31:07.999Z</time>
      </trkpt>
      <trkpt lat="48.03509" lon="-1.57278">
        <ele>38.65109</ele>
        <time>2021-12-26T09:31:08.999Z</time>
      </trkpt>
      <trkpt lat="48.03506" lon="-1.5728">
        <ele>38.81386</ele>
        <time>2021-12-26T09:31:09.999Z</time>
      </trkpt>
      <trkpt lat="48.03503" lon="-1.57281">
        <ele>38.98907</ele>
        <time>2021-12-26T09:31:10.999Z</time>
      </trkpt>
      <trkpt lat="48.035" lon="-1.57282">
        <ele>39.17294</ele>
        <time>2021-12-26T09:31:11.999Z</time>
      </trkpt>
      <trkpt lat="48.03498" lon="-1.57283">
        <ele>39.37273</ele>
        <time>2021-12-26T09:31:12.999Z</time>
      </trkpt>
      <trkpt lat="48.03495" lon="-1.57284">
        <ele>39.60353</ele>
        <time>2021-12-26T09:31:13.999Z</time>
      </trkpt>
      <trkpt lat="48.03493" lon="-1.57285">
        <ele>39.8675</ele>
        <time>2021-12-26T09:31:14.999Z</time>
      </trkpt>
      <trkpt lat="48.03491" lon="-1.57286">
        <ele>40.15459</ele>
        <time>2021-12-26T09:31:15.999Z</time>
      </trkpt>
      <trkpt lat="48.03488" lon="-1.57287">
        <ele>40.4871</ele>
        <time>2021-12-26T09:31:16.999Z</time>
      </trkpt>
      <trkpt lat="48.03486" lon="-1.57288">
        <ele>40.82062</ele>
        <time>2021-12-26T09:31:17.999Z</time>
      </trkpt>
      <trkpt lat="48.03483" lon="-1.57289">
        <ele>41.17303</ele>
        <time>2021-12-26T09:31:18.999Z</time>
      </trkpt>
      <trkpt lat="48.03481" lon="-1.5729">
        <ele>41.53284</ele>
        <time>2021-12-26T09:31:19.999Z</time>
      </trkpt>
      <trkpt lat="48.03479" lon="-1.57291">
        <ele>41.83982</ele>
        <time>2021-12-26T09:31:20.999Z</time>
      </trkpt>
      <trkpt lat="48.03476" lon="-1.57292">
        <ele>42.11411</ele>
        <time>2021-12-26T09:31:21.999Z</time>
      </trkpt>
      <trkpt lat="48.03474" lon="-1.57293">
        <ele>42.37046</ele>
        <time>2021-12-26T09:31:22.999Z</time>
      </trkpt>
      <trkpt lat="48.03472" lon="-1.57294">
        <ele>42.56233</ele>
        <time>2021-12-26T09:31:23.999Z</time>
      </trkpt>
      <trkpt lat="48.0347" lon="-1.57295">
        <ele>42.74865</ele>
        <time>2021-12-26T09:31:24.999Z</time>
      </trkpt>
      <trkpt lat="48.03468" lon="-1.57296">
        <ele>42.90084</ele>
        <time>2021-12-26T09:31:25.999Z</time>
      </trkpt>
      <trkpt lat="48.03466" lon="-1.57296">
        <ele>43.03107</ele>
        <time>2021-12-26T09:31:26.999Z</time>
      </trkpt>
      <trkpt lat="48.03464" lon="-1.57297">
        <ele>43.14442</ele>
        <time>2021-12-26T09:31:27.999Z</time>
      </trkpt>
      <trkpt lat="48.03461" lon="-1.57298">
        <ele>43.24349</ele>
        <time>2021-12-26T09:31:28.999Z</time>
      </trkpt>
      <trkpt lat="48.03459" lon="-1.57299">
        <ele>43.33821</ele>
        <time>2021-12-26T09:31:29.999Z</time>
      </trkpt>
      <trkpt lat="48.03456" lon="-1.573">
        <ele>43.41975</ele>
        <time>2021-12-26T09:31:30.999Z</time>
      </trkpt>
      <trkpt lat="48.03454" lon="-1.57301">
        <ele>43.48883</ele>
        <time>2021-12-26T09:31:31.999Z</time>
      </trkpt>
      <trkpt lat="48.03451" lon="-1.57302">
        <ele>43.56158</ele>
        <time>2021-12-26T09:31:32.999Z</time>
      </trkpt>
      <trkpt lat="48.03448" lon="-1.57303">
        <ele>43.6426</ele>
        <time>2021-12-26T09:31:33.999Z</time>
      </trkpt>
      <trkpt lat="48.03446" lon="-1.57304">
        <ele>43.71067</ele>
        <time>2021-12-26T09:31:34.999Z</time>
      </trkpt>
      <trkpt lat="48.03443" lon="-1.57304">
        <ele>43.77784</ele>
        <time>2021-12-26T09:31:35.999Z</time>
      </trkpt>
      <trkpt lat="48.03441" lon="-1.57305">
        <ele>43.83379</ele>
        <time>2021-12-26T09:31:36.999Z</time>
      </trkpt>
      <trkpt lat="48.03438" lon="-1.57305">
        <ele>43.90026</ele>
        <time>2021-12-26T09:31:37.999Z</time>
      </trkpt>
      <trkpt lat="48.03436" lon="-1.57306">
        <ele>43.97082</ele>
        <time>2021-12-26T09:31:38.999Z</time>
      </trkpt>
      <trkpt lat="48.03433" lon="-1.57306">
        <ele>44.05065</ele>
        <time>2021-12-26T09:31:39.999Z</time>
      </trkpt>
      <trkpt lat="48.03431" lon="-1.57307">
        <ele>44.12206</ele>
        <time>2021-12-26T09:31:40.999Z</time>
      </trkpt>
      <trkpt lat="48.03428" lon="-1.57307">
        <ele>44.2054</ele>
        <time>2021-12-26T09:31:41.999Z</time>
      </trkpt>
      <trkpt lat="48.03426" lon="-1.57307">
        <ele>44.3026</ele>
        <time>2021-12-26T09:31:42.999Z</time>
      </trkpt>
      <trkpt lat="48.03423" lon="-1.57308">
        <ele>44.41688</ele>
        <time>2021-12-26T09:31:43.999Z</time>
      </trkpt>
      <trkpt lat="48.03421" lon="-1.57308">
        <ele>44.53361</ele>
        <time>2021-12-26T09:31:44.999Z</time>
      </trkpt>
      <trkpt lat="48.03418" lon="-1.57308">
        <ele>44.64802</ele>
        <time>2021-12-26T09:31:45.999Z</time>
      </trkpt>
      <trkpt lat="48.03416" lon="-1.57309">
        <ele>44.7644</ele>
        <time>2021-12-26T09:31:46.999Z</time>
      </trkpt>
      <trkpt lat="48.03413" lon="-1.57309">
        <ele>44.88333</ele>
        <time>2021-12-26T09:31:47.999Z</time>
      </trkpt>
      <trkpt lat="48.0341" lon="-1.57309">
        <ele>45.00154</ele>
        <time>2021-12-26T09:31:48.999Z</time>
      </trkpt>
      <trkpt lat="48.03408" lon="-1.57309">
        <ele>45.11454</ele>
        <time>2021-12-26T09:31:49.999Z</time>
      </trkpt>
      <trkpt lat="48.03405" lon="-1.5731">
        <ele>45.20285</ele>
        <time>2021-12-26T09:31:50.999Z</time>
      </trkpt>
      <trkpt lat="48.03402" lon="-1.5731">
        <ele>45.28749</ele>
        <time>2021-12-26T09:31:51.999Z</time>
      </trkpt>
      <trkpt lat="48.034" lon="-1.5731">
        <ele>45.35409</ele>
        <time>2021-12-26T09:31:52.999Z</time>
      </trkpt>
      <trkpt lat="48.03397" lon="-1.5731">
        <ele>45.41063</ele>
        <time>2021-12-26T09:31:53.999Z</time>
      </trkpt>
      <trkpt lat="48.03395" lon="-1.5731">
        <ele>45.47457</ele>
        <time>2021-12-26T09:31:54.999Z</time>
      </trkpt>
      <trkpt lat="48.03392" lon="-1.5731">
        <ele>45.52208</ele>
        <time>2021-12-26T09:31:55.999Z</time>
      </trkpt>
      <trkpt lat="48.03389" lon="-1.57309">
        <ele>45.55982</ele>
        <time>2021-12-26T09:31:56.999Z</time>
      </trkpt>
      <trkpt lat="48.03387" lon="-1.57309">
        <ele>45.59511</ele>
        <time>2021-12-26T09:31:57.999Z</time>
      </trkpt>
      <trkpt lat="48.03384" lon="-1.57309">
        <ele>45.62052</ele>
        <time>2021-12-26T09:31:58.999Z</time>
      </trkpt>
      <trkpt lat="48.03381" lon="-1.57308">
        <ele>45.64657</ele>
        <time>2021-12-26T09:31:59.999Z</time>
      </trkpt>
      <trkpt lat="48.03378" lon="-1.57307">
        <ele>45.68739</ele>
        <time>2021-12-26T09:32:00.999Z</time>
      </trkpt>
      <trkpt lat="48.03375" lon="-1.57307">
        <ele>45.76667</ele>
        <time>2021-12-26T09:32:01.999Z</time>
      </trkpt>
      <trkpt lat="48.03372" lon="-1.57307">
        <ele>45.86907</ele>
        <time>2021-12-26T09:32:02.999Z</time>
      </trkpt>
      <trkpt lat="48.03369" lon="-1.57307">
        <ele>45.97027</ele>
        <time>2021-12-26T09:32:03.999Z</time>
      </trkpt>
      <trkpt lat="48.03366" lon="-1.57308">
        <ele>46.05686</ele>
        <time>2021-12-26T09:32:04.999Z</time>
      </trkpt>
      <trkpt lat="48.03364" lon="-1.5731">
        <ele>46.08622</ele>
        <time>2021-12-26T09:32:05.999Z</time>
      </trkpt>
      <trkpt lat="48.03362" lon="-1.57311">
        <ele>46.06991</ele>
        <time>2021-12-26T09:32:06.999Z</time>
      </trkpt>
      <trkpt lat="48.03359" lon="-1.57311">
        <ele>45.96689</ele>
        <time>2021-12-26T09:32:07.999Z</time>
      </trkpt>
      <trkpt lat="48.03357" lon="-1.57312">
        <ele>45.82736</ele>
        <time>2021-12-26T09:32:08.999Z</time>
      </trkpt>
      <trkpt lat="48.03354" lon="-1.57314">
        <ele>45.65535</ele>
        <time>2021-12-26T09:32:09.999Z</time>
      </trkpt>
      <trkpt lat="48.0335" lon="-1.57315">
        <ele>45.37787</ele>
        <time>2021-12-26T09:32:10.999Z</time>
      </trkpt>
      <trkpt lat="48.03348" lon="-1.57316">
        <ele>45.10212</ele>
        <time>2021-12-26T09:32:11.999Z</time>
      </trkpt>
      <trkpt lat="48.03345" lon="-1.57317">
        <ele>44.82554</ele>
        <time>2021-12-26T09:32:12.999Z</time>
      </trkpt>
      <trkpt lat="48.03345" lon="-1.57317">
        <ele>44.82554</ele>
        <time>2021-12-26T09:32:12.999Z</time>
      </trkpt>
      <trkpt lat="48.03343" lon="-1.57318">
        <ele>44.52608</ele>
        <time>2021-12-26T09:32:13.999Z</time>
      </trkpt>
      <trkpt lat="48.03342" lon="-1.57319">
        <ele>44.20502</ele>
        <time>2021-12-26T09:32:14.999Z</time>
      </trkpt>
      <trkpt lat="48.03339" lon="-1.57318">
        <ele>43.66642</ele>
        <time>2021-12-26T09:32:15.999Z</time>
      </trkpt>
      <trkpt lat="48.03337" lon="-1.57318">
        <ele>43.19864</ele>
        <time>2021-12-26T09:32:16.999Z</time>
      </trkpt>
      <trkpt lat="48.03335" lon="-1.57318">
        <ele>42.68383</ele>
        <time>2021-12-26T09:32:17.999Z</time>
      </trkpt>
      <trkpt lat="48.03333" lon="-1.57317">
        <ele>41.95321</ele>
        <time>2021-12-26T09:32:19.999Z</time>
      </trkpt>
      <trkpt lat="48.0333" lon="-1.57315">
        <ele>40.8827</ele>
        <time>2021-12-26T09:32:23.999Z</time>
      </trkpt>
      <trkpt lat="48.03329" lon="-1.57313">
        <ele>40.23136</ele>
        <time>2021-12-26T09:32:28.999Z</time>
      </trkpt>
      <trkpt lat="48.03327" lon="-1.57312">
        <ele>39.57894</ele>
        <time>2021-12-26T09:32:30.999Z</time>
      </trkpt>
      <trkpt lat="48.03328" lon="-1.57319">
        <ele>40.1293</ele>
        <time>2021-12-26T09:32:42.999Z</time>
      </trkpt>
      <trkpt lat="48.03326" lon="-1.57325">
        <ele>39.09195</ele>
        <time>2021-12-26T09:32:53.999Z</time>
      </trkpt>
      <trkpt lat="48.03325" lon="-1.57331">
        <ele>38.74534</ele>
        <time>2021-12-26T09:32:56.999Z</time>
      </trkpt>
      <trkpt lat="48.03325" lon="-1.57341">
        <ele>38.14657</ele>
        <time>2021-12-26T09:33:18.999Z</time>
      </trkpt>
      <trkpt lat="48.03324" lon="-1.57343">
        <ele>37.69815</ele>
        <time>2021-12-26T09:33:19.999Z</time>
      </trkpt>
      <trkpt lat="48.03322" lon="-1.57349">
        <ele>36.4498</ele>
        <time>2021-12-26T09:33:22.999Z</time>
      </trkpt>
      <trkpt lat="48.0332" lon="-1.57353">
        <ele>35.00954</ele>
        <time>2021-12-26T09:33:24.999Z</time>
      </trkpt>
      <trkpt lat="48.03319" lon="-1.57359">
        <ele>34.09985</ele>
        <time>2021-12-26T09:33:36.999Z</time>
      </trkpt>
      <trkpt lat="48.03319" lon="-1.57363">
        <ele>33.94161</ele>
        <time>2021-12-26T09:33:37.999Z</time>
      </trkpt>
      <trkpt lat="48.03319" lon="-1.57367">
        <ele>33.86836</ele>
        <time>2021-12-26T09:33:38.999Z</time>
      </trkpt>
      <trkpt lat="48.03319" lon="-1.5737">
        <ele>33.89219</ele>
        <time>2021-12-26T09:33:39.999Z</time>
      </trkpt>
      <trkpt lat="48.03319" lon="-1.57373">
        <ele>33.93981</ele>
        <time>2021-12-26T09:33:40.999Z</time>
      </trkpt>
      <trkpt lat="48.0332" lon="-1.57376">
        <ele>33.92392</ele>
        <time>2021-12-26T09:33:41.999Z</time>
      </trkpt>
      <trkpt lat="48.0332" lon="-1.57382">
        <ele>33.94501</ele>
        <time>2021-12-26T09:33:42.999Z</time>
      </trkpt>
      <trkpt lat="48.0332" lon="-1.57386">
        <ele>33.74944</ele>
        <time>2021-12-26T09:33:43.999Z</time>
      </trkpt>
      <trkpt lat="48.03319" lon="-1.5739">
        <ele>33.64465</ele>
        <time>2021-12-26T09:33:44.999Z</time>
      </trkpt>
      <trkpt lat="48.03319" lon="-1.57396">
        <ele>33.62162</ele>
        <time>2021-12-26T09:33:45.999Z</time>
      </trkpt>
      <trkpt lat="48.03319" lon="-1.57402">
        <ele>33.42809</ele>
        <time>2021-12-26T09:33:46.999Z</time>
      </trkpt>
      <trkpt lat="48.03319" lon="-1.57407">
        <ele>33.19858</ele>
        <time>2021-12-26T09:33:47.999Z</time>
      </trkpt>
      <trkpt lat="48.03319" lon="-1.57411">
        <ele>33.21516</ele>
        <time>2021-12-26T09:33:48.999Z</time>
      </trkpt>
      <trkpt lat="48.03318" lon="-1.57415">
        <ele>33.09334</ele>
        <time>2021-12-26T09:33:49.999Z</time>
      </trkpt>
      <trkpt lat="48.03318" lon="-1.57419">
        <ele>33.07352</ele>
        <time>2021-12-26T09:33:50.999Z</time>
      </trkpt>
      <trkpt lat="48.03318" lon="-1.57422">
        <ele>33.2321</ele>
        <time>2021-12-26T09:33:51.999Z</time>
      </trkpt>
      <trkpt lat="48.03318" lon="-1.57425">
        <ele>33.18878</ele>
        <time>2021-12-26T09:33:52.999Z</time>
      </trkpt>
      <trkpt lat="48.03317" lon="-1.57429">
        <ele>32.8277</ele>
        <time>2021-12-26T09:33:53.999Z</time>
      </trkpt>
      <trkpt lat="48.03317" lon="-1.57432">
        <ele>32.78961</ele>
        <time>2021-12-26T09:33:54.999Z</time>
      </trkpt>
      <trkpt lat="48.03317" lon="-1.57436">
        <ele>32.84507</ele>
        <time>2021-12-26T09:33:55.999Z</time>
      </trkpt>
      <trkpt lat="48.03317" lon="-1.5744">
        <ele>32.70951</ele>
        <time>2021-12-26T09:33:56.999Z</time>
      </trkpt>
      <trkpt lat="48.03316" lon="-1.57448">
        <ele>32.45976</ele>
        <time>2021-12-26T09:33:57.999Z</time>
      </trkpt>
      <trkpt lat="48.03317" lon="-1.57451">
        <ele>33.36656</ele>
        <time>2021-12-26T09:33:58.999Z</time>
      </trkpt>
      <trkpt lat="48.03317" lon="-1.57454">
        <ele>33.24861</ele>
        <time>2021-12-26T09:33:59.999Z</time>
      </trkpt>
      <trkpt lat="48.03317" lon="-1.57458">
        <ele>33.36544</ele>
        <time>2021-12-26T09:34:00.999Z</time>
      </trkpt>
      <trkpt lat="48.03317" lon="-1.57462">
        <ele>33.29921</ele>
        <time>2021-12-26T09:34:01.999Z</time>
      </trkpt>
      <trkpt lat="48.03315" lon="-1.57468">
        <ele>32.34046</ele>
        <time>2021-12-26T09:34:02.999Z</time>
      </trkpt>
      <trkpt lat="48.03312" lon="-1.57474">
        <ele>30.83505</ele>
        <time>2021-12-26T09:34:03.999Z</time>
      </trkpt>
      <trkpt lat="48.0331" lon="-1.57478">
        <ele>29.83008</ele>
        <time>2021-12-26T09:34:04.999Z</time>
      </trkpt>
      <trkpt lat="48.03308" lon="-1.57482">
        <ele>29.35848</ele>
        <time>2021-12-26T09:34:05.999Z</time>
      </trkpt>
      <trkpt lat="48.03307" lon="-1.57484">
        <ele>29.11944</ele>
        <time>2021-12-26T09:34:06.999Z</time>
      </trkpt>
      <trkpt lat="48.03307" lon="-1.57487">
        <ele>28.99137</ele>
        <time>2021-12-26T09:34:07.999Z</time>
      </trkpt>
      <trkpt lat="48.03306" lon="-1.57491">
        <ele>28.83899</ele>
        <time>2021-12-26T09:34:08.999Z</time>
      </trkpt>
      <trkpt lat="48.03304" lon="-1.57497">
        <ele>28.52641</ele>
        <time>2021-12-26T09:34:09.999Z</time>
      </trkpt>
      <trkpt lat="48.03301" lon="-1.57504">
        <ele>28.39187</ele>
        <time>2021-12-26T09:34:10.999Z</time>
      </trkpt>
      <trkpt lat="48.03299" lon="-1.5751">
        <ele>28.42348</ele>
        <time>2021-12-26T09:34:11.999Z</time>
      </trkpt>
      <trkpt lat="48.03297" lon="-1.57515">
        <ele>28.51227</ele>
        <time>2021-12-26T09:34:12.999Z</time>
      </trkpt>
      <trkpt lat="48.03295" lon="-1.57519">
        <ele>28.55658</ele>
        <time>2021-12-26T09:34:13.999Z</time>
      </trkpt>
      <trkpt lat="48.03292" lon="-1.57522">
        <ele>28.5895</ele>
        <time>2021-12-26T09:34:14.999Z</time>
      </trkpt>
      <trkpt lat="48.0329" lon="-1.57523">
        <ele>28.57252</ele>
        <time>2021-12-26T09:34:15.999Z</time>
      </trkpt>
      <trkpt lat="48.03286" lon="-1.57522">
        <ele>28.50848</ele>
        <time>2021-12-26T09:34:16.999Z</time>
      </trkpt>
      <trkpt lat="48.03283" lon="-1.57521">
        <ele>28.42827</ele>
        <time>2021-12-26T09:34:17.999Z</time>
      </trkpt>
      <trkpt lat="48.0328" lon="-1.57521">
        <ele>28.45589</ele>
        <time>2021-12-26T09:34:18.999Z</time>
      </trkpt>
      <trkpt lat="48.03277" lon="-1.57521">
        <ele>28.5537</ele>
        <time>2021-12-26T09:34:20.999Z</time>
      </trkpt>
      <trkpt lat="48.03275" lon="-1.5752">
        <ele>28.7041</ele>
        <time>2021-12-26T09:34:21.999Z</time>
      </trkpt>
      <trkpt lat="48.03273" lon="-1.57518">
        <ele>28.87009</ele>
        <time>2021-12-26T09:34:23.999Z</time>
      </trkpt>
      <trkpt lat="48.03271" lon="-1.57514">
        <ele>29.01342</ele>
        <time>2021-12-26T09:34:25.999Z</time>
      </trkpt>
      <trkpt lat="48.0327" lon="-1.57511">
        <ele>29.13626</ele>
        <time>2021-12-26T09:34:26.999Z</time>
      </trkpt>
      <trkpt lat="48.03268" lon="-1.57511">
        <ele>29.31941</ele>
        <time>2021-12-26T09:34:27.999Z</time>
      </trkpt>
      <trkpt lat="48.03265" lon="-1.5751">
        <ele>29.51992</ele>
        <time>2021-12-26T09:34:28.999Z</time>
      </trkpt>
      <trkpt lat="48.03263" lon="-1.57509">
        <ele>29.68218</ele>
        <time>2021-12-26T09:34:29.999Z</time>
      </trkpt>
      <trkpt lat="48.03261" lon="-1.57508">
        <ele>29.85999</ele>
        <time>2021-12-26T09:34:30.999Z</time>
      </trkpt>
      <trkpt lat="48.03259" lon="-1.57507">
        <ele>30.01766</ele>
        <time>2021-12-26T09:34:31.999Z</time>
      </trkpt>
      <trkpt lat="48.03257" lon="-1.57506">
        <ele>30.17696</ele>
        <time>2021-12-26T09:34:32.999Z</time>
      </trkpt>
      <trkpt lat="48.03255" lon="-1.57505">
        <ele>30.35362</ele>
        <time>2021-12-26T09:34:33.999Z</time>
      </trkpt>
      <trkpt lat="48.03253" lon="-1.57502">
        <ele>30.59857</ele>
        <time>2021-12-26T09:34:34.999Z</time>
      </trkpt>
      <trkpt lat="48.03253" lon="-1.57502">
        <ele>30.59857</ele>
        <time>2021-12-26T09:34:34.999Z</time>
      </trkpt>
      <trkpt lat="48.0325" lon="-1.575">
        <ele>30.83748</ele>
        <time>2021-12-26T09:34:35.999Z</time>
      </trkpt>
      <trkpt lat="48.03248" lon="-1.57498">
        <ele>31.02331</ele>
        <time>2021-12-26T09:34:36.999Z</time>
      </trkpt>
      <trkpt lat="48.03246" lon="-1.57497">
        <ele>31.21102</ele>
        <time>2021-12-26T09:34:37.999Z</time>
      </trkpt>
      <trkpt lat="48.03244" lon="-1.57496">
        <ele>31.4345</ele>
        <time>2021-12-26T09:34:38.999Z</time>
      </trkpt>
      <trkpt lat="48.03242" lon="-1.57495">
        <ele>31.6391</ele>
        <time>2021-12-26T09:34:39.999Z</time>
      </trkpt>
      <trkpt lat="48.03238" lon="-1.57492">
        <ele>31.94586</ele>
        <time>2021-12-26T09:34:40.999Z</time>
      </trkpt>
      <trkpt lat="48.03236" lon="-1.57491">
        <ele>32.09706</ele>
        <time>2021-12-26T09:34:41.999Z</time>
      </trkpt>
      <trkpt lat="48.03234" lon="-1.5749">
        <ele>32.22196</ele>
        <time>2021-12-26T09:34:42.999Z</time>
      </trkpt>
      <trkpt lat="48.03231" lon="-1.57488">
        <ele>32.46955</ele>
        <time>2021-12-26T09:34:44.999Z</time>
      </trkpt>
      <trkpt lat="48.03227" lon="-1.57486">
        <ele>32.70887</ele>
        <time>2021-12-26T09:34:46.999Z</time>
      </trkpt>
      <trkpt lat="48.03225" lon="-1.57485">
        <ele>32.8455</ele>
        <time>2021-12-26T09:34:47.999Z</time>
      </trkpt>
      <trkpt lat="48.03222" lon="-1.57484">
        <ele>33.02527</ele>
        <time>2021-12-26T09:34:48.999Z</time>
      </trkpt>
      <trkpt lat="48.0322" lon="-1.57483">
        <ele>33.20164</ele>
        <time>2021-12-26T09:34:49.999Z</time>
      </trkpt>
      <trkpt lat="48.03217" lon="-1.57481">
        <ele>33.3816</ele>
        <time>2021-12-26T09:34:50.999Z</time>
      </trkpt>
      <trkpt lat="48.03215" lon="-1.57481">
        <ele>33.53704</ele>
        <time>2021-12-26T09:34:51.999Z</time>
      </trkpt>
      <trkpt lat="48.03212" lon="-1.57479">
        <ele>33.76149</ele>
        <time>2021-12-26T09:34:53.999Z</time>
      </trkpt>
      <trkpt lat="48.03209" lon="-1.57478">
        <ele>34.00425</ele>
        <time>2021-12-26T09:34:55.999Z</time>
      </trkpt>
      <trkpt lat="48.03206" lon="-1.57477">
        <ele>34.24353</ele>
        <time>2021-12-26T09:34:57.999Z</time>
      </trkpt>
      <trkpt lat="48.03204" lon="-1.57476">
        <ele>34.39388</ele>
        <time>2021-12-26T09:34:58.999Z</time>
      </trkpt>
      <trkpt lat="48.03203" lon="-1.57475">
        <ele>34.54161</ele>
        <time>2021-12-26T09:34:59.999Z</time>
      </trkpt>
      <trkpt lat="48.032" lon="-1.57474">
        <ele>34.79271</ele>
        <time>2021-12-26T09:35:01.999Z</time>
      </trkpt>
      <trkpt lat="48.03197" lon="-1.57472">
        <ele>35.06941</ele>
        <time>2021-12-26T09:35:03.999Z</time>
      </trkpt>
      <trkpt lat="48.03193" lon="-1.57469">
        <ele>35.4089</ele>
        <time>2021-12-26T09:35:06.999Z</time>
      </trkpt>
      <trkpt lat="48.0319" lon="-1.57466">
        <ele>35.6968</ele>
        <time>2021-12-26T09:35:08.999Z</time>
      </trkpt>
      <trkpt lat="48.03187" lon="-1.57465">
        <ele>35.98906</ele>
        <time>2021-12-26T09:35:10.999Z</time>
      </trkpt>
      <trkpt lat="48.03185" lon="-1.57464">
        <ele>36.1688</ele>
        <time>2021-12-26T09:35:11.999Z</time>
      </trkpt>
      <trkpt lat="48.03181" lon="-1.57462">
        <ele>36.47523</ele>
        <time>2021-12-26T09:35:13.999Z</time>
      </trkpt>
      <trkpt lat="48.03179" lon="-1.57461">
        <ele>36.63517</ele>
        <time>2021-12-26T09:35:14.999Z</time>
      </trkpt>
      <trkpt lat="48.03177" lon="-1.5746">
        <ele>36.88669</ele>
        <time>2021-12-26T09:35:16.999Z</time>
      </trkpt>
      <trkpt lat="48.03173" lon="-1.57458">
        <ele>37.15926</ele>
        <time>2021-12-26T09:35:18.999Z</time>
      </trkpt>
      <trkpt lat="48.0317" lon="-1.57457">
        <ele>37.43367</ele>
        <time>2021-12-26T09:35:20.999Z</time>
      </trkpt>
      <trkpt lat="48.03169" lon="-1.57456">
        <ele>37.58759</ele>
        <time>2021-12-26T09:35:21.999Z</time>
      </trkpt>
      <trkpt lat="48.03165" lon="-1.57455">
        <ele>37.89638</ele>
        <time>2021-12-26T09:35:22.999Z</time>
      </trkpt>
      <trkpt lat="48.03161" lon="-1.57453">
        <ele>38.25715</ele>
        <time>2021-12-26T09:35:25.999Z</time>
      </trkpt>
      <trkpt lat="48.03157" lon="-1.57451">
        <ele>38.59244</ele>
        <time>2021-12-26T09:35:28.999Z</time>
      </trkpt>
      <trkpt lat="48.0315" lon="-1.57448">
        <ele>39.11789</ele>
        <time>2021-12-26T09:35:33.999Z</time>
      </trkpt>
      <trkpt lat="48.03147" lon="-1.57447">
        <ele>39.38359</ele>
        <time>2021-12-26T09:35:35.999Z</time>
      </trkpt>
      <trkpt lat="48.03143" lon="-1.57445">
        <ele>39.74821</ele>
        <time>2021-12-26T09:35:37.999Z</time>
      </trkpt>
      <trkpt lat="48.03139" lon="-1.57445">
        <ele>39.99996</ele>
        <time>2021-12-26T09:35:39.999Z</time>
      </trkpt>
      <trkpt lat="48.03137" lon="-1.57445">
        <ele>40.14949</ele>
        <time>2021-12-26T09:35:40.999Z</time>
      </trkpt>
      <trkpt lat="48.03135" lon="-1.57445">
        <ele>40.25817</ele>
        <time>2021-12-26T09:35:41.999Z</time>
      </trkpt>
      <trkpt lat="48.03132" lon="-1.57445">
        <ele>40.40177</ele>
        <time>2021-12-26T09:35:42.999Z</time>
      </trkpt>
      <trkpt lat="48.03129" lon="-1.57444">
        <ele>40.52215</ele>
        <time>2021-12-26T09:35:43.999Z</time>
      </trkpt>
      <trkpt lat="48.03127" lon="-1.57444">
        <ele>40.5844</ele>
        <time>2021-12-26T09:35:44.999Z</time>
      </trkpt>
      <trkpt lat="48.03125" lon="-1.57443">
        <ele>40.63804</ele>
        <time>2021-12-26T09:35:45.999Z</time>
      </trkpt>
      <trkpt lat="48.03123" lon="-1.57442">
        <ele>40.67327</ele>
        <time>2021-12-26T09:35:46.999Z</time>
      </trkpt>
      <trkpt lat="48.03122" lon="-1.57441">
        <ele>40.70087</ele>
        <time>2021-12-26T09:35:47.999Z</time>
      </trkpt>
      <trkpt lat="48.03118" lon="-1.57439">
        <ele>40.72955</ele>
        <time>2021-12-26T09:35:49.999Z</time>
      </trkpt>
      <trkpt lat="48.03116" lon="-1.57438">
        <ele>40.73754</ele>
        <time>2021-12-26T09:35:50.999Z</time>
      </trkpt>
      <trkpt lat="48.03114" lon="-1.57438">
        <ele>40.74338</ele>
        <time>2021-12-26T09:35:51.999Z</time>
      </trkpt>
      <trkpt lat="48.03112" lon="-1.57437">
        <ele>40.75016</ele>
        <time>2021-12-26T09:35:52.999Z</time>
      </trkpt>
      <trkpt lat="48.03109" lon="-1.57437">
        <ele>40.77568</ele>
        <time>2021-12-26T09:35:54.999Z</time>
      </trkpt>
      <trkpt lat="48.03105" lon="-1.57437">
        <ele>40.81778</ele>
        <time>2021-12-26T09:35:57.999Z</time>
      </trkpt>
      <trkpt lat="48.03102" lon="-1.57437">
        <ele>40.84602</ele>
        <time>2021-12-26T09:35:59.999Z</time>
      </trkpt>
      <trkpt lat="48.031" lon="-1.57436">
        <ele>40.88177</ele>
        <time>2021-12-26T09:36:00.999Z</time>
      </trkpt>
      <trkpt lat="48.03097" lon="-1.57433">
        <ele>40.99224</ele>
        <time>2021-12-26T09:36:02.999Z</time>
      </trkpt>
      <trkpt lat="48.03096" lon="-1.5743">
        <ele>41.07805</ele>
        <time>2021-12-26T09:36:03.999Z</time>
      </trkpt>
      <trkpt lat="48.03096" lon="-1.57427">
        <ele>41.17062</ele>
        <time>2021-12-26T09:36:04.999Z</time>
      </trkpt>
      <trkpt lat="48.03095" lon="-1.57424">
        <ele>41.27331</ele>
        <time>2021-12-26T09:36:05.999Z</time>
      </trkpt>
      <trkpt lat="48.03094" lon="-1.57419">
        <ele>41.44183</ele>
        <time>2021-12-26T09:36:07.999Z</time>
      </trkpt>
      <trkpt lat="48.03094" lon="-1.57416">
        <ele>41.51425</ele>
        <time>2021-12-26T09:36:08.999Z</time>
      </trkpt>
      <trkpt lat="48.03093" lon="-1.57411">
        <ele>41.68842</ele>
        <time>2021-12-26T09:36:10.999Z</time>
      </trkpt>
      <trkpt lat="48.03092" lon="-1.57406">
        <ele>41.82135</ele>
        <time>2021-12-26T09:36:12.999Z</time>
      </trkpt>
      <trkpt lat="48.03091" lon="-1.57402">
        <ele>41.94929</ele>
        <time>2021-12-26T09:36:14.999Z</time>
      </trkpt>
      <trkpt lat="48.0309" lon="-1.57399">
        <ele>42.04574</ele>
        <time>2021-12-26T09:36:16.999Z</time>
      </trkpt>
      <trkpt lat="48.0309" lon="-1.57396">
        <ele>42.09603</ele>
        <time>2021-12-26T09:36:18.999Z</time>
      </trkpt>
      <trkpt lat="48.03089" lon="-1.57392">
        <ele>42.20214</ele>
        <time>2021-12-26T09:36:20.999Z</time>
      </trkpt>
      <trkpt lat="48.03088" lon="-1.57389">
        <ele>42.29738</ele>
        <time>2021-12-26T09:36:21.999Z</time>
      </trkpt>
      <trkpt lat="48.03086" lon="-1.57385">
        <ele>42.42751</ele>
        <time>2021-12-26T09:36:22.999Z</time>
      </trkpt>
      <trkpt lat="48.03085" lon="-1.57381">
        <ele>42.5263</ele>
        <time>2021-12-26T09:36:23.999Z</time>
      </trkpt>
      <trkpt lat="48.03084" lon="-1.57379">
        <ele>42.57929</ele>
        <time>2021-12-26T09:36:26.000Z</time>
      </trkpt>
      <trkpt lat="48.03083" lon="-1.57375">
        <ele>42.67984</ele>
        <time>2021-12-26T09:36:28.000Z</time>
      </trkpt>
      <trkpt lat="48.03081" lon="-1.57372">
        <ele>42.78422</ele>
        <time>2021-12-26T09:36:29.000Z</time>
      </trkpt>
      <trkpt lat="48.03079" lon="-1.57369">
        <ele>42.89061</ele>
        <time>2021-12-26T09:36:31.000Z</time>
      </trkpt>
      <trkpt lat="48.03077" lon="-1.57365">
        <ele>42.97494</ele>
        <time>2021-12-26T09:36:32.000Z</time>
      </trkpt>
      <trkpt lat="48.03075" lon="-1.57361">
        <ele>43.04564</ele>
        <time>2021-12-26T09:36:33.000Z</time>
      </trkpt>
      <trkpt lat="48.03073" lon="-1.57358">
        <ele>43.10629</ele>
        <time>2021-12-26T09:36:34.000Z</time>
      </trkpt>
      <trkpt lat="48.03071" lon="-1.57355">
        <ele>43.16885</ele>
        <time>2021-12-26T09:36:35.000Z</time>
      </trkpt>
      <trkpt lat="48.03069" lon="-1.57352">
        <ele>43.22749</ele>
        <time>2021-12-26T09:36:36.000Z</time>
      </trkpt>
      <trkpt lat="48.03067" lon="-1.57349">
        <ele>43.27415</ele>
        <time>2021-12-26T09:36:37.000Z</time>
      </trkpt>
      <trkpt lat="48.03065" lon="-1.57346">
        <ele>43.32761</ele>
        <time>2021-12-26T09:36:38.000Z</time>
      </trkpt>
      <trkpt lat="48.03063" lon="-1.57343">
        <ele>43.37641</ele>
        <time>2021-12-26T09:36:39.000Z</time>
      </trkpt>
      <trkpt lat="48.03062" lon="-1.57341">
        <ele>43.41756</ele>
        <time>2021-12-26T09:36:40.000Z</time>
      </trkpt>
      <trkpt lat="48.0306" lon="-1.57338">
        <ele>43.46066</ele>
        <time>2021-12-26T09:36:41.000Z</time>
      </trkpt>
      <trkpt lat="48.03058" lon="-1.57335">
        <ele>43.47884</ele>
        <time>2021-12-26T09:36:42.000Z</time>
      </trkpt>
      <trkpt lat="48.03057" lon="-1.57332">
        <ele>43.48753</ele>
        <time>2021-12-26T09:36:43.000Z</time>
      </trkpt>
      <trkpt lat="48.03055" lon="-1.5733">
        <ele>43.48761</ele>
        <time>2021-12-26T09:36:44.000Z</time>
      </trkpt>
      <trkpt lat="48.03053" lon="-1.57327">
        <ele>43.47809</ele>
        <time>2021-12-26T09:36:45.000Z</time>
      </trkpt>
      <trkpt lat="48.03051" lon="-1.57324">
        <ele>43.45687</ele>
        <time>2021-12-26T09:36:46.000Z</time>
      </trkpt>
      <trkpt lat="48.0305" lon="-1.57321">
        <ele>43.42381</ele>
        <time>2021-12-26T09:36:47.000Z</time>
      </trkpt>
      <trkpt lat="48.03048" lon="-1.57318">
        <ele>43.40867</ele>
        <time>2021-12-26T09:36:48.000Z</time>
      </trkpt>
      <trkpt lat="48.03046" lon="-1.57315">
        <ele>43.40402</ele>
        <time>2021-12-26T09:36:49.000Z</time>
      </trkpt>
      <trkpt lat="48.03044" lon="-1.57312">
        <ele>43.42014</ele>
        <time>2021-12-26T09:36:50.000Z</time>
      </trkpt>
      <trkpt lat="48.03043" lon="-1.5731">
        <ele>43.46286</ele>
        <time>2021-12-26T09:36:51.000Z</time>
      </trkpt>
      <trkpt lat="48.03041" lon="-1.57307">
        <ele>43.52236</ele>
        <time>2021-12-26T09:36:52.000Z</time>
      </trkpt>
      <trkpt lat="48.03039" lon="-1.57304">
        <ele>43.57558</ele>
        <time>2021-12-26T09:36:53.000Z</time>
      </trkpt>
      <trkpt lat="48.03037" lon="-1.57301">
        <ele>43.61035</ele>
        <time>2021-12-26T09:36:54.000Z</time>
      </trkpt>
      <trkpt lat="48.03036" lon="-1.57298">
        <ele>43.62531</ele>
        <time>2021-12-26T09:36:55.000Z</time>
      </trkpt>
      <trkpt lat="48.03034" lon="-1.57295">
        <ele>43.61027</ele>
        <time>2021-12-26T09:36:56.000Z</time>
      </trkpt>
      <trkpt lat="48.03032" lon="-1.57291">
        <ele>43.56982</ele>
        <time>2021-12-26T09:36:57.000Z</time>
      </trkpt>
      <trkpt lat="48.0303" lon="-1.57288">
        <ele>43.50013</ele>
        <time>2021-12-26T09:36:58.000Z</time>
      </trkpt>
      <trkpt lat="48.03028" lon="-1.57286">
        <ele>43.44467</ele>
        <time>2021-12-26T09:36:59.000Z</time>
      </trkpt>
      <trkpt lat="48.03027" lon="-1.57283">
        <ele>43.377</ele>
        <time>2021-12-26T09:37:00.000Z</time>
      </trkpt>
      <trkpt lat="48.03025" lon="-1.57279">
        <ele>43.31006</ele>
        <time>2021-12-26T09:37:01.000Z</time>
      </trkpt>
      <trkpt lat="48.03024" lon="-1.57276">
        <ele>43.27753</ele>
        <time>2021-12-26T09:37:02.000Z</time>
      </trkpt>
      <trkpt lat="48.03022" lon="-1.57273">
        <ele>43.28788</ele>
        <time>2021-12-26T09:37:03.000Z</time>
      </trkpt>
      <trkpt lat="48.03021" lon="-1.5727">
        <ele>43.32921</ele>
        <time>2021-12-26T09:37:04.000Z</time>
      </trkpt>
      <trkpt lat="48.03019" lon="-1.57267">
        <ele>43.38544</ele>
        <time>2021-12-26T09:37:05.000Z</time>
      </trkpt>
      <trkpt lat="48.03018" lon="-1.57264">
        <ele>43.45393</ele>
        <time>2021-12-26T09:37:06.000Z</time>
      </trkpt>
      <trkpt lat="48.03016" lon="-1.57261">
        <ele>43.5172</ele>
        <time>2021-12-26T09:37:07.000Z</time>
      </trkpt>
      <trkpt lat="48.03015" lon="-1.57258">
        <ele>43.55823</ele>
        <time>2021-12-26T09:37:08.000Z</time>
      </trkpt>
      <trkpt lat="48.03013" lon="-1.57254">
        <ele>43.57896</ele>
        <time>2021-12-26T09:37:09.000Z</time>
      </trkpt>
      <trkpt lat="48.03011" lon="-1.57252">
        <ele>43.58227</ele>
        <time>2021-12-26T09:37:10.000Z</time>
      </trkpt>
      <trkpt lat="48.0301" lon="-1.57249">
        <ele>43.56692</ele>
        <time>2021-12-26T09:37:11.000Z</time>
      </trkpt>
      <trkpt lat="48.03008" lon="-1.57246">
        <ele>43.53925</ele>
        <time>2021-12-26T09:37:12.000Z</time>
      </trkpt>
      <trkpt lat="48.03007" lon="-1.57243">
        <ele>43.52114</ele>
        <time>2021-12-26T09:37:13.000Z</time>
      </trkpt>
      <trkpt lat="48.03005" lon="-1.5724">
        <ele>43.51314</ele>
        <time>2021-12-26T09:37:14.000Z</time>
      </trkpt>
      <trkpt lat="48.03003" lon="-1.57238">
        <ele>43.53075</ele>
        <time>2021-12-26T09:37:15.000Z</time>
      </trkpt>
      <trkpt lat="48.03002" lon="-1.57235">
        <ele>43.55151</ele>
        <time>2021-12-26T09:37:16.000Z</time>
      </trkpt>
      <trkpt lat="48.03" lon="-1.57232">
        <ele>43.58323</ele>
        <time>2021-12-26T09:37:17.000Z</time>
      </trkpt>
      <trkpt lat="48.02999" lon="-1.57229">
        <ele>43.61979</ele>
        <time>2021-12-26T09:37:18.000Z</time>
      </trkpt>
      <trkpt lat="48.02997" lon="-1.57226">
        <ele>43.65948</ele>
        <time>2021-12-26T09:37:19.000Z</time>
      </trkpt>
      <trkpt lat="48.02996" lon="-1.57223">
        <ele>43.69685</ele>
        <time>2021-12-26T09:37:20.000Z</time>
      </trkpt>
      <trkpt lat="48.02994" lon="-1.5722">
        <ele>43.72316</ele>
        <time>2021-12-26T09:37:21.000Z</time>
      </trkpt>
      <trkpt lat="48.02993" lon="-1.57217">
        <ele>43.74524</ele>
        <time>2021-12-26T09:37:22.000Z</time>
      </trkpt>
      <trkpt lat="48.02991" lon="-1.57214">
        <ele>43.75862</ele>
        <time>2021-12-26T09:37:23.000Z</time>
      </trkpt>
      <trkpt lat="48.02991" lon="-1.57214">
        <ele>43.75862</ele>
        <time>2021-12-26T09:37:23.000Z</time>
      </trkpt>
      <trkpt lat="48.0299" lon="-1.57211">
        <ele>43.7628</ele>
        <time>2021-12-26T09:37:24.000Z</time>
      </trkpt>
      <trkpt lat="48.02988" lon="-1.57208">
        <ele>43.74816</ele>
        <time>2021-12-26T09:37:25.000Z</time>
      </trkpt>
      <trkpt lat="48.02987" lon="-1.57204">
        <ele>43.71952</ele>
        <time>2021-12-26T09:37:26.000Z</time>
      </trkpt>
      <trkpt lat="48.02987" lon="-1.572">
        <ele>43.67183</ele>
        <time>2021-12-26T09:37:27.000Z</time>
      </trkpt>
      <trkpt lat="48.02987" lon="-1.57195">
        <ele>43.60829</ele>
        <time>2021-12-26T09:37:28.000Z</time>
      </trkpt>
      <trkpt lat="48.02987" lon="-1.57191">
        <ele>43.54349</ele>
        <time>2021-12-26T09:37:29.000Z</time>
      </trkpt>
      <trkpt lat="48.02986" lon="-1.57186">
        <ele>43.47725</ele>
        <time>2021-12-26T09:37:30.000Z</time>
      </trkpt>
      <trkpt lat="48.02986" lon="-1.57182">
        <ele>43.42185</ele>
        <time>2021-12-26T09:37:31.000Z</time>
      </trkpt>
      <trkpt lat="48.02986" lon="-1.57177">
        <ele>43.36666</ele>
        <time>2021-12-26T09:37:32.000Z</time>
      </trkpt>
      <trkpt lat="48.02985" lon="-1.57172">
        <ele>43.31761</ele>
        <time>2021-12-26T09:37:33.000Z</time>
      </trkpt>
      <trkpt lat="48.02985" lon="-1.57167">
        <ele>43.2625</ele>
        <time>2021-12-26T09:37:34.000Z</time>
      </trkpt>
      <trkpt lat="48.02985" lon="-1.57162">
        <ele>43.20639</ele>
        <time>2021-12-26T09:37:35.000Z</time>
      </trkpt>
      <trkpt lat="48.02985" lon="-1.57156">
        <ele>43.14636</ele>
        <time>2021-12-26T09:37:36.000Z</time>
      </trkpt>
      <trkpt lat="48.02985" lon="-1.5715">
        <ele>43.09254</ele>
        <time>2021-12-26T09:37:37.000Z</time>
      </trkpt>
      <trkpt lat="48.02985" lon="-1.57144">
        <ele>43.03691</ele>
        <time>2021-12-26T09:37:38.000Z</time>
      </trkpt>
      <trkpt lat="48.02984" lon="-1.57138">
        <ele>42.97452</ele>
        <time>2021-12-26T09:37:39.000Z</time>
      </trkpt>
      <trkpt lat="48.02984" lon="-1.57131">
        <ele>42.89457</ele>
        <time>2021-12-26T09:37:40.000Z</time>
      </trkpt>
      <trkpt lat="48.02984" lon="-1.57125">
        <ele>42.81531</ele>
        <time>2021-12-26T09:37:41.000Z</time>
      </trkpt>
      <trkpt lat="48.02983" lon="-1.57118">
        <ele>42.73819</ele>
        <time>2021-12-26T09:37:42.000Z</time>
      </trkpt>
      <trkpt lat="48.02983" lon="-1.57111">
        <ele>42.66138</ele>
        <time>2021-12-26T09:37:43.000Z</time>
      </trkpt>
      <trkpt lat="48.02983" lon="-1.57103">
        <ele>42.59591</ele>
        <time>2021-12-26T09:37:44.000Z</time>
      </trkpt>
      <trkpt lat="48.02982" lon="-1.57096">
        <ele>42.55464</ele>
        <time>2021-12-26T09:37:45.000Z</time>
      </trkpt>
      <trkpt lat="48.02982" lon="-1.57089">
        <ele>42.51814</ele>
        <time>2021-12-26T09:37:46.000Z</time>
      </trkpt>
      <trkpt lat="48.02982" lon="-1.57081">
        <ele>42.48142</ele>
        <time>2021-12-26T09:37:47.000Z</time>
      </trkpt>
      <trkpt lat="48.02982" lon="-1.57074">
        <ele>42.44306</ele>
        <time>2021-12-26T09:37:48.000Z</time>
      </trkpt>
      <trkpt lat="48.02981" lon="-1.57066">
        <ele>42.41564</ele>
        <time>2021-12-26T09:37:49.000Z</time>
      </trkpt>
      <trkpt lat="48.02981" lon="-1.57058">
        <ele>42.40686</ele>
        <time>2021-12-26T09:37:50.000Z</time>
      </trkpt>
      <trkpt lat="48.02981" lon="-1.57049">
        <ele>42.39001</ele>
        <time>2021-12-26T09:37:51.000Z</time>
      </trkpt>
      <trkpt lat="48.02981" lon="-1.57041">
        <ele>42.36596</ele>
        <time>2021-12-26T09:37:52.000Z</time>
      </trkpt>
      <trkpt lat="48.0298" lon="-1.57034">
        <ele>42.36948</ele>
        <time>2021-12-26T09:37:53.000Z</time>
      </trkpt>
      <trkpt lat="48.0298" lon="-1.57026">
        <ele>42.313</ele>
        <time>2021-12-26T09:37:54.000Z</time>
      </trkpt>
      <trkpt lat="48.0298" lon="-1.57019">
        <ele>42.22258</ele>
        <time>2021-12-26T09:37:55.000Z</time>
      </trkpt>
      <trkpt lat="48.02979" lon="-1.57012">
        <ele>42.15733</ele>
        <time>2021-12-26T09:37:56.000Z</time>
      </trkpt>
      <trkpt lat="48.02979" lon="-1.57004">
        <ele>42.11705</ele>
        <time>2021-12-26T09:37:57.000Z</time>
      </trkpt>
      <trkpt lat="48.0298" lon="-1.56997">
        <ele>42.08042</ele>
        <time>2021-12-26T09:37:58.000Z</time>
      </trkpt>
      <trkpt lat="48.0298" lon="-1.56989">
        <ele>42.08396</ele>
        <time>2021-12-26T09:37:59.000Z</time>
      </trkpt>
      <trkpt lat="48.0298" lon="-1.56981">
        <ele>42.11909</ele>
        <time>2021-12-26T09:38:00.000Z</time>
      </trkpt>
      <trkpt lat="48.0298" lon="-1.56974">
        <ele>42.14512</ele>
        <time>2021-12-26T09:38:01.000Z</time>
      </trkpt>
      <trkpt lat="48.0298" lon="-1.56966">
        <ele>42.12889</ele>
        <time>2021-12-26T09:38:02.000Z</time>
      </trkpt>
      <trkpt lat="48.02981" lon="-1.56958">
        <ele>42.10333</ele>
        <time>2021-12-26T09:38:03.000Z</time>
      </trkpt>
      <trkpt lat="48.02981" lon="-1.56951">
        <ele>42.08403</ele>
        <time>2021-12-26T09:38:04.000Z</time>
      </trkpt>
      <trkpt lat="48.02981" lon="-1.56944">
        <ele>42.0652</ele>
        <time>2021-12-26T09:38:05.000Z</time>
      </trkpt>
      <trkpt lat="48.02982" lon="-1.56937">
        <ele>42.03069</ele>
        <time>2021-12-26T09:38:06.000Z</time>
      </trkpt>
      <trkpt lat="48.02982" lon="-1.5693">
        <ele>42.01488</ele>
        <time>2021-12-26T09:38:07.000Z</time>
      </trkpt>
      <trkpt lat="48.02983" lon="-1.56923">
        <ele>42.00564</ele>
        <time>2021-12-26T09:38:08.000Z</time>
      </trkpt>
      <trkpt lat="48.02983" lon="-1.56916">
        <ele>42.0152</ele>
        <time>2021-12-26T09:38:09.000Z</time>
      </trkpt>
      <trkpt lat="48.02983" lon="-1.56909">
        <ele>42.01855</ele>
        <time>2021-12-26T09:38:10.000Z</time>
      </trkpt>
      <trkpt lat="48.02983" lon="-1.56902">
        <ele>42.02559</ele>
        <time>2021-12-26T09:38:11.000Z</time>
      </trkpt>
      <trkpt lat="48.02983" lon="-1.56894">
        <ele>42.0288</ele>
        <time>2021-12-26T09:38:12.000Z</time>
      </trkpt>
      <trkpt lat="48.02983" lon="-1.56887">
        <ele>42.03406</ele>
        <time>2021-12-26T09:38:13.000Z</time>
      </trkpt>
      <trkpt lat="48.02984" lon="-1.5688">
        <ele>42.04464</ele>
        <time>2021-12-26T09:38:14.000Z</time>
      </trkpt>
      <trkpt lat="48.02984" lon="-1.56873">
        <ele>42.06929</ele>
        <time>2021-12-26T09:38:15.000Z</time>
      </trkpt>
      <trkpt lat="48.02984" lon="-1.56866">
        <ele>42.11488</ele>
        <time>2021-12-26T09:38:16.000Z</time>
      </trkpt>
      <trkpt lat="48.02985" lon="-1.56859">
        <ele>42.19083</ele>
        <time>2021-12-26T09:38:17.000Z</time>
      </trkpt>
      <trkpt lat="48.02985" lon="-1.56851">
        <ele>42.27983</ele>
        <time>2021-12-26T09:38:18.000Z</time>
      </trkpt>
      <trkpt lat="48.02985" lon="-1.56845">
        <ele>42.3615</ele>
        <time>2021-12-26T09:38:19.000Z</time>
      </trkpt>
      <trkpt lat="48.02985" lon="-1.56838">
        <ele>42.41639</ele>
        <time>2021-12-26T09:38:20.000Z</time>
      </trkpt>
      <trkpt lat="48.02985" lon="-1.56831">
        <ele>42.4352</ele>
        <time>2021-12-26T09:38:21.000Z</time>
      </trkpt>
      <trkpt lat="48.02985" lon="-1.56824">
        <ele>42.42989</ele>
        <time>2021-12-26T09:38:22.000Z</time>
      </trkpt>
      <trkpt lat="48.02984" lon="-1.56817">
        <ele>42.41596</ele>
        <time>2021-12-26T09:38:23.000Z</time>
      </trkpt>
      <trkpt lat="48.02984" lon="-1.56811">
        <ele>42.4038</ele>
        <time>2021-12-26T09:38:24.000Z</time>
      </trkpt>
      <trkpt lat="48.02984" lon="-1.56804">
        <ele>42.40447</ele>
        <time>2021-12-26T09:38:25.000Z</time>
      </trkpt>
      <trkpt lat="48.02984" lon="-1.56797">
        <ele>42.4148</ele>
        <time>2021-12-26T09:38:26.000Z</time>
      </trkpt>
      <trkpt lat="48.02985" lon="-1.5679">
        <ele>42.42701</ele>
        <time>2021-12-26T09:38:27.000Z</time>
      </trkpt>
      <trkpt lat="48.02987" lon="-1.56783">
        <ele>42.44864</ele>
        <time>2021-12-26T09:38:28.000Z</time>
      </trkpt>
      <trkpt lat="48.0299" lon="-1.56778">
        <ele>42.47945</ele>
        <time>2021-12-26T09:38:29.000Z</time>
      </trkpt>
      <trkpt lat="48.0299" lon="-1.56778">
        <ele>42.47945</ele>
        <time>2021-12-26T09:38:29.000Z</time>
      </trkpt>
      <trkpt lat="48.02995" lon="-1.56775">
        <ele>42.49318</ele>
        <time>2021-12-26T09:38:30.000Z</time>
      </trkpt>
      <trkpt lat="48.02999" lon="-1.56774">
        <ele>42.45503</ele>
        <time>2021-12-26T09:38:31.000Z</time>
      </trkpt>
      <trkpt lat="48.03004" lon="-1.56773">
        <ele>42.36216</ele>
        <time>2021-12-26T09:38:32.000Z</time>
      </trkpt>
      <trkpt lat="48.0301" lon="-1.56773">
        <ele>42.23367</ele>
        <time>2021-12-26T09:38:33.000Z</time>
      </trkpt>
      <trkpt lat="48.03015" lon="-1.56774">
        <ele>42.07535</ele>
        <time>2021-12-26T09:38:34.000Z</time>
      </trkpt>
      <trkpt lat="48.0302" lon="-1.56774">
        <ele>41.89982</ele>
        <time>2021-12-26T09:38:35.000Z</time>
      </trkpt>
      <trkpt lat="48.03026" lon="-1.56774">
        <ele>41.70771</ele>
        <time>2021-12-26T09:38:36.000Z</time>
      </trkpt>
      <trkpt lat="48.03031" lon="-1.56774">
        <ele>41.49879</ele>
        <time>2021-12-26T09:38:37.000Z</time>
      </trkpt>
      <trkpt lat="48.03036" lon="-1.56774">
        <ele>41.26876</ele>
        <time>2021-12-26T09:38:38.000Z</time>
      </trkpt>
      <trkpt lat="48.03042" lon="-1.56774">
        <ele>41.0402</ele>
        <time>2021-12-26T09:38:39.000Z</time>
      </trkpt>
      <trkpt lat="48.03048" lon="-1.56774">
        <ele>40.82513</ele>
        <time>2021-12-26T09:38:40.000Z</time>
      </trkpt>
      <trkpt lat="48.03054" lon="-1.56775">
        <ele>40.60838</ele>
        <time>2021-12-26T09:38:41.000Z</time>
      </trkpt>
      <trkpt lat="48.0306" lon="-1.56775">
        <ele>40.39457</ele>
        <time>2021-12-26T09:38:42.000Z</time>
      </trkpt>
      <trkpt lat="48.03066" lon="-1.56775">
        <ele>40.19554</ele>
        <time>2021-12-26T09:38:43.000Z</time>
      </trkpt>
      <trkpt lat="48.03072" lon="-1.56775">
        <ele>40.01957</ele>
        <time>2021-12-26T09:38:44.000Z</time>
      </trkpt>
      <trkpt lat="48.03079" lon="-1.56776">
        <ele>39.86179</ele>
        <time>2021-12-26T09:38:45.000Z</time>
      </trkpt>
      <trkpt lat="48.03085" lon="-1.56776">
        <ele>39.70169</ele>
        <time>2021-12-26T09:38:46.000Z</time>
      </trkpt>
      <trkpt lat="48.03091" lon="-1.56776">
        <ele>39.52247</ele>
        <time>2021-12-26T09:38:47.000Z</time>
      </trkpt>
      <trkpt lat="48.03097" lon="-1.56776">
        <ele>39.32218</ele>
        <time>2021-12-26T09:38:48.000Z</time>
      </trkpt>
      <trkpt lat="48.03103" lon="-1.56776">
        <ele>39.11633</ele>
        <time>2021-12-26T09:38:49.000Z</time>
      </trkpt>
      <trkpt lat="48.03109" lon="-1.56776">
        <ele>38.92688</ele>
        <time>2021-12-26T09:38:50.000Z</time>
      </trkpt>
      <trkpt lat="48.03115" lon="-1.56776">
        <ele>38.76586</ele>
        <time>2021-12-26T09:38:51.000Z</time>
      </trkpt>
      <trkpt lat="48.03121" lon="-1.56776">
        <ele>38.61835</ele>
        <time>2021-12-26T09:38:52.000Z</time>
      </trkpt>
      <trkpt lat="48.03127" lon="-1.56776">
        <ele>38.48227</ele>
        <time>2021-12-26T09:38:53.000Z</time>
      </trkpt>
      <trkpt lat="48.03132" lon="-1.56776">
        <ele>38.36175</ele>
        <time>2021-12-26T09:38:54.000Z</time>
      </trkpt>
      <trkpt lat="48.03138" lon="-1.56776">
        <ele>38.26571</ele>
        <time>2021-12-26T09:38:55.000Z</time>
      </trkpt>
      <trkpt lat="48.03144" lon="-1.56777">
        <ele>38.19412</ele>
        <time>2021-12-26T09:38:56.000Z</time>
      </trkpt>
      <trkpt lat="48.0315" lon="-1.56777">
        <ele>38.12163</ele>
        <time>2021-12-26T09:38:57.000Z</time>
      </trkpt>
      <trkpt lat="48.03156" lon="-1.56777">
        <ele>38.01816</ele>
        <time>2021-12-26T09:38:58.000Z</time>
      </trkpt>
      <trkpt lat="48.03162" lon="-1.56777">
        <ele>37.88103</ele>
        <time>2021-12-26T09:38:59.000Z</time>
      </trkpt>
      <trkpt lat="48.03168" lon="-1.56777">
        <ele>37.72693</ele>
        <time>2021-12-26T09:39:00.000Z</time>
      </trkpt>
      <trkpt lat="48.03174" lon="-1.56777">
        <ele>37.54897</ele>
        <time>2021-12-26T09:39:01.000Z</time>
      </trkpt>
      <trkpt lat="48.0318" lon="-1.56776">
        <ele>37.35047</ele>
        <time>2021-12-26T09:39:02.000Z</time>
      </trkpt>
      <trkpt lat="48.03186" lon="-1.56775">
        <ele>37.07041</ele>
        <time>2021-12-26T09:39:03.000Z</time>
      </trkpt>
      <trkpt lat="48.03193" lon="-1.56774">
        <ele>36.77179</ele>
        <time>2021-12-26T09:39:04.000Z</time>
      </trkpt>
      <trkpt lat="48.03199" lon="-1.56773">
        <ele>36.59411</ele>
        <time>2021-12-26T09:39:05.000Z</time>
      </trkpt>
      <trkpt lat="48.03206" lon="-1.56771">
        <ele>36.6794</ele>
        <time>2021-12-26T09:39:06.000Z</time>
      </trkpt>
      <trkpt lat="48.03212" lon="-1.5677">
        <ele>36.98033</ele>
        <time>2021-12-26T09:39:07.000Z</time>
      </trkpt>
      <trkpt lat="48.03217" lon="-1.56768">
        <ele>37.3658</ele>
        <time>2021-12-26T09:39:08.000Z</time>
      </trkpt>
      <trkpt lat="48.03223" lon="-1.56766">
        <ele>37.73469</ele>
        <time>2021-12-26T09:39:09.000Z</time>
      </trkpt>
      <trkpt lat="48.03227" lon="-1.56764">
        <ele>38.0191</ele>
        <time>2021-12-26T09:39:10.000Z</time>
      </trkpt>
      <trkpt lat="48.03232" lon="-1.56762">
        <ele>38.27431</ele>
        <time>2021-12-26T09:39:11.000Z</time>
      </trkpt>
      <trkpt lat="48.03236" lon="-1.5676">
        <ele>38.51353</ele>
        <time>2021-12-26T09:39:12.000Z</time>
      </trkpt>
      <trkpt lat="48.03241" lon="-1.56759">
        <ele>38.7374</ele>
        <time>2021-12-26T09:39:13.000Z</time>
      </trkpt>
      <trkpt lat="48.03245" lon="-1.56757">
        <ele>38.94814</ele>
        <time>2021-12-26T09:39:14.000Z</time>
      </trkpt>
      <trkpt lat="48.03249" lon="-1.56756">
        <ele>39.15383</ele>
        <time>2021-12-26T09:39:15.000Z</time>
      </trkpt>
      <trkpt lat="48.03254" lon="-1.56753">
        <ele>39.35811</ele>
        <time>2021-12-26T09:39:16.000Z</time>
      </trkpt>
      <trkpt lat="48.03258" lon="-1.56751">
        <ele>39.55298</ele>
        <time>2021-12-26T09:39:17.000Z</time>
      </trkpt>
      <trkpt lat="48.03262" lon="-1.56749">
        <ele>39.73426</ele>
        <time>2021-12-26T09:39:18.000Z</time>
      </trkpt>
      <trkpt lat="48.03266" lon="-1.56748">
        <ele>39.89209</ele>
        <time>2021-12-26T09:39:19.000Z</time>
      </trkpt>
      <trkpt lat="48.0327" lon="-1.56746">
        <ele>40.04063</ele>
        <time>2021-12-26T09:39:20.000Z</time>
      </trkpt>
      <trkpt lat="48.03273" lon="-1.56745">
        <ele>40.17045</ele>
        <time>2021-12-26T09:39:21.000Z</time>
      </trkpt>
      <trkpt lat="48.03277" lon="-1.56743">
        <ele>40.31886</ele>
        <time>2021-12-26T09:39:22.000Z</time>
      </trkpt>
      <trkpt lat="48.03281" lon="-1.56741">
        <ele>40.47616</ele>
        <time>2021-12-26T09:39:23.000Z</time>
      </trkpt>
      <trkpt lat="48.03285" lon="-1.56739">
        <ele>40.61926</ele>
        <time>2021-12-26T09:39:24.000Z</time>
      </trkpt>
      <trkpt lat="48.03288" lon="-1.56738">
        <ele>40.73051</ele>
        <time>2021-12-26T09:39:25.000Z</time>
      </trkpt>
      <trkpt lat="48.03292" lon="-1.56736">
        <ele>40.83722</ele>
        <time>2021-12-26T09:39:26.000Z</time>
      </trkpt>
      <trkpt lat="48.03292" lon="-1.56736">
        <ele>40.83722</ele>
        <time>2021-12-26T09:39:26.000Z</time>
      </trkpt>
      <trkpt lat="48.03295" lon="-1.56733">
        <ele>40.93095</ele>
        <time>2021-12-26T09:39:27.000Z</time>
      </trkpt>
      <trkpt lat="48.03299" lon="-1.5673">
        <ele>41.00611</ele>
        <time>2021-12-26T09:39:28.000Z</time>
      </trkpt>
      <trkpt lat="48.03302" lon="-1.56727">
        <ele>41.06051</ele>
        <time>2021-12-26T09:39:29.000Z</time>
      </trkpt>
      <trkpt lat="48.03306" lon="-1.56724">
        <ele>41.08791</ele>
        <time>2021-12-26T09:39:30.000Z</time>
      </trkpt>
      <trkpt lat="48.03309" lon="-1.56721">
        <ele>41.09304</ele>
        <time>2021-12-26T09:39:31.000Z</time>
      </trkpt>
      <trkpt lat="48.03313" lon="-1.56717">
        <ele>41.08485</ele>
        <time>2021-12-26T09:39:32.000Z</time>
      </trkpt>
      <trkpt lat="48.03317" lon="-1.56714">
        <ele>41.06278</ele>
        <time>2021-12-26T09:39:33.000Z</time>
      </trkpt>
      <trkpt lat="48.03321" lon="-1.56711">
        <ele>41.03914</ele>
        <time>2021-12-26T09:39:34.000Z</time>
      </trkpt>
      <trkpt lat="48.03324" lon="-1.56707">
        <ele>41.0059</ele>
        <time>2021-12-26T09:39:35.000Z</time>
      </trkpt>
      <trkpt lat="48.03328" lon="-1.56703">
        <ele>40.95598</ele>
        <time>2021-12-26T09:39:36.000Z</time>
      </trkpt>
      <trkpt lat="48.03332" lon="-1.567">
        <ele>40.89152</ele>
        <time>2021-12-26T09:39:37.000Z</time>
      </trkpt>
      <trkpt lat="48.03335" lon="-1.56696">
        <ele>40.84299</ele>
        <time>2021-12-26T09:39:38.000Z</time>
      </trkpt>
      <trkpt lat="48.03338" lon="-1.56691">
        <ele>40.81331</ele>
        <time>2021-12-26T09:39:39.000Z</time>
      </trkpt>
      <trkpt lat="48.03342" lon="-1.56687">
        <ele>40.78332</ele>
        <time>2021-12-26T09:39:40.000Z</time>
      </trkpt>
      <trkpt lat="48.03345" lon="-1.56683">
        <ele>40.76217</ele>
        <time>2021-12-26T09:39:41.000Z</time>
      </trkpt>
      <trkpt lat="48.03348" lon="-1.56678">
        <ele>40.76918</ele>
        <time>2021-12-26T09:39:42.000Z</time>
      </trkpt>
      <trkpt lat="48.03351" lon="-1.56673">
        <ele>40.7899</ele>
        <time>2021-12-26T09:39:43.000Z</time>
      </trkpt>
      <trkpt lat="48.03354" lon="-1.56669">
        <ele>40.79653</ele>
        <time>2021-12-26T09:39:44.000Z</time>
      </trkpt>
      <trkpt lat="48.03358" lon="-1.56664">
        <ele>40.76453</ele>
        <time>2021-12-26T09:39:45.000Z</time>
      </trkpt>
      <trkpt lat="48.03361" lon="-1.56659">
        <ele>40.66506</ele>
        <time>2021-12-26T09:39:46.000Z</time>
      </trkpt>
      <trkpt lat="48.03365" lon="-1.56654">
        <ele>40.50299</ele>
        <time>2021-12-26T09:39:47.000Z</time>
      </trkpt>
      <trkpt lat="48.03369" lon="-1.56649">
        <ele>40.30881</ele>
        <time>2021-12-26T09:39:48.000Z</time>
      </trkpt>
      <trkpt lat="48.03373" lon="-1.56645">
        <ele>40.12695</ele>
        <time>2021-12-26T09:39:49.000Z</time>
      </trkpt>
      <trkpt lat="48.03377" lon="-1.5664">
        <ele>39.98767</ele>
        <time>2021-12-26T09:39:50.000Z</time>
      </trkpt>
      <trkpt lat="48.03381" lon="-1.56636">
        <ele>39.89614</ele>
        <time>2021-12-26T09:39:51.000Z</time>
      </trkpt>
      <trkpt lat="48.03385" lon="-1.56632">
        <ele>39.83541</ele>
        <time>2021-12-26T09:39:52.000Z</time>
      </trkpt>
      <trkpt lat="48.03389" lon="-1.56628">
        <ele>39.80384</ele>
        <time>2021-12-26T09:39:53.000Z</time>
      </trkpt>
      <trkpt lat="48.03394" lon="-1.56624">
        <ele>39.71819</ele>
        <time>2021-12-26T09:39:54.000Z</time>
      </trkpt>
      <trkpt lat="48.03398" lon="-1.5662">
        <ele>39.61208</ele>
        <time>2021-12-26T09:39:55.000Z</time>
      </trkpt>
      <trkpt lat="48.03403" lon="-1.56617">
        <ele>39.50187</ele>
        <time>2021-12-26T09:39:56.000Z</time>
      </trkpt>
      <trkpt lat="48.03408" lon="-1.56613">
        <ele>39.39739</ele>
        <time>2021-12-26T09:39:57.000Z</time>
      </trkpt>
      <trkpt lat="48.03412" lon="-1.56609">
        <ele>39.30451</ele>
        <time>2021-12-26T09:39:58.000Z</time>
      </trkpt>
      <trkpt lat="48.03418" lon="-1.56607">
        <ele>39.20591</ele>
        <time>2021-12-26T09:39:59.000Z</time>
      </trkpt>
      <trkpt lat="48.03423" lon="-1.56604">
        <ele>39.13179</ele>
        <time>2021-12-26T09:40:00.000Z</time>
      </trkpt>
      <trkpt lat="48.03428" lon="-1.56601">
        <ele>39.07876</ele>
        <time>2021-12-26T09:40:01.000Z</time>
      </trkpt>
      <trkpt lat="48.03433" lon="-1.56599">
        <ele>39.00656</ele>
        <time>2021-12-26T09:40:02.000Z</time>
      </trkpt>
      <trkpt lat="48.03438" lon="-1.56598">
        <ele>38.93277</ele>
        <time>2021-12-26T09:40:03.000Z</time>
      </trkpt>
      <trkpt lat="48.03443" lon="-1.56596">
        <ele>38.85653</ele>
        <time>2021-12-26T09:40:04.000Z</time>
      </trkpt>
      <trkpt lat="48.03448" lon="-1.56594">
        <ele>38.78033</ele>
        <time>2021-12-26T09:40:05.000Z</time>
      </trkpt>
      <trkpt lat="48.03452" lon="-1.56589">
        <ele>38.76278</ele>
        <time>2021-12-26T09:40:06.000Z</time>
      </trkpt>
      <trkpt lat="48.03456" lon="-1.56585">
        <ele>38.73004</ele>
        <time>2021-12-26T09:40:07.000Z</time>
      </trkpt>
      <trkpt lat="48.03457" lon="-1.56579">
        <ele>38.81122</ele>
        <time>2021-12-26T09:40:08.000Z</time>
      </trkpt>
      <trkpt lat="48.03458" lon="-1.56572">
        <ele>38.9219</ele>
        <time>2021-12-26T09:40:09.000Z</time>
      </trkpt>
      <trkpt lat="48.03458" lon="-1.56566">
        <ele>39.04636</ele>
        <time>2021-12-26T09:40:10.000Z</time>
      </trkpt>
      <trkpt lat="48.03457" lon="-1.56559">
        <ele>39.18142</ele>
        <time>2021-12-26T09:40:11.000Z</time>
      </trkpt>
      <trkpt lat="48.03457" lon="-1.56552">
        <ele>39.31915</ele>
        <time>2021-12-26T09:40:12.000Z</time>
      </trkpt>
      <trkpt lat="48.03456" lon="-1.56546">
        <ele>39.4478</ele>
        <time>2021-12-26T09:40:13.000Z</time>
      </trkpt>
      <trkpt lat="48.03456" lon="-1.56539">
        <ele>39.57829</ele>
        <time>2021-12-26T09:40:14.000Z</time>
      </trkpt>
      <trkpt lat="48.03455" lon="-1.56533">
        <ele>39.72279</ele>
        <time>2021-12-26T09:40:15.000Z</time>
      </trkpt>
      <trkpt lat="48.03455" lon="-1.56526">
        <ele>39.86141</ele>
        <time>2021-12-26T09:40:16.000Z</time>
      </trkpt>
      <trkpt lat="48.03456" lon="-1.5652">
        <ele>39.98764</ele>
        <time>2021-12-26T09:40:17.000Z</time>
      </trkpt>
      <trkpt lat="48.03456" lon="-1.56513">
        <ele>40.09191</ele>
        <time>2021-12-26T09:40:18.000Z</time>
      </trkpt>
      <trkpt lat="48.03457" lon="-1.56507">
        <ele>40.15563</ele>
        <time>2021-12-26T09:40:19.000Z</time>
      </trkpt>
      <trkpt lat="48.03458" lon="-1.56501">
        <ele>40.16642</ele>
        <time>2021-12-26T09:40:20.000Z</time>
      </trkpt>
      <trkpt lat="48.0346" lon="-1.56495">
        <ele>40.14167</ele>
        <time>2021-12-26T09:40:21.000Z</time>
      </trkpt>
      <trkpt lat="48.03462" lon="-1.56489">
        <ele>40.09124</ele>
        <time>2021-12-26T09:40:22.000Z</time>
      </trkpt>
      <trkpt lat="48.03464" lon="-1.56483">
        <ele>40.04105</ele>
        <time>2021-12-26T09:40:23.000Z</time>
      </trkpt>
      <trkpt lat="48.03466" lon="-1.56477">
        <ele>39.99179</ele>
        <time>2021-12-26T09:40:24.000Z</time>
      </trkpt>
      <trkpt lat="48.03468" lon="-1.56472">
        <ele>39.95287</ele>
        <time>2021-12-26T09:40:25.000Z</time>
      </trkpt>
      <trkpt lat="48.0347" lon="-1.56466">
        <ele>39.90928</ele>
        <time>2021-12-26T09:40:26.000Z</time>
      </trkpt>
      <trkpt lat="48.03472" lon="-1.56461">
        <ele>39.8632</ele>
        <time>2021-12-26T09:40:27.000Z</time>
      </trkpt>
      <trkpt lat="48.03475" lon="-1.56456">
        <ele>39.793</ele>
        <time>2021-12-26T09:40:28.000Z</time>
      </trkpt>
      <trkpt lat="48.03477" lon="-1.56451">
        <ele>39.69565</ele>
        <time>2021-12-26T09:40:29.000Z</time>
      </trkpt>
      <trkpt lat="48.0348" lon="-1.56446">
        <ele>39.58289</ele>
        <time>2021-12-26T09:40:30.000Z</time>
      </trkpt>
      <trkpt lat="48.03482" lon="-1.56441">
        <ele>39.45367</ele>
        <time>2021-12-26T09:40:31.000Z</time>
      </trkpt>
      <trkpt lat="48.03485" lon="-1.56436">
        <ele>39.27883</ele>
        <time>2021-12-26T09:40:32.000Z</time>
      </trkpt>
      <trkpt lat="48.03487" lon="-1.5643">
        <ele>39.05954</ele>
        <time>2021-12-26T09:40:33.000Z</time>
      </trkpt>
      <trkpt lat="48.03489" lon="-1.56426">
        <ele>38.83372</ele>
        <time>2021-12-26T09:40:34.000Z</time>
      </trkpt>
      <trkpt lat="48.0349" lon="-1.56423">
        <ele>38.6679</ele>
        <time>2021-12-26T09:40:35.000Z</time>
      </trkpt>
      <trkpt lat="48.03492" lon="-1.56419">
        <ele>38.47593</ele>
        <time>2021-12-26T09:40:37.000Z</time>
      </trkpt>
      <trkpt lat="48.03493" lon="-1.56416">
        <ele>38.31822</ele>
        <time>2021-12-26T09:40:39.000Z</time>
      </trkpt>
      <trkpt lat="48.03494" lon="-1.56413">
        <ele>38.17299</ele>
        <time>2021-12-26T09:40:41.000Z</time>
      </trkpt>
      <trkpt lat="48.03497" lon="-1.56411">
        <ele>37.91027</ele>
        <time>2021-12-26T09:40:51.000Z</time>
      </trkpt>
      <trkpt lat="48.03499" lon="-1.56409">
        <ele>37.69184</ele>
        <time>2021-12-26T09:40:52.000Z</time>
      </trkpt>
      <trkpt lat="48.035" lon="-1.56408">
        <ele>37.51829</ele>
        <time>2021-12-26T09:40:53.000Z</time>
      </trkpt>
      <trkpt lat="48.03503" lon="-1.56406">
        <ele>37.26251</ele>
        <time>2021-12-26T09:40:55.000Z</time>
      </trkpt>
      <trkpt lat="48.03503" lon="-1.56406">
        <ele>37.26251</ele>
        <time>2021-12-26T09:40:55.000Z</time>
      </trkpt>
      <trkpt lat="48.03505" lon="-1.56404">
        <ele>37.04785</ele>
        <time>2021-12-26T09:40:57.000Z</time>
      </trkpt>
      <trkpt lat="48.03507" lon="-1.56402">
        <ele>36.87383</ele>
        <time>2021-12-26T09:40:59.000Z</time>
      </trkpt>
      <trkpt lat="48.03514" lon="-1.56402">
        <ele>36.34247</ele>
        <time>2021-12-26T09:41:13.000Z</time>
      </trkpt>
      <trkpt lat="48.03521" lon="-1.56403">
        <ele>35.84274</ele>
        <time>2021-12-26T09:41:23.000Z</time>
      </trkpt>
      <trkpt lat="48.03525" lon="-1.56408">
        <ele>35.56641</ele>
        <time>2021-12-26T09:41:27.000Z</time>
      </trkpt>
      <trkpt lat="48.0353" lon="-1.56412">
        <ele>35.31441</ele>
        <time>2021-12-26T09:41:32.000Z</time>
      </trkpt>
      <trkpt lat="48.03535" lon="-1.56417">
        <ele>35.06017</ele>
        <time>2021-12-26T09:41:36.000Z</time>
      </trkpt>
      <trkpt lat="48.03541" lon="-1.56423">
        <ele>34.68412</ele>
        <time>2021-12-26T09:41:41.000Z</time>
      </trkpt>
      <trkpt lat="48.03544" lon="-1.56426">
        <ele>34.52767</ele>
        <time>2021-12-26T09:41:42.000Z</time>
      </trkpt>
      <trkpt lat="48.03546" lon="-1.56429">
        <ele>34.40834</ele>
        <time>2021-12-26T09:41:43.000Z</time>
      </trkpt>
      <trkpt lat="48.03549" lon="-1.56431">
        <ele>34.28921</ele>
        <time>2021-12-26T09:41:44.000Z</time>
      </trkpt>
      <trkpt lat="48.03551" lon="-1.56434">
        <ele>34.23871</ele>
        <time>2021-12-26T09:41:45.000Z</time>
      </trkpt>
      <trkpt lat="48.03553" lon="-1.56436">
        <ele>34.18614</ele>
        <time>2021-12-26T09:41:46.000Z</time>
      </trkpt>
      <trkpt lat="48.03556" lon="-1.56439">
        <ele>34.10656</ele>
        <time>2021-12-26T09:41:47.000Z</time>
      </trkpt>
      <trkpt lat="48.03558" lon="-1.56442">
        <ele>33.9662</ele>
        <time>2021-12-26T09:41:48.000Z</time>
      </trkpt>
      <trkpt lat="48.03561" lon="-1.56447">
        <ele>33.73844</ele>
        <time>2021-12-26T09:41:49.000Z</time>
      </trkpt>
      <trkpt lat="48.03564" lon="-1.56449">
        <ele>33.46751</ele>
        <time>2021-12-26T09:41:50.000Z</time>
      </trkpt>
      <trkpt lat="48.03567" lon="-1.56451">
        <ele>33.26206</ele>
        <time>2021-12-26T09:41:51.000Z</time>
      </trkpt>
      <trkpt lat="48.03569" lon="-1.56452">
        <ele>33.08877</ele>
        <time>2021-12-26T09:41:52.000Z</time>
      </trkpt>
      <trkpt lat="48.03571" lon="-1.56453">
        <ele>32.91439</ele>
        <time>2021-12-26T09:41:53.000Z</time>
      </trkpt>
      <trkpt lat="48.03574" lon="-1.56456">
        <ele>32.73459</ele>
        <time>2021-12-26T09:41:54.000Z</time>
      </trkpt>
      <trkpt lat="48.03576" lon="-1.56459">
        <ele>32.61678</ele>
        <time>2021-12-26T09:41:55.000Z</time>
      </trkpt>
      <trkpt lat="48.0358" lon="-1.56461">
        <ele>32.48778</ele>
        <time>2021-12-26T09:41:56.000Z</time>
      </trkpt>
      <trkpt lat="48.03582" lon="-1.56463">
        <ele>32.40423</ele>
        <time>2021-12-26T09:41:57.000Z</time>
      </trkpt>
      <trkpt lat="48.03585" lon="-1.56465">
        <ele>32.26473</ele>
        <time>2021-12-26T09:41:58.000Z</time>
      </trkpt>
      <trkpt lat="48.03588" lon="-1.56466">
        <ele>32.14039</ele>
        <time>2021-12-26T09:41:59.000Z</time>
      </trkpt>
      <trkpt lat="48.0359" lon="-1.56468">
        <ele>31.97167</ele>
        <time>2021-12-26T09:42:00.000Z</time>
      </trkpt>
      <trkpt lat="48.03593" lon="-1.56471">
        <ele>31.75234</ele>
        <time>2021-12-26T09:42:01.000Z</time>
      </trkpt>
      <trkpt lat="48.03596" lon="-1.56473">
        <ele>31.51139</ele>
        <time>2021-12-26T09:42:02.000Z</time>
      </trkpt>
      <trkpt lat="48.036" lon="-1.56478">
        <ele>31.08284</ele>
        <time>2021-12-26T09:42:03.000Z</time>
      </trkpt>
      <trkpt lat="48.03603" lon="-1.56482">
        <ele>30.82142</ele>
        <time>2021-12-26T09:42:04.000Z</time>
      </trkpt>
      <trkpt lat="48.03606" lon="-1.56485">
        <ele>30.61616</ele>
        <time>2021-12-26T09:42:05.000Z</time>
      </trkpt>
      <trkpt lat="48.03609" lon="-1.56489">
        <ele>30.45792</ele>
        <time>2021-12-26T09:42:06.000Z</time>
      </trkpt>
      <trkpt lat="48.03612" lon="-1.56492">
        <ele>30.31495</ele>
        <time>2021-12-26T09:42:07.000Z</time>
      </trkpt>
      <trkpt lat="48.03615" lon="-1.56495">
        <ele>30.20196</ele>
        <time>2021-12-26T09:42:08.000Z</time>
      </trkpt>
      <trkpt lat="48.03618" lon="-1.56498">
        <ele>30.06056</ele>
        <time>2021-12-26T09:42:09.000Z</time>
      </trkpt>
      <trkpt lat="48.0362" lon="-1.56501">
        <ele>29.92179</ele>
        <time>2021-12-26T09:42:10.000Z</time>
      </trkpt>
      <trkpt lat="48.03622" lon="-1.56504">
        <ele>29.7713</ele>
        <time>2021-12-26T09:42:12.000Z</time>
      </trkpt>
      <trkpt lat="48.03625" lon="-1.56507">
        <ele>29.60842</ele>
        <time>2021-12-26T09:42:13.000Z</time>
      </trkpt>
      <trkpt lat="48.03627" lon="-1.56511">
        <ele>29.45907</ele>
        <time>2021-12-26T09:42:21.000Z</time>
      </trkpt>
      <trkpt lat="48.0363" lon="-1.56517">
        <ele>29.2259</ele>
        <time>2021-12-26T09:42:35.000Z</time>
      </trkpt>
      <trkpt lat="48.0363" lon="-1.56523">
        <ele>29.10078</ele>
        <time>2021-12-26T09:42:37.000Z</time>
      </trkpt>
      <trkpt lat="48.03631" lon="-1.56526">
        <ele>29.04815</ele>
        <time>2021-12-26T09:42:38.000Z</time>
      </trkpt>
      <trkpt lat="48.03632" lon="-1.56531">
        <ele>28.98373</ele>
        <time>2021-12-26T09:42:40.000Z</time>
      </trkpt>
      <trkpt lat="48.03635" lon="-1.56533">
        <ele>28.9578</ele>
        <time>2021-12-26T09:42:42.000Z</time>
      </trkpt>
      <trkpt lat="48.03638" lon="-1.56533">
        <ele>28.94671</ele>
        <time>2021-12-26T09:42:43.000Z</time>
      </trkpt>
      <trkpt lat="48.0364" lon="-1.56531">
        <ele>28.93808</ele>
        <time>2021-12-26T09:42:44.000Z</time>
      </trkpt>
      <trkpt lat="48.03643" lon="-1.5653">
        <ele>28.93753</ele>
        <time>2021-12-26T09:42:45.000Z</time>
      </trkpt>
      <trkpt lat="48.03646" lon="-1.56531">
        <ele>28.94258</ele>
        <time>2021-12-26T09:42:46.000Z</time>
      </trkpt>
      <trkpt lat="48.03649" lon="-1.56532">
        <ele>28.95552</ele>
        <time>2021-12-26T09:42:47.000Z</time>
      </trkpt>
      <trkpt lat="48.03652" lon="-1.56533">
        <ele>28.9707</ele>
        <time>2021-12-26T09:42:48.000Z</time>
      </trkpt>
      <trkpt lat="48.03655" lon="-1.56534">
        <ele>28.98556</ele>
        <time>2021-12-26T09:42:49.000Z</time>
      </trkpt>
      <trkpt lat="48.03659" lon="-1.56535">
        <ele>28.99679</ele>
        <time>2021-12-26T09:42:50.000Z</time>
      </trkpt>
      <trkpt lat="48.03662" lon="-1.56536">
        <ele>29.00254</ele>
        <time>2021-12-26T09:42:51.000Z</time>
      </trkpt>
      <trkpt lat="48.03665" lon="-1.56537">
        <ele>28.99699</ele>
        <time>2021-12-26T09:42:52.000Z</time>
      </trkpt>
      <trkpt lat="48.03669" lon="-1.56537">
        <ele>28.97702</ele>
        <time>2021-12-26T09:42:53.000Z</time>
      </trkpt>
      <trkpt lat="48.03672" lon="-1.56537">
        <ele>28.95365</ele>
        <time>2021-12-26T09:42:54.000Z</time>
      </trkpt>
      <trkpt lat="48.03675" lon="-1.56537">
        <ele>28.9221</ele>
        <time>2021-12-26T09:42:55.000Z</time>
      </trkpt>
      <trkpt lat="48.03678" lon="-1.56537">
        <ele>28.88204</ele>
        <time>2021-12-26T09:42:56.000Z</time>
      </trkpt>
      <trkpt lat="48.03681" lon="-1.56536">
        <ele>28.84761</ele>
        <time>2021-12-26T09:42:57.000Z</time>
      </trkpt>
      <trkpt lat="48.03684" lon="-1.56533">
        <ele>28.72407</ele>
        <time>2021-12-26T09:42:58.000Z</time>
      </trkpt>
      <trkpt lat="48.03687" lon="-1.56529">
        <ele>28.63167</ele>
        <time>2021-12-26T09:42:59.000Z</time>
      </trkpt>
      <trkpt lat="48.03689" lon="-1.56524">
        <ele>28.60037</ele>
        <time>2021-12-26T09:43:00.000Z</time>
      </trkpt>
      <trkpt lat="48.03692" lon="-1.5652">
        <ele>28.65679</ele>
        <time>2021-12-26T09:43:01.000Z</time>
      </trkpt>
      <trkpt lat="48.03695" lon="-1.56517">
        <ele>28.74532</ele>
        <time>2021-12-26T09:43:02.000Z</time>
      </trkpt>
      <trkpt lat="48.03699" lon="-1.56516">
        <ele>28.82712</ele>
        <time>2021-12-26T09:43:03.000Z</time>
      </trkpt>
      <trkpt lat="48.03701" lon="-1.56515">
        <ele>28.89579</ele>
        <time>2021-12-26T09:43:04.000Z</time>
      </trkpt>
      <trkpt lat="48.03704" lon="-1.56515">
        <ele>28.93843</ele>
        <time>2021-12-26T09:43:05.000Z</time>
      </trkpt>
      <trkpt lat="48.03708" lon="-1.56515">
        <ele>28.96971</ele>
        <time>2021-12-26T09:43:06.000Z</time>
      </trkpt>
      <trkpt lat="48.0371" lon="-1.56515">
        <ele>28.99733</ele>
        <time>2021-12-26T09:43:07.000Z</time>
      </trkpt>
      <trkpt lat="48.03714" lon="-1.56514">
        <ele>29.02561</ele>
        <time>2021-12-26T09:43:08.000Z</time>
      </trkpt>
      <trkpt lat="48.03717" lon="-1.56514">
        <ele>29.04851</ele>
        <time>2021-12-26T09:43:09.000Z</time>
      </trkpt>
      <trkpt lat="48.03721" lon="-1.56513">
        <ele>29.06762</ele>
        <time>2021-12-26T09:43:10.000Z</time>
      </trkpt>
      <trkpt lat="48.03724" lon="-1.56511">
        <ele>29.07791</ele>
        <time>2021-12-26T09:43:11.000Z</time>
      </trkpt>
      <trkpt lat="48.03728" lon="-1.5651">
        <ele>29.08897</ele>
        <time>2021-12-26T09:43:12.000Z</time>
      </trkpt>
      <trkpt lat="48.0373" lon="-1.56508">
        <ele>29.09179</ele>
        <time>2021-12-26T09:43:13.000Z</time>
      </trkpt>
      <trkpt lat="48.03734" lon="-1.56506">
        <ele>29.10535</ele>
        <time>2021-12-26T09:43:14.000Z</time>
      </trkpt>
      <trkpt lat="48.03737" lon="-1.56503">
        <ele>29.09722</ele>
        <time>2021-12-26T09:43:15.000Z</time>
      </trkpt>
      <trkpt lat="48.03739" lon="-1.56499">
        <ele>29.09092</ele>
        <time>2021-12-26T09:43:16.000Z</time>
      </trkpt>
      <trkpt lat="48.03742" lon="-1.56495">
        <ele>29.11433</ele>
        <time>2021-12-26T09:43:17.000Z</time>
      </trkpt>
      <trkpt lat="48.03744" lon="-1.56491">
        <ele>29.18075</ele>
        <time>2021-12-26T09:43:18.000Z</time>
      </trkpt>
      <trkpt lat="48.03746" lon="-1.56488">
        <ele>29.2662</ele>
        <time>2021-12-26T09:43:19.000Z</time>
      </trkpt>
      <trkpt lat="48.03748" lon="-1.56484">
        <ele>29.37606</ele>
        <time>2021-12-26T09:43:20.000Z</time>
      </trkpt>
      <trkpt lat="48.03751" lon="-1.56481">
        <ele>29.44965</ele>
        <time>2021-12-26T09:43:21.000Z</time>
      </trkpt>
      <trkpt lat="48.03754" lon="-1.5648">
        <ele>29.49081</ele>
        <time>2021-12-26T09:43:22.000Z</time>
      </trkpt>
      <trkpt lat="48.03757" lon="-1.5648">
        <ele>29.51942</ele>
        <time>2021-12-26T09:43:23.000Z</time>
      </trkpt>
      <trkpt lat="48.03761" lon="-1.56482">
        <ele>29.55245</ele>
        <time>2021-12-26T09:43:24.000Z</time>
      </trkpt>
      <trkpt lat="48.03764" lon="-1.56483">
        <ele>29.62711</ele>
        <time>2021-12-26T09:43:25.000Z</time>
      </trkpt>
      <trkpt lat="48.03767" lon="-1.56484">
        <ele>29.71729</ele>
        <time>2021-12-26T09:43:26.000Z</time>
      </trkpt>
      <trkpt lat="48.0377" lon="-1.56484">
        <ele>29.79378</ele>
        <time>2021-12-26T09:43:27.000Z</time>
      </trkpt>
      <trkpt lat="48.03772" lon="-1.56485">
        <ele>29.8857</ele>
        <time>2021-12-26T09:43:28.000Z</time>
      </trkpt>
      <trkpt lat="48.03775" lon="-1.56486">
        <ele>29.97934</ele>
        <time>2021-12-26T09:43:29.000Z</time>
      </trkpt>
      <trkpt lat="48.03777" lon="-1.56487">
        <ele>30.05639</ele>
        <time>2021-12-26T09:43:30.000Z</time>
      </trkpt>
      <trkpt lat="48.0378" lon="-1.56489">
        <ele>30.22586</ele>
        <time>2021-12-26T09:43:31.000Z</time>
      </trkpt>
      <trkpt lat="48.03781" lon="-1.56494">
        <ele>30.46895</ele>
        <time>2021-12-26T09:43:32.000Z</time>
      </trkpt>
      <trkpt lat="48.03784" lon="-1.56498">
        <ele>30.74518</ele>
        <time>2021-12-26T09:43:33.000Z</time>
      </trkpt>
      <trkpt lat="48.03786" lon="-1.565">
        <ele>30.9706</ele>
        <time>2021-12-26T09:43:34.000Z</time>
      </trkpt>
      <trkpt lat="48.03789" lon="-1.56502">
        <ele>31.20682</ele>
        <time>2021-12-26T09:43:35.000Z</time>
      </trkpt>
      <trkpt lat="48.03791" lon="-1.56501">
        <ele>31.31352</ele>
        <time>2021-12-26T09:43:36.000Z</time>
      </trkpt>
      <trkpt lat="48.03793" lon="-1.565">
        <ele>31.37592</ele>
        <time>2021-12-26T09:43:37.000Z</time>
      </trkpt>
      <trkpt lat="48.03795" lon="-1.565">
        <ele>31.47317</ele>
        <time>2021-12-26T09:43:38.000Z</time>
      </trkpt>
      <trkpt lat="48.03797" lon="-1.56499">
        <ele>31.57944</ele>
        <time>2021-12-26T09:43:39.000Z</time>
      </trkpt>
      <trkpt lat="48.03799" lon="-1.56498">
        <ele>31.6628</ele>
        <time>2021-12-26T09:43:40.000Z</time>
      </trkpt>
      <trkpt lat="48.038" lon="-1.56497">
        <ele>31.77189</ele>
        <time>2021-12-26T09:43:41.000Z</time>
      </trkpt>
      <trkpt lat="48.03802" lon="-1.56496">
        <ele>31.87505</ele>
        <time>2021-12-26T09:43:42.000Z</time>
      </trkpt>
      <trkpt lat="48.03806" lon="-1.56494">
        <ele>32.1577</ele>
        <time>2021-12-26T09:43:44.000Z</time>
      </trkpt>
      <trkpt lat="48.03808" lon="-1.56492">
        <ele>32.28512</ele>
        <time>2021-12-26T09:43:45.000Z</time>
      </trkpt>
      <trkpt lat="48.0381" lon="-1.5649">
        <ele>32.381</ele>
        <time>2021-12-26T09:43:46.000Z</time>
      </trkpt>
      <trkpt lat="48.03811" lon="-1.5649">
        <ele>32.56227</ele>
        <time>2021-12-26T09:43:47.000Z</time>
      </trkpt>
      <trkpt lat="48.03814" lon="-1.56489">
        <ele>32.8296</ele>
        <time>2021-12-26T09:43:50.000Z</time>
      </trkpt>
      <trkpt lat="48.03812" lon="-1.5649">
        <ele>32.64467</ele>
        <time>2021-12-26T09:44:04.000Z</time>
      </trkpt>
      <trkpt lat="48.0381" lon="-1.56491">
        <ele>32.48884</ele>
        <time>2021-12-26T09:44:05.000Z</time>
      </trkpt>
      <trkpt lat="48.03807" lon="-1.56493">
        <ele>32.23249</ele>
        <time>2021-12-26T09:44:06.000Z</time>
      </trkpt>
      <trkpt lat="48.03804" lon="-1.56495">
        <ele>32.03397</ele>
        <time>2021-12-26T09:44:07.000Z</time>
      </trkpt>
      <trkpt lat="48.03802" lon="-1.56497">
        <ele>31.84719</ele>
        <time>2021-12-26T09:44:08.000Z</time>
      </trkpt>
      <trkpt lat="48.03799" lon="-1.56498">
        <ele>31.6628</ele>
        <time>2021-12-26T09:44:09.000Z</time>
      </trkpt>
      <trkpt lat="48.03796" lon="-1.565">
        <ele>31.50527</ele>
        <time>2021-12-26T09:44:10.000Z</time>
      </trkpt>
      <trkpt lat="48.03793" lon="-1.56501">
        <ele>31.39896</ele>
        <time>2021-12-26T09:44:11.000Z</time>
      </trkpt>
      <trkpt lat="48.03791" lon="-1.56502">
        <ele>31.32787</ele>
        <time>2021-12-26T09:44:12.000Z</time>
      </trkpt>
      <trkpt lat="48.03789" lon="-1.56503">
        <ele>31.24948</ele>
        <time>2021-12-26T09:44:13.000Z</time>
      </trkpt>
      <trkpt lat="48.03786" lon="-1.56503">
        <ele>31.11561</ele>
        <time>2021-12-26T09:44:14.000Z</time>
      </trkpt>
      <trkpt lat="48.03784" lon="-1.56502">
        <ele>30.92197</ele>
        <time>2021-12-26T09:44:15.000Z</time>
      </trkpt>
      <trkpt lat="48.03781" lon="-1.56499">
        <ele>30.72425</ele>
        <time>2021-12-26T09:44:16.000Z</time>
      </trkpt>
      <trkpt lat="48.03779" lon="-1.56496">
        <ele>30.52282</ele>
        <time>2021-12-26T09:44:17.000Z</time>
      </trkpt>
      <trkpt lat="48.03779" lon="-1.56493">
        <ele>30.36299</ele>
        <time>2021-12-26T09:44:18.000Z</time>
      </trkpt>
      <trkpt lat="48.03778" lon="-1.5649">
        <ele>30.1973</ele>
        <time>2021-12-26T09:44:20.000Z</time>
      </trkpt>
      <trkpt lat="48.0378" lon="-1.56492">
        <ele>30.33565</ele>
        <time>2021-12-26T09:44:34.000Z</time>
      </trkpt>
      <trkpt lat="48.03782" lon="-1.56496">
        <ele>30.57539</ele>
        <time>2021-12-26T09:44:36.000Z</time>
      </trkpt>
      <trkpt lat="48.03783" lon="-1.56498">
        <ele>30.72298</ele>
        <time>2021-12-26T09:44:37.000Z</time>
      </trkpt>
      <trkpt lat="48.03785" lon="-1.565">
        <ele>30.93969</ele>
        <time>2021-12-26T09:44:38.000Z</time>
      </trkpt>
      <trkpt lat="48.03788" lon="-1.56502">
        <ele>31.19371</ele>
        <time>2021-12-26T09:44:40.000Z</time>
      </trkpt>
      <trkpt lat="48.03791" lon="-1.56502">
        <ele>31.33594</ele>
        <time>2021-12-26T09:44:42.000Z</time>
      </trkpt>
      <trkpt lat="48.03794" lon="-1.565">
        <ele>31.42759</ele>
        <time>2021-12-26T09:44:44.000Z</time>
      </trkpt>
      <trkpt lat="48.03797" lon="-1.56499">
        <ele>31.57944</ele>
        <time>2021-12-26T09:44:45.000Z</time>
      </trkpt>
      <trkpt lat="48.03799" lon="-1.56498">
        <ele>31.64007</ele>
        <time>2021-12-26T09:44:46.000Z</time>
      </trkpt>
      <trkpt lat="48.03801" lon="-1.56497">
        <ele>31.80808</ele>
        <time>2021-12-26T09:44:47.000Z</time>
      </trkpt>
      <trkpt lat="48.03803" lon="-1.56495">
        <ele>31.85688</ele>
        <time>2021-12-26T09:44:48.000Z</time>
      </trkpt>
      <trkpt lat="48.03805" lon="-1.56494">
        <ele>32.02069</ele>
        <time>2021-12-26T09:44:49.000Z</time>
      </trkpt>
      <trkpt lat="48.03808" lon="-1.56492">
        <ele>32.2103</ele>
        <time>2021-12-26T09:44:51.000Z</time>
      </trkpt>
      <trkpt lat="48.0381" lon="-1.5649">
        <ele>32.36223</ele>
        <time>2021-12-26T09:44:52.000Z</time>
      </trkpt>
      <trkpt lat="48.03811" lon="-1.56489">
        <ele>32.48674</ele>
        <time>2021-12-26T09:44:53.000Z</time>
      </trkpt>
      <trkpt lat="48.03813" lon="-1.56487">
        <ele>32.49877</ele>
        <time>2021-12-26T09:44:54.000Z</time>
      </trkpt>
      <trkpt lat="48.03815" lon="-1.56485">
        <ele>32.64547</ele>
        <time>2021-12-26T09:44:55.000Z</time>
      </trkpt>
      <trkpt lat="48.03816" lon="-1.56484">
        <ele>32.79581</ele>
        <time>2021-12-26T09:44:56.000Z</time>
      </trkpt>
      <trkpt lat="48.03819" lon="-1.56482">
        <ele>32.98835</ele>
        <time>2021-12-26T09:44:58.000Z</time>
      </trkpt>
      <trkpt lat="48.0382" lon="-1.5648">
        <ele>33.05117</ele>
        <time>2021-12-26T09:44:59.000Z</time>
      </trkpt>
      <trkpt lat="48.03822" lon="-1.56478">
        <ele>33.15749</ele>
        <time>2021-12-26T09:45:00.000Z</time>
      </trkpt>
      <trkpt lat="48.03823" lon="-1.56476">
        <ele>33.19567</ele>
        <time>2021-12-26T09:45:01.000Z</time>
      </trkpt>
      <trkpt lat="48.03825" lon="-1.56474">
        <ele>33.29645</ele>
        <time>2021-12-26T09:45:02.000Z</time>
      </trkpt>
      <trkpt lat="48.03826" lon="-1.56471">
        <ele>33.3657</ele>
        <time>2021-12-26T09:45:03.000Z</time>
      </trkpt>
      <trkpt lat="48.03827" lon="-1.56469">
        <ele>33.49994</ele>
        <time>2021-12-26T09:45:04.000Z</time>
      </trkpt>
      <trkpt lat="48.03828" lon="-1.56467">
        <ele>33.63811</ele>
        <time>2021-12-26T09:45:05.000Z</time>
      </trkpt>
      <trkpt lat="48.0383" lon="-1.56464">
        <ele>33.90004</ele>
        <time>2021-12-26T09:45:07.000Z</time>
      </trkpt>
      <trkpt lat="48.03832" lon="-1.56462">
        <ele>34.09503</ele>
        <time>2021-12-26T09:45:08.000Z</time>
      </trkpt>
      <trkpt lat="48.03833" lon="-1.5646">
        <ele>34.33975</ele>
        <time>2021-12-26T09:45:09.000Z</time>
      </trkpt>
      <trkpt lat="48.03836" lon="-1.56458">
        <ele>34.83825</ele>
        <time>2021-12-26T09:45:11.000Z</time>
      </trkpt>
      <trkpt lat="48.03838" lon="-1.56456">
        <ele>35.24844</ele>
        <time>2021-12-26T09:45:13.000Z</time>
      </trkpt>
      <trkpt lat="48.0384" lon="-1.56453">
        <ele>35.33791</ele>
        <time>2021-12-26T09:45:45.000Z</time>
      </trkpt>
      <trkpt lat="48.03842" lon="-1.56455">
        <ele>35.81547</ele>
        <time>2021-12-26T09:45:51.000Z</time>
      </trkpt>
      <trkpt lat="48.03843" lon="-1.56457">
        <ele>36.1693</ele>
        <time>2021-12-26T09:45:52.000Z</time>
      </trkpt>
      <trkpt lat="48.03843" lon="-1.56457">
        <ele>36.1693</ele>
        <time>2021-12-26T09:45:52.000Z</time>
      </trkpt>
      <trkpt lat="48.03844" lon="-1.56459">
        <ele>36.49159</ele>
        <time>2021-12-26T09:45:53.000Z</time>
      </trkpt>
      <trkpt lat="48.03846" lon="-1.56462">
        <ele>36.84702</ele>
        <time>2021-12-26T09:45:54.000Z</time>
      </trkpt>
      <trkpt lat="48.03847" lon="-1.56465">
        <ele>37.08946</ele>
        <time>2021-12-26T09:45:55.000Z</time>
      </trkpt>
      <trkpt lat="48.03848" lon="-1.56467">
        <ele>37.39605</ele>
        <time>2021-12-26T09:45:56.000Z</time>
      </trkpt>
      <trkpt lat="48.03849" lon="-1.5647">
        <ele>37.67408</ele>
        <time>2021-12-26T09:45:57.000Z</time>
      </trkpt>
      <trkpt lat="48.03851" lon="-1.56472">
        <ele>37.95063</ele>
        <time>2021-12-26T09:45:58.000Z</time>
      </trkpt>
      <trkpt lat="48.03852" lon="-1.56475">
        <ele>38.23296</ele>
        <time>2021-12-26T09:45:59.000Z</time>
      </trkpt>
      <trkpt lat="48.03853" lon="-1.56477">
        <ele>38.49993</ele>
        <time>2021-12-26T09:46:00.000Z</time>
      </trkpt>
      <trkpt lat="48.03855" lon="-1.5648">
        <ele>38.73749</ele>
        <time>2021-12-26T09:46:01.000Z</time>
      </trkpt>
      <trkpt lat="48.03856" lon="-1.56483">
        <ele>38.95612</ele>
        <time>2021-12-26T09:46:02.000Z</time>
      </trkpt>
      <trkpt lat="48.03857" lon="-1.56485">
        <ele>39.15257</ele>
        <time>2021-12-26T09:46:03.000Z</time>
      </trkpt>
      <trkpt lat="48.03859" lon="-1.56487">
        <ele>39.35729</ele>
        <time>2021-12-26T09:46:04.000Z</time>
      </trkpt>
      <trkpt lat="48.0386" lon="-1.5649">
        <ele>39.54431</ele>
        <time>2021-12-26T09:46:05.000Z</time>
      </trkpt>
      <trkpt lat="48.03862" lon="-1.56492">
        <ele>39.72486</ele>
        <time>2021-12-26T09:46:06.000Z</time>
      </trkpt>
      <trkpt lat="48.03863" lon="-1.56495">
        <ele>39.87658</ele>
        <time>2021-12-26T09:46:07.000Z</time>
      </trkpt>
      <trkpt lat="48.03865" lon="-1.56497">
        <ele>40.03682</ele>
        <time>2021-12-26T09:46:08.000Z</time>
      </trkpt>
      <trkpt lat="48.03866" lon="-1.565">
        <ele>40.15836</ele>
        <time>2021-12-26T09:46:09.000Z</time>
      </trkpt>
      <trkpt lat="48.03868" lon="-1.56502">
        <ele>40.29419</ele>
        <time>2021-12-26T09:46:10.000Z</time>
      </trkpt>
      <trkpt lat="48.0387" lon="-1.56504">
        <ele>40.42713</ele>
        <time>2021-12-26T09:46:11.000Z</time>
      </trkpt>
      <trkpt lat="48.03871" lon="-1.56507">
        <ele>40.54038</ele>
        <time>2021-12-26T09:46:12.000Z</time>
      </trkpt>
      <trkpt lat="48.03872" lon="-1.56509">
        <ele>40.64704</ele>
        <time>2021-12-26T09:46:13.000Z</time>
      </trkpt>
      <trkpt lat="48.03874" lon="-1.56512">
        <ele>40.76811</ele>
        <time>2021-12-26T09:46:14.000Z</time>
      </trkpt>
      <trkpt lat="48.03875" lon="-1.56514">
        <ele>40.88907</ele>
        <time>2021-12-26T09:46:15.000Z</time>
      </trkpt>
      <trkpt lat="48.03877" lon="-1.56516">
        <ele>41.02202</ele>
        <time>2021-12-26T09:46:16.000Z</time>
      </trkpt>
      <trkpt lat="48.03878" lon="-1.56519">
        <ele>41.14533</ele>
        <time>2021-12-26T09:46:17.000Z</time>
      </trkpt>
      <trkpt lat="48.0388" lon="-1.56521">
        <ele>41.27934</ele>
        <time>2021-12-26T09:46:18.000Z</time>
      </trkpt>
      <trkpt lat="48.03881" lon="-1.56524">
        <ele>41.42423</ele>
        <time>2021-12-26T09:46:19.000Z</time>
      </trkpt>
      <trkpt lat="48.03883" lon="-1.56527">
        <ele>41.56054</ele>
        <time>2021-12-26T09:46:19.999Z</time>
      </trkpt>
      <trkpt lat="48.03884" lon="-1.56529">
        <ele>41.69876</ele>
        <time>2021-12-26T09:46:20.999Z</time>
      </trkpt>
      <trkpt lat="48.03885" lon="-1.56532">
        <ele>41.80956</ele>
        <time>2021-12-26T09:46:21.999Z</time>
      </trkpt>
      <trkpt lat="48.03887" lon="-1.56534">
        <ele>41.96162</ele>
        <time>2021-12-26T09:46:22.999Z</time>
      </trkpt>
      <trkpt lat="48.03888" lon="-1.56537">
        <ele>42.09641</ele>
        <time>2021-12-26T09:46:23.999Z</time>
      </trkpt>
      <trkpt lat="48.0389" lon="-1.5654">
        <ele>42.24427</ele>
        <time>2021-12-26T09:46:24.999Z</time>
      </trkpt>
      <trkpt lat="48.03891" lon="-1.56542">
        <ele>42.39454</ele>
        <time>2021-12-26T09:46:25.999Z</time>
      </trkpt>
      <trkpt lat="48.03893" lon="-1.56545">
        <ele>42.52307</ele>
        <time>2021-12-26T09:46:26.999Z</time>
      </trkpt>
      <trkpt lat="48.03894" lon="-1.56547">
        <ele>42.68115</ele>
        <time>2021-12-26T09:46:27.999Z</time>
      </trkpt>
      <trkpt lat="48.03896" lon="-1.5655">
        <ele>42.8265</ele>
        <time>2021-12-26T09:46:28.999Z</time>
      </trkpt>
      <trkpt lat="48.03897" lon="-1.56552">
        <ele>42.93123</ele>
        <time>2021-12-26T09:46:29.999Z</time>
      </trkpt>
      <trkpt lat="48.03898" lon="-1.56555">
        <ele>43.04851</ele>
        <time>2021-12-26T09:46:30.999Z</time>
      </trkpt>
      <trkpt lat="48.039" lon="-1.56557">
        <ele>43.18164</ele>
        <time>2021-12-26T09:46:31.999Z</time>
      </trkpt>
      <trkpt lat="48.03901" lon="-1.56559">
        <ele>43.29092</ele>
        <time>2021-12-26T09:46:32.999Z</time>
      </trkpt>
      <trkpt lat="48.03902" lon="-1.56561">
        <ele>43.40094</ele>
        <time>2021-12-26T09:46:33.999Z</time>
      </trkpt>
      <trkpt lat="48.03904" lon="-1.56564">
        <ele>43.4996</ele>
        <time>2021-12-26T09:46:34.999Z</time>
      </trkpt>
      <trkpt lat="48.03905" lon="-1.56566">
        <ele>43.59814</ele>
        <time>2021-12-26T09:46:35.999Z</time>
      </trkpt>
      <trkpt lat="48.03907" lon="-1.56568">
        <ele>43.71807</ele>
        <time>2021-12-26T09:46:36.999Z</time>
      </trkpt>
      <trkpt lat="48.03908" lon="-1.5657">
        <ele>43.79482</ele>
        <time>2021-12-26T09:46:37.999Z</time>
      </trkpt>
      <trkpt lat="48.03909" lon="-1.56573">
        <ele>43.85543</ele>
        <time>2021-12-26T09:46:38.999Z</time>
      </trkpt>
      <trkpt lat="48.03911" lon="-1.56575">
        <ele>43.91802</ele>
        <time>2021-12-26T09:46:39.999Z</time>
      </trkpt>
      <trkpt lat="48.03912" lon="-1.56578">
        <ele>43.96215</ele>
        <time>2021-12-26T09:46:40.999Z</time>
      </trkpt>
      <trkpt lat="48.03913" lon="-1.5658">
        <ele>44.02556</ele>
        <time>2021-12-26T09:46:41.999Z</time>
      </trkpt>
      <trkpt lat="48.03914" lon="-1.56582">
        <ele>44.10959</ele>
        <time>2021-12-26T09:46:42.999Z</time>
      </trkpt>
      <trkpt lat="48.03915" lon="-1.56584">
        <ele>44.17237</ele>
        <time>2021-12-26T09:46:43.999Z</time>
      </trkpt>
      <trkpt lat="48.03917" lon="-1.56587">
        <ele>44.22586</ele>
        <time>2021-12-26T09:46:44.999Z</time>
      </trkpt>
      <trkpt lat="48.03918" lon="-1.5659">
        <ele>44.28858</ele>
        <time>2021-12-26T09:46:45.999Z</time>
      </trkpt>
      <trkpt lat="48.0392" lon="-1.56592">
        <ele>44.35844</ele>
        <time>2021-12-26T09:46:46.999Z</time>
      </trkpt>
      <trkpt lat="48.03921" lon="-1.56595">
        <ele>44.41454</ele>
        <time>2021-12-26T09:46:47.999Z</time>
      </trkpt>
      <trkpt lat="48.03923" lon="-1.56598">
        <ele>44.48578</ele>
        <time>2021-12-26T09:46:48.999Z</time>
      </trkpt>
      <trkpt lat="48.03924" lon="-1.56601">
        <ele>44.55241</ele>
        <time>2021-12-26T09:46:49.999Z</time>
      </trkpt>
      <trkpt lat="48.03926" lon="-1.56603">
        <ele>44.61436</ele>
        <time>2021-12-26T09:46:50.999Z</time>
      </trkpt>
      <trkpt lat="48.03927" lon="-1.56606">
        <ele>44.67128</ele>
        <time>2021-12-26T09:46:51.999Z</time>
      </trkpt>
      <trkpt lat="48.03929" lon="-1.56609">
        <ele>44.75823</ele>
        <time>2021-12-26T09:46:52.999Z</time>
      </trkpt>
      <trkpt lat="48.0393" lon="-1.56611">
        <ele>44.80916</ele>
        <time>2021-12-26T09:46:53.999Z</time>
      </trkpt>
      <trkpt lat="48.03932" lon="-1.56614">
        <ele>44.8857</ele>
        <time>2021-12-26T09:46:54.999Z</time>
      </trkpt>
      <trkpt lat="48.03933" lon="-1.56616">
        <ele>44.94477</ele>
        <time>2021-12-26T09:46:55.999Z</time>
      </trkpt>
      <trkpt lat="48.03935" lon="-1.56619">
        <ele>45.00845</ele>
        <time>2021-12-26T09:46:56.999Z</time>
      </trkpt>
      <trkpt lat="48.03936" lon="-1.56621">
        <ele>45.0627</ele>
        <time>2021-12-26T09:46:57.999Z</time>
      </trkpt>
      <trkpt lat="48.03938" lon="-1.56624">
        <ele>45.10147</ele>
        <time>2021-12-26T09:46:58.999Z</time>
      </trkpt>
      <trkpt lat="48.03939" lon="-1.56627">
        <ele>45.12853</ele>
        <time>2021-12-26T09:46:59.999Z</time>
      </trkpt>
      <trkpt lat="48.0394" lon="-1.5663">
        <ele>45.14013</ele>
        <time>2021-12-26T09:47:00.999Z</time>
      </trkpt>
      <trkpt lat="48.03941" lon="-1.56633">
        <ele>45.16099</ele>
        <time>2021-12-26T09:47:01.999Z</time>
      </trkpt>
      <trkpt lat="48.03943" lon="-1.56636">
        <ele>45.17569</ele>
        <time>2021-12-26T09:47:02.999Z</time>
      </trkpt>
      <trkpt lat="48.03944" lon="-1.56639">
        <ele>45.18194</ele>
        <time>2021-12-26T09:47:03.999Z</time>
      </trkpt>
      <trkpt lat="48.03946" lon="-1.56643">
        <ele>45.20556</ele>
        <time>2021-12-26T09:47:04.999Z</time>
      </trkpt>
      <trkpt lat="48.03947" lon="-1.56646">
        <ele>45.22734</ele>
        <time>2021-12-26T09:47:05.999Z</time>
      </trkpt>
      <trkpt lat="48.03948" lon="-1.56649">
        <ele>45.25888</ele>
        <time>2021-12-26T09:47:06.999Z</time>
      </trkpt>
      <trkpt lat="48.0395" lon="-1.56653">
        <ele>45.28881</ele>
        <time>2021-12-26T09:47:07.999Z</time>
      </trkpt>
      <trkpt lat="48.03951" lon="-1.56656">
        <ele>45.38232</ele>
        <time>2021-12-26T09:47:08.999Z</time>
      </trkpt>
      <trkpt lat="48.03953" lon="-1.56659">
        <ele>45.48187</ele>
        <time>2021-12-26T09:47:09.999Z</time>
      </trkpt>
      <trkpt lat="48.03955" lon="-1.56662">
        <ele>45.62489</ele>
        <time>2021-12-26T09:47:10.999Z</time>
      </trkpt>
      <trkpt lat="48.03958" lon="-1.56664">
        <ele>45.84001</ele>
        <time>2021-12-26T09:47:11.999Z</time>
      </trkpt>
      <trkpt lat="48.03961" lon="-1.56665">
        <ele>46.07072</ele>
        <time>2021-12-26T09:47:12.999Z</time>
      </trkpt>
      <trkpt lat="48.03963" lon="-1.56665">
        <ele>46.28664</ele>
        <time>2021-12-26T09:47:13.999Z</time>
      </trkpt>
      <trkpt lat="48.03965" lon="-1.56665">
        <ele>46.51407</ele>
        <time>2021-12-26T09:47:14.999Z</time>
      </trkpt>
      <trkpt lat="48.03968" lon="-1.56664">
        <ele>46.74245</ele>
        <time>2021-12-26T09:47:15.999Z</time>
      </trkpt>
      <trkpt lat="48.0397" lon="-1.56663">
        <ele>46.91156</ele>
        <time>2021-12-26T09:47:16.999Z</time>
      </trkpt>
      <trkpt lat="48.03972" lon="-1.56663">
        <ele>47.10231</ele>
        <time>2021-12-26T09:47:17.999Z</time>
      </trkpt>
      <trkpt lat="48.03975" lon="-1.56664">
        <ele>47.3142</ele>
        <time>2021-12-26T09:47:18.999Z</time>
      </trkpt>
      <trkpt lat="48.03978" lon="-1.56665">
        <ele>47.50113</ele>
        <time>2021-12-26T09:47:19.999Z</time>
      </trkpt>
      <trkpt lat="48.0398" lon="-1.56666">
        <ele>47.61159</ele>
        <time>2021-12-26T09:47:20.999Z</time>
      </trkpt>
      <trkpt lat="48.03982" lon="-1.56666">
        <ele>47.71526</ele>
        <time>2021-12-26T09:47:21.999Z</time>
      </trkpt>
      <trkpt lat="48.03984" lon="-1.56668">
        <ele>47.80786</ele>
        <time>2021-12-26T09:47:22.999Z</time>
      </trkpt>
      <trkpt lat="48.03986" lon="-1.5667">
        <ele>47.86335</ele>
        <time>2021-12-26T09:47:23.999Z</time>
      </trkpt>
      <trkpt lat="48.03989" lon="-1.56672">
        <ele>47.92128</ele>
        <time>2021-12-26T09:47:24.999Z</time>
      </trkpt>
      <trkpt lat="48.03991" lon="-1.56674">
        <ele>47.95128</ele>
        <time>2021-12-26T09:47:25.999Z</time>
      </trkpt>
      <trkpt lat="48.03993" lon="-1.56676">
        <ele>48.00092</ele>
        <time>2021-12-26T09:47:26.999Z</time>
      </trkpt>
      <trkpt lat="48.03996" lon="-1.56677">
        <ele>48.04893</ele>
        <time>2021-12-26T09:47:27.999Z</time>
      </trkpt>
      <trkpt lat="48.03998" lon="-1.56678">
        <ele>48.12625</ele>
        <time>2021-12-26T09:47:28.999Z</time>
      </trkpt>
      <trkpt lat="48.04" lon="-1.5668">
        <ele>48.20641</ele>
        <time>2021-12-26T09:47:29.999Z</time>
      </trkpt>
      <trkpt lat="48.04003" lon="-1.56681">
        <ele>48.27215</ele>
        <time>2021-12-26T09:47:30.999Z</time>
      </trkpt>
      <trkpt lat="48.04004" lon="-1.56682">
        <ele>48.32089</ele>
        <time>2021-12-26T09:47:31.999Z</time>
      </trkpt>
      <trkpt lat="48.04007" lon="-1.56683">
        <ele>48.41052</ele>
        <time>2021-12-26T09:47:33.999Z</time>
      </trkpt>
      <trkpt lat="48.04009" lon="-1.56683">
        <ele>48.50408</ele>
        <time>2021-12-26T09:47:35.999Z</time>
      </trkpt>
      <trkpt lat="48.04012" lon="-1.56684">
        <ele>48.65732</ele>
        <time>2021-12-26T09:47:37.999Z</time>
      </trkpt>
      <trkpt lat="48.04016" lon="-1.56683">
        <ele>48.80993</ele>
        <time>2021-12-26T09:47:39.999Z</time>
      </trkpt>
      <trkpt lat="48.04019" lon="-1.56683">
        <ele>48.96901</ele>
        <time>2021-12-26T09:47:41.999Z</time>
      </trkpt>
      <trkpt lat="48.04021" lon="-1.56683">
        <ele>49.06475</ele>
        <time>2021-12-26T09:47:42.999Z</time>
      </trkpt>
      <trkpt lat="48.04024" lon="-1.56683">
        <ele>49.17429</ele>
        <time>2021-12-26T09:47:44.999Z</time>
      </trkpt>
      <trkpt lat="48.04026" lon="-1.56683">
        <ele>49.26086</ele>
        <time>2021-12-26T09:47:45.999Z</time>
      </trkpt>
      <trkpt lat="48.04028" lon="-1.56683">
        <ele>49.33971</ele>
        <time>2021-12-26T09:47:46.999Z</time>
      </trkpt>
      <trkpt lat="48.0403" lon="-1.56683">
        <ele>49.42176</ele>
        <time>2021-12-26T09:47:47.999Z</time>
      </trkpt>
      <trkpt lat="48.04032" lon="-1.56682">
        <ele>49.49738</ele>
        <time>2021-12-26T09:47:48.999Z</time>
      </trkpt>
      <trkpt lat="48.04034" lon="-1.56682">
        <ele>49.56964</ele>
        <time>2021-12-26T09:47:49.999Z</time>
      </trkpt>
      <trkpt lat="48.04036" lon="-1.56681">
        <ele>49.63739</ele>
        <time>2021-12-26T09:47:50.999Z</time>
      </trkpt>
      <trkpt lat="48.04039" lon="-1.56681">
        <ele>49.69236</ele>
        <time>2021-12-26T09:47:51.999Z</time>
      </trkpt>
      <trkpt lat="48.04041" lon="-1.56681">
        <ele>49.73434</ele>
        <time>2021-12-26T09:47:52.999Z</time>
      </trkpt>
      <trkpt lat="48.04043" lon="-1.56681">
        <ele>49.75943</ele>
        <time>2021-12-26T09:47:53.999Z</time>
      </trkpt>
      <trkpt lat="48.04043" lon="-1.56681">
        <ele>49.75943</ele>
      </trkpt>
      <trkpt lat="48.04046" lon="-1.56681">
        <ele>49.77876</ele>
      </trkpt>
      <trkpt lat="48.04048" lon="-1.5668">
        <ele>49.79297</ele>
      </trkpt>
      <trkpt lat="48.04051" lon="-1.5668">
        <ele>49.79679</ele>
      </trkpt>
      <trkpt lat="48.04055" lon="-1.5668">
        <ele>49.79119</ele>
      </trkpt>
      <trkpt lat="48.04058" lon="-1.5668">
        <ele>49.77868</ele>
      </trkpt>
      <trkpt lat="48.04061" lon="-1.5668">
        <ele>49.76229</ele>
      </trkpt>
      <trkpt lat="48.04064" lon="-1.5668">
        <ele>49.73946</ele>
      </trkpt>
      <trkpt lat="48.04068" lon="-1.5668">
        <ele>49.70252</ele>
      </trkpt>
      <trkpt lat="48.04071" lon="-1.5668">
        <ele>49.66385</ele>
      </trkpt>
      <trkpt lat="48.04073" lon="-1.56679">
        <ele>49.63175</ele>
      </trkpt>
      <trkpt lat="48.04075" lon="-1.56678">
        <ele>49.60794</ele>
      </trkpt>
      <trkpt lat="48.04076" lon="-1.56678">
        <ele>49.57939</ele>
      </trkpt>
      <trkpt lat="48.04078" lon="-1.56677">
        <ele>49.55351</ele>
      </trkpt>
      <trkpt lat="48.0408" lon="-1.56677">
        <ele>49.52426</ele>
      </trkpt>
      <trkpt lat="48.04081" lon="-1.5667">
        <ele>49.52321</ele>
      </trkpt>
      <trkpt lat="48.04081" lon="-1.56666">
        <ele>49.53956</ele>
      </trkpt>
      <trkpt lat="48.0408" lon="-1.56662">
        <ele>49.56219</ele>
      </trkpt>
      <trkpt lat="48.0408" lon="-1.56658">
        <ele>49.58207</ele>
      </trkpt>
      <trkpt lat="48.0408" lon="-1.56654">
        <ele>49.61822</ele>
      </trkpt>
      <trkpt lat="48.04079" lon="-1.56649">
        <ele>49.66639</ele>
      </trkpt>
      <trkpt lat="48.04079" lon="-1.56644">
        <ele>49.69884</ele>
      </trkpt>
      <trkpt lat="48.04079" lon="-1.56638">
        <ele>49.7365</ele>
      </trkpt>
      <trkpt lat="48.04079" lon="-1.56633">
        <ele>49.75538</ele>
      </trkpt>
      <trkpt lat="48.04079" lon="-1.56627">
        <ele>49.75294</ele>
      </trkpt>
      <trkpt lat="48.04078" lon="-1.56621">
        <ele>49.73235</ele>
      </trkpt>
      <trkpt lat="48.04078" lon="-1.56615">
        <ele>49.69258</ele>
      </trkpt>
      <trkpt lat="48.04077" lon="-1.56609">
        <ele>49.63708</ele>
      </trkpt>
      <trkpt lat="48.04077" lon="-1.56602">
        <ele>49.58542</ele>
      </trkpt>
      <trkpt lat="48.04076" lon="-1.56595">
        <ele>49.53388</ele>
      </trkpt>
      <trkpt lat="48.04075" lon="-1.56589">
        <ele>49.48459</ele>
      </trkpt>
      <trkpt lat="48.04075" lon="-1.56582">
        <ele>49.43303</ele>
      </trkpt>
      <trkpt lat="48.04074" lon="-1.56575">
        <ele>49.37119</ele>
      </trkpt>
      <trkpt lat="48.04073" lon="-1.56568">
        <ele>49.29087</ele>
      </trkpt>
      <trkpt lat="48.04072" lon="-1.56561">
        <ele>49.17601</ele>
      </trkpt>
      <trkpt lat="48.04071" lon="-1.56553">
        <ele>49.02821</ele>
      </trkpt>
      <trkpt lat="48.0407" lon="-1.56546">
        <ele>48.84141</ele>
      </trkpt>
      <trkpt lat="48.0407" lon="-1.56538">
        <ele>48.64293</ele>
      </trkpt>
      <trkpt lat="48.04069" lon="-1.5653">
        <ele>48.45124</ele>
      </trkpt>
      <trkpt lat="48.04068" lon="-1.56522">
        <ele>48.25709</ele>
      </trkpt>
      <trkpt lat="48.04067" lon="-1.56514">
        <ele>48.08743</ele>
      </trkpt>
      <trkpt lat="48.04066" lon="-1.56505">
        <ele>47.91927</ele>
      </trkpt>
      <trkpt lat="48.04065" lon="-1.56497">
        <ele>47.74777</ele>
      </trkpt>
      <trkpt lat="48.04064" lon="-1.56488">
        <ele>47.55094</ele>
      </trkpt>
      <trkpt lat="48.04062" lon="-1.5648">
        <ele>47.34229</ele>
      </trkpt>
      <trkpt lat="48.04061" lon="-1.56471">
        <ele>47.10864</ele>
      </trkpt>
      <trkpt lat="48.0406" lon="-1.56462">
        <ele>46.83956</ele>
      </trkpt>
      <trkpt lat="48.04059" lon="-1.56452">
        <ele>46.55111</ele>
      </trkpt>
      <trkpt lat="48.04058" lon="-1.56443">
        <ele>46.24278</ele>
      </trkpt>
      <trkpt lat="48.04057" lon="-1.56434">
        <ele>45.92021</ele>
      </trkpt>
      <trkpt lat="48.04056" lon="-1.56425">
        <ele>45.55061</ele>
      </trkpt>
      <trkpt lat="48.04055" lon="-1.56415">
        <ele>45.11896</ele>
      </trkpt>
      <trkpt lat="48.04054" lon="-1.56406">
        <ele>44.64577</ele>
      </trkpt>
      <trkpt lat="48.04053" lon="-1.56396">
        <ele>44.17393</ele>
      </trkpt>
      <trkpt lat="48.04051" lon="-1.56386">
        <ele>43.79254</ele>
      </trkpt>
      <trkpt lat="48.0405" lon="-1.56376">
        <ele>43.49185</ele>
      </trkpt>
      <trkpt lat="48.04049" lon="-1.56366">
        <ele>43.26161</ele>
      </trkpt>
      <trkpt lat="48.04047" lon="-1.56357">
        <ele>43.07337</ele>
      </trkpt>
      <trkpt lat="48.04046" lon="-1.56348">
        <ele>42.90528</ele>
      </trkpt>
      <trkpt lat="48.04047" lon="-1.56343">
        <ele>42.7653</ele>
      </trkpt>
      <trkpt lat="48.04047" lon="-1.56336">
        <ele>42.6163</ele>
      </trkpt>
      <trkpt lat="48.04047" lon="-1.56336">
        <ele>42.6163</ele>
      </trkpt>
      <trkpt lat="48.04047" lon="-1.56332">
        <ele>42.53535</ele>
      </trkpt>
      <trkpt lat="48.0405" lon="-1.5633">
        <ele>42.44126</ele>
      </trkpt>
      <trkpt lat="48.04053" lon="-1.56328">
        <ele>42.34891</ele>
      </trkpt>
      <trkpt lat="48.04054" lon="-1.56325">
        <ele>42.26432</ele>
      </trkpt>
      <trkpt lat="48.04056" lon="-1.56324">
        <ele>42.20399</ele>
      </trkpt>
      <trkpt lat="48.04059" lon="-1.56324">
        <ele>42.12058</ele>
      </trkpt>
      <trkpt lat="48.04062" lon="-1.56324">
        <ele>41.99527</ele>
      </trkpt>
      <trkpt lat="48.04066" lon="-1.56323">
        <ele>41.83861</ele>
      </trkpt>
      <trkpt lat="48.0407" lon="-1.56322">
        <ele>41.67083</ele>
      </trkpt>
      <trkpt lat="48.04074" lon="-1.56322">
        <ele>41.48777</ele>
      </trkpt>
      <trkpt lat="48.04078" lon="-1.56321">
        <ele>41.3079</ele>
      </trkpt>
      <trkpt lat="48.04083" lon="-1.5632">
        <ele>41.10106</ele>
      </trkpt>
      <trkpt lat="48.04088" lon="-1.56319">
        <ele>40.86853</ele>
      </trkpt>
      <trkpt lat="48.04093" lon="-1.56318">
        <ele>40.66453</ele>
      </trkpt>
      <trkpt lat="48.04098" lon="-1.56318">
        <ele>40.44987</ele>
      </trkpt>
      <trkpt lat="48.04102" lon="-1.56317">
        <ele>40.25021</ele>
      </trkpt>
      <trkpt lat="48.04107" lon="-1.56316">
        <ele>40.07498</ele>
      </trkpt>
      <trkpt lat="48.04112" lon="-1.56316">
        <ele>39.92942</ele>
      </trkpt>
      <trkpt lat="48.04118" lon="-1.56315">
        <ele>39.81393</ele>
      </trkpt>
      <trkpt lat="48.04123" lon="-1.56315">
        <ele>39.69442</ele>
      </trkpt>
      <trkpt lat="48.04128" lon="-1.56314">
        <ele>39.58777</ele>
      </trkpt>
      <trkpt lat="48.04133" lon="-1.56313">
        <ele>39.47968</ele>
      </trkpt>
      <trkpt lat="48.04138" lon="-1.56312">
        <ele>39.38301</ele>
      </trkpt>
      <trkpt lat="48.04144" lon="-1.56311">
        <ele>39.27718</ele>
      </trkpt>
      <trkpt lat="48.04149" lon="-1.5631">
        <ele>39.15747</ele>
      </trkpt>
      <trkpt lat="48.04154" lon="-1.5631">
        <ele>39.0439</ele>
      </trkpt>
      <trkpt lat="48.0416" lon="-1.56309">
        <ele>38.93945</ele>
      </trkpt>
      <trkpt lat="48.04165" lon="-1.56309">
        <ele>38.83645</ele>
      </trkpt>
      <trkpt lat="48.04169" lon="-1.56308">
        <ele>38.7316</ele>
      </trkpt>
      <trkpt lat="48.04173" lon="-1.56307">
        <ele>38.62794</ele>
      </trkpt>
      <trkpt lat="48.04177" lon="-1.56306">
        <ele>38.54183</ele>
      </trkpt>
      <trkpt lat="48.04179" lon="-1.56305">
        <ele>38.46377</ele>
      </trkpt>
      <trkpt lat="48.04181" lon="-1.56305">
        <ele>38.40444</ele>
      </trkpt>
      <trkpt lat="48.04183" lon="-1.56304">
        <ele>38.34356</ele>
      </trkpt>
      <trkpt lat="48.04186" lon="-1.56304">
        <ele>38.27305</ele>
      </trkpt>
      <trkpt lat="48.04189" lon="-1.56304">
        <ele>38.23267</ele>
      </trkpt>
      <trkpt lat="48.04192" lon="-1.56304">
        <ele>38.19266</ele>
      </trkpt>
      <trkpt lat="48.04195" lon="-1.56303">
        <ele>38.14837</ele>
      </trkpt>
      <trkpt lat="48.04199" lon="-1.56303">
        <ele>38.09858</ele>
      </trkpt>
      <trkpt lat="48.04203" lon="-1.56302">
        <ele>38.04539</ele>
      </trkpt>
      <trkpt lat="48.04207" lon="-1.56301">
        <ele>37.98966</ele>
      </trkpt>
      <trkpt lat="48.04212" lon="-1.56301">
        <ele>37.92077</ele>
      </trkpt>
      <trkpt lat="48.04216" lon="-1.563">
        <ele>37.83759</ele>
      </trkpt>
      <trkpt lat="48.04221" lon="-1.56299">
        <ele>37.73411</ele>
      </trkpt>
      <trkpt lat="48.04226" lon="-1.56299">
        <ele>37.62047</ele>
      </trkpt>
      <trkpt lat="48.04231" lon="-1.56298">
        <ele>37.50544</ele>
      </trkpt>
      <trkpt lat="48.04236" lon="-1.56298">
        <ele>37.41127</ele>
      </trkpt>
      <trkpt lat="48.04241" lon="-1.56297">
        <ele>37.32552</ele>
      </trkpt>
      <trkpt lat="48.04246" lon="-1.56297">
        <ele>37.2411</ele>
      </trkpt>
      <trkpt lat="48.04252" lon="-1.56296">
        <ele>37.16066</ele>
      </trkpt>
      <trkpt lat="48.04257" lon="-1.56296">
        <ele>37.07798</ele>
      </trkpt>
      <trkpt lat="48.04262" lon="-1.56294">
        <ele>36.99174</ele>
      </trkpt>
      <trkpt lat="48.04267" lon="-1.56293">
        <ele>36.91683</ele>
      </trkpt>
      <trkpt lat="48.04272" lon="-1.56291">
        <ele>36.84292</ele>
      </trkpt>
      <trkpt lat="48.04278" lon="-1.5629">
        <ele>36.76123</ele>
      </trkpt>
      <trkpt lat="48.04283" lon="-1.56289">
        <ele>36.66563</ele>
      </trkpt>
      <trkpt lat="48.04289" lon="-1.56288">
        <ele>36.53911</ele>
      </trkpt>
      <trkpt lat="48.04295" lon="-1.56287">
        <ele>36.41557</ele>
      </trkpt>
      <trkpt lat="48.04301" lon="-1.56286">
        <ele>36.31338</ele>
      </trkpt>
      <trkpt lat="48.04307" lon="-1.56285">
        <ele>36.23105</ele>
      </trkpt>
      <trkpt lat="48.04313" lon="-1.56285">
        <ele>36.15324</ele>
      </trkpt>
      <trkpt lat="48.04318" lon="-1.56284">
        <ele>36.095</ele>
      </trkpt>
      <trkpt lat="48.04324" lon="-1.56283">
        <ele>36.08195</ele>
      </trkpt>
      <trkpt lat="48.04329" lon="-1.56283">
        <ele>36.13179</ele>
      </trkpt>
      <trkpt lat="48.04334" lon="-1.56282">
        <ele>36.2271</ele>
      </trkpt>
      <trkpt lat="48.04339" lon="-1.56281">
        <ele>36.34032</ele>
      </trkpt>
      <trkpt lat="48.04344" lon="-1.5628">
        <ele>36.44932</ele>
      </trkpt>
      <trkpt lat="48.04349" lon="-1.56279">
        <ele>36.52767</ele>
      </trkpt>
      <trkpt lat="48.04354" lon="-1.56278">
        <ele>36.57768</ele>
      </trkpt>
      <trkpt lat="48.04359" lon="-1.56277">
        <ele>36.62254</ele>
      </trkpt>
      <trkpt lat="48.04364" lon="-1.56277">
        <ele>36.67854</ele>
      </trkpt>
      <trkpt lat="48.04369" lon="-1.56276">
        <ele>36.76414</ele>
      </trkpt>
      <trkpt lat="48.04374" lon="-1.56275">
        <ele>36.88049</ele>
      </trkpt>
      <trkpt lat="48.04379" lon="-1.56274">
        <ele>37.01902</ele>
      </trkpt>
      <trkpt lat="48.04384" lon="-1.56273">
        <ele>37.16168</ele>
      </trkpt>
      <trkpt lat="48.04388" lon="-1.56273">
        <ele>37.29816</ele>
      </trkpt>
      <trkpt lat="48.04393" lon="-1.56272">
        <ele>37.42406</ele>
      </trkpt>
      <trkpt lat="48.04398" lon="-1.56271">
        <ele>37.54685</ele>
      </trkpt>
      <trkpt lat="48.04402" lon="-1.56271">
        <ele>37.67895</ele>
      </trkpt>
      <trkpt lat="48.04406" lon="-1.5627">
        <ele>37.81635</ele>
      </trkpt>
      <trkpt lat="48.0441" lon="-1.5627">
        <ele>37.95865</ele>
      </trkpt>
      <trkpt lat="48.04414" lon="-1.56269">
        <ele>38.1063</ele>
      </trkpt>
      <trkpt lat="48.04418" lon="-1.56269">
        <ele>38.26519</ele>
      </trkpt>
      <trkpt lat="48.04422" lon="-1.56268">
        <ele>38.4468</ele>
      </trkpt>
      <trkpt lat="48.04426" lon="-1.56268">
        <ele>38.62819</ele>
      </trkpt>
      <trkpt lat="48.0443" lon="-1.56267">
        <ele>38.80892</ele>
      </trkpt>
      <trkpt lat="48.04433" lon="-1.56267">
        <ele>38.96339</ele>
      </trkpt>
      <trkpt lat="48.04437" lon="-1.56266">
        <ele>39.09055</ele>
      </trkpt>
      <trkpt lat="48.0444" lon="-1.56264">
        <ele>39.18416</ele>
      </trkpt>
      <trkpt lat="48.0444" lon="-1.56264">
        <ele>39.18416</ele>
        <time>2021-12-26T09:52:51.999Z</time>
      </trkpt>
      <trkpt lat="48.04443" lon="-1.56261">
        <ele>39.26092</ele>
        <time>2021-12-26T09:52:52.999Z</time>
      </trkpt>
      <trkpt lat="48.04446" lon="-1.56258">
        <ele>39.31277</ele>
        <time>2021-12-26T09:52:53.999Z</time>
      </trkpt>
      <trkpt lat="48.04448" lon="-1.56253">
        <ele>39.3339</ele>
        <time>2021-12-26T09:52:54.999Z</time>
      </trkpt>
      <trkpt lat="48.04448" lon="-1.56247">
        <ele>39.31539</ele>
        <time>2021-12-26T09:52:55.999Z</time>
      </trkpt>
      <trkpt lat="48.04448" lon="-1.56242">
        <ele>39.28278</ele>
        <time>2021-12-26T09:52:56.999Z</time>
      </trkpt>
      <trkpt lat="48.04447" lon="-1.56236">
        <ele>39.25492</ele>
        <time>2021-12-26T09:52:57.999Z</time>
      </trkpt>
      <trkpt lat="48.04447" lon="-1.5623">
        <ele>39.23959</ele>
        <time>2021-12-26T09:52:58.999Z</time>
      </trkpt>
      <trkpt lat="48.04447" lon="-1.56224">
        <ele>39.23732</ele>
        <time>2021-12-26T09:52:59.999Z</time>
      </trkpt>
      <trkpt lat="48.04447" lon="-1.56218">
        <ele>39.2487</ele>
        <time>2021-12-26T09:53:00.999Z</time>
      </trkpt>
      <trkpt lat="48.04447" lon="-1.56212">
        <ele>39.27035</ele>
        <time>2021-12-26T09:53:01.999Z</time>
      </trkpt>
      <trkpt lat="48.04447" lon="-1.56206">
        <ele>39.30112</ele>
        <time>2021-12-26T09:53:02.999Z</time>
      </trkpt>
      <trkpt lat="48.04447" lon="-1.562">
        <ele>39.34045</ele>
        <time>2021-12-26T09:53:03.999Z</time>
      </trkpt>
      <trkpt lat="48.04447" lon="-1.56194">
        <ele>39.388</ele>
        <time>2021-12-26T09:53:04.999Z</time>
      </trkpt>
      <trkpt lat="48.04447" lon="-1.56187">
        <ele>39.44069</ele>
        <time>2021-12-26T09:53:05.999Z</time>
      </trkpt>
      <trkpt lat="48.04447" lon="-1.56181">
        <ele>39.49873</ele>
        <time>2021-12-26T09:53:06.999Z</time>
      </trkpt>
      <trkpt lat="48.04447" lon="-1.56175">
        <ele>39.56658</ele>
        <time>2021-12-26T09:53:07.999Z</time>
      </trkpt>
      <trkpt lat="48.04447" lon="-1.56168">
        <ele>39.63973</ele>
        <time>2021-12-26T09:53:08.999Z</time>
      </trkpt>
      <trkpt lat="48.04447" lon="-1.56162">
        <ele>39.7128</ele>
        <time>2021-12-26T09:53:09.999Z</time>
      </trkpt>
      <trkpt lat="48.04446" lon="-1.56156">
        <ele>39.78751</ele>
        <time>2021-12-26T09:53:10.999Z</time>
      </trkpt>
      <trkpt lat="48.04445" lon="-1.5615">
        <ele>39.86301</ele>
        <time>2021-12-26T09:53:11.999Z</time>
      </trkpt>
      <trkpt lat="48.04444" lon="-1.56144">
        <ele>39.93891</ele>
        <time>2021-12-26T09:53:12.999Z</time>
      </trkpt>
      <trkpt lat="48.04443" lon="-1.56138">
        <ele>40.01116</ele>
        <time>2021-12-26T09:53:13.999Z</time>
      </trkpt>
      <trkpt lat="48.04442" lon="-1.56133">
        <ele>40.08181</ele>
        <time>2021-12-26T09:53:14.999Z</time>
      </trkpt>
      <trkpt lat="48.04441" lon="-1.56127">
        <ele>40.14891</ele>
        <time>2021-12-26T09:53:15.999Z</time>
      </trkpt>
      <trkpt lat="48.0444" lon="-1.56123">
        <ele>40.20202</ele>
        <time>2021-12-26T09:53:16.999Z</time>
      </trkpt>
      <trkpt lat="48.04441" lon="-1.56119">
        <ele>40.25361</ele>
        <time>2021-12-26T09:54:23.999Z</time>
      </trkpt>
      <trkpt lat="48.04441" lon="-1.56116">
        <ele>40.29476</ele>
        <time>2021-12-26T09:54:24.999Z</time>
      </trkpt>
      <trkpt lat="48.04441" lon="-1.56113">
        <ele>40.34266</ele>
        <time>2021-12-26T09:54:25.999Z</time>
      </trkpt>
      <trkpt lat="48.04441" lon="-1.56111">
        <ele>40.38824</ele>
        <time>2021-12-26T09:54:26.999Z</time>
      </trkpt>
      <trkpt lat="48.04441" lon="-1.56107">
        <ele>40.44691</ele>
        <time>2021-12-26T09:54:27.999Z</time>
      </trkpt>
      <trkpt lat="48.04441" lon="-1.56103">
        <ele>40.51943</ele>
        <time>2021-12-26T09:54:28.999Z</time>
      </trkpt>
      <trkpt lat="48.0444" lon="-1.56098">
        <ele>40.60057</ele>
        <time>2021-12-26T09:54:29.999Z</time>
      </trkpt>
      <trkpt lat="48.0444" lon="-1.56093">
        <ele>40.67734</ele>
        <time>2021-12-26T09:54:30.999Z</time>
      </trkpt>
      <trkpt lat="48.04439" lon="-1.56087">
        <ele>40.7472</ele>
        <time>2021-12-26T09:54:31.999Z</time>
      </trkpt>
      <trkpt lat="48.04439" lon="-1.56082">
        <ele>40.7923</ele>
        <time>2021-12-26T09:54:32.999Z</time>
      </trkpt>
      <trkpt lat="48.04439" lon="-1.56077">
        <ele>40.81759</ele>
        <time>2021-12-26T09:54:33.999Z</time>
      </trkpt>
      <trkpt lat="48.04439" lon="-1.56072">
        <ele>40.83217</ele>
        <time>2021-12-26T09:54:34.999Z</time>
      </trkpt>
      <trkpt lat="48.04438" lon="-1.56066">
        <ele>40.84472</ele>
        <time>2021-12-26T09:54:35.999Z</time>
      </trkpt>
      <trkpt lat="48.04439" lon="-1.5606">
        <ele>40.83625</ele>
        <time>2021-12-26T09:54:36.999Z</time>
      </trkpt>
      <trkpt lat="48.04439" lon="-1.56054">
        <ele>40.85183</ele>
        <time>2021-12-26T09:54:37.999Z</time>
      </trkpt>
      <trkpt lat="48.04439" lon="-1.56048">
        <ele>40.86515</ele>
        <time>2021-12-26T09:54:38.999Z</time>
      </trkpt>
      <trkpt lat="48.04439" lon="-1.56045">
        <ele>40.88583</ele>
        <time>2021-12-26T09:54:39.999Z</time>
      </trkpt>
      <trkpt lat="48.04439" lon="-1.5604">
        <ele>40.93516</ele>
        <time>2021-12-26T09:54:40.999Z</time>
      </trkpt>
      <trkpt lat="48.04438" lon="-1.56036">
        <ele>41.02437</ele>
        <time>2021-12-26T09:54:41.999Z</time>
      </trkpt>
      <trkpt lat="48.04437" lon="-1.56032">
        <ele>41.11555</ele>
        <time>2021-12-26T09:54:42.999Z</time>
      </trkpt>
      <trkpt lat="48.04436" lon="-1.56027">
        <ele>41.18264</ele>
        <time>2021-12-26T09:54:43.999Z</time>
      </trkpt>
      <trkpt lat="48.04436" lon="-1.56021">
        <ele>41.23748</ele>
        <time>2021-12-26T09:54:44.999Z</time>
      </trkpt>
      <trkpt lat="48.04435" lon="-1.56016">
        <ele>41.29578</ele>
        <time>2021-12-26T09:54:45.999Z</time>
      </trkpt>
      <trkpt lat="48.04434" lon="-1.56011">
        <ele>41.35256</ele>
        <time>2021-12-26T09:54:46.999Z</time>
      </trkpt>
      <trkpt lat="48.04434" lon="-1.56005">
        <ele>41.37437</ele>
        <time>2021-12-26T09:54:47.999Z</time>
      </trkpt>
      <trkpt lat="48.04434" lon="-1.56">
        <ele>41.40511</ele>
        <time>2021-12-26T09:54:48.999Z</time>
      </trkpt>
      <trkpt lat="48.04433" lon="-1.55994">
        <ele>41.4245</ele>
        <time>2021-12-26T09:54:49.999Z</time>
      </trkpt>
      <trkpt lat="48.04433" lon="-1.55988">
        <ele>41.44251</ele>
        <time>2021-12-26T09:54:50.999Z</time>
      </trkpt>
      <trkpt lat="48.04433" lon="-1.55982">
        <ele>41.44318</ele>
        <time>2021-12-26T09:54:51.999Z</time>
      </trkpt>
      <trkpt lat="48.04432" lon="-1.55976">
        <ele>41.43186</ele>
        <time>2021-12-26T09:54:52.999Z</time>
      </trkpt>
      <trkpt lat="48.04432" lon="-1.5597">
        <ele>41.41398</ele>
        <time>2021-12-26T09:54:53.999Z</time>
      </trkpt>
      <trkpt lat="48.04431" lon="-1.55964">
        <ele>41.39674</ele>
        <time>2021-12-26T09:54:54.999Z</time>
      </trkpt>
      <trkpt lat="48.04431" lon="-1.55958">
        <ele>41.40215</ele>
        <time>2021-12-26T09:54:55.999Z</time>
      </trkpt>
      <trkpt lat="48.04431" lon="-1.55952">
        <ele>41.44644</ele>
        <time>2021-12-26T09:54:56.999Z</time>
      </trkpt>
      <trkpt lat="48.0443" lon="-1.55946">
        <ele>41.54026</ele>
        <time>2021-12-26T09:54:57.999Z</time>
      </trkpt>
      <trkpt lat="48.0443" lon="-1.5594">
        <ele>41.6848</ele>
        <time>2021-12-26T09:54:58.999Z</time>
      </trkpt>
      <trkpt lat="48.04429" lon="-1.55935">
        <ele>41.84219</ele>
        <time>2021-12-26T09:54:59.999Z</time>
      </trkpt>
      <trkpt lat="48.04429" lon="-1.55929">
        <ele>42.00957</ele>
        <time>2021-12-26T09:55:00.999Z</time>
      </trkpt>
      <trkpt lat="48.04428" lon="-1.55923">
        <ele>42.14727</ele>
        <time>2021-12-26T09:55:01.999Z</time>
      </trkpt>
      <trkpt lat="48.04428" lon="-1.55918">
        <ele>42.23917</ele>
        <time>2021-12-26T09:55:02.999Z</time>
      </trkpt>
      <trkpt lat="48.04428" lon="-1.55912">
        <ele>42.31626</ele>
        <time>2021-12-26T09:55:03.999Z</time>
      </trkpt>
      <trkpt lat="48.04426" lon="-1.55907">
        <ele>42.41525</ele>
        <time>2021-12-26T09:55:04.999Z</time>
      </trkpt>
      <trkpt lat="48.04425" lon="-1.55902">
        <ele>42.49925</ele>
        <time>2021-12-26T09:55:05.999Z</time>
      </trkpt>
      <trkpt lat="48.04425" lon="-1.55896">
        <ele>42.54605</ele>
        <time>2021-12-26T09:55:06.999Z</time>
      </trkpt>
      <trkpt lat="48.04425" lon="-1.55891">
        <ele>42.57043</ele>
        <time>2021-12-26T09:55:07.999Z</time>
      </trkpt>
      <trkpt lat="48.04425" lon="-1.55885">
        <ele>42.58151</ele>
        <time>2021-12-26T09:55:08.999Z</time>
      </trkpt>
      <trkpt lat="48.04424" lon="-1.55879">
        <ele>42.59666</ele>
        <time>2021-12-26T09:55:09.999Z</time>
      </trkpt>
      <trkpt lat="48.04424" lon="-1.55873">
        <ele>42.64108</ele>
        <time>2021-12-26T09:55:10.999Z</time>
      </trkpt>
      <trkpt lat="48.04424" lon="-1.55867">
        <ele>42.66048</ele>
        <time>2021-12-26T09:55:11.999Z</time>
      </trkpt>
      <trkpt lat="48.04424" lon="-1.55861">
        <ele>42.62158</ele>
        <time>2021-12-26T09:55:12.999Z</time>
      </trkpt>
      <trkpt lat="48.04424" lon="-1.55855">
        <ele>42.50414</ele>
        <time>2021-12-26T09:55:13.999Z</time>
      </trkpt>
      <trkpt lat="48.04424" lon="-1.55848">
        <ele>42.32497</ele>
        <time>2021-12-26T09:55:14.999Z</time>
      </trkpt>
      <trkpt lat="48.04424" lon="-1.55842">
        <ele>42.04105</ele>
        <time>2021-12-26T09:55:15.999Z</time>
      </trkpt>
      <trkpt lat="48.04423" lon="-1.55836">
        <ele>41.90428</ele>
        <time>2021-12-26T09:55:16.999Z</time>
      </trkpt>
      <trkpt lat="48.04423" lon="-1.5583">
        <ele>41.70489</ele>
        <time>2021-12-26T09:55:17.999Z</time>
      </trkpt>
      <trkpt lat="48.04423" lon="-1.55826">
        <ele>41.52325</ele>
        <time>2021-12-26T09:55:18.999Z</time>
      </trkpt>
      <trkpt lat="48.04422" lon="-1.55821">
        <ele>41.61113</ele>
        <time>2021-12-26T09:55:19.999Z</time>
      </trkpt>
      <trkpt lat="48.0442" lon="-1.55817">
        <ele>41.97261</ele>
        <time>2021-12-26T09:55:20.999Z</time>
      </trkpt>
      <trkpt lat="48.0442" lon="-1.55813">
        <ele>42.09607</ele>
        <time>2021-12-26T09:55:21.999Z</time>
      </trkpt>
      <trkpt lat="48.04419" lon="-1.55809">
        <ele>42.20075</ele>
        <time>2021-12-26T09:55:22.999Z</time>
      </trkpt>
      <trkpt lat="48.04419" lon="-1.55804">
        <ele>42.21754</ele>
        <time>2021-12-26T09:55:23.999Z</time>
      </trkpt>
      <trkpt lat="48.04418" lon="-1.55799">
        <ele>42.24372</ele>
        <time>2021-12-26T09:55:24.999Z</time>
      </trkpt>
      <trkpt lat="48.04418" lon="-1.55795">
        <ele>42.26189</ele>
        <time>2021-12-26T09:55:25.999Z</time>
      </trkpt>
      <trkpt lat="48.04417" lon="-1.55792">
        <ele>42.41307</ele>
        <time>2021-12-26T09:55:26.999Z</time>
      </trkpt>
      <trkpt lat="48.04416" lon="-1.55788">
        <ele>42.5774</ele>
        <time>2021-12-26T09:55:27.999Z</time>
      </trkpt>
      <trkpt lat="48.04416" lon="-1.55786">
        <ele>42.62405</ele>
        <time>2021-12-26T09:55:28.999Z</time>
      </trkpt>
      <trkpt lat="48.04416" lon="-1.55782">
        <ele>42.52849</ele>
        <time>2021-12-26T09:55:29.999Z</time>
      </trkpt>
      <trkpt lat="48.04417" lon="-1.55779">
        <ele>42.28531</ele>
        <time>2021-12-26T09:55:30.999Z</time>
      </trkpt>
      <trkpt lat="48.04417" lon="-1.55775">
        <ele>42.09474</ele>
        <time>2021-12-26T09:55:31.999Z</time>
      </trkpt>
      <trkpt lat="48.04417" lon="-1.55775">
        <ele>42.09474</ele>
        <time>2021-12-26T09:55:31.999Z</time>
      </trkpt>
      <trkpt lat="48.04418" lon="-1.5577">
        <ele>41.89148</ele>
        <time>2021-12-26T09:55:32.999Z</time>
      </trkpt>
      <trkpt lat="48.04418" lon="-1.55765">
        <ele>41.7874</ele>
        <time>2021-12-26T09:55:33.999Z</time>
      </trkpt>
      <trkpt lat="48.04417" lon="-1.55761">
        <ele>41.87386</ele>
        <time>2021-12-26T09:55:34.999Z</time>
      </trkpt>
      <trkpt lat="48.04417" lon="-1.55758">
        <ele>41.8878</ele>
        <time>2021-12-26T09:55:35.999Z</time>
      </trkpt>
      <trkpt lat="48.04416" lon="-1.55755">
        <ele>41.7665</ele>
        <time>2021-12-26T09:55:36.999Z</time>
      </trkpt>
      <trkpt lat="48.04417" lon="-1.55752">
        <ele>41.5715</ele>
        <time>2021-12-26T09:55:37.999Z</time>
      </trkpt>
      <trkpt lat="48.04416" lon="-1.55743">
        <ele>40.91944</ele>
        <time>2021-12-26T09:55:39.999Z</time>
      </trkpt>
      <trkpt lat="48.04417" lon="-1.55736">
        <ele>40.21545</ele>
        <time>2021-12-26T09:55:40.999Z</time>
      </trkpt>
      <trkpt lat="48.04416" lon="-1.55731">
        <ele>39.69703</ele>
        <time>2021-12-26T09:55:41.999Z</time>
      </trkpt>
      <trkpt lat="48.04416" lon="-1.55725">
        <ele>39.01025</ele>
        <time>2021-12-26T09:55:42.999Z</time>
      </trkpt>
      <trkpt lat="48.04416" lon="-1.55721">
        <ele>38.53847</ele>
        <time>2021-12-26T09:55:43.999Z</time>
      </trkpt>
      <trkpt lat="48.04416" lon="-1.55716">
        <ele>38.01638</ele>
        <time>2021-12-26T09:55:44.999Z</time>
      </trkpt>
      <trkpt lat="48.04416" lon="-1.55711">
        <ele>37.55985</ele>
        <time>2021-12-26T09:55:45.999Z</time>
      </trkpt>
      <trkpt lat="48.04416" lon="-1.55706">
        <ele>37.05259</ele>
        <time>2021-12-26T09:55:46.999Z</time>
      </trkpt>
      <trkpt lat="48.04415" lon="-1.55701">
        <ele>36.61983</ele>
        <time>2021-12-26T09:55:47.999Z</time>
      </trkpt>
      <trkpt lat="48.04414" lon="-1.55697">
        <ele>36.26228</ele>
        <time>2021-12-26T09:55:48.999Z</time>
      </trkpt>
      <trkpt lat="48.04414" lon="-1.55692">
        <ele>35.81858</ele>
        <time>2021-12-26T09:55:49.999Z</time>
      </trkpt>
      <trkpt lat="48.04414" lon="-1.55686">
        <ele>35.38212</ele>
        <time>2021-12-26T09:55:50.999Z</time>
      </trkpt>
      <trkpt lat="48.04414" lon="-1.55679">
        <ele>34.92522</ele>
        <time>2021-12-26T09:55:51.999Z</time>
      </trkpt>
      <trkpt lat="48.04414" lon="-1.55672">
        <ele>34.47565</ele>
        <time>2021-12-26T09:55:52.999Z</time>
      </trkpt>
      <trkpt lat="48.04414" lon="-1.55665">
        <ele>34.1621</ele>
        <time>2021-12-26T09:55:53.999Z</time>
      </trkpt>
      <trkpt lat="48.04414" lon="-1.55658">
        <ele>33.89491</ele>
        <time>2021-12-26T09:55:54.999Z</time>
      </trkpt>
      <trkpt lat="48.04414" lon="-1.55652">
        <ele>33.68531</ele>
        <time>2021-12-26T09:55:55.999Z</time>
      </trkpt>
      <trkpt lat="48.04414" lon="-1.55646">
        <ele>33.54796</ele>
        <time>2021-12-26T09:55:56.999Z</time>
      </trkpt>
      <trkpt lat="48.04414" lon="-1.5564">
        <ele>33.51532</ele>
        <time>2021-12-26T09:55:57.999Z</time>
      </trkpt>
      <trkpt lat="48.04416" lon="-1.55634">
        <ele>33.65804</ele>
        <time>2021-12-26T09:55:58.999Z</time>
      </trkpt>
      <trkpt lat="48.04416" lon="-1.55628">
        <ele>33.73401</ele>
        <time>2021-12-26T09:55:59.999Z</time>
      </trkpt>
      <trkpt lat="48.04415" lon="-1.55624">
        <ele>33.73991</ele>
        <time>2021-12-26T09:56:00.999Z</time>
      </trkpt>
      <trkpt lat="48.04414" lon="-1.5562">
        <ele>33.66136</ele>
        <time>2021-12-26T09:56:01.999Z</time>
      </trkpt>
      <trkpt lat="48.04413" lon="-1.55618">
        <ele>33.56581</ele>
        <time>2021-12-26T09:56:02.999Z</time>
      </trkpt>
      <trkpt lat="48.0441" lon="-1.55616">
        <ele>33.2894</ele>
        <time>2021-12-26T09:56:04.999Z</time>
      </trkpt>
      <trkpt lat="48.04408" lon="-1.55616">
        <ele>33.08076</ele>
        <time>2021-12-26T09:56:06.999Z</time>
      </trkpt>
      <trkpt lat="48.04405" lon="-1.55616">
        <ele>32.80064</ele>
        <time>2021-12-26T09:56:08.999Z</time>
      </trkpt>
      <trkpt lat="48.04403" lon="-1.55616">
        <ele>32.58134</ele>
        <time>2021-12-26T09:56:10.999Z</time>
      </trkpt>
      <trkpt lat="48.04403" lon="-1.55616">
        <ele>32.58134</ele>
        <time>2021-12-26T09:56:10.999Z</time>
      </trkpt>
      <trkpt lat="48.04399" lon="-1.55618">
        <ele>32.2823</ele>
        <time>2021-12-26T09:56:13.999Z</time>
      </trkpt>
      <trkpt lat="48.04397" lon="-1.5562">
        <ele>32.12476</ele>
        <time>2021-12-26T09:56:14.999Z</time>
      </trkpt>
      <trkpt lat="48.04395" lon="-1.55621">
        <ele>32.01496</ele>
        <time>2021-12-26T09:56:16.000Z</time>
      </trkpt>
      <trkpt lat="48.04393" lon="-1.55623">
        <ele>31.91287</ele>
        <time>2021-12-26T09:56:17.000Z</time>
      </trkpt>
      <trkpt lat="48.04391" lon="-1.55625">
        <ele>31.79144</ele>
        <time>2021-12-26T09:56:18.000Z</time>
      </trkpt>
      <trkpt lat="48.04388" lon="-1.55628">
        <ele>31.67813</ele>
        <time>2021-12-26T09:56:19.000Z</time>
      </trkpt>
      <trkpt lat="48.04385" lon="-1.55634">
        <ele>31.57262</ele>
        <time>2021-12-26T09:56:20.000Z</time>
      </trkpt>
      <trkpt lat="48.04383" lon="-1.55639">
        <ele>31.52124</ele>
        <time>2021-12-26T09:56:21.000Z</time>
      </trkpt>
      <trkpt lat="48.04381" lon="-1.55644">
        <ele>31.51027</ele>
        <time>2021-12-26T09:56:22.000Z</time>
      </trkpt>
      <trkpt lat="48.04378" lon="-1.55649">
        <ele>31.46705</ele>
        <time>2021-12-26T09:56:23.000Z</time>
      </trkpt>
      <trkpt lat="48.04376" lon="-1.55654">
        <ele>31.46628</ele>
        <time>2021-12-26T09:56:24.000Z</time>
      </trkpt>
      <trkpt lat="48.04374" lon="-1.55658">
        <ele>31.45476</ele>
        <time>2021-12-26T09:56:25.000Z</time>
      </trkpt>
      <trkpt lat="48.04371" lon="-1.55662">
        <ele>31.44622</ele>
        <time>2021-12-26T09:56:26.000Z</time>
      </trkpt>
      <trkpt lat="48.04369" lon="-1.55666">
        <ele>31.51289</ele>
        <time>2021-12-26T09:56:27.000Z</time>
      </trkpt>
      <trkpt lat="48.04367" lon="-1.5567">
        <ele>31.55335</ele>
        <time>2021-12-26T09:56:28.000Z</time>
      </trkpt>
      <trkpt lat="48.04364" lon="-1.55674">
        <ele>31.58194</ele>
        <time>2021-12-26T09:56:29.000Z</time>
      </trkpt>
      <trkpt lat="48.04362" lon="-1.55676">
        <ele>31.60147</ele>
        <time>2021-12-26T09:56:30.000Z</time>
      </trkpt>
      <trkpt lat="48.0436" lon="-1.55679">
        <ele>31.57443</ele>
        <time>2021-12-26T09:56:31.000Z</time>
      </trkpt>
      <trkpt lat="48.04357" lon="-1.55681">
        <ele>31.5354</ele>
        <time>2021-12-26T09:56:32.000Z</time>
      </trkpt>
      <trkpt lat="48.04353" lon="-1.55685">
        <ele>31.54164</ele>
        <time>2021-12-26T09:56:33.000Z</time>
      </trkpt>
      <trkpt lat="48.0435" lon="-1.55688">
        <ele>31.54135</ele>
        <time>2021-12-26T09:56:34.000Z</time>
      </trkpt>
      <trkpt lat="48.04347" lon="-1.55691">
        <ele>31.62391</ele>
        <time>2021-12-26T09:56:35.000Z</time>
      </trkpt>
      <trkpt lat="48.04344" lon="-1.55695">
        <ele>31.72395</ele>
        <time>2021-12-26T09:56:36.000Z</time>
      </trkpt>
      <trkpt lat="48.04341" lon="-1.55699">
        <ele>31.84289</ele>
        <time>2021-12-26T09:56:37.000Z</time>
      </trkpt>
      <trkpt lat="48.04339" lon="-1.55703">
        <ele>31.95416</ele>
        <time>2021-12-26T09:56:38.000Z</time>
      </trkpt>
      <trkpt lat="48.04336" lon="-1.55707">
        <ele>32.04279</ele>
        <time>2021-12-26T09:56:39.000Z</time>
      </trkpt>
      <trkpt lat="48.04334" lon="-1.55711">
        <ele>32.08183</ele>
        <time>2021-12-26T09:56:40.000Z</time>
      </trkpt>
      <trkpt lat="48.04331" lon="-1.55714">
        <ele>32.06979</ele>
        <time>2021-12-26T09:56:41.000Z</time>
      </trkpt>
      <trkpt lat="48.04329" lon="-1.55718">
        <ele>32.03093</ele>
        <time>2021-12-26T09:56:42.000Z</time>
      </trkpt>
      <trkpt lat="48.04327" lon="-1.55723">
        <ele>31.98491</ele>
        <time>2021-12-26T09:56:43.000Z</time>
      </trkpt>
      <trkpt lat="48.04325" lon="-1.55727">
        <ele>31.91411</ele>
        <time>2021-12-26T09:56:44.000Z</time>
      </trkpt>
      <trkpt lat="48.04323" lon="-1.55732">
        <ele>31.84911</ele>
        <time>2021-12-26T09:56:45.000Z</time>
      </trkpt>
      <trkpt lat="48.04321" lon="-1.55736">
        <ele>31.81155</ele>
        <time>2021-12-26T09:56:46.000Z</time>
      </trkpt>
      <trkpt lat="48.04319" lon="-1.5574">
        <ele>31.80192</ele>
        <time>2021-12-26T09:56:47.000Z</time>
      </trkpt>
      <trkpt lat="48.04317" lon="-1.55744">
        <ele>31.83558</ele>
        <time>2021-12-26T09:56:48.000Z</time>
      </trkpt>
      <trkpt lat="48.04315" lon="-1.55749">
        <ele>31.9095</ele>
        <time>2021-12-26T09:56:49.000Z</time>
      </trkpt>
      <trkpt lat="48.04313" lon="-1.55754">
        <ele>32.00295</ele>
        <time>2021-12-26T09:56:50.000Z</time>
      </trkpt>
      <trkpt lat="48.04311" lon="-1.55759">
        <ele>32.08243</ele>
        <time>2021-12-26T09:56:51.000Z</time>
      </trkpt>
      <trkpt lat="48.0431" lon="-1.55763">
        <ele>32.14779</ele>
        <time>2021-12-26T09:56:52.000Z</time>
      </trkpt>
      <trkpt lat="48.04308" lon="-1.55768">
        <ele>32.16388</ele>
        <time>2021-12-26T09:56:53.000Z</time>
      </trkpt>
      <trkpt lat="48.04306" lon="-1.55773">
        <ele>32.19509</ele>
        <time>2021-12-26T09:56:54.000Z</time>
      </trkpt>
      <trkpt lat="48.04305" lon="-1.55778">
        <ele>32.22087</ele>
        <time>2021-12-26T09:56:55.000Z</time>
      </trkpt>
      <trkpt lat="48.04303" lon="-1.55782">
        <ele>32.15766</ele>
        <time>2021-12-26T09:56:56.000Z</time>
      </trkpt>
      <trkpt lat="48.04301" lon="-1.55787">
        <ele>32.09558</ele>
        <time>2021-12-26T09:56:57.000Z</time>
      </trkpt>
      <trkpt lat="48.04299" lon="-1.55792">
        <ele>32.00538</ele>
        <time>2021-12-26T09:56:58.000Z</time>
      </trkpt>
      <trkpt lat="48.04297" lon="-1.55796">
        <ele>31.94529</ele>
        <time>2021-12-26T09:56:59.000Z</time>
      </trkpt>
      <trkpt lat="48.04294" lon="-1.55799">
        <ele>31.85688</ele>
        <time>2021-12-26T09:57:00.000Z</time>
      </trkpt>
      <trkpt lat="48.0429" lon="-1.55801">
        <ele>31.82461</ele>
        <time>2021-12-26T09:57:01.000Z</time>
      </trkpt>
      <trkpt lat="48.04287" lon="-1.55803">
        <ele>31.84198</ele>
        <time>2021-12-26T09:57:02.000Z</time>
      </trkpt>
      <trkpt lat="48.04283" lon="-1.55805">
        <ele>31.89606</ele>
        <time>2021-12-26T09:57:03.000Z</time>
      </trkpt>
      <trkpt lat="48.0428" lon="-1.55809">
        <ele>31.94765</ele>
        <time>2021-12-26T09:57:04.000Z</time>
      </trkpt>
      <trkpt lat="48.04277" lon="-1.55813">
        <ele>31.94808</ele>
        <time>2021-12-26T09:57:05.000Z</time>
      </trkpt>
      <trkpt lat="48.04275" lon="-1.55817">
        <ele>31.90016</ele>
        <time>2021-12-26T09:57:06.000Z</time>
      </trkpt>
      <trkpt lat="48.04272" lon="-1.55822">
        <ele>31.83479</ele>
        <time>2021-12-26T09:57:07.000Z</time>
      </trkpt>
      <trkpt lat="48.04269" lon="-1.55825">
        <ele>31.77426</ele>
        <time>2021-12-26T09:57:08.000Z</time>
      </trkpt>
      <trkpt lat="48.04266" lon="-1.55827">
        <ele>31.74005</ele>
        <time>2021-12-26T09:57:09.000Z</time>
      </trkpt>
      <trkpt lat="48.04262" lon="-1.55829">
        <ele>31.74046</ele>
        <time>2021-12-26T09:57:10.000Z</time>
      </trkpt>
      <trkpt lat="48.04259" lon="-1.5583">
        <ele>31.75879</ele>
        <time>2021-12-26T09:57:11.000Z</time>
      </trkpt>
      <trkpt lat="48.04255" lon="-1.55828">
        <ele>31.75518</ele>
        <time>2021-12-26T09:57:12.000Z</time>
      </trkpt>
      <trkpt lat="48.04252" lon="-1.55825">
        <ele>31.71867</ele>
        <time>2021-12-26T09:57:13.000Z</time>
      </trkpt>
      <trkpt lat="48.0425" lon="-1.55821">
        <ele>31.68539</ele>
        <time>2021-12-26T09:57:14.000Z</time>
      </trkpt>
      <trkpt lat="48.04247" lon="-1.55817">
        <ele>31.6813</ele>
        <time>2021-12-26T09:57:15.000Z</time>
      </trkpt>
      <trkpt lat="48.04244" lon="-1.55813">
        <ele>31.70589</ele>
        <time>2021-12-26T09:57:16.000Z</time>
      </trkpt>
      <trkpt lat="48.04242" lon="-1.55808">
        <ele>31.75089</ele>
        <time>2021-12-26T09:57:17.000Z</time>
      </trkpt>
      <trkpt lat="48.0424" lon="-1.55804">
        <ele>31.8169</ele>
        <time>2021-12-26T09:57:18.000Z</time>
      </trkpt>
      <trkpt lat="48.04238" lon="-1.55799">
        <ele>31.88813</ele>
        <time>2021-12-26T09:57:19.000Z</time>
      </trkpt>
      <trkpt lat="48.04236" lon="-1.55795">
        <ele>31.93439</ele>
        <time>2021-12-26T09:57:20.000Z</time>
      </trkpt>
      <trkpt lat="48.04233" lon="-1.55791">
        <ele>31.96059</ele>
        <time>2021-12-26T09:57:21.000Z</time>
      </trkpt>
      <trkpt lat="48.04231" lon="-1.55788">
        <ele>31.96327</ele>
        <time>2021-12-26T09:57:22.000Z</time>
      </trkpt>
      <trkpt lat="48.04228" lon="-1.55786">
        <ele>31.92461</ele>
        <time>2021-12-26T09:57:23.000Z</time>
      </trkpt>
      <trkpt lat="48.04224" lon="-1.55786">
        <ele>31.85746</ele>
        <time>2021-12-26T09:57:24.000Z</time>
      </trkpt>
      <trkpt lat="48.04221" lon="-1.55789">
        <ele>31.78665</ele>
        <time>2021-12-26T09:57:25.000Z</time>
      </trkpt>
      <trkpt lat="48.04219" lon="-1.55793">
        <ele>31.73495</ele>
        <time>2021-12-26T09:57:26.000Z</time>
      </trkpt>
      <trkpt lat="48.04216" lon="-1.55798">
        <ele>31.69473</ele>
        <time>2021-12-26T09:57:27.000Z</time>
      </trkpt>
      <trkpt lat="48.04214" lon="-1.55803">
        <ele>31.65882</ele>
        <time>2021-12-26T09:57:28.000Z</time>
      </trkpt>
      <trkpt lat="48.04211" lon="-1.55808">
        <ele>31.65095</ele>
        <time>2021-12-26T09:57:29.000Z</time>
      </trkpt>
      <trkpt lat="48.0421" lon="-1.55814">
        <ele>31.67022</ele>
        <time>2021-12-26T09:57:30.000Z</time>
      </trkpt>
      <trkpt lat="48.04207" lon="-1.5582">
        <ele>31.68506</ele>
        <time>2021-12-26T09:57:31.000Z</time>
      </trkpt>
      <trkpt lat="48.04205" lon="-1.55825">
        <ele>31.67406</ele>
        <time>2021-12-26T09:57:32.000Z</time>
      </trkpt>
      <trkpt lat="48.04202" lon="-1.55829">
        <ele>31.614</ele>
        <time>2021-12-26T09:57:33.000Z</time>
      </trkpt>
      <trkpt lat="48.04198" lon="-1.55832">
        <ele>31.50543</ele>
        <time>2021-12-26T09:57:34.000Z</time>
      </trkpt>
      <trkpt lat="48.04194" lon="-1.55834">
        <ele>31.36202</ele>
        <time>2021-12-26T09:57:35.000Z</time>
      </trkpt>
      <trkpt lat="48.0419" lon="-1.55837">
        <ele>31.21104</ele>
        <time>2021-12-26T09:57:36.000Z</time>
      </trkpt>
      <trkpt lat="48.04186" lon="-1.55839">
        <ele>31.06837</ele>
        <time>2021-12-26T09:57:37.000Z</time>
      </trkpt>
      <trkpt lat="48.04182" lon="-1.55841">
        <ele>30.95311</ele>
        <time>2021-12-26T09:57:38.000Z</time>
      </trkpt>
      <trkpt lat="48.04178" lon="-1.55845">
        <ele>30.85926</ele>
        <time>2021-12-26T09:57:39.000Z</time>
      </trkpt>
      <trkpt lat="48.04175" lon="-1.55848">
        <ele>30.81579</ele>
        <time>2021-12-26T09:57:40.000Z</time>
      </trkpt>
      <trkpt lat="48.04172" lon="-1.55852">
        <ele>30.82611</ele>
        <time>2021-12-26T09:57:41.000Z</time>
      </trkpt>
      <trkpt lat="48.04168" lon="-1.55856">
        <ele>30.88202</ele>
        <time>2021-12-26T09:57:42.000Z</time>
      </trkpt>
      <trkpt lat="48.04164" lon="-1.55857">
        <ele>30.95968</ele>
        <time>2021-12-26T09:57:43.000Z</time>
      </trkpt>
      <trkpt lat="48.0416" lon="-1.55856">
        <ele>30.98157</ele>
        <time>2021-12-26T09:57:44.000Z</time>
      </trkpt>
      <trkpt lat="48.04157" lon="-1.55852">
        <ele>30.94723</ele>
        <time>2021-12-26T09:57:45.000Z</time>
      </trkpt>
      <trkpt lat="48.04154" lon="-1.55848">
        <ele>30.88619</ele>
        <time>2021-12-26T09:57:46.000Z</time>
      </trkpt>
      <trkpt lat="48.04151" lon="-1.55844">
        <ele>30.82221</ele>
        <time>2021-12-26T09:57:47.000Z</time>
      </trkpt>
      <trkpt lat="48.04148" lon="-1.55839">
        <ele>30.7729</ele>
        <time>2021-12-26T09:57:48.000Z</time>
      </trkpt>
      <trkpt lat="48.04145" lon="-1.55834">
        <ele>30.75482</ele>
        <time>2021-12-26T09:57:49.000Z</time>
      </trkpt>
      <trkpt lat="48.04142" lon="-1.5583">
        <ele>30.77853</ele>
        <time>2021-12-26T09:57:50.000Z</time>
      </trkpt>
      <trkpt lat="48.0414" lon="-1.55825">
        <ele>30.8426</ele>
        <time>2021-12-26T09:57:51.000Z</time>
      </trkpt>
      <trkpt lat="48.04137" lon="-1.5582">
        <ele>30.93561</ele>
        <time>2021-12-26T09:57:52.000Z</time>
      </trkpt>
      <trkpt lat="48.04134" lon="-1.55816">
        <ele>31.0555</ele>
        <time>2021-12-26T09:57:53.000Z</time>
      </trkpt>
      <trkpt lat="48.04131" lon="-1.55812">
        <ele>31.19701</ele>
        <time>2021-12-26T09:57:54.000Z</time>
      </trkpt>
      <trkpt lat="48.04128" lon="-1.55808">
        <ele>31.40285</ele>
        <time>2021-12-26T09:57:55.000Z</time>
      </trkpt>
      <trkpt lat="48.04125" lon="-1.55804">
        <ele>31.60083</ele>
        <time>2021-12-26T09:57:56.000Z</time>
      </trkpt>
      <trkpt lat="48.04121" lon="-1.55802">
        <ele>31.77699</ele>
        <time>2021-12-26T09:57:57.000Z</time>
      </trkpt>
      <trkpt lat="48.04116" lon="-1.55801">
        <ele>31.96386</ele>
        <time>2021-12-26T09:57:58.000Z</time>
      </trkpt>
      <trkpt lat="48.04112" lon="-1.558">
        <ele>32.11473</ele>
        <time>2021-12-26T09:57:59.000Z</time>
      </trkpt>
      <trkpt lat="48.04108" lon="-1.558">
        <ele>32.18479</ele>
        <time>2021-12-26T09:58:00.000Z</time>
      </trkpt>
      <trkpt lat="48.04103" lon="-1.55801">
        <ele>32.19901</ele>
        <time>2021-12-26T09:58:01.000Z</time>
      </trkpt>
      <trkpt lat="48.04099" lon="-1.55803">
        <ele>32.17476</ele>
        <time>2021-12-26T09:58:02.000Z</time>
      </trkpt>
      <trkpt lat="48.04095" lon="-1.55805">
        <ele>32.12745</ele>
        <time>2021-12-26T09:58:03.000Z</time>
      </trkpt>
      <trkpt lat="48.04091" lon="-1.55808">
        <ele>31.96901</ele>
        <time>2021-12-26T09:58:04.000Z</time>
      </trkpt>
      <trkpt lat="48.04089" lon="-1.55813">
        <ele>31.623</ele>
        <time>2021-12-26T09:58:05.000Z</time>
      </trkpt>
      <trkpt lat="48.04087" lon="-1.55819">
        <ele>31.13239</ele>
        <time>2021-12-26T09:58:06.000Z</time>
      </trkpt>
      <trkpt lat="48.04086" lon="-1.55826">
        <ele>30.71098</ele>
        <time>2021-12-26T09:58:07.000Z</time>
      </trkpt>
      <trkpt lat="48.04085" lon="-1.55834">
        <ele>30.50865</ele>
        <time>2021-12-26T09:58:08.000Z</time>
      </trkpt>
      <trkpt lat="48.04083" lon="-1.55842">
        <ele>30.4811</ele>
        <time>2021-12-26T09:58:09.000Z</time>
      </trkpt>
      <trkpt lat="48.04081" lon="-1.55849">
        <ele>30.50376</ele>
        <time>2021-12-26T09:58:10.000Z</time>
      </trkpt>
      <trkpt lat="48.04079" lon="-1.55855">
        <ele>30.49917</ele>
        <time>2021-12-26T09:58:11.000Z</time>
      </trkpt>
      <trkpt lat="48.04076" lon="-1.55861">
        <ele>30.47992</ele>
        <time>2021-12-26T09:58:12.000Z</time>
      </trkpt>
      <trkpt lat="48.04073" lon="-1.55867">
        <ele>30.4912</ele>
        <time>2021-12-26T09:58:13.000Z</time>
      </trkpt>
      <trkpt lat="48.0407" lon="-1.55871">
        <ele>30.51341</ele>
        <time>2021-12-26T09:58:14.000Z</time>
      </trkpt>
      <trkpt lat="48.04066" lon="-1.55873">
        <ele>30.53998</ele>
        <time>2021-12-26T09:58:15.000Z</time>
      </trkpt>
      <trkpt lat="48.04062" lon="-1.55876">
        <ele>30.53858</ele>
        <time>2021-12-26T09:58:16.000Z</time>
      </trkpt>
      <trkpt lat="48.04059" lon="-1.55879">
        <ele>30.50807</ele>
        <time>2021-12-26T09:58:17.000Z</time>
      </trkpt>
      <trkpt lat="48.04055" lon="-1.55883">
        <ele>30.46306</ele>
        <time>2021-12-26T09:58:18.000Z</time>
      </trkpt>
      <trkpt lat="48.04052" lon="-1.55886">
        <ele>30.3999</ele>
        <time>2021-12-26T09:58:19.000Z</time>
      </trkpt>
      <trkpt lat="48.04048" lon="-1.5589">
        <ele>30.32675</ele>
        <time>2021-12-26T09:58:20.000Z</time>
      </trkpt>
      <trkpt lat="48.04044" lon="-1.55892">
        <ele>30.30469</ele>
        <time>2021-12-26T09:58:21.000Z</time>
      </trkpt>
      <trkpt lat="48.04041" lon="-1.5589">
        <ele>30.36719</ele>
        <time>2021-12-26T09:58:22.000Z</time>
      </trkpt>
      <trkpt lat="48.04038" lon="-1.55887">
        <ele>30.4993</ele>
        <time>2021-12-26T09:58:23.000Z</time>
      </trkpt>
      <trkpt lat="48.04035" lon="-1.55883">
        <ele>30.70955</ele>
        <time>2021-12-26T09:58:24.000Z</time>
      </trkpt>
      <trkpt lat="48.04033" lon="-1.55879">
        <ele>31.01651</ele>
        <time>2021-12-26T09:58:25.000Z</time>
      </trkpt>
      <trkpt lat="48.04031" lon="-1.55874">
        <ele>31.4061</ele>
        <time>2021-12-26T09:58:26.000Z</time>
      </trkpt>
      <trkpt lat="48.04029" lon="-1.5587">
        <ele>31.85881</ele>
        <time>2021-12-26T09:58:27.000Z</time>
      </trkpt>
      <trkpt lat="48.04027" lon="-1.55866">
        <ele>32.30503</ele>
        <time>2021-12-26T09:58:28.000Z</time>
      </trkpt>
      <trkpt lat="48.04025" lon="-1.55862">
        <ele>32.72571</ele>
        <time>2021-12-26T09:58:29.000Z</time>
      </trkpt>
      <trkpt lat="48.04023" lon="-1.55859">
        <ele>33.10745</ele>
        <time>2021-12-26T09:58:30.000Z</time>
      </trkpt>
      <trkpt lat="48.04021" lon="-1.55855">
        <ele>33.40939</ele>
        <time>2021-12-26T09:58:31.000Z</time>
      </trkpt>
      <trkpt lat="48.04019" lon="-1.55851">
        <ele>33.67596</ele>
        <time>2021-12-26T09:58:32.000Z</time>
      </trkpt>
      <trkpt lat="48.04017" lon="-1.55848">
        <ele>33.82726</ele>
        <time>2021-12-26T09:58:33.000Z</time>
      </trkpt>
      <trkpt lat="48.04017" lon="-1.55848">
        <ele>33.82726</ele>
        <time>2021-12-26T09:58:33.000Z</time>
      </trkpt>
      <trkpt lat="48.04015" lon="-1.55846">
        <ele>33.9042</ele>
        <time>2021-12-26T09:58:34.000Z</time>
      </trkpt>
      <trkpt lat="48.04014" lon="-1.55843">
        <ele>34.03316</ele>
        <time>2021-12-26T09:58:35.000Z</time>
      </trkpt>
      <trkpt lat="48.04013" lon="-1.5584">
        <ele>34.18101</ele>
        <time>2021-12-26T09:58:36.000Z</time>
      </trkpt>
      <trkpt lat="48.04011" lon="-1.55836">
        <ele>34.34723</ele>
        <time>2021-12-26T09:58:37.000Z</time>
      </trkpt>
      <trkpt lat="48.0401" lon="-1.55834">
        <ele>34.4517</ele>
        <time>2021-12-26T09:58:38.000Z</time>
      </trkpt>
      <trkpt lat="48.04008" lon="-1.5583">
        <ele>34.59686</ele>
        <time>2021-12-26T09:58:39.000Z</time>
      </trkpt>
      <trkpt lat="48.04007" lon="-1.55827">
        <ele>34.77006</ele>
        <time>2021-12-26T09:58:40.000Z</time>
      </trkpt>
      <trkpt lat="48.04007" lon="-1.55823">
        <ele>34.92539</ele>
        <time>2021-12-26T09:58:41.000Z</time>
      </trkpt>
      <trkpt lat="48.04005" lon="-1.5582">
        <ele>35.07293</ele>
        <time>2021-12-26T09:58:42.000Z</time>
      </trkpt>
      <trkpt lat="48.04005" lon="-1.55816">
        <ele>35.21241</ele>
        <time>2021-12-26T09:58:43.000Z</time>
      </trkpt>
      <trkpt lat="48.04004" lon="-1.55813">
        <ele>35.31744</ele>
        <time>2021-12-26T09:58:44.000Z</time>
      </trkpt>
      <trkpt lat="48.04003" lon="-1.55809">
        <ele>35.39292</ele>
        <time>2021-12-26T09:58:45.000Z</time>
      </trkpt>
      <trkpt lat="48.04003" lon="-1.55806">
        <ele>35.44878</ele>
        <time>2021-12-26T09:58:46.000Z</time>
      </trkpt>
      <trkpt lat="48.04002" lon="-1.55803">
        <ele>35.47967</ele>
        <time>2021-12-26T09:58:47.000Z</time>
      </trkpt>
      <trkpt lat="48.04001" lon="-1.55799">
        <ele>35.52081</ele>
        <time>2021-12-26T09:58:48.000Z</time>
      </trkpt>
      <trkpt lat="48.04" lon="-1.55795">
        <ele>35.55093</ele>
        <time>2021-12-26T09:58:49.000Z</time>
      </trkpt>
      <trkpt lat="48.03999" lon="-1.55791">
        <ele>35.5926</ele>
        <time>2021-12-26T09:58:50.000Z</time>
      </trkpt>
      <trkpt lat="48.03998" lon="-1.55787">
        <ele>35.64408</ele>
        <time>2021-12-26T09:58:51.000Z</time>
      </trkpt>
      <trkpt lat="48.03998" lon="-1.55783">
        <ele>35.71097</ele>
        <time>2021-12-26T09:58:52.000Z</time>
      </trkpt>
      <trkpt lat="48.03997" lon="-1.55779">
        <ele>35.79539</ele>
        <time>2021-12-26T09:58:53.000Z</time>
      </trkpt>
      <trkpt lat="48.03997" lon="-1.55775">
        <ele>35.88725</ele>
        <time>2021-12-26T09:58:54.000Z</time>
      </trkpt>
      <trkpt lat="48.03997" lon="-1.5577">
        <ele>36.00107</ele>
        <time>2021-12-26T09:58:55.000Z</time>
      </trkpt>
      <trkpt lat="48.03996" lon="-1.55767">
        <ele>36.08532</ele>
        <time>2021-12-26T09:58:56.000Z</time>
      </trkpt>
      <trkpt lat="48.03997" lon="-1.55763">
        <ele>36.20633</ele>
        <time>2021-12-26T09:58:57.000Z</time>
      </trkpt>
      <trkpt lat="48.03997" lon="-1.55759">
        <ele>36.31545</ele>
        <time>2021-12-26T09:58:58.000Z</time>
      </trkpt>
      <trkpt lat="48.03997" lon="-1.55755">
        <ele>36.4104</ele>
        <time>2021-12-26T09:58:59.000Z</time>
      </trkpt>
      <trkpt lat="48.03997" lon="-1.55752">
        <ele>36.50539</ele>
        <time>2021-12-26T09:59:00.000Z</time>
      </trkpt>
      <trkpt lat="48.03997" lon="-1.55748">
        <ele>36.62783</ele>
        <time>2021-12-26T09:59:01.000Z</time>
      </trkpt>
      <trkpt lat="48.03998" lon="-1.55744">
        <ele>36.77734</ele>
        <time>2021-12-26T09:59:02.000Z</time>
      </trkpt>
      <trkpt lat="48.03998" lon="-1.55741">
        <ele>36.88921</ele>
        <time>2021-12-26T09:59:03.000Z</time>
      </trkpt>
      <trkpt lat="48.03999" lon="-1.55734">
        <ele>37.19806</ele>
        <time>2021-12-26T09:59:05.000Z</time>
      </trkpt>
      <trkpt lat="48.04" lon="-1.5573">
        <ele>37.35813</ele>
        <time>2021-12-26T09:59:06.000Z</time>
      </trkpt>
      <trkpt lat="48.04001" lon="-1.55726">
        <ele>37.56764</ele>
        <time>2021-12-26T09:59:07.000Z</time>
      </trkpt>
      <trkpt lat="48.04002" lon="-1.55723">
        <ele>37.71887</ele>
        <time>2021-12-26T09:59:08.000Z</time>
      </trkpt>
      <trkpt lat="48.04003" lon="-1.55719">
        <ele>37.87159</ele>
        <time>2021-12-26T09:59:09.000Z</time>
      </trkpt>
      <trkpt lat="48.04003" lon="-1.55715">
        <ele>37.98477</ele>
        <time>2021-12-26T09:59:10.000Z</time>
      </trkpt>
      <trkpt lat="48.04004" lon="-1.55711">
        <ele>38.11139</ele>
        <time>2021-12-26T09:59:11.000Z</time>
      </trkpt>
      <trkpt lat="48.04005" lon="-1.55707">
        <ele>38.21279</ele>
        <time>2021-12-26T09:59:12.000Z</time>
      </trkpt>
      <trkpt lat="48.04006" lon="-1.55704">
        <ele>38.28637</ele>
        <time>2021-12-26T09:59:13.000Z</time>
      </trkpt>
      <trkpt lat="48.04007" lon="-1.557">
        <ele>38.36552</ele>
        <time>2021-12-26T09:59:14.000Z</time>
      </trkpt>
      <trkpt lat="48.04008" lon="-1.55696">
        <ele>38.42181</ele>
        <time>2021-12-26T09:59:15.000Z</time>
      </trkpt>
      <trkpt lat="48.04009" lon="-1.55692">
        <ele>38.4696</ele>
        <time>2021-12-26T09:59:16.000Z</time>
      </trkpt>
      <trkpt lat="48.04011" lon="-1.55689">
        <ele>38.5459</ele>
        <time>2021-12-26T09:59:17.000Z</time>
      </trkpt>
      <trkpt lat="48.04012" lon="-1.55685">
        <ele>38.61361</ele>
        <time>2021-12-26T09:59:18.000Z</time>
      </trkpt>
      <trkpt lat="48.04013" lon="-1.55682">
        <ele>38.66767</ele>
        <time>2021-12-26T09:59:19.000Z</time>
      </trkpt>
      <trkpt lat="48.04015" lon="-1.55677">
        <ele>38.72733</ele>
        <time>2021-12-26T09:59:20.000Z</time>
      </trkpt>
      <trkpt lat="48.04016" lon="-1.55673">
        <ele>38.77026</ele>
        <time>2021-12-26T09:59:21.000Z</time>
      </trkpt>
      <trkpt lat="48.04018" lon="-1.55669">
        <ele>38.79493</ele>
        <time>2021-12-26T09:59:22.000Z</time>
      </trkpt>
      <trkpt lat="48.0402" lon="-1.55664">
        <ele>38.82603</ele>
        <time>2021-12-26T09:59:23.000Z</time>
      </trkpt>
      <trkpt lat="48.04021" lon="-1.5566">
        <ele>38.83833</ele>
        <time>2021-12-26T09:59:24.000Z</time>
      </trkpt>
      <trkpt lat="48.04023" lon="-1.55656">
        <ele>38.85101</ele>
        <time>2021-12-26T09:59:25.000Z</time>
      </trkpt>
      <trkpt lat="48.04024" lon="-1.55651">
        <ele>38.8737</ele>
        <time>2021-12-26T09:59:26.000Z</time>
      </trkpt>
      <trkpt lat="48.04026" lon="-1.55646">
        <ele>38.90903</ele>
        <time>2021-12-26T09:59:27.000Z</time>
      </trkpt>
      <trkpt lat="48.04026" lon="-1.55642">
        <ele>38.94917</ele>
        <time>2021-12-26T09:59:28.000Z</time>
      </trkpt>
      <trkpt lat="48.04027" lon="-1.55637">
        <ele>38.9956</ele>
        <time>2021-12-26T09:59:29.000Z</time>
      </trkpt>
      <trkpt lat="48.04026" lon="-1.55632">
        <ele>39.03125</ele>
        <time>2021-12-26T09:59:30.000Z</time>
      </trkpt>
      <trkpt lat="48.04025" lon="-1.55628">
        <ele>39.06374</ele>
        <time>2021-12-26T09:59:31.000Z</time>
      </trkpt>
      <trkpt lat="48.04025" lon="-1.55628">
        <ele>39.06374</ele>
        <time>2021-12-26T09:59:31.000Z</time>
      </trkpt>
      <trkpt lat="48.04023" lon="-1.55624">
        <ele>39.07207</ele>
        <time>2021-12-26T09:59:32.000Z</time>
      </trkpt>
      <trkpt lat="48.04021" lon="-1.55621">
        <ele>39.08623</ele>
        <time>2021-12-26T09:59:33.000Z</time>
      </trkpt>
      <trkpt lat="48.04018" lon="-1.55619">
        <ele>39.09635</ele>
        <time>2021-12-26T09:59:34.000Z</time>
      </trkpt>
      <trkpt lat="48.04015" lon="-1.55618">
        <ele>39.12123</ele>
        <time>2021-12-26T09:59:35.000Z</time>
      </trkpt>
      <trkpt lat="48.04012" lon="-1.55616">
        <ele>39.1713</ele>
        <time>2021-12-26T09:59:36.000Z</time>
      </trkpt>
      <trkpt lat="48.0401" lon="-1.55614">
        <ele>39.25171</ele>
        <time>2021-12-26T09:59:37.000Z</time>
      </trkpt>
      <trkpt lat="48.04007" lon="-1.55612">
        <ele>39.36143</ele>
        <time>2021-12-26T09:59:38.000Z</time>
      </trkpt>
      <trkpt lat="48.04004" lon="-1.55611">
        <ele>39.48021</ele>
        <time>2021-12-26T09:59:39.000Z</time>
      </trkpt>
      <trkpt lat="48.04001" lon="-1.55609">
        <ele>39.61071</ele>
        <time>2021-12-26T09:59:40.000Z</time>
      </trkpt>
      <trkpt lat="48.03998" lon="-1.55608">
        <ele>39.73927</ele>
        <time>2021-12-26T09:59:41.000Z</time>
      </trkpt>
      <trkpt lat="48.03995" lon="-1.55606">
        <ele>39.87883</ele>
        <time>2021-12-26T09:59:42.000Z</time>
      </trkpt>
      <trkpt lat="48.03993" lon="-1.55603">
        <ele>40.02097</ele>
        <time>2021-12-26T09:59:43.000Z</time>
      </trkpt>
      <trkpt lat="48.0399" lon="-1.55601">
        <ele>40.14764</ele>
        <time>2021-12-26T09:59:44.000Z</time>
      </trkpt>
      <trkpt lat="48.03988" lon="-1.55598">
        <ele>40.26203</ele>
        <time>2021-12-26T09:59:45.000Z</time>
      </trkpt>
      <trkpt lat="48.03986" lon="-1.55596">
        <ele>40.37195</ele>
        <time>2021-12-26T09:59:46.000Z</time>
      </trkpt>
      <trkpt lat="48.03984" lon="-1.55593">
        <ele>40.47538</ele>
        <time>2021-12-26T09:59:47.000Z</time>
      </trkpt>
      <trkpt lat="48.03982" lon="-1.5559">
        <ele>40.57577</ele>
        <time>2021-12-26T09:59:48.000Z</time>
      </trkpt>
      <trkpt lat="48.0398" lon="-1.55587">
        <ele>40.66735</ele>
        <time>2021-12-26T09:59:49.000Z</time>
      </trkpt>
      <trkpt lat="48.03978" lon="-1.55585">
        <ele>40.76626</ele>
        <time>2021-12-26T09:59:50.000Z</time>
      </trkpt>
      <trkpt lat="48.03976" lon="-1.55582">
        <ele>40.87291</ele>
        <time>2021-12-26T09:59:51.000Z</time>
      </trkpt>
      <trkpt lat="48.03974" lon="-1.55579">
        <ele>40.99874</ele>
        <time>2021-12-26T09:59:52.000Z</time>
      </trkpt>
      <trkpt lat="48.03972" lon="-1.55576">
        <ele>41.13512</ele>
        <time>2021-12-26T09:59:53.000Z</time>
      </trkpt>
      <trkpt lat="48.0397" lon="-1.55572">
        <ele>41.29675</ele>
        <time>2021-12-26T09:59:54.000Z</time>
      </trkpt>
      <trkpt lat="48.03968" lon="-1.55569">
        <ele>41.47044</ele>
        <time>2021-12-26T09:59:55.000Z</time>
      </trkpt>
      <trkpt lat="48.03967" lon="-1.55566">
        <ele>41.6451</ele>
        <time>2021-12-26T09:59:56.000Z</time>
      </trkpt>
      <trkpt lat="48.03965" lon="-1.55563">
        <ele>41.81462</ele>
        <time>2021-12-26T09:59:57.000Z</time>
      </trkpt>
      <trkpt lat="48.03963" lon="-1.5556">
        <ele>41.99773</ele>
        <time>2021-12-26T09:59:58.000Z</time>
      </trkpt>
      <trkpt lat="48.03961" lon="-1.55557">
        <ele>42.14805</ele>
        <time>2021-12-26T09:59:59.000Z</time>
      </trkpt>
      <trkpt lat="48.0396" lon="-1.55554">
        <ele>42.2849</ele>
        <time>2021-12-26T10:00:00.000Z</time>
      </trkpt>
      <trkpt lat="48.03958" lon="-1.55552">
        <ele>42.40035</ele>
        <time>2021-12-26T10:00:01.000Z</time>
      </trkpt>
      <trkpt lat="48.03957" lon="-1.55549">
        <ele>42.5248</ele>
        <time>2021-12-26T10:00:02.000Z</time>
      </trkpt>
      <trkpt lat="48.03955" lon="-1.55547">
        <ele>42.65944</ele>
        <time>2021-12-26T10:00:03.000Z</time>
      </trkpt>
      <trkpt lat="48.03953" lon="-1.55545">
        <ele>42.81946</ele>
        <time>2021-12-26T10:00:04.000Z</time>
      </trkpt>
      <trkpt lat="48.03951" lon="-1.55542">
        <ele>43.02222</ele>
        <time>2021-12-26T10:00:05.000Z</time>
      </trkpt>
      <trkpt lat="48.03949" lon="-1.5554">
        <ele>43.26453</ele>
        <time>2021-12-26T10:00:06.000Z</time>
      </trkpt>
      <trkpt lat="48.03947" lon="-1.55537">
        <ele>43.51908</ele>
        <time>2021-12-26T10:00:07.000Z</time>
      </trkpt>
      <trkpt lat="48.03945" lon="-1.55535">
        <ele>43.82581</ele>
        <time>2021-12-26T10:00:08.000Z</time>
      </trkpt>
      <trkpt lat="48.03944" lon="-1.55532">
        <ele>44.12077</ele>
        <time>2021-12-26T10:00:09.000Z</time>
      </trkpt>
      <trkpt lat="48.03942" lon="-1.5553">
        <ele>44.41916</ele>
        <time>2021-12-26T10:00:10.000Z</time>
      </trkpt>
      <trkpt lat="48.0394" lon="-1.55527">
        <ele>44.69945</ele>
        <time>2021-12-26T10:00:11.000Z</time>
      </trkpt>
      <trkpt lat="48.03939" lon="-1.55524">
        <ele>44.93774</ele>
        <time>2021-12-26T10:00:12.000Z</time>
      </trkpt>
      <trkpt lat="48.03937" lon="-1.55521">
        <ele>45.13048</ele>
        <time>2021-12-26T10:00:13.000Z</time>
      </trkpt>
      <trkpt lat="48.03936" lon="-1.55519">
        <ele>45.29165</ele>
        <time>2021-12-26T10:00:14.000Z</time>
      </trkpt>
      <trkpt lat="48.03935" lon="-1.55515">
        <ele>45.41948</ele>
        <time>2021-12-26T10:00:15.000Z</time>
      </trkpt>
      <trkpt lat="48.03934" lon="-1.55512">
        <ele>45.5217</ele>
        <time>2021-12-26T10:00:16.000Z</time>
      </trkpt>
      <trkpt lat="48.03934" lon="-1.55509">
        <ele>45.62231</ele>
        <time>2021-12-26T10:00:17.000Z</time>
      </trkpt>
      <trkpt lat="48.03933" lon="-1.55505">
        <ele>45.73489</ele>
        <time>2021-12-26T10:00:18.000Z</time>
      </trkpt>
      <trkpt lat="48.03932" lon="-1.55502">
        <ele>45.84062</ele>
        <time>2021-12-26T10:00:19.000Z</time>
      </trkpt>
      <trkpt lat="48.03932" lon="-1.55499">
        <ele>45.97153</ele>
        <time>2021-12-26T10:00:20.000Z</time>
      </trkpt>
      <trkpt lat="48.0393" lon="-1.55496">
        <ele>46.13097</ele>
        <time>2021-12-26T10:00:21.000Z</time>
      </trkpt>
      <trkpt lat="48.03928" lon="-1.55497">
        <ele>46.20874</ele>
        <time>2021-12-26T10:00:22.000Z</time>
      </trkpt>
      <trkpt lat="48.03926" lon="-1.55498">
        <ele>46.30032</ele>
        <time>2021-12-26T10:00:23.000Z</time>
      </trkpt>
      <trkpt lat="48.03924" lon="-1.555">
        <ele>46.37137</ele>
        <time>2021-12-26T10:00:24.000Z</time>
      </trkpt>
      <trkpt lat="48.03921" lon="-1.55501">
        <ele>46.46685</ele>
        <time>2021-12-26T10:00:25.000Z</time>
      </trkpt>
      <trkpt lat="48.03919" lon="-1.55504">
        <ele>46.57318</ele>
        <time>2021-12-26T10:00:26.000Z</time>
      </trkpt>
      <trkpt lat="48.03917" lon="-1.55506">
        <ele>46.70643</ele>
        <time>2021-12-26T10:00:27.000Z</time>
      </trkpt>
      <trkpt lat="48.03915" lon="-1.55508">
        <ele>46.87992</ele>
        <time>2021-12-26T10:00:28.000Z</time>
      </trkpt>
      <trkpt lat="48.03913" lon="-1.55509">
        <ele>47.07519</ele>
        <time>2021-12-26T10:00:29.000Z</time>
      </trkpt>
      <trkpt lat="48.0391" lon="-1.55511">
        <ele>47.27725</ele>
        <time>2021-12-26T10:00:30.000Z</time>
      </trkpt>
      <trkpt lat="48.03908" lon="-1.55511">
        <ele>47.46521</ele>
        <time>2021-12-26T10:00:31.000Z</time>
      </trkpt>
      <trkpt lat="48.03905" lon="-1.55512">
        <ele>47.63164</ele>
        <time>2021-12-26T10:00:32.000Z</time>
      </trkpt>
      <trkpt lat="48.03903" lon="-1.55512">
        <ele>47.76909</ele>
        <time>2021-12-26T10:00:33.000Z</time>
      </trkpt>
      <trkpt lat="48.039" lon="-1.55512">
        <ele>47.86393</ele>
        <time>2021-12-26T10:00:34.000Z</time>
      </trkpt>
      <trkpt lat="48.03898" lon="-1.55512">
        <ele>47.93103</ele>
        <time>2021-12-26T10:00:35.000Z</time>
      </trkpt>
      <trkpt lat="48.03895" lon="-1.55511">
        <ele>47.97477</ele>
        <time>2021-12-26T10:00:36.000Z</time>
      </trkpt>
      <trkpt lat="48.03893" lon="-1.5551">
        <ele>48.01043</ele>
        <time>2021-12-26T10:00:37.000Z</time>
      </trkpt>
      <trkpt lat="48.03891" lon="-1.55508">
        <ele>48.05379</ele>
        <time>2021-12-26T10:00:38.000Z</time>
      </trkpt>
      <trkpt lat="48.03889" lon="-1.55505">
        <ele>48.12318</ele>
        <time>2021-12-26T10:00:39.000Z</time>
      </trkpt>
      <trkpt lat="48.03887" lon="-1.55503">
        <ele>48.22699</ele>
        <time>2021-12-26T10:00:40.000Z</time>
      </trkpt>
      <trkpt lat="48.03885" lon="-1.555">
        <ele>48.3712</ele>
        <time>2021-12-26T10:00:41.000Z</time>
      </trkpt>
      <trkpt lat="48.03884" lon="-1.55498">
        <ele>48.55276</ele>
        <time>2021-12-26T10:00:42.000Z</time>
      </trkpt>
      <trkpt lat="48.03882" lon="-1.55495">
        <ele>48.778</ele>
        <time>2021-12-26T10:00:43.000Z</time>
      </trkpt>
      <trkpt lat="48.0388" lon="-1.55493">
        <ele>49.03315</ele>
        <time>2021-12-26T10:00:44.000Z</time>
      </trkpt>
      <trkpt lat="48.03878" lon="-1.55491">
        <ele>49.31226</ele>
        <time>2021-12-26T10:00:45.000Z</time>
      </trkpt>
      <trkpt lat="48.03877" lon="-1.55488">
        <ele>49.58807</ele>
        <time>2021-12-26T10:00:46.000Z</time>
      </trkpt>
      <trkpt lat="48.03875" lon="-1.55485">
        <ele>49.84013</ele>
        <time>2021-12-26T10:00:47.000Z</time>
      </trkpt>
      <trkpt lat="48.03873" lon="-1.55482">
        <ele>50.08125</ele>
        <time>2021-12-26T10:00:48.000Z</time>
      </trkpt>
      <trkpt lat="48.03872" lon="-1.5548">
        <ele>50.28598</ele>
        <time>2021-12-26T10:00:49.000Z</time>
      </trkpt>
      <trkpt lat="48.03871" lon="-1.55476">
        <ele>50.47075</ele>
        <time>2021-12-26T10:00:50.000Z</time>
      </trkpt>
      <trkpt lat="48.03869" lon="-1.55473">
        <ele>50.63116</ele>
        <time>2021-12-26T10:00:51.000Z</time>
      </trkpt>
      <trkpt lat="48.03867" lon="-1.5547">
        <ele>50.76536</ele>
        <time>2021-12-26T10:00:52.000Z</time>
      </trkpt>
      <trkpt lat="48.03866" lon="-1.55467">
        <ele>50.89873</ele>
        <time>2021-12-26T10:00:53.000Z</time>
      </trkpt>
      <trkpt lat="48.03864" lon="-1.55464">
        <ele>51.04249</ele>
        <time>2021-12-26T10:00:54.000Z</time>
      </trkpt>
      <trkpt lat="48.03863" lon="-1.55461">
        <ele>51.19868</ele>
        <time>2021-12-26T10:00:55.000Z</time>
      </trkpt>
      <trkpt lat="48.03861" lon="-1.55458">
        <ele>51.36651</ele>
        <time>2021-12-26T10:00:56.000Z</time>
      </trkpt>
      <trkpt lat="48.0386" lon="-1.55455">
        <ele>51.55209</ele>
        <time>2021-12-26T10:00:57.000Z</time>
      </trkpt>
      <trkpt lat="48.03858" lon="-1.55452">
        <ele>51.74774</ele>
        <time>2021-12-26T10:00:58.000Z</time>
      </trkpt>
      <trkpt lat="48.03856" lon="-1.5545">
        <ele>51.92941</ele>
        <time>2021-12-26T10:00:59.000Z</time>
      </trkpt>
      <trkpt lat="48.03855" lon="-1.55446">
        <ele>52.13748</ele>
        <time>2021-12-26T10:01:00.000Z</time>
      </trkpt>
      <trkpt lat="48.03853" lon="-1.55444">
        <ele>52.29582</ele>
        <time>2021-12-26T10:01:01.000Z</time>
      </trkpt>
      <trkpt lat="48.03851" lon="-1.55442">
        <ele>52.45065</ele>
        <time>2021-12-26T10:01:02.000Z</time>
      </trkpt>
      <trkpt lat="48.0385" lon="-1.5544">
        <ele>52.58584</ele>
        <time>2021-12-26T10:01:03.000Z</time>
      </trkpt>
      <trkpt lat="48.03849" lon="-1.55438">
        <ele>52.69801</ele>
        <time>2021-12-26T10:01:04.000Z</time>
      </trkpt>
      <trkpt lat="48.03848" lon="-1.55435">
        <ele>52.80953</ele>
        <time>2021-12-26T10:01:05.000Z</time>
      </trkpt>
      <trkpt lat="48.03846" lon="-1.55433">
        <ele>52.90909</ele>
        <time>2021-12-26T10:01:06.000Z</time>
      </trkpt>
      <trkpt lat="48.03845" lon="-1.55431">
        <ele>53.01864</ele>
        <time>2021-12-26T10:01:07.000Z</time>
      </trkpt>
      <trkpt lat="48.03844" lon="-1.55429">
        <ele>53.12086</ele>
        <time>2021-12-26T10:01:08.000Z</time>
      </trkpt>
      <trkpt lat="48.03842" lon="-1.55427">
        <ele>53.23047</ele>
        <time>2021-12-26T10:01:09.000Z</time>
      </trkpt>
      <trkpt lat="48.03841" lon="-1.55424">
        <ele>53.34435</ele>
        <time>2021-12-26T10:01:10.000Z</time>
      </trkpt>
      <trkpt lat="48.0384" lon="-1.55421">
        <ele>53.46704</ele>
        <time>2021-12-26T10:01:11.000Z</time>
      </trkpt>
      <trkpt lat="48.0384" lon="-1.55421">
        <ele>53.46704</ele>
        <time>2021-12-26T10:01:11.000Z</time>
      </trkpt>
      <trkpt lat="48.0384" lon="-1.55418">
        <ele>53.57724</ele>
        <time>2021-12-26T10:01:12.000Z</time>
      </trkpt>
      <trkpt lat="48.0384" lon="-1.55415">
        <ele>53.68204</ele>
        <time>2021-12-26T10:01:13.000Z</time>
      </trkpt>
      <trkpt lat="48.03841" lon="-1.55411">
        <ele>53.76807</ele>
        <time>2021-12-26T10:01:14.000Z</time>
      </trkpt>
      <trkpt lat="48.03841" lon="-1.55408">
        <ele>53.87073</ele>
        <time>2021-12-26T10:01:15.000Z</time>
      </trkpt>
      <trkpt lat="48.03842" lon="-1.55404">
        <ele>53.95693</ele>
        <time>2021-12-26T10:01:16.000Z</time>
      </trkpt>
      <trkpt lat="48.03843" lon="-1.55401">
        <ele>54.028</ele>
        <time>2021-12-26T10:01:17.000Z</time>
      </trkpt>
      <trkpt lat="48.03843" lon="-1.55396">
        <ele>54.11276</ele>
        <time>2021-12-26T10:01:18.000Z</time>
      </trkpt>
      <trkpt lat="48.03844" lon="-1.55393">
        <ele>54.17993</ele>
        <time>2021-12-26T10:01:19.000Z</time>
      </trkpt>
      <trkpt lat="48.03844" lon="-1.55389">
        <ele>54.25067</ele>
        <time>2021-12-26T10:01:20.000Z</time>
      </trkpt>
      <trkpt lat="48.03845" lon="-1.55385">
        <ele>54.30474</ele>
        <time>2021-12-26T10:01:21.000Z</time>
      </trkpt>
      <trkpt lat="48.03846" lon="-1.55381">
        <ele>54.35197</ele>
        <time>2021-12-26T10:01:22.000Z</time>
      </trkpt>
      <trkpt lat="48.03846" lon="-1.55377">
        <ele>54.43418</ele>
        <time>2021-12-26T10:01:23.000Z</time>
      </trkpt>
      <trkpt lat="48.03845" lon="-1.55374">
        <ele>54.55213</ele>
        <time>2021-12-26T10:01:24.000Z</time>
      </trkpt>
      <trkpt lat="48.03844" lon="-1.5537">
        <ele>54.69856</ele>
        <time>2021-12-26T10:01:25.000Z</time>
      </trkpt>
      <trkpt lat="48.03843" lon="-1.55366">
        <ele>54.85322</ele>
        <time>2021-12-26T10:01:26.000Z</time>
      </trkpt>
      <trkpt lat="48.03842" lon="-1.55363">
        <ele>55.02607</ele>
        <time>2021-12-26T10:01:27.000Z</time>
      </trkpt>
      <trkpt lat="48.03841" lon="-1.55359">
        <ele>55.19884</ele>
        <time>2021-12-26T10:01:28.000Z</time>
      </trkpt>
      <trkpt lat="48.03839" lon="-1.55356">
        <ele>55.35887</ele>
        <time>2021-12-26T10:01:29.000Z</time>
      </trkpt>
      <trkpt lat="48.03838" lon="-1.55353">
        <ele>55.51138</ele>
        <time>2021-12-26T10:01:30.000Z</time>
      </trkpt>
      <trkpt lat="48.03837" lon="-1.5535">
        <ele>55.65112</ele>
        <time>2021-12-26T10:01:31.000Z</time>
      </trkpt>
      <trkpt lat="48.03836" lon="-1.55347">
        <ele>55.78556</ele>
        <time>2021-12-26T10:01:32.000Z</time>
      </trkpt>
      <trkpt lat="48.03834" lon="-1.55344">
        <ele>55.90843</ele>
        <time>2021-12-26T10:01:33.000Z</time>
      </trkpt>
      <trkpt lat="48.03833" lon="-1.55341">
        <ele>56.00194</ele>
        <time>2021-12-26T10:01:34.000Z</time>
      </trkpt>
      <trkpt lat="48.03832" lon="-1.55338">
        <ele>56.09937</ele>
        <time>2021-12-26T10:01:35.000Z</time>
      </trkpt>
      <trkpt lat="48.0383" lon="-1.55335">
        <ele>56.18515</ele>
        <time>2021-12-26T10:01:36.000Z</time>
      </trkpt>
      <trkpt lat="48.03829" lon="-1.55332">
        <ele>56.25533</ele>
        <time>2021-12-26T10:01:37.000Z</time>
      </trkpt>
      <trkpt lat="48.03829" lon="-1.55329">
        <ele>56.30392</ele>
        <time>2021-12-26T10:01:38.000Z</time>
      </trkpt>
      <trkpt lat="48.03829" lon="-1.55325">
        <ele>56.34089</ele>
        <time>2021-12-26T10:01:39.000Z</time>
      </trkpt>
      <trkpt lat="48.03829" lon="-1.55321">
        <ele>56.35835</ele>
        <time>2021-12-26T10:01:40.000Z</time>
      </trkpt>
      <trkpt lat="48.03829" lon="-1.55317">
        <ele>56.36524</ele>
        <time>2021-12-26T10:01:41.000Z</time>
      </trkpt>
      <trkpt lat="48.03829" lon="-1.55312">
        <ele>56.36189</ele>
        <time>2021-12-26T10:01:42.000Z</time>
      </trkpt>
      <trkpt lat="48.03829" lon="-1.55308">
        <ele>56.35194</ele>
        <time>2021-12-26T10:01:43.000Z</time>
      </trkpt>
      <trkpt lat="48.0383" lon="-1.55304">
        <ele>56.34002</ele>
        <time>2021-12-26T10:01:44.000Z</time>
      </trkpt>
      <trkpt lat="48.0383" lon="-1.553">
        <ele>56.32925</ele>
        <time>2021-12-26T10:01:45.000Z</time>
      </trkpt>
      <trkpt lat="48.03831" lon="-1.55296">
        <ele>56.32414</ele>
        <time>2021-12-26T10:01:46.000Z</time>
      </trkpt>
      <trkpt lat="48.03832" lon="-1.55292">
        <ele>56.31409</ele>
        <time>2021-12-26T10:01:47.000Z</time>
      </trkpt>
      <trkpt lat="48.03832" lon="-1.55287">
        <ele>56.29774</ele>
        <time>2021-12-26T10:01:48.000Z</time>
      </trkpt>
      <trkpt lat="48.03833" lon="-1.55283">
        <ele>56.27933</ele>
        <time>2021-12-26T10:01:49.000Z</time>
      </trkpt>
      <trkpt lat="48.03834" lon="-1.55279">
        <ele>56.26249</ele>
        <time>2021-12-26T10:01:50.000Z</time>
      </trkpt>
      <trkpt lat="48.03835" lon="-1.55274">
        <ele>56.25097</ele>
        <time>2021-12-26T10:01:51.000Z</time>
      </trkpt>
      <trkpt lat="48.03836" lon="-1.5527">
        <ele>56.24822</ele>
        <time>2021-12-26T10:01:52.000Z</time>
      </trkpt>
      <trkpt lat="48.03837" lon="-1.55266">
        <ele>56.25648</ele>
        <time>2021-12-26T10:01:53.000Z</time>
      </trkpt>
      <trkpt lat="48.03838" lon="-1.55262">
        <ele>56.27651</ele>
        <time>2021-12-26T10:01:54.000Z</time>
      </trkpt>
      <trkpt lat="48.03839" lon="-1.55258">
        <ele>56.30072</ele>
        <time>2021-12-26T10:01:55.000Z</time>
      </trkpt>
      <trkpt lat="48.0384" lon="-1.55253">
        <ele>56.32624</ele>
        <time>2021-12-26T10:01:56.000Z</time>
      </trkpt>
      <trkpt lat="48.03841" lon="-1.55249">
        <ele>56.34849</ele>
        <time>2021-12-26T10:01:57.000Z</time>
      </trkpt>
      <trkpt lat="48.03843" lon="-1.55245">
        <ele>56.36392</ele>
        <time>2021-12-26T10:01:58.000Z</time>
      </trkpt>
      <trkpt lat="48.03844" lon="-1.55241">
        <ele>56.37424</ele>
        <time>2021-12-26T10:01:59.000Z</time>
      </trkpt>
      <trkpt lat="48.03845" lon="-1.55237">
        <ele>56.37389</ele>
        <time>2021-12-26T10:02:00.000Z</time>
      </trkpt>
      <trkpt lat="48.03847" lon="-1.55234">
        <ele>56.36566</ele>
        <time>2021-12-26T10:02:01.000Z</time>
      </trkpt>
      <trkpt lat="48.03848" lon="-1.5523">
        <ele>56.36833</ele>
        <time>2021-12-26T10:02:02.000Z</time>
      </trkpt>
      <trkpt lat="48.03849" lon="-1.55226">
        <ele>56.36888</ele>
        <time>2021-12-26T10:02:03.000Z</time>
      </trkpt>
      <trkpt lat="48.03851" lon="-1.55222">
        <ele>56.37371</ele>
        <time>2021-12-26T10:02:04.000Z</time>
      </trkpt>
      <trkpt lat="48.03852" lon="-1.55218">
        <ele>56.36614</ele>
        <time>2021-12-26T10:02:05.000Z</time>
      </trkpt>
      <trkpt lat="48.03854" lon="-1.55215">
        <ele>56.34144</ele>
        <time>2021-12-26T10:02:06.000Z</time>
      </trkpt>
      <trkpt lat="48.03855" lon="-1.55211">
        <ele>56.35857</ele>
        <time>2021-12-26T10:02:07.000Z</time>
      </trkpt>
      <trkpt lat="48.03857" lon="-1.55206">
        <ele>56.3819</ele>
        <time>2021-12-26T10:02:08.000Z</time>
      </trkpt>
      <trkpt lat="48.03859" lon="-1.55201">
        <ele>56.36072</ele>
        <time>2021-12-26T10:02:09.000Z</time>
      </trkpt>
      <trkpt lat="48.0386" lon="-1.55197">
        <ele>56.35551</ele>
        <time>2021-12-26T10:02:10.000Z</time>
      </trkpt>
      <trkpt lat="48.03861" lon="-1.55192">
        <ele>56.36702</ele>
        <time>2021-12-26T10:02:11.000Z</time>
      </trkpt>
      <trkpt lat="48.03862" lon="-1.55187">
        <ele>56.36464</ele>
        <time>2021-12-26T10:02:12.000Z</time>
      </trkpt>
      <trkpt lat="48.03863" lon="-1.55182">
        <ele>56.36588</ele>
        <time>2021-12-26T10:02:13.000Z</time>
      </trkpt>
      <trkpt lat="48.03865" lon="-1.55177">
        <ele>56.34091</ele>
        <time>2021-12-26T10:02:14.000Z</time>
      </trkpt>
      <trkpt lat="48.03866" lon="-1.55172">
        <ele>56.31531</ele>
        <time>2021-12-26T10:02:15.000Z</time>
      </trkpt>
      <trkpt lat="48.03867" lon="-1.55167">
        <ele>56.29121</ele>
        <time>2021-12-26T10:02:16.000Z</time>
      </trkpt>
      <trkpt lat="48.03868" lon="-1.55162">
        <ele>56.27945</ele>
        <time>2021-12-26T10:02:17.000Z</time>
      </trkpt>
      <trkpt lat="48.03869" lon="-1.55157">
        <ele>56.25919</ele>
        <time>2021-12-26T10:02:18.000Z</time>
      </trkpt>
      <trkpt lat="48.03869" lon="-1.55152">
        <ele>56.25222</ele>
        <time>2021-12-26T10:02:19.000Z</time>
      </trkpt>
      <trkpt lat="48.0387" lon="-1.55147">
        <ele>56.23466</ele>
        <time>2021-12-26T10:02:20.000Z</time>
      </trkpt>
      <trkpt lat="48.0387" lon="-1.55143">
        <ele>56.21462</ele>
        <time>2021-12-26T10:02:21.000Z</time>
      </trkpt>
      <trkpt lat="48.0387" lon="-1.55138">
        <ele>56.20955</ele>
        <time>2021-12-26T10:02:22.000Z</time>
      </trkpt>
      <trkpt lat="48.03871" lon="-1.55133">
        <ele>56.1952</ele>
        <time>2021-12-26T10:02:23.000Z</time>
      </trkpt>
      <trkpt lat="48.03871" lon="-1.55128">
        <ele>56.17558</ele>
        <time>2021-12-26T10:02:24.000Z</time>
      </trkpt>
      <trkpt lat="48.03871" lon="-1.55124">
        <ele>56.12947</ele>
        <time>2021-12-26T10:02:25.000Z</time>
      </trkpt>
      <trkpt lat="48.03872" lon="-1.55119">
        <ele>56.0762</ele>
        <time>2021-12-26T10:02:26.000Z</time>
      </trkpt>
      <trkpt lat="48.03872" lon="-1.55116">
        <ele>56.05352</ele>
        <time>2021-12-26T10:02:27.000Z</time>
      </trkpt>
      <trkpt lat="48.03872" lon="-1.55116">
        <ele>56.05352</ele>
        <time>2021-12-26T10:02:27.000Z</time>
      </trkpt>
      <trkpt lat="48.03871" lon="-1.55112">
        <ele>56.04987</ele>
        <time>2021-12-26T10:02:29.000Z</time>
      </trkpt>
      <trkpt lat="48.03869" lon="-1.5511">
        <ele>56.10682</ele>
        <time>2021-12-26T10:02:35.000Z</time>
      </trkpt>
      <trkpt lat="48.03866" lon="-1.55111">
        <ele>56.26812</ele>
        <time>2021-12-26T10:02:37.000Z</time>
      </trkpt>
      <trkpt lat="48.03863" lon="-1.55112">
        <ele>56.40136</ele>
        <time>2021-12-26T10:02:38.000Z</time>
      </trkpt>
      <trkpt lat="48.0386" lon="-1.55112">
        <ele>56.55112</ele>
        <time>2021-12-26T10:02:39.000Z</time>
      </trkpt>
      <trkpt lat="48.03857" lon="-1.55111">
        <ele>56.71607</ele>
        <time>2021-12-26T10:02:40.000Z</time>
      </trkpt>
      <trkpt lat="48.03853" lon="-1.5511">
        <ele>56.87695</ele>
        <time>2021-12-26T10:02:41.000Z</time>
      </trkpt>
      <trkpt lat="48.0385" lon="-1.55109">
        <ele>57.02288</ele>
        <time>2021-12-26T10:02:42.000Z</time>
      </trkpt>
      <trkpt lat="48.03847" lon="-1.55109">
        <ele>57.15053</ele>
        <time>2021-12-26T10:02:43.000Z</time>
      </trkpt>
      <trkpt lat="48.03843" lon="-1.55108">
        <ele>57.29189</ele>
        <time>2021-12-26T10:02:44.000Z</time>
      </trkpt>
      <trkpt lat="48.0384" lon="-1.55107">
        <ele>57.42216</ele>
        <time>2021-12-26T10:02:45.000Z</time>
      </trkpt>
      <trkpt lat="48.03837" lon="-1.55107">
        <ele>57.55135</ele>
        <time>2021-12-26T10:02:46.000Z</time>
      </trkpt>
      <trkpt lat="48.03833" lon="-1.55106">
        <ele>57.69875</ele>
        <time>2021-12-26T10:02:47.000Z</time>
      </trkpt>
      <trkpt lat="48.0383" lon="-1.55106">
        <ele>57.82911</ele>
        <time>2021-12-26T10:02:48.000Z</time>
      </trkpt>
      <trkpt lat="48.03827" lon="-1.55106">
        <ele>57.96007</ele>
        <time>2021-12-26T10:02:49.000Z</time>
      </trkpt>
      <trkpt lat="48.03824" lon="-1.55105">
        <ele>58.11123</ele>
        <time>2021-12-26T10:02:50.000Z</time>
      </trkpt>
      <trkpt lat="48.03822" lon="-1.55105">
        <ele>58.23026</ele>
        <time>2021-12-26T10:02:51.000Z</time>
      </trkpt>
      <trkpt lat="48.03818" lon="-1.55104">
        <ele>58.39665</ele>
        <time>2021-12-26T10:02:52.000Z</time>
      </trkpt>
      <trkpt lat="48.03815" lon="-1.55103">
        <ele>58.55983</ele>
        <time>2021-12-26T10:02:53.000Z</time>
      </trkpt>
      <trkpt lat="48.03812" lon="-1.55101">
        <ele>58.71674</ele>
        <time>2021-12-26T10:02:54.000Z</time>
      </trkpt>
      <trkpt lat="48.03809" lon="-1.55101">
        <ele>58.85825</ele>
        <time>2021-12-26T10:02:55.000Z</time>
      </trkpt>
      <trkpt lat="48.03805" lon="-1.551">
        <ele>58.98161</ele>
        <time>2021-12-26T10:02:56.000Z</time>
      </trkpt>
      <trkpt lat="48.03802" lon="-1.551">
        <ele>59.07859</ele>
        <time>2021-12-26T10:02:57.000Z</time>
      </trkpt>
      <trkpt lat="48.03798" lon="-1.551">
        <ele>59.16286</ele>
        <time>2021-12-26T10:02:58.000Z</time>
      </trkpt>
      <trkpt lat="48.03795" lon="-1.55099">
        <ele>59.2293</ele>
        <time>2021-12-26T10:02:59.000Z</time>
      </trkpt>
      <trkpt lat="48.03792" lon="-1.55099">
        <ele>59.2817</ele>
        <time>2021-12-26T10:03:00.000Z</time>
      </trkpt>
      <trkpt lat="48.03788" lon="-1.55099">
        <ele>59.33056</ele>
        <time>2021-12-26T10:03:01.000Z</time>
      </trkpt>
      <trkpt lat="48.03785" lon="-1.55099">
        <ele>59.36037</ele>
        <time>2021-12-26T10:03:02.000Z</time>
      </trkpt>
      <trkpt lat="48.03782" lon="-1.551">
        <ele>59.37724</ele>
        <time>2021-12-26T10:03:03.000Z</time>
      </trkpt>
      <trkpt lat="48.03779" lon="-1.551">
        <ele>59.37445</ele>
        <time>2021-12-26T10:03:04.000Z</time>
      </trkpt>
      <trkpt lat="48.03775" lon="-1.55101">
        <ele>59.37402</ele>
        <time>2021-12-26T10:03:05.000Z</time>
      </trkpt>
      <trkpt lat="48.03772" lon="-1.55101">
        <ele>59.36439</ele>
        <time>2021-12-26T10:03:06.000Z</time>
      </trkpt>
      <trkpt lat="48.03769" lon="-1.55101">
        <ele>59.35236</ele>
        <time>2021-12-26T10:03:07.000Z</time>
      </trkpt>
      <trkpt lat="48.03766" lon="-1.55102">
        <ele>59.34173</ele>
        <time>2021-12-26T10:03:08.000Z</time>
      </trkpt>
      <trkpt lat="48.03763" lon="-1.55102">
        <ele>59.34412</ele>
        <time>2021-12-26T10:03:09.000Z</time>
      </trkpt>
      <trkpt lat="48.0376" lon="-1.55102">
        <ele>59.3507</ele>
        <time>2021-12-26T10:03:10.000Z</time>
      </trkpt>
      <trkpt lat="48.03757" lon="-1.55102">
        <ele>59.35794</ele>
        <time>2021-12-26T10:03:11.000Z</time>
      </trkpt>
      <trkpt lat="48.03753" lon="-1.55102">
        <ele>59.3762</ele>
        <time>2021-12-26T10:03:12.000Z</time>
      </trkpt>
      <trkpt lat="48.0375" lon="-1.55102">
        <ele>59.3905</ele>
        <time>2021-12-26T10:03:13.000Z</time>
      </trkpt>
      <trkpt lat="48.03747" lon="-1.55103">
        <ele>59.39897</ele>
        <time>2021-12-26T10:03:14.000Z</time>
      </trkpt>
      <trkpt lat="48.03743" lon="-1.55103">
        <ele>59.4148</ele>
        <time>2021-12-26T10:03:15.000Z</time>
      </trkpt>
      <trkpt lat="48.0374" lon="-1.55103">
        <ele>59.43172</ele>
        <time>2021-12-26T10:03:16.000Z</time>
      </trkpt>
      <trkpt lat="48.03737" lon="-1.55103">
        <ele>59.43961</ele>
        <time>2021-12-26T10:03:17.000Z</time>
      </trkpt>
      <trkpt lat="48.03734" lon="-1.55103">
        <ele>59.44946</ele>
        <time>2021-12-26T10:03:18.000Z</time>
      </trkpt>
      <trkpt lat="48.03731" lon="-1.55104">
        <ele>59.4541</ele>
        <time>2021-12-26T10:03:19.000Z</time>
      </trkpt>
      <trkpt lat="48.03727" lon="-1.55105">
        <ele>59.43467</ele>
        <time>2021-12-26T10:03:20.000Z</time>
      </trkpt>
      <trkpt lat="48.03724" lon="-1.55105">
        <ele>59.43223</ele>
        <time>2021-12-26T10:03:21.000Z</time>
      </trkpt>
      <trkpt lat="48.03721" lon="-1.55106">
        <ele>59.42299</ele>
        <time>2021-12-26T10:03:22.000Z</time>
      </trkpt>
      <trkpt lat="48.03718" lon="-1.55106">
        <ele>59.42506</ele>
        <time>2021-12-26T10:03:23.000Z</time>
      </trkpt>
      <trkpt lat="48.03718" lon="-1.55106">
        <ele>59.42506</ele>
        <time>2021-12-26T10:03:23.000Z</time>
      </trkpt>
      <trkpt lat="48.03715" lon="-1.55105">
        <ele>59.4486</ele>
        <time>2021-12-26T10:03:24.000Z</time>
      </trkpt>
      <trkpt lat="48.03712" lon="-1.55102">
        <ele>59.5055</ele>
        <time>2021-12-26T10:03:25.000Z</time>
      </trkpt>
      <trkpt lat="48.03711" lon="-1.55098">
        <ele>59.58302</ele>
        <time>2021-12-26T10:03:26.000Z</time>
      </trkpt>
      <trkpt lat="48.0371" lon="-1.55093">
        <ele>59.6526</ele>
        <time>2021-12-26T10:03:27.000Z</time>
      </trkpt>
      <trkpt lat="48.03709" lon="-1.55088">
        <ele>59.70026</ele>
        <time>2021-12-26T10:03:28.000Z</time>
      </trkpt>
      <trkpt lat="48.03709" lon="-1.55083">
        <ele>59.7093</ele>
        <time>2021-12-26T10:03:29.000Z</time>
      </trkpt>
      <trkpt lat="48.03709" lon="-1.55078">
        <ele>59.66833</ele>
        <time>2021-12-26T10:03:30.000Z</time>
      </trkpt>
      <trkpt lat="48.03709" lon="-1.55073">
        <ele>59.59034</ele>
        <time>2021-12-26T10:03:31.000Z</time>
      </trkpt>
      <trkpt lat="48.03709" lon="-1.55068">
        <ele>59.49206</ele>
        <time>2021-12-26T10:03:32.000Z</time>
      </trkpt>
      <trkpt lat="48.03709" lon="-1.55063">
        <ele>59.39617</ele>
        <time>2021-12-26T10:03:33.000Z</time>
      </trkpt>
      <trkpt lat="48.03709" lon="-1.55058">
        <ele>59.3104</ele>
        <time>2021-12-26T10:03:34.000Z</time>
      </trkpt>
      <trkpt lat="48.03709" lon="-1.55054">
        <ele>59.25294</ele>
        <time>2021-12-26T10:03:35.000Z</time>
      </trkpt>
      <trkpt lat="48.03709" lon="-1.55049">
        <ele>59.23484</ele>
        <time>2021-12-26T10:03:36.000Z</time>
      </trkpt>
      <trkpt lat="48.0371" lon="-1.55044">
        <ele>59.24983</ele>
        <time>2021-12-26T10:03:37.000Z</time>
      </trkpt>
      <trkpt lat="48.0371" lon="-1.55039">
        <ele>59.28582</ele>
        <time>2021-12-26T10:03:38.000Z</time>
      </trkpt>
      <trkpt lat="48.0371" lon="-1.55035">
        <ele>59.33374</ele>
        <time>2021-12-26T10:03:39.000Z</time>
      </trkpt>
      <trkpt lat="48.0371" lon="-1.5503">
        <ele>59.39057</ele>
        <time>2021-12-26T10:03:40.000Z</time>
      </trkpt>
      <trkpt lat="48.0371" lon="-1.55025">
        <ele>59.44767</ele>
        <time>2021-12-26T10:03:41.000Z</time>
      </trkpt>
      <trkpt lat="48.0371" lon="-1.5502">
        <ele>59.49141</ele>
        <time>2021-12-26T10:03:42.000Z</time>
      </trkpt>
      <trkpt lat="48.0371" lon="-1.55016">
        <ele>59.51823</ele>
        <time>2021-12-26T10:03:43.000Z</time>
      </trkpt>
      <trkpt lat="48.0371" lon="-1.55011">
        <ele>59.53392</ele>
        <time>2021-12-26T10:03:44.000Z</time>
      </trkpt>
      <trkpt lat="48.0371" lon="-1.55007">
        <ele>59.54427</ele>
        <time>2021-12-26T10:03:45.000Z</time>
      </trkpt>
      <trkpt lat="48.0371" lon="-1.55003">
        <ele>59.54961</ele>
        <time>2021-12-26T10:03:46.000Z</time>
      </trkpt>
      <trkpt lat="48.0371" lon="-1.54998">
        <ele>59.55234</ele>
        <time>2021-12-26T10:03:47.000Z</time>
      </trkpt>
      <trkpt lat="48.0371" lon="-1.54995">
        <ele>59.55386</ele>
        <time>2021-12-26T10:03:48.000Z</time>
      </trkpt>
      <trkpt lat="48.0371" lon="-1.54992">
        <ele>59.55478</ele>
        <time>2021-12-26T10:03:49.000Z</time>
      </trkpt>
      <trkpt lat="48.0371" lon="-1.54989">
        <ele>59.55641</ele>
        <time>2021-12-26T10:03:50.000Z</time>
      </trkpt>
      <trkpt lat="48.03711" lon="-1.54985">
        <ele>59.56088</ele>
        <time>2021-12-26T10:03:52.000Z</time>
      </trkpt>
      <trkpt lat="48.03711" lon="-1.5498">
        <ele>59.56584</ele>
        <time>2021-12-26T10:03:54.000Z</time>
      </trkpt>
      <trkpt lat="48.03711" lon="-1.54977">
        <ele>59.57039</ele>
        <time>2021-12-26T10:03:55.000Z</time>
      </trkpt>
      <trkpt lat="48.03712" lon="-1.54973">
        <ele>59.57505</ele>
        <time>2021-12-26T10:03:56.000Z</time>
      </trkpt>
      <trkpt lat="48.03714" lon="-1.54968">
        <ele>59.57315</ele>
        <time>2021-12-26T10:03:57.000Z</time>
      </trkpt>
      <trkpt lat="48.03715" lon="-1.54964">
        <ele>59.5616</ele>
        <time>2021-12-26T10:03:58.000Z</time>
      </trkpt>
      <trkpt lat="48.03717" lon="-1.54958">
        <ele>59.54243</ele>
        <time>2021-12-26T10:03:59.000Z</time>
      </trkpt>
      <trkpt lat="48.03719" lon="-1.54953">
        <ele>59.52112</ele>
        <time>2021-12-26T10:04:00.000Z</time>
      </trkpt>
      <trkpt lat="48.0372" lon="-1.54948">
        <ele>59.5036</ele>
        <time>2021-12-26T10:04:01.000Z</time>
      </trkpt>
      <trkpt lat="48.03722" lon="-1.54942">
        <ele>59.49407</ele>
        <time>2021-12-26T10:04:02.000Z</time>
      </trkpt>
      <trkpt lat="48.03724" lon="-1.54937">
        <ele>59.49307</ele>
        <time>2021-12-26T10:04:03.000Z</time>
      </trkpt>
      <trkpt lat="48.03725" lon="-1.54931">
        <ele>59.49978</ele>
        <time>2021-12-26T10:04:04.000Z</time>
      </trkpt>
      <trkpt lat="48.03727" lon="-1.54925">
        <ele>59.51168</ele>
        <time>2021-12-26T10:04:05.000Z</time>
      </trkpt>
      <trkpt lat="48.03728" lon="-1.54919">
        <ele>59.52542</ele>
        <time>2021-12-26T10:04:06.000Z</time>
      </trkpt>
      <trkpt lat="48.03729" lon="-1.54913">
        <ele>59.53606</ele>
        <time>2021-12-26T10:04:07.000Z</time>
      </trkpt>
      <trkpt lat="48.0373" lon="-1.54906">
        <ele>59.54111</ele>
        <time>2021-12-26T10:04:08.000Z</time>
      </trkpt>
      <trkpt lat="48.03731" lon="-1.549">
        <ele>59.54751</ele>
        <time>2021-12-26T10:04:09.000Z</time>
      </trkpt>
      <trkpt lat="48.03732" lon="-1.54893">
        <ele>59.55651</ele>
        <time>2021-12-26T10:04:10.000Z</time>
      </trkpt>
      <trkpt lat="48.03733" lon="-1.54887">
        <ele>59.56873</ele>
        <time>2021-12-26T10:04:11.000Z</time>
      </trkpt>
      <trkpt lat="48.03733" lon="-1.5488">
        <ele>59.58448</ele>
        <time>2021-12-26T10:04:12.000Z</time>
      </trkpt>
      <trkpt lat="48.03733" lon="-1.54873">
        <ele>59.59879</ele>
        <time>2021-12-26T10:04:13.000Z</time>
      </trkpt>
      <trkpt lat="48.03733" lon="-1.54867">
        <ele>59.61194</ele>
        <time>2021-12-26T10:04:14.000Z</time>
      </trkpt>
      <trkpt lat="48.03732" lon="-1.5486">
        <ele>59.6279</ele>
        <time>2021-12-26T10:04:15.000Z</time>
      </trkpt>
      <trkpt lat="48.03732" lon="-1.54854">
        <ele>59.64481</ele>
        <time>2021-12-26T10:04:16.000Z</time>
      </trkpt>
      <trkpt lat="48.03731" lon="-1.54848">
        <ele>59.66463</ele>
        <time>2021-12-26T10:04:17.000Z</time>
      </trkpt>
      <trkpt lat="48.0373" lon="-1.54841">
        <ele>59.68069</ele>
        <time>2021-12-26T10:04:18.000Z</time>
      </trkpt>
      <trkpt lat="48.0373" lon="-1.54835">
        <ele>59.70063</ele>
        <time>2021-12-26T10:04:19.000Z</time>
      </trkpt>
      <trkpt lat="48.03728" lon="-1.5483">
        <ele>59.71346</ele>
        <time>2021-12-26T10:04:20.000Z</time>
      </trkpt>
      <trkpt lat="48.03726" lon="-1.54826">
        <ele>59.71118</ele>
        <time>2021-12-26T10:04:21.000Z</time>
      </trkpt>
      <trkpt lat="48.03723" lon="-1.54821">
        <ele>59.7049</ele>
        <time>2021-12-26T10:04:22.000Z</time>
      </trkpt>
      <trkpt lat="48.03721" lon="-1.54816">
        <ele>59.70328</ele>
        <time>2021-12-26T10:04:23.000Z</time>
      </trkpt>
      <trkpt lat="48.03719" lon="-1.5481">
        <ele>59.72752</ele>
        <time>2021-12-26T10:04:24.000Z</time>
      </trkpt>
      <trkpt lat="48.03718" lon="-1.54804">
        <ele>59.78839</ele>
        <time>2021-12-26T10:04:25.000Z</time>
      </trkpt>
      <trkpt lat="48.03719" lon="-1.54799">
        <ele>59.9014</ele>
        <time>2021-12-26T10:04:26.000Z</time>
      </trkpt>
      <trkpt lat="48.0372" lon="-1.54795">
        <ele>60.00802</ele>
        <time>2021-12-26T10:04:27.000Z</time>
      </trkpt>
      <trkpt lat="48.0372" lon="-1.54795">
        <ele>60.00802</ele>
        <time>2021-12-26T10:04:27.000Z</time>
      </trkpt>
      <trkpt lat="48.03721" lon="-1.5479">
        <ele>60.09856</ele>
        <time>2021-12-26T10:04:28.000Z</time>
      </trkpt>
      <trkpt lat="48.03723" lon="-1.54787">
        <ele>60.19126</ele>
        <time>2021-12-26T10:04:29.000Z</time>
      </trkpt>
      <trkpt lat="48.03725" lon="-1.54783">
        <ele>60.25589</ele>
        <time>2021-12-26T10:04:30.000Z</time>
      </trkpt>
      <trkpt lat="48.03725" lon="-1.54778">
        <ele>60.26615</ele>
        <time>2021-12-26T10:04:31.000Z</time>
      </trkpt>
      <trkpt lat="48.03723" lon="-1.54775">
        <ele>60.19461</ele>
        <time>2021-12-26T10:04:32.000Z</time>
      </trkpt>
      <trkpt lat="48.0372" lon="-1.54774">
        <ele>60.08117</ele>
        <time>2021-12-26T10:04:33.000Z</time>
      </trkpt>
      <trkpt lat="48.03716" lon="-1.54775">
        <ele>59.95448</ele>
        <time>2021-12-26T10:04:34.000Z</time>
      </trkpt>
      <trkpt lat="48.03712" lon="-1.54777">
        <ele>59.79973</ele>
        <time>2021-12-26T10:04:35.000Z</time>
      </trkpt>
      <trkpt lat="48.03707" lon="-1.54779">
        <ele>59.6373</ele>
        <time>2021-12-26T10:04:36.000Z</time>
      </trkpt>
      <trkpt lat="48.03703" lon="-1.54781">
        <ele>59.48221</ele>
        <time>2021-12-26T10:04:37.000Z</time>
      </trkpt>
      <trkpt lat="48.03698" lon="-1.54784">
        <ele>59.31559</ele>
        <time>2021-12-26T10:04:38.000Z</time>
      </trkpt>
      <trkpt lat="48.03693" lon="-1.54785">
        <ele>59.138</ele>
        <time>2021-12-26T10:04:39.000Z</time>
      </trkpt>
      <trkpt lat="48.03688" lon="-1.54787">
        <ele>58.95791</ele>
        <time>2021-12-26T10:04:40.000Z</time>
      </trkpt>
      <trkpt lat="48.03682" lon="-1.54787">
        <ele>58.75654</ele>
        <time>2021-12-26T10:04:41.000Z</time>
      </trkpt>
      <trkpt lat="48.03676" lon="-1.54787">
        <ele>58.55171</ele>
        <time>2021-12-26T10:04:42.000Z</time>
      </trkpt>
      <trkpt lat="48.03671" lon="-1.54787">
        <ele>58.3445</ele>
        <time>2021-12-26T10:04:43.000Z</time>
      </trkpt>
      <trkpt lat="48.03665" lon="-1.54786">
        <ele>58.11725</ele>
        <time>2021-12-26T10:04:44.000Z</time>
      </trkpt>
      <trkpt lat="48.03659" lon="-1.54786">
        <ele>57.85586</ele>
        <time>2021-12-26T10:04:45.000Z</time>
      </trkpt>
      <trkpt lat="48.03653" lon="-1.54786">
        <ele>57.56599</ele>
        <time>2021-12-26T10:04:46.000Z</time>
      </trkpt>
      <trkpt lat="48.03647" lon="-1.54785">
        <ele>57.28181</ele>
        <time>2021-12-26T10:04:47.000Z</time>
      </trkpt>
      <trkpt lat="48.03641" lon="-1.54785">
        <ele>56.96743</ele>
        <time>2021-12-26T10:04:48.000Z</time>
      </trkpt>
      <trkpt lat="48.03636" lon="-1.54786">
        <ele>56.6684</ele>
        <time>2021-12-26T10:04:49.000Z</time>
      </trkpt>
      <trkpt lat="48.0363" lon="-1.54788">
        <ele>56.37799</ele>
        <time>2021-12-26T10:04:50.000Z</time>
      </trkpt>
      <trkpt lat="48.03624" lon="-1.54789">
        <ele>56.06903</ele>
        <time>2021-12-26T10:04:51.000Z</time>
      </trkpt>
      <trkpt lat="48.03618" lon="-1.54791">
        <ele>55.76858</ele>
        <time>2021-12-26T10:04:52.000Z</time>
      </trkpt>
      <trkpt lat="48.03613" lon="-1.54793">
        <ele>55.46434</ele>
        <time>2021-12-26T10:04:53.000Z</time>
      </trkpt>
      <trkpt lat="48.03607" lon="-1.54795">
        <ele>55.19024</ele>
        <time>2021-12-26T10:04:54.000Z</time>
      </trkpt>
      <trkpt lat="48.03602" lon="-1.54798">
        <ele>54.93751</ele>
        <time>2021-12-26T10:04:55.000Z</time>
      </trkpt>
      <trkpt lat="48.03599" lon="-1.54799">
        <ele>54.77435</ele>
        <time>2021-12-26T10:04:56.000Z</time>
      </trkpt>
      <trkpt lat="48.03596" lon="-1.54798">
        <ele>54.65441</ele>
        <time>2021-12-26T10:04:57.000Z</time>
      </trkpt>
      <trkpt lat="48.03593" lon="-1.54798">
        <ele>54.53179</ele>
        <time>2021-12-26T10:04:58.000Z</time>
      </trkpt>
      <trkpt lat="48.03591" lon="-1.54797">
        <ele>54.40097</ele>
        <time>2021-12-26T10:04:59.000Z</time>
      </trkpt>
      <trkpt lat="48.03589" lon="-1.54795">
        <ele>54.29036</ele>
        <time>2021-12-26T10:05:25.000Z</time>
      </trkpt>
      <trkpt lat="48.03589" lon="-1.54795">
        <ele>54.29036</ele>
        <time>2021-12-26T10:05:25.000Z</time>
      </trkpt>
      <trkpt lat="48.03588" lon="-1.54791">
        <ele>54.27681</ele>
        <time>2021-12-26T10:05:26.000Z</time>
      </trkpt>
      <trkpt lat="48.03589" lon="-1.54787">
        <ele>54.28633</ele>
        <time>2021-12-26T10:05:27.000Z</time>
      </trkpt>
      <trkpt lat="48.03589" lon="-1.54782">
        <ele>54.31379</ele>
        <time>2021-12-26T10:05:28.000Z</time>
      </trkpt>
      <trkpt lat="48.0359" lon="-1.54777">
        <ele>54.34325</ele>
        <time>2021-12-26T10:05:29.000Z</time>
      </trkpt>
      <trkpt lat="48.0359" lon="-1.54772">
        <ele>54.36709</ele>
        <time>2021-12-26T10:05:30.000Z</time>
      </trkpt>
      <trkpt lat="48.03591" lon="-1.54766">
        <ele>54.35279</ele>
        <time>2021-12-26T10:05:31.000Z</time>
      </trkpt>
      <trkpt lat="48.03591" lon="-1.5476">
        <ele>54.27677</ele>
        <time>2021-12-26T10:05:32.000Z</time>
      </trkpt>
      <trkpt lat="48.0359" lon="-1.54753">
        <ele>54.17434</ele>
        <time>2021-12-26T10:05:33.000Z</time>
      </trkpt>
      <trkpt lat="48.0359" lon="-1.54747">
        <ele>54.06762</ele>
        <time>2021-12-26T10:05:34.000Z</time>
      </trkpt>
      <trkpt lat="48.03589" lon="-1.5474">
        <ele>54.00711</ele>
        <time>2021-12-26T10:05:35.000Z</time>
      </trkpt>
      <trkpt lat="48.03589" lon="-1.54733">
        <ele>53.97534</ele>
        <time>2021-12-26T10:05:36.000Z</time>
      </trkpt>
      <trkpt lat="48.03588" lon="-1.54726">
        <ele>53.97061</ele>
        <time>2021-12-26T10:05:37.000Z</time>
      </trkpt>
      <trkpt lat="48.03587" lon="-1.5472">
        <ele>53.94682</ele>
        <time>2021-12-26T10:05:38.000Z</time>
      </trkpt>
      <trkpt lat="48.03584" lon="-1.54714">
        <ele>53.83896</ele>
        <time>2021-12-26T10:05:39.000Z</time>
      </trkpt>
      <trkpt lat="48.03581" lon="-1.54709">
        <ele>53.67739</ele>
        <time>2021-12-26T10:05:40.000Z</time>
      </trkpt>
      <trkpt lat="48.03578" lon="-1.54705">
        <ele>53.50895</ele>
        <time>2021-12-26T10:05:41.000Z</time>
      </trkpt>
      <trkpt lat="48.03576" lon="-1.54699">
        <ele>53.36975</ele>
        <time>2021-12-26T10:05:42.000Z</time>
      </trkpt>
      <trkpt lat="48.03575" lon="-1.54693">
        <ele>53.25127</ele>
        <time>2021-12-26T10:05:43.000Z</time>
      </trkpt>
      <trkpt lat="48.03574" lon="-1.54686">
        <ele>53.14503</ele>
        <time>2021-12-26T10:05:44.000Z</time>
      </trkpt>
      <trkpt lat="48.03574" lon="-1.5468">
        <ele>53.08806</ele>
        <time>2021-12-26T10:05:45.000Z</time>
      </trkpt>
      <trkpt lat="48.03576" lon="-1.54675">
        <ele>53.13734</ele>
        <time>2021-12-26T10:05:46.000Z</time>
      </trkpt>
      <trkpt lat="48.03579" lon="-1.54669">
        <ele>53.24721</ele>
        <time>2021-12-26T10:05:47.000Z</time>
      </trkpt>
      <trkpt lat="48.03582" lon="-1.54664">
        <ele>53.36172</ele>
        <time>2021-12-26T10:05:48.000Z</time>
      </trkpt>
      <trkpt lat="48.03585" lon="-1.54659">
        <ele>53.45083</ele>
        <time>2021-12-26T10:05:49.000Z</time>
      </trkpt>
      <trkpt lat="48.03589" lon="-1.54654">
        <ele>53.51053</ele>
        <time>2021-12-26T10:05:50.000Z</time>
      </trkpt>
      <trkpt lat="48.03592" lon="-1.54649">
        <ele>53.572</ele>
        <time>2021-12-26T10:05:51.000Z</time>
      </trkpt>
      <trkpt lat="48.03596" lon="-1.54645">
        <ele>53.64492</ele>
        <time>2021-12-26T10:05:52.000Z</time>
      </trkpt>
      <trkpt lat="48.036" lon="-1.54641">
        <ele>53.73789</ele>
        <time>2021-12-26T10:05:53.000Z</time>
      </trkpt>
      <trkpt lat="48.03604" lon="-1.54636">
        <ele>53.88053</ele>
        <time>2021-12-26T10:05:54.000Z</time>
      </trkpt>
      <trkpt lat="48.03606" lon="-1.54631">
        <ele>54.03299</ele>
        <time>2021-12-26T10:05:55.000Z</time>
      </trkpt>
      <trkpt lat="48.03609" lon="-1.54626">
        <ele>54.19798</ele>
        <time>2021-12-26T10:05:56.000Z</time>
      </trkpt>
      <trkpt lat="48.03612" lon="-1.54621">
        <ele>54.34841</ele>
        <time>2021-12-26T10:05:57.000Z</time>
      </trkpt>
      <trkpt lat="48.03614" lon="-1.54616">
        <ele>54.46393</ele>
        <time>2021-12-26T10:05:58.000Z</time>
      </trkpt>
      <trkpt lat="48.03616" lon="-1.5461">
        <ele>54.5613</ele>
        <time>2021-12-26T10:05:59.000Z</time>
      </trkpt>
      <trkpt lat="48.03618" lon="-1.54605">
        <ele>54.6422</ele>
        <time>2021-12-26T10:06:00.000Z</time>
      </trkpt>
      <trkpt lat="48.0362" lon="-1.54599">
        <ele>54.71259</ele>
        <time>2021-12-26T10:06:01.000Z</time>
      </trkpt>
      <trkpt lat="48.03622" lon="-1.54594">
        <ele>54.7791</ele>
        <time>2021-12-26T10:06:02.000Z</time>
      </trkpt>
      <trkpt lat="48.03624" lon="-1.54589">
        <ele>54.84601</ele>
        <time>2021-12-26T10:06:03.000Z</time>
      </trkpt>
      <trkpt lat="48.03626" lon="-1.54584">
        <ele>54.92973</ele>
        <time>2021-12-26T10:06:04.000Z</time>
      </trkpt>
      <trkpt lat="48.03629" lon="-1.5458">
        <ele>55.00753</ele>
        <time>2021-12-26T10:06:05.000Z</time>
      </trkpt>
      <trkpt lat="48.03632" lon="-1.54576">
        <ele>55.12159</ele>
        <time>2021-12-26T10:06:06.000Z</time>
      </trkpt>
      <trkpt lat="48.03635" lon="-1.54573">
        <ele>55.24024</ele>
        <time>2021-12-26T10:06:07.000Z</time>
      </trkpt>
      <trkpt lat="48.03638" lon="-1.54569">
        <ele>55.35603</ele>
        <time>2021-12-26T10:06:08.000Z</time>
      </trkpt>
      <trkpt lat="48.03639" lon="-1.54563">
        <ele>55.42222</ele>
        <time>2021-12-26T10:06:09.000Z</time>
      </trkpt>
      <trkpt lat="48.0364" lon="-1.54557">
        <ele>55.46478</ele>
        <time>2021-12-26T10:06:09.999Z</time>
      </trkpt>
      <trkpt lat="48.03641" lon="-1.54551">
        <ele>55.54876</ele>
        <time>2021-12-26T10:06:10.999Z</time>
      </trkpt>
      <trkpt lat="48.03642" lon="-1.54545">
        <ele>55.65788</ele>
        <time>2021-12-26T10:06:11.999Z</time>
      </trkpt>
      <trkpt lat="48.03643" lon="-1.5454">
        <ele>55.776</ele>
        <time>2021-12-26T10:06:12.999Z</time>
      </trkpt>
      <trkpt lat="48.03644" lon="-1.54534">
        <ele>55.89191</ele>
        <time>2021-12-26T10:06:13.999Z</time>
      </trkpt>
      <trkpt lat="48.03646" lon="-1.54529">
        <ele>55.9965</ele>
        <time>2021-12-26T10:06:14.999Z</time>
      </trkpt>
      <trkpt lat="48.03647" lon="-1.54524">
        <ele>56.09185</ele>
        <time>2021-12-26T10:06:15.999Z</time>
      </trkpt>
      <trkpt lat="48.03649" lon="-1.54519">
        <ele>56.18246</ele>
        <time>2021-12-26T10:06:16.999Z</time>
      </trkpt>
      <trkpt lat="48.03652" lon="-1.54514">
        <ele>56.27174</ele>
        <time>2021-12-26T10:06:17.999Z</time>
      </trkpt>
      <trkpt lat="48.03654" lon="-1.5451">
        <ele>56.36124</ele>
        <time>2021-12-26T10:06:18.999Z</time>
      </trkpt>
      <trkpt lat="48.03656" lon="-1.54506">
        <ele>56.45725</ele>
        <time>2021-12-26T10:06:19.999Z</time>
      </trkpt>
      <trkpt lat="48.03658" lon="-1.54501">
        <ele>56.56125</ele>
        <time>2021-12-26T10:06:20.999Z</time>
      </trkpt>
      <trkpt lat="48.03659" lon="-1.54496">
        <ele>56.64857</ele>
        <time>2021-12-26T10:06:21.999Z</time>
      </trkpt>
      <trkpt lat="48.0366" lon="-1.5449">
        <ele>56.74033</ele>
        <time>2021-12-26T10:06:22.999Z</time>
      </trkpt>
      <trkpt lat="48.0366" lon="-1.54485">
        <ele>56.82775</ele>
        <time>2021-12-26T10:06:23.999Z</time>
      </trkpt>
      <trkpt lat="48.0366" lon="-1.54478">
        <ele>56.91127</ele>
        <time>2021-12-26T10:06:24.999Z</time>
      </trkpt>
      <trkpt lat="48.03662" lon="-1.54473">
        <ele>56.95215</ele>
        <time>2021-12-26T10:06:25.999Z</time>
      </trkpt>
      <trkpt lat="48.03664" lon="-1.54467">
        <ele>56.97789</ele>
        <time>2021-12-26T10:06:26.999Z</time>
      </trkpt>
      <trkpt lat="48.03665" lon="-1.54462">
        <ele>57.00981</ele>
        <time>2021-12-26T10:06:27.999Z</time>
      </trkpt>
      <trkpt lat="48.03667" lon="-1.54457">
        <ele>57.0418</ele>
        <time>2021-12-26T10:06:28.999Z</time>
      </trkpt>
      <trkpt lat="48.03669" lon="-1.54452">
        <ele>57.08103</ele>
        <time>2021-12-26T10:06:29.999Z</time>
      </trkpt>
      <trkpt lat="48.03671" lon="-1.54447">
        <ele>57.13494</ele>
        <time>2021-12-26T10:06:30.999Z</time>
      </trkpt>
      <trkpt lat="48.03673" lon="-1.54442">
        <ele>57.19818</ele>
        <time>2021-12-26T10:06:31.999Z</time>
      </trkpt>
      <trkpt lat="48.03674" lon="-1.54436">
        <ele>57.26816</ele>
        <time>2021-12-26T10:06:32.999Z</time>
      </trkpt>
      <trkpt lat="48.03676" lon="-1.54431">
        <ele>57.35164</ele>
        <time>2021-12-26T10:06:33.999Z</time>
      </trkpt>
      <trkpt lat="48.03678" lon="-1.54426">
        <ele>57.44913</ele>
        <time>2021-12-26T10:06:34.999Z</time>
      </trkpt>
      <trkpt lat="48.0368" lon="-1.54422">
        <ele>57.56375</ele>
        <time>2021-12-26T10:06:35.999Z</time>
      </trkpt>
      <trkpt lat="48.03682" lon="-1.54417">
        <ele>57.683</ele>
        <time>2021-12-26T10:06:36.999Z</time>
      </trkpt>
      <trkpt lat="48.03684" lon="-1.54412">
        <ele>57.81162</ele>
        <time>2021-12-26T10:06:37.999Z</time>
      </trkpt>
      <trkpt lat="48.03686" lon="-1.54407">
        <ele>57.94495</ele>
        <time>2021-12-26T10:06:38.999Z</time>
      </trkpt>
      <trkpt lat="48.03687" lon="-1.54402">
        <ele>58.06564</ele>
        <time>2021-12-26T10:06:39.999Z</time>
      </trkpt>
      <trkpt lat="48.03687" lon="-1.54396">
        <ele>58.18252</ele>
        <time>2021-12-26T10:06:40.999Z</time>
      </trkpt>
      <trkpt lat="48.03688" lon="-1.54391">
        <ele>58.2959</ele>
        <time>2021-12-26T10:06:41.999Z</time>
      </trkpt>
      <trkpt lat="48.03688" lon="-1.54386">
        <ele>58.40433</ele>
        <time>2021-12-26T10:06:42.999Z</time>
      </trkpt>
      <trkpt lat="48.03688" lon="-1.5438">
        <ele>58.52136</ele>
        <time>2021-12-26T10:06:43.999Z</time>
      </trkpt>
      <trkpt lat="48.03689" lon="-1.54374">
        <ele>58.64897</ele>
        <time>2021-12-26T10:06:44.999Z</time>
      </trkpt>
      <trkpt lat="48.0369" lon="-1.54369">
        <ele>58.77267</ele>
        <time>2021-12-26T10:06:45.999Z</time>
      </trkpt>
      <trkpt lat="48.03691" lon="-1.54364">
        <ele>58.90247</ele>
        <time>2021-12-26T10:06:46.999Z</time>
      </trkpt>
      <trkpt lat="48.03692" lon="-1.54359">
        <ele>59.03567</ele>
        <time>2021-12-26T10:06:47.999Z</time>
      </trkpt>
      <trkpt lat="48.03694" lon="-1.54354">
        <ele>59.16887</ele>
        <time>2021-12-26T10:06:48.999Z</time>
      </trkpt>
      <trkpt lat="48.03695" lon="-1.54349">
        <ele>59.31415</ele>
        <time>2021-12-26T10:06:49.999Z</time>
      </trkpt>
      <trkpt lat="48.03696" lon="-1.54344">
        <ele>59.46793</ele>
        <time>2021-12-26T10:06:50.999Z</time>
      </trkpt>
      <trkpt lat="48.03697" lon="-1.54339">
        <ele>59.63844</ele>
        <time>2021-12-26T10:06:51.999Z</time>
      </trkpt>
      <trkpt lat="48.03698" lon="-1.54334">
        <ele>59.81889</ele>
        <time>2021-12-26T10:06:52.999Z</time>
      </trkpt>
      <trkpt lat="48.03699" lon="-1.5433">
        <ele>60.0005</ele>
        <time>2021-12-26T10:06:53.999Z</time>
      </trkpt>
      <trkpt lat="48.037" lon="-1.54325">
        <ele>60.17688</ele>
        <time>2021-12-26T10:06:54.999Z</time>
      </trkpt>
      <trkpt lat="48.03701" lon="-1.5432">
        <ele>60.34678</ele>
        <time>2021-12-26T10:06:55.999Z</time>
      </trkpt>
      <trkpt lat="48.03703" lon="-1.54316">
        <ele>60.5023</ele>
        <time>2021-12-26T10:06:56.999Z</time>
      </trkpt>
      <trkpt lat="48.03703" lon="-1.54311">
        <ele>60.63503</ele>
        <time>2021-12-26T10:06:57.999Z</time>
      </trkpt>
      <trkpt lat="48.03704" lon="-1.54306">
        <ele>60.74692</ele>
        <time>2021-12-26T10:06:58.999Z</time>
      </trkpt>
      <trkpt lat="48.03705" lon="-1.54302">
        <ele>60.84392</ele>
        <time>2021-12-26T10:06:59.999Z</time>
      </trkpt>
      <trkpt lat="48.03707" lon="-1.54297">
        <ele>60.93629</ele>
        <time>2021-12-26T10:07:00.999Z</time>
      </trkpt>
      <trkpt lat="48.03708" lon="-1.54292">
        <ele>61.0238</ele>
        <time>2021-12-26T10:07:01.999Z</time>
      </trkpt>
      <trkpt lat="48.03708" lon="-1.54288">
        <ele>61.11663</ele>
        <time>2021-12-26T10:07:02.999Z</time>
      </trkpt>
      <trkpt lat="48.0371" lon="-1.54283">
        <ele>61.22433</ele>
        <time>2021-12-26T10:07:03.999Z</time>
      </trkpt>
      <trkpt lat="48.03711" lon="-1.54279">
        <ele>61.34546</ele>
        <time>2021-12-26T10:07:04.999Z</time>
      </trkpt>
      <trkpt lat="48.03712" lon="-1.54274">
        <ele>61.47817</ele>
        <time>2021-12-26T10:07:05.999Z</time>
      </trkpt>
      <trkpt lat="48.03713" lon="-1.5427">
        <ele>61.62735</ele>
        <time>2021-12-26T10:07:06.999Z</time>
      </trkpt>
      <trkpt lat="48.03714" lon="-1.54266">
        <ele>61.77169</ele>
        <time>2021-12-26T10:07:07.999Z</time>
      </trkpt>
      <trkpt lat="48.03715" lon="-1.54261">
        <ele>61.9357</ele>
        <time>2021-12-26T10:07:08.999Z</time>
      </trkpt>
      <trkpt lat="48.03716" lon="-1.54256">
        <ele>62.09414</ele>
        <time>2021-12-26T10:07:09.999Z</time>
      </trkpt>
      <trkpt lat="48.03717" lon="-1.54252">
        <ele>62.23702</ele>
        <time>2021-12-26T10:07:10.999Z</time>
      </trkpt>
      <trkpt lat="48.03718" lon="-1.54247">
        <ele>62.36177</ele>
        <time>2021-12-26T10:07:11.999Z</time>
      </trkpt>
      <trkpt lat="48.03719" lon="-1.54242">
        <ele>62.44263</ele>
        <time>2021-12-26T10:07:12.999Z</time>
      </trkpt>
      <trkpt lat="48.0372" lon="-1.54238">
        <ele>62.48917</ele>
        <time>2021-12-26T10:07:13.999Z</time>
      </trkpt>
      <trkpt lat="48.0372" lon="-1.54233">
        <ele>62.49992</ele>
        <time>2021-12-26T10:07:14.999Z</time>
      </trkpt>
      <trkpt lat="48.03721" lon="-1.54228">
        <ele>62.49309</ele>
        <time>2021-12-26T10:07:15.999Z</time>
      </trkpt>
      <trkpt lat="48.03721" lon="-1.54223">
        <ele>62.48151</ele>
        <time>2021-12-26T10:07:16.999Z</time>
      </trkpt>
      <trkpt lat="48.03722" lon="-1.54218">
        <ele>62.49105</ele>
        <time>2021-12-26T10:07:17.999Z</time>
      </trkpt>
      <trkpt lat="48.03722" lon="-1.54218">
        <ele>62.49105</ele>
        <time>2021-12-26T10:07:17.999Z</time>
      </trkpt>
      <trkpt lat="48.03722" lon="-1.54213">
        <ele>62.52405</ele>
        <time>2021-12-26T10:07:18.999Z</time>
      </trkpt>
      <trkpt lat="48.03723" lon="-1.5421">
        <ele>62.58768</ele>
        <time>2021-12-26T10:07:19.999Z</time>
      </trkpt>
      <trkpt lat="48.03721" lon="-1.54204">
        <ele>62.75353</ele>
        <time>2021-12-26T10:07:20.999Z</time>
      </trkpt>
      <trkpt lat="48.0372" lon="-1.542">
        <ele>62.89154</ele>
        <time>2021-12-26T10:07:21.999Z</time>
      </trkpt>
      <trkpt lat="48.03718" lon="-1.54196">
        <ele>63.01171</ele>
        <time>2021-12-26T10:07:22.999Z</time>
      </trkpt>
      <trkpt lat="48.03717" lon="-1.54191">
        <ele>63.08059</ele>
        <time>2021-12-26T10:07:23.999Z</time>
      </trkpt>
      <trkpt lat="48.03716" lon="-1.54186">
        <ele>63.11295</ele>
        <time>2021-12-26T10:07:24.999Z</time>
      </trkpt>
      <trkpt lat="48.03715" lon="-1.54182">
        <ele>63.11037</ele>
        <time>2021-12-26T10:07:25.999Z</time>
      </trkpt>
      <trkpt lat="48.03714" lon="-1.54177">
        <ele>63.09703</ele>
        <time>2021-12-26T10:07:26.999Z</time>
      </trkpt>
      <trkpt lat="48.03713" lon="-1.54172">
        <ele>63.08674</ele>
        <time>2021-12-26T10:07:27.999Z</time>
      </trkpt>
      <trkpt lat="48.03711" lon="-1.54167">
        <ele>63.08381</ele>
        <time>2021-12-26T10:07:28.999Z</time>
      </trkpt>
      <trkpt lat="48.0371" lon="-1.54162">
        <ele>63.11233</ele>
        <time>2021-12-26T10:07:29.999Z</time>
      </trkpt>
      <trkpt lat="48.0371" lon="-1.54156">
        <ele>63.16584</ele>
        <time>2021-12-26T10:07:30.999Z</time>
      </trkpt>
      <trkpt lat="48.03709" lon="-1.54151">
        <ele>63.2265</ele>
        <time>2021-12-26T10:07:31.999Z</time>
      </trkpt>
      <trkpt lat="48.03708" lon="-1.54146">
        <ele>63.28231</ele>
        <time>2021-12-26T10:07:32.999Z</time>
      </trkpt>
      <trkpt lat="48.03707" lon="-1.54141">
        <ele>63.32841</ele>
        <time>2021-12-26T10:07:33.999Z</time>
      </trkpt>
      <trkpt lat="48.03706" lon="-1.54136">
        <ele>63.36486</ele>
        <time>2021-12-26T10:07:34.999Z</time>
      </trkpt>
      <trkpt lat="48.03704" lon="-1.54131">
        <ele>63.38759</ele>
        <time>2021-12-26T10:07:35.999Z</time>
      </trkpt>
      <trkpt lat="48.03703" lon="-1.54126">
        <ele>63.39387</ele>
        <time>2021-12-26T10:07:36.999Z</time>
      </trkpt>
      <trkpt lat="48.03702" lon="-1.54121">
        <ele>63.39075</ele>
        <time>2021-12-26T10:07:37.999Z</time>
      </trkpt>
      <trkpt lat="48.03701" lon="-1.54116">
        <ele>63.3823</ele>
        <time>2021-12-26T10:07:38.999Z</time>
      </trkpt>
      <trkpt lat="48.037" lon="-1.54112">
        <ele>63.37591</ele>
        <time>2021-12-26T10:07:39.999Z</time>
      </trkpt>
      <trkpt lat="48.037" lon="-1.54106">
        <ele>63.38879</ele>
        <time>2021-12-26T10:07:40.999Z</time>
      </trkpt>
      <trkpt lat="48.03698" lon="-1.54101">
        <ele>63.41619</ele>
        <time>2021-12-26T10:07:41.999Z</time>
      </trkpt>
      <trkpt lat="48.03697" lon="-1.54096">
        <ele>63.45146</ele>
        <time>2021-12-26T10:07:42.999Z</time>
      </trkpt>
      <trkpt lat="48.03696" lon="-1.5409">
        <ele>63.5</ele>
        <time>2021-12-26T10:07:43.999Z</time>
      </trkpt>
      <trkpt lat="48.03694" lon="-1.54084">
        <ele>63.55834</ele>
        <time>2021-12-26T10:07:44.999Z</time>
      </trkpt>
      <trkpt lat="48.03693" lon="-1.54079">
        <ele>63.61057</ele>
        <time>2021-12-26T10:07:45.999Z</time>
      </trkpt>
      <trkpt lat="48.03691" lon="-1.54073">
        <ele>63.664</ele>
        <time>2021-12-26T10:07:46.999Z</time>
      </trkpt>
      <trkpt lat="48.0369" lon="-1.54067">
        <ele>63.7219</ele>
        <time>2021-12-26T10:07:47.999Z</time>
      </trkpt>
      <trkpt lat="48.03688" lon="-1.54062">
        <ele>63.78651</ele>
        <time>2021-12-26T10:07:48.999Z</time>
      </trkpt>
      <trkpt lat="48.03686" lon="-1.54056">
        <ele>63.87033</ele>
        <time>2021-12-26T10:07:49.999Z</time>
      </trkpt>
      <trkpt lat="48.03684" lon="-1.5405">
        <ele>63.96268</ele>
        <time>2021-12-26T10:07:50.999Z</time>
      </trkpt>
      <trkpt lat="48.03683" lon="-1.54044">
        <ele>64.01808</ele>
        <time>2021-12-26T10:07:51.999Z</time>
      </trkpt>
      <trkpt lat="48.03682" lon="-1.54039">
        <ele>64.05812</ele>
        <time>2021-12-26T10:07:52.999Z</time>
      </trkpt>
      <trkpt lat="48.0368" lon="-1.54033">
        <ele>64.06209</ele>
        <time>2021-12-26T10:07:53.999Z</time>
      </trkpt>
      <trkpt lat="48.03679" lon="-1.54028">
        <ele>64.02981</ele>
        <time>2021-12-26T10:07:54.999Z</time>
      </trkpt>
      <trkpt lat="48.03677" lon="-1.54022">
        <ele>63.94695</ele>
        <time>2021-12-26T10:07:55.999Z</time>
      </trkpt>
      <trkpt lat="48.03676" lon="-1.54017">
        <ele>63.83139</ele>
        <time>2021-12-26T10:07:56.999Z</time>
      </trkpt>
      <trkpt lat="48.03675" lon="-1.5401">
        <ele>63.70412</ele>
        <time>2021-12-26T10:07:57.999Z</time>
      </trkpt>
      <trkpt lat="48.03674" lon="-1.54004">
        <ele>63.60689</ele>
        <time>2021-12-26T10:07:58.999Z</time>
      </trkpt>
      <trkpt lat="48.03674" lon="-1.53998">
        <ele>63.53813</ele>
        <time>2021-12-26T10:07:59.999Z</time>
      </trkpt>
      <trkpt lat="48.03673" lon="-1.53992">
        <ele>63.4952</ele>
        <time>2021-12-26T10:08:00.999Z</time>
      </trkpt>
      <trkpt lat="48.03673" lon="-1.53986">
        <ele>63.4651</ele>
        <time>2021-12-26T10:08:01.999Z</time>
      </trkpt>
      <trkpt lat="48.03672" lon="-1.5398">
        <ele>63.43602</ele>
        <time>2021-12-26T10:08:02.999Z</time>
      </trkpt>
      <trkpt lat="48.03672" lon="-1.53974">
        <ele>63.40141</ele>
        <time>2021-12-26T10:08:03.999Z</time>
      </trkpt>
      <trkpt lat="48.03671" lon="-1.53968">
        <ele>63.35222</ele>
        <time>2021-12-26T10:08:04.999Z</time>
      </trkpt>
      <trkpt lat="48.0367" lon="-1.53962">
        <ele>63.30048</ele>
        <time>2021-12-26T10:08:05.999Z</time>
      </trkpt>
      <trkpt lat="48.0367" lon="-1.53955">
        <ele>63.24273</ele>
        <time>2021-12-26T10:08:06.999Z</time>
      </trkpt>
      <trkpt lat="48.03669" lon="-1.53949">
        <ele>63.18549</ele>
        <time>2021-12-26T10:08:07.999Z</time>
      </trkpt>
      <trkpt lat="48.03668" lon="-1.53943">
        <ele>63.13095</ele>
        <time>2021-12-26T10:08:08.999Z</time>
      </trkpt>
      <trkpt lat="48.03667" lon="-1.53937">
        <ele>63.07661</ele>
        <time>2021-12-26T10:08:09.999Z</time>
      </trkpt>
      <trkpt lat="48.03666" lon="-1.5393">
        <ele>63.03242</ele>
        <time>2021-12-26T10:08:10.999Z</time>
      </trkpt>
      <trkpt lat="48.03666" lon="-1.53924">
        <ele>62.99328</ele>
        <time>2021-12-26T10:08:11.999Z</time>
      </trkpt>
      <trkpt lat="48.03665" lon="-1.53918">
        <ele>62.9562</ele>
        <time>2021-12-26T10:08:12.999Z</time>
      </trkpt>
      <trkpt lat="48.03664" lon="-1.53912">
        <ele>62.90657</ele>
        <time>2021-12-26T10:08:13.999Z</time>
      </trkpt>
      <trkpt lat="48.03663" lon="-1.53905">
        <ele>62.83946</ele>
        <time>2021-12-26T10:08:14.999Z</time>
      </trkpt>
      <trkpt lat="48.03662" lon="-1.53899">
        <ele>62.74401</ele>
        <time>2021-12-26T10:08:15.999Z</time>
      </trkpt>
      <trkpt lat="48.03662" lon="-1.53892">
        <ele>62.62837</ele>
        <time>2021-12-26T10:08:16.999Z</time>
      </trkpt>
      <trkpt lat="48.03661" lon="-1.53885">
        <ele>62.49884</ele>
        <time>2021-12-26T10:08:17.999Z</time>
      </trkpt>
      <trkpt lat="48.03661" lon="-1.53879">
        <ele>62.38441</ele>
        <time>2021-12-26T10:08:18.999Z</time>
      </trkpt>
      <trkpt lat="48.0366" lon="-1.53872">
        <ele>62.28531</ele>
        <time>2021-12-26T10:08:19.999Z</time>
      </trkpt>
      <trkpt lat="48.03659" lon="-1.53865">
        <ele>62.23033</ele>
        <time>2021-12-26T10:08:20.999Z</time>
      </trkpt>
      <trkpt lat="48.03658" lon="-1.53858">
        <ele>62.20512</ele>
        <time>2021-12-26T10:08:21.999Z</time>
      </trkpt>
      <trkpt lat="48.03658" lon="-1.5385">
        <ele>62.19372</ele>
        <time>2021-12-26T10:08:22.999Z</time>
      </trkpt>
      <trkpt lat="48.03657" lon="-1.53842">
        <ele>62.17314</ele>
        <time>2021-12-26T10:08:23.999Z</time>
      </trkpt>
      <trkpt lat="48.03657" lon="-1.53834">
        <ele>62.12444</ele>
        <time>2021-12-26T10:08:24.999Z</time>
      </trkpt>
      <trkpt lat="48.03657" lon="-1.53826">
        <ele>62.06371</ele>
        <time>2021-12-26T10:08:25.999Z</time>
      </trkpt>
      <trkpt lat="48.03658" lon="-1.53819">
        <ele>61.99378</ele>
        <time>2021-12-26T10:08:26.999Z</time>
      </trkpt>
      <trkpt lat="48.03658" lon="-1.53811">
        <ele>61.91196</ele>
        <time>2021-12-26T10:08:27.999Z</time>
      </trkpt>
      <trkpt lat="48.03659" lon="-1.53804">
        <ele>61.81862</ele>
        <time>2021-12-26T10:08:28.999Z</time>
      </trkpt>
      <trkpt lat="48.03659" lon="-1.53797">
        <ele>61.70321</ele>
        <time>2021-12-26T10:08:29.999Z</time>
      </trkpt>
      <trkpt lat="48.03659" lon="-1.53789">
        <ele>61.56476</ele>
        <time>2021-12-26T10:08:30.999Z</time>
      </trkpt>
      <trkpt lat="48.0366" lon="-1.53782">
        <ele>61.43937</ele>
        <time>2021-12-26T10:08:31.999Z</time>
      </trkpt>
      <trkpt lat="48.03661" lon="-1.53775">
        <ele>61.32662</ele>
        <time>2021-12-26T10:08:32.999Z</time>
      </trkpt>
      <trkpt lat="48.03662" lon="-1.53767">
        <ele>61.26125</ele>
        <time>2021-12-26T10:08:33.999Z</time>
      </trkpt>
      <trkpt lat="48.03663" lon="-1.53759">
        <ele>61.2568</ele>
        <time>2021-12-26T10:08:34.999Z</time>
      </trkpt>
      <trkpt lat="48.03664" lon="-1.53751">
        <ele>61.2749</ele>
        <time>2021-12-26T10:08:35.999Z</time>
      </trkpt>
      <trkpt lat="48.03666" lon="-1.53743">
        <ele>61.26792</ele>
        <time>2021-12-26T10:08:36.999Z</time>
      </trkpt>
      <trkpt lat="48.03667" lon="-1.53735">
        <ele>61.19127</ele>
        <time>2021-12-26T10:08:37.999Z</time>
      </trkpt>
      <trkpt lat="48.03669" lon="-1.53727">
        <ele>61.0183</ele>
        <time>2021-12-26T10:08:38.999Z</time>
      </trkpt>
      <trkpt lat="48.03671" lon="-1.53719">
        <ele>60.74654</ele>
        <time>2021-12-26T10:08:39.999Z</time>
      </trkpt>
      <trkpt lat="48.03674" lon="-1.53712">
        <ele>60.47459</ele>
        <time>2021-12-26T10:08:40.999Z</time>
      </trkpt>
      <trkpt lat="48.03677" lon="-1.53705">
        <ele>60.21913</ele>
        <time>2021-12-26T10:08:41.999Z</time>
      </trkpt>
      <trkpt lat="48.03679" lon="-1.53697">
        <ele>60.04631</ele>
        <time>2021-12-26T10:08:42.999Z</time>
      </trkpt>
      <trkpt lat="48.03681" lon="-1.5369">
        <ele>59.9556</ele>
        <time>2021-12-26T10:08:43.999Z</time>
      </trkpt>
      <trkpt lat="48.03683" lon="-1.53683">
        <ele>59.90364</ele>
        <time>2021-12-26T10:08:44.999Z</time>
      </trkpt>
      <trkpt lat="48.03682" lon="-1.53677">
        <ele>59.84295</ele>
        <time>2021-12-26T10:08:45.999Z</time>
      </trkpt>
      <trkpt lat="48.03681" lon="-1.53671">
        <ele>59.79632</ele>
        <time>2021-12-26T10:08:46.999Z</time>
      </trkpt>
      <trkpt lat="48.03678" lon="-1.53667">
        <ele>59.75089</ele>
        <time>2021-12-26T10:08:47.999Z</time>
      </trkpt>
      <trkpt lat="48.03675" lon="-1.53666">
        <ele>59.74209</ele>
        <time>2021-12-26T10:08:48.999Z</time>
      </trkpt>
      <trkpt lat="48.03675" lon="-1.53666">
        <ele>59.74209</ele>
        <time>2021-12-26T10:08:48.999Z</time>
      </trkpt>
      <trkpt lat="48.0367" lon="-1.53664">
        <ele>59.74877</ele>
        <time>2021-12-26T10:08:49.999Z</time>
      </trkpt>
      <trkpt lat="48.03667" lon="-1.53661">
        <ele>59.75537</ele>
        <time>2021-12-26T10:08:50.999Z</time>
      </trkpt>
      <trkpt lat="48.03663" lon="-1.53658">
        <ele>59.76063</ele>
        <time>2021-12-26T10:08:51.999Z</time>
      </trkpt>
      <trkpt lat="48.03659" lon="-1.53655">
        <ele>59.76966</ele>
        <time>2021-12-26T10:08:52.999Z</time>
      </trkpt>
      <trkpt lat="48.03654" lon="-1.53653">
        <ele>59.79662</ele>
        <time>2021-12-26T10:08:53.999Z</time>
      </trkpt>
      <trkpt lat="48.0365" lon="-1.53649">
        <ele>59.82647</ele>
        <time>2021-12-26T10:08:54.999Z</time>
      </trkpt>
      <trkpt lat="48.03646" lon="-1.53647">
        <ele>59.8613</ele>
        <time>2021-12-26T10:08:55.999Z</time>
      </trkpt>
      <trkpt lat="48.03642" lon="-1.53645">
        <ele>59.90917</ele>
        <time>2021-12-26T10:08:56.999Z</time>
      </trkpt>
      <trkpt lat="48.03638" lon="-1.53643">
        <ele>59.94846</ele>
        <time>2021-12-26T10:08:57.999Z</time>
      </trkpt>
      <trkpt lat="48.03634" lon="-1.53641">
        <ele>59.98563</ele>
        <time>2021-12-26T10:08:58.999Z</time>
      </trkpt>
      <trkpt lat="48.03629" lon="-1.53639">
        <ele>60.02378</ele>
        <time>2021-12-26T10:08:59.999Z</time>
      </trkpt>
      <trkpt lat="48.03625" lon="-1.53637">
        <ele>60.06407</ele>
        <time>2021-12-26T10:09:00.999Z</time>
      </trkpt>
      <trkpt lat="48.03621" lon="-1.53636">
        <ele>60.1158</ele>
        <time>2021-12-26T10:09:01.999Z</time>
      </trkpt>
      <trkpt lat="48.03617" lon="-1.53634">
        <ele>60.19074</ele>
        <time>2021-12-26T10:09:02.999Z</time>
      </trkpt>
      <trkpt lat="48.03612" lon="-1.53632">
        <ele>60.30112</ele>
        <time>2021-12-26T10:09:03.999Z</time>
      </trkpt>
      <trkpt lat="48.03608" lon="-1.53631">
        <ele>60.43004</ele>
        <time>2021-12-26T10:09:04.999Z</time>
      </trkpt>
      <trkpt lat="48.03604" lon="-1.5363">
        <ele>60.55826</ele>
        <time>2021-12-26T10:09:05.999Z</time>
      </trkpt>
      <trkpt lat="48.03599" lon="-1.53629">
        <ele>60.7065</ele>
        <time>2021-12-26T10:09:06.999Z</time>
      </trkpt>
      <trkpt lat="48.03595" lon="-1.53629">
        <ele>60.837</ele>
        <time>2021-12-26T10:09:07.999Z</time>
      </trkpt>
      <trkpt lat="48.03591" lon="-1.53629">
        <ele>60.93399</ele>
        <time>2021-12-26T10:09:08.999Z</time>
      </trkpt>
      <trkpt lat="48.03587" lon="-1.53629">
        <ele>61.01019</ele>
        <time>2021-12-26T10:09:09.999Z</time>
      </trkpt>
      <trkpt lat="48.03583" lon="-1.5363">
        <ele>61.074</ele>
        <time>2021-12-26T10:09:10.999Z</time>
      </trkpt>
      <trkpt lat="48.03579" lon="-1.5363">
        <ele>61.1226</ele>
        <time>2021-12-26T10:09:11.999Z</time>
      </trkpt>
      <trkpt lat="48.03575" lon="-1.5363">
        <ele>61.17167</ele>
        <time>2021-12-26T10:09:12.999Z</time>
      </trkpt>
      <trkpt lat="48.03571" lon="-1.53631">
        <ele>61.23033</ele>
        <time>2021-12-26T10:09:13.999Z</time>
      </trkpt>
      <trkpt lat="48.03567" lon="-1.53631">
        <ele>61.30626</ele>
        <time>2021-12-26T10:09:14.999Z</time>
      </trkpt>
      <trkpt lat="48.03563" lon="-1.53633">
        <ele>61.40197</ele>
        <time>2021-12-26T10:09:15.999Z</time>
      </trkpt>
      <trkpt lat="48.03559" lon="-1.53634">
        <ele>61.4952</ele>
        <time>2021-12-26T10:09:16.999Z</time>
      </trkpt>
      <trkpt lat="48.03555" lon="-1.53635">
        <ele>61.57959</ele>
        <time>2021-12-26T10:09:17.999Z</time>
      </trkpt>
      <trkpt lat="48.03551" lon="-1.53637">
        <ele>61.64682</ele>
        <time>2021-12-26T10:09:18.999Z</time>
      </trkpt>
      <trkpt lat="48.03548" lon="-1.5364">
        <ele>61.69087</ele>
        <time>2021-12-26T10:09:19.999Z</time>
      </trkpt>
      <trkpt lat="48.03545" lon="-1.53644">
        <ele>61.7165</ele>
        <time>2021-12-26T10:09:20.999Z</time>
      </trkpt>
      <trkpt lat="48.03542" lon="-1.53649">
        <ele>61.73784</ele>
        <time>2021-12-26T10:09:21.999Z</time>
      </trkpt>
      <trkpt lat="48.03539" lon="-1.53653">
        <ele>61.72779</ele>
        <time>2021-12-26T10:09:22.999Z</time>
      </trkpt>
      <trkpt lat="48.03537" lon="-1.53658">
        <ele>61.73009</ele>
        <time>2021-12-26T10:09:23.999Z</time>
      </trkpt>
      <trkpt lat="48.03535" lon="-1.53663">
        <ele>61.70226</ele>
        <time>2021-12-26T10:09:24.999Z</time>
      </trkpt>
      <trkpt lat="48.03533" lon="-1.53667">
        <ele>61.65561</ele>
        <time>2021-12-26T10:09:25.999Z</time>
      </trkpt>
      <trkpt lat="48.0353" lon="-1.53673">
        <ele>61.5844</ele>
        <time>2021-12-26T10:09:26.999Z</time>
      </trkpt>
      <trkpt lat="48.03528" lon="-1.53678">
        <ele>61.5162</ele>
        <time>2021-12-26T10:09:27.999Z</time>
      </trkpt>
      <trkpt lat="48.03525" lon="-1.53682">
        <ele>61.45243</ele>
        <time>2021-12-26T10:09:28.999Z</time>
      </trkpt>
      <trkpt lat="48.03521" lon="-1.53686">
        <ele>61.392</ele>
        <time>2021-12-26T10:09:29.999Z</time>
      </trkpt>
      <trkpt lat="48.03518" lon="-1.53689">
        <ele>61.34716</ele>
        <time>2021-12-26T10:09:30.999Z</time>
      </trkpt>
      <trkpt lat="48.03514" lon="-1.5369">
        <ele>61.31041</ele>
        <time>2021-12-26T10:09:31.999Z</time>
      </trkpt>
      <trkpt lat="48.03511" lon="-1.53691">
        <ele>61.2732</ele>
        <time>2021-12-26T10:09:32.999Z</time>
      </trkpt>
      <trkpt lat="48.03507" lon="-1.53692">
        <ele>61.22478</ele>
        <time>2021-12-26T10:09:33.999Z</time>
      </trkpt>
      <trkpt lat="48.03503" lon="-1.53692">
        <ele>61.16371</ele>
        <time>2021-12-26T10:09:34.999Z</time>
      </trkpt>
      <trkpt lat="48.035" lon="-1.53693">
        <ele>61.08394</ele>
        <time>2021-12-26T10:09:35.999Z</time>
      </trkpt>
      <trkpt lat="48.03496" lon="-1.53694">
        <ele>60.98027</ele>
        <time>2021-12-26T10:09:36.999Z</time>
      </trkpt>
      <trkpt lat="48.03492" lon="-1.53695">
        <ele>60.84749</ele>
        <time>2021-12-26T10:09:37.999Z</time>
      </trkpt>
      <trkpt lat="48.03489" lon="-1.53696">
        <ele>60.70653</ele>
        <time>2021-12-26T10:09:38.999Z</time>
      </trkpt>
      <trkpt lat="48.03485" lon="-1.53697">
        <ele>60.55178</ele>
        <time>2021-12-26T10:09:39.999Z</time>
      </trkpt>
      <trkpt lat="48.03481" lon="-1.53698">
        <ele>60.4303</ele>
        <time>2021-12-26T10:09:40.999Z</time>
      </trkpt>
      <trkpt lat="48.03478" lon="-1.537">
        <ele>60.33339</ele>
        <time>2021-12-26T10:09:41.999Z</time>
      </trkpt>
      <trkpt lat="48.03475" lon="-1.53705">
        <ele>60.29517</ele>
        <time>2021-12-26T10:09:42.999Z</time>
      </trkpt>
      <trkpt lat="48.03474" lon="-1.53711">
        <ele>60.28466</ele>
        <time>2021-12-26T10:09:43.999Z</time>
      </trkpt>
      <trkpt lat="48.03473" lon="-1.53717">
        <ele>60.28976</ele>
        <time>2021-12-26T10:09:44.999Z</time>
      </trkpt>
      <trkpt lat="48.03472" lon="-1.53723">
        <ele>60.31009</ele>
        <time>2021-12-26T10:09:45.999Z</time>
      </trkpt>
      <trkpt lat="48.03471" lon="-1.53729">
        <ele>60.34163</ele>
        <time>2021-12-26T10:09:46.999Z</time>
      </trkpt>
      <trkpt lat="48.0347" lon="-1.53735">
        <ele>60.38026</ele>
        <time>2021-12-26T10:09:47.999Z</time>
      </trkpt>
      <trkpt lat="48.03469" lon="-1.53741">
        <ele>60.4146</ele>
        <time>2021-12-26T10:09:48.999Z</time>
      </trkpt>
      <trkpt lat="48.03467" lon="-1.53747">
        <ele>60.44011</ele>
        <time>2021-12-26T10:09:49.999Z</time>
      </trkpt>
      <trkpt lat="48.03466" lon="-1.53753">
        <ele>60.45898</ele>
        <time>2021-12-26T10:09:50.999Z</time>
      </trkpt>
      <trkpt lat="48.03465" lon="-1.53759">
        <ele>60.4703</ele>
        <time>2021-12-26T10:09:51.999Z</time>
      </trkpt>
      <trkpt lat="48.03464" lon="-1.53765">
        <ele>60.49458</ele>
        <time>2021-12-26T10:09:52.999Z</time>
      </trkpt>
      <trkpt lat="48.03463" lon="-1.53772">
        <ele>60.52695</ele>
        <time>2021-12-26T10:09:53.999Z</time>
      </trkpt>
      <trkpt lat="48.03463" lon="-1.53778">
        <ele>60.56988</ele>
        <time>2021-12-26T10:09:54.999Z</time>
      </trkpt>
      <trkpt lat="48.03463" lon="-1.53785">
        <ele>60.61257</ele>
        <time>2021-12-26T10:09:55.999Z</time>
      </trkpt>
      <trkpt lat="48.03464" lon="-1.53791">
        <ele>60.65595</ele>
        <time>2021-12-26T10:09:56.999Z</time>
      </trkpt>
      <trkpt lat="48.03466" lon="-1.53797">
        <ele>60.6777</ele>
        <time>2021-12-26T10:09:57.999Z</time>
      </trkpt>
      <trkpt lat="48.03467" lon="-1.53802">
        <ele>60.69587</ele>
        <time>2021-12-26T10:09:58.999Z</time>
      </trkpt>
      <trkpt lat="48.03469" lon="-1.53808">
        <ele>60.71036</ele>
        <time>2021-12-26T10:09:59.999Z</time>
      </trkpt>
      <trkpt lat="48.03471" lon="-1.53813">
        <ele>60.71954</ele>
        <time>2021-12-26T10:10:00.999Z</time>
      </trkpt>
      <trkpt lat="48.0347" lon="-1.53819">
        <ele>60.72422</ele>
        <time>2021-12-26T10:10:01.999Z</time>
      </trkpt>
      <trkpt lat="48.03468" lon="-1.53824">
        <ele>60.73013</ele>
        <time>2021-12-26T10:10:02.999Z</time>
      </trkpt>
      <trkpt lat="48.03465" lon="-1.53828">
        <ele>60.727</ele>
        <time>2021-12-26T10:10:03.999Z</time>
      </trkpt>
      <trkpt lat="48.03461" lon="-1.5383">
        <ele>60.69207</ele>
        <time>2021-12-26T10:10:04.999Z</time>
      </trkpt>
      <trkpt lat="48.03457" lon="-1.53832">
        <ele>60.64328</ele>
        <time>2021-12-26T10:10:05.999Z</time>
      </trkpt>
      <trkpt lat="48.03453" lon="-1.53834">
        <ele>60.58212</ele>
        <time>2021-12-26T10:10:06.999Z</time>
      </trkpt>
      <trkpt lat="48.03449" lon="-1.53836">
        <ele>60.50597</ele>
        <time>2021-12-26T10:10:07.999Z</time>
      </trkpt>
      <trkpt lat="48.03445" lon="-1.53839">
        <ele>60.42861</ele>
        <time>2021-12-26T10:10:08.999Z</time>
      </trkpt>
      <trkpt lat="48.03441" lon="-1.5384">
        <ele>60.34982</ele>
        <time>2021-12-26T10:10:09.999Z</time>
      </trkpt>
      <trkpt lat="48.03437" lon="-1.53841">
        <ele>60.26815</ele>
        <time>2021-12-26T10:10:10.999Z</time>
      </trkpt>
      <trkpt lat="48.03432" lon="-1.53841">
        <ele>60.16232</ele>
        <time>2021-12-26T10:10:11.999Z</time>
      </trkpt>
      <trkpt lat="48.03428" lon="-1.5384">
        <ele>60.02222</ele>
        <time>2021-12-26T10:10:12.999Z</time>
      </trkpt>
      <trkpt lat="48.03424" lon="-1.53839">
        <ele>59.90894</ele>
        <time>2021-12-26T10:10:13.999Z</time>
      </trkpt>
      <trkpt lat="48.03419" lon="-1.53839">
        <ele>59.79423</ele>
        <time>2021-12-26T10:10:14.999Z</time>
      </trkpt>
      <trkpt lat="48.03415" lon="-1.53838">
        <ele>59.68829</ele>
        <time>2021-12-26T10:10:15.999Z</time>
      </trkpt>
      <trkpt lat="48.03412" lon="-1.53837">
        <ele>59.57799</ele>
        <time>2021-12-26T10:10:16.999Z</time>
      </trkpt>
      <trkpt lat="48.03407" lon="-1.53833">
        <ele>59.34343</ele>
        <time>2021-12-26T10:10:17.999Z</time>
      </trkpt>
      <trkpt lat="48.03407" lon="-1.53833">
        <ele>59.34343</ele>
        <time>2021-12-26T10:10:17.999Z</time>
      </trkpt>
      <trkpt lat="48.03402" lon="-1.53829">
        <ele>59.11579</ele>
        <time>2021-12-26T10:10:18.999Z</time>
      </trkpt>
      <trkpt lat="48.03398" lon="-1.53824">
        <ele>58.89926</ele>
        <time>2021-12-26T10:10:19.999Z</time>
      </trkpt>
      <trkpt lat="48.03394" lon="-1.53819">
        <ele>58.70789</ele>
        <time>2021-12-26T10:10:20.999Z</time>
      </trkpt>
      <trkpt lat="48.0339" lon="-1.53815">
        <ele>58.53375</ele>
        <time>2021-12-26T10:10:21.999Z</time>
      </trkpt>
      <trkpt lat="48.03386" lon="-1.5381">
        <ele>58.34537</ele>
        <time>2021-12-26T10:10:22.999Z</time>
      </trkpt>
      <trkpt lat="48.03382" lon="-1.53805">
        <ele>58.13575</ele>
        <time>2021-12-26T10:10:23.999Z</time>
      </trkpt>
      <trkpt lat="48.03379" lon="-1.538">
        <ele>57.91144</ele>
        <time>2021-12-26T10:10:24.999Z</time>
      </trkpt>
      <trkpt lat="48.03375" lon="-1.53795">
        <ele>57.69528</ele>
        <time>2021-12-26T10:10:25.999Z</time>
      </trkpt>
      <trkpt lat="48.03371" lon="-1.53791">
        <ele>57.50896</ele>
        <time>2021-12-26T10:10:26.999Z</time>
      </trkpt>
      <trkpt lat="48.03367" lon="-1.53786">
        <ele>57.33058</ele>
        <time>2021-12-26T10:10:27.999Z</time>
      </trkpt>
      <trkpt lat="48.03363" lon="-1.53782">
        <ele>57.16613</ele>
        <time>2021-12-26T10:10:28.999Z</time>
      </trkpt>
      <trkpt lat="48.03358" lon="-1.53779">
        <ele>56.94336</ele>
        <time>2021-12-26T10:10:29.999Z</time>
      </trkpt>
      <trkpt lat="48.03353" lon="-1.53775">
        <ele>56.68365</ele>
        <time>2021-12-26T10:10:30.999Z</time>
      </trkpt>
      <trkpt lat="48.03349" lon="-1.53771">
        <ele>56.4189</ele>
        <time>2021-12-26T10:10:31.999Z</time>
      </trkpt>
      <trkpt lat="48.03344" lon="-1.53768">
        <ele>56.11422</ele>
        <time>2021-12-26T10:10:32.999Z</time>
      </trkpt>
      <trkpt lat="48.03338" lon="-1.53766">
        <ele>55.82078</ele>
        <time>2021-12-26T10:10:33.999Z</time>
      </trkpt>
      <trkpt lat="48.03333" lon="-1.53764">
        <ele>55.5388</ele>
        <time>2021-12-26T10:10:34.999Z</time>
      </trkpt>
      <trkpt lat="48.03328" lon="-1.53762">
        <ele>55.27413</ele>
        <time>2021-12-26T10:10:35.999Z</time>
      </trkpt>
      <trkpt lat="48.03323" lon="-1.5376">
        <ele>55.04059</ele>
        <time>2021-12-26T10:10:36.999Z</time>
      </trkpt>
      <trkpt lat="48.03319" lon="-1.53758">
        <ele>54.81432</ele>
        <time>2021-12-26T10:10:37.999Z</time>
      </trkpt>
      <trkpt lat="48.03314" lon="-1.53756">
        <ele>54.58542</ele>
        <time>2021-12-26T10:10:38.999Z</time>
      </trkpt>
      <trkpt lat="48.0331" lon="-1.53753">
        <ele>54.34078</ele>
        <time>2021-12-26T10:10:39.999Z</time>
      </trkpt>
      <trkpt lat="48.03305" lon="-1.53752">
        <ele>54.09642</ele>
        <time>2021-12-26T10:10:40.999Z</time>
      </trkpt>
      <trkpt lat="48.033" lon="-1.5375">
        <ele>53.84531</ele>
        <time>2021-12-26T10:10:41.999Z</time>
      </trkpt>
      <trkpt lat="48.03296" lon="-1.53748">
        <ele>53.59688</ele>
        <time>2021-12-26T10:10:42.999Z</time>
      </trkpt>
      <trkpt lat="48.03291" lon="-1.53746">
        <ele>53.35111</ele>
        <time>2021-12-26T10:10:43.999Z</time>
      </trkpt>
      <trkpt lat="48.03286" lon="-1.53744">
        <ele>53.10964</ele>
        <time>2021-12-26T10:10:44.999Z</time>
      </trkpt>
      <trkpt lat="48.0328" lon="-1.53741">
        <ele>52.86319</ele>
        <time>2021-12-26T10:10:45.999Z</time>
      </trkpt>
      <trkpt lat="48.03275" lon="-1.53739">
        <ele>52.59569</ele>
        <time>2021-12-26T10:10:46.999Z</time>
      </trkpt>
      <trkpt lat="48.03269" lon="-1.53736">
        <ele>52.28838</ele>
        <time>2021-12-26T10:10:47.999Z</time>
      </trkpt>
      <trkpt lat="48.03264" lon="-1.53733">
        <ele>51.94365</ele>
        <time>2021-12-26T10:10:48.999Z</time>
      </trkpt>
      <trkpt lat="48.03258" lon="-1.53729">
        <ele>51.56894</ele>
        <time>2021-12-26T10:10:49.999Z</time>
      </trkpt>
      <trkpt lat="48.03252" lon="-1.53726">
        <ele>51.18324</ele>
        <time>2021-12-26T10:10:50.999Z</time>
      </trkpt>
      <trkpt lat="48.03246" lon="-1.53724">
        <ele>50.76476</ele>
        <time>2021-12-26T10:10:51.999Z</time>
      </trkpt>
      <trkpt lat="48.0324" lon="-1.53721">
        <ele>50.30691</ele>
        <time>2021-12-26T10:10:52.999Z</time>
      </trkpt>
      <trkpt lat="48.03234" lon="-1.53719">
        <ele>49.87728</ele>
        <time>2021-12-26T10:10:53.999Z</time>
      </trkpt>
      <trkpt lat="48.03228" lon="-1.53716">
        <ele>49.47161</ele>
        <time>2021-12-26T10:10:54.999Z</time>
      </trkpt>
      <trkpt lat="48.03222" lon="-1.53713">
        <ele>49.1091</ele>
        <time>2021-12-26T10:10:55.999Z</time>
      </trkpt>
      <trkpt lat="48.03216" lon="-1.53711">
        <ele>48.76022</ele>
        <time>2021-12-26T10:10:56.999Z</time>
      </trkpt>
      <trkpt lat="48.03209" lon="-1.53709">
        <ele>48.3657</ele>
        <time>2021-12-26T10:10:57.999Z</time>
      </trkpt>
      <trkpt lat="48.03203" lon="-1.53707">
        <ele>47.90144</ele>
        <time>2021-12-26T10:10:58.999Z</time>
      </trkpt>
      <trkpt lat="48.03197" lon="-1.53705">
        <ele>47.37547</ele>
        <time>2021-12-26T10:10:59.999Z</time>
      </trkpt>
      <trkpt lat="48.0319" lon="-1.53704">
        <ele>46.84519</ele>
        <time>2021-12-26T10:11:00.999Z</time>
      </trkpt>
      <trkpt lat="48.03183" lon="-1.53703">
        <ele>46.37263</ele>
        <time>2021-12-26T10:11:01.999Z</time>
      </trkpt>
      <trkpt lat="48.03177" lon="-1.53702">
        <ele>45.99674</ele>
        <time>2021-12-26T10:11:02.999Z</time>
      </trkpt>
      <trkpt lat="48.0317" lon="-1.53703">
        <ele>45.66161</ele>
        <time>2021-12-26T10:11:03.999Z</time>
      </trkpt>
      <trkpt lat="48.03164" lon="-1.53703">
        <ele>45.33741</ele>
        <time>2021-12-26T10:11:04.999Z</time>
      </trkpt>
      <trkpt lat="48.03158" lon="-1.53704">
        <ele>45.05458</ele>
        <time>2021-12-26T10:11:05.999Z</time>
      </trkpt>
      <trkpt lat="48.03152" lon="-1.53705">
        <ele>44.78426</ele>
        <time>2021-12-26T10:11:06.999Z</time>
      </trkpt>
      <trkpt lat="48.03146" lon="-1.53706">
        <ele>44.54114</ele>
        <time>2021-12-26T10:11:07.999Z</time>
      </trkpt>
      <trkpt lat="48.0314" lon="-1.53706">
        <ele>44.30066</ele>
        <time>2021-12-26T10:11:08.999Z</time>
      </trkpt>
      <trkpt lat="48.03135" lon="-1.53706">
        <ele>44.11858</ele>
        <time>2021-12-26T10:11:09.999Z</time>
      </trkpt>
      <trkpt lat="48.03131" lon="-1.53707">
        <ele>43.99034</ele>
        <time>2021-12-26T10:11:10.999Z</time>
      </trkpt>
      <trkpt lat="48.03128" lon="-1.53708">
        <ele>43.89293</ele>
        <time>2021-12-26T10:11:11.999Z</time>
      </trkpt>
      <trkpt lat="48.03128" lon="-1.53708">
        <ele>43.89293</ele>
        <time>2021-12-26T10:11:11.999Z</time>
      </trkpt>
      <trkpt lat="48.03124" lon="-1.53707">
        <ele>43.78631</ele>
        <time>2021-12-26T10:11:12.999Z</time>
      </trkpt>
      <trkpt lat="48.03121" lon="-1.53704">
        <ele>43.69986</ele>
        <time>2021-12-26T10:11:13.999Z</time>
      </trkpt>
      <trkpt lat="48.03122" lon="-1.53697">
        <ele>43.74459</ele>
        <time>2021-12-26T10:11:14.999Z</time>
      </trkpt>
      <trkpt lat="48.03123" lon="-1.5369">
        <ele>43.76044</ele>
        <time>2021-12-26T10:11:15.999Z</time>
      </trkpt>
      <trkpt lat="48.03121" lon="-1.53684">
        <ele>43.72413</ele>
        <time>2021-12-26T10:11:16.999Z</time>
      </trkpt>
      <trkpt lat="48.0312" lon="-1.53678">
        <ele>43.68328</ele>
        <time>2021-12-26T10:11:17.999Z</time>
      </trkpt>
      <trkpt lat="48.03117" lon="-1.53675">
        <ele>43.59466</ele>
        <time>2021-12-26T10:11:18.999Z</time>
      </trkpt>
      <trkpt lat="48.03113" lon="-1.53668">
        <ele>43.50618</ele>
        <time>2021-12-26T10:11:19.999Z</time>
      </trkpt>
      <trkpt lat="48.03108" lon="-1.53662">
        <ele>43.45728</ele>
        <time>2021-12-26T10:11:20.999Z</time>
      </trkpt>
      <trkpt lat="48.03105" lon="-1.53659">
        <ele>43.44947</ele>
        <time>2021-12-26T10:11:21.999Z</time>
      </trkpt>
      <trkpt lat="48.03103" lon="-1.53651">
        <ele>43.54918</ele>
        <time>2021-12-26T10:11:23.999Z</time>
      </trkpt>
      <trkpt lat="48.03104" lon="-1.53644">
        <ele>43.67177</ele>
        <time>2021-12-26T10:11:24.999Z</time>
      </trkpt>
      <trkpt lat="48.03105" lon="-1.53638">
        <ele>43.7925</ele>
        <time>2021-12-26T10:11:25.999Z</time>
      </trkpt>
      <trkpt lat="48.03106" lon="-1.53631">
        <ele>43.89478</ele>
        <time>2021-12-26T10:11:26.999Z</time>
      </trkpt>
      <trkpt lat="48.03107" lon="-1.53625">
        <ele>43.99114</ele>
        <time>2021-12-26T10:11:27.999Z</time>
      </trkpt>
      <trkpt lat="48.03108" lon="-1.53618">
        <ele>44.08036</ele>
        <time>2021-12-26T10:11:28.999Z</time>
      </trkpt>
      <trkpt lat="48.03109" lon="-1.53613">
        <ele>44.1495</ele>
        <time>2021-12-26T10:11:29.999Z</time>
      </trkpt>
      <trkpt lat="48.0311" lon="-1.53608">
        <ele>44.21736</ele>
        <time>2021-12-26T10:11:30.999Z</time>
      </trkpt>
      <trkpt lat="48.03111" lon="-1.53601">
        <ele>44.31247</ele>
        <time>2021-12-26T10:11:31.999Z</time>
      </trkpt>
      <trkpt lat="48.03111" lon="-1.53595">
        <ele>44.40467</ele>
        <time>2021-12-26T10:11:32.999Z</time>
      </trkpt>
      <trkpt lat="48.03112" lon="-1.53589">
        <ele>44.50085</ele>
        <time>2021-12-26T10:11:33.999Z</time>
      </trkpt>
      <trkpt lat="48.03112" lon="-1.53583">
        <ele>44.59683</ele>
        <time>2021-12-26T10:11:34.999Z</time>
      </trkpt>
      <trkpt lat="48.03113" lon="-1.53577">
        <ele>44.6939</ele>
        <time>2021-12-26T10:11:35.999Z</time>
      </trkpt>
      <trkpt lat="48.03114" lon="-1.53572">
        <ele>44.79153</ele>
        <time>2021-12-26T10:11:36.999Z</time>
      </trkpt>
      <trkpt lat="48.03114" lon="-1.53565">
        <ele>44.90282</ele>
        <time>2021-12-26T10:11:37.999Z</time>
      </trkpt>
      <trkpt lat="48.03115" lon="-1.53559">
        <ele>45.00888</ele>
        <time>2021-12-26T10:11:38.999Z</time>
      </trkpt>
      <trkpt lat="48.03115" lon="-1.53553">
        <ele>45.1167</ele>
        <time>2021-12-26T10:11:39.999Z</time>
      </trkpt>
      <trkpt lat="48.03116" lon="-1.53548">
        <ele>45.21847</ele>
        <time>2021-12-26T10:11:40.999Z</time>
      </trkpt>
      <trkpt lat="48.03116" lon="-1.53543">
        <ele>45.3139</ele>
        <time>2021-12-26T10:11:41.999Z</time>
      </trkpt>
      <trkpt lat="48.03116" lon="-1.53537">
        <ele>45.42996</ele>
        <time>2021-12-26T10:11:42.999Z</time>
      </trkpt>
      <trkpt lat="48.03117" lon="-1.53532">
        <ele>45.53953</ele>
        <time>2021-12-26T10:11:43.999Z</time>
      </trkpt>
      <trkpt lat="48.03117" lon="-1.53526">
        <ele>45.67245</ele>
        <time>2021-12-26T10:11:44.999Z</time>
      </trkpt>
      <trkpt lat="48.03117" lon="-1.5352">
        <ele>45.85063</ele>
        <time>2021-12-26T10:11:45.999Z</time>
      </trkpt>
      <trkpt lat="48.03117" lon="-1.53514">
        <ele>46.0386</ele>
        <time>2021-12-26T10:11:46.999Z</time>
      </trkpt>
      <trkpt lat="48.03117" lon="-1.53509">
        <ele>46.24769</ele>
        <time>2021-12-26T10:11:47.999Z</time>
      </trkpt>
      <trkpt lat="48.03117" lon="-1.53503">
        <ele>46.47001</ele>
        <time>2021-12-26T10:11:48.999Z</time>
      </trkpt>
      <trkpt lat="48.03117" lon="-1.53498">
        <ele>46.67597</ele>
        <time>2021-12-26T10:11:49.999Z</time>
      </trkpt>
      <trkpt lat="48.03116" lon="-1.53493">
        <ele>46.86867</ele>
        <time>2021-12-26T10:11:50.999Z</time>
      </trkpt>
      <trkpt lat="48.03116" lon="-1.53488">
        <ele>47.02718</ele>
        <time>2021-12-26T10:11:51.999Z</time>
      </trkpt>
      <trkpt lat="48.03116" lon="-1.53485">
        <ele>47.14739</ele>
        <time>2021-12-26T10:11:52.999Z</time>
      </trkpt>
      <trkpt lat="48.03116" lon="-1.53481">
        <ele>47.25198</ele>
        <time>2021-12-26T10:11:53.999Z</time>
      </trkpt>
      <trkpt lat="48.03116" lon="-1.53478">
        <ele>47.35225</ele>
        <time>2021-12-26T10:11:54.999Z</time>
      </trkpt>
      <trkpt lat="48.03116" lon="-1.53474">
        <ele>47.4629</ele>
        <time>2021-12-26T10:11:55.999Z</time>
      </trkpt>
      <trkpt lat="48.03116" lon="-1.5347">
        <ele>47.57391</ele>
        <time>2021-12-26T10:11:56.999Z</time>
      </trkpt>
      <trkpt lat="48.03115" lon="-1.53465">
        <ele>47.68912</ele>
        <time>2021-12-26T10:11:57.999Z</time>
      </trkpt>
      <trkpt lat="48.03115" lon="-1.53461">
        <ele>47.79908</ele>
        <time>2021-12-26T10:11:58.999Z</time>
      </trkpt>
      <trkpt lat="48.03114" lon="-1.53457">
        <ele>47.91273</ele>
        <time>2021-12-26T10:11:59.999Z</time>
      </trkpt>
      <trkpt lat="48.03114" lon="-1.53453">
        <ele>48.01377</ele>
        <time>2021-12-26T10:12:00.999Z</time>
      </trkpt>
      <trkpt lat="48.03113" lon="-1.5345">
        <ele>48.10565</ele>
        <time>2021-12-26T10:12:01.999Z</time>
      </trkpt>
      <trkpt lat="48.03113" lon="-1.53445">
        <ele>48.20622</ele>
        <time>2021-12-26T10:12:02.999Z</time>
      </trkpt>
      <trkpt lat="48.03112" lon="-1.53442">
        <ele>48.2851</ele>
        <time>2021-12-26T10:12:03.999Z</time>
      </trkpt>
      <trkpt lat="48.03111" lon="-1.53438">
        <ele>48.36416</ele>
        <time>2021-12-26T10:12:04.999Z</time>
      </trkpt>
      <trkpt lat="48.03111" lon="-1.53435">
        <ele>48.42047</ele>
        <time>2021-12-26T10:12:05.999Z</time>
      </trkpt>
      <trkpt lat="48.0311" lon="-1.53432">
        <ele>48.48543</ele>
        <time>2021-12-26T10:12:06.999Z</time>
      </trkpt>
      <trkpt lat="48.03109" lon="-1.53428">
        <ele>48.57175</ele>
        <time>2021-12-26T10:12:07.999Z</time>
      </trkpt>
      <trkpt lat="48.03108" lon="-1.53426">
        <ele>48.64529</ele>
        <time>2021-12-26T10:12:08.999Z</time>
      </trkpt>
      <trkpt lat="48.03108" lon="-1.53422">
        <ele>48.74313</ele>
        <time>2021-12-26T10:12:09.999Z</time>
      </trkpt>
      <trkpt lat="48.03107" lon="-1.5342">
        <ele>48.83251</ele>
        <time>2021-12-26T10:12:10.999Z</time>
      </trkpt>
      <trkpt lat="48.03106" lon="-1.53417">
        <ele>48.94899</ele>
        <time>2021-12-26T10:12:11.999Z</time>
      </trkpt>
      <trkpt lat="48.03105" lon="-1.53413">
        <ele>49.08596</ele>
        <time>2021-12-26T10:12:12.999Z</time>
      </trkpt>
      <trkpt lat="48.03104" lon="-1.5341">
        <ele>49.24858</ele>
        <time>2021-12-26T10:12:13.999Z</time>
      </trkpt>
      <trkpt lat="48.03104" lon="-1.5341">
        <ele>49.24858</ele>
        <time>2021-12-26T10:12:13.999Z</time>
      </trkpt>
      <trkpt lat="48.03103" lon="-1.53406">
        <ele>49.40882</ele>
        <time>2021-12-26T10:12:14.999Z</time>
      </trkpt>
      <trkpt lat="48.03102" lon="-1.53403">
        <ele>49.57584</ele>
        <time>2021-12-26T10:12:15.999Z</time>
      </trkpt>
      <trkpt lat="48.03102" lon="-1.53399">
        <ele>49.7458</ele>
        <time>2021-12-26T10:12:16.999Z</time>
      </trkpt>
      <trkpt lat="48.03101" lon="-1.53395">
        <ele>49.93945</ele>
        <time>2021-12-26T10:12:17.999Z</time>
      </trkpt>
      <trkpt lat="48.031" lon="-1.53391">
        <ele>50.09783</ele>
        <time>2021-12-26T10:12:18.999Z</time>
      </trkpt>
      <trkpt lat="48.031" lon="-1.53388">
        <ele>50.24797</ele>
        <time>2021-12-26T10:12:19.999Z</time>
      </trkpt>
      <trkpt lat="48.03099" lon="-1.53384">
        <ele>50.41628</ele>
        <time>2021-12-26T10:12:20.999Z</time>
      </trkpt>
      <trkpt lat="48.03099" lon="-1.5338">
        <ele>50.59461</ele>
        <time>2021-12-26T10:12:21.999Z</time>
      </trkpt>
      <trkpt lat="48.03099" lon="-1.53376">
        <ele>50.76136</ele>
        <time>2021-12-26T10:12:22.999Z</time>
      </trkpt>
      <trkpt lat="48.03098" lon="-1.53372">
        <ele>50.92009</ele>
        <time>2021-12-26T10:12:23.999Z</time>
      </trkpt>
      <trkpt lat="48.03098" lon="-1.53368">
        <ele>51.09086</ele>
        <time>2021-12-26T10:12:24.999Z</time>
      </trkpt>
      <trkpt lat="48.03098" lon="-1.53365">
        <ele>51.20957</ele>
        <time>2021-12-26T10:12:25.999Z</time>
      </trkpt>
      <trkpt lat="48.03097" lon="-1.53363">
        <ele>51.32469</ele>
        <time>2021-12-26T10:12:26.999Z</time>
      </trkpt>
      <trkpt lat="48.03097" lon="-1.53359">
        <ele>51.48088</ele>
        <time>2021-12-26T10:12:27.999Z</time>
      </trkpt>
      <trkpt lat="48.03097" lon="-1.53355">
        <ele>51.62129</ele>
        <time>2021-12-26T10:12:28.999Z</time>
      </trkpt>
      <trkpt lat="48.03097" lon="-1.53351">
        <ele>51.79053</ele>
        <time>2021-12-26T10:12:29.999Z</time>
      </trkpt>
      <trkpt lat="48.03096" lon="-1.53348">
        <ele>51.91524</ele>
        <time>2021-12-26T10:12:31.999Z</time>
      </trkpt>
      <trkpt lat="48.03096" lon="-1.53343">
        <ele>52.06581</ele>
        <time>2021-12-26T10:12:32.999Z</time>
      </trkpt>
      <trkpt lat="48.03096" lon="-1.53339">
        <ele>52.22494</ele>
        <time>2021-12-26T10:12:33.999Z</time>
      </trkpt>
      <trkpt lat="48.03096" lon="-1.53335">
        <ele>52.38293</ele>
        <time>2021-12-26T10:12:34.999Z</time>
      </trkpt>
      <trkpt lat="48.03096" lon="-1.53332">
        <ele>52.49698</ele>
        <time>2021-12-26T10:12:35.999Z</time>
      </trkpt>
      <trkpt lat="48.03096" lon="-1.53328">
        <ele>52.60773</ele>
        <time>2021-12-26T10:12:36.999Z</time>
      </trkpt>
      <trkpt lat="48.03097" lon="-1.53324">
        <ele>52.75057</ele>
        <time>2021-12-26T10:12:37.999Z</time>
      </trkpt>
      <trkpt lat="48.03097" lon="-1.53321">
        <ele>52.87252</ele>
        <time>2021-12-26T10:12:38.999Z</time>
      </trkpt>
      <trkpt lat="48.03097" lon="-1.53317">
        <ele>52.98507</ele>
        <time>2021-12-26T10:12:39.999Z</time>
      </trkpt>
      <trkpt lat="48.03097" lon="-1.53313">
        <ele>53.08894</ele>
        <time>2021-12-26T10:12:40.999Z</time>
      </trkpt>
      <trkpt lat="48.03098" lon="-1.53309">
        <ele>53.18515</ele>
        <time>2021-12-26T10:12:41.999Z</time>
      </trkpt>
      <trkpt lat="48.03098" lon="-1.53306">
        <ele>53.26763</ele>
        <time>2021-12-26T10:12:42.999Z</time>
      </trkpt>
      <trkpt lat="48.03098" lon="-1.53302">
        <ele>53.34211</ele>
        <time>2021-12-26T10:12:43.999Z</time>
      </trkpt>
      <trkpt lat="48.03099" lon="-1.53299">
        <ele>53.41368</ele>
        <time>2021-12-26T10:12:44.999Z</time>
      </trkpt>
      <trkpt lat="48.03099" lon="-1.53295">
        <ele>53.48978</ele>
        <time>2021-12-26T10:12:45.999Z</time>
      </trkpt>
      <trkpt lat="48.031" lon="-1.53292">
        <ele>53.56395</ele>
        <time>2021-12-26T10:12:46.999Z</time>
      </trkpt>
      <trkpt lat="48.031" lon="-1.53288">
        <ele>53.64063</ele>
        <time>2021-12-26T10:12:47.999Z</time>
      </trkpt>
      <trkpt lat="48.03101" lon="-1.53285">
        <ele>53.71842</ele>
        <time>2021-12-26T10:12:48.999Z</time>
      </trkpt>
      <trkpt lat="48.03102" lon="-1.53282">
        <ele>53.79866</ele>
        <time>2021-12-26T10:12:49.999Z</time>
      </trkpt>
      <trkpt lat="48.03102" lon="-1.53278">
        <ele>53.87924</ele>
        <time>2021-12-26T10:12:50.999Z</time>
      </trkpt>
      <trkpt lat="48.03103" lon="-1.53275">
        <ele>53.94887</ele>
        <time>2021-12-26T10:12:51.999Z</time>
      </trkpt>
      <trkpt lat="48.03103" lon="-1.53272">
        <ele>54.02446</ele>
        <time>2021-12-26T10:12:52.999Z</time>
      </trkpt>
      <trkpt lat="48.03104" lon="-1.53268">
        <ele>54.10037</ele>
        <time>2021-12-26T10:12:53.999Z</time>
      </trkpt>
      <trkpt lat="48.03104" lon="-1.53265">
        <ele>54.17158</ele>
        <time>2021-12-26T10:12:54.999Z</time>
      </trkpt>
      <trkpt lat="48.03104" lon="-1.53262">
        <ele>54.24647</ele>
        <time>2021-12-26T10:12:55.999Z</time>
      </trkpt>
      <trkpt lat="48.03105" lon="-1.53258">
        <ele>54.32614</ele>
        <time>2021-12-26T10:12:56.999Z</time>
      </trkpt>
      <trkpt lat="48.03105" lon="-1.53254">
        <ele>54.40956</ele>
        <time>2021-12-26T10:12:57.999Z</time>
      </trkpt>
      <trkpt lat="48.03105" lon="-1.53251">
        <ele>54.49547</ele>
        <time>2021-12-26T10:12:58.999Z</time>
      </trkpt>
      <trkpt lat="48.03105" lon="-1.53247">
        <ele>54.57903</ele>
        <time>2021-12-26T10:12:59.999Z</time>
      </trkpt>
      <trkpt lat="48.03105" lon="-1.53244">
        <ele>54.67293</ele>
        <time>2021-12-26T10:13:00.999Z</time>
      </trkpt>
      <trkpt lat="48.03105" lon="-1.5324">
        <ele>54.78621</ele>
        <time>2021-12-26T10:13:01.999Z</time>
      </trkpt>
      <trkpt lat="48.03105" lon="-1.53236">
        <ele>54.89964</ele>
        <time>2021-12-26T10:13:02.999Z</time>
      </trkpt>
      <trkpt lat="48.03106" lon="-1.53233">
        <ele>55.00689</ele>
        <time>2021-12-26T10:13:03.999Z</time>
      </trkpt>
      <trkpt lat="48.03105" lon="-1.53229">
        <ele>55.10312</ele>
        <time>2021-12-26T10:13:04.999Z</time>
      </trkpt>
      <trkpt lat="48.03105" lon="-1.53226">
        <ele>55.19928</ele>
        <time>2021-12-26T10:13:05.999Z</time>
      </trkpt>
      <trkpt lat="48.03105" lon="-1.53222">
        <ele>55.2859</ele>
        <time>2021-12-26T10:13:06.999Z</time>
      </trkpt>
      <trkpt lat="48.03105" lon="-1.53219">
        <ele>55.36353</ele>
        <time>2021-12-26T10:13:07.999Z</time>
      </trkpt>
      <trkpt lat="48.03105" lon="-1.53215">
        <ele>55.43637</ele>
        <time>2021-12-26T10:13:08.999Z</time>
      </trkpt>
      <trkpt lat="48.03105" lon="-1.53211">
        <ele>55.51363</ele>
        <time>2021-12-26T10:13:09.999Z</time>
      </trkpt>
      <trkpt lat="48.03106" lon="-1.53208">
        <ele>55.58101</ele>
        <time>2021-12-26T10:13:10.999Z</time>
      </trkpt>
      <trkpt lat="48.03106" lon="-1.53204">
        <ele>55.64556</ele>
        <time>2021-12-26T10:13:11.999Z</time>
      </trkpt>
      <trkpt lat="48.03106" lon="-1.532">
        <ele>55.70124</ele>
        <time>2021-12-26T10:13:12.999Z</time>
      </trkpt>
      <trkpt lat="48.03106" lon="-1.53195">
        <ele>55.75771</ele>
        <time>2021-12-26T10:13:14.999Z</time>
      </trkpt>
      <trkpt lat="48.03106" lon="-1.53192">
        <ele>55.79685</ele>
        <time>2021-12-26T10:13:15.999Z</time>
      </trkpt>
      <trkpt lat="48.03106" lon="-1.53187">
        <ele>55.82624</ele>
        <time>2021-12-26T10:13:16.999Z</time>
      </trkpt>
      <trkpt lat="48.03106" lon="-1.53183">
        <ele>55.84513</ele>
        <time>2021-12-26T10:13:17.999Z</time>
      </trkpt>
      <trkpt lat="48.03106" lon="-1.53178">
        <ele>55.84551</ele>
        <time>2021-12-26T10:13:18.999Z</time>
      </trkpt>
      <trkpt lat="48.03106" lon="-1.53174">
        <ele>55.81142</ele>
        <time>2021-12-26T10:13:19.999Z</time>
      </trkpt>
      <trkpt lat="48.03106" lon="-1.53169">
        <ele>55.76951</ele>
        <time>2021-12-26T10:13:20.999Z</time>
      </trkpt>
      <trkpt lat="48.03106" lon="-1.53165">
        <ele>55.73317</ele>
        <time>2021-12-26T10:13:21.999Z</time>
      </trkpt>
      <trkpt lat="48.03106" lon="-1.53161">
        <ele>55.70516</ele>
        <time>2021-12-26T10:13:22.999Z</time>
      </trkpt>
      <trkpt lat="48.03106" lon="-1.53157">
        <ele>55.68009</ele>
        <time>2021-12-26T10:13:23.999Z</time>
      </trkpt>
      <trkpt lat="48.03106" lon="-1.53154">
        <ele>55.66941</ele>
        <time>2021-12-26T10:13:24.999Z</time>
      </trkpt>
      <trkpt lat="48.03106" lon="-1.5315">
        <ele>55.6747</ele>
        <time>2021-12-26T10:13:25.999Z</time>
      </trkpt>
      <trkpt lat="48.03106" lon="-1.53145">
        <ele>55.6989</ele>
        <time>2021-12-26T10:13:26.999Z</time>
      </trkpt>
      <trkpt lat="48.03106" lon="-1.53141">
        <ele>55.73372</ele>
        <time>2021-12-26T10:13:27.999Z</time>
      </trkpt>
      <trkpt lat="48.03107" lon="-1.53137">
        <ele>55.77741</ele>
        <time>2021-12-26T10:13:28.999Z</time>
      </trkpt>
      <trkpt lat="48.03107" lon="-1.53133">
        <ele>55.83228</ele>
        <time>2021-12-26T10:13:29.999Z</time>
      </trkpt>
      <trkpt lat="48.03107" lon="-1.53129">
        <ele>55.89018</ele>
        <time>2021-12-26T10:13:30.999Z</time>
      </trkpt>
      <trkpt lat="48.03108" lon="-1.53125">
        <ele>55.93949</ele>
        <time>2021-12-26T10:13:31.999Z</time>
      </trkpt>
      <trkpt lat="48.03108" lon="-1.53125">
        <ele>55.93949</ele>
        <time>2021-12-26T10:13:31.999Z</time>
      </trkpt>
      <trkpt lat="48.03108" lon="-1.53121">
        <ele>55.99519</ele>
        <time>2021-12-26T10:13:32.999Z</time>
      </trkpt>
      <trkpt lat="48.03108" lon="-1.53118">
        <ele>56.02866</ele>
        <time>2021-12-26T10:13:33.999Z</time>
      </trkpt>
      <trkpt lat="48.03108" lon="-1.53114">
        <ele>56.06674</ele>
        <time>2021-12-26T10:13:34.999Z</time>
      </trkpt>
      <trkpt lat="48.03108" lon="-1.53111">
        <ele>56.09273</ele>
        <time>2021-12-26T10:13:35.999Z</time>
      </trkpt>
      <trkpt lat="48.03108" lon="-1.53107">
        <ele>56.12034</ele>
        <time>2021-12-26T10:13:36.999Z</time>
      </trkpt>
      <trkpt lat="48.03107" lon="-1.53103">
        <ele>56.15416</ele>
        <time>2021-12-26T10:13:37.999Z</time>
      </trkpt>
      <trkpt lat="48.03107" lon="-1.53099">
        <ele>56.2005</ele>
        <time>2021-12-26T10:13:38.999Z</time>
      </trkpt>
      <trkpt lat="48.03108" lon="-1.53095">
        <ele>56.2509</ele>
        <time>2021-12-26T10:13:39.999Z</time>
      </trkpt>
      <trkpt lat="48.03109" lon="-1.53092">
        <ele>56.28882</ele>
        <time>2021-12-26T10:13:40.999Z</time>
      </trkpt>
      <trkpt lat="48.0311" lon="-1.53088">
        <ele>56.30943</ele>
        <time>2021-12-26T10:13:41.999Z</time>
      </trkpt>
      <trkpt lat="48.03112" lon="-1.53085">
        <ele>56.3198</ele>
        <time>2021-12-26T10:13:42.999Z</time>
      </trkpt>
      <trkpt lat="48.03115" lon="-1.53081">
        <ele>56.33309</ele>
        <time>2021-12-26T10:13:43.999Z</time>
      </trkpt>
      <trkpt lat="48.03117" lon="-1.53078">
        <ele>56.36094</ele>
        <time>2021-12-26T10:13:44.999Z</time>
      </trkpt>
      <trkpt lat="48.03119" lon="-1.53074">
        <ele>56.41221</ele>
        <time>2021-12-26T10:13:45.999Z</time>
      </trkpt>
      <trkpt lat="48.03122" lon="-1.53071">
        <ele>56.47809</ele>
        <time>2021-12-26T10:13:46.999Z</time>
      </trkpt>
      <trkpt lat="48.03124" lon="-1.53067">
        <ele>56.54451</ele>
        <time>2021-12-26T10:13:47.999Z</time>
      </trkpt>
      <trkpt lat="48.03127" lon="-1.53063">
        <ele>56.59851</ele>
        <time>2021-12-26T10:13:48.999Z</time>
      </trkpt>
      <trkpt lat="48.03129" lon="-1.53059">
        <ele>56.6336</ele>
        <time>2021-12-26T10:13:49.999Z</time>
      </trkpt>
      <trkpt lat="48.03132" lon="-1.53055">
        <ele>56.65198</ele>
        <time>2021-12-26T10:13:50.999Z</time>
      </trkpt>
      <trkpt lat="48.03134" lon="-1.53051">
        <ele>56.6662</ele>
        <time>2021-12-26T10:13:51.999Z</time>
      </trkpt>
      <trkpt lat="48.03137" lon="-1.53047">
        <ele>56.6878</ele>
        <time>2021-12-26T10:13:52.999Z</time>
      </trkpt>
      <trkpt lat="48.0314" lon="-1.53043">
        <ele>56.71978</ele>
        <time>2021-12-26T10:13:53.999Z</time>
      </trkpt>
      <trkpt lat="48.03142" lon="-1.5304">
        <ele>56.76019</ele>
        <time>2021-12-26T10:13:54.999Z</time>
      </trkpt>
      <trkpt lat="48.03145" lon="-1.53036">
        <ele>56.80597</ele>
        <time>2021-12-26T10:13:55.999Z</time>
      </trkpt>
      <trkpt lat="48.03147" lon="-1.53032">
        <ele>56.84661</ele>
        <time>2021-12-26T10:13:56.999Z</time>
      </trkpt>
      <trkpt lat="48.0315" lon="-1.53028">
        <ele>56.87406</ele>
        <time>2021-12-26T10:13:57.999Z</time>
      </trkpt>
      <trkpt lat="48.03153" lon="-1.53024">
        <ele>56.88569</ele>
        <time>2021-12-26T10:13:58.999Z</time>
      </trkpt>
      <trkpt lat="48.03156" lon="-1.5302">
        <ele>56.88823</ele>
        <time>2021-12-26T10:13:59.999Z</time>
      </trkpt>
      <trkpt lat="48.03159" lon="-1.53016">
        <ele>56.89435</ele>
        <time>2021-12-26T10:14:00.999Z</time>
      </trkpt>
      <trkpt lat="48.03162" lon="-1.53012">
        <ele>56.90576</ele>
        <time>2021-12-26T10:14:01.999Z</time>
      </trkpt>
      <trkpt lat="48.03165" lon="-1.53008">
        <ele>56.92562</ele>
        <time>2021-12-26T10:14:02.999Z</time>
      </trkpt>
      <trkpt lat="48.03168" lon="-1.53003">
        <ele>56.94872</ele>
        <time>2021-12-26T10:14:03.999Z</time>
      </trkpt>
      <trkpt lat="48.03171" lon="-1.52999">
        <ele>56.96333</ele>
        <time>2021-12-26T10:14:04.999Z</time>
      </trkpt>
      <trkpt lat="48.03174" lon="-1.52995">
        <ele>56.96172</ele>
        <time>2021-12-26T10:14:05.999Z</time>
      </trkpt>
      <trkpt lat="48.03177" lon="-1.52991">
        <ele>56.94355</ele>
        <time>2021-12-26T10:14:06.999Z</time>
      </trkpt>
      <trkpt lat="48.0318" lon="-1.52988">
        <ele>56.91762</ele>
        <time>2021-12-26T10:14:07.999Z</time>
      </trkpt>
      <trkpt lat="48.03184" lon="-1.52984">
        <ele>56.90178</ele>
        <time>2021-12-26T10:14:08.999Z</time>
      </trkpt>
      <trkpt lat="48.03187" lon="-1.52981">
        <ele>56.90669</ele>
        <time>2021-12-26T10:14:09.999Z</time>
      </trkpt>
      <trkpt lat="48.03191" lon="-1.52977">
        <ele>56.93756</ele>
        <time>2021-12-26T10:14:10.999Z</time>
      </trkpt>
      <trkpt lat="48.03194" lon="-1.52974">
        <ele>56.98983</ele>
        <time>2021-12-26T10:14:11.999Z</time>
      </trkpt>
      <trkpt lat="48.03198" lon="-1.5297">
        <ele>57.04691</ele>
        <time>2021-12-26T10:14:12.999Z</time>
      </trkpt>
      <trkpt lat="48.03202" lon="-1.52967">
        <ele>57.09413</ele>
        <time>2021-12-26T10:14:13.999Z</time>
      </trkpt>
      <trkpt lat="48.03205" lon="-1.52963">
        <ele>57.1295</ele>
        <time>2021-12-26T10:14:14.999Z</time>
      </trkpt>
      <trkpt lat="48.03209" lon="-1.5296">
        <ele>57.15818</ele>
        <time>2021-12-26T10:14:15.999Z</time>
      </trkpt>
      <trkpt lat="48.03213" lon="-1.52957">
        <ele>57.19034</ele>
        <time>2021-12-26T10:14:16.999Z</time>
      </trkpt>
      <trkpt lat="48.03216" lon="-1.52954">
        <ele>57.2327</ele>
        <time>2021-12-26T10:14:17.999Z</time>
      </trkpt>
      <trkpt lat="48.0322" lon="-1.52951">
        <ele>57.27971</ele>
        <time>2021-12-26T10:14:18.999Z</time>
      </trkpt>
      <trkpt lat="48.03224" lon="-1.52947">
        <ele>57.31459</ele>
        <time>2021-12-26T10:14:19.999Z</time>
      </trkpt>
      <trkpt lat="48.03227" lon="-1.52944">
        <ele>57.31599</ele>
        <time>2021-12-26T10:14:20.999Z</time>
      </trkpt>
      <trkpt lat="48.03231" lon="-1.52941">
        <ele>57.28736</ele>
        <time>2021-12-26T10:14:21.999Z</time>
      </trkpt>
      <trkpt lat="48.03234" lon="-1.52938">
        <ele>57.24182</ele>
        <time>2021-12-26T10:14:22.999Z</time>
      </trkpt>
      <trkpt lat="48.03238" lon="-1.52934">
        <ele>57.18984</ele>
        <time>2021-12-26T10:14:23.999Z</time>
      </trkpt>
      <trkpt lat="48.03242" lon="-1.52931">
        <ele>57.15217</ele>
        <time>2021-12-26T10:14:24.999Z</time>
      </trkpt>
      <trkpt lat="48.03245" lon="-1.52927">
        <ele>57.14485</ele>
        <time>2021-12-26T10:14:25.999Z</time>
      </trkpt>
      <trkpt lat="48.03249" lon="-1.52924">
        <ele>57.15239</ele>
        <time>2021-12-26T10:14:26.999Z</time>
      </trkpt>
      <trkpt lat="48.03253" lon="-1.52921">
        <ele>57.15945</ele>
        <time>2021-12-26T10:14:27.999Z</time>
      </trkpt>
      <trkpt lat="48.03256" lon="-1.52918">
        <ele>57.1585</ele>
        <time>2021-12-26T10:14:28.999Z</time>
      </trkpt>
      <trkpt lat="48.0326" lon="-1.52914">
        <ele>57.15326</ele>
        <time>2021-12-26T10:14:29.999Z</time>
      </trkpt>
      <trkpt lat="48.03264" lon="-1.52911">
        <ele>57.16216</ele>
        <time>2021-12-26T10:14:30.999Z</time>
      </trkpt>
      <trkpt lat="48.03267" lon="-1.52908">
        <ele>57.18528</ele>
        <time>2021-12-26T10:14:31.999Z</time>
      </trkpt>
      <trkpt lat="48.03271" lon="-1.52905">
        <ele>57.23619</ele>
        <time>2021-12-26T10:14:32.999Z</time>
      </trkpt>
      <trkpt lat="48.03274" lon="-1.52902">
        <ele>57.31519</ele>
        <time>2021-12-26T10:14:33.999Z</time>
      </trkpt>
      <trkpt lat="48.03278" lon="-1.529">
        <ele>57.4282</ele>
        <time>2021-12-26T10:14:34.999Z</time>
      </trkpt>
      <trkpt lat="48.03282" lon="-1.52897">
        <ele>57.56672</ele>
        <time>2021-12-26T10:14:35.999Z</time>
      </trkpt>
      <trkpt lat="48.03286" lon="-1.52895">
        <ele>57.72224</ele>
        <time>2021-12-26T10:14:36.999Z</time>
      </trkpt>
      <trkpt lat="48.03289" lon="-1.52892">
        <ele>57.89999</ele>
        <time>2021-12-26T10:14:37.999Z</time>
      </trkpt>
      <trkpt lat="48.03293" lon="-1.5289">
        <ele>58.08828</ele>
        <time>2021-12-26T10:14:38.999Z</time>
      </trkpt>
      <trkpt lat="48.03297" lon="-1.52889">
        <ele>58.27826</ele>
        <time>2021-12-26T10:14:39.999Z</time>
      </trkpt>
      <trkpt lat="48.03301" lon="-1.52887">
        <ele>58.46954</ele>
        <time>2021-12-26T10:14:40.999Z</time>
      </trkpt>
      <trkpt lat="48.03305" lon="-1.52885">
        <ele>58.64727</ele>
        <time>2021-12-26T10:14:41.999Z</time>
      </trkpt>
      <trkpt lat="48.03309" lon="-1.52884">
        <ele>58.81504</ele>
        <time>2021-12-26T10:14:42.999Z</time>
      </trkpt>
      <trkpt lat="48.03312" lon="-1.52882">
        <ele>58.97878</ele>
        <time>2021-12-26T10:14:43.999Z</time>
      </trkpt>
      <trkpt lat="48.03316" lon="-1.5288">
        <ele>59.12202</ele>
        <time>2021-12-26T10:14:44.999Z</time>
      </trkpt>
      <trkpt lat="48.0332" lon="-1.52879">
        <ele>59.24454</ele>
        <time>2021-12-26T10:14:45.999Z</time>
      </trkpt>
      <trkpt lat="48.03324" lon="-1.52877">
        <ele>59.3376</ele>
        <time>2021-12-26T10:14:46.999Z</time>
      </trkpt>
      <trkpt lat="48.03328" lon="-1.52875">
        <ele>59.40505</ele>
        <time>2021-12-26T10:14:47.999Z</time>
      </trkpt>
      <trkpt lat="48.03332" lon="-1.52873">
        <ele>59.45063</ele>
        <time>2021-12-26T10:14:48.999Z</time>
      </trkpt>
      <trkpt lat="48.03335" lon="-1.52871">
        <ele>59.47285</ele>
        <time>2021-12-26T10:14:49.999Z</time>
      </trkpt>
      <trkpt lat="48.03339" lon="-1.5287">
        <ele>59.48752</ele>
        <time>2021-12-26T10:14:50.999Z</time>
      </trkpt>
      <trkpt lat="48.03343" lon="-1.52868">
        <ele>59.52585</ele>
        <time>2021-12-26T10:14:51.999Z</time>
      </trkpt>
      <trkpt lat="48.03346" lon="-1.52866">
        <ele>59.58702</ele>
        <time>2021-12-26T10:14:52.999Z</time>
      </trkpt>
      <trkpt lat="48.0335" lon="-1.52864">
        <ele>59.705</ele>
        <time>2021-12-26T10:14:53.999Z</time>
      </trkpt>
      <trkpt lat="48.03354" lon="-1.52861">
        <ele>59.86578</ele>
        <time>2021-12-26T10:14:54.999Z</time>
      </trkpt>
      <trkpt lat="48.03357" lon="-1.52859">
        <ele>60.03121</ele>
        <time>2021-12-26T10:14:55.999Z</time>
      </trkpt>
      <trkpt lat="48.03361" lon="-1.52856">
        <ele>60.18004</ele>
        <time>2021-12-26T10:14:56.999Z</time>
      </trkpt>
      <trkpt lat="48.03364" lon="-1.52853">
        <ele>60.29701</ele>
        <time>2021-12-26T10:14:57.999Z</time>
      </trkpt>
      <trkpt lat="48.03368" lon="-1.5285">
        <ele>60.37926</ele>
        <time>2021-12-26T10:14:58.999Z</time>
      </trkpt>
      <trkpt lat="48.03371" lon="-1.52847">
        <ele>60.42986</ele>
        <time>2021-12-26T10:14:59.999Z</time>
      </trkpt>
      <trkpt lat="48.03374" lon="-1.52844">
        <ele>60.48598</ele>
        <time>2021-12-26T10:15:00.999Z</time>
      </trkpt>
      <trkpt lat="48.03377" lon="-1.52841">
        <ele>60.56727</ele>
        <time>2021-12-26T10:15:01.999Z</time>
      </trkpt>
      <trkpt lat="48.0338" lon="-1.52837">
        <ele>60.68516</ele>
        <time>2021-12-26T10:15:02.999Z</time>
      </trkpt>
      <trkpt lat="48.03383" lon="-1.52834">
        <ele>60.82111</ele>
        <time>2021-12-26T10:15:03.999Z</time>
      </trkpt>
      <trkpt lat="48.03386" lon="-1.5283">
        <ele>60.95598</ele>
        <time>2021-12-26T10:15:04.999Z</time>
      </trkpt>
      <trkpt lat="48.03389" lon="-1.52827">
        <ele>61.06033</ele>
        <time>2021-12-26T10:15:05.999Z</time>
      </trkpt>
      <trkpt lat="48.03392" lon="-1.52824">
        <ele>61.12822</ele>
        <time>2021-12-26T10:15:06.999Z</time>
      </trkpt>
      <trkpt lat="48.03392" lon="-1.52824">
        <ele>61.12822</ele>
      </trkpt>
      <trkpt lat="48.03394" lon="-1.52821">
        <ele>61.17315</ele>
      </trkpt>
      <trkpt lat="48.03396" lon="-1.52818">
        <ele>61.20942</ele>
      </trkpt>
      <trkpt lat="48.03398" lon="-1.52816">
        <ele>61.24418</ele>
      </trkpt>
      <trkpt lat="48.034" lon="-1.52814">
        <ele>61.28449</ele>
      </trkpt>
      <trkpt lat="48.03401" lon="-1.52812">
        <ele>61.32792</ele>
      </trkpt>
      <trkpt lat="48.03403" lon="-1.52809">
        <ele>61.40425</ele>
      </trkpt>
      <trkpt lat="48.03402" lon="-1.52809">
        <ele>61.39696</ele>
      </trkpt>
      <trkpt lat="48.03402" lon="-1.52809">
        <ele>61.39696</ele>
      </trkpt>
      <trkpt lat="48.03406" lon="-1.52807">
        <ele>61.52009</ele>
      </trkpt>
      <trkpt lat="48.03409" lon="-1.52803">
        <ele>61.70999</ele>
      </trkpt>
      <trkpt lat="48.03413" lon="-1.52798">
        <ele>61.90208</ele>
      </trkpt>
      <trkpt lat="48.03413" lon="-1.52798">
        <ele>61.90208</ele>
        <time>2021-12-26T10:16:48.000Z</time>
      </trkpt>
      <trkpt lat="48.03416" lon="-1.52793">
        <ele>62.04963</ele>
        <time>2021-12-26T10:16:49.000Z</time>
      </trkpt>
      <trkpt lat="48.03421" lon="-1.52788">
        <ele>62.12857</ele>
        <time>2021-12-26T10:16:50.000Z</time>
      </trkpt>
      <trkpt lat="48.03425" lon="-1.52784">
        <ele>62.18148</ele>
        <time>2021-12-26T10:16:51.000Z</time>
      </trkpt>
      <trkpt lat="48.03429" lon="-1.52779">
        <ele>62.25125</ele>
        <time>2021-12-26T10:16:52.000Z</time>
      </trkpt>
      <trkpt lat="48.03433" lon="-1.52775">
        <ele>62.36215</ele>
        <time>2021-12-26T10:16:53.000Z</time>
      </trkpt>
      <trkpt lat="48.03437" lon="-1.5277">
        <ele>62.49028</ele>
        <time>2021-12-26T10:16:54.000Z</time>
      </trkpt>
      <trkpt lat="48.03442" lon="-1.52766">
        <ele>62.60893</ele>
        <time>2021-12-26T10:16:55.000Z</time>
      </trkpt>
      <trkpt lat="48.03446" lon="-1.52762">
        <ele>62.70636</ele>
        <time>2021-12-26T10:16:56.000Z</time>
      </trkpt>
      <trkpt lat="48.0345" lon="-1.52757">
        <ele>62.78454</ele>
        <time>2021-12-26T10:16:57.000Z</time>
      </trkpt>
      <trkpt lat="48.03454" lon="-1.52753">
        <ele>62.82991</ele>
        <time>2021-12-26T10:16:58.000Z</time>
      </trkpt>
      <trkpt lat="48.03458" lon="-1.52749">
        <ele>62.85088</ele>
        <time>2021-12-26T10:16:59.000Z</time>
      </trkpt>
      <trkpt lat="48.03462" lon="-1.52745">
        <ele>62.87641</ele>
        <time>2021-12-26T10:17:00.000Z</time>
      </trkpt>
      <trkpt lat="48.03466" lon="-1.52741">
        <ele>62.96136</ele>
        <time>2021-12-26T10:17:01.000Z</time>
      </trkpt>
      <trkpt lat="48.0347" lon="-1.52737">
        <ele>63.09599</ele>
        <time>2021-12-26T10:17:02.000Z</time>
      </trkpt>
      <trkpt lat="48.03474" lon="-1.52733">
        <ele>63.25745</ele>
        <time>2021-12-26T10:17:03.000Z</time>
      </trkpt>
      <trkpt lat="48.03478" lon="-1.52729">
        <ele>63.39097</ele>
        <time>2021-12-26T10:17:04.000Z</time>
      </trkpt>
      <trkpt lat="48.03482" lon="-1.52725">
        <ele>63.46274</ele>
        <time>2021-12-26T10:17:05.000Z</time>
      </trkpt>
      <trkpt lat="48.03486" lon="-1.52721">
        <ele>63.48995</ele>
        <time>2021-12-26T10:17:06.000Z</time>
      </trkpt>
      <trkpt lat="48.03491" lon="-1.52717">
        <ele>63.52826</ele>
        <time>2021-12-26T10:17:07.000Z</time>
      </trkpt>
      <trkpt lat="48.03495" lon="-1.52713">
        <ele>63.6516</ele>
        <time>2021-12-26T10:17:08.000Z</time>
      </trkpt>
      <trkpt lat="48.03498" lon="-1.52709">
        <ele>63.88129</ele>
        <time>2021-12-26T10:17:09.000Z</time>
      </trkpt>
      <trkpt lat="48.03502" lon="-1.52705">
        <ele>64.11713</ele>
        <time>2021-12-26T10:17:10.000Z</time>
      </trkpt>
      <trkpt lat="48.03506" lon="-1.52701">
        <ele>64.27586</ele>
        <time>2021-12-26T10:17:11.000Z</time>
      </trkpt>
      <trkpt lat="48.0351" lon="-1.52697">
        <ele>64.33653</ele>
        <time>2021-12-26T10:17:12.000Z</time>
      </trkpt>
      <trkpt lat="48.03514" lon="-1.52693">
        <ele>64.31041</ele>
        <time>2021-12-26T10:17:13.000Z</time>
      </trkpt>
      <trkpt lat="48.03517" lon="-1.5269">
        <ele>64.25621</ele>
        <time>2021-12-26T10:17:14.000Z</time>
      </trkpt>
      <trkpt lat="48.03521" lon="-1.52686">
        <ele>64.23302</ele>
        <time>2021-12-26T10:17:15.000Z</time>
      </trkpt>
      <trkpt lat="48.03525" lon="-1.52682">
        <ele>64.26869</ele>
        <time>2021-12-26T10:17:16.000Z</time>
      </trkpt>
      <trkpt lat="48.03529" lon="-1.52678">
        <ele>64.34707</ele>
        <time>2021-12-26T10:17:17.000Z</time>
      </trkpt>
      <trkpt lat="48.03533" lon="-1.52674">
        <ele>64.43923</ele>
        <time>2021-12-26T10:17:18.000Z</time>
      </trkpt>
      <trkpt lat="48.03537" lon="-1.5267">
        <ele>64.51232</ele>
        <time>2021-12-26T10:17:19.000Z</time>
      </trkpt>
      <trkpt lat="48.0354" lon="-1.52667">
        <ele>64.55361</ele>
        <time>2021-12-26T10:17:20.000Z</time>
      </trkpt>
      <trkpt lat="48.03544" lon="-1.52663">
        <ele>64.59021</ele>
        <time>2021-12-26T10:17:21.000Z</time>
      </trkpt>
      <trkpt lat="48.03548" lon="-1.52659">
        <ele>64.61408</ele>
        <time>2021-12-26T10:17:22.000Z</time>
      </trkpt>
      <trkpt lat="48.03552" lon="-1.52655">
        <ele>64.62944</ele>
        <time>2021-12-26T10:17:23.000Z</time>
      </trkpt>
      <trkpt lat="48.03556" lon="-1.52652">
        <ele>64.65627</ele>
        <time>2021-12-26T10:17:24.000Z</time>
      </trkpt>
      <trkpt lat="48.03559" lon="-1.52648">
        <ele>64.70492</ele>
        <time>2021-12-26T10:17:25.000Z</time>
      </trkpt>
      <trkpt lat="48.03563" lon="-1.52645">
        <ele>64.76274</ele>
        <time>2021-12-26T10:17:26.000Z</time>
      </trkpt>
      <trkpt lat="48.03567" lon="-1.52642">
        <ele>64.81386</ele>
        <time>2021-12-26T10:17:27.000Z</time>
      </trkpt>
      <trkpt lat="48.03571" lon="-1.52639">
        <ele>64.83309</ele>
        <time>2021-12-26T10:17:28.000Z</time>
      </trkpt>
      <trkpt lat="48.03575" lon="-1.52635">
        <ele>64.77826</ele>
        <time>2021-12-26T10:17:29.000Z</time>
      </trkpt>
      <trkpt lat="48.0358" lon="-1.52631">
        <ele>64.64449</ele>
        <time>2021-12-26T10:17:30.000Z</time>
      </trkpt>
      <trkpt lat="48.03584" lon="-1.52628">
        <ele>64.49363</ele>
        <time>2021-12-26T10:17:31.000Z</time>
      </trkpt>
      <trkpt lat="48.03588" lon="-1.52624">
        <ele>64.36992</ele>
        <time>2021-12-26T10:17:32.000Z</time>
      </trkpt>
      <trkpt lat="48.03592" lon="-1.52621">
        <ele>64.29599</ele>
        <time>2021-12-26T10:17:33.000Z</time>
      </trkpt>
      <trkpt lat="48.03596" lon="-1.52617">
        <ele>64.25731</ele>
        <time>2021-12-26T10:17:34.000Z</time>
      </trkpt>
      <trkpt lat="48.036" lon="-1.52612">
        <ele>64.22291</ele>
        <time>2021-12-26T10:17:35.000Z</time>
      </trkpt>
      <trkpt lat="48.03604" lon="-1.52608">
        <ele>64.1568</ele>
        <time>2021-12-26T10:17:36.000Z</time>
      </trkpt>
      <trkpt lat="48.03608" lon="-1.52603">
        <ele>64.06347</ele>
        <time>2021-12-26T10:17:37.000Z</time>
      </trkpt>
      <trkpt lat="48.03611" lon="-1.52599">
        <ele>63.95495</ele>
        <time>2021-12-26T10:17:38.000Z</time>
      </trkpt>
      <trkpt lat="48.03615" lon="-1.52594">
        <ele>63.86325</ele>
        <time>2021-12-26T10:17:39.000Z</time>
      </trkpt>
      <trkpt lat="48.03618" lon="-1.52588">
        <ele>63.76771</ele>
        <time>2021-12-26T10:17:40.000Z</time>
      </trkpt>
      <trkpt lat="48.03621" lon="-1.52583">
        <ele>63.63312</ele>
        <time>2021-12-26T10:17:41.000Z</time>
      </trkpt>
      <trkpt lat="48.03624" lon="-1.52577">
        <ele>63.42567</ele>
        <time>2021-12-26T10:17:42.000Z</time>
      </trkpt>
      <trkpt lat="48.03627" lon="-1.52571">
        <ele>63.16281</ele>
        <time>2021-12-26T10:17:43.000Z</time>
      </trkpt>
      <trkpt lat="48.0363" lon="-1.52565">
        <ele>62.8641</ele>
        <time>2021-12-26T10:17:44.000Z</time>
      </trkpt>
      <trkpt lat="48.03633" lon="-1.52558">
        <ele>62.65619</ele>
        <time>2021-12-26T10:17:45.000Z</time>
      </trkpt>
      <trkpt lat="48.03635" lon="-1.52552">
        <ele>62.53863</ele>
        <time>2021-12-26T10:17:46.000Z</time>
      </trkpt>
      <trkpt lat="48.03638" lon="-1.52546">
        <ele>62.49322</ele>
        <time>2021-12-26T10:17:47.000Z</time>
      </trkpt>
      <trkpt lat="48.03641" lon="-1.52539">
        <ele>62.47602</ele>
        <time>2021-12-26T10:17:48.000Z</time>
      </trkpt>
      <trkpt lat="48.03644" lon="-1.52533">
        <ele>62.44249</ele>
        <time>2021-12-26T10:17:49.000Z</time>
      </trkpt>
      <trkpt lat="48.03645" lon="-1.52526">
        <ele>62.40836</ele>
        <time>2021-12-26T10:17:50.000Z</time>
      </trkpt>
      <trkpt lat="48.03647" lon="-1.52519">
        <ele>62.38041</ele>
        <time>2021-12-26T10:17:51.000Z</time>
      </trkpt>
      <trkpt lat="48.03652" lon="-1.52519">
        <ele>62.19284</ele>
        <time>2021-12-26T10:17:52.000Z</time>
      </trkpt>
      <trkpt lat="48.03656" lon="-1.52514">
        <ele>62.1215</ele>
        <time>2021-12-26T10:17:53.000Z</time>
      </trkpt>
      <trkpt lat="48.03656" lon="-1.52514">
        <ele>62.1215</ele>
      </trkpt>
      <trkpt lat="48.0366" lon="-1.52506">
        <ele>62.06219</ele>
      </trkpt>
      <trkpt lat="48.03664" lon="-1.52502">
        <ele>61.95571</ele>
      </trkpt>
      <trkpt lat="48.03668" lon="-1.52497">
        <ele>61.78</ele>
      </trkpt>
      <trkpt lat="48.03672" lon="-1.52493">
        <ele>61.56598</ele>
      </trkpt>
      <trkpt lat="48.03677" lon="-1.5249">
        <ele>61.37906</ele>
      </trkpt>
      <trkpt lat="48.03682" lon="-1.52486">
        <ele>61.26829</ele>
      </trkpt>
      <trkpt lat="48.03687" lon="-1.52483">
        <ele>61.24098</ele>
      </trkpt>
      <trkpt lat="48.03692" lon="-1.5248">
        <ele>61.22443</ele>
      </trkpt>
      <trkpt lat="48.03697" lon="-1.52476">
        <ele>61.1599</ele>
      </trkpt>
      <trkpt lat="48.03703" lon="-1.52473">
        <ele>61.03553</ele>
      </trkpt>
      <trkpt lat="48.03708" lon="-1.5247">
        <ele>60.90059</ele>
      </trkpt>
      <trkpt lat="48.03713" lon="-1.52467">
        <ele>60.7771</ele>
      </trkpt>
      <trkpt lat="48.03718" lon="-1.52464">
        <ele>60.68783</ele>
      </trkpt>
      <trkpt lat="48.03723" lon="-1.52461">
        <ele>60.64957</ele>
      </trkpt>
      <trkpt lat="48.03728" lon="-1.52457">
        <ele>60.65406</ele>
      </trkpt>
      <trkpt lat="48.03733" lon="-1.52454">
        <ele>60.69866</ele>
      </trkpt>
      <trkpt lat="48.03738" lon="-1.52451">
        <ele>60.74478</ele>
      </trkpt>
      <trkpt lat="48.03743" lon="-1.52448">
        <ele>60.7505</ele>
      </trkpt>
      <trkpt lat="48.03748" lon="-1.52445">
        <ele>60.69873</ele>
      </trkpt>
      <trkpt lat="48.03753" lon="-1.52442">
        <ele>60.60811</ele>
      </trkpt>
      <trkpt lat="48.03758" lon="-1.52439">
        <ele>60.52398</ele>
      </trkpt>
      <trkpt lat="48.03762" lon="-1.52436">
        <ele>60.48683</ele>
      </trkpt>
      <trkpt lat="48.03767" lon="-1.52433">
        <ele>60.50485</ele>
      </trkpt>
      <trkpt lat="48.03772" lon="-1.5243">
        <ele>60.56688</ele>
      </trkpt>
      <trkpt lat="48.03777" lon="-1.52427">
        <ele>60.64362</ele>
      </trkpt>
      <trkpt lat="48.03782" lon="-1.52423">
        <ele>60.68334</ele>
      </trkpt>
      <trkpt lat="48.03787" lon="-1.52419">
        <ele>60.65196</ele>
      </trkpt>
      <trkpt lat="48.03792" lon="-1.52415">
        <ele>60.54027</ele>
      </trkpt>
      <trkpt lat="48.03796" lon="-1.52411">
        <ele>60.42464</ele>
      </trkpt>
      <trkpt lat="48.03801" lon="-1.52406">
        <ele>60.40845</ele>
      </trkpt>
      <trkpt lat="48.03805" lon="-1.52401">
        <ele>60.55456</ele>
      </trkpt>
      <trkpt lat="48.0381" lon="-1.52395">
        <ele>60.72292</ele>
      </trkpt>
      <trkpt lat="48.03814" lon="-1.52389">
        <ele>60.79631</ele>
      </trkpt>
      <trkpt lat="48.03818" lon="-1.52383">
        <ele>60.75051</ele>
      </trkpt>
      <trkpt lat="48.03822" lon="-1.52376">
        <ele>60.66354</ele>
      </trkpt>
      <trkpt lat="48.03825" lon="-1.52369">
        <ele>60.65321</ele>
      </trkpt>
      <trkpt lat="48.03829" lon="-1.52363">
        <ele>60.69098</ele>
      </trkpt>
      <trkpt lat="48.03832" lon="-1.52356">
        <ele>60.68873</ele>
      </trkpt>
      <trkpt lat="48.03836" lon="-1.52349">
        <ele>60.618</ele>
      </trkpt>
      <trkpt lat="48.03839" lon="-1.52342">
        <ele>60.51063</ele>
      </trkpt>
      <trkpt lat="48.03843" lon="-1.52335">
        <ele>60.45494</ele>
      </trkpt>
      <trkpt lat="48.03846" lon="-1.52328">
        <ele>60.50176</ele>
      </trkpt>
      <trkpt lat="48.0385" lon="-1.52322">
        <ele>60.61118</ele>
      </trkpt>
      <trkpt lat="48.03853" lon="-1.52315">
        <ele>60.72151</ele>
      </trkpt>
      <trkpt lat="48.03857" lon="-1.52308">
        <ele>60.7748</ele>
      </trkpt>
      <trkpt lat="48.0386" lon="-1.52301">
        <ele>60.75025</ele>
      </trkpt>
      <trkpt lat="48.03863" lon="-1.52294">
        <ele>60.62627</ele>
      </trkpt>
      <trkpt lat="48.03866" lon="-1.52287">
        <ele>60.46435</ele>
      </trkpt>
      <trkpt lat="48.0387" lon="-1.5228">
        <ele>60.34353</ele>
      </trkpt>
      <trkpt lat="48.03873" lon="-1.52273">
        <ele>60.34798</ele>
      </trkpt>
      <trkpt lat="48.03873" lon="-1.52273">
        <ele>60.34798</ele>
        <time>2021-12-26T10:29:08.999Z</time>
      </trkpt>
      <trkpt lat="48.03876" lon="-1.52266">
        <ele>60.46934</ele>
        <time>2021-12-26T10:29:09.999Z</time>
      </trkpt>
      <trkpt lat="48.03879" lon="-1.5226">
        <ele>60.61143</ele>
        <time>2021-12-26T10:29:10.999Z</time>
      </trkpt>
      <trkpt lat="48.03883" lon="-1.52253">
        <ele>60.69179</ele>
        <time>2021-12-26T10:29:11.999Z</time>
      </trkpt>
      <trkpt lat="48.03886" lon="-1.52246">
        <ele>60.68387</ele>
        <time>2021-12-26T10:29:12.999Z</time>
      </trkpt>
      <trkpt lat="48.03888" lon="-1.52239">
        <ele>60.605</ele>
        <time>2021-12-26T10:29:13.999Z</time>
      </trkpt>
      <trkpt lat="48.03891" lon="-1.52231">
        <ele>60.49719</ele>
        <time>2021-12-26T10:29:14.999Z</time>
      </trkpt>
      <trkpt lat="48.03893" lon="-1.52224">
        <ele>60.4008</ele>
        <time>2021-12-26T10:29:15.999Z</time>
      </trkpt>
      <trkpt lat="48.03896" lon="-1.52217">
        <ele>60.34735</ele>
        <time>2021-12-26T10:29:16.999Z</time>
      </trkpt>
      <trkpt lat="48.03898" lon="-1.52209">
        <ele>60.35569</ele>
        <time>2021-12-26T10:29:17.999Z</time>
      </trkpt>
      <trkpt lat="48.03899" lon="-1.52202">
        <ele>60.4282</ele>
        <time>2021-12-26T10:29:18.999Z</time>
      </trkpt>
      <trkpt lat="48.03901" lon="-1.52194">
        <ele>60.55229</ele>
        <time>2021-12-26T10:29:19.999Z</time>
      </trkpt>
      <trkpt lat="48.03903" lon="-1.52186">
        <ele>60.66284</ele>
        <time>2021-12-26T10:29:20.999Z</time>
      </trkpt>
      <trkpt lat="48.03905" lon="-1.52178">
        <ele>60.71823</ele>
        <time>2021-12-26T10:29:21.999Z</time>
      </trkpt>
      <trkpt lat="48.03906" lon="-1.5217">
        <ele>60.71031</ele>
        <time>2021-12-26T10:29:22.999Z</time>
      </trkpt>
      <trkpt lat="48.03908" lon="-1.52162">
        <ele>60.66473</ele>
        <time>2021-12-26T10:29:23.999Z</time>
      </trkpt>
      <trkpt lat="48.0391" lon="-1.52154">
        <ele>60.58022</ele>
        <time>2021-12-26T10:29:24.999Z</time>
      </trkpt>
      <trkpt lat="48.03911" lon="-1.52145">
        <ele>60.45665</ele>
        <time>2021-12-26T10:29:25.999Z</time>
      </trkpt>
      <trkpt lat="48.03913" lon="-1.52137">
        <ele>60.28185</ele>
        <time>2021-12-26T10:29:26.999Z</time>
      </trkpt>
      <trkpt lat="48.03915" lon="-1.52128">
        <ele>60.04945</ele>
        <time>2021-12-26T10:29:27.999Z</time>
      </trkpt>
      <trkpt lat="48.03916" lon="-1.5212">
        <ele>59.78792</ele>
        <time>2021-12-26T10:29:28.999Z</time>
      </trkpt>
      <trkpt lat="48.03918" lon="-1.52111">
        <ele>59.54476</ele>
        <time>2021-12-26T10:29:29.999Z</time>
      </trkpt>
      <trkpt lat="48.03919" lon="-1.52102">
        <ele>59.33209</ele>
        <time>2021-12-26T10:29:30.999Z</time>
      </trkpt>
      <trkpt lat="48.03921" lon="-1.52093">
        <ele>59.16329</ele>
        <time>2021-12-26T10:29:31.999Z</time>
      </trkpt>
      <trkpt lat="48.03923" lon="-1.52084">
        <ele>59.04739</ele>
        <time>2021-12-26T10:29:32.999Z</time>
      </trkpt>
      <trkpt lat="48.03924" lon="-1.52075">
        <ele>59.0004</ele>
        <time>2021-12-26T10:29:33.999Z</time>
      </trkpt>
      <trkpt lat="48.03926" lon="-1.52067">
        <ele>59.0104</ele>
        <time>2021-12-26T10:29:34.999Z</time>
      </trkpt>
      <trkpt lat="48.03928" lon="-1.52058">
        <ele>59.04118</ele>
        <time>2021-12-26T10:29:35.999Z</time>
      </trkpt>
      <trkpt lat="48.03929" lon="-1.52049">
        <ele>59.07105</ele>
        <time>2021-12-26T10:29:36.999Z</time>
      </trkpt>
      <trkpt lat="48.03931" lon="-1.52041">
        <ele>59.08679</ele>
        <time>2021-12-26T10:29:37.999Z</time>
      </trkpt>
      <trkpt lat="48.03932" lon="-1.52033">
        <ele>59.09488</ele>
        <time>2021-12-26T10:29:38.999Z</time>
      </trkpt>
      <trkpt lat="48.03934" lon="-1.52024">
        <ele>59.09651</ele>
        <time>2021-12-26T10:29:39.999Z</time>
      </trkpt>
      <trkpt lat="48.03936" lon="-1.52016">
        <ele>59.08401</ele>
        <time>2021-12-26T10:29:40.999Z</time>
      </trkpt>
      <trkpt lat="48.03938" lon="-1.52008">
        <ele>59.06518</ele>
        <time>2021-12-26T10:29:41.999Z</time>
      </trkpt>
      <trkpt lat="48.0394" lon="-1.52">
        <ele>59.0469</ele>
        <time>2021-12-26T10:29:42.999Z</time>
      </trkpt>
      <trkpt lat="48.03942" lon="-1.51992">
        <ele>59.02826</ele>
        <time>2021-12-26T10:29:43.999Z</time>
      </trkpt>
      <trkpt lat="48.03944" lon="-1.51984">
        <ele>59.00932</ele>
        <time>2021-12-26T10:29:44.999Z</time>
      </trkpt>
      <trkpt lat="48.03947" lon="-1.51977">
        <ele>58.99945</ele>
        <time>2021-12-26T10:29:45.999Z</time>
      </trkpt>
      <trkpt lat="48.03951" lon="-1.5197">
        <ele>59.00318</ele>
        <time>2021-12-26T10:29:46.999Z</time>
      </trkpt>
      <trkpt lat="48.03954" lon="-1.51963">
        <ele>59.01971</ele>
        <time>2021-12-26T10:29:47.999Z</time>
      </trkpt>
      <trkpt lat="48.03958" lon="-1.51957">
        <ele>59.07085</ele>
        <time>2021-12-26T10:29:48.999Z</time>
      </trkpt>
      <trkpt lat="48.03962" lon="-1.51952">
        <ele>59.14603</ele>
        <time>2021-12-26T10:29:49.999Z</time>
      </trkpt>
      <trkpt lat="48.03966" lon="-1.51947">
        <ele>59.24668</ele>
        <time>2021-12-26T10:29:50.999Z</time>
      </trkpt>
      <trkpt lat="48.03971" lon="-1.51942">
        <ele>59.34085</ele>
        <time>2021-12-26T10:29:51.999Z</time>
      </trkpt>
      <trkpt lat="48.03975" lon="-1.51938">
        <ele>59.42062</ele>
        <time>2021-12-26T10:29:52.999Z</time>
      </trkpt>
      <trkpt lat="48.0398" lon="-1.51934">
        <ele>59.45931</ele>
        <time>2021-12-26T10:29:53.999Z</time>
      </trkpt>
      <trkpt lat="48.03985" lon="-1.5193">
        <ele>59.47377</ele>
        <time>2021-12-26T10:29:54.999Z</time>
      </trkpt>
      <trkpt lat="48.0399" lon="-1.51927">
        <ele>59.4935</ele>
        <time>2021-12-26T10:29:55.999Z</time>
      </trkpt>
      <trkpt lat="48.03995" lon="-1.51924">
        <ele>59.53421</ele>
        <time>2021-12-26T10:29:56.999Z</time>
      </trkpt>
      <trkpt lat="48.04" lon="-1.5192">
        <ele>59.58977</ele>
        <time>2021-12-26T10:29:57.999Z</time>
      </trkpt>
      <trkpt lat="48.04005" lon="-1.51917">
        <ele>59.63874</ele>
        <time>2021-12-26T10:29:58.999Z</time>
      </trkpt>
      <trkpt lat="48.04009" lon="-1.51913">
        <ele>59.68404</ele>
        <time>2021-12-26T10:29:59.999Z</time>
      </trkpt>
      <trkpt lat="48.04014" lon="-1.51909">
        <ele>59.73088</ele>
        <time>2021-12-26T10:30:00.999Z</time>
      </trkpt>
      <trkpt lat="48.04019" lon="-1.51905">
        <ele>59.78918</ele>
        <time>2021-12-26T10:30:01.999Z</time>
      </trkpt>
      <trkpt lat="48.04024" lon="-1.51902">
        <ele>59.83959</ele>
        <time>2021-12-26T10:30:02.999Z</time>
      </trkpt>
      <trkpt lat="48.04028" lon="-1.51897">
        <ele>59.85279</ele>
        <time>2021-12-26T10:30:03.999Z</time>
      </trkpt>
      <trkpt lat="48.04031" lon="-1.51891">
        <ele>59.79403</ele>
        <time>2021-12-26T10:30:04.999Z</time>
      </trkpt>
      <trkpt lat="48.04032" lon="-1.51883">
        <ele>59.70423</ele>
        <time>2021-12-26T10:30:05.999Z</time>
      </trkpt>
      <trkpt lat="48.04032" lon="-1.51876">
        <ele>59.61848</ele>
        <time>2021-12-26T10:30:06.999Z</time>
      </trkpt>
      <trkpt lat="48.0403" lon="-1.51868">
        <ele>59.51866</ele>
        <time>2021-12-26T10:30:07.999Z</time>
      </trkpt>
      <trkpt lat="48.04029" lon="-1.5186">
        <ele>59.39599</ele>
        <time>2021-12-26T10:30:08.999Z</time>
      </trkpt>
      <trkpt lat="48.04027" lon="-1.51853">
        <ele>59.25822</ele>
        <time>2021-12-26T10:30:09.999Z</time>
      </trkpt>
      <trkpt lat="48.04025" lon="-1.51845">
        <ele>59.10756</ele>
        <time>2021-12-26T10:30:10.999Z</time>
      </trkpt>
      <trkpt lat="48.04023" lon="-1.51838">
        <ele>58.97574</ele>
        <time>2021-12-26T10:30:11.999Z</time>
      </trkpt>
      <trkpt lat="48.04021" lon="-1.5183">
        <ele>58.84661</ele>
        <time>2021-12-26T10:30:12.999Z</time>
      </trkpt>
      <trkpt lat="48.04019" lon="-1.51822">
        <ele>58.72118</ele>
        <time>2021-12-26T10:30:13.999Z</time>
      </trkpt>
      <trkpt lat="48.04017" lon="-1.51814">
        <ele>58.57035</ele>
        <time>2021-12-26T10:30:14.999Z</time>
      </trkpt>
      <trkpt lat="48.04016" lon="-1.51806">
        <ele>58.39606</ele>
        <time>2021-12-26T10:30:15.999Z</time>
      </trkpt>
      <trkpt lat="48.04015" lon="-1.51798">
        <ele>58.20624</ele>
        <time>2021-12-26T10:30:16.999Z</time>
      </trkpt>
      <trkpt lat="48.04014" lon="-1.5179">
        <ele>58.0133</ele>
        <time>2021-12-26T10:30:17.999Z</time>
      </trkpt>
      <trkpt lat="48.04013" lon="-1.51782">
        <ele>57.82718</ele>
        <time>2021-12-26T10:30:18.999Z</time>
      </trkpt>
      <trkpt lat="48.04012" lon="-1.51773">
        <ele>57.60439</ele>
        <time>2021-12-26T10:30:19.999Z</time>
      </trkpt>
      <trkpt lat="48.04011" lon="-1.51764">
        <ele>57.36533</ele>
        <time>2021-12-26T10:30:20.999Z</time>
      </trkpt>
      <trkpt lat="48.0401" lon="-1.51755">
        <ele>57.19899</ele>
        <time>2021-12-26T10:30:21.999Z</time>
      </trkpt>
      <trkpt lat="48.0401" lon="-1.51747">
        <ele>57.19911</ele>
        <time>2021-12-26T10:30:22.999Z</time>
      </trkpt>
      <trkpt lat="48.04011" lon="-1.51738">
        <ele>57.38702</ele>
        <time>2021-12-26T10:30:23.999Z</time>
      </trkpt>
      <trkpt lat="48.04012" lon="-1.5173">
        <ele>57.67433</ele>
        <time>2021-12-26T10:30:24.999Z</time>
      </trkpt>
      <trkpt lat="48.04015" lon="-1.51723">
        <ele>57.9818</ele>
        <time>2021-12-26T10:30:25.999Z</time>
      </trkpt>
      <trkpt lat="48.04018" lon="-1.51717">
        <ele>58.25019</ele>
        <time>2021-12-26T10:30:26.999Z</time>
      </trkpt>
      <trkpt lat="48.04021" lon="-1.5171">
        <ele>58.48719</ele>
        <time>2021-12-26T10:30:27.999Z</time>
      </trkpt>
      <trkpt lat="48.04023" lon="-1.51702">
        <ele>58.69897</ele>
        <time>2021-12-26T10:30:28.999Z</time>
      </trkpt>
      <trkpt lat="48.04024" lon="-1.51695">
        <ele>58.86755</ele>
        <time>2021-12-26T10:30:29.999Z</time>
      </trkpt>
      <trkpt lat="48.04025" lon="-1.51687">
        <ele>58.97976</ele>
        <time>2021-12-26T10:30:30.999Z</time>
      </trkpt>
      <trkpt lat="48.04026" lon="-1.51679">
        <ele>59.02425</ele>
        <time>2021-12-26T10:30:31.999Z</time>
      </trkpt>
      <trkpt lat="48.04027" lon="-1.51671">
        <ele>59.01761</ele>
        <time>2021-12-26T10:30:32.999Z</time>
      </trkpt>
      <trkpt lat="48.04029" lon="-1.51663">
        <ele>58.98368</ele>
        <time>2021-12-26T10:30:33.999Z</time>
      </trkpt>
      <trkpt lat="48.04033" lon="-1.51657">
        <ele>58.9333</ele>
        <time>2021-12-26T10:30:34.999Z</time>
      </trkpt>
      <trkpt lat="48.04037" lon="-1.51651">
        <ele>58.8601</ele>
        <time>2021-12-26T10:30:35.999Z</time>
      </trkpt>
      <trkpt lat="48.04041" lon="-1.51645">
        <ele>58.77132</ele>
        <time>2021-12-26T10:30:36.999Z</time>
      </trkpt>
      <trkpt lat="48.04045" lon="-1.5164">
        <ele>58.70459</ele>
        <time>2021-12-26T10:30:37.999Z</time>
      </trkpt>
      <trkpt lat="48.04048" lon="-1.51637">
        <ele>58.66442</ele>
        <time>2021-12-26T10:30:38.999Z</time>
      </trkpt>
      <trkpt lat="48.04048" lon="-1.51637">
        <ele>58.66442</ele>
        <time>2021-12-26T10:30:38.999Z</time>
      </trkpt>
      <trkpt lat="48.04053" lon="-1.51634">
        <ele>58.65646</ele>
        <time>2021-12-26T10:30:39.999Z</time>
      </trkpt>
      <trkpt lat="48.04058" lon="-1.5163">
        <ele>58.68139</ele>
        <time>2021-12-26T10:30:40.999Z</time>
      </trkpt>
      <trkpt lat="48.04064" lon="-1.51627">
        <ele>58.74078</ele>
        <time>2021-12-26T10:30:41.999Z</time>
      </trkpt>
      <trkpt lat="48.04069" lon="-1.51626">
        <ele>58.83019</ele>
        <time>2021-12-26T10:30:42.999Z</time>
      </trkpt>
      <trkpt lat="48.04074" lon="-1.51624">
        <ele>58.94123</ele>
        <time>2021-12-26T10:30:43.999Z</time>
      </trkpt>
      <trkpt lat="48.0408" lon="-1.51622">
        <ele>59.11339</ele>
        <time>2021-12-26T10:30:44.999Z</time>
      </trkpt>
      <trkpt lat="48.04085" lon="-1.51621">
        <ele>59.30227</ele>
        <time>2021-12-26T10:30:45.999Z</time>
      </trkpt>
      <trkpt lat="48.04091" lon="-1.5162">
        <ele>59.53138</ele>
        <time>2021-12-26T10:30:46.999Z</time>
      </trkpt>
      <trkpt lat="48.04096" lon="-1.51619">
        <ele>59.71787</ele>
        <time>2021-12-26T10:30:47.999Z</time>
      </trkpt>
      <trkpt lat="48.04101" lon="-1.51619">
        <ele>59.91404</ele>
        <time>2021-12-26T10:30:48.999Z</time>
      </trkpt>
      <trkpt lat="48.04107" lon="-1.51617">
        <ele>60.11876</ele>
        <time>2021-12-26T10:30:49.999Z</time>
      </trkpt>
      <trkpt lat="48.04112" lon="-1.51616">
        <ele>60.29466</ele>
        <time>2021-12-26T10:30:50.999Z</time>
      </trkpt>
      <trkpt lat="48.04117" lon="-1.51616">
        <ele>60.46844</ele>
        <time>2021-12-26T10:30:51.999Z</time>
      </trkpt>
      <trkpt lat="48.04122" lon="-1.51616">
        <ele>60.64614</ele>
        <time>2021-12-26T10:30:52.999Z</time>
      </trkpt>
      <trkpt lat="48.04128" lon="-1.51615">
        <ele>60.83199</ele>
        <time>2021-12-26T10:30:53.999Z</time>
      </trkpt>
      <trkpt lat="48.04133" lon="-1.51615">
        <ele>61.00729</ele>
        <time>2021-12-26T10:30:54.999Z</time>
      </trkpt>
      <trkpt lat="48.04139" lon="-1.51614">
        <ele>61.20732</ele>
        <time>2021-12-26T10:30:55.999Z</time>
      </trkpt>
      <trkpt lat="48.04144" lon="-1.51613">
        <ele>61.38171</ele>
        <time>2021-12-26T10:30:56.999Z</time>
      </trkpt>
      <trkpt lat="48.04149" lon="-1.51613">
        <ele>61.535</ele>
        <time>2021-12-26T10:30:57.999Z</time>
      </trkpt>
      <trkpt lat="48.04154" lon="-1.51613">
        <ele>61.67258</ele>
        <time>2021-12-26T10:30:58.999Z</time>
      </trkpt>
      <trkpt lat="48.0416" lon="-1.51613">
        <ele>61.82859</ele>
        <time>2021-12-26T10:30:59.999Z</time>
      </trkpt>
      <trkpt lat="48.04165" lon="-1.51613">
        <ele>61.98903</ele>
        <time>2021-12-26T10:31:00.999Z</time>
      </trkpt>
      <trkpt lat="48.0417" lon="-1.51613">
        <ele>62.19467</ele>
        <time>2021-12-26T10:31:01.999Z</time>
      </trkpt>
      <trkpt lat="48.04175" lon="-1.51613">
        <ele>62.45452</ele>
        <time>2021-12-26T10:31:02.999Z</time>
      </trkpt>
      <trkpt lat="48.04181" lon="-1.51614">
        <ele>62.75355</ele>
        <time>2021-12-26T10:31:03.999Z</time>
      </trkpt>
      <trkpt lat="48.04186" lon="-1.51614">
        <ele>62.95518</ele>
        <time>2021-12-26T10:31:04.999Z</time>
      </trkpt>
      <trkpt lat="48.04191" lon="-1.51614">
        <ele>63.09306</ele>
        <time>2021-12-26T10:31:05.999Z</time>
      </trkpt>
      <trkpt lat="48.04196" lon="-1.51614">
        <ele>63.17026</ele>
        <time>2021-12-26T10:31:06.999Z</time>
      </trkpt>
      <trkpt lat="48.042" lon="-1.51613">
        <ele>63.18745</ele>
        <time>2021-12-26T10:31:07.999Z</time>
      </trkpt>
      <trkpt lat="48.04204" lon="-1.51611">
        <ele>63.16276</ele>
        <time>2021-12-26T10:31:08.999Z</time>
      </trkpt>
      <trkpt lat="48.04208" lon="-1.51607">
        <ele>63.10058</ele>
        <time>2021-12-26T10:31:09.999Z</time>
      </trkpt>
      <trkpt lat="48.04211" lon="-1.51603">
        <ele>63.03302</ele>
        <time>2021-12-26T10:31:10.999Z</time>
      </trkpt>
      <trkpt lat="48.04213" lon="-1.51597">
        <ele>62.97666</ele>
        <time>2021-12-26T10:31:11.999Z</time>
      </trkpt>
      <trkpt lat="48.04216" lon="-1.51592">
        <ele>62.92641</ele>
        <time>2021-12-26T10:31:12.999Z</time>
      </trkpt>
      <trkpt lat="48.04219" lon="-1.51587">
        <ele>62.87533</ele>
        <time>2021-12-26T10:31:13.999Z</time>
      </trkpt>
      <trkpt lat="48.04222" lon="-1.51581">
        <ele>62.81891</ele>
        <time>2021-12-26T10:31:14.999Z</time>
      </trkpt>
      <trkpt lat="48.04225" lon="-1.51576">
        <ele>62.75703</ele>
        <time>2021-12-26T10:31:15.999Z</time>
      </trkpt>
      <trkpt lat="48.04229" lon="-1.51574">
        <ele>62.69121</ele>
        <time>2021-12-26T10:31:16.999Z</time>
      </trkpt>
      <trkpt lat="48.04233" lon="-1.51575">
        <ele>62.63752</ele>
        <time>2021-12-26T10:31:17.999Z</time>
      </trkpt>
      <trkpt lat="48.04237" lon="-1.51575">
        <ele>62.61051</ele>
        <time>2021-12-26T10:31:18.999Z</time>
      </trkpt>
      <trkpt lat="48.04241" lon="-1.51576">
        <ele>62.60226</ele>
        <time>2021-12-26T10:31:19.999Z</time>
      </trkpt>
      <trkpt lat="48.04245" lon="-1.51577">
        <ele>62.60125</ele>
        <time>2021-12-26T10:31:20.999Z</time>
      </trkpt>
      <trkpt lat="48.04247" lon="-1.51578">
        <ele>62.60065</ele>
        <time>2021-12-26T10:31:21.999Z</time>
      </trkpt>
      <trkpt lat="48.04251" lon="-1.51581">
        <ele>62.58738</ele>
        <time>2021-12-26T10:31:22.999Z</time>
      </trkpt>
      <trkpt lat="48.04253" lon="-1.51583">
        <ele>62.57185</ele>
        <time>2021-12-26T10:31:23.999Z</time>
      </trkpt>
      <trkpt lat="48.04295" lon="-1.51546">
        <ele>62.1</ele>
      </trkpt>
    </trkseg>
  </trk>
</gpx>